<?xml version='1.0' encoding='UTF-8'?><gpx version="1.1" creator="JPX - https://github.com/jenetics/jpx" xmlns="http://www.topografix.com/GPX/1/1"><trk><trkseg><trkpt lat="44.4646909" lon="9.720494"><ele>449.33333333333337</ele><time>2026-04-26T09:17:16.875Z</time></trkpt><trkpt lat="44.4645655" lon="9.7203432"><ele>451.6666666666667</ele><time>2026-04-26T09:17:17.875Z</time></trkpt><trkpt lat="44.4644428" lon="9.7201956"><ele>454.0</ele><time>2026-04-26T09:17:18.876Z</time></trkpt><trkpt lat="44.4643157" lon="9.7200427"><ele>454.0</ele><time>2026-04-26T09:17:19.875Z</time></trkpt><trkpt lat="44.4640615" lon="9.7197274"><ele>454.0</ele><time>2026-04-26T09:17:21.875Z</time></trkpt><trkpt lat="44.463922" lon="9.7195886"><ele>454.6666666666667</ele><time>2026-04-26T09:17:22.875Z</time></trkpt><trkpt lat="44.46377" lon="9.7194691"><ele>455.33333333333337</ele><time>2026-04-26T09:17:23.875Z</time></trkpt><trkpt lat="44.4636221" lon="9.7193627"><ele>456.0</ele><time>2026-04-26T09:17:24.875Z</time></trkpt><trkpt lat="44.4634819" lon="9.719266"><ele>456.0</ele><time>2026-04-26T09:17:25.875Z</time></trkpt><trkpt lat="44.4633588" lon="9.7191716"><ele>456.0</ele><time>2026-04-26T09:17:26.876Z</time></trkpt><trkpt lat="44.463254" lon="9.7190647"><ele>456.0</ele><time>2026-04-26T09:17:27.876Z</time></trkpt><trkpt lat="44.4631691" lon="9.7189253"><ele>456.0</ele><time>2026-04-26T09:17:28.875Z</time></trkpt><trkpt lat="44.4631058" lon="9.7187414"><ele>454.66666666666663</ele><time>2026-04-26T09:17:29.876Z</time></trkpt><trkpt lat="44.4630601" lon="9.7185154"><ele>453.3333333333333</ele><time>2026-04-26T09:17:30.875Z</time></trkpt><trkpt lat="44.4630193" lon="9.7182825"><ele>452.0</ele><time>2026-04-26T09:17:31.876Z</time></trkpt><trkpt lat="44.4629798" lon="9.7180535"><ele>454.66666666666663</ele><time>2026-04-26T09:17:32.876Z</time></trkpt><trkpt lat="44.4629454" lon="9.7178342"><ele>457.33333333333337</ele><time>2026-04-26T09:17:33.875Z</time></trkpt><trkpt lat="44.4629125" lon="9.7176284"><ele>460.0</ele><time>2026-04-26T09:17:34.875Z</time></trkpt><trkpt lat="44.462868" lon="9.7174309"><ele>460.0</ele><time>2026-04-26T09:17:35.876Z</time></trkpt><trkpt lat="44.4627926" lon="9.7172322"><ele>460.0</ele><time>2026-04-26T09:17:36.876Z</time></trkpt><trkpt lat="44.4626946" lon="9.7170447"><ele>460.0</ele><time>2026-04-26T09:17:37.875Z</time></trkpt><trkpt lat="44.4625808" lon="9.7168602"><ele>458.6666666666667</ele><time>2026-04-26T09:17:38.875Z</time></trkpt><trkpt lat="44.4624582" lon="9.7166829"><ele>457.33333333333337</ele><time>2026-04-26T09:17:39.875Z</time></trkpt><trkpt lat="44.4623373" lon="9.7165066"><ele>456.0</ele><time>2026-04-26T09:17:40.875Z</time></trkpt><trkpt lat="44.4622188" lon="9.7163311"><ele>458.66666666666663</ele><time>2026-04-26T09:17:41.875Z</time></trkpt><trkpt lat="44.4621019" lon="9.7161565"><ele>461.3333333333333</ele><time>2026-04-26T09:17:42.876Z</time></trkpt><trkpt lat="44.4619853" lon="9.7159784"><ele>464.0</ele><time>2026-04-26T09:17:43.876Z</time></trkpt><trkpt lat="44.4618748" lon="9.7157959"><ele>464.0</ele><time>2026-04-26T09:17:44.875Z</time></trkpt><trkpt lat="44.4617772" lon="9.7156053"><ele>464.0</ele><time>2026-04-26T09:17:45.875Z</time></trkpt><trkpt lat="44.4616876" lon="9.7154067"><ele>464.0</ele><time>2026-04-26T09:17:46.876Z</time></trkpt><trkpt lat="44.4616028" lon="9.715207"><ele>463.3333333333333</ele><time>2026-04-26T09:17:47.876Z</time></trkpt><trkpt lat="44.4615166" lon="9.7150066"><ele>462.66666666666663</ele><time>2026-04-26T09:17:48.875Z</time></trkpt><trkpt lat="44.4614318" lon="9.7148002"><ele>462.0</ele><time>2026-04-26T09:17:49.875Z</time></trkpt><trkpt lat="44.4613465" lon="9.7145958"><ele>463.75</ele><time>2026-04-26T09:17:50.875Z</time></trkpt><trkpt lat="44.4612607" lon="9.7144043"><ele>465.5</ele><time>2026-04-26T09:17:51.875Z</time></trkpt><trkpt lat="44.4611747" lon="9.7142575"><ele>467.25</ele><time>2026-04-26T09:17:52.875Z</time></trkpt><trkpt lat="44.4610737" lon="9.7141447"><ele>469.0</ele><time>2026-04-26T09:17:53.876Z</time></trkpt><trkpt lat="44.4609584" lon="9.7140683"><ele>469.0</ele><time>2026-04-26T09:17:54.876Z</time></trkpt><trkpt lat="44.4608304" lon="9.7140348"><ele>469.0</ele><time>2026-04-26T09:17:55.875Z</time></trkpt><trkpt lat="44.4606994" lon="9.7140367"><ele>469.0</ele><time>2026-04-26T09:17:56.876Z</time></trkpt><trkpt lat="44.4605733" lon="9.7140643"><ele>469.0</ele><time>2026-04-26T09:17:57.876Z</time></trkpt><trkpt lat="44.460435" lon="9.7140801"><ele>470.0</ele><time>2026-04-26T09:17:58.876Z</time></trkpt><trkpt lat="44.4602972" lon="9.7140693"><ele>471.0</ele><time>2026-04-26T09:17:59.876Z</time></trkpt><trkpt lat="44.4601722" lon="9.71401"><ele>472.0</ele><time>2026-04-26T09:18:00.875Z</time></trkpt><trkpt lat="44.4600623" lon="9.7139043"><ele>473.0</ele><time>2026-04-26T09:18:01.875Z</time></trkpt><trkpt lat="44.4599744" lon="9.7137529"><ele>472.0</ele><time>2026-04-26T09:18:02.875Z</time></trkpt><trkpt lat="44.4599148" lon="9.7135657"><ele>471.0</ele><time>2026-04-26T09:18:03.876Z</time></trkpt><trkpt lat="44.4598895" lon="9.7133568"><ele>470.0</ele><time>2026-04-26T09:18:04.875Z</time></trkpt><trkpt lat="44.4598751" lon="9.7131311"><ele>470.0</ele><time>2026-04-26T09:18:05.875Z</time></trkpt><trkpt lat="44.4598661" lon="9.7128943"><ele>470.0</ele><time>2026-04-26T09:18:06.875Z</time></trkpt><trkpt lat="44.4598558" lon="9.7126696"><ele>470.0</ele><time>2026-04-26T09:18:07.875Z</time></trkpt><trkpt lat="44.4598455" lon="9.7124647"><ele>470.0</ele><time>2026-04-26T09:18:08.875Z</time></trkpt><trkpt lat="44.4598352" lon="9.7122734"><ele>470.0</ele><time>2026-04-26T09:18:09.876Z</time></trkpt><trkpt lat="44.4598237" lon="9.7120991"><ele>470.0</ele><time>2026-04-26T09:18:10.875Z</time></trkpt><trkpt lat="44.4598041" lon="9.7119186"><ele>470.0</ele><time>2026-04-26T09:18:11.876Z</time></trkpt><trkpt lat="44.4597698" lon="9.7117382"><ele>469.75</ele><time>2026-04-26T09:18:12.875Z</time></trkpt><trkpt lat="44.4597209" lon="9.7115799"><ele>469.5</ele><time>2026-04-26T09:18:13.876Z</time></trkpt><trkpt lat="44.459663" lon="9.7114485"><ele>469.25</ele><time>2026-04-26T09:18:14.876Z</time></trkpt><trkpt lat="44.459588" lon="9.7113278"><ele>469.0</ele><time>2026-04-26T09:18:15.875Z</time></trkpt><trkpt lat="44.459494" lon="9.7112099"><ele>470.75</ele><time>2026-04-26T09:18:16.875Z</time></trkpt><trkpt lat="44.4593894" lon="9.7110903"><ele>472.5</ele><time>2026-04-26T09:18:17.875Z</time></trkpt><trkpt lat="44.4592844" lon="9.710968"><ele>474.25</ele><time>2026-04-26T09:18:18.875Z</time></trkpt><trkpt lat="44.4591885" lon="9.7108646"><ele>476.0</ele><time>2026-04-26T09:18:19.875Z</time></trkpt><trkpt lat="44.4591061" lon="9.7107762"><ele>475.99999999999994</ele><time>2026-04-26T09:18:20.876Z</time></trkpt><trkpt lat="44.4590335" lon="9.7106999"><ele>476.0</ele><time>2026-04-26T09:18:21.876Z</time></trkpt><trkpt lat="44.4589652" lon="9.7106293"><ele>476.0</ele><time>2026-04-26T09:18:22.876Z</time></trkpt><trkpt lat="44.4589041" lon="9.7105667"><ele>476.0</ele><time>2026-04-26T09:18:23.876Z</time></trkpt><trkpt lat="44.4588434" lon="9.7105065"><ele>475.99999999999994</ele><time>2026-04-26T09:18:24.875Z</time></trkpt><trkpt lat="44.4587887" lon="9.7104449"><ele>476.0</ele><time>2026-04-26T09:18:25.875Z</time></trkpt><trkpt lat="44.4586982" lon="9.710341"><ele>476.16666666666663</ele><time>2026-04-26T09:18:27.876Z</time></trkpt><trkpt lat="44.458613" lon="9.7102388"><ele>476.3333333333333</ele><time>2026-04-26T09:18:29.875Z</time></trkpt><trkpt lat="44.4585676" lon="9.7101685"><ele>476.5</ele><time>2026-04-26T09:18:31.875Z</time></trkpt><trkpt lat="44.458513" lon="9.7101144"><ele>476.66666666666663</ele><time>2026-04-26T09:18:34.875Z</time></trkpt><trkpt lat="44.4584512" lon="9.7100478"><ele>476.8333333333333</ele><time>2026-04-26T09:18:37.875Z</time></trkpt><trkpt lat="44.4583965" lon="9.7099909"><ele>477.0</ele><time>2026-04-26T09:18:40.876Z</time></trkpt><trkpt lat="44.4584533" lon="9.7101192"><ele>477.0</ele><time>2026-04-26T09:19:34.875Z</time></trkpt><trkpt lat="44.458534" lon="9.7102009"><ele>477.00000000000006</ele><time>2026-04-26T09:19:35.876Z</time></trkpt><trkpt lat="44.4586198" lon="9.7102923"><ele>477.00000000000006</ele><time>2026-04-26T09:19:36.876Z</time></trkpt><trkpt lat="44.4586957" lon="9.7103772"><ele>477.0</ele><time>2026-04-26T09:19:37.876Z</time></trkpt><trkpt lat="44.4587673" lon="9.7104498"><ele>477.0</ele><time>2026-04-26T09:19:38.876Z</time></trkpt><trkpt lat="44.4588234" lon="9.7105037"><ele>476.8</ele><time>2026-04-26T09:19:39.876Z</time></trkpt><trkpt lat="44.4588747" lon="9.7105557"><ele>476.6</ele><time>2026-04-26T09:19:40.875Z</time></trkpt><trkpt lat="44.4589592" lon="9.7106501"><ele>476.40000000000003</ele><time>2026-04-26T09:19:42.875Z</time></trkpt><trkpt lat="44.4590278" lon="9.7107423"><ele>476.20000000000005</ele><time>2026-04-26T09:19:44.876Z</time></trkpt><trkpt lat="44.4590694" lon="9.7108679"><ele>476.0</ele><time>2026-04-26T09:19:46.875Z</time></trkpt><trkpt lat="44.459106" lon="9.711032"><ele>476.8333333333333</ele><time>2026-04-26T09:19:48.877Z</time></trkpt><trkpt lat="44.4591244" lon="9.7111212"><ele>477.66666666666663</ele><time>2026-04-26T09:19:49.875Z</time></trkpt><trkpt lat="44.4590812" lon="9.711268"><ele>478.5</ele><time>2026-04-26T09:19:51.875Z</time></trkpt><trkpt lat="44.4590164" lon="9.711304"><ele>479.33333333333337</ele><time>2026-04-26T09:19:52.875Z</time></trkpt><trkpt lat="44.4589351" lon="9.7113338"><ele>480.1666666666667</ele><time>2026-04-26T09:19:53.875Z</time></trkpt><trkpt lat="44.4588522" lon="9.7113566"><ele>481.0</ele><time>2026-04-26T09:19:54.877Z</time></trkpt><trkpt lat="44.4587581" lon="9.7113823"><ele>483.0</ele><time>2026-04-26T09:19:55.875Z</time></trkpt><trkpt lat="44.4586617" lon="9.7114097"><ele>485.0</ele><time>2026-04-26T09:19:56.875Z</time></trkpt><trkpt lat="44.4585612" lon="9.7114308"><ele>487.0</ele><time>2026-04-26T09:19:57.876Z</time></trkpt><trkpt lat="44.4584625" lon="9.7114409"><ele>489.0</ele><time>2026-04-26T09:19:58.876Z</time></trkpt><trkpt lat="44.458367" lon="9.7114532"><ele>491.0</ele><time>2026-04-26T09:19:59.875Z</time></trkpt><trkpt lat="44.4582682" lon="9.7114709"><ele>491.0</ele><time>2026-04-26T09:20:00.875Z</time></trkpt><trkpt lat="44.4581665" lon="9.7114886"><ele>491.0</ele><time>2026-04-26T09:20:01.876Z</time></trkpt><trkpt lat="44.4580627" lon="9.7115107"><ele>491.0</ele><time>2026-04-26T09:20:02.876Z</time></trkpt><trkpt lat="44.4579539" lon="9.7115316"><ele>491.0</ele><time>2026-04-26T09:20:03.875Z</time></trkpt><trkpt lat="44.4578455" lon="9.7115483"><ele>491.0</ele><time>2026-04-26T09:20:04.875Z</time></trkpt><trkpt lat="44.4577434" lon="9.7115632"><ele>492.49999999999994</ele><time>2026-04-26T09:20:05.876Z</time></trkpt><trkpt lat="44.4576447" lon="9.7115692"><ele>494.0</ele><time>2026-04-26T09:20:06.875Z</time></trkpt><trkpt lat="44.4575543" lon="9.7115626"><ele>495.5</ele><time>2026-04-26T09:20:07.875Z</time></trkpt><trkpt lat="44.4574677" lon="9.7115494"><ele>497.0</ele><time>2026-04-26T09:20:08.876Z</time></trkpt><trkpt lat="44.4573848" lon="9.7115579"><ele>498.49999999999994</ele><time>2026-04-26T09:20:09.874Z</time></trkpt><trkpt lat="44.4573072" lon="9.7116015"><ele>500.0</ele><time>2026-04-26T09:20:10.874Z</time></trkpt><trkpt lat="44.4572389" lon="9.7116777"><ele>500.0</ele><time>2026-04-26T09:20:11.874Z</time></trkpt><trkpt lat="44.4571682" lon="9.7117598"><ele>500.0</ele><time>2026-04-26T09:20:12.874Z</time></trkpt><trkpt lat="44.4571013" lon="9.7118466"><ele>500.0</ele><time>2026-04-26T09:20:13.874Z</time></trkpt><trkpt lat="44.4570345" lon="9.7119323"><ele>500.0</ele><time>2026-04-26T09:20:14.874Z</time></trkpt><trkpt lat="44.4569698" lon="9.7120261"><ele>500.0</ele><time>2026-04-26T09:20:15.874Z</time></trkpt><trkpt lat="44.456909" lon="9.7121234"><ele>503.49999999999994</ele><time>2026-04-26T09:20:16.874Z</time></trkpt><trkpt lat="44.4568595" lon="9.712219"><ele>507.0</ele><time>2026-04-26T09:20:17.874Z</time></trkpt><trkpt lat="44.4568097" lon="9.7123023"><ele>510.5</ele><time>2026-04-26T09:20:18.876Z</time></trkpt><trkpt lat="44.4567547" lon="9.7123798"><ele>514.0</ele><time>2026-04-26T09:20:19.875Z</time></trkpt><trkpt lat="44.4566931" lon="9.7124408"><ele>517.5</ele><time>2026-04-26T09:20:20.875Z</time></trkpt><trkpt lat="44.4566369" lon="9.7125091"><ele>521.0</ele><time>2026-04-26T09:20:21.874Z</time></trkpt><trkpt lat="44.4565768" lon="9.7125872"><ele>521.0</ele><time>2026-04-26T09:20:22.874Z</time></trkpt><trkpt lat="44.4565256" lon="9.7126777"><ele>521.0</ele><time>2026-04-26T09:20:23.875Z</time></trkpt><trkpt lat="44.4564774" lon="9.7127751"><ele>521.0</ele><time>2026-04-26T09:20:24.874Z</time></trkpt><trkpt lat="44.4564233" lon="9.7128711"><ele>521.0</ele><time>2026-04-26T09:20:25.874Z</time></trkpt><trkpt lat="44.4563729" lon="9.7129708"><ele>521.0</ele><time>2026-04-26T09:20:26.874Z</time></trkpt><trkpt lat="44.4563245" lon="9.7130761"><ele>521.0</ele><time>2026-04-26T09:20:27.874Z</time></trkpt><trkpt lat="44.4562689" lon="9.7131751"><ele>523.8333333333333</ele><time>2026-04-26T09:20:28.875Z</time></trkpt><trkpt lat="44.4562005" lon="9.7132587"><ele>526.6666666666666</ele><time>2026-04-26T09:20:29.875Z</time></trkpt><trkpt lat="44.4561244" lon="9.7133202"><ele>529.5</ele><time>2026-04-26T09:20:30.874Z</time></trkpt><trkpt lat="44.4560425" lon="9.7133565"><ele>532.3333333333334</ele><time>2026-04-26T09:20:31.874Z</time></trkpt><trkpt lat="44.4559586" lon="9.7133724"><ele>535.1666666666667</ele><time>2026-04-26T09:20:32.874Z</time></trkpt><trkpt lat="44.4558803" lon="9.7133844"><ele>538.0</ele><time>2026-04-26T09:20:33.875Z</time></trkpt><trkpt lat="44.4558038" lon="9.7134117"><ele>538.0</ele><time>2026-04-26T09:20:34.875Z</time></trkpt><trkpt lat="44.45574" lon="9.7134595"><ele>538.0</ele><time>2026-04-26T09:20:35.875Z</time></trkpt><trkpt lat="44.4556802" lon="9.7135246"><ele>538.0</ele><time>2026-04-26T09:20:36.875Z</time></trkpt><trkpt lat="44.4556433" lon="9.7136188"><ele>538.0</ele><time>2026-04-26T09:20:37.875Z</time></trkpt><trkpt lat="44.4556237" lon="9.7137563"><ele>538.0</ele><time>2026-04-26T09:20:38.874Z</time></trkpt><trkpt lat="44.4556071" lon="9.7138836"><ele>538.0</ele><time>2026-04-26T09:20:39.874Z</time></trkpt><trkpt lat="44.4555931" lon="9.714024"><ele>538.6</ele><time>2026-04-26T09:20:40.874Z</time></trkpt><trkpt lat="44.4555845" lon="9.7141508"><ele>539.1999999999999</ele><time>2026-04-26T09:20:41.874Z</time></trkpt><trkpt lat="44.4555765" lon="9.7142904"><ele>539.8</ele><time>2026-04-26T09:20:42.874Z</time></trkpt><trkpt lat="44.4555724" lon="9.7144205"><ele>540.4</ele><time>2026-04-26T09:20:43.874Z</time></trkpt><trkpt lat="44.4555536" lon="9.7145185"><ele>541.0</ele><time>2026-04-26T09:20:44.874Z</time></trkpt><trkpt lat="44.4554657" lon="9.7145989"><ele>542.6</ele><time>2026-04-26T09:20:46.875Z</time></trkpt><trkpt lat="44.455388" lon="9.7145888"><ele>544.2</ele><time>2026-04-26T09:20:47.875Z</time></trkpt><trkpt lat="44.4553108" lon="9.7145607"><ele>545.8</ele><time>2026-04-26T09:20:48.874Z</time></trkpt><trkpt lat="44.455219" lon="9.714438"><ele>547.4</ele><time>2026-04-26T09:20:50.874Z</time></trkpt><trkpt lat="44.4551626" lon="9.7143577"><ele>549.0</ele><time>2026-04-26T09:20:51.874Z</time></trkpt><trkpt lat="44.4550865" lon="9.7143021"><ele>549.0</ele><time>2026-04-26T09:20:52.875Z</time></trkpt><trkpt lat="44.4550009" lon="9.7142413"><ele>549.0</ele><time>2026-04-26T09:20:53.875Z</time></trkpt><trkpt lat="44.4549307" lon="9.714155"><ele>549.0</ele><time>2026-04-26T09:20:54.875Z</time></trkpt><trkpt lat="44.4548604" lon="9.7140206"><ele>549.0</ele><time>2026-04-26T09:20:55.875Z</time></trkpt><trkpt lat="44.4548015" lon="9.7138479"><ele>549.0</ele><time>2026-04-26T09:20:56.874Z</time></trkpt><trkpt lat="44.4547438" lon="9.7136611"><ele>549.2</ele><time>2026-04-26T09:20:57.874Z</time></trkpt><trkpt lat="44.4546706" lon="9.713502"><ele>549.4</ele><time>2026-04-26T09:20:58.874Z</time></trkpt><trkpt lat="44.4546055" lon="9.7133683"><ele>549.6</ele><time>2026-04-26T09:20:59.874Z</time></trkpt><trkpt lat="44.4545448" lon="9.7132536"><ele>549.8</ele><time>2026-04-26T09:21:00.874Z</time></trkpt><trkpt lat="44.4544844" lon="9.7131563"><ele>550.0</ele><time>2026-04-26T09:21:01.876Z</time></trkpt><trkpt lat="44.4544342" lon="9.7130723"><ele>550.0</ele><time>2026-04-26T09:21:02.875Z</time></trkpt><trkpt lat="44.4543896" lon="9.7129926"><ele>550.0</ele><time>2026-04-26T09:21:03.874Z</time></trkpt><trkpt lat="44.4543245" lon="9.7129095"><ele>550.0</ele><time>2026-04-26T09:21:05.874Z</time></trkpt><trkpt lat="44.4542291" lon="9.7129617"><ele>550.0</ele><time>2026-04-26T09:21:08.874Z</time></trkpt><trkpt lat="44.4541889" lon="9.7130331"><ele>550.0</ele><time>2026-04-26T09:21:09.874Z</time></trkpt><trkpt lat="44.4541233" lon="9.7131331"><ele>550.0</ele><time>2026-04-26T09:21:10.874Z</time></trkpt><trkpt lat="44.4540541" lon="9.7132471"><ele>550.0</ele><time>2026-04-26T09:21:11.874Z</time></trkpt><trkpt lat="44.4539832" lon="9.713365"><ele>550.0</ele><time>2026-04-26T09:21:12.875Z</time></trkpt><trkpt lat="44.453909" lon="9.7134926"><ele>550.0</ele><time>2026-04-26T09:21:13.875Z</time></trkpt><trkpt lat="44.4538379" lon="9.7136288"><ele>550.0</ele><time>2026-04-26T09:21:14.874Z</time></trkpt><trkpt lat="44.4537799" lon="9.7137424"><ele>550.0</ele><time>2026-04-26T09:21:15.876Z</time></trkpt><trkpt lat="44.4537224" lon="9.7138221"><ele>554.6</ele><time>2026-04-26T09:21:16.875Z</time></trkpt><trkpt lat="44.4536025" lon="9.7138659"><ele>559.2</ele><time>2026-04-26T09:21:18.874Z</time></trkpt><trkpt lat="44.4535145" lon="9.7138464"><ele>563.8</ele><time>2026-04-26T09:21:19.874Z</time></trkpt><trkpt lat="44.4534081" lon="9.7138346"><ele>568.4</ele><time>2026-04-26T09:21:20.874Z</time></trkpt><trkpt lat="44.4532887" lon="9.7138315"><ele>573.0</ele><time>2026-04-26T09:21:21.875Z</time></trkpt><trkpt lat="44.4531714" lon="9.7138343"><ele>573.0</ele><time>2026-04-26T09:21:22.875Z</time></trkpt><trkpt lat="44.4530554" lon="9.7138437"><ele>573.0</ele><time>2026-04-26T09:21:23.874Z</time></trkpt><trkpt lat="44.4529583" lon="9.7138588"><ele>573.0</ele><time>2026-04-26T09:21:24.874Z</time></trkpt><trkpt lat="44.45287" lon="9.7139043"><ele>573.0</ele><time>2026-04-26T09:21:25.875Z</time></trkpt><trkpt lat="44.4527822" lon="9.7139791"><ele>573.0</ele><time>2026-04-26T09:21:26.874Z</time></trkpt><trkpt lat="44.4526905" lon="9.7140776"><ele>575.0</ele><time>2026-04-26T09:21:27.874Z</time></trkpt><trkpt lat="44.4526012" lon="9.7141871"><ele>577.0</ele><time>2026-04-26T09:21:28.875Z</time></trkpt><trkpt lat="44.4525278" lon="9.7143008"><ele>579.0</ele><time>2026-04-26T09:21:29.875Z</time></trkpt><trkpt lat="44.4524803" lon="9.7144106"><ele>581.0</ele><time>2026-04-26T09:21:30.875Z</time></trkpt><trkpt lat="44.4524473" lon="9.7145268"><ele>583.0</ele><time>2026-04-26T09:21:31.874Z</time></trkpt><trkpt lat="44.4524322" lon="9.7146449"><ele>584.1999999999999</ele><time>2026-04-26T09:21:32.874Z</time></trkpt><trkpt lat="44.4524354" lon="9.7147757"><ele>585.4</ele><time>2026-04-26T09:21:33.874Z</time></trkpt><trkpt lat="44.4524443" lon="9.7149217"><ele>586.5999999999999</ele><time>2026-04-26T09:21:34.875Z</time></trkpt><trkpt lat="44.4524476" lon="9.715088"><ele>587.8</ele><time>2026-04-26T09:21:35.875Z</time></trkpt><trkpt lat="44.4524436" lon="9.7152613"><ele>589.0</ele><time>2026-04-26T09:21:36.874Z</time></trkpt><trkpt lat="44.4524318" lon="9.7154272"><ele>590.4</ele><time>2026-04-26T09:21:37.874Z</time></trkpt><trkpt lat="44.452426" lon="9.7155825"><ele>591.8</ele><time>2026-04-26T09:21:38.875Z</time></trkpt><trkpt lat="44.4524389" lon="9.7157417"><ele>593.2</ele><time>2026-04-26T09:21:39.876Z</time></trkpt><trkpt lat="44.4524481" lon="9.7158903"><ele>594.6</ele><time>2026-04-26T09:21:40.874Z</time></trkpt><trkpt lat="44.4524561" lon="9.7160317"><ele>596.0</ele><time>2026-04-26T09:21:41.874Z</time></trkpt><trkpt lat="44.4524485" lon="9.7161389"><ele>597.1666666666666</ele><time>2026-04-26T09:21:42.874Z</time></trkpt><trkpt lat="44.4524055" lon="9.7162959"><ele>598.3333333333333</ele><time>2026-04-26T09:21:44.874Z</time></trkpt><trkpt lat="44.4523399" lon="9.7163288"><ele>599.5</ele><time>2026-04-26T09:21:45.874Z</time></trkpt><trkpt lat="44.4522777" lon="9.7163683"><ele>600.6666666666666</ele><time>2026-04-26T09:21:46.875Z</time></trkpt><trkpt lat="44.4522121" lon="9.7164235"><ele>601.8333333333334</ele><time>2026-04-26T09:21:47.875Z</time></trkpt><trkpt lat="44.4521563" lon="9.7164907"><ele>603.0</ele><time>2026-04-26T09:21:48.875Z</time></trkpt><trkpt lat="44.4521029" lon="9.7165729"><ele>603.8</ele><time>2026-04-26T09:21:49.875Z</time></trkpt><trkpt lat="44.4520524" lon="9.7166786"><ele>604.5999999999999</ele><time>2026-04-26T09:21:50.875Z</time></trkpt><trkpt lat="44.4519983" lon="9.7168047"><ele>605.4000000000001</ele><time>2026-04-26T09:21:51.875Z</time></trkpt><trkpt lat="44.4519475" lon="9.7169339"><ele>606.2</ele><time>2026-04-26T09:21:52.876Z</time></trkpt><trkpt lat="44.4518973" lon="9.7170918"><ele>607.0</ele><time>2026-04-26T09:21:53.875Z</time></trkpt><trkpt lat="44.4518542" lon="9.7172915"><ele>608.8000000000001</ele><time>2026-04-26T09:21:54.874Z</time></trkpt><trkpt lat="44.4518431" lon="9.7174631"><ele>610.6</ele><time>2026-04-26T09:21:55.874Z</time></trkpt><trkpt lat="44.4518189" lon="9.7176079"><ele>612.4000000000001</ele><time>2026-04-26T09:21:56.876Z</time></trkpt><trkpt lat="44.4517925" lon="9.7177316"><ele>614.2</ele><time>2026-04-26T09:21:57.875Z</time></trkpt><trkpt lat="44.4517615" lon="9.7178391"><ele>616.0</ele><time>2026-04-26T09:21:58.874Z</time></trkpt><trkpt lat="44.4517203" lon="9.7179407"><ele>617.6</ele><time>2026-04-26T09:21:59.874Z</time></trkpt><trkpt lat="44.4516763" lon="9.7180414"><ele>619.2</ele><time>2026-04-26T09:22:00.874Z</time></trkpt><trkpt lat="44.4516238" lon="9.7181454"><ele>620.8</ele><time>2026-04-26T09:22:01.875Z</time></trkpt><trkpt lat="44.4515663" lon="9.7182589"><ele>622.4</ele><time>2026-04-26T09:22:02.874Z</time></trkpt><trkpt lat="44.4515109" lon="9.7183538"><ele>624.0</ele><time>2026-04-26T09:22:03.874Z</time></trkpt><trkpt lat="44.4514396" lon="9.7184515"><ele>624.0</ele><time>2026-04-26T09:22:04.874Z</time></trkpt><trkpt lat="44.4513625" lon="9.7185538"><ele>624.0</ele><time>2026-04-26T09:22:05.874Z</time></trkpt><trkpt lat="44.4512774" lon="9.718659"><ele>624.0</ele><time>2026-04-26T09:22:06.874Z</time></trkpt><trkpt lat="44.4511907" lon="9.7187643"><ele>624.0</ele><time>2026-04-26T09:22:07.876Z</time></trkpt><trkpt lat="44.451104" lon="9.7188725"><ele>627.75</ele><time>2026-04-26T09:22:08.874Z</time></trkpt><trkpt lat="44.4510183" lon="9.7189804"><ele>631.5</ele><time>2026-04-26T09:22:09.875Z</time></trkpt><trkpt lat="44.4509276" lon="9.7190939"><ele>635.25</ele><time>2026-04-26T09:22:10.874Z</time></trkpt><trkpt lat="44.4508384" lon="9.7192036"><ele>639.0</ele><time>2026-04-26T09:22:11.874Z</time></trkpt><trkpt lat="44.450753" lon="9.719309"><ele>639.4</ele><time>2026-04-26T09:22:12.874Z</time></trkpt><trkpt lat="44.4506707" lon="9.7194095"><ele>639.8</ele><time>2026-04-26T09:22:13.874Z</time></trkpt><trkpt lat="44.450586" lon="9.7194905"><ele>640.1999999999999</ele><time>2026-04-26T09:22:14.874Z</time></trkpt><trkpt lat="44.4505044" lon="9.7195422"><ele>640.5999999999999</ele><time>2026-04-26T09:22:15.875Z</time></trkpt><trkpt lat="44.450423" lon="9.7195732"><ele>641.0</ele><time>2026-04-26T09:22:16.875Z</time></trkpt><trkpt lat="44.4503448" lon="9.7195979"><ele>641.4</ele><time>2026-04-26T09:22:17.874Z</time></trkpt><trkpt lat="44.4502553" lon="9.7196116"><ele>641.8</ele><time>2026-04-26T09:22:18.875Z</time></trkpt><trkpt lat="44.4501572" lon="9.7196163"><ele>642.1999999999999</ele><time>2026-04-26T09:22:19.874Z</time></trkpt><trkpt lat="44.4500506" lon="9.71963"><ele>642.5999999999999</ele><time>2026-04-26T09:22:20.875Z</time></trkpt><trkpt lat="44.4499512" lon="9.7196387"><ele>643.0</ele><time>2026-04-26T09:22:21.875Z</time></trkpt><trkpt lat="44.449861" lon="9.7196499"><ele>643.0</ele><time>2026-04-26T09:22:22.874Z</time></trkpt><trkpt lat="44.4497753" lon="9.719689"><ele>643.0</ele><time>2026-04-26T09:22:23.875Z</time></trkpt><trkpt lat="44.4496916" lon="9.7197637"><ele>643.0</ele><time>2026-04-26T09:22:24.875Z</time></trkpt><trkpt lat="44.4496058" lon="9.719856"><ele>643.0</ele><time>2026-04-26T09:22:25.874Z</time></trkpt><trkpt lat="44.4495051" lon="9.7199225"><ele>643.0</ele><time>2026-04-26T09:22:26.875Z</time></trkpt><trkpt lat="44.4493999" lon="9.7199492"><ele>643.6666666666667</ele><time>2026-04-26T09:22:27.874Z</time></trkpt><trkpt lat="44.4493026" lon="9.719946"><ele>644.3333333333334</ele><time>2026-04-26T09:22:28.874Z</time></trkpt><trkpt lat="44.4492178" lon="9.7199268"><ele>645.0</ele><time>2026-04-26T09:22:29.874Z</time></trkpt><trkpt lat="44.4491343" lon="9.7199053"><ele>645.6666666666666</ele><time>2026-04-26T09:22:30.874Z</time></trkpt><trkpt lat="44.449067" lon="9.7198707"><ele>646.3333333333333</ele><time>2026-04-26T09:22:31.874Z</time></trkpt><trkpt lat="44.4490011" lon="9.7198034"><ele>647.0</ele><time>2026-04-26T09:22:32.875Z</time></trkpt><trkpt lat="44.4489398" lon="9.7197191"><ele>647.0</ele><time>2026-04-26T09:22:33.875Z</time></trkpt><trkpt lat="44.4488764" lon="9.7196329"><ele>647.0</ele><time>2026-04-26T09:22:34.875Z</time></trkpt><trkpt lat="44.448804" lon="9.7195389"><ele>647.0</ele><time>2026-04-26T09:22:35.875Z</time></trkpt><trkpt lat="44.4487315" lon="9.719437"><ele>647.0</ele><time>2026-04-26T09:22:36.874Z</time></trkpt><trkpt lat="44.4486531" lon="9.7193332"><ele>647.0</ele><time>2026-04-26T09:22:37.874Z</time></trkpt><trkpt lat="44.4485696" lon="9.7192237"><ele>648.0</ele><time>2026-04-26T09:22:38.874Z</time></trkpt><trkpt lat="44.4484779" lon="9.7191191"><ele>649.0</ele><time>2026-04-26T09:22:39.874Z</time></trkpt><trkpt lat="44.4483781" lon="9.7190197"><ele>650.0</ele><time>2026-04-26T09:22:40.875Z</time></trkpt><trkpt lat="44.448276" lon="9.7189263"><ele>651.0</ele><time>2026-04-26T09:22:41.875Z</time></trkpt><trkpt lat="44.448174" lon="9.7188418"><ele>651.0</ele><time>2026-04-26T09:22:42.874Z</time></trkpt><trkpt lat="44.4480743" lon="9.7187647"><ele>651.0</ele><time>2026-04-26T09:22:43.876Z</time></trkpt><trkpt lat="44.4479739" lon="9.7187039"><ele>651.0</ele><time>2026-04-26T09:22:44.875Z</time></trkpt><trkpt lat="44.4478716" lon="9.7186533"><ele>651.0</ele><time>2026-04-26T09:22:45.874Z</time></trkpt><trkpt lat="44.4477777" lon="9.7185924"><ele>651.0</ele><time>2026-04-26T09:22:46.874Z</time></trkpt><trkpt lat="44.447695" lon="9.7185147"><ele>649.1999999999999</ele><time>2026-04-26T09:22:47.875Z</time></trkpt><trkpt lat="44.447626" lon="9.7184198"><ele>647.4</ele><time>2026-04-26T09:22:48.874Z</time></trkpt><trkpt lat="44.4475636" lon="9.718318"><ele>645.6</ele><time>2026-04-26T09:22:49.874Z</time></trkpt><trkpt lat="44.4475021" lon="9.7182276"><ele>643.8</ele><time>2026-04-26T09:22:50.876Z</time></trkpt><trkpt lat="44.4474313" lon="9.7181438"><ele>642.0</ele><time>2026-04-26T09:22:51.875Z</time></trkpt><trkpt lat="44.4473642" lon="9.7180444"><ele>642.0</ele><time>2026-04-26T09:22:52.875Z</time></trkpt><trkpt lat="44.4473139" lon="9.7179328"><ele>642.0</ele><time>2026-04-26T09:22:53.874Z</time></trkpt><trkpt lat="44.4472868" lon="9.7178071"><ele>642.0</ele><time>2026-04-26T09:22:54.874Z</time></trkpt><trkpt lat="44.4472832" lon="9.7176778"><ele>642.0</ele><time>2026-04-26T09:22:55.875Z</time></trkpt><trkpt lat="44.4472953" lon="9.7175425"><ele>642.0</ele><time>2026-04-26T09:22:56.874Z</time></trkpt><trkpt lat="44.4473037" lon="9.7173936"><ele>639.75</ele><time>2026-04-26T09:22:57.874Z</time></trkpt><trkpt lat="44.4473019" lon="9.7172271"><ele>637.5</ele><time>2026-04-26T09:22:58.874Z</time></trkpt><trkpt lat="44.447287" lon="9.7170513"><ele>635.25</ele><time>2026-04-26T09:22:59.874Z</time></trkpt><trkpt lat="44.4472843" lon="9.7168875"><ele>633.0</ele><time>2026-04-26T09:23:00.874Z</time></trkpt><trkpt lat="44.4472836" lon="9.7167303"><ele>632.8</ele><time>2026-04-26T09:23:01.874Z</time></trkpt><trkpt lat="44.4472773" lon="9.7165949"><ele>632.5999999999999</ele><time>2026-04-26T09:23:02.874Z</time></trkpt><trkpt lat="44.4472358" lon="9.7164858"><ele>632.4000000000001</ele><time>2026-04-26T09:23:03.874Z</time></trkpt><trkpt lat="44.4471739" lon="9.7163891"><ele>632.2</ele><time>2026-04-26T09:23:04.874Z</time></trkpt><trkpt lat="44.4470845" lon="9.7163136"><ele>632.0</ele><time>2026-04-26T09:23:05.874Z</time></trkpt><trkpt lat="44.4469782" lon="9.7162483"><ele>632.0</ele><time>2026-04-26T09:23:06.874Z</time></trkpt><trkpt lat="44.4468728" lon="9.7161744"><ele>632.0</ele><time>2026-04-26T09:23:07.874Z</time></trkpt><trkpt lat="44.4467697" lon="9.7160981"><ele>632.0</ele><time>2026-04-26T09:23:08.874Z</time></trkpt><trkpt lat="44.4466705" lon="9.7160258"><ele>632.0</ele><time>2026-04-26T09:23:09.874Z</time></trkpt><trkpt lat="44.4465703" lon="9.7159868"><ele>632.25</ele><time>2026-04-26T09:23:10.875Z</time></trkpt><trkpt lat="44.4464564" lon="9.715991"><ele>632.5</ele><time>2026-04-26T09:23:11.874Z</time></trkpt><trkpt lat="44.4463368" lon="9.7160259"><ele>632.75</ele><time>2026-04-26T09:23:12.874Z</time></trkpt><trkpt lat="44.4462087" lon="9.7160586"><ele>633.0</ele><time>2026-04-26T09:23:13.874Z</time></trkpt><trkpt lat="44.4460902" lon="9.7160854"><ele>633.0</ele><time>2026-04-26T09:23:14.874Z</time></trkpt><trkpt lat="44.4459764" lon="9.7160985"><ele>633.0</ele><time>2026-04-26T09:23:15.874Z</time></trkpt><trkpt lat="44.4458712" lon="9.7160902"><ele>633.0</ele><time>2026-04-26T09:23:16.874Z</time></trkpt><trkpt lat="44.4457724" lon="9.7160487"><ele>633.0</ele><time>2026-04-26T09:23:17.875Z</time></trkpt><trkpt lat="44.445684" lon="9.7159811"><ele>633.0</ele><time>2026-04-26T09:23:18.874Z</time></trkpt><trkpt lat="44.4456119" lon="9.7159067"><ele>631.7142857142857</ele><time>2026-04-26T09:23:19.874Z</time></trkpt><trkpt lat="44.4455556" lon="9.7158375"><ele>630.4285714285714</ele><time>2026-04-26T09:23:20.875Z</time></trkpt><trkpt lat="44.445503" lon="9.7157753"><ele>629.1428571428571</ele><time>2026-04-26T09:23:21.875Z</time></trkpt><trkpt lat="44.445448" lon="9.7157155"><ele>627.8571428571429</ele><time>2026-04-26T09:23:22.874Z</time></trkpt><trkpt lat="44.4453833" lon="9.7156753"><ele>626.5714285714286</ele><time>2026-04-26T09:23:23.874Z</time></trkpt><trkpt lat="44.4453182" lon="9.7156656"><ele>625.2857142857143</ele><time>2026-04-26T09:23:24.875Z</time></trkpt><trkpt lat="44.4452499" lon="9.7156773"><ele>624.0</ele><time>2026-04-26T09:23:25.875Z</time></trkpt><trkpt lat="44.4451671" lon="9.7157012"><ele>624.0</ele><time>2026-04-26T09:23:26.874Z</time></trkpt><trkpt lat="44.4450904" lon="9.7157276"><ele>624.0</ele><time>2026-04-26T09:23:27.874Z</time></trkpt><trkpt lat="44.4450152" lon="9.7157633"><ele>624.0</ele><time>2026-04-26T09:23:28.874Z</time></trkpt><trkpt lat="44.4449357" lon="9.7157536"><ele>624.0</ele><time>2026-04-26T09:23:29.875Z</time></trkpt><trkpt lat="44.4448717" lon="9.7157266"><ele>624.0</ele><time>2026-04-26T09:23:30.875Z</time></trkpt><trkpt lat="44.4448194" lon="9.7156744"><ele>624.0</ele><time>2026-04-26T09:23:31.874Z</time></trkpt><trkpt lat="44.4447808" lon="9.7155942"><ele>624.0</ele><time>2026-04-26T09:23:32.874Z</time></trkpt><trkpt lat="44.444768" lon="9.7154931"><ele>624.0</ele><time>2026-04-26T09:23:33.874Z</time></trkpt><trkpt lat="44.4447886" lon="9.7153758"><ele>624.0</ele><time>2026-04-26T09:23:34.873Z</time></trkpt><trkpt lat="44.4448195" lon="9.7152406"><ele>624.0</ele><time>2026-04-26T09:23:35.875Z</time></trkpt><trkpt lat="44.4448521" lon="9.7150981"><ele>624.0</ele><time>2026-04-26T09:23:36.874Z</time></trkpt><trkpt lat="44.4448848" lon="9.7149463"><ele>624.0</ele><time>2026-04-26T09:23:37.874Z</time></trkpt><trkpt lat="44.4449273" lon="9.7147895"><ele>623.75</ele><time>2026-04-26T09:23:38.874Z</time></trkpt><trkpt lat="44.4449882" lon="9.714635"><ele>623.5</ele><time>2026-04-26T09:23:39.876Z</time></trkpt><trkpt lat="44.4450664" lon="9.7144779"><ele>623.25</ele><time>2026-04-26T09:23:40.875Z</time></trkpt><trkpt lat="44.4451509" lon="9.7143233"><ele>623.0</ele><time>2026-04-26T09:23:41.874Z</time></trkpt><trkpt lat="44.4452477" lon="9.7141693"><ele>623.75</ele><time>2026-04-26T09:23:42.874Z</time></trkpt><trkpt lat="44.4453458" lon="9.7140194"><ele>624.5</ele><time>2026-04-26T09:23:43.874Z</time></trkpt><trkpt lat="44.4454463" lon="9.7138721"><ele>625.25</ele><time>2026-04-26T09:23:44.874Z</time></trkpt><trkpt lat="44.4455357" lon="9.7137376"><ele>626.0</ele><time>2026-04-26T09:23:45.875Z</time></trkpt><trkpt lat="44.4456139" lon="9.7136161"><ele>623.4</ele><time>2026-04-26T09:23:46.875Z</time></trkpt><trkpt lat="44.445676" lon="9.7134957"><ele>620.8</ele><time>2026-04-26T09:23:47.874Z</time></trkpt><trkpt lat="44.4456917" lon="9.7133511"><ele>618.1999999999999</ele><time>2026-04-26T09:23:48.874Z</time></trkpt><trkpt lat="44.4456922" lon="9.7132032"><ele>615.6</ele><time>2026-04-26T09:23:49.875Z</time></trkpt><trkpt lat="44.4456779" lon="9.7130543"><ele>613.0</ele><time>2026-04-26T09:23:50.874Z</time></trkpt><trkpt lat="44.4456561" lon="9.7128998"><ele>613.0</ele><time>2026-04-26T09:23:51.874Z</time></trkpt><trkpt lat="44.4456393" lon="9.7127328"><ele>613.0</ele><time>2026-04-26T09:23:52.875Z</time></trkpt><trkpt lat="44.4456315" lon="9.7125595"><ele>613.0</ele><time>2026-04-26T09:23:53.874Z</time></trkpt><trkpt lat="44.4456291" lon="9.7123798"><ele>613.0</ele><time>2026-04-26T09:23:54.874Z</time></trkpt><trkpt lat="44.4456352" lon="9.7121982"><ele>613.0</ele><time>2026-04-26T09:23:55.874Z</time></trkpt><trkpt lat="44.4456281" lon="9.7120201"><ele>613.0</ele><time>2026-04-26T09:23:56.874Z</time></trkpt><trkpt lat="44.4456006" lon="9.7118693"><ele>613.0</ele><time>2026-04-26T09:23:57.876Z</time></trkpt><trkpt lat="44.4455539" lon="9.7117443"><ele>613.0</ele><time>2026-04-26T09:23:58.874Z</time></trkpt><trkpt lat="44.4455076" lon="9.7116418"><ele>613.0</ele><time>2026-04-26T09:23:59.875Z</time></trkpt><trkpt lat="44.4454701" lon="9.7114945"><ele>615.6666666666667</ele><time>2026-04-26T09:24:01.874Z</time></trkpt><trkpt lat="44.4454406" lon="9.7113995"><ele>618.3333333333334</ele><time>2026-04-26T09:24:03.875Z</time></trkpt><trkpt lat="44.4453801" lon="9.711462"><ele>621.0</ele><time>2026-04-26T09:24:06.875Z</time></trkpt><trkpt lat="44.4453749" lon="9.711553"><ele>623.6666666666666</ele><time>2026-04-26T09:24:07.873Z</time></trkpt><trkpt lat="44.4453794" lon="9.7116965"><ele>626.3333333333333</ele><time>2026-04-26T09:24:08.873Z</time></trkpt><trkpt lat="44.4453653" lon="9.7118392"><ele>629.0</ele><time>2026-04-26T09:24:09.873Z</time></trkpt><trkpt lat="44.4453212" lon="9.7119827"><ele>629.0</ele><time>2026-04-26T09:24:10.873Z</time></trkpt><trkpt lat="44.4452593" lon="9.7121003"><ele>629.0</ele><time>2026-04-26T09:24:11.874Z</time></trkpt><trkpt lat="44.4451805" lon="9.7121999"><ele>629.0</ele><time>2026-04-26T09:24:12.873Z</time></trkpt><trkpt lat="44.4451038" lon="9.7122754"><ele>629.0</ele><time>2026-04-26T09:24:13.874Z</time></trkpt><trkpt lat="44.4450232" lon="9.712328"><ele>629.0</ele><time>2026-04-26T09:24:14.875Z</time></trkpt><trkpt lat="44.4449361" lon="9.712336"><ele>629.0</ele><time>2026-04-26T09:24:15.874Z</time></trkpt><trkpt lat="44.4448487" lon="9.7122866"><ele>629.0</ele><time>2026-04-26T09:24:16.874Z</time></trkpt><trkpt lat="44.4447741" lon="9.7121973"><ele>629.0</ele><time>2026-04-26T09:24:17.874Z</time></trkpt><trkpt lat="44.4447019" lon="9.7120869"><ele>629.0</ele><time>2026-04-26T09:24:18.874Z</time></trkpt><trkpt lat="44.444624" lon="9.7119564"><ele>629.0</ele><time>2026-04-26T09:24:19.874Z</time></trkpt><trkpt lat="44.4445548" lon="9.7118158"><ele>633.2</ele><time>2026-04-26T09:24:20.873Z</time></trkpt><trkpt lat="44.4445004" lon="9.7116726"><ele>637.4</ele><time>2026-04-26T09:24:21.873Z</time></trkpt><trkpt lat="44.4444762" lon="9.7115352"><ele>641.6</ele><time>2026-04-26T09:24:22.873Z</time></trkpt><trkpt lat="44.4444795" lon="9.7114196"><ele>645.8</ele><time>2026-04-26T09:24:23.873Z</time></trkpt><trkpt lat="44.4444931" lon="9.711324"><ele>650.0</ele><time>2026-04-26T09:24:24.875Z</time></trkpt><trkpt lat="44.444519" lon="9.7111863"><ele>650.4</ele><time>2026-04-26T09:24:26.874Z</time></trkpt><trkpt lat="44.4445455" lon="9.7110047"><ele>650.8</ele><time>2026-04-26T09:24:28.873Z</time></trkpt><trkpt lat="44.4445489" lon="9.7109053"><ele>651.2</ele><time>2026-04-26T09:24:29.874Z</time></trkpt><trkpt lat="44.4444862" lon="9.7107828"><ele>651.6</ele><time>2026-04-26T09:24:31.873Z</time></trkpt><trkpt lat="44.444384" lon="9.7108165"><ele>652.0</ele><time>2026-04-26T09:24:33.873Z</time></trkpt><trkpt lat="44.444328" lon="9.7108954"><ele>652.0</ele><time>2026-04-26T09:24:34.873Z</time></trkpt><trkpt lat="44.4442596" lon="9.7109993"><ele>652.0</ele><time>2026-04-26T09:24:35.874Z</time></trkpt><trkpt lat="44.4441915" lon="9.7111074"><ele>652.0</ele><time>2026-04-26T09:24:36.873Z</time></trkpt><trkpt lat="44.4441236" lon="9.7112108"><ele>652.0</ele><time>2026-04-26T09:24:37.874Z</time></trkpt><trkpt lat="44.4440657" lon="9.711333"><ele>652.0</ele><time>2026-04-26T09:24:38.873Z</time></trkpt><trkpt lat="44.4440207" lon="9.7114663"><ele>651.6666666666667</ele><time>2026-04-26T09:24:39.873Z</time></trkpt><trkpt lat="44.4440007" lon="9.7116032"><ele>651.3333333333334</ele><time>2026-04-26T09:24:40.873Z</time></trkpt><trkpt lat="44.4439718" lon="9.7117232"><ele>651.0</ele><time>2026-04-26T09:24:41.873Z</time></trkpt><trkpt lat="44.4439372" lon="9.711832"><ele>650.6666666666666</ele><time>2026-04-26T09:24:42.873Z</time></trkpt><trkpt lat="44.4438928" lon="9.71191"><ele>650.3333333333333</ele><time>2026-04-26T09:24:43.875Z</time></trkpt><trkpt lat="44.4438364" lon="9.7119636"><ele>650.0</ele><time>2026-04-26T09:24:44.874Z</time></trkpt><trkpt lat="44.4437681" lon="9.7119915"><ele>652.4</ele><time>2026-04-26T09:24:45.874Z</time></trkpt><trkpt lat="44.4436922" lon="9.7119933"><ele>654.8</ele><time>2026-04-26T09:24:46.874Z</time></trkpt><trkpt lat="44.4436081" lon="9.7119614"><ele>657.2</ele><time>2026-04-26T09:24:47.873Z</time></trkpt><trkpt lat="44.4435387" lon="9.7118766"><ele>659.6</ele><time>2026-04-26T09:24:48.873Z</time></trkpt><trkpt lat="44.4434909" lon="9.7117538"><ele>662.0</ele><time>2026-04-26T09:24:49.873Z</time></trkpt><trkpt lat="44.4434802" lon="9.7116027"><ele>662.6</ele><time>2026-04-26T09:24:50.873Z</time></trkpt><trkpt lat="44.4434855" lon="9.7114496"><ele>663.2</ele><time>2026-04-26T09:24:51.874Z</time></trkpt><trkpt lat="44.4434836" lon="9.7112921"><ele>663.8</ele><time>2026-04-26T09:24:52.874Z</time></trkpt><trkpt lat="44.4434671" lon="9.711147"><ele>664.4</ele><time>2026-04-26T09:24:53.873Z</time></trkpt><trkpt lat="44.4434324" lon="9.7110193"><ele>665.0</ele><time>2026-04-26T09:24:54.873Z</time></trkpt><trkpt lat="44.4433728" lon="9.7109092"><ele>665.8</ele><time>2026-04-26T09:24:55.873Z</time></trkpt><trkpt lat="44.4433019" lon="9.7108287"><ele>666.6</ele><time>2026-04-26T09:24:56.873Z</time></trkpt><trkpt lat="44.4432144" lon="9.7107849"><ele>667.4000000000001</ele><time>2026-04-26T09:24:57.873Z</time></trkpt><trkpt lat="44.443123" lon="9.710776"><ele>668.2</ele><time>2026-04-26T09:24:58.874Z</time></trkpt><trkpt lat="44.4430165" lon="9.7107941"><ele>669.0</ele><time>2026-04-26T09:24:59.873Z</time></trkpt><trkpt lat="44.442913" lon="9.7108141"><ele>671.0</ele><time>2026-04-26T09:25:00.873Z</time></trkpt><trkpt lat="44.4428046" lon="9.7108358"><ele>673.0</ele><time>2026-04-26T09:25:01.873Z</time></trkpt><trkpt lat="44.4426913" lon="9.7108544"><ele>675.0</ele><time>2026-04-26T09:25:02.874Z</time></trkpt><trkpt lat="44.4425786" lon="9.7108768"><ele>677.0</ele><time>2026-04-26T09:25:03.873Z</time></trkpt><trkpt lat="44.4424751" lon="9.7108997"><ele>679.0</ele><time>2026-04-26T09:25:04.874Z</time></trkpt><trkpt lat="44.4423785" lon="9.7109193"><ele>679.0</ele><time>2026-04-26T09:25:05.874Z</time></trkpt><trkpt lat="44.4422899" lon="9.7109334"><ele>679.0</ele><time>2026-04-26T09:25:06.873Z</time></trkpt><trkpt lat="44.4422031" lon="9.7109415"><ele>679.0</ele><time>2026-04-26T09:25:07.873Z</time></trkpt><trkpt lat="44.4421117" lon="9.7109502"><ele>679.0</ele><time>2026-04-26T09:25:08.874Z</time></trkpt><trkpt lat="44.4420127" lon="9.710972"><ele>679.0</ele><time>2026-04-26T09:25:09.874Z</time></trkpt><trkpt lat="44.4419126" lon="9.7110158"><ele>681.4000000000001</ele><time>2026-04-26T09:25:10.873Z</time></trkpt><trkpt lat="44.4418142" lon="9.7110805"><ele>683.8</ele><time>2026-04-26T09:25:11.873Z</time></trkpt><trkpt lat="44.4417169" lon="9.7111532"><ele>686.2</ele><time>2026-04-26T09:25:12.873Z</time></trkpt><trkpt lat="44.4416361" lon="9.7112514"><ele>688.5999999999999</ele><time>2026-04-26T09:25:13.873Z</time></trkpt><trkpt lat="44.4415877" lon="9.7113644"><ele>691.0</ele><time>2026-04-26T09:25:14.873Z</time></trkpt><trkpt lat="44.4415611" lon="9.7114847"><ele>691.0</ele><time>2026-04-26T09:25:15.873Z</time></trkpt><trkpt lat="44.4415506" lon="9.7116027"><ele>691.0</ele><time>2026-04-26T09:25:16.874Z</time></trkpt><trkpt lat="44.4415534" lon="9.7117263"><ele>691.0</ele><time>2026-04-26T09:25:17.873Z</time></trkpt><trkpt lat="44.4415542" lon="9.7118577"><ele>691.0</ele><time>2026-04-26T09:25:18.873Z</time></trkpt><trkpt lat="44.4415292" lon="9.7119731"><ele>691.0</ele><time>2026-04-26T09:25:19.873Z</time></trkpt><trkpt lat="44.4414783" lon="9.7120574"><ele>691.0</ele><time>2026-04-26T09:25:20.873Z</time></trkpt><trkpt lat="44.4414162" lon="9.7121117"><ele>695.0</ele><time>2026-04-26T09:25:21.873Z</time></trkpt><trkpt lat="44.441292" lon="9.712079"><ele>699.0</ele><time>2026-04-26T09:25:23.874Z</time></trkpt><trkpt lat="44.4412446" lon="9.7119864"><ele>703.0</ele><time>2026-04-26T09:25:24.873Z</time></trkpt><trkpt lat="44.4412123" lon="9.7118568"><ele>707.0</ele><time>2026-04-26T09:25:25.873Z</time></trkpt><trkpt lat="44.4411654" lon="9.7117377"><ele>711.0</ele><time>2026-04-26T09:25:26.873Z</time></trkpt><trkpt lat="44.4410902" lon="9.7116401"><ele>711.0</ele><time>2026-04-26T09:25:27.873Z</time></trkpt><trkpt lat="44.4409986" lon="9.7115643"><ele>711.0</ele><time>2026-04-26T09:25:28.874Z</time></trkpt><trkpt lat="44.440897" lon="9.7115121"><ele>711.0</ele><time>2026-04-26T09:25:29.875Z</time></trkpt><trkpt lat="44.4407844" lon="9.7114902"><ele>711.0</ele><time>2026-04-26T09:25:30.874Z</time></trkpt><trkpt lat="44.4406735" lon="9.7114677"><ele>711.0</ele><time>2026-04-26T09:25:31.873Z</time></trkpt><trkpt lat="44.4405531" lon="9.7114842"><ele>712.4</ele><time>2026-04-26T09:25:32.874Z</time></trkpt><trkpt lat="44.440454" lon="9.7115038"><ele>713.8</ele><time>2026-04-26T09:25:33.874Z</time></trkpt><trkpt lat="44.4403643" lon="9.7115577"><ele>715.1999999999999</ele><time>2026-04-26T09:25:34.873Z</time></trkpt><trkpt lat="44.4402782" lon="9.7116144"><ele>716.5999999999999</ele><time>2026-04-26T09:25:35.873Z</time></trkpt><trkpt lat="44.4402329" lon="9.7117718"><ele>718.0</ele><time>2026-04-26T09:25:36.873Z</time></trkpt><trkpt lat="44.440196" lon="9.7119053"><ele>720.5</ele><time>2026-04-26T09:25:37.873Z</time></trkpt><trkpt lat="44.4401498" lon="9.7120639"><ele>723.0</ele><time>2026-04-26T09:25:38.873Z</time></trkpt><trkpt lat="44.4401278" lon="9.71223"><ele>725.5</ele><time>2026-04-26T09:25:39.874Z</time></trkpt><trkpt lat="44.4401926" lon="9.7124125"><ele>728.0</ele><time>2026-04-26T09:25:40.874Z</time></trkpt><trkpt lat="44.4402" lon="9.7125694"><ele>728.0</ele><time>2026-04-26T09:25:41.874Z</time></trkpt><trkpt lat="44.4402286" lon="9.7127172"><ele>728.0</ele><time>2026-04-26T09:25:42.873Z</time></trkpt><trkpt lat="44.440247" lon="9.7128688"><ele>728.0</ele><time>2026-04-26T09:25:43.874Z</time></trkpt><trkpt lat="44.4402685" lon="9.7130102"><ele>728.0</ele><time>2026-04-26T09:25:44.874Z</time></trkpt><trkpt lat="44.4402883" lon="9.7131523"><ele>728.0</ele><time>2026-04-26T09:25:45.874Z</time></trkpt><trkpt lat="44.4403104" lon="9.7132832"><ele>730.0</ele><time>2026-04-26T09:25:46.874Z</time></trkpt><trkpt lat="44.4403329" lon="9.713401"><ele>732.0</ele><time>2026-04-26T09:25:47.873Z</time></trkpt><trkpt lat="44.440358" lon="9.7135136"><ele>734.0</ele><time>2026-04-26T09:25:48.873Z</time></trkpt><trkpt lat="44.4404376" lon="9.7136106"><ele>736.0</ele><time>2026-04-26T09:25:49.873Z</time></trkpt><trkpt lat="44.4405024" lon="9.7137024"><ele>738.0</ele><time>2026-04-26T09:25:50.873Z</time></trkpt><trkpt lat="44.4405664" lon="9.7138143"><ele>738.0</ele><time>2026-04-26T09:25:51.873Z</time></trkpt><trkpt lat="44.4406035" lon="9.7139557"><ele>738.0</ele><time>2026-04-26T09:25:52.873Z</time></trkpt><trkpt lat="44.4406405" lon="9.7140929"><ele>738.0</ele><time>2026-04-26T09:25:53.873Z</time></trkpt><trkpt lat="44.4406537" lon="9.7142275"><ele>738.0</ele><time>2026-04-26T09:25:54.875Z</time></trkpt><trkpt lat="44.4406474" lon="9.7143604"><ele>738.0</ele><time>2026-04-26T09:25:55.873Z</time></trkpt><trkpt lat="44.4406303" lon="9.714508"><ele>738.75</ele><time>2026-04-26T09:25:56.873Z</time></trkpt><trkpt lat="44.4406021" lon="9.7146648"><ele>739.5</ele><time>2026-04-26T09:25:57.875Z</time></trkpt><trkpt lat="44.4405629" lon="9.714823"><ele>740.25</ele><time>2026-04-26T09:25:58.874Z</time></trkpt><trkpt lat="44.4405302" lon="9.714979"><ele>741.0</ele><time>2026-04-26T09:25:59.873Z</time></trkpt><trkpt lat="44.4404877" lon="9.7151329"><ele>748.0</ele><time>2026-04-26T09:26:00.873Z</time></trkpt><trkpt lat="44.4404367" lon="9.7152767"><ele>755.0</ele><time>2026-04-26T09:26:01.874Z</time></trkpt><trkpt lat="44.4403705" lon="9.7154242"><ele>762.0</ele><time>2026-04-26T09:26:02.874Z</time></trkpt><trkpt lat="44.440299" lon="9.7155704"><ele>769.0</ele><time>2026-04-26T09:26:03.873Z</time></trkpt><trkpt lat="44.440241" lon="9.7157087"><ele>769.0</ele><time>2026-04-26T09:26:04.873Z</time></trkpt><trkpt lat="44.4401826" lon="9.7158421"><ele>769.0</ele><time>2026-04-26T09:26:05.873Z</time></trkpt><trkpt lat="44.4401184" lon="9.715975"><ele>769.0</ele><time>2026-04-26T09:26:06.874Z</time></trkpt><trkpt lat="44.4400448" lon="9.71609"><ele>769.0</ele><time>2026-04-26T09:26:07.873Z</time></trkpt><trkpt lat="44.4399587" lon="9.7161925"><ele>767.8000000000001</ele><time>2026-04-26T09:26:08.873Z</time></trkpt><trkpt lat="44.4398718" lon="9.7162885"><ele>766.6</ele><time>2026-04-26T09:26:09.874Z</time></trkpt><trkpt lat="44.4397862" lon="9.716358"><ele>765.4</ele><time>2026-04-26T09:26:10.874Z</time></trkpt><trkpt lat="44.439689" lon="9.7163991"><ele>764.2</ele><time>2026-04-26T09:26:11.873Z</time></trkpt><trkpt lat="44.4395794" lon="9.7164116"><ele>763.0</ele><time>2026-04-26T09:26:12.874Z</time></trkpt><trkpt lat="44.4394707" lon="9.7164008"><ele>766.5999999999999</ele><time>2026-04-26T09:26:13.874Z</time></trkpt><trkpt lat="44.4393743" lon="9.7164049"><ele>770.1999999999999</ele><time>2026-04-26T09:26:14.873Z</time></trkpt><trkpt lat="44.4392828" lon="9.7164249"><ele>773.8</ele><time>2026-04-26T09:26:15.873Z</time></trkpt><trkpt lat="44.439201" lon="9.716462"><ele>777.4</ele><time>2026-04-26T09:26:16.874Z</time></trkpt><trkpt lat="44.4391323" lon="9.7165055"><ele>781.0</ele><time>2026-04-26T09:26:17.873Z</time></trkpt><trkpt lat="44.4391113" lon="9.7166809"><ele>781.0</ele><time>2026-04-26T09:26:18.873Z</time></trkpt><trkpt lat="44.4390965" lon="9.7168329"><ele>781.0</ele><time>2026-04-26T09:26:19.874Z</time></trkpt><trkpt lat="44.4390655" lon="9.7169816"><ele>781.0</ele><time>2026-04-26T09:26:20.873Z</time></trkpt><trkpt lat="44.4390022" lon="9.7171105"><ele>781.0</ele><time>2026-04-26T09:26:21.873Z</time></trkpt><trkpt lat="44.4389132" lon="9.7172144"><ele>781.0</ele><time>2026-04-26T09:26:22.873Z</time></trkpt><trkpt lat="44.4388103" lon="9.7172905"><ele>784.5</ele><time>2026-04-26T09:26:23.873Z</time></trkpt><trkpt lat="44.4386997" lon="9.7173713"><ele>788.0</ele><time>2026-04-26T09:26:24.874Z</time></trkpt><trkpt lat="44.4385873" lon="9.7174592"><ele>791.5</ele><time>2026-04-26T09:26:25.874Z</time></trkpt><trkpt lat="44.4384804" lon="9.7175478"><ele>795.0</ele><time>2026-04-26T09:26:26.874Z</time></trkpt><trkpt lat="44.4383907" lon="9.7176265"><ele>795.0</ele><time>2026-04-26T09:26:27.873Z</time></trkpt><trkpt lat="44.438313" lon="9.7176888"><ele>795.0</ele><time>2026-04-26T09:26:28.873Z</time></trkpt><trkpt lat="44.4382282" lon="9.717728"><ele>795.0</ele><time>2026-04-26T09:26:29.873Z</time></trkpt><trkpt lat="44.4381546" lon="9.7177153"><ele>795.0</ele><time>2026-04-26T09:26:30.873Z</time></trkpt><trkpt lat="44.4380815" lon="9.7175696"><ele>795.0</ele><time>2026-04-26T09:26:32.873Z</time></trkpt><trkpt lat="44.4380876" lon="9.7174412"><ele>795.0</ele><time>2026-04-26T09:26:33.873Z</time></trkpt><trkpt lat="44.4381184" lon="9.7173011"><ele>795.0</ele><time>2026-04-26T09:26:34.873Z</time></trkpt><trkpt lat="44.4381556" lon="9.7171558"><ele>795.0</ele><time>2026-04-26T09:26:35.875Z</time></trkpt><trkpt lat="44.4381888" lon="9.7170109"><ele>795.0</ele><time>2026-04-26T09:26:36.874Z</time></trkpt><trkpt lat="44.4381537" lon="9.716859"><ele>795.0</ele><time>2026-04-26T09:26:37.874Z</time></trkpt><trkpt lat="44.4381217" lon="9.7167111"><ele>795.5</ele><time>2026-04-26T09:26:38.874Z</time></trkpt><trkpt lat="44.4380341" lon="9.7165783"><ele>796.0</ele><time>2026-04-26T09:26:39.874Z</time></trkpt><trkpt lat="44.4379538" lon="9.7164575"><ele>796.5</ele><time>2026-04-26T09:26:40.874Z</time></trkpt><trkpt lat="44.4378704" lon="9.7163325"><ele>797.0</ele><time>2026-04-26T09:26:41.873Z</time></trkpt><trkpt lat="44.4377909" lon="9.7162253"><ele>800.4000000000001</ele><time>2026-04-26T09:26:42.873Z</time></trkpt><trkpt lat="44.4377006" lon="9.7161566"><ele>803.8000000000001</ele><time>2026-04-26T09:26:43.874Z</time></trkpt><trkpt lat="44.4376077" lon="9.716101"><ele>807.2</ele><time>2026-04-26T09:26:44.874Z</time></trkpt><trkpt lat="44.4374926" lon="9.7161307"><ele>810.6</ele><time>2026-04-26T09:26:45.873Z</time></trkpt><trkpt lat="44.4373998" lon="9.7161629"><ele>814.0</ele><time>2026-04-26T09:26:46.873Z</time></trkpt><trkpt lat="44.4373035" lon="9.7162355"><ele>814.0</ele><time>2026-04-26T09:26:47.873Z</time></trkpt><trkpt lat="44.4371833" lon="9.7163684"><ele>814.0</ele><time>2026-04-26T09:26:48.873Z</time></trkpt><trkpt lat="44.4370743" lon="9.716496"><ele>814.0</ele><time>2026-04-26T09:26:49.873Z</time></trkpt><trkpt lat="44.4369679" lon="9.71662"><ele>814.0</ele><time>2026-04-26T09:26:50.874Z</time></trkpt><trkpt lat="44.4368612" lon="9.716754"><ele>817.25</ele><time>2026-04-26T09:26:51.874Z</time></trkpt><trkpt lat="44.4367641" lon="9.7168899"><ele>820.5</ele><time>2026-04-26T09:26:52.874Z</time></trkpt><trkpt lat="44.4366878" lon="9.7170184"><ele>823.75</ele><time>2026-04-26T09:26:53.873Z</time></trkpt><trkpt lat="44.436609" lon="9.7171598"><ele>827.0</ele><time>2026-04-26T09:26:54.873Z</time></trkpt><trkpt lat="44.4365393" lon="9.7172983"><ele>827.0</ele><time>2026-04-26T09:26:55.873Z</time></trkpt><trkpt lat="44.4364749" lon="9.7174457"><ele>827.0</ele><time>2026-04-26T09:26:56.873Z</time></trkpt><trkpt lat="44.4364219" lon="9.7176033"><ele>827.0</ele><time>2026-04-26T09:26:57.874Z</time></trkpt><trkpt lat="44.4363784" lon="9.7177561"><ele>827.0</ele><time>2026-04-26T09:26:58.874Z</time></trkpt><trkpt lat="44.4363518" lon="9.7179015"><ele>827.3333333333334</ele><time>2026-04-26T09:26:59.873Z</time></trkpt><trkpt lat="44.4363436" lon="9.7180355"><ele>827.6666666666667</ele><time>2026-04-26T09:27:00.873Z</time></trkpt><trkpt lat="44.4363399" lon="9.718167"><ele>828.0</ele><time>2026-04-26T09:27:01.873Z</time></trkpt><trkpt lat="44.4363335" lon="9.7182768"><ele>828.3333333333333</ele><time>2026-04-26T09:27:02.874Z</time></trkpt><trkpt lat="44.4363185" lon="9.7183797"><ele>828.6666666666666</ele><time>2026-04-26T09:27:03.875Z</time></trkpt><trkpt lat="44.4362837" lon="9.7184731"><ele>829.0</ele><time>2026-04-26T09:27:04.874Z</time></trkpt><trkpt lat="44.4362101" lon="9.7185441"><ele>832.6</ele><time>2026-04-26T09:27:05.874Z</time></trkpt><trkpt lat="44.4361132" lon="9.7185948"><ele>836.2</ele><time>2026-04-26T09:27:06.873Z</time></trkpt><trkpt lat="44.436007" lon="9.7186229"><ele>839.8000000000001</ele><time>2026-04-26T09:27:07.873Z</time></trkpt><trkpt lat="44.435896" lon="9.7186171"><ele>843.4000000000001</ele><time>2026-04-26T09:27:08.873Z</time></trkpt><trkpt lat="44.4357809" lon="9.7185916"><ele>847.0</ele><time>2026-04-26T09:27:09.874Z</time></trkpt><trkpt lat="44.4356692" lon="9.7185608"><ele>847.5</ele><time>2026-04-26T09:27:10.874Z</time></trkpt><trkpt lat="44.4355599" lon="9.7185247"><ele>848.0</ele><time>2026-04-26T09:27:11.874Z</time></trkpt><trkpt lat="44.4354503" lon="9.7184745"><ele>848.5</ele><time>2026-04-26T09:27:12.873Z</time></trkpt><trkpt lat="44.435347" lon="9.7184107"><ele>849.0</ele><time>2026-04-26T09:27:13.873Z</time></trkpt><trkpt lat="44.4352391" lon="9.7183462"><ele>850.6</ele><time>2026-04-26T09:27:14.873Z</time></trkpt><trkpt lat="44.4351364" lon="9.7182796"><ele>852.2</ele><time>2026-04-26T09:27:15.873Z</time></trkpt><trkpt lat="44.4350544" lon="9.7182054"><ele>853.8000000000001</ele><time>2026-04-26T09:27:16.873Z</time></trkpt><trkpt lat="44.4350017" lon="9.7181177"><ele>855.4000000000001</ele><time>2026-04-26T09:27:17.873Z</time></trkpt><trkpt lat="44.4349845" lon="9.7180238"><ele>857.0</ele><time>2026-04-26T09:27:18.874Z</time></trkpt><trkpt lat="44.4350334" lon="9.7178738"><ele>857.0</ele><time>2026-04-26T09:27:20.875Z</time></trkpt><trkpt lat="44.4351052" lon="9.7178266"><ele>857.0</ele><time>2026-04-26T09:27:21.874Z</time></trkpt><trkpt lat="44.4352113" lon="9.7178122"><ele>857.0</ele><time>2026-04-26T09:27:22.874Z</time></trkpt><trkpt lat="44.4353196" lon="9.7177816"><ele>857.0</ele><time>2026-04-26T09:27:23.875Z</time></trkpt><trkpt lat="44.4354137" lon="9.7176971"><ele>857.0</ele><time>2026-04-26T09:27:24.874Z</time></trkpt><trkpt lat="44.4354709" lon="9.717584"><ele>856.0</ele><time>2026-04-26T09:27:25.873Z</time></trkpt><trkpt lat="44.4355299" lon="9.7174634"><ele>855.0</ele><time>2026-04-26T09:27:26.873Z</time></trkpt><trkpt lat="44.4355638" lon="9.7173183"><ele>854.0</ele><time>2026-04-26T09:27:27.873Z</time></trkpt><trkpt lat="44.4354981" lon="9.7171317"><ele>853.0</ele><time>2026-04-26T09:27:28.873Z</time></trkpt><trkpt lat="44.4354288" lon="9.7170573"><ele>852.0</ele><time>2026-04-26T09:27:29.873Z</time></trkpt><trkpt lat="44.4353681" lon="9.7169543"><ele>854.75</ele><time>2026-04-26T09:27:30.874Z</time></trkpt><trkpt lat="44.4352448" lon="9.7169435"><ele>857.5</ele><time>2026-04-26T09:27:31.873Z</time></trkpt><trkpt lat="44.4351337" lon="9.7169023"><ele>860.25</ele><time>2026-04-26T09:27:32.873Z</time></trkpt><trkpt lat="44.4350203" lon="9.7168861"><ele>863.0</ele><time>2026-04-26T09:27:33.873Z</time></trkpt><trkpt lat="44.434894" lon="9.7168769"><ele>865.25</ele><time>2026-04-26T09:27:34.873Z</time></trkpt><trkpt lat="44.4347631" lon="9.7168946"><ele>867.5</ele><time>2026-04-26T09:27:35.874Z</time></trkpt><trkpt lat="44.4346323" lon="9.7169161"><ele>869.75</ele><time>2026-04-26T09:27:36.873Z</time></trkpt><trkpt lat="44.4345048" lon="9.716948"><ele>872.0</ele><time>2026-04-26T09:27:37.873Z</time></trkpt><trkpt lat="44.4343875" lon="9.7169997"><ele>872.0</ele><time>2026-04-26T09:27:38.874Z</time></trkpt><trkpt lat="44.4342816" lon="9.717052"><ele>872.0</ele><time>2026-04-26T09:27:39.873Z</time></trkpt><trkpt lat="44.4341764" lon="9.7171089"><ele>872.0</ele><time>2026-04-26T09:27:40.874Z</time></trkpt><trkpt lat="44.434076" lon="9.7171822"><ele>872.0</ele><time>2026-04-26T09:27:41.873Z</time></trkpt><trkpt lat="44.4339735" lon="9.7172589"><ele>872.0</ele><time>2026-04-26T09:27:42.873Z</time></trkpt><trkpt lat="44.4338665" lon="9.7173509"><ele>872.0</ele><time>2026-04-26T09:27:43.873Z</time></trkpt><trkpt lat="44.4337566" lon="9.7174614"><ele>872.0</ele><time>2026-04-26T09:27:44.874Z</time></trkpt><trkpt lat="44.4336523" lon="9.7175754"><ele>872.0</ele><time>2026-04-26T09:27:45.873Z</time></trkpt><trkpt lat="44.4335505" lon="9.7176914"><ele>874.5</ele><time>2026-04-26T09:27:46.873Z</time></trkpt><trkpt lat="44.4334464" lon="9.7178064"><ele>877.0</ele><time>2026-04-26T09:27:47.873Z</time></trkpt><trkpt lat="44.433344" lon="9.717906"><ele>879.5</ele><time>2026-04-26T09:27:48.875Z</time></trkpt><trkpt lat="44.4332484" lon="9.7179914"><ele>882.0</ele><time>2026-04-26T09:27:49.873Z</time></trkpt><trkpt lat="44.433159" lon="9.7180581"><ele>882.0</ele><time>2026-04-26T09:27:50.873Z</time></trkpt><trkpt lat="44.4330752" lon="9.7181127"><ele>882.0</ele><time>2026-04-26T09:27:51.874Z</time></trkpt><trkpt lat="44.4330004" lon="9.7181551"><ele>882.0</ele><time>2026-04-26T09:27:52.873Z</time></trkpt><trkpt lat="44.4329355" lon="9.7181982"><ele>882.0</ele><time>2026-04-26T09:27:53.873Z</time></trkpt><trkpt lat="44.4328726" lon="9.7182478"><ele>882.0</ele><time>2026-04-26T09:27:54.874Z</time></trkpt><trkpt lat="44.432823" lon="9.7183253"><ele>882.0</ele><time>2026-04-26T09:27:55.873Z</time></trkpt><trkpt lat="44.432792" lon="9.7184272"><ele>883.0</ele><time>2026-04-26T09:27:56.873Z</time></trkpt><trkpt lat="44.4327931" lon="9.7185492"><ele>884.0</ele><time>2026-04-26T09:27:57.874Z</time></trkpt><trkpt lat="44.4328252" lon="9.7186825"><ele>885.0</ele><time>2026-04-26T09:27:58.873Z</time></trkpt><trkpt lat="44.4328431" lon="9.7188296"><ele>886.0</ele><time>2026-04-26T09:27:59.873Z</time></trkpt><trkpt lat="44.4328355" lon="9.7189611"><ele>887.0</ele><time>2026-04-26T09:28:00.873Z</time></trkpt><trkpt lat="44.4328068" lon="9.7190611"><ele>888.8333333333334</ele><time>2026-04-26T09:28:01.873Z</time></trkpt><trkpt lat="44.4327619" lon="9.719127"><ele>890.6666666666667</ele><time>2026-04-26T09:28:02.873Z</time></trkpt><trkpt lat="44.4326395" lon="9.7191273"><ele>892.5</ele><time>2026-04-26T09:28:04.874Z</time></trkpt><trkpt lat="44.4325827" lon="9.7190727"><ele>894.3333333333333</ele><time>2026-04-26T09:28:05.875Z</time></trkpt><trkpt lat="44.4325092" lon="9.7190191"><ele>896.1666666666666</ele><time>2026-04-26T09:28:06.874Z</time></trkpt><trkpt lat="44.4324276" lon="9.7190063"><ele>898.0</ele><time>2026-04-26T09:28:07.874Z</time></trkpt><trkpt lat="44.4323453" lon="9.7190149"><ele>898.0</ele><time>2026-04-26T09:28:08.874Z</time></trkpt><trkpt lat="44.4322464" lon="9.7190551"><ele>898.0</ele><time>2026-04-26T09:28:09.874Z</time></trkpt><trkpt lat="44.4321506" lon="9.719087"><ele>898.0</ele><time>2026-04-26T09:28:10.873Z</time></trkpt><trkpt lat="44.4320445" lon="9.7191277"><ele>898.0</ele><time>2026-04-26T09:28:11.874Z</time></trkpt><trkpt lat="44.431947" lon="9.7191693"><ele>898.0</ele><time>2026-04-26T09:28:12.873Z</time></trkpt><trkpt lat="44.4318543" lon="9.7192095"><ele>899.1666666666666</ele><time>2026-04-26T09:28:13.874Z</time></trkpt><trkpt lat="44.4317747" lon="9.7192407"><ele>900.3333333333333</ele><time>2026-04-26T09:28:14.873Z</time></trkpt><trkpt lat="44.4316994" lon="9.7192688"><ele>901.5</ele><time>2026-04-26T09:28:15.873Z</time></trkpt><trkpt lat="44.431618" lon="9.7193011"><ele>902.6666666666667</ele><time>2026-04-26T09:28:16.873Z</time></trkpt><trkpt lat="44.4315295" lon="9.7193359"><ele>903.8333333333334</ele><time>2026-04-26T09:28:17.874Z</time></trkpt><trkpt lat="44.4314388" lon="9.7193762"><ele>905.0</ele><time>2026-04-26T09:28:18.873Z</time></trkpt><trkpt lat="44.4313552" lon="9.7194311"><ele>908.2</ele><time>2026-04-26T09:28:19.873Z</time></trkpt><trkpt lat="44.4312788" lon="9.7194986"><ele>911.4</ele><time>2026-04-26T09:28:20.873Z</time></trkpt><trkpt lat="44.4312081" lon="9.7195826"><ele>914.5999999999999</ele><time>2026-04-26T09:28:21.874Z</time></trkpt><trkpt lat="44.4311401" lon="9.7196787"><ele>917.8</ele><time>2026-04-26T09:28:22.875Z</time></trkpt><trkpt lat="44.4310677" lon="9.7197738"><ele>921.0</ele><time>2026-04-26T09:28:23.873Z</time></trkpt><trkpt lat="44.4309934" lon="9.7198671"><ele>921.0</ele><time>2026-04-26T09:28:24.873Z</time></trkpt><trkpt lat="44.4309107" lon="9.7199567"><ele>921.0</ele><time>2026-04-26T09:28:25.874Z</time></trkpt><trkpt lat="44.4308147" lon="9.7200538"><ele>921.0</ele><time>2026-04-26T09:28:26.874Z</time></trkpt><trkpt lat="44.4307107" lon="9.720158"><ele>921.0</ele><time>2026-04-26T09:28:27.873Z</time></trkpt><trkpt lat="44.4305907" lon="9.7202631"><ele>923.5</ele><time>2026-04-26T09:28:28.873Z</time></trkpt><trkpt lat="44.4304742" lon="9.7203717"><ele>926.0</ele><time>2026-04-26T09:28:29.873Z</time></trkpt><trkpt lat="44.4303597" lon="9.7204634"><ele>928.5</ele><time>2026-04-26T09:28:30.874Z</time></trkpt><trkpt lat="44.4302606" lon="9.7205551"><ele>931.0</ele><time>2026-04-26T09:28:31.874Z</time></trkpt><trkpt lat="44.4301788" lon="9.7206059"><ele>930.9999999999999</ele><time>2026-04-26T09:28:32.873Z</time></trkpt><trkpt lat="44.4301025" lon="9.7206776"><ele>931.0</ele><time>2026-04-26T09:28:33.873Z</time></trkpt><trkpt lat="44.4300451" lon="9.7207247"><ele>931.0</ele><time>2026-04-26T09:28:34.873Z</time></trkpt><trkpt lat="44.430002" lon="9.7207906"><ele>931.0</ele><time>2026-04-26T09:28:35.873Z</time></trkpt><trkpt lat="44.429968" lon="9.7208767"><ele>930.9999999999999</ele><time>2026-04-26T09:28:36.874Z</time></trkpt><trkpt lat="44.4299679" lon="9.7210464"><ele>931.0</ele><time>2026-04-26T09:28:38.873Z</time></trkpt><trkpt lat="44.4300531" lon="9.7211667"><ele>931.3333333333333</ele><time>2026-04-26T09:28:40.874Z</time></trkpt><trkpt lat="44.4301264" lon="9.7211912"><ele>931.6666666666666</ele><time>2026-04-26T09:28:41.874Z</time></trkpt><trkpt lat="44.4301982" lon="9.7211963"><ele>932.0</ele><time>2026-04-26T09:28:42.873Z</time></trkpt><trkpt lat="44.430289" lon="9.7211653"><ele>932.3333333333333</ele><time>2026-04-26T09:28:43.873Z</time></trkpt><trkpt lat="44.4303726" lon="9.7211551"><ele>932.6666666666666</ele><time>2026-04-26T09:28:44.874Z</time></trkpt><trkpt lat="44.4304409" lon="9.7211695"><ele>933.0</ele><time>2026-04-26T09:28:45.873Z</time></trkpt><trkpt lat="44.4305016" lon="9.7212062"><ele>933.0</ele><time>2026-04-26T09:28:46.873Z</time></trkpt><trkpt lat="44.430559" lon="9.7213307"><ele>933.0</ele><time>2026-04-26T09:28:48.873Z</time></trkpt><trkpt lat="44.4305824" lon="9.7214173"><ele>933.0</ele><time>2026-04-26T09:28:49.873Z</time></trkpt><trkpt lat="44.430543" lon="9.7215324"><ele>933.0</ele><time>2026-04-26T09:28:50.873Z</time></trkpt><trkpt lat="44.4305285" lon="9.7216365"><ele>933.0</ele><time>2026-04-26T09:28:51.874Z</time></trkpt><trkpt lat="44.4304823" lon="9.7217643"><ele>933.0</ele><time>2026-04-26T09:28:52.873Z</time></trkpt><trkpt lat="44.4304343" lon="9.7218682"><ele>937.25</ele><time>2026-04-26T09:28:53.873Z</time></trkpt><trkpt lat="44.4302877" lon="9.7220172"><ele>941.5</ele><time>2026-04-26T09:28:54.873Z</time></trkpt><trkpt lat="44.4302143" lon="9.722123"><ele>945.75</ele><time>2026-04-26T09:28:55.874Z</time></trkpt><trkpt lat="44.4301512" lon="9.7222127"><ele>950.0</ele><time>2026-04-26T09:28:56.873Z</time></trkpt><trkpt lat="44.4300883" lon="9.7222778"><ele>950.0</ele><time>2026-04-26T09:28:57.873Z</time></trkpt><trkpt lat="44.4299831" lon="9.7223078"><ele>950.0</ele><time>2026-04-26T09:28:59.872Z</time></trkpt><trkpt lat="44.4298677" lon="9.7222995"><ele>950.0</ele><time>2026-04-26T09:29:01.872Z</time></trkpt><trkpt lat="44.429836" lon="9.7221894"><ele>950.0</ele><time>2026-04-26T09:29:02.872Z</time></trkpt><trkpt lat="44.4297899" lon="9.7220923"><ele>950.0</ele><time>2026-04-26T09:29:03.872Z</time></trkpt><trkpt lat="44.429746" lon="9.7220107"><ele>952.0</ele><time>2026-04-26T09:29:04.872Z</time></trkpt><trkpt lat="44.4296305" lon="9.7219297"><ele>954.0</ele><time>2026-04-26T09:29:06.872Z</time></trkpt><trkpt lat="44.429538" lon="9.7219286"><ele>956.0</ele><time>2026-04-26T09:29:08.872Z</time></trkpt><trkpt lat="44.4294633" lon="9.7220567"><ele>958.0</ele><time>2026-04-26T09:29:09.872Z</time></trkpt><trkpt lat="44.4294061" lon="9.7221401"><ele>960.0</ele><time>2026-04-26T09:29:10.872Z</time></trkpt><trkpt lat="44.4293671" lon="9.7222595"><ele>960.0</ele><time>2026-04-26T09:29:11.872Z</time></trkpt><trkpt lat="44.429448" lon="9.7224033"><ele>960.0</ele><time>2026-04-26T09:29:12.873Z</time></trkpt><trkpt lat="44.4295037" lon="9.7225547"><ele>960.0</ele><time>2026-04-26T09:29:13.873Z</time></trkpt><trkpt lat="44.4295286" lon="9.722758"><ele>960.0</ele><time>2026-04-26T09:29:14.873Z</time></trkpt><trkpt lat="44.429555" lon="9.7229332"><ele>962.0</ele><time>2026-04-26T09:29:15.873Z</time></trkpt><trkpt lat="44.4295657" lon="9.7230927"><ele>964.0</ele><time>2026-04-26T09:29:16.873Z</time></trkpt><trkpt lat="44.4295732" lon="9.7232507"><ele>966.0</ele><time>2026-04-26T09:29:17.873Z</time></trkpt><trkpt lat="44.4295685" lon="9.7234134"><ele>968.0</ele><time>2026-04-26T09:29:18.872Z</time></trkpt><trkpt lat="44.42956" lon="9.7235386"><ele>970.0</ele><time>2026-04-26T09:29:19.873Z</time></trkpt><trkpt lat="44.4295476" lon="9.7236694"><ele>970.4</ele><time>2026-04-26T09:29:20.872Z</time></trkpt><trkpt lat="44.4294787" lon="9.7237743"><ele>970.8</ele><time>2026-04-26T09:29:21.872Z</time></trkpt><trkpt lat="44.4294617" lon="9.7239161"><ele>971.2</ele><time>2026-04-26T09:29:22.872Z</time></trkpt><trkpt lat="44.4294279" lon="9.7240639"><ele>971.6</ele><time>2026-04-26T09:29:23.872Z</time></trkpt><trkpt lat="44.4294164" lon="9.7242013"><ele>972.0</ele><time>2026-04-26T09:29:24.872Z</time></trkpt><trkpt lat="44.4293875" lon="9.7243014"><ele>972.0</ele><time>2026-04-26T09:29:25.873Z</time></trkpt><trkpt lat="44.4293604" lon="9.7243926"><ele>972.0</ele><time>2026-04-26T09:29:26.872Z</time></trkpt><trkpt lat="44.429317" lon="9.7244682"><ele>972.0</ele><time>2026-04-26T09:29:27.873Z</time></trkpt><trkpt lat="44.4292056" lon="9.724547"><ele>972.0</ele><time>2026-04-26T09:29:29.873Z</time></trkpt><trkpt lat="44.4291348" lon="9.7245778"><ele>972.0</ele><time>2026-04-26T09:29:30.872Z</time></trkpt><trkpt lat="44.4290317" lon="9.7244733"><ele>972.0</ele><time>2026-04-26T09:29:32.872Z</time></trkpt><trkpt lat="44.4289983" lon="9.7243686"><ele>972.0</ele><time>2026-04-26T09:29:33.873Z</time></trkpt><trkpt lat="44.4289725" lon="9.7242439"><ele>972.0</ele><time>2026-04-26T09:29:34.872Z</time></trkpt><trkpt lat="44.4289533" lon="9.7241016"><ele>972.0</ele><time>2026-04-26T09:29:35.872Z</time></trkpt><trkpt lat="44.4289404" lon="9.7239606"><ele>972.0</ele><time>2026-04-26T09:29:36.872Z</time></trkpt><trkpt lat="44.4289256" lon="9.7238354"><ele>972.0</ele><time>2026-04-26T09:29:37.872Z</time></trkpt><trkpt lat="44.4289018" lon="9.7237347"><ele>972.0</ele><time>2026-04-26T09:29:38.872Z</time></trkpt><trkpt lat="44.4288192" lon="9.7235891"><ele>972.0</ele><time>2026-04-26T09:29:40.873Z</time></trkpt><trkpt lat="44.4287513" lon="9.7235687"><ele>972.0</ele><time>2026-04-26T09:29:41.873Z</time></trkpt><trkpt lat="44.4286879" lon="9.72357"><ele>972.0</ele><time>2026-04-26T09:29:42.873Z</time></trkpt><trkpt lat="44.4286306" lon="9.7236115"><ele>972.0</ele><time>2026-04-26T09:29:43.873Z</time></trkpt><trkpt lat="44.4285814" lon="9.7236704"><ele>974.2</ele><time>2026-04-26T09:29:44.873Z</time></trkpt><trkpt lat="44.4285285" lon="9.7237525"><ele>976.4000000000001</ele><time>2026-04-26T09:29:45.873Z</time></trkpt><trkpt lat="44.4284988" lon="9.7238441"><ele>978.5999999999999</ele><time>2026-04-26T09:29:46.873Z</time></trkpt><trkpt lat="44.428567" lon="9.7239766"><ele>980.8</ele><time>2026-04-26T09:29:47.873Z</time></trkpt><trkpt lat="44.4285976" lon="9.7240993"><ele>983.0</ele><time>2026-04-26T09:29:48.873Z</time></trkpt><trkpt lat="44.4286271" lon="9.7242197"><ele>983.0000000000001</ele><time>2026-04-26T09:29:49.873Z</time></trkpt><trkpt lat="44.4286434" lon="9.724346"><ele>983.0</ele><time>2026-04-26T09:29:50.873Z</time></trkpt><trkpt lat="44.4286632" lon="9.7244656"><ele>983.0</ele><time>2026-04-26T09:29:51.873Z</time></trkpt><trkpt lat="44.4286551" lon="9.7245797"><ele>983.0</ele><time>2026-04-26T09:29:52.873Z</time></trkpt><trkpt lat="44.4286523" lon="9.7246802"><ele>983.0000000000001</ele><time>2026-04-26T09:29:53.873Z</time></trkpt><trkpt lat="44.4286326" lon="9.7247955"><ele>983.0</ele><time>2026-04-26T09:29:54.873Z</time></trkpt><trkpt lat="44.4285667" lon="9.724896"><ele>983.0</ele><time>2026-04-26T09:29:55.873Z</time></trkpt><trkpt lat="44.4285259" lon="9.7249936"><ele>983.0</ele><time>2026-04-26T09:29:56.873Z</time></trkpt><trkpt lat="44.4284681" lon="9.7250902"><ele>983.0</ele><time>2026-04-26T09:29:57.872Z</time></trkpt><trkpt lat="44.428377" lon="9.7252178"><ele>983.0</ele><time>2026-04-26T09:29:58.872Z</time></trkpt><trkpt lat="44.4282893" lon="9.7253426"><ele>983.0</ele><time>2026-04-26T09:29:59.872Z</time></trkpt><trkpt lat="44.4282116" lon="9.7254702"><ele>983.0</ele><time>2026-04-26T09:30:00.872Z</time></trkpt><trkpt lat="44.4281333" lon="9.7255988"><ele>983.0</ele><time>2026-04-26T09:30:01.872Z</time></trkpt><trkpt lat="44.4280508" lon="9.7257395"><ele>983.0</ele><time>2026-04-26T09:30:02.872Z</time></trkpt><trkpt lat="44.4279465" lon="9.7258048"><ele>983.0</ele><time>2026-04-26T09:30:03.872Z</time></trkpt><trkpt lat="44.4278432" lon="9.7258952"><ele>984.0</ele><time>2026-04-26T09:30:04.872Z</time></trkpt><trkpt lat="44.4277488" lon="9.7259758"><ele>985.0</ele><time>2026-04-26T09:30:05.872Z</time></trkpt><trkpt lat="44.4276331" lon="9.7260664"><ele>986.0</ele><time>2026-04-26T09:30:06.872Z</time></trkpt><trkpt lat="44.4275365" lon="9.7261608"><ele>987.0</ele><time>2026-04-26T09:30:07.873Z</time></trkpt><trkpt lat="44.4274181" lon="9.7262662"><ele>987.0</ele><time>2026-04-26T09:30:08.872Z</time></trkpt><trkpt lat="44.4273091" lon="9.7263752"><ele>987.0</ele><time>2026-04-26T09:30:09.872Z</time></trkpt><trkpt lat="44.4272045" lon="9.7264884"><ele>987.0</ele><time>2026-04-26T09:30:10.872Z</time></trkpt><trkpt lat="44.4271009" lon="9.7266186"><ele>987.0</ele><time>2026-04-26T09:30:11.873Z</time></trkpt><trkpt lat="44.4269983" lon="9.7267222"><ele>989.0</ele><time>2026-04-26T09:30:12.873Z</time></trkpt><trkpt lat="44.4269098" lon="9.7268112"><ele>991.0</ele><time>2026-04-26T09:30:13.873Z</time></trkpt><trkpt lat="44.426835" lon="9.7269086"><ele>993.0</ele><time>2026-04-26T09:30:14.873Z</time></trkpt><trkpt lat="44.4267366" lon="9.726983"><ele>995.0</ele><time>2026-04-26T09:30:15.873Z</time></trkpt><trkpt lat="44.4266501" lon="9.7270479"><ele>997.0</ele><time>2026-04-26T09:30:16.873Z</time></trkpt><trkpt lat="44.4265645" lon="9.7270791"><ele>997.0</ele><time>2026-04-26T09:30:17.873Z</time></trkpt><trkpt lat="44.4264699" lon="9.7270949"><ele>997.0</ele><time>2026-04-26T09:30:18.872Z</time></trkpt><trkpt lat="44.4263645" lon="9.7270943"><ele>997.0</ele><time>2026-04-26T09:30:19.872Z</time></trkpt><trkpt lat="44.4262488" lon="9.7270718"><ele>997.0</ele><time>2026-04-26T09:30:20.872Z</time></trkpt><trkpt lat="44.4261247" lon="9.7270352"><ele>997.0</ele><time>2026-04-26T09:30:21.872Z</time></trkpt><trkpt lat="44.4259799" lon="9.7269917"><ele>999.0</ele><time>2026-04-26T09:30:22.872Z</time></trkpt><trkpt lat="44.4258204" lon="9.7269425"><ele>1001.0</ele><time>2026-04-26T09:30:23.872Z</time></trkpt><trkpt lat="44.4256551" lon="9.7268955"><ele>1003.0</ele><time>2026-04-26T09:30:24.872Z</time></trkpt><trkpt lat="44.4255052" lon="9.7268444"><ele>1005.75</ele><time>2026-04-26T09:30:25.872Z</time></trkpt><trkpt lat="44.4253653" lon="9.7267986"><ele>1008.5</ele><time>2026-04-26T09:30:26.872Z</time></trkpt><trkpt lat="44.4252446" lon="9.7267525"><ele>1011.25</ele><time>2026-04-26T09:30:27.873Z</time></trkpt><trkpt lat="44.4251339" lon="9.7267301"><ele>1014.0</ele><time>2026-04-26T09:30:28.873Z</time></trkpt><trkpt lat="44.4250371" lon="9.7267136"><ele>1014.0</ele><time>2026-04-26T09:30:29.873Z</time></trkpt><trkpt lat="44.4249424" lon="9.7267226"><ele>1014.0000000000001</ele><time>2026-04-26T09:30:30.873Z</time></trkpt><trkpt lat="44.4248395" lon="9.7267589"><ele>1014.0000000000001</ele><time>2026-04-26T09:30:31.873Z</time></trkpt><trkpt lat="44.424744" lon="9.7267853"><ele>1014.0</ele><time>2026-04-26T09:30:32.872Z</time></trkpt><trkpt lat="44.4246428" lon="9.7268862"><ele>1014.0</ele><time>2026-04-26T09:30:33.872Z</time></trkpt><trkpt lat="44.4245488" lon="9.7269561"><ele>1015.8333333333334</ele><time>2026-04-26T09:30:34.872Z</time></trkpt><trkpt lat="44.4244693" lon="9.7270535"><ele>1017.6666666666667</ele><time>2026-04-26T09:30:35.873Z</time></trkpt><trkpt lat="44.4243999" lon="9.7271408"><ele>1019.5</ele><time>2026-04-26T09:30:36.872Z</time></trkpt><trkpt lat="44.4243436" lon="9.7272476"><ele>1021.3333333333334</ele><time>2026-04-26T09:30:37.873Z</time></trkpt><trkpt lat="44.4243091" lon="9.7273495"><ele>1023.1666666666667</ele><time>2026-04-26T09:30:38.872Z</time></trkpt><trkpt lat="44.4243258" lon="9.727446"><ele>1025.0</ele><time>2026-04-26T09:30:39.872Z</time></trkpt><trkpt lat="44.4243476" lon="9.7275345"><ele>1025.0</ele><time>2026-04-26T09:30:40.872Z</time></trkpt><trkpt lat="44.4243958" lon="9.7276302"><ele>1025.0</ele><time>2026-04-26T09:30:41.872Z</time></trkpt><trkpt lat="44.4244431" lon="9.7277317"><ele>1025.0</ele><time>2026-04-26T09:30:42.872Z</time></trkpt><trkpt lat="44.4244959" lon="9.7278181"><ele>1025.0</ele><time>2026-04-26T09:30:43.873Z</time></trkpt><trkpt lat="44.4246232" lon="9.727845"><ele>1025.0</ele><time>2026-04-26T09:30:44.872Z</time></trkpt><trkpt lat="44.4247201" lon="9.7279052"><ele>1025.5</ele><time>2026-04-26T09:30:45.872Z</time></trkpt><trkpt lat="44.4248042" lon="9.7279429"><ele>1026.0</ele><time>2026-04-26T09:30:46.872Z</time></trkpt><trkpt lat="44.4248634" lon="9.7280091"><ele>1026.5</ele><time>2026-04-26T09:30:47.874Z</time></trkpt><trkpt lat="44.4249068" lon="9.7280799"><ele>1027.0</ele><time>2026-04-26T09:30:48.873Z</time></trkpt><trkpt lat="44.4249248" lon="9.7281653"><ele>1027.5</ele><time>2026-04-26T09:30:49.872Z</time></trkpt><trkpt lat="44.4249053" lon="9.7283197"><ele>1028.0</ele><time>2026-04-26T09:30:51.872Z</time></trkpt><trkpt lat="44.4248092" lon="9.7283929"><ele>1028.0</ele><time>2026-04-26T09:30:53.873Z</time></trkpt><trkpt lat="44.4247336" lon="9.7284068"><ele>1028.0</ele><time>2026-04-26T09:30:54.872Z</time></trkpt><trkpt lat="44.4246449" lon="9.7283941"><ele>1028.0</ele><time>2026-04-26T09:30:55.872Z</time></trkpt><trkpt lat="44.4245526" lon="9.7283581"><ele>1028.0</ele><time>2026-04-26T09:30:56.872Z</time></trkpt><trkpt lat="44.4244481" lon="9.7283158"><ele>1028.0</ele><time>2026-04-26T09:30:57.872Z</time></trkpt><trkpt lat="44.4243493" lon="9.7282617"><ele>1029.6</ele><time>2026-04-26T09:30:58.872Z</time></trkpt><trkpt lat="44.4242564" lon="9.7282086"><ele>1031.1999999999998</ele><time>2026-04-26T09:30:59.873Z</time></trkpt><trkpt lat="44.4241742" lon="9.7281689"><ele>1032.8</ele><time>2026-04-26T09:31:00.873Z</time></trkpt><trkpt lat="44.424098" lon="9.7281417"><ele>1034.3999999999999</ele><time>2026-04-26T09:31:01.873Z</time></trkpt><trkpt lat="44.4239607" lon="9.7281487"><ele>1036.0</ele><time>2026-04-26T09:31:03.872Z</time></trkpt><trkpt lat="44.4238835" lon="9.7281705"><ele>1036.5</ele><time>2026-04-26T09:31:04.872Z</time></trkpt><trkpt lat="44.423801" lon="9.7282593"><ele>1037.0</ele><time>2026-04-26T09:31:05.872Z</time></trkpt><trkpt lat="44.4237101" lon="9.7283317"><ele>1037.5</ele><time>2026-04-26T09:31:06.872Z</time></trkpt><trkpt lat="44.4235969" lon="9.7284323"><ele>1038.0</ele><time>2026-04-26T09:31:07.872Z</time></trkpt><trkpt lat="44.4234785" lon="9.7285292"><ele>1040.0</ele><time>2026-04-26T09:31:08.873Z</time></trkpt><trkpt lat="44.4233768" lon="9.7286206"><ele>1042.0</ele><time>2026-04-26T09:31:09.872Z</time></trkpt><trkpt lat="44.4232791" lon="9.7287195"><ele>1044.0</ele><time>2026-04-26T09:31:10.872Z</time></trkpt><trkpt lat="44.4231907" lon="9.7287721"><ele>1046.0</ele><time>2026-04-26T09:31:11.872Z</time></trkpt><trkpt lat="44.4230968" lon="9.7287387"><ele>1048.0</ele><time>2026-04-26T09:31:12.872Z</time></trkpt><trkpt lat="44.4229904" lon="9.7287426"><ele>1048.4</ele><time>2026-04-26T09:31:13.873Z</time></trkpt><trkpt lat="44.4228853" lon="9.7287161"><ele>1048.8</ele><time>2026-04-26T09:31:14.873Z</time></trkpt><trkpt lat="44.4227944" lon="9.7286732"><ele>1049.2</ele><time>2026-04-26T09:31:15.872Z</time></trkpt><trkpt lat="44.4227135" lon="9.7286122"><ele>1049.6</ele><time>2026-04-26T09:31:16.872Z</time></trkpt><trkpt lat="44.4226367" lon="9.7285251"><ele>1050.0</ele><time>2026-04-26T09:31:17.872Z</time></trkpt><trkpt lat="44.4225533" lon="9.7284427"><ele>1050.0</ele><time>2026-04-26T09:31:18.873Z</time></trkpt><trkpt lat="44.4224715" lon="9.7283446"><ele>1050.0</ele><time>2026-04-26T09:31:19.872Z</time></trkpt><trkpt lat="44.4223911" lon="9.7282423"><ele>1050.0</ele><time>2026-04-26T09:31:20.873Z</time></trkpt><trkpt lat="44.4223237" lon="9.7281574"><ele>1050.0</ele><time>2026-04-26T09:31:21.872Z</time></trkpt><trkpt lat="44.4222688" lon="9.7280882"><ele>1050.0</ele><time>2026-04-26T09:31:22.873Z</time></trkpt><trkpt lat="44.4221727" lon="9.7280042"><ele>1050.6</ele><time>2026-04-26T09:31:24.873Z</time></trkpt><trkpt lat="44.4220979" lon="9.7279973"><ele>1051.2</ele><time>2026-04-26T09:31:26.873Z</time></trkpt><trkpt lat="44.422032" lon="9.7280664"><ele>1051.8</ele><time>2026-04-26T09:31:28.873Z</time></trkpt><trkpt lat="44.4220099" lon="9.7282044"><ele>1052.4</ele><time>2026-04-26T09:31:30.873Z</time></trkpt><trkpt lat="44.4220675" lon="9.7283519"><ele>1053.0</ele><time>2026-04-26T09:31:32.873Z</time></trkpt><trkpt lat="44.4221255" lon="9.7284251"><ele>1052.4</ele><time>2026-04-26T09:31:33.872Z</time></trkpt><trkpt lat="44.4221935" lon="9.7285174"><ele>1051.8</ele><time>2026-04-26T09:31:34.872Z</time></trkpt><trkpt lat="44.4222592" lon="9.7286218"><ele>1051.2</ele><time>2026-04-26T09:31:35.872Z</time></trkpt><trkpt lat="44.4223097" lon="9.7287204"><ele>1050.6</ele><time>2026-04-26T09:31:36.872Z</time></trkpt><trkpt lat="44.4223512" lon="9.7288346"><ele>1050.0</ele><time>2026-04-26T09:31:37.873Z</time></trkpt><trkpt lat="44.422383" lon="9.7289751"><ele>1053.0</ele><time>2026-04-26T09:31:38.872Z</time></trkpt><trkpt lat="44.4224206" lon="9.7291225"><ele>1056.0</ele><time>2026-04-26T09:31:39.872Z</time></trkpt><trkpt lat="44.4224631" lon="9.7292974"><ele>1059.0</ele><time>2026-04-26T09:31:40.872Z</time></trkpt><trkpt lat="44.4225083" lon="9.7294751"><ele>1062.0</ele><time>2026-04-26T09:31:41.873Z</time></trkpt><trkpt lat="44.4225615" lon="9.7296585"><ele>1064.0</ele><time>2026-04-26T09:31:42.872Z</time></trkpt><trkpt lat="44.4226073" lon="9.7298339"><ele>1066.0</ele><time>2026-04-26T09:31:43.874Z</time></trkpt><trkpt lat="44.422642" lon="9.7299888"><ele>1068.0</ele><time>2026-04-26T09:31:44.873Z</time></trkpt><trkpt lat="44.4226636" lon="9.7301414"><ele>1070.0</ele><time>2026-04-26T09:31:45.872Z</time></trkpt><trkpt lat="44.4226727" lon="9.7302862"><ele>1071.4</ele><time>2026-04-26T09:31:46.873Z</time></trkpt><trkpt lat="44.4226857" lon="9.7304359"><ele>1072.8</ele><time>2026-04-26T09:31:47.872Z</time></trkpt><trkpt lat="44.4226813" lon="9.7305923"><ele>1074.2</ele><time>2026-04-26T09:31:48.872Z</time></trkpt><trkpt lat="44.4226764" lon="9.7307356"><ele>1075.6</ele><time>2026-04-26T09:31:49.872Z</time></trkpt><trkpt lat="44.4226734" lon="9.7308487"><ele>1077.0</ele><time>2026-04-26T09:31:50.873Z</time></trkpt><trkpt lat="44.4226716" lon="9.730959"><ele>1078.0</ele><time>2026-04-26T09:31:51.872Z</time></trkpt><trkpt lat="44.4226677" lon="9.7310729"><ele>1079.0</ele><time>2026-04-26T09:31:52.872Z</time></trkpt><trkpt lat="44.4226615" lon="9.7311871"><ele>1080.0</ele><time>2026-04-26T09:31:53.872Z</time></trkpt><trkpt lat="44.4226493" lon="9.731297"><ele>1081.0</ele><time>2026-04-26T09:31:54.873Z</time></trkpt><trkpt lat="44.4226308" lon="9.7313826"><ele>1082.0</ele><time>2026-04-26T09:31:55.873Z</time></trkpt><trkpt lat="44.4225639" lon="9.7315277"><ele>1083.0</ele><time>2026-04-26T09:31:57.873Z</time></trkpt><trkpt lat="44.4225198" lon="9.7316115"><ele>1083.0</ele><time>2026-04-26T09:31:58.873Z</time></trkpt><trkpt lat="44.4225046" lon="9.731742"><ele>1083.0</ele><time>2026-04-26T09:32:00.873Z</time></trkpt><trkpt lat="44.4225327" lon="9.7318732"><ele>1083.0</ele><time>2026-04-26T09:32:02.874Z</time></trkpt><trkpt lat="44.4225788" lon="9.7319519"><ele>1083.0</ele><time>2026-04-26T09:32:03.872Z</time></trkpt><trkpt lat="44.4226414" lon="9.7320294"><ele>1083.0</ele><time>2026-04-26T09:32:04.872Z</time></trkpt><trkpt lat="44.4227193" lon="9.732112"><ele>1083.0</ele><time>2026-04-26T09:32:05.872Z</time></trkpt><trkpt lat="44.4228025" lon="9.7322028"><ele>1082.75</ele><time>2026-04-26T09:32:06.872Z</time></trkpt><trkpt lat="44.4228819" lon="9.7322962"><ele>1082.5</ele><time>2026-04-26T09:32:07.873Z</time></trkpt><trkpt lat="44.4229852" lon="9.7324075"><ele>1082.25</ele><time>2026-04-26T09:32:08.873Z</time></trkpt><trkpt lat="44.4230868" lon="9.7325124"><ele>1082.0</ele><time>2026-04-26T09:32:09.872Z</time></trkpt><trkpt lat="44.4231699" lon="9.7326081"><ele>1082.0</ele><time>2026-04-26T09:32:10.872Z</time></trkpt><trkpt lat="44.4232433" lon="9.7327093"><ele>1082.0</ele><time>2026-04-26T09:32:11.872Z</time></trkpt><trkpt lat="44.4233047" lon="9.7328173"><ele>1082.0</ele><time>2026-04-26T09:32:12.872Z</time></trkpt><trkpt lat="44.4233462" lon="9.7329116"><ele>1082.0</ele><time>2026-04-26T09:32:13.872Z</time></trkpt><trkpt lat="44.4233763" lon="9.7329976"><ele>1082.0</ele><time>2026-04-26T09:32:14.872Z</time></trkpt><trkpt lat="44.4234048" lon="9.7331553"><ele>1084.0</ele><time>2026-04-26T09:32:16.873Z</time></trkpt><trkpt lat="44.4233985" lon="9.7333376"><ele>1086.0</ele><time>2026-04-26T09:32:18.873Z</time></trkpt><trkpt lat="44.4233743" lon="9.7334594"><ele>1088.0</ele><time>2026-04-26T09:32:19.872Z</time></trkpt><trkpt lat="44.423337" lon="9.7335898"><ele>1090.0</ele><time>2026-04-26T09:32:20.872Z</time></trkpt><trkpt lat="44.4232859" lon="9.7337178"><ele>1092.0</ele><time>2026-04-26T09:32:21.873Z</time></trkpt><trkpt lat="44.4232188" lon="9.7338281"><ele>1092.0</ele><time>2026-04-26T09:32:22.873Z</time></trkpt><trkpt lat="44.423138" lon="9.7339352"><ele>1092.0</ele><time>2026-04-26T09:32:23.872Z</time></trkpt><trkpt lat="44.423052" lon="9.7340405"><ele>1092.0</ele><time>2026-04-26T09:32:24.872Z</time></trkpt><trkpt lat="44.4229681" lon="9.7341434"><ele>1092.0</ele><time>2026-04-26T09:32:25.872Z</time></trkpt><trkpt lat="44.4228865" lon="9.73426"><ele>1097.25</ele><time>2026-04-26T09:32:26.873Z</time></trkpt><trkpt lat="44.4228081" lon="9.7343823"><ele>1102.5</ele><time>2026-04-26T09:32:27.872Z</time></trkpt><trkpt lat="44.4227379" lon="9.7345038"><ele>1107.75</ele><time>2026-04-26T09:32:28.872Z</time></trkpt><trkpt lat="44.422657" lon="9.7346488"><ele>1113.0</ele><time>2026-04-26T09:32:29.872Z</time></trkpt><trkpt lat="44.4225753" lon="9.7348219"><ele>1113.0</ele><time>2026-04-26T09:32:30.873Z</time></trkpt><trkpt lat="44.4224982" lon="9.7349689"><ele>1113.0</ele><time>2026-04-26T09:32:31.873Z</time></trkpt><trkpt lat="44.4224346" lon="9.7350978"><ele>1113.0</ele><time>2026-04-26T09:32:32.872Z</time></trkpt><trkpt lat="44.4223619" lon="9.7352307"><ele>1113.0</ele><time>2026-04-26T09:32:33.872Z</time></trkpt><trkpt lat="44.4223051" lon="9.7353601"><ele>1112.3333333333333</ele><time>2026-04-26T09:32:34.873Z</time></trkpt><trkpt lat="44.4222483" lon="9.7354777"><ele>1111.6666666666667</ele><time>2026-04-26T09:32:35.873Z</time></trkpt><trkpt lat="44.422204" lon="9.7355793"><ele>1111.0</ele><time>2026-04-26T09:32:36.873Z</time></trkpt><trkpt lat="44.4221634" lon="9.7356745"><ele>1110.3333333333335</ele><time>2026-04-26T09:32:37.872Z</time></trkpt><trkpt lat="44.4221339" lon="9.7357664"><ele>1109.6666666666667</ele><time>2026-04-26T09:32:38.872Z</time></trkpt><trkpt lat="44.4221074" lon="9.7358764"><ele>1109.0</ele><time>2026-04-26T09:32:39.872Z</time></trkpt><trkpt lat="44.4221072" lon="9.7359987"><ele>1111.6000000000001</ele><time>2026-04-26T09:32:40.872Z</time></trkpt><trkpt lat="44.42212" lon="9.7361217"><ele>1114.2</ele><time>2026-04-26T09:32:41.872Z</time></trkpt><trkpt lat="44.4221492" lon="9.7362386"><ele>1116.8000000000002</ele><time>2026-04-26T09:32:42.872Z</time></trkpt><trkpt lat="44.4221949" lon="9.7363444"><ele>1119.4</ele><time>2026-04-26T09:32:43.872Z</time></trkpt><trkpt lat="44.4222568" lon="9.7364424"><ele>1122.0</ele><time>2026-04-26T09:32:44.872Z</time></trkpt><trkpt lat="44.4223215" lon="9.7365517"><ele>1122.0</ele><time>2026-04-26T09:32:45.872Z</time></trkpt><trkpt lat="44.4223965" lon="9.7366441"><ele>1122.0</ele><time>2026-04-26T09:32:46.872Z</time></trkpt><trkpt lat="44.4224524" lon="9.7367424"><ele>1122.0</ele><time>2026-04-26T09:32:47.873Z</time></trkpt><trkpt lat="44.4224993" lon="9.7368504"><ele>1122.0</ele><time>2026-04-26T09:32:48.872Z</time></trkpt><trkpt lat="44.4225502" lon="9.7369856"><ele>1122.0</ele><time>2026-04-26T09:32:49.873Z</time></trkpt><trkpt lat="44.4225988" lon="9.7371202"><ele>1123.8333333333333</ele><time>2026-04-26T09:32:50.873Z</time></trkpt><trkpt lat="44.4226354" lon="9.7372388"><ele>1125.6666666666667</ele><time>2026-04-26T09:32:51.874Z</time></trkpt><trkpt lat="44.4226562" lon="9.7373394"><ele>1127.5</ele><time>2026-04-26T09:32:52.872Z</time></trkpt><trkpt lat="44.4226684" lon="9.7374513"><ele>1129.3333333333335</ele><time>2026-04-26T09:32:53.872Z</time></trkpt><trkpt lat="44.4226661" lon="9.737566"><ele>1131.1666666666667</ele><time>2026-04-26T09:32:54.872Z</time></trkpt><trkpt lat="44.4226455" lon="9.7376824"><ele>1133.0</ele><time>2026-04-26T09:32:55.872Z</time></trkpt><trkpt lat="44.4226109" lon="9.7377831"><ele>1133.3333333333335</ele><time>2026-04-26T09:32:56.872Z</time></trkpt><trkpt lat="44.4225604" lon="9.7378827"><ele>1133.6666666666667</ele><time>2026-04-26T09:32:57.872Z</time></trkpt><trkpt lat="44.4225151" lon="9.737952"><ele>1134.0</ele><time>2026-04-26T09:32:58.872Z</time></trkpt><trkpt lat="44.4224446" lon="9.7380026"><ele>1134.3333333333333</ele><time>2026-04-26T09:32:59.872Z</time></trkpt><trkpt lat="44.4223598" lon="9.7380455"><ele>1134.6666666666665</ele><time>2026-04-26T09:33:00.873Z</time></trkpt><trkpt lat="44.4222539" lon="9.7380655"><ele>1135.0</ele><time>2026-04-26T09:33:01.873Z</time></trkpt><trkpt lat="44.4221357" lon="9.7380766"><ele>1136.4</ele><time>2026-04-26T09:33:02.873Z</time></trkpt><trkpt lat="44.4220202" lon="9.738073"><ele>1137.8</ele><time>2026-04-26T09:33:03.872Z</time></trkpt><trkpt lat="44.4219158" lon="9.7380603"><ele>1139.2</ele><time>2026-04-26T09:33:04.872Z</time></trkpt><trkpt lat="44.4218076" lon="9.7380405"><ele>1140.6</ele><time>2026-04-26T09:33:05.872Z</time></trkpt><trkpt lat="44.4217368" lon="9.7379857"><ele>1142.0</ele><time>2026-04-26T09:33:06.873Z</time></trkpt><trkpt lat="44.4216745" lon="9.7379298"><ele>1142.0</ele><time>2026-04-26T09:33:07.873Z</time></trkpt><trkpt lat="44.4216267" lon="9.7378495"><ele>1142.0</ele><time>2026-04-26T09:33:08.872Z</time></trkpt><trkpt lat="44.4215971" lon="9.7377415"><ele>1142.0</ele><time>2026-04-26T09:33:09.872Z</time></trkpt><trkpt lat="44.4215854" lon="9.7376101"><ele>1142.0</ele><time>2026-04-26T09:33:10.872Z</time></trkpt><trkpt lat="44.4215747" lon="9.7374859"><ele>1142.0</ele><time>2026-04-26T09:33:11.872Z</time></trkpt><trkpt lat="44.4215532" lon="9.7373806"><ele>1142.0</ele><time>2026-04-26T09:33:12.872Z</time></trkpt><trkpt lat="44.4215182" lon="9.7372942"><ele>1142.2</ele><time>2026-04-26T09:33:13.872Z</time></trkpt><trkpt lat="44.4214075" lon="9.7372026"><ele>1142.4</ele><time>2026-04-26T09:33:15.872Z</time></trkpt><trkpt lat="44.421343" lon="9.7371643"><ele>1142.6</ele><time>2026-04-26T09:33:16.872Z</time></trkpt><trkpt lat="44.421267" lon="9.7371392"><ele>1142.8</ele><time>2026-04-26T09:33:17.873Z</time></trkpt><trkpt lat="44.4211394" lon="9.7371819"><ele>1143.0</ele><time>2026-04-26T09:33:18.872Z</time></trkpt><trkpt lat="44.421031" lon="9.737175"><ele>1142.5</ele><time>2026-04-26T09:33:19.872Z</time></trkpt><trkpt lat="44.420925" lon="9.7371257"><ele>1142.0</ele><time>2026-04-26T09:33:20.872Z</time></trkpt><trkpt lat="44.4208063" lon="9.7370729"><ele>1141.5</ele><time>2026-04-26T09:33:21.872Z</time></trkpt><trkpt lat="44.4206717" lon="9.7370121"><ele>1141.0</ele><time>2026-04-26T09:33:22.872Z</time></trkpt><trkpt lat="44.420522" lon="9.7369504"><ele>1142.0</ele><time>2026-04-26T09:33:23.872Z</time></trkpt><trkpt lat="44.4203773" lon="9.7368914"><ele>1143.0</ele><time>2026-04-26T09:33:24.872Z</time></trkpt><trkpt lat="44.4202335" lon="9.736843"><ele>1144.0</ele><time>2026-04-26T09:33:25.872Z</time></trkpt><trkpt lat="44.4200885" lon="9.7367975"><ele>1145.0</ele><time>2026-04-26T09:33:26.873Z</time></trkpt><trkpt lat="44.4199596" lon="9.7367478"><ele>1146.0</ele><time>2026-04-26T09:33:27.872Z</time></trkpt><trkpt lat="44.4198418" lon="9.7366999"><ele>1147.0</ele><time>2026-04-26T09:33:28.872Z</time></trkpt><trkpt lat="44.4197402" lon="9.7366562"><ele>1148.0</ele><time>2026-04-26T09:33:29.872Z</time></trkpt><trkpt lat="44.4196465" lon="9.7366011"><ele>1149.0</ele><time>2026-04-26T09:33:30.873Z</time></trkpt><trkpt lat="44.419575" lon="9.7365341"><ele>1150.0</ele><time>2026-04-26T09:33:31.872Z</time></trkpt><trkpt lat="44.4195096" lon="9.736444"><ele>1150.0</ele><time>2026-04-26T09:33:32.872Z</time></trkpt><trkpt lat="44.4194632" lon="9.736348"><ele>1150.0</ele><time>2026-04-26T09:33:33.872Z</time></trkpt><trkpt lat="44.4194341" lon="9.7362646"><ele>1150.0</ele><time>2026-04-26T09:33:34.872Z</time></trkpt><trkpt lat="44.4194255" lon="9.7361618"><ele>1150.0</ele><time>2026-04-26T09:33:35.872Z</time></trkpt><trkpt lat="44.4194313" lon="9.7360589"><ele>1150.0</ele><time>2026-04-26T09:33:36.872Z</time></trkpt><trkpt lat="44.419449" lon="9.7359539"><ele>1150.0</ele><time>2026-04-26T09:33:37.873Z</time></trkpt><trkpt lat="44.4194665" lon="9.7358432"><ele>1150.6666666666665</ele><time>2026-04-26T09:33:38.872Z</time></trkpt><trkpt lat="44.4194856" lon="9.7357338"><ele>1151.3333333333333</ele><time>2026-04-26T09:33:39.872Z</time></trkpt><trkpt lat="44.419498" lon="9.7356263"><ele>1152.0</ele><time>2026-04-26T09:33:40.872Z</time></trkpt><trkpt lat="44.4195017" lon="9.7355148"><ele>1152.6666666666667</ele><time>2026-04-26T09:33:41.873Z</time></trkpt><trkpt lat="44.4194946" lon="9.735404"><ele>1153.3333333333335</ele><time>2026-04-26T09:33:42.872Z</time></trkpt><trkpt lat="44.4194846" lon="9.7352969"><ele>1154.0</ele><time>2026-04-26T09:33:43.872Z</time></trkpt><trkpt lat="44.4194237" lon="9.7352348"><ele>1154.0</ele><time>2026-04-26T09:33:44.872Z</time></trkpt><trkpt lat="44.4193703" lon="9.7351801"><ele>1154.0</ele><time>2026-04-26T09:33:45.872Z</time></trkpt><trkpt lat="44.4193048" lon="9.7351461"><ele>1154.0</ele><time>2026-04-26T09:33:46.872Z</time></trkpt><trkpt lat="44.4192359" lon="9.7351374"><ele>1154.0</ele><time>2026-04-26T09:33:47.872Z</time></trkpt><trkpt lat="44.4191661" lon="9.735159"><ele>1154.0</ele><time>2026-04-26T09:33:48.872Z</time></trkpt><trkpt lat="44.4190762" lon="9.7351922"><ele>1154.0</ele><time>2026-04-26T09:33:49.872Z</time></trkpt><trkpt lat="44.4189797" lon="9.735252"><ele>1154.0</ele><time>2026-04-26T09:33:50.872Z</time></trkpt><trkpt lat="44.4188788" lon="9.7353122"><ele>1154.0</ele><time>2026-04-26T09:33:51.872Z</time></trkpt><trkpt lat="44.41876" lon="9.7353726"><ele>1154.0</ele><time>2026-04-26T09:33:52.872Z</time></trkpt><trkpt lat="44.4186423" lon="9.7354458"><ele>1154.0</ele><time>2026-04-26T09:33:53.872Z</time></trkpt><trkpt lat="44.4185475" lon="9.7354972"><ele>1155.0</ele><time>2026-04-26T09:33:54.873Z</time></trkpt><trkpt lat="44.4184574" lon="9.735532"><ele>1156.0</ele><time>2026-04-26T09:33:55.873Z</time></trkpt><trkpt lat="44.4183689" lon="9.7355464"><ele>1157.0</ele><time>2026-04-26T09:33:56.873Z</time></trkpt><trkpt lat="44.4182732" lon="9.7355516"><ele>1158.0</ele><time>2026-04-26T09:33:57.873Z</time></trkpt><trkpt lat="44.4181818" lon="9.7355458"><ele>1159.0</ele><time>2026-04-26T09:33:58.873Z</time></trkpt><trkpt lat="44.418082" lon="9.7355283"><ele>1161.0</ele><time>2026-04-26T09:33:59.873Z</time></trkpt><trkpt lat="44.4179812" lon="9.735497"><ele>1163.0</ele><time>2026-04-26T09:34:00.873Z</time></trkpt><trkpt lat="44.4178766" lon="9.7354464"><ele>1165.0</ele><time>2026-04-26T09:34:01.872Z</time></trkpt><trkpt lat="44.4177793" lon="9.7353951"><ele>1167.0</ele><time>2026-04-26T09:34:02.872Z</time></trkpt><trkpt lat="44.4176902" lon="9.7353301"><ele>1169.0</ele><time>2026-04-26T09:34:03.872Z</time></trkpt><trkpt lat="44.4176042" lon="9.7352548"><ele>1170.0</ele><time>2026-04-26T09:34:04.872Z</time></trkpt><trkpt lat="44.4175408" lon="9.7351838"><ele>1171.0</ele><time>2026-04-26T09:34:05.872Z</time></trkpt><trkpt lat="44.4174814" lon="9.7351022"><ele>1172.0</ele><time>2026-04-26T09:34:06.872Z</time></trkpt><trkpt lat="44.4174274" lon="9.7349991"><ele>1173.0</ele><time>2026-04-26T09:34:07.872Z</time></trkpt><trkpt lat="44.4173752" lon="9.7349042"><ele>1174.0</ele><time>2026-04-26T09:34:08.872Z</time></trkpt><trkpt lat="44.4173259" lon="9.7348264"><ele>1175.0</ele><time>2026-04-26T09:34:09.872Z</time></trkpt><trkpt lat="44.4172721" lon="9.7347678"><ele>1175.0</ele><time>2026-04-26T09:34:10.872Z</time></trkpt><trkpt lat="44.4172068" lon="9.7347443"><ele>1175.0</ele><time>2026-04-26T09:34:11.872Z</time></trkpt><trkpt lat="44.4171439" lon="9.7347482"><ele>1175.0</ele><time>2026-04-26T09:34:12.872Z</time></trkpt><trkpt lat="44.4170231" lon="9.7347919"><ele>1175.0</ele><time>2026-04-26T09:34:14.873Z</time></trkpt><trkpt lat="44.4169502" lon="9.7349353"><ele>1175.0</ele><time>2026-04-26T09:34:15.872Z</time></trkpt><trkpt lat="44.4168752" lon="9.7350401"><ele>1176.25</ele><time>2026-04-26T09:34:16.872Z</time></trkpt><trkpt lat="44.4168025" lon="9.7352033"><ele>1177.5</ele><time>2026-04-26T09:34:17.872Z</time></trkpt><trkpt lat="44.4167137" lon="9.7353473"><ele>1178.75</ele><time>2026-04-26T09:34:18.872Z</time></trkpt><trkpt lat="44.416632" lon="9.7354809"><ele>1180.0</ele><time>2026-04-26T09:34:19.873Z</time></trkpt><trkpt lat="44.4165554" lon="9.7356069"><ele>1181.2</ele><time>2026-04-26T09:34:20.873Z</time></trkpt><trkpt lat="44.416492" lon="9.7357097"><ele>1182.4</ele><time>2026-04-26T09:34:21.872Z</time></trkpt><trkpt lat="44.4164399" lon="9.7357916"><ele>1183.6</ele><time>2026-04-26T09:34:22.872Z</time></trkpt><trkpt lat="44.4164007" lon="9.7358636"><ele>1184.8</ele><time>2026-04-26T09:34:23.872Z</time></trkpt><trkpt lat="44.4163555" lon="9.7360171"><ele>1186.0</ele><time>2026-04-26T09:34:25.872Z</time></trkpt><trkpt lat="44.4163442" lon="9.7361659"><ele>1187.1666666666665</ele><time>2026-04-26T09:34:27.872Z</time></trkpt><trkpt lat="44.4163753" lon="9.7362615"><ele>1188.3333333333333</ele><time>2026-04-26T09:34:28.872Z</time></trkpt><trkpt lat="44.4164132" lon="9.7363652"><ele>1189.5</ele><time>2026-04-26T09:34:29.873Z</time></trkpt><trkpt lat="44.4164331" lon="9.736477"><ele>1190.6666666666667</ele><time>2026-04-26T09:34:30.873Z</time></trkpt><trkpt lat="44.4164593" lon="9.7365922"><ele>1191.8333333333335</ele><time>2026-04-26T09:34:31.873Z</time></trkpt><trkpt lat="44.4164966" lon="9.7366996"><ele>1193.0</ele><time>2026-04-26T09:34:32.873Z</time></trkpt><trkpt lat="44.416565" lon="9.7367828"><ele>1193.0</ele><time>2026-04-26T09:34:33.873Z</time></trkpt><trkpt lat="44.4166162" lon="9.7368635"><ele>1193.0</ele><time>2026-04-26T09:34:34.873Z</time></trkpt><trkpt lat="44.4167334" lon="9.7369205"><ele>1193.0</ele><time>2026-04-26T09:34:35.873Z</time></trkpt><trkpt lat="44.4168068" lon="9.7369862"><ele>1193.0</ele><time>2026-04-26T09:34:36.872Z</time></trkpt><trkpt lat="44.4168636" lon="9.7370457"><ele>1193.0</ele><time>2026-04-26T09:34:37.872Z</time></trkpt><trkpt lat="44.4169097" lon="9.7371866"><ele>1194.0</ele><time>2026-04-26T09:34:39.873Z</time></trkpt><trkpt lat="44.4168713" lon="9.7373079"><ele>1195.0</ele><time>2026-04-26T09:34:41.872Z</time></trkpt><trkpt lat="44.4168152" lon="9.737388"><ele>1196.0</ele><time>2026-04-26T09:34:42.872Z</time></trkpt><trkpt lat="44.4167496" lon="9.7374655"><ele>1197.0</ele><time>2026-04-26T09:34:43.872Z</time></trkpt><trkpt lat="44.4166804" lon="9.7375343"><ele>1198.0</ele><time>2026-04-26T09:34:44.874Z</time></trkpt><trkpt lat="44.4165999" lon="9.7376164"><ele>1199.0</ele><time>2026-04-26T09:34:45.873Z</time></trkpt><trkpt lat="44.4165208" lon="9.7376971"><ele>1199.2</ele><time>2026-04-26T09:34:46.872Z</time></trkpt><trkpt lat="44.4164486" lon="9.7377764"><ele>1199.4</ele><time>2026-04-26T09:34:47.873Z</time></trkpt><trkpt lat="44.4163772" lon="9.7378679"><ele>1199.6</ele><time>2026-04-26T09:34:48.873Z</time></trkpt><trkpt lat="44.4163175" lon="9.7379691"><ele>1199.8</ele><time>2026-04-26T09:34:49.872Z</time></trkpt><trkpt lat="44.4162525" lon="9.7380812"><ele>1200.0</ele><time>2026-04-26T09:34:50.872Z</time></trkpt><trkpt lat="44.4161997" lon="9.7381846"><ele>1203.4</ele><time>2026-04-26T09:34:51.873Z</time></trkpt><trkpt lat="44.4161521" lon="9.7383064"><ele>1206.8</ele><time>2026-04-26T09:34:52.873Z</time></trkpt><trkpt lat="44.4161045" lon="9.7384478"><ele>1210.2</ele><time>2026-04-26T09:34:53.873Z</time></trkpt><trkpt lat="44.4160648" lon="9.7385864"><ele>1213.6</ele><time>2026-04-26T09:34:54.873Z</time></trkpt><trkpt lat="44.4160283" lon="9.7387167"><ele>1217.0</ele><time>2026-04-26T09:34:55.872Z</time></trkpt><trkpt lat="44.415978" lon="9.7388331"><ele>1217.0</ele><time>2026-04-26T09:34:56.872Z</time></trkpt><trkpt lat="44.4159254" lon="9.73893"><ele>1217.0</ele><time>2026-04-26T09:34:57.873Z</time></trkpt><trkpt lat="44.4158615" lon="9.7390117"><ele>1217.0</ele><time>2026-04-26T09:34:58.872Z</time></trkpt><trkpt lat="44.4157861" lon="9.739081"><ele>1217.0</ele><time>2026-04-26T09:34:59.872Z</time></trkpt><trkpt lat="44.4157029" lon="9.7391473"><ele>1217.0</ele><time>2026-04-26T09:35:00.872Z</time></trkpt><trkpt lat="44.4156092" lon="9.7392171"><ele>1217.0</ele><time>2026-04-26T09:35:01.872Z</time></trkpt><trkpt lat="44.4155126" lon="9.7392844"><ele>1217.0</ele><time>2026-04-26T09:35:02.874Z</time></trkpt><trkpt lat="44.415419" lon="9.7393531"><ele>1217.0</ele><time>2026-04-26T09:35:03.872Z</time></trkpt><trkpt lat="44.4153328" lon="9.7394074"><ele>1217.0</ele><time>2026-04-26T09:35:04.873Z</time></trkpt><trkpt lat="44.4152542" lon="9.7394995"><ele>1217.0</ele><time>2026-04-26T09:35:05.873Z</time></trkpt><trkpt lat="44.415186" lon="9.7395943"><ele>1220.0</ele><time>2026-04-26T09:35:06.872Z</time></trkpt><trkpt lat="44.4151226" lon="9.7396966"><ele>1223.0</ele><time>2026-04-26T09:35:07.872Z</time></trkpt><trkpt lat="44.4150596" lon="9.739818"><ele>1226.0</ele><time>2026-04-26T09:35:08.872Z</time></trkpt><trkpt lat="44.415034" lon="9.7399463"><ele>1229.0</ele><time>2026-04-26T09:35:09.874Z</time></trkpt><trkpt lat="44.4150402" lon="9.7400662"><ele>1232.0</ele><time>2026-04-26T09:35:10.873Z</time></trkpt><trkpt lat="44.4150325" lon="9.740177"><ele>1232.4</ele><time>2026-04-26T09:35:11.872Z</time></trkpt><trkpt lat="44.4150673" lon="9.7403123"><ele>1232.8000000000002</ele><time>2026-04-26T09:35:12.871Z</time></trkpt><trkpt lat="44.4150683" lon="9.7404159"><ele>1233.2</ele><time>2026-04-26T09:35:13.872Z</time></trkpt><trkpt lat="44.41505" lon="9.7405693"><ele>1233.6000000000001</ele><time>2026-04-26T09:35:15.871Z</time></trkpt><trkpt lat="44.4150211" lon="9.7406676"><ele>1234.0</ele><time>2026-04-26T09:35:16.871Z</time></trkpt><trkpt lat="44.4149525" lon="9.7407799"><ele>1234.0</ele><time>2026-04-26T09:35:18.872Z</time></trkpt><trkpt lat="44.4148641" lon="9.740862"><ele>1234.0</ele><time>2026-04-26T09:35:20.871Z</time></trkpt><trkpt lat="44.4148045" lon="9.7408937"><ele>1234.0</ele><time>2026-04-26T09:35:21.871Z</time></trkpt><trkpt lat="44.4147324" lon="9.7409157"><ele>1234.0</ele><time>2026-04-26T09:35:22.871Z</time></trkpt><trkpt lat="44.4146589" lon="9.7409185"><ele>1234.0</ele><time>2026-04-26T09:35:23.871Z</time></trkpt><trkpt lat="44.4145799" lon="9.7409275"><ele>1234.0</ele><time>2026-04-26T09:35:24.872Z</time></trkpt><trkpt lat="44.4145119" lon="9.7409282"><ele>1235.5</ele><time>2026-04-26T09:35:25.871Z</time></trkpt><trkpt lat="44.4144482" lon="9.7409125"><ele>1237.0</ele><time>2026-04-26T09:35:26.871Z</time></trkpt><trkpt lat="44.4143612" lon="9.7408856"><ele>1238.5</ele><time>2026-04-26T09:35:28.872Z</time></trkpt><trkpt lat="44.4143041" lon="9.7409647"><ele>1240.0</ele><time>2026-04-26T09:51:12.869Z</time></trkpt><trkpt lat="44.4142408" lon="9.7410265"><ele>1241.5</ele><time>2026-04-26T09:51:14.869Z</time></trkpt><trkpt lat="44.4141867" lon="9.7409742"><ele>1243.0</ele><time>2026-04-26T09:51:18.868Z</time></trkpt><trkpt lat="44.4142701" lon="9.7409442"><ele>1243.0</ele><time>2026-04-26T09:51:21.868Z</time></trkpt><trkpt lat="44.4143084" lon="9.7410436"><ele>1243.0</ele><time>2026-04-26T09:51:23.868Z</time></trkpt><trkpt lat="44.414253" lon="9.741147"><ele>1243.0</ele><time>2026-04-26T09:51:25.869Z</time></trkpt><trkpt lat="44.4141284" lon="9.7412332"><ele>1243.0</ele><time>2026-04-26T09:51:27.869Z</time></trkpt><trkpt lat="44.4140513" lon="9.7412725"><ele>1243.0</ele><time>2026-04-26T09:51:28.868Z</time></trkpt><trkpt lat="44.4139175" lon="9.7412833"><ele>1239.75</ele><time>2026-04-26T09:51:29.868Z</time></trkpt><trkpt lat="44.4137978" lon="9.7412844"><ele>1236.5</ele><time>2026-04-26T09:51:30.868Z</time></trkpt><trkpt lat="44.4136645" lon="9.7412853"><ele>1233.25</ele><time>2026-04-26T09:51:31.868Z</time></trkpt><trkpt lat="44.413508" lon="9.741292"><ele>1230.0</ele><time>2026-04-26T09:51:32.868Z</time></trkpt><trkpt lat="44.4133473" lon="9.7412937"><ele>1230.0</ele><time>2026-04-26T09:51:33.868Z</time></trkpt><trkpt lat="44.4131695" lon="9.7412894"><ele>1230.0</ele><time>2026-04-26T09:51:34.87Z</time></trkpt><trkpt lat="44.4129909" lon="9.7412856"><ele>1230.0</ele><time>2026-04-26T09:51:35.868Z</time></trkpt><trkpt lat="44.4128103" lon="9.7412833"><ele>1231.0</ele><time>2026-04-26T09:51:36.869Z</time></trkpt><trkpt lat="44.4126338" lon="9.7412756"><ele>1232.0</ele><time>2026-04-26T09:51:37.868Z</time></trkpt><trkpt lat="44.4124654" lon="9.7412722"><ele>1233.0</ele><time>2026-04-26T09:51:38.868Z</time></trkpt><trkpt lat="44.4124075" lon="9.7412285"><ele>1234.0</ele><time>2026-04-26T09:51:39.869Z</time></trkpt><trkpt lat="44.4122855" lon="9.7412544"><ele>1237.0</ele><time>2026-04-26T09:51:40.869Z</time></trkpt><trkpt lat="44.4121555" lon="9.7412663"><ele>1240.0</ele><time>2026-04-26T09:51:41.868Z</time></trkpt><trkpt lat="44.412012" lon="9.7413156"><ele>1243.0</ele><time>2026-04-26T09:51:42.869Z</time></trkpt><trkpt lat="44.4118595" lon="9.7413807"><ele>1246.0</ele><time>2026-04-26T09:51:43.868Z</time></trkpt><trkpt lat="44.4117008" lon="9.7414703"><ele>1246.0</ele><time>2026-04-26T09:51:44.87Z</time></trkpt><trkpt lat="44.4115597" lon="9.7415597"><ele>1246.0</ele><time>2026-04-26T09:51:45.869Z</time></trkpt><trkpt lat="44.411424" lon="9.7415704"><ele>1246.0</ele><time>2026-04-26T09:51:46.868Z</time></trkpt><trkpt lat="44.4113486" lon="9.7416094"><ele>1246.0</ele><time>2026-04-26T09:51:47.868Z</time></trkpt><trkpt lat="44.4111863" lon="9.7416238"><ele>1247.25</ele><time>2026-04-26T09:51:48.869Z</time></trkpt><trkpt lat="44.4110534" lon="9.7416217"><ele>1248.5</ele><time>2026-04-26T09:51:49.869Z</time></trkpt><trkpt lat="44.4109319" lon="9.741642"><ele>1249.75</ele><time>2026-04-26T09:51:50.869Z</time></trkpt><trkpt lat="44.4108169" lon="9.7416626"><ele>1251.0</ele><time>2026-04-26T09:51:51.869Z</time></trkpt><trkpt lat="44.4106954" lon="9.7417004"><ele>1251.0</ele><time>2026-04-26T09:51:52.868Z</time></trkpt><trkpt lat="44.4105751" lon="9.7417478"><ele>1251.0</ele><time>2026-04-26T09:51:53.868Z</time></trkpt><trkpt lat="44.4104463" lon="9.7418251"><ele>1251.0</ele><time>2026-04-26T09:51:54.869Z</time></trkpt><trkpt lat="44.4103246" lon="9.7419126"><ele>1251.0</ele><time>2026-04-26T09:51:55.869Z</time></trkpt><trkpt lat="44.4102034" lon="9.7419994"><ele>1248.75</ele><time>2026-04-26T09:51:56.869Z</time></trkpt><trkpt lat="44.4100935" lon="9.7421397"><ele>1246.5</ele><time>2026-04-26T09:51:57.868Z</time></trkpt><trkpt lat="44.4099805" lon="9.7422294"><ele>1244.25</ele><time>2026-04-26T09:51:58.87Z</time></trkpt><trkpt lat="44.4098633" lon="9.7422894"><ele>1242.0</ele><time>2026-04-26T09:51:59.868Z</time></trkpt><trkpt lat="44.4097511" lon="9.7423115"><ele>1241.6</ele><time>2026-04-26T09:52:00.868Z</time></trkpt><trkpt lat="44.4096404" lon="9.7423264"><ele>1241.2</ele><time>2026-04-26T09:52:01.868Z</time></trkpt><trkpt lat="44.409527" lon="9.742332"><ele>1240.8</ele><time>2026-04-26T09:52:02.87Z</time></trkpt><trkpt lat="44.4094249" lon="9.7423379"><ele>1240.4</ele><time>2026-04-26T09:52:03.869Z</time></trkpt><trkpt lat="44.409345" lon="9.7423524"><ele>1240.0</ele><time>2026-04-26T09:52:04.868Z</time></trkpt><trkpt lat="44.4092785" lon="9.7423923"><ele>1240.0</ele><time>2026-04-26T09:52:05.868Z</time></trkpt><trkpt lat="44.409214" lon="9.7424545"><ele>1240.0</ele><time>2026-04-26T09:52:06.869Z</time></trkpt><trkpt lat="44.4091401" lon="9.742566"><ele>1240.0</ele><time>2026-04-26T09:52:07.868Z</time></trkpt><trkpt lat="44.4090665" lon="9.742684"><ele>1240.0</ele><time>2026-04-26T09:52:08.869Z</time></trkpt><trkpt lat="44.4089991" lon="9.742769"><ele>1240.0</ele><time>2026-04-26T09:52:09.868Z</time></trkpt><trkpt lat="44.4089314" lon="9.7428295"><ele>1237.8333333333333</ele><time>2026-04-26T09:52:10.869Z</time></trkpt><trkpt lat="44.4088587" lon="9.7428723"><ele>1235.6666666666665</ele><time>2026-04-26T09:52:11.868Z</time></trkpt><trkpt lat="44.4087854" lon="9.7429027"><ele>1233.5</ele><time>2026-04-26T09:52:12.869Z</time></trkpt><trkpt lat="44.4087036" lon="9.7429246"><ele>1231.3333333333333</ele><time>2026-04-26T09:52:13.868Z</time></trkpt><trkpt lat="44.4086111" lon="9.7429474"><ele>1229.1666666666667</ele><time>2026-04-26T09:52:14.868Z</time></trkpt><trkpt lat="44.4085048" lon="9.7429721"><ele>1227.0</ele><time>2026-04-26T09:52:15.868Z</time></trkpt><trkpt lat="44.4083879" lon="9.7429944"><ele>1227.0</ele><time>2026-04-26T09:52:16.868Z</time></trkpt><trkpt lat="44.4082768" lon="9.7430103"><ele>1227.0</ele><time>2026-04-26T09:52:17.869Z</time></trkpt><trkpt lat="44.4081805" lon="9.7430076"><ele>1227.0</ele><time>2026-04-26T09:52:18.869Z</time></trkpt><trkpt lat="44.4080899" lon="9.7429839"><ele>1227.0</ele><time>2026-04-26T09:52:19.868Z</time></trkpt><trkpt lat="44.4080064" lon="9.742942"><ele>1227.0</ele><time>2026-04-26T09:52:20.868Z</time></trkpt><trkpt lat="44.4079213" lon="9.742899"><ele>1226.2</ele><time>2026-04-26T09:52:21.869Z</time></trkpt><trkpt lat="44.4078336" lon="9.7428417"><ele>1225.4</ele><time>2026-04-26T09:52:22.868Z</time></trkpt><trkpt lat="44.40775" lon="9.7427913"><ele>1224.6</ele><time>2026-04-26T09:52:23.868Z</time></trkpt><trkpt lat="44.4076703" lon="9.7427406"><ele>1223.8</ele><time>2026-04-26T09:52:24.868Z</time></trkpt><trkpt lat="44.4075766" lon="9.7426901"><ele>1223.0</ele><time>2026-04-26T09:52:25.868Z</time></trkpt><trkpt lat="44.4074817" lon="9.7426413"><ele>1226.0</ele><time>2026-04-26T09:52:26.868Z</time></trkpt><trkpt lat="44.4073933" lon="9.742605"><ele>1229.0</ele><time>2026-04-26T09:52:27.868Z</time></trkpt><trkpt lat="44.4072989" lon="9.7425685"><ele>1232.0</ele><time>2026-04-26T09:52:28.868Z</time></trkpt><trkpt lat="44.4072139" lon="9.7425431"><ele>1235.0</ele><time>2026-04-26T09:52:29.868Z</time></trkpt><trkpt lat="44.4071237" lon="9.7425309"><ele>1238.0</ele><time>2026-04-26T09:52:30.868Z</time></trkpt><trkpt lat="44.4070313" lon="9.7425262"><ele>1238.0</ele><time>2026-04-26T09:52:31.869Z</time></trkpt><trkpt lat="44.4069321" lon="9.7425349"><ele>1238.0</ele><time>2026-04-26T09:52:32.868Z</time></trkpt><trkpt lat="44.4068258" lon="9.7425465"><ele>1238.0</ele><time>2026-04-26T09:52:33.868Z</time></trkpt><trkpt lat="44.406717" lon="9.742585"><ele>1238.0</ele><time>2026-04-26T09:52:34.868Z</time></trkpt><trkpt lat="44.4065984" lon="9.742622"><ele>1238.0</ele><time>2026-04-26T09:52:35.869Z</time></trkpt><trkpt lat="44.4064836" lon="9.7426462"><ele>1238.0</ele><time>2026-04-26T09:52:36.868Z</time></trkpt><trkpt lat="44.4063712" lon="9.742677"><ele>1238.0</ele><time>2026-04-26T09:52:37.868Z</time></trkpt><trkpt lat="44.406267" lon="9.7427106"><ele>1238.0</ele><time>2026-04-26T09:52:38.869Z</time></trkpt><trkpt lat="44.4061586" lon="9.742744"><ele>1238.0</ele><time>2026-04-26T09:52:39.87Z</time></trkpt><trkpt lat="44.4060459" lon="9.7427744"><ele>1238.0</ele><time>2026-04-26T09:52:40.868Z</time></trkpt><trkpt lat="44.4059358" lon="9.7428045"><ele>1237.4</ele><time>2026-04-26T09:52:41.868Z</time></trkpt><trkpt lat="44.405832" lon="9.742843"><ele>1236.8</ele><time>2026-04-26T09:52:42.868Z</time></trkpt><trkpt lat="44.4057289" lon="9.7428816"><ele>1236.2</ele><time>2026-04-26T09:52:43.869Z</time></trkpt><trkpt lat="44.4056393" lon="9.7429222"><ele>1235.6</ele><time>2026-04-26T09:52:44.868Z</time></trkpt><trkpt lat="44.40556" lon="9.7429707"><ele>1235.0</ele><time>2026-04-26T09:52:45.87Z</time></trkpt><trkpt lat="44.4054909" lon="9.7430359"><ele>1235.0</ele><time>2026-04-26T09:52:46.869Z</time></trkpt><trkpt lat="44.4054309" lon="9.7431155"><ele>1235.0</ele><time>2026-04-26T09:52:47.869Z</time></trkpt><trkpt lat="44.4053757" lon="9.7432084"><ele>1235.0</ele><time>2026-04-26T09:52:48.868Z</time></trkpt><trkpt lat="44.4053233" lon="9.7433259"><ele>1235.0</ele><time>2026-04-26T09:52:49.868Z</time></trkpt><trkpt lat="44.4052909" lon="9.7434336"><ele>1235.0</ele><time>2026-04-26T09:52:50.868Z</time></trkpt><trkpt lat="44.4052673" lon="9.7435403"><ele>1235.0</ele><time>2026-04-26T09:52:51.869Z</time></trkpt><trkpt lat="44.4052571" lon="9.7436423"><ele>1235.4</ele><time>2026-04-26T09:52:52.869Z</time></trkpt><trkpt lat="44.4052945" lon="9.743823"><ele>1235.8</ele><time>2026-04-26T09:52:54.869Z</time></trkpt><trkpt lat="44.4053726" lon="9.7439101"><ele>1236.2</ele><time>2026-04-26T09:52:55.868Z</time></trkpt><trkpt lat="44.4054378" lon="9.7439923"><ele>1236.6</ele><time>2026-04-26T09:52:56.868Z</time></trkpt><trkpt lat="44.4055227" lon="9.7440655"><ele>1237.0</ele><time>2026-04-26T09:52:57.868Z</time></trkpt><trkpt lat="44.4056192" lon="9.7441293"><ele>1237.0</ele><time>2026-04-26T09:52:58.868Z</time></trkpt><trkpt lat="44.4057192" lon="9.744196"><ele>1237.0</ele><time>2026-04-26T09:52:59.869Z</time></trkpt><trkpt lat="44.4058224" lon="9.7442607"><ele>1237.0</ele><time>2026-04-26T09:53:00.868Z</time></trkpt><trkpt lat="44.4059231" lon="9.7443086"><ele>1237.0</ele><time>2026-04-26T09:53:01.869Z</time></trkpt><trkpt lat="44.4060312" lon="9.7443544"><ele>1237.0</ele><time>2026-04-26T09:53:02.868Z</time></trkpt><trkpt lat="44.4061413" lon="9.744404"><ele>1240.6</ele><time>2026-04-26T09:53:03.869Z</time></trkpt><trkpt lat="44.4062485" lon="9.7444693"><ele>1244.2</ele><time>2026-04-26T09:53:04.868Z</time></trkpt><trkpt lat="44.4063486" lon="9.7445389"><ele>1247.8</ele><time>2026-04-26T09:53:05.869Z</time></trkpt><trkpt lat="44.4064453" lon="9.7445953"><ele>1251.4</ele><time>2026-04-26T09:53:06.868Z</time></trkpt><trkpt lat="44.4065367" lon="9.7446564"><ele>1255.0</ele><time>2026-04-26T09:53:07.868Z</time></trkpt><trkpt lat="44.406632" lon="9.7447138"><ele>1255.0</ele><time>2026-04-26T09:53:08.87Z</time></trkpt><trkpt lat="44.4067287" lon="9.7447561"><ele>1255.0</ele><time>2026-04-26T09:53:09.869Z</time></trkpt><trkpt lat="44.4068136" lon="9.74479"><ele>1255.0</ele><time>2026-04-26T09:53:10.869Z</time></trkpt><trkpt lat="44.4069126" lon="9.744866"><ele>1255.0</ele><time>2026-04-26T09:53:12.869Z</time></trkpt><trkpt lat="44.4069408" lon="9.7449582"><ele>1255.0</ele><time>2026-04-26T09:53:14.868Z</time></trkpt><trkpt lat="44.4069687" lon="9.7451112"><ele>1256.8</ele><time>2026-04-26T09:53:16.868Z</time></trkpt><trkpt lat="44.4069709" lon="9.7452246"><ele>1258.6</ele><time>2026-04-26T09:53:17.869Z</time></trkpt><trkpt lat="44.4069626" lon="9.7453424"><ele>1260.4</ele><time>2026-04-26T09:53:18.868Z</time></trkpt><trkpt lat="44.4069319" lon="9.7454571"><ele>1262.2</ele><time>2026-04-26T09:53:19.869Z</time></trkpt><trkpt lat="44.4068847" lon="9.7455659"><ele>1264.0</ele><time>2026-04-26T09:53:20.869Z</time></trkpt><trkpt lat="44.4068212" lon="9.7456942"><ele>1264.0</ele><time>2026-04-26T09:53:21.869Z</time></trkpt><trkpt lat="44.4067472" lon="9.7458288"><ele>1264.0</ele><time>2026-04-26T09:53:22.868Z</time></trkpt><trkpt lat="44.4066898" lon="9.7459205"><ele>1264.0</ele><time>2026-04-26T09:53:23.868Z</time></trkpt><trkpt lat="44.4066225" lon="9.7460059"><ele>1264.0</ele><time>2026-04-26T09:53:24.869Z</time></trkpt><trkpt lat="44.4065511" lon="9.7460668"><ele>1264.0</ele><time>2026-04-26T09:53:25.869Z</time></trkpt><trkpt lat="44.406465" lon="9.7461198"><ele>1265.2</ele><time>2026-04-26T09:53:26.869Z</time></trkpt><trkpt lat="44.4063686" lon="9.7461548"><ele>1266.4</ele><time>2026-04-26T09:53:27.868Z</time></trkpt><trkpt lat="44.4062783" lon="9.7461712"><ele>1267.6</ele><time>2026-04-26T09:53:28.869Z</time></trkpt><trkpt lat="44.4061774" lon="9.746181"><ele>1268.8</ele><time>2026-04-26T09:53:29.87Z</time></trkpt><trkpt lat="44.4060719" lon="9.7461762"><ele>1270.0</ele><time>2026-04-26T09:53:30.868Z</time></trkpt><trkpt lat="44.40596" lon="9.7461351"><ele>1268.75</ele><time>2026-04-26T09:53:31.869Z</time></trkpt><trkpt lat="44.4058462" lon="9.7460858"><ele>1267.5</ele><time>2026-04-26T09:53:32.868Z</time></trkpt><trkpt lat="44.405725" lon="9.7460323"><ele>1266.25</ele><time>2026-04-26T09:53:33.869Z</time></trkpt><trkpt lat="44.40561" lon="9.7459673"><ele>1265.0</ele><time>2026-04-26T09:53:34.868Z</time></trkpt><trkpt lat="44.4055012" lon="9.7459006"><ele>1266.5</ele><time>2026-04-26T09:53:35.868Z</time></trkpt><trkpt lat="44.4053903" lon="9.7458326"><ele>1268.0</ele><time>2026-04-26T09:53:36.869Z</time></trkpt><trkpt lat="44.4052877" lon="9.7457774"><ele>1269.5</ele><time>2026-04-26T09:53:37.868Z</time></trkpt><trkpt lat="44.4051745" lon="9.7457213"><ele>1271.0</ele><time>2026-04-26T09:53:38.868Z</time></trkpt><trkpt lat="44.4050601" lon="9.7456659"><ele>1271.0</ele><time>2026-04-26T09:53:39.869Z</time></trkpt><trkpt lat="44.4049466" lon="9.7456083"><ele>1271.0</ele><time>2026-04-26T09:53:40.868Z</time></trkpt><trkpt lat="44.4048325" lon="9.7455496"><ele>1271.0</ele><time>2026-04-26T09:53:41.868Z</time></trkpt><trkpt lat="44.4047206" lon="9.745491"><ele>1271.0</ele><time>2026-04-26T09:53:42.869Z</time></trkpt><trkpt lat="44.4046091" lon="9.7454292"><ele>1271.0</ele><time>2026-04-26T09:53:43.868Z</time></trkpt><trkpt lat="44.4044967" lon="9.7453718"><ele>1271.0</ele><time>2026-04-26T09:53:44.869Z</time></trkpt><trkpt lat="44.4043929" lon="9.7453159"><ele>1271.0</ele><time>2026-04-26T09:53:45.869Z</time></trkpt><trkpt lat="44.4043028" lon="9.7452612"><ele>1271.0</ele><time>2026-04-26T09:53:46.868Z</time></trkpt><trkpt lat="44.4042076" lon="9.7451913"><ele>1271.0</ele><time>2026-04-26T09:53:47.868Z</time></trkpt><trkpt lat="44.4041031" lon="9.7451267"><ele>1271.0</ele><time>2026-04-26T09:53:48.869Z</time></trkpt><trkpt lat="44.4039957" lon="9.7450618"><ele>1271.0</ele><time>2026-04-26T09:53:49.868Z</time></trkpt><trkpt lat="44.4038879" lon="9.7450031"><ele>1271.0</ele><time>2026-04-26T09:53:50.869Z</time></trkpt><trkpt lat="44.4037871" lon="9.7449683"><ele>1271.0</ele><time>2026-04-26T09:53:51.868Z</time></trkpt><trkpt lat="44.4036886" lon="9.7449479"><ele>1271.0</ele><time>2026-04-26T09:53:52.868Z</time></trkpt><trkpt lat="44.4035858" lon="9.7449347"><ele>1272.2</ele><time>2026-04-26T09:53:53.868Z</time></trkpt><trkpt lat="44.403477" lon="9.7449578"><ele>1273.3999999999999</ele><time>2026-04-26T09:53:54.869Z</time></trkpt><trkpt lat="44.4033798" lon="9.7449615"><ele>1274.6</ele><time>2026-04-26T09:53:55.868Z</time></trkpt><trkpt lat="44.4032817" lon="9.7449662"><ele>1275.8</ele><time>2026-04-26T09:53:56.869Z</time></trkpt><trkpt lat="44.4031719" lon="9.7449561"><ele>1277.0</ele><time>2026-04-26T09:53:57.868Z</time></trkpt><trkpt lat="44.4030647" lon="9.7449402"><ele>1277.2</ele><time>2026-04-26T09:53:58.868Z</time></trkpt><trkpt lat="44.4029527" lon="9.7449282"><ele>1277.4</ele><time>2026-04-26T09:53:59.868Z</time></trkpt><trkpt lat="44.402834" lon="9.7449379"><ele>1277.6</ele><time>2026-04-26T09:54:00.868Z</time></trkpt><trkpt lat="44.4027215" lon="9.7449554"><ele>1277.8</ele><time>2026-04-26T09:54:01.869Z</time></trkpt><trkpt lat="44.4026214" lon="9.7449788"><ele>1278.0</ele><time>2026-04-26T09:54:02.869Z</time></trkpt><trkpt lat="44.4025187" lon="9.7450108"><ele>1278.0</ele><time>2026-04-26T09:54:03.868Z</time></trkpt><trkpt lat="44.402421" lon="9.7450363"><ele>1278.0</ele><time>2026-04-26T09:54:04.868Z</time></trkpt><trkpt lat="44.4023245" lon="9.7450598"><ele>1278.0</ele><time>2026-04-26T09:54:05.868Z</time></trkpt><trkpt lat="44.4022191" lon="9.745069"><ele>1278.0</ele><time>2026-04-26T09:54:06.868Z</time></trkpt><trkpt lat="44.4021127" lon="9.7450536"><ele>1278.0</ele><time>2026-04-26T09:54:07.87Z</time></trkpt><trkpt lat="44.4020066" lon="9.745031"><ele>1280.25</ele><time>2026-04-26T09:54:08.868Z</time></trkpt><trkpt lat="44.4018969" lon="9.7449991"><ele>1282.5</ele><time>2026-04-26T09:54:09.869Z</time></trkpt><trkpt lat="44.4017804" lon="9.7449639"><ele>1284.75</ele><time>2026-04-26T09:54:10.869Z</time></trkpt><trkpt lat="44.4016585" lon="9.7449327"><ele>1287.0</ele><time>2026-04-26T09:54:11.868Z</time></trkpt><trkpt lat="44.4015302" lon="9.7449027"><ele>1287.0</ele><time>2026-04-26T09:54:12.868Z</time></trkpt><trkpt lat="44.4013955" lon="9.7448744"><ele>1287.0</ele><time>2026-04-26T09:54:13.868Z</time></trkpt><trkpt lat="44.4012619" lon="9.7448383"><ele>1287.0</ele><time>2026-04-26T09:54:14.869Z</time></trkpt><trkpt lat="44.4011272" lon="9.74481"><ele>1287.0</ele><time>2026-04-26T09:54:15.868Z</time></trkpt><trkpt lat="44.4010017" lon="9.7447808"><ele>1288.6</ele><time>2026-04-26T09:54:16.869Z</time></trkpt><trkpt lat="44.4008844" lon="9.7447563"><ele>1290.1999999999998</ele><time>2026-04-26T09:54:17.869Z</time></trkpt><trkpt lat="44.4007723" lon="9.7447276"><ele>1291.8</ele><time>2026-04-26T09:54:18.868Z</time></trkpt><trkpt lat="44.4006662" lon="9.7447049"><ele>1293.4</ele><time>2026-04-26T09:54:19.868Z</time></trkpt><trkpt lat="44.4005671" lon="9.7447066"><ele>1295.0</ele><time>2026-04-26T09:54:20.868Z</time></trkpt><trkpt lat="44.4004746" lon="9.7447153"><ele>1295.2</ele><time>2026-04-26T09:54:21.869Z</time></trkpt><trkpt lat="44.400384" lon="9.744735"><ele>1295.4</ele><time>2026-04-26T09:54:22.868Z</time></trkpt><trkpt lat="44.4003057" lon="9.7447675"><ele>1295.6</ele><time>2026-04-26T09:54:23.869Z</time></trkpt><trkpt lat="44.4002236" lon="9.7448174"><ele>1295.8</ele><time>2026-04-26T09:54:24.868Z</time></trkpt><trkpt lat="44.4001415" lon="9.7448816"><ele>1296.0</ele><time>2026-04-26T09:54:25.868Z</time></trkpt><trkpt lat="44.4000449" lon="9.744961"><ele>1296.0</ele><time>2026-04-26T09:54:26.868Z</time></trkpt><trkpt lat="44.3999517" lon="9.7450459"><ele>1296.0</ele><time>2026-04-26T09:54:27.869Z</time></trkpt><trkpt lat="44.3998545" lon="9.7451376"><ele>1296.0</ele><time>2026-04-26T09:54:28.868Z</time></trkpt><trkpt lat="44.3997416" lon="9.7452394"><ele>1296.0</ele><time>2026-04-26T09:54:29.868Z</time></trkpt><trkpt lat="44.3996322" lon="9.7453384"><ele>1298.75</ele><time>2026-04-26T09:54:30.868Z</time></trkpt><trkpt lat="44.3995319" lon="9.7454151"><ele>1301.5</ele><time>2026-04-26T09:54:31.869Z</time></trkpt><trkpt lat="44.3994249" lon="9.7454942"><ele>1304.25</ele><time>2026-04-26T09:54:32.868Z</time></trkpt><trkpt lat="44.3993183" lon="9.7455642"><ele>1307.0</ele><time>2026-04-26T09:54:33.868Z</time></trkpt><trkpt lat="44.3992112" lon="9.7456167"><ele>1307.0</ele><time>2026-04-26T09:54:34.868Z</time></trkpt><trkpt lat="44.3990964" lon="9.7456735"><ele>1307.0</ele><time>2026-04-26T09:54:35.868Z</time></trkpt><trkpt lat="44.3989991" lon="9.7457369"><ele>1307.0</ele><time>2026-04-26T09:54:36.868Z</time></trkpt><trkpt lat="44.3989037" lon="9.7458079"><ele>1307.0</ele><time>2026-04-26T09:54:37.869Z</time></trkpt><trkpt lat="44.3988156" lon="9.7458764"><ele>1307.0</ele><time>2026-04-26T09:54:38.868Z</time></trkpt><trkpt lat="44.3987435" lon="9.7459403"><ele>1306.1666666666667</ele><time>2026-04-26T09:54:39.868Z</time></trkpt><trkpt lat="44.3986683" lon="9.7460093"><ele>1305.3333333333335</ele><time>2026-04-26T09:54:40.868Z</time></trkpt><trkpt lat="44.3985907" lon="9.74607"><ele>1304.5</ele><time>2026-04-26T09:54:41.868Z</time></trkpt><trkpt lat="44.3985139" lon="9.746126"><ele>1303.6666666666667</ele><time>2026-04-26T09:54:42.868Z</time></trkpt><trkpt lat="44.3984402" lon="9.7461774"><ele>1302.8333333333333</ele><time>2026-04-26T09:54:43.869Z</time></trkpt><trkpt lat="44.3983639" lon="9.7462321"><ele>1302.0</ele><time>2026-04-26T09:54:44.868Z</time></trkpt><trkpt lat="44.3982801" lon="9.7462973"><ele>1304.0</ele><time>2026-04-26T09:54:45.869Z</time></trkpt><trkpt lat="44.398196" lon="9.7463661"><ele>1306.0</ele><time>2026-04-26T09:54:46.868Z</time></trkpt><trkpt lat="44.3980998" lon="9.7464499"><ele>1308.0</ele><time>2026-04-26T09:54:47.869Z</time></trkpt><trkpt lat="44.3980216" lon="9.7465381"><ele>1310.0</ele><time>2026-04-26T09:54:48.868Z</time></trkpt><trkpt lat="44.3979455" lon="9.7466462"><ele>1312.0</ele><time>2026-04-26T09:54:49.869Z</time></trkpt><trkpt lat="44.3978765" lon="9.7467685"><ele>1313.0</ele><time>2026-04-26T09:54:50.868Z</time></trkpt><trkpt lat="44.3978011" lon="9.7469041"><ele>1314.0</ele><time>2026-04-26T09:54:51.87Z</time></trkpt><trkpt lat="44.3977202" lon="9.7470437"><ele>1315.0</ele><time>2026-04-26T09:54:52.868Z</time></trkpt><trkpt lat="44.3976398" lon="9.7471831"><ele>1316.0</ele><time>2026-04-26T09:54:53.869Z</time></trkpt><trkpt lat="44.3975655" lon="9.7473245"><ele>1316.0</ele><time>2026-04-26T09:54:54.869Z</time></trkpt><trkpt lat="44.3974897" lon="9.7474666"><ele>1316.0</ele><time>2026-04-26T09:54:55.869Z</time></trkpt><trkpt lat="44.3974177" lon="9.7476177"><ele>1316.0</ele><time>2026-04-26T09:54:56.869Z</time></trkpt><trkpt lat="44.3973449" lon="9.7477656"><ele>1316.0</ele><time>2026-04-26T09:54:57.868Z</time></trkpt><trkpt lat="44.3972793" lon="9.7479212"><ele>1316.75</ele><time>2026-04-26T09:54:58.869Z</time></trkpt><trkpt lat="44.3972107" lon="9.7480763"><ele>1317.5</ele><time>2026-04-26T09:54:59.87Z</time></trkpt><trkpt lat="44.3971424" lon="9.7482345"><ele>1318.25</ele><time>2026-04-26T09:55:00.868Z</time></trkpt><trkpt lat="44.3970784" lon="9.7483782"><ele>1319.0</ele><time>2026-04-26T09:55:01.869Z</time></trkpt><trkpt lat="44.3970031" lon="9.7485125"><ele>1322.25</ele><time>2026-04-26T09:55:02.868Z</time></trkpt><trkpt lat="44.3969248" lon="9.7486383"><ele>1325.5</ele><time>2026-04-26T09:55:03.869Z</time></trkpt><trkpt lat="44.3968442" lon="9.7487437"><ele>1328.75</ele><time>2026-04-26T09:55:04.868Z</time></trkpt><trkpt lat="44.3967524" lon="9.7488562"><ele>1332.0</ele><time>2026-04-26T09:55:05.868Z</time></trkpt><trkpt lat="44.3966569" lon="9.7489659"><ele>1332.0</ele><time>2026-04-26T09:55:06.869Z</time></trkpt><trkpt lat="44.3965679" lon="9.7490706"><ele>1332.0</ele><time>2026-04-26T09:55:07.868Z</time></trkpt><trkpt lat="44.3964811" lon="9.7491734"><ele>1332.0</ele><time>2026-04-26T09:55:08.869Z</time></trkpt><trkpt lat="44.3963924" lon="9.7492691"><ele>1332.0</ele><time>2026-04-26T09:55:09.868Z</time></trkpt><trkpt lat="44.3963061" lon="9.7493636"><ele>1333.5</ele><time>2026-04-26T09:55:10.869Z</time></trkpt><trkpt lat="44.3962081" lon="9.7494816"><ele>1335.0</ele><time>2026-04-26T09:55:11.868Z</time></trkpt><trkpt lat="44.3961077" lon="9.7496016"><ele>1336.5</ele><time>2026-04-26T09:55:12.869Z</time></trkpt><trkpt lat="44.39601" lon="9.7497236"><ele>1338.0</ele><time>2026-04-26T09:55:13.868Z</time></trkpt><trkpt lat="44.3959117" lon="9.7498312"><ele>1338.0</ele><time>2026-04-26T09:55:14.869Z</time></trkpt><trkpt lat="44.3958249" lon="9.7499168"><ele>1338.0</ele><time>2026-04-26T09:55:15.87Z</time></trkpt><trkpt lat="44.3957461" lon="9.7500026"><ele>1338.0</ele><time>2026-04-26T09:55:16.869Z</time></trkpt><trkpt lat="44.3956741" lon="9.7500966"><ele>1338.0</ele><time>2026-04-26T09:55:17.868Z</time></trkpt><trkpt lat="44.3956121" lon="9.7501997"><ele>1338.0</ele><time>2026-04-26T09:55:18.868Z</time></trkpt><trkpt lat="44.3955404" lon="9.7503109"><ele>1341.3333333333333</ele><time>2026-04-26T09:55:19.869Z</time></trkpt><trkpt lat="44.3954723" lon="9.7504022"><ele>1344.6666666666667</ele><time>2026-04-26T09:55:20.868Z</time></trkpt><trkpt lat="44.3953941" lon="9.7504777"><ele>1348.0</ele><time>2026-04-26T09:55:21.868Z</time></trkpt><trkpt lat="44.3953203" lon="9.7505459"><ele>1351.3333333333335</ele><time>2026-04-26T09:55:22.869Z</time></trkpt><trkpt lat="44.3952524" lon="9.7506034"><ele>1354.6666666666667</ele><time>2026-04-26T09:55:23.869Z</time></trkpt><trkpt lat="44.3951721" lon="9.7506448"><ele>1358.0</ele><time>2026-04-26T09:55:24.868Z</time></trkpt><trkpt lat="44.3950847" lon="9.750673"><ele>1358.0</ele><time>2026-04-26T09:55:25.868Z</time></trkpt><trkpt lat="44.3949797" lon="9.7506931"><ele>1358.0</ele><time>2026-04-26T09:55:26.868Z</time></trkpt><trkpt lat="44.394876" lon="9.7507192"><ele>1358.0</ele><time>2026-04-26T09:55:27.868Z</time></trkpt><trkpt lat="44.3947511" lon="9.7507279"><ele>1358.0</ele><time>2026-04-26T09:55:28.869Z</time></trkpt><trkpt lat="44.3946232" lon="9.7507382"><ele>1361.0</ele><time>2026-04-26T09:55:29.868Z</time></trkpt><trkpt lat="44.3944894" lon="9.7507529"><ele>1364.0</ele><time>2026-04-26T09:55:30.868Z</time></trkpt><trkpt lat="44.3943211" lon="9.7507798"><ele>1367.0</ele><time>2026-04-26T09:55:31.869Z</time></trkpt><trkpt lat="44.3941688" lon="9.7507673"><ele>1367.0</ele><time>2026-04-26T09:55:32.869Z</time></trkpt><trkpt lat="44.3940093" lon="9.7508123"><ele>1367.0</ele><time>2026-04-26T09:55:33.868Z</time></trkpt><trkpt lat="44.393861" lon="9.7508303"><ele>1367.0</ele><time>2026-04-26T09:55:34.869Z</time></trkpt><trkpt lat="44.3937155" lon="9.7508578"><ele>1368.5</ele><time>2026-04-26T09:55:35.868Z</time></trkpt><trkpt lat="44.3935775" lon="9.750883"><ele>1370.0</ele><time>2026-04-26T09:55:36.868Z</time></trkpt><trkpt lat="44.393444" lon="9.7509155"><ele>1371.5</ele><time>2026-04-26T09:55:37.868Z</time></trkpt><trkpt lat="44.3933232" lon="9.7509493"><ele>1373.0</ele><time>2026-04-26T09:55:38.868Z</time></trkpt><trkpt lat="44.3932009" lon="9.7509977"><ele>1378.25</ele><time>2026-04-26T09:55:39.869Z</time></trkpt><trkpt lat="44.3930825" lon="9.7510506"><ele>1383.5</ele><time>2026-04-26T09:55:40.868Z</time></trkpt><trkpt lat="44.3929633" lon="9.7511175"><ele>1388.75</ele><time>2026-04-26T09:55:41.868Z</time></trkpt><trkpt lat="44.3928391" lon="9.7511859"><ele>1394.0</ele><time>2026-04-26T09:55:42.868Z</time></trkpt><trkpt lat="44.3927179" lon="9.751253"><ele>1394.5</ele><time>2026-04-26T09:55:43.868Z</time></trkpt><trkpt lat="44.3925948" lon="9.7513104"><ele>1395.0</ele><time>2026-04-26T09:55:44.868Z</time></trkpt><trkpt lat="44.3924599" lon="9.7513717"><ele>1395.5</ele><time>2026-04-26T09:55:45.868Z</time></trkpt><trkpt lat="44.3923148" lon="9.7514535"><ele>1396.0</ele><time>2026-04-26T09:55:46.868Z</time></trkpt><trkpt lat="44.3921722" lon="9.7515387"><ele>1394.3333333333333</ele><time>2026-04-26T09:55:47.869Z</time></trkpt><trkpt lat="44.3920315" lon="9.7516136"><ele>1392.6666666666667</ele><time>2026-04-26T09:55:48.868Z</time></trkpt><trkpt lat="44.3918894" lon="9.7516977"><ele>1391.0</ele><time>2026-04-26T09:55:49.868Z</time></trkpt><trkpt lat="44.3917562" lon="9.751778"><ele>1391.0</ele><time>2026-04-26T09:55:50.868Z</time></trkpt><trkpt lat="44.3916365" lon="9.7518628"><ele>1391.0</ele><time>2026-04-26T09:55:51.869Z</time></trkpt><trkpt lat="44.391531" lon="9.7519029"><ele>1391.0</ele><time>2026-04-26T09:55:52.869Z</time></trkpt><trkpt lat="44.3914107" lon="9.7519437"><ele>1391.0</ele><time>2026-04-26T09:55:53.868Z</time></trkpt><trkpt lat="44.3912852" lon="9.7519953"><ele>1394.5</ele><time>2026-04-26T09:55:54.868Z</time></trkpt><trkpt lat="44.3911643" lon="9.7520415"><ele>1398.0</ele><time>2026-04-26T09:55:55.868Z</time></trkpt><trkpt lat="44.3910414" lon="9.7520649"><ele>1401.5</ele><time>2026-04-26T09:55:56.868Z</time></trkpt><trkpt lat="44.3909151" lon="9.7520884"><ele>1405.0</ele><time>2026-04-26T09:55:57.869Z</time></trkpt><trkpt lat="44.3907904" lon="9.7521012"><ele>1405.0</ele><time>2026-04-26T09:55:58.868Z</time></trkpt><trkpt lat="44.3906616" lon="9.752121"><ele>1405.0</ele><time>2026-04-26T09:55:59.868Z</time></trkpt><trkpt lat="44.3905312" lon="9.7521323"><ele>1405.0</ele><time>2026-04-26T09:56:00.869Z</time></trkpt><trkpt lat="44.3904036" lon="9.7521621"><ele>1405.0</ele><time>2026-04-26T09:56:01.869Z</time></trkpt><trkpt lat="44.3903041" lon="9.7521624"><ele>1405.2</ele><time>2026-04-26T09:56:02.868Z</time></trkpt><trkpt lat="44.3902049" lon="9.752195"><ele>1405.4</ele><time>2026-04-26T09:56:03.868Z</time></trkpt><trkpt lat="44.3901082" lon="9.7522257"><ele>1405.6</ele><time>2026-04-26T09:56:04.868Z</time></trkpt><trkpt lat="44.3900097" lon="9.7522634"><ele>1405.8</ele><time>2026-04-26T09:56:05.87Z</time></trkpt><trkpt lat="44.3899138" lon="9.7522988"><ele>1406.0</ele><time>2026-04-26T09:56:06.868Z</time></trkpt><trkpt lat="44.3898182" lon="9.7523339"><ele>1406.0</ele><time>2026-04-26T09:56:07.869Z</time></trkpt><trkpt lat="44.3897248" lon="9.7523724"><ele>1406.0</ele><time>2026-04-26T09:56:08.869Z</time></trkpt><trkpt lat="44.389639" lon="9.7523994"><ele>1406.0</ele><time>2026-04-26T09:56:09.869Z</time></trkpt><trkpt lat="44.3895502" lon="9.7524358"><ele>1406.0</ele><time>2026-04-26T09:56:10.868Z</time></trkpt><trkpt lat="44.3894615" lon="9.7524724"><ele>1406.0</ele><time>2026-04-26T09:56:11.868Z</time></trkpt><trkpt lat="44.389381" lon="9.7524949"><ele>1405.0</ele><time>2026-04-26T09:56:12.868Z</time></trkpt><trkpt lat="44.3893009" lon="9.7525161"><ele>1404.0</ele><time>2026-04-26T09:56:13.869Z</time></trkpt><trkpt lat="44.389224" lon="9.7525317"><ele>1403.0</ele><time>2026-04-26T09:56:14.868Z</time></trkpt><trkpt lat="44.3891504" lon="9.7525533"><ele>1402.0</ele><time>2026-04-26T09:56:15.868Z</time></trkpt><trkpt lat="44.3890876" lon="9.7525776"><ele>1401.0</ele><time>2026-04-26T09:56:16.868Z</time></trkpt><trkpt lat="44.3889859" lon="9.7526191"><ele>1400.0</ele><time>2026-04-26T09:56:18.869Z</time></trkpt><trkpt lat="44.3889005" lon="9.7526605"><ele>1398.3333333333335</ele><time>2026-04-26T09:56:20.868Z</time></trkpt><trkpt lat="44.3888171" lon="9.7526745"><ele>1396.6666666666667</ele><time>2026-04-26T09:56:22.868Z</time></trkpt><trkpt lat="44.3887406" lon="9.7527089"><ele>1395.0</ele><time>2026-04-26T09:56:24.87Z</time></trkpt><trkpt lat="44.3886728" lon="9.7527455"><ele>1393.3333333333333</ele><time>2026-04-26T09:56:26.868Z</time></trkpt><trkpt lat="44.3886008" lon="9.7528226"><ele>1391.6666666666665</ele><time>2026-04-26T09:56:29.868Z</time></trkpt><trkpt lat="44.3885216" lon="9.7528917"><ele>1390.0</ele><time>2026-04-26T09:56:32.868Z</time></trkpt><trkpt lat="44.388464" lon="9.752944"><ele>1389.6666666666665</ele><time>2026-04-26T09:56:34.868Z</time></trkpt><trkpt lat="44.3884094" lon="9.7530172"><ele>1389.3333333333333</ele><time>2026-04-26T09:56:36.869Z</time></trkpt><trkpt lat="44.3883662" lon="9.7531031"><ele>1389.0</ele><time>2026-04-26T09:56:38.868Z</time></trkpt><trkpt lat="44.3883347" lon="9.7532064"><ele>1388.6666666666667</ele><time>2026-04-26T09:56:41.868Z</time></trkpt><trkpt lat="44.3883063" lon="9.7533046"><ele>1388.3333333333335</ele><time>2026-04-26T09:56:44.868Z</time></trkpt><trkpt lat="44.3882971" lon="9.753402"><ele>1388.0</ele><time>2026-04-26T09:56:46.868Z</time></trkpt><trkpt lat="44.388272" lon="9.7535242"><ele>1390.0</ele><time>2026-04-26T09:56:48.869Z</time></trkpt><trkpt lat="44.3882478" lon="9.7536699"><ele>1392.0</ele><time>2026-04-26T09:56:50.869Z</time></trkpt><trkpt lat="44.3882308" lon="9.7537548"><ele>1394.0</ele><time>2026-04-26T09:56:51.869Z</time></trkpt><trkpt lat="44.3882076" lon="9.7538454"><ele>1396.0</ele><time>2026-04-26T09:56:52.868Z</time></trkpt><trkpt lat="44.3881813" lon="9.7539369"><ele>1398.0</ele><time>2026-04-26T09:56:53.868Z</time></trkpt><trkpt lat="44.3881478" lon="9.7540291"><ele>1400.0</ele><time>2026-04-26T09:56:54.869Z</time></trkpt><trkpt lat="44.3881163" lon="9.7541296"><ele>1400.0</ele><time>2026-04-26T09:56:55.868Z</time></trkpt><trkpt lat="44.3880839" lon="9.7542368"><ele>1400.0</ele><time>2026-04-26T09:56:56.869Z</time></trkpt><trkpt lat="44.3880492" lon="9.7543354"><ele>1400.0</ele><time>2026-04-26T09:56:57.868Z</time></trkpt><trkpt lat="44.3880071" lon="9.7544399"><ele>1400.0</ele><time>2026-04-26T09:56:58.869Z</time></trkpt><trkpt lat="44.387963" lon="9.754543"><ele>1400.0</ele><time>2026-04-26T09:56:59.869Z</time></trkpt><trkpt lat="44.3879133" lon="9.7546441"><ele>1400.0</ele><time>2026-04-26T09:57:00.869Z</time></trkpt><trkpt lat="44.3878576" lon="9.7547386"><ele>1397.0</ele><time>2026-04-26T09:57:01.868Z</time></trkpt><trkpt lat="44.3877951" lon="9.7548323"><ele>1394.0</ele><time>2026-04-26T09:57:02.869Z</time></trkpt><trkpt lat="44.3877269" lon="9.7549278"><ele>1391.0</ele><time>2026-04-26T09:57:03.868Z</time></trkpt><trkpt lat="44.3876545" lon="9.7550211"><ele>1388.0</ele><time>2026-04-26T09:57:04.869Z</time></trkpt><trkpt lat="44.3875758" lon="9.7551195"><ele>1385.0</ele><time>2026-04-26T09:57:05.868Z</time></trkpt><trkpt lat="44.3874963" lon="9.7552147"><ele>1385.0</ele><time>2026-04-26T09:57:06.868Z</time></trkpt><trkpt lat="44.3874184" lon="9.7553206"><ele>1385.0</ele><time>2026-04-26T09:57:07.869Z</time></trkpt><trkpt lat="44.3873461" lon="9.7554316"><ele>1385.0</ele><time>2026-04-26T09:57:08.868Z</time></trkpt><trkpt lat="44.3872783" lon="9.7555652"><ele>1385.0</ele><time>2026-04-26T09:57:09.868Z</time></trkpt><trkpt lat="44.3872235" lon="9.7557125"><ele>1385.0</ele><time>2026-04-26T09:57:10.868Z</time></trkpt><trkpt lat="44.3871837" lon="9.7558688"><ele>1385.0</ele><time>2026-04-26T09:57:11.869Z</time></trkpt><trkpt lat="44.3871573" lon="9.75603"><ele>1385.0</ele><time>2026-04-26T09:57:12.868Z</time></trkpt><trkpt lat="44.3871319" lon="9.7561828"><ele>1385.0</ele><time>2026-04-26T09:57:13.869Z</time></trkpt><trkpt lat="44.3870904" lon="9.7563241"><ele>1380.2</ele><time>2026-04-26T09:57:14.869Z</time></trkpt><trkpt lat="44.3870244" lon="9.7564441"><ele>1375.4</ele><time>2026-04-26T09:57:15.868Z</time></trkpt><trkpt lat="44.3869488" lon="9.7565471"><ele>1370.6</ele><time>2026-04-26T09:57:16.868Z</time></trkpt><trkpt lat="44.3868659" lon="9.7566337"><ele>1365.8</ele><time>2026-04-26T09:57:17.868Z</time></trkpt><trkpt lat="44.386767" lon="9.7567012"><ele>1361.0</ele><time>2026-04-26T09:57:18.869Z</time></trkpt><trkpt lat="44.3866564" lon="9.7567363"><ele>1361.0</ele><time>2026-04-26T09:57:19.868Z</time></trkpt><trkpt lat="44.386535" lon="9.7567404"><ele>1361.0</ele><time>2026-04-26T09:57:20.868Z</time></trkpt><trkpt lat="44.3864122" lon="9.7567356"><ele>1361.0</ele><time>2026-04-26T09:57:21.869Z</time></trkpt><trkpt lat="44.3862967" lon="9.7567375"><ele>1361.0</ele><time>2026-04-26T09:57:22.869Z</time></trkpt><trkpt lat="44.3861767" lon="9.7567527"><ele>1358.6</ele><time>2026-04-26T09:57:23.869Z</time></trkpt><trkpt lat="44.3860792" lon="9.7568069"><ele>1356.1999999999998</ele><time>2026-04-26T09:57:24.868Z</time></trkpt><trkpt lat="44.3859893" lon="9.7568875"><ele>1353.8000000000002</ele><time>2026-04-26T09:57:25.869Z</time></trkpt><trkpt lat="44.3859046" lon="9.7569646"><ele>1351.4</ele><time>2026-04-26T09:57:26.868Z</time></trkpt><trkpt lat="44.3858851" lon="9.7571243"><ele>1349.0</ele><time>2026-04-26T09:57:27.869Z</time></trkpt><trkpt lat="44.3858542" lon="9.7572702"><ele>1349.0</ele><time>2026-04-26T09:57:28.869Z</time></trkpt><trkpt lat="44.3858207" lon="9.7574103"><ele>1349.0</ele><time>2026-04-26T09:57:29.868Z</time></trkpt><trkpt lat="44.3857911" lon="9.757534"><ele>1349.0</ele><time>2026-04-26T09:57:30.869Z</time></trkpt><trkpt lat="44.3857424" lon="9.757624"><ele>1349.0</ele><time>2026-04-26T09:57:31.868Z</time></trkpt><trkpt lat="44.3856718" lon="9.7576579"><ele>1349.0</ele><time>2026-04-26T09:57:32.868Z</time></trkpt><trkpt lat="44.3856072" lon="9.7576227"><ele>1349.0</ele><time>2026-04-26T09:57:33.868Z</time></trkpt><trkpt lat="44.3855765" lon="9.757534"><ele>1349.0</ele><time>2026-04-26T09:57:34.87Z</time></trkpt><trkpt lat="44.3855721" lon="9.7574148"><ele>1349.0</ele><time>2026-04-26T09:57:35.869Z</time></trkpt><trkpt lat="44.3855862" lon="9.7572911"><ele>1349.0</ele><time>2026-04-26T09:57:36.868Z</time></trkpt><trkpt lat="44.3855939" lon="9.7571818"><ele>1349.0</ele><time>2026-04-26T09:57:37.868Z</time></trkpt><trkpt lat="44.3855706" lon="9.7570889"><ele>1349.0</ele><time>2026-04-26T09:57:38.868Z</time></trkpt><trkpt lat="44.3854597" lon="9.7570473"><ele>1349.0</ele><time>2026-04-26T09:57:40.868Z</time></trkpt><trkpt lat="44.3853463" lon="9.757115"><ele>1342.75</ele><time>2026-04-26T09:57:42.868Z</time></trkpt><trkpt lat="44.3852905" lon="9.7572046"><ele>1336.5</ele><time>2026-04-26T09:57:43.87Z</time></trkpt><trkpt lat="44.3852374" lon="9.7573334"><ele>1330.25</ele><time>2026-04-26T09:57:44.868Z</time></trkpt><trkpt lat="44.3852245" lon="9.757678"><ele>1324.0</ele><time>2026-04-26T09:57:45.868Z</time></trkpt><trkpt lat="44.3851488" lon="9.7578365"><ele>1324.0</ele><time>2026-04-26T09:57:46.868Z</time></trkpt><trkpt lat="44.3850566" lon="9.7580019"><ele>1324.0</ele><time>2026-04-26T09:57:47.868Z</time></trkpt><trkpt lat="44.384984" lon="9.7581395"><ele>1324.0</ele><time>2026-04-26T09:57:48.869Z</time></trkpt><trkpt lat="44.384921" lon="9.7582653"><ele>1324.0</ele><time>2026-04-26T09:57:49.869Z</time></trkpt><trkpt lat="44.3848478" lon="9.7583984"><ele>1324.75</ele><time>2026-04-26T09:57:50.868Z</time></trkpt><trkpt lat="44.3848302" lon="9.7585583"><ele>1325.5</ele><time>2026-04-26T09:57:51.869Z</time></trkpt><trkpt lat="44.3847956" lon="9.7587091"><ele>1326.25</ele><time>2026-04-26T09:57:52.868Z</time></trkpt><trkpt lat="44.3848265" lon="9.7588806"><ele>1327.0</ele><time>2026-04-26T09:57:53.868Z</time></trkpt><trkpt lat="44.3847929" lon="9.7590273"><ele>1327.0</ele><time>2026-04-26T09:57:54.868Z</time></trkpt><trkpt lat="44.3847377" lon="9.7591476"><ele>1327.0</ele><time>2026-04-26T09:57:55.868Z</time></trkpt><trkpt lat="44.3846672" lon="9.7592867"><ele>1327.0</ele><time>2026-04-26T09:57:56.868Z</time></trkpt><trkpt lat="44.3845917" lon="9.7594453"><ele>1327.0</ele><time>2026-04-26T09:57:57.868Z</time></trkpt><trkpt lat="44.3845111" lon="9.7595839"><ele>1322.5</ele><time>2026-04-26T09:57:58.868Z</time></trkpt><trkpt lat="44.3844182" lon="9.7597271"><ele>1318.0</ele><time>2026-04-26T09:57:59.868Z</time></trkpt><trkpt lat="44.3842967" lon="9.7598538"><ele>1313.5</ele><time>2026-04-26T09:58:00.868Z</time></trkpt><trkpt lat="44.3841668" lon="9.7599581"><ele>1309.0</ele><time>2026-04-26T09:58:01.868Z</time></trkpt><trkpt lat="44.3840458" lon="9.7600587"><ele>1309.0</ele><time>2026-04-26T09:58:02.868Z</time></trkpt><trkpt lat="44.383937" lon="9.7601621"><ele>1309.0</ele><time>2026-04-26T09:58:03.867Z</time></trkpt><trkpt lat="44.383836" lon="9.7602773"><ele>1309.0</ele><time>2026-04-26T09:58:04.868Z</time></trkpt><trkpt lat="44.3837741" lon="9.7603851"><ele>1309.0</ele><time>2026-04-26T09:58:05.868Z</time></trkpt><trkpt lat="44.3837503" lon="9.7604753"><ele>1309.0</ele><time>2026-04-26T09:58:06.867Z</time></trkpt><trkpt lat="44.3837424" lon="9.7606145"><ele>1305.2</ele><time>2026-04-26T09:58:07.867Z</time></trkpt><trkpt lat="44.3837066" lon="9.7607099"><ele>1301.4</ele><time>2026-04-26T09:58:08.867Z</time></trkpt><trkpt lat="44.3836496" lon="9.7607484"><ele>1297.6</ele><time>2026-04-26T09:58:09.867Z</time></trkpt><trkpt lat="44.3835244" lon="9.760627"><ele>1293.8</ele><time>2026-04-26T09:58:11.869Z</time></trkpt><trkpt lat="44.383459" lon="9.7604892"><ele>1290.0</ele><time>2026-04-26T09:58:12.868Z</time></trkpt><trkpt lat="44.3833918" lon="9.7603577"><ele>1290.0</ele><time>2026-04-26T09:58:13.868Z</time></trkpt><trkpt lat="44.3833215" lon="9.7602547"><ele>1290.0</ele><time>2026-04-26T09:58:14.868Z</time></trkpt><trkpt lat="44.3832305" lon="9.7601745"><ele>1290.0</ele><time>2026-04-26T09:58:15.868Z</time></trkpt><trkpt lat="44.3831339" lon="9.7601103"><ele>1290.0</ele><time>2026-04-26T09:58:16.868Z</time></trkpt><trkpt lat="44.3830629" lon="9.7601021"><ele>1290.0</ele><time>2026-04-26T09:58:17.867Z</time></trkpt><trkpt lat="44.3829891" lon="9.760118"><ele>1286.8</ele><time>2026-04-26T09:58:18.867Z</time></trkpt><trkpt lat="44.3829177" lon="9.7601582"><ele>1283.6</ele><time>2026-04-26T09:58:19.867Z</time></trkpt><trkpt lat="44.3828814" lon="9.7602336"><ele>1280.4</ele><time>2026-04-26T09:58:20.867Z</time></trkpt><trkpt lat="44.3829155" lon="9.760512"><ele>1277.2</ele><time>2026-04-26T09:58:22.868Z</time></trkpt><trkpt lat="44.3829345" lon="9.7606501"><ele>1274.0</ele><time>2026-04-26T09:58:23.867Z</time></trkpt><trkpt lat="44.3829441" lon="9.76079"><ele>1273.6000000000001</ele><time>2026-04-26T09:58:24.867Z</time></trkpt><trkpt lat="44.382931" lon="9.7609448"><ele>1273.2</ele><time>2026-04-26T09:58:25.867Z</time></trkpt><trkpt lat="44.3828863" lon="9.7610788"><ele>1272.8000000000002</ele><time>2026-04-26T09:58:26.867Z</time></trkpt><trkpt lat="44.3828106" lon="9.7612023"><ele>1272.4</ele><time>2026-04-26T09:58:27.867Z</time></trkpt><trkpt lat="44.3827266" lon="9.7612927"><ele>1272.0</ele><time>2026-04-26T09:58:28.867Z</time></trkpt><trkpt lat="44.3826414" lon="9.7613677"><ele>1273.2</ele><time>2026-04-26T09:58:29.867Z</time></trkpt><trkpt lat="44.3825503" lon="9.7614276"><ele>1274.4</ele><time>2026-04-26T09:58:30.867Z</time></trkpt><trkpt lat="44.3824509" lon="9.7614892"><ele>1275.6</ele><time>2026-04-26T09:58:31.867Z</time></trkpt><trkpt lat="44.3823737" lon="9.7615093"><ele>1276.8</ele><time>2026-04-26T09:58:32.868Z</time></trkpt><trkpt lat="44.3822929" lon="9.761552"><ele>1278.0</ele><time>2026-04-26T09:58:33.867Z</time></trkpt><trkpt lat="44.3822168" lon="9.7616011"><ele>1271.6666666666667</ele><time>2026-04-26T09:58:34.867Z</time></trkpt><trkpt lat="44.3821562" lon="9.7616916"><ele>1265.3333333333333</ele><time>2026-04-26T09:58:35.867Z</time></trkpt><trkpt lat="44.3821124" lon="9.7617885"><ele>1259.0</ele><time>2026-04-26T09:58:36.868Z</time></trkpt><trkpt lat="44.3820723" lon="9.7619062"><ele>1252.6666666666665</ele><time>2026-04-26T09:58:37.867Z</time></trkpt><trkpt lat="44.3820453" lon="9.7620283"><ele>1246.3333333333333</ele><time>2026-04-26T09:58:38.867Z</time></trkpt><trkpt lat="44.3820167" lon="9.7621502"><ele>1240.0</ele><time>2026-04-26T09:58:39.868Z</time></trkpt><trkpt lat="44.382003" lon="9.7622738"><ele>1238.6</ele><time>2026-04-26T09:58:40.867Z</time></trkpt><trkpt lat="44.3820023" lon="9.7625219"><ele>1237.2</ele><time>2026-04-26T09:58:42.867Z</time></trkpt><trkpt lat="44.382013" lon="9.7626392"><ele>1235.8</ele><time>2026-04-26T09:58:43.867Z</time></trkpt><trkpt lat="44.3820233" lon="9.7627588"><ele>1234.4</ele><time>2026-04-26T09:58:44.867Z</time></trkpt><trkpt lat="44.3820347" lon="9.7628747"><ele>1233.0</ele><time>2026-04-26T09:58:45.868Z</time></trkpt><trkpt lat="44.3820348" lon="9.7629883"><ele>1233.0</ele><time>2026-04-26T09:58:46.867Z</time></trkpt><trkpt lat="44.3820258" lon="9.7631021"><ele>1233.0</ele><time>2026-04-26T09:58:47.867Z</time></trkpt><trkpt lat="44.3820125" lon="9.763221"><ele>1233.0</ele><time>2026-04-26T09:58:48.867Z</time></trkpt><trkpt lat="44.3819911" lon="9.7633242"><ele>1233.0</ele><time>2026-04-26T09:58:49.867Z</time></trkpt><trkpt lat="44.3819607" lon="9.7634618"><ele>1233.0</ele><time>2026-04-26T09:58:51.868Z</time></trkpt><trkpt lat="44.3819877" lon="9.7635594"><ele>1233.0</ele><time>2026-04-26T09:59:01.867Z</time></trkpt><trkpt lat="44.3819999" lon="9.7634254"><ele>1233.0</ele><time>2026-04-26T09:59:05.867Z</time></trkpt><trkpt lat="44.3820274" lon="9.7632461"><ele>1233.0</ele><time>2026-04-26T09:59:07.868Z</time></trkpt><trkpt lat="44.3820616" lon="9.7631314"><ele>1233.0</ele><time>2026-04-26T09:59:09.868Z</time></trkpt><trkpt lat="44.3820705" lon="9.7630114"><ele>1233.0</ele><time>2026-04-26T09:59:12.868Z</time></trkpt><trkpt lat="44.3820624" lon="9.7628517"><ele>1233.0</ele><time>2026-04-26T09:59:14.868Z</time></trkpt><trkpt lat="44.3820536" lon="9.762756"><ele>1233.0</ele><time>2026-04-26T09:59:15.869Z</time></trkpt><trkpt lat="44.3820407" lon="9.7626612"><ele>1233.0</ele><time>2026-04-26T09:59:16.867Z</time></trkpt><trkpt lat="44.3820325" lon="9.7625642"><ele>1233.0</ele><time>2026-04-26T09:59:17.867Z</time></trkpt><trkpt lat="44.382028" lon="9.7624619"><ele>1233.0</ele><time>2026-04-26T09:59:18.867Z</time></trkpt><trkpt lat="44.3820336" lon="9.7623637"><ele>1233.0</ele><time>2026-04-26T09:59:19.867Z</time></trkpt><trkpt lat="44.3820408" lon="9.7622705"><ele>1233.0</ele><time>2026-04-26T09:59:20.867Z</time></trkpt><trkpt lat="44.3820521" lon="9.7621765"><ele>1233.0</ele><time>2026-04-26T09:59:21.868Z</time></trkpt><trkpt lat="44.3820773" lon="9.7620237"><ele>1233.0</ele><time>2026-04-26T09:59:23.867Z</time></trkpt><trkpt lat="44.382107" lon="9.7618843"><ele>1233.0</ele><time>2026-04-26T09:59:25.868Z</time></trkpt><trkpt lat="44.3821518" lon="9.7617451"><ele>1233.0</ele><time>2026-04-26T09:59:27.867Z</time></trkpt><trkpt lat="44.382219" lon="9.761619"><ele>1233.0</ele><time>2026-04-26T09:59:29.868Z</time></trkpt><trkpt lat="44.3823141" lon="9.7615324"><ele>1233.0</ele><time>2026-04-26T09:59:31.868Z</time></trkpt><trkpt lat="44.3824126" lon="9.7614789"><ele>1242.0</ele><time>2026-04-26T09:59:33.868Z</time></trkpt><trkpt lat="44.382486" lon="9.7614833"><ele>1251.0</ele><time>2026-04-26T09:59:35.867Z</time></trkpt><trkpt lat="44.3825073" lon="9.7615804"><ele>1260.0</ele><time>2026-04-26T09:59:38.869Z</time></trkpt><trkpt lat="44.3823692" lon="9.7616842"><ele>1269.0</ele><time>2026-04-26T09:59:55.867Z</time></trkpt><trkpt lat="44.3822613" lon="9.7617565"><ele>1278.0</ele><time>2026-04-26T09:59:57.867Z</time></trkpt><trkpt lat="44.3822009" lon="9.7618968"><ele>1278.6666666666667</ele><time>2026-04-26T09:59:59.867Z</time></trkpt><trkpt lat="44.3821845" lon="9.7619853"><ele>1279.3333333333333</ele><time>2026-04-26T10:00:00.868Z</time></trkpt><trkpt lat="44.3821637" lon="9.7620925"><ele>1280.0</ele><time>2026-04-26T10:00:01.867Z</time></trkpt><trkpt lat="44.3821628" lon="9.7622071"><ele>1280.6666666666665</ele><time>2026-04-26T10:00:02.867Z</time></trkpt><trkpt lat="44.3821621" lon="9.762314"><ele>1281.3333333333333</ele><time>2026-04-26T10:00:03.867Z</time></trkpt><trkpt lat="44.3821716" lon="9.762403"><ele>1282.0</ele><time>2026-04-26T10:00:04.868Z</time></trkpt><trkpt lat="44.3822021" lon="9.7625516"><ele>1282.0</ele><time>2026-04-26T10:00:06.867Z</time></trkpt><trkpt lat="44.382229" lon="9.7626821"><ele>1282.0</ele><time>2026-04-26T10:00:08.869Z</time></trkpt><trkpt lat="44.3822526" lon="9.7628206"><ele>1282.0</ele><time>2026-04-26T10:00:10.867Z</time></trkpt><trkpt lat="44.3822706" lon="9.7629646"><ele>1282.0</ele><time>2026-04-26T10:00:12.867Z</time></trkpt><trkpt lat="44.3822408" lon="9.7631315"><ele>1282.0</ele><time>2026-04-26T10:00:14.867Z</time></trkpt><trkpt lat="44.3821926" lon="9.763293"><ele>1273.8333333333333</ele><time>2026-04-26T10:00:16.867Z</time></trkpt><trkpt lat="44.3821541" lon="9.7634411"><ele>1265.6666666666665</ele><time>2026-04-26T10:00:18.867Z</time></trkpt><trkpt lat="44.3821421" lon="9.7635909"><ele>1257.5</ele><time>2026-04-26T10:00:20.868Z</time></trkpt><trkpt lat="44.3821444" lon="9.7636912"><ele>1249.3333333333333</ele><time>2026-04-26T10:00:21.867Z</time></trkpt><trkpt lat="44.3821459" lon="9.7637944"><ele>1241.1666666666667</ele><time>2026-04-26T10:00:22.868Z</time></trkpt><trkpt lat="44.3821559" lon="9.7638928"><ele>1233.0</ele><time>2026-04-26T10:00:23.867Z</time></trkpt><trkpt lat="44.3821639" lon="9.764072"><ele>1232.5</ele><time>2026-04-26T10:00:25.867Z</time></trkpt><trkpt lat="44.382165" lon="9.7641748"><ele>1232.0</ele><time>2026-04-26T10:00:26.867Z</time></trkpt><trkpt lat="44.3821652" lon="9.7642726"><ele>1231.5</ele><time>2026-04-26T10:00:27.868Z</time></trkpt><trkpt lat="44.3821589" lon="9.7643722"><ele>1231.0</ele><time>2026-04-26T10:00:28.867Z</time></trkpt><trkpt lat="44.3821414" lon="9.7644798"><ele>1230.5</ele><time>2026-04-26T10:00:29.867Z</time></trkpt><trkpt lat="44.3821229" lon="9.7645885"><ele>1230.0</ele><time>2026-04-26T10:00:30.867Z</time></trkpt><trkpt lat="44.3820636" lon="9.764751"><ele>1231.1666666666667</ele><time>2026-04-26T10:00:32.868Z</time></trkpt><trkpt lat="44.3820393" lon="9.7648366"><ele>1232.3333333333333</ele><time>2026-04-26T10:00:33.868Z</time></trkpt><trkpt lat="44.3820154" lon="9.7649253"><ele>1233.5</ele><time>2026-04-26T10:00:34.868Z</time></trkpt><trkpt lat="44.382029" lon="9.7650151"><ele>1234.6666666666665</ele><time>2026-04-26T10:00:35.867Z</time></trkpt><trkpt lat="44.3820136" lon="9.76511"><ele>1235.8333333333333</ele><time>2026-04-26T10:00:36.867Z</time></trkpt><trkpt lat="44.3819592" lon="9.7652941"><ele>1237.0</ele><time>2026-04-26T10:00:38.867Z</time></trkpt><trkpt lat="44.3819246" lon="9.7653883"><ele>1240.0</ele><time>2026-04-26T10:00:39.867Z</time></trkpt><trkpt lat="44.3818655" lon="9.7654369"><ele>1243.0</ele><time>2026-04-26T10:00:40.867Z</time></trkpt><trkpt lat="44.3817975" lon="9.7655674"><ele>1246.0</ele><time>2026-04-26T10:00:42.867Z</time></trkpt><trkpt lat="44.3817399" lon="9.7656309"><ele>1249.0</ele><time>2026-04-26T10:00:43.867Z</time></trkpt><trkpt lat="44.3816488" lon="9.7656365"><ele>1252.0</ele><time>2026-04-26T10:00:44.867Z</time></trkpt><trkpt lat="44.3815251" lon="9.7657043"><ele>1252.0</ele><time>2026-04-26T10:00:46.867Z</time></trkpt><trkpt lat="44.3814497" lon="9.7658169"><ele>1252.0</ele><time>2026-04-26T10:00:48.868Z</time></trkpt><trkpt lat="44.3814042" lon="9.765969"><ele>1252.0</ele><time>2026-04-26T10:00:50.867Z</time></trkpt><trkpt lat="44.3813816" lon="9.7661515"><ele>1252.0</ele><time>2026-04-26T10:00:52.867Z</time></trkpt><trkpt lat="44.381391" lon="9.7662558"><ele>1252.0</ele><time>2026-04-26T10:00:53.867Z</time></trkpt><trkpt lat="44.3813908" lon="9.7663975"><ele>1253.0</ele><time>2026-04-26T10:00:54.867Z</time></trkpt><trkpt lat="44.381446" lon="9.7665427"><ele>1254.0</ele><time>2026-04-26T10:00:55.867Z</time></trkpt><trkpt lat="44.3814641" lon="9.7666586"><ele>1255.0</ele><time>2026-04-26T10:00:56.868Z</time></trkpt><trkpt lat="44.3815014" lon="9.7667747"><ele>1256.0</ele><time>2026-04-26T10:00:57.868Z</time></trkpt><trkpt lat="44.3815404" lon="9.7669313"><ele>1257.0</ele><time>2026-04-26T10:00:59.867Z</time></trkpt><trkpt lat="44.3815777" lon="9.7670647"><ele>1257.0</ele><time>2026-04-26T10:01:00.867Z</time></trkpt><trkpt lat="44.38161" lon="9.767172"><ele>1257.0</ele><time>2026-04-26T10:01:01.868Z</time></trkpt><trkpt lat="44.3816327" lon="9.7672952"><ele>1257.0</ele><time>2026-04-26T10:01:02.867Z</time></trkpt><trkpt lat="44.3816375" lon="9.7674214"><ele>1257.0</ele><time>2026-04-26T10:01:03.868Z</time></trkpt><trkpt lat="44.3816351" lon="9.7675408"><ele>1257.0</ele><time>2026-04-26T10:01:04.867Z</time></trkpt><trkpt lat="44.3816339" lon="9.7676642"><ele>1257.0</ele><time>2026-04-26T10:01:05.867Z</time></trkpt><trkpt lat="44.3816333" lon="9.7677863"><ele>1256.6</ele><time>2026-04-26T10:01:06.867Z</time></trkpt><trkpt lat="44.3816546" lon="9.7678735"><ele>1256.2</ele><time>2026-04-26T10:01:07.868Z</time></trkpt><trkpt lat="44.3816701" lon="9.7679845"><ele>1255.8</ele><time>2026-04-26T10:01:08.867Z</time></trkpt><trkpt lat="44.3817101" lon="9.7681755"><ele>1255.4</ele><time>2026-04-26T10:01:10.867Z</time></trkpt><trkpt lat="44.3817302" lon="9.7683528"><ele>1255.0</ele><time>2026-04-26T10:01:12.869Z</time></trkpt><trkpt lat="44.3817389" lon="9.7684493"><ele>1254.5</ele><time>2026-04-26T10:01:13.868Z</time></trkpt><trkpt lat="44.381739" lon="9.7685984"><ele>1254.0</ele><time>2026-04-26T10:01:14.868Z</time></trkpt><trkpt lat="44.3817398" lon="9.7687122"><ele>1253.5</ele><time>2026-04-26T10:01:15.867Z</time></trkpt><trkpt lat="44.3817493" lon="9.7688347"><ele>1253.0</ele><time>2026-04-26T10:01:16.867Z</time></trkpt><trkpt lat="44.3817404" lon="9.7689629"><ele>1252.5</ele><time>2026-04-26T10:01:17.867Z</time></trkpt><trkpt lat="44.3817547" lon="9.7690717"><ele>1252.0</ele><time>2026-04-26T10:01:18.868Z</time></trkpt><trkpt lat="44.3817733" lon="9.7692178"><ele>1252.0</ele><time>2026-04-26T10:01:19.867Z</time></trkpt><trkpt lat="44.3818546" lon="9.7693387"><ele>1252.0</ele><time>2026-04-26T10:01:20.867Z</time></trkpt><trkpt lat="44.3818835" lon="9.769437"><ele>1252.0</ele><time>2026-04-26T10:01:21.867Z</time></trkpt><trkpt lat="44.3819409" lon="9.7695214"><ele>1252.0</ele><time>2026-04-26T10:01:22.868Z</time></trkpt><trkpt lat="44.3819792" lon="9.76961"><ele>1252.0</ele><time>2026-04-26T10:01:23.868Z</time></trkpt><trkpt lat="44.382015" lon="9.7697048"><ele>1252.0</ele><time>2026-04-26T10:01:24.869Z</time></trkpt><trkpt lat="44.3820537" lon="9.7698009"><ele>1251.4</ele><time>2026-04-26T10:01:25.867Z</time></trkpt><trkpt lat="44.3820594" lon="9.7699166"><ele>1250.8000000000002</ele><time>2026-04-26T10:01:26.867Z</time></trkpt><trkpt lat="44.3820577" lon="9.7700364"><ele>1250.2</ele><time>2026-04-26T10:01:27.867Z</time></trkpt><trkpt lat="44.382045" lon="9.7701584"><ele>1249.6000000000001</ele><time>2026-04-26T10:01:28.868Z</time></trkpt><trkpt lat="44.3820238" lon="9.7702968"><ele>1249.0</ele><time>2026-04-26T10:01:29.868Z</time></trkpt><trkpt lat="44.3819787" lon="9.7704189"><ele>1249.0</ele><time>2026-04-26T10:01:30.867Z</time></trkpt><trkpt lat="44.3819659" lon="9.7705319"><ele>1249.0</ele><time>2026-04-26T10:01:31.867Z</time></trkpt><trkpt lat="44.3819564" lon="9.7707246"><ele>1249.0</ele><time>2026-04-26T10:01:33.868Z</time></trkpt><trkpt lat="44.3819445" lon="9.7708364"><ele>1249.0</ele><time>2026-04-26T10:01:34.868Z</time></trkpt><trkpt lat="44.3819334" lon="9.7709467"><ele>1249.0</ele><time>2026-04-26T10:01:35.868Z</time></trkpt><trkpt lat="44.3819255" lon="9.771056"><ele>1249.0</ele><time>2026-04-26T10:01:36.868Z</time></trkpt><trkpt lat="44.3819173" lon="9.7711625"><ele>1249.0</ele><time>2026-04-26T10:01:37.868Z</time></trkpt><trkpt lat="44.3819152" lon="9.7712576"><ele>1249.0</ele><time>2026-04-26T10:01:38.868Z</time></trkpt><trkpt lat="44.3819622" lon="9.7713987"><ele>1249.0</ele><time>2026-04-26T10:01:40.868Z</time></trkpt><trkpt lat="44.3820124" lon="9.7714572"><ele>1249.0</ele><time>2026-04-26T10:01:41.868Z</time></trkpt><trkpt lat="44.3821098" lon="9.7715512"><ele>1249.0</ele><time>2026-04-26T10:01:43.867Z</time></trkpt><trkpt lat="44.3821762" lon="9.7716764"><ele>1249.0</ele><time>2026-04-26T10:01:45.867Z</time></trkpt><trkpt lat="44.3821863" lon="9.7718245"><ele>1249.0</ele><time>2026-04-26T10:01:47.867Z</time></trkpt><trkpt lat="44.3821782" lon="9.7719188"><ele>1249.0</ele><time>2026-04-26T10:01:48.867Z</time></trkpt><trkpt lat="44.3821629" lon="9.7720275"><ele>1249.0</ele><time>2026-04-26T10:01:49.867Z</time></trkpt><trkpt lat="44.3821518" lon="9.7721368"><ele>1249.0</ele><time>2026-04-26T10:01:50.867Z</time></trkpt><trkpt lat="44.3821333" lon="9.772254"><ele>1249.0</ele><time>2026-04-26T10:01:51.868Z</time></trkpt><trkpt lat="44.3821141" lon="9.7723711"><ele>1249.0</ele><time>2026-04-26T10:01:52.868Z</time></trkpt><trkpt lat="44.3820876" lon="9.7724695"><ele>1249.0</ele><time>2026-04-26T10:01:53.867Z</time></trkpt><trkpt lat="44.3820537" lon="9.7725557"><ele>1249.0</ele><time>2026-04-26T10:01:54.868Z</time></trkpt><trkpt lat="44.3820091" lon="9.7726429"><ele>1249.0</ele><time>2026-04-26T10:01:55.868Z</time></trkpt><trkpt lat="44.3819497" lon="9.7727255"><ele>1249.0</ele><time>2026-04-26T10:01:56.868Z</time></trkpt><trkpt lat="44.3818833" lon="9.7728169"><ele>1249.0</ele><time>2026-04-26T10:01:57.867Z</time></trkpt><trkpt lat="44.3818171" lon="9.7729102"><ele>1249.2</ele><time>2026-04-26T10:01:58.867Z</time></trkpt><trkpt lat="44.3817583" lon="9.7729853"><ele>1249.4</ele><time>2026-04-26T10:01:59.867Z</time></trkpt><trkpt lat="44.3816815" lon="9.7730581"><ele>1249.6</ele><time>2026-04-26T10:02:00.867Z</time></trkpt><trkpt lat="44.3815956" lon="9.773114"><ele>1249.8</ele><time>2026-04-26T10:02:01.867Z</time></trkpt><trkpt lat="44.3815028" lon="9.773164"><ele>1250.0</ele><time>2026-04-26T10:02:02.868Z</time></trkpt><trkpt lat="44.3814138" lon="9.7731947"><ele>1248.8333333333335</ele><time>2026-04-26T10:02:03.867Z</time></trkpt><trkpt lat="44.3813355" lon="9.7732218"><ele>1247.6666666666667</ele><time>2026-04-26T10:02:04.867Z</time></trkpt><trkpt lat="44.3812644" lon="9.7732444"><ele>1246.5</ele><time>2026-04-26T10:02:05.868Z</time></trkpt><trkpt lat="44.381199" lon="9.7732269"><ele>1245.3333333333333</ele><time>2026-04-26T10:02:06.868Z</time></trkpt><trkpt lat="44.3811248" lon="9.7732215"><ele>1244.1666666666665</ele><time>2026-04-26T10:02:07.867Z</time></trkpt><trkpt lat="44.3810474" lon="9.7732048"><ele>1243.0</ele><time>2026-04-26T10:02:08.867Z</time></trkpt><trkpt lat="44.3809632" lon="9.7731826"><ele>1243.0000000000002</ele><time>2026-04-26T10:02:09.867Z</time></trkpt><trkpt lat="44.3808895" lon="9.7731656"><ele>1243.0</ele><time>2026-04-26T10:02:10.867Z</time></trkpt><trkpt lat="44.3808138" lon="9.7731435"><ele>1243.0</ele><time>2026-04-26T10:02:11.867Z</time></trkpt><trkpt lat="44.3807468" lon="9.7731258"><ele>1243.0</ele><time>2026-04-26T10:02:12.868Z</time></trkpt><trkpt lat="44.3806807" lon="9.7731249"><ele>1243.0</ele><time>2026-04-26T10:02:13.868Z</time></trkpt><trkpt lat="44.3806132" lon="9.7731265"><ele>1243.0000000000002</ele><time>2026-04-26T10:02:14.868Z</time></trkpt><trkpt lat="44.3805405" lon="9.7731304"><ele>1243.0</ele><time>2026-04-26T10:02:15.867Z</time></trkpt><trkpt lat="44.3804627" lon="9.7731451"><ele>1242.3333333333333</ele><time>2026-04-26T10:02:16.867Z</time></trkpt><trkpt lat="44.3803842" lon="9.7731657"><ele>1241.6666666666665</ele><time>2026-04-26T10:02:17.867Z</time></trkpt><trkpt lat="44.3803048" lon="9.7731862"><ele>1241.0</ele><time>2026-04-26T10:02:18.867Z</time></trkpt><trkpt lat="44.3802381" lon="9.7732164"><ele>1240.3333333333333</ele><time>2026-04-26T10:02:19.868Z</time></trkpt><trkpt lat="44.3801607" lon="9.7732399"><ele>1239.6666666666667</ele><time>2026-04-26T10:02:20.868Z</time></trkpt><trkpt lat="44.3800905" lon="9.7732673"><ele>1239.0</ele><time>2026-04-26T10:02:21.868Z</time></trkpt><trkpt lat="44.3800165" lon="9.7732854"><ele>1239.0</ele><time>2026-04-26T10:02:22.868Z</time></trkpt><trkpt lat="44.3799498" lon="9.7732885"><ele>1239.0</ele><time>2026-04-26T10:02:23.868Z</time></trkpt><trkpt lat="44.3798725" lon="9.7732672"><ele>1239.0</ele><time>2026-04-26T10:02:24.867Z</time></trkpt><trkpt lat="44.3798141" lon="9.7732323"><ele>1239.0</ele><time>2026-04-26T10:02:25.867Z</time></trkpt><trkpt lat="44.3797476" lon="9.7731861"><ele>1239.0</ele><time>2026-04-26T10:02:26.867Z</time></trkpt><trkpt lat="44.3796339" lon="9.7731361"><ele>1239.0</ele><time>2026-04-26T10:02:28.868Z</time></trkpt><trkpt lat="44.3795411" lon="9.7731626"><ele>1236.6000000000001</ele><time>2026-04-26T10:02:30.868Z</time></trkpt><trkpt lat="44.3794469" lon="9.7732186"><ele>1234.2</ele><time>2026-04-26T10:02:32.868Z</time></trkpt><trkpt lat="44.3793503" lon="9.7732058"><ele>1231.8000000000002</ele><time>2026-04-26T10:02:34.867Z</time></trkpt><trkpt lat="44.379276" lon="9.7730991"><ele>1229.4</ele><time>2026-04-26T10:02:36.867Z</time></trkpt><trkpt lat="44.3792227" lon="9.772956"><ele>1227.0</ele><time>2026-04-26T10:02:38.867Z</time></trkpt><trkpt lat="44.3791555" lon="9.7728204"><ele>1227.0</ele><time>2026-04-26T10:02:40.867Z</time></trkpt><trkpt lat="44.3791083" lon="9.7727607"><ele>1227.0</ele><time>2026-04-26T10:02:41.867Z</time></trkpt><trkpt lat="44.3790031" lon="9.7726821"><ele>1227.0</ele><time>2026-04-26T10:02:43.867Z</time></trkpt><trkpt lat="44.3788796" lon="9.7726568"><ele>1227.0</ele><time>2026-04-26T10:02:45.869Z</time></trkpt><trkpt lat="44.3788239" lon="9.7728345"><ele>1227.0</ele><time>2026-04-26T10:02:47.869Z</time></trkpt><trkpt lat="44.378807" lon="9.7730124"><ele>1223.0</ele><time>2026-04-26T10:02:49.867Z</time></trkpt><trkpt lat="44.3787658" lon="9.773159"><ele>1219.0</ele><time>2026-04-26T10:02:51.867Z</time></trkpt><trkpt lat="44.3787091" lon="9.7733051"><ele>1215.0</ele><time>2026-04-26T10:02:53.867Z</time></trkpt><trkpt lat="44.3786231" lon="9.7733983"><ele>1211.0</ele><time>2026-04-26T10:02:55.867Z</time></trkpt><trkpt lat="44.3785052" lon="9.7734105"><ele>1211.0</ele><time>2026-04-26T10:02:57.867Z</time></trkpt><trkpt lat="44.3784309" lon="9.7734031"><ele>1211.0</ele><time>2026-04-26T10:02:58.867Z</time></trkpt><trkpt lat="44.3783587" lon="9.7733983"><ele>1211.0</ele><time>2026-04-26T10:02:59.867Z</time></trkpt><trkpt lat="44.3782928" lon="9.7733868"><ele>1211.0</ele><time>2026-04-26T10:03:00.867Z</time></trkpt><trkpt lat="44.3781776" lon="9.7733707"><ele>1211.0</ele><time>2026-04-26T10:03:02.868Z</time></trkpt><trkpt lat="44.3780634" lon="9.7733183"><ele>1211.0</ele><time>2026-04-26T10:03:04.869Z</time></trkpt><trkpt lat="44.3779516" lon="9.7732429"><ele>1207.6</ele><time>2026-04-26T10:03:06.867Z</time></trkpt><trkpt lat="44.377839" lon="9.7731946"><ele>1204.1999999999998</ele><time>2026-04-26T10:03:08.867Z</time></trkpt><trkpt lat="44.3777299" lon="9.7731734"><ele>1200.8000000000002</ele><time>2026-04-26T10:03:10.867Z</time></trkpt><trkpt lat="44.3776408" lon="9.7731905"><ele>1197.4</ele><time>2026-04-26T10:03:12.867Z</time></trkpt><trkpt lat="44.3775271" lon="9.7732253"><ele>1194.0</ele><time>2026-04-26T10:03:14.868Z</time></trkpt><trkpt lat="44.3774594" lon="9.7732403"><ele>1194.0000000000002</ele><time>2026-04-26T10:03:15.868Z</time></trkpt><trkpt lat="44.3773833" lon="9.7732472"><ele>1194.0</ele><time>2026-04-26T10:03:16.868Z</time></trkpt><trkpt lat="44.377308" lon="9.7732558"><ele>1194.0</ele><time>2026-04-26T10:03:17.868Z</time></trkpt><trkpt lat="44.3772307" lon="9.773268"><ele>1194.0</ele><time>2026-04-26T10:03:18.868Z</time></trkpt><trkpt lat="44.3771606" lon="9.7732827"><ele>1194.0</ele><time>2026-04-26T10:03:19.867Z</time></trkpt><trkpt lat="44.3770922" lon="9.7733002"><ele>1194.0000000000002</ele><time>2026-04-26T10:03:20.867Z</time></trkpt><trkpt lat="44.3770284" lon="9.7733118"><ele>1194.0</ele><time>2026-04-26T10:03:21.867Z</time></trkpt><trkpt lat="44.3769047" lon="9.7733376"><ele>1191.3333333333333</ele><time>2026-04-26T10:03:23.868Z</time></trkpt><trkpt lat="44.3768348" lon="9.7733623"><ele>1188.6666666666667</ele><time>2026-04-26T10:03:24.868Z</time></trkpt><trkpt lat="44.3767546" lon="9.7733871"><ele>1186.0</ele><time>2026-04-26T10:03:25.868Z</time></trkpt><trkpt lat="44.3766804" lon="9.7734133"><ele>1183.3333333333335</ele><time>2026-04-26T10:03:26.868Z</time></trkpt><trkpt lat="44.3766174" lon="9.7734449"><ele>1180.6666666666667</ele><time>2026-04-26T10:03:27.868Z</time></trkpt><trkpt lat="44.3765381" lon="9.7734622"><ele>1178.0</ele><time>2026-04-26T10:03:29.868Z</time></trkpt><trkpt lat="44.376419" lon="9.7734403"><ele>1176.1666666666667</ele><time>2026-04-26T10:03:31.867Z</time></trkpt><trkpt lat="44.3763405" lon="9.7734324"><ele>1174.3333333333335</ele><time>2026-04-26T10:03:32.868Z</time></trkpt><trkpt lat="44.3762707" lon="9.7734293"><ele>1172.5</ele><time>2026-04-26T10:03:33.868Z</time></trkpt><trkpt lat="44.3762078" lon="9.7734186"><ele>1170.6666666666667</ele><time>2026-04-26T10:03:34.868Z</time></trkpt><trkpt lat="44.3760966" lon="9.773381"><ele>1168.8333333333333</ele><time>2026-04-26T10:03:36.867Z</time></trkpt><trkpt lat="44.3759972" lon="9.7733346"><ele>1167.0</ele><time>2026-04-26T10:03:38.867Z</time></trkpt><trkpt lat="44.3758893" lon="9.773273"><ele>1167.0</ele><time>2026-04-26T10:03:40.867Z</time></trkpt><trkpt lat="44.3757849" lon="9.7732214"><ele>1167.0</ele><time>2026-04-26T10:03:42.867Z</time></trkpt><trkpt lat="44.3757128" lon="9.7731936"><ele>1167.0</ele><time>2026-04-26T10:03:43.867Z</time></trkpt><trkpt lat="44.3756226" lon="9.7731857"><ele>1167.0</ele><time>2026-04-26T10:03:44.867Z</time></trkpt><trkpt lat="44.3755277" lon="9.7731682"><ele>1167.0</ele><time>2026-04-26T10:03:45.868Z</time></trkpt><trkpt lat="44.3754317" lon="9.7731482"><ele>1164.8</ele><time>2026-04-26T10:03:46.868Z</time></trkpt><trkpt lat="44.375334" lon="9.7731211"><ele>1162.6</ele><time>2026-04-26T10:03:47.867Z</time></trkpt><trkpt lat="44.375217" lon="9.7730848"><ele>1160.3999999999999</ele><time>2026-04-26T10:03:48.868Z</time></trkpt><trkpt lat="44.3751085" lon="9.7730589"><ele>1158.2</ele><time>2026-04-26T10:03:49.868Z</time></trkpt><trkpt lat="44.3749918" lon="9.7730278"><ele>1156.0</ele><time>2026-04-26T10:03:50.867Z</time></trkpt><trkpt lat="44.3748792" lon="9.7730144"><ele>1156.0</ele><time>2026-04-26T10:03:51.867Z</time></trkpt><trkpt lat="44.37476" lon="9.7730003"><ele>1156.0</ele><time>2026-04-26T10:03:52.867Z</time></trkpt><trkpt lat="44.3746363" lon="9.7729756"><ele>1156.0</ele><time>2026-04-26T10:03:53.868Z</time></trkpt><trkpt lat="44.3745119" lon="9.7729332"><ele>1156.0</ele><time>2026-04-26T10:03:54.868Z</time></trkpt><trkpt lat="44.3743819" lon="9.7728815"><ele>1154.0</ele><time>2026-04-26T10:03:55.868Z</time></trkpt><trkpt lat="44.3742492" lon="9.7728437"><ele>1152.0</ele><time>2026-04-26T10:03:56.867Z</time></trkpt><trkpt lat="44.3741171" lon="9.772806"><ele>1150.0</ele><time>2026-04-26T10:03:57.867Z</time></trkpt><trkpt lat="44.374028" lon="9.7727635"><ele>1148.0</ele><time>2026-04-26T10:03:58.868Z</time></trkpt><trkpt lat="44.3739121" lon="9.7727309"><ele>1147.3333333333335</ele><time>2026-04-26T10:03:59.868Z</time></trkpt><trkpt lat="44.3738176" lon="9.7727028"><ele>1146.6666666666667</ele><time>2026-04-26T10:04:00.868Z</time></trkpt><trkpt lat="44.3737128" lon="9.7726947"><ele>1146.0</ele><time>2026-04-26T10:04:01.868Z</time></trkpt><trkpt lat="44.3736289" lon="9.7727031"><ele>1145.3333333333333</ele><time>2026-04-26T10:04:02.867Z</time></trkpt><trkpt lat="44.373549" lon="9.7726987"><ele>1144.6666666666665</ele><time>2026-04-26T10:04:03.868Z</time></trkpt><trkpt lat="44.3734717" lon="9.7726854"><ele>1144.0</ele><time>2026-04-26T10:04:04.868Z</time></trkpt><trkpt lat="44.3734032" lon="9.7726506"><ele>1143.9999999999998</ele><time>2026-04-26T10:04:05.867Z</time></trkpt><trkpt lat="44.3733394" lon="9.7726069"><ele>1144.0</ele><time>2026-04-26T10:04:06.867Z</time></trkpt><trkpt lat="44.3732463" lon="9.7725359"><ele>1144.0</ele><time>2026-04-26T10:04:08.867Z</time></trkpt><trkpt lat="44.3731836" lon="9.7725009"><ele>1144.0</ele><time>2026-04-26T10:04:10.868Z</time></trkpt><trkpt lat="44.3731555" lon="9.772585"><ele>1144.0</ele><time>2026-04-26T10:04:23.867Z</time></trkpt><trkpt lat="44.3730957" lon="9.7726155"><ele>1143.9999999999998</ele><time>2026-04-26T10:04:30.869Z</time></trkpt><trkpt lat="44.3730408" lon="9.7725505"><ele>1144.0</ele><time>2026-04-26T10:04:34.868Z</time></trkpt><trkpt lat="44.3730293" lon="9.7724171"><ele>1143.2</ele><time>2026-04-26T10:04:36.868Z</time></trkpt><trkpt lat="44.3730041" lon="9.7722463"><ele>1142.4</ele><time>2026-04-26T10:04:38.868Z</time></trkpt><trkpt lat="44.3729821" lon="9.7721591"><ele>1141.6</ele><time>2026-04-26T10:04:39.867Z</time></trkpt><trkpt lat="44.372959" lon="9.7720729"><ele>1140.8</ele><time>2026-04-26T10:04:40.868Z</time></trkpt><trkpt lat="44.3729272" lon="9.7719935"><ele>1140.0</ele><time>2026-04-26T10:04:41.867Z</time></trkpt><trkpt lat="44.3728283" lon="9.7718718"><ele>1140.1666666666667</ele><time>2026-04-26T10:04:43.868Z</time></trkpt><trkpt lat="44.3727658" lon="9.7718131"><ele>1140.3333333333333</ele><time>2026-04-26T10:04:44.868Z</time></trkpt><trkpt lat="44.3726969" lon="9.7717637"><ele>1140.5</ele><time>2026-04-26T10:04:45.868Z</time></trkpt><trkpt lat="44.372623" lon="9.7717424"><ele>1140.6666666666665</ele><time>2026-04-26T10:04:46.867Z</time></trkpt><trkpt lat="44.3725382" lon="9.7717093"><ele>1140.8333333333333</ele><time>2026-04-26T10:04:47.867Z</time></trkpt><trkpt lat="44.372471" lon="9.7716882"><ele>1141.0</ele><time>2026-04-26T10:04:48.867Z</time></trkpt><trkpt lat="44.3723988" lon="9.7716341"><ele>1141.0</ele><time>2026-04-26T10:04:49.867Z</time></trkpt><trkpt lat="44.3723226" lon="9.7715674"><ele>1141.0</ele><time>2026-04-26T10:04:50.867Z</time></trkpt><trkpt lat="44.3722538" lon="9.7714995"><ele>1141.0</ele><time>2026-04-26T10:04:51.867Z</time></trkpt><trkpt lat="44.372181" lon="9.7714502"><ele>1141.0</ele><time>2026-04-26T10:04:52.869Z</time></trkpt><trkpt lat="44.372113" lon="9.7714159"><ele>1141.0</ele><time>2026-04-26T10:04:53.867Z</time></trkpt><trkpt lat="44.3720388" lon="9.7713733"><ele>1141.0</ele><time>2026-04-26T10:04:54.867Z</time></trkpt><trkpt lat="44.371907" lon="9.7713617"><ele>1140.5714285714287</ele><time>2026-04-26T10:04:56.867Z</time></trkpt><trkpt lat="44.3718374" lon="9.7713717"><ele>1140.142857142857</ele><time>2026-04-26T10:04:57.867Z</time></trkpt><trkpt lat="44.3717725" lon="9.7714047"><ele>1139.7142857142858</ele><time>2026-04-26T10:04:58.867Z</time></trkpt><trkpt lat="44.3716849" lon="9.7714539"><ele>1139.2857142857142</ele><time>2026-04-26T10:04:59.868Z</time></trkpt><trkpt lat="44.3716228" lon="9.7715021"><ele>1138.857142857143</ele><time>2026-04-26T10:05:00.868Z</time></trkpt><trkpt lat="44.3715648" lon="9.7715373"><ele>1138.4285714285716</ele><time>2026-04-26T10:05:01.867Z</time></trkpt><trkpt lat="44.3714932" lon="9.7715651"><ele>1138.0</ele><time>2026-04-26T10:05:02.868Z</time></trkpt><trkpt lat="44.3714233" lon="9.7715783"><ele>1137.8333333333333</ele><time>2026-04-26T10:05:03.868Z</time></trkpt><trkpt lat="44.3713566" lon="9.7715901"><ele>1137.6666666666665</ele><time>2026-04-26T10:05:04.867Z</time></trkpt><trkpt lat="44.3712865" lon="9.7715952"><ele>1137.5</ele><time>2026-04-26T10:05:05.867Z</time></trkpt><trkpt lat="44.3712049" lon="9.7715942"><ele>1137.3333333333333</ele><time>2026-04-26T10:05:06.868Z</time></trkpt><trkpt lat="44.3711261" lon="9.7715978"><ele>1137.1666666666667</ele><time>2026-04-26T10:05:07.868Z</time></trkpt><trkpt lat="44.3710386" lon="9.7716043"><ele>1137.0</ele><time>2026-04-26T10:05:08.868Z</time></trkpt><trkpt lat="44.3709529" lon="9.771596"><ele>1137.0</ele><time>2026-04-26T10:05:09.867Z</time></trkpt><trkpt lat="44.3708579" lon="9.7715881"><ele>1137.0</ele><time>2026-04-26T10:05:10.867Z</time></trkpt><trkpt lat="44.3707629" lon="9.7715869"><ele>1137.0</ele><time>2026-04-26T10:05:11.868Z</time></trkpt><trkpt lat="44.3706778" lon="9.771595"><ele>1137.0</ele><time>2026-04-26T10:05:12.868Z</time></trkpt><trkpt lat="44.3705994" lon="9.7716101"><ele>1137.0</ele><time>2026-04-26T10:05:13.868Z</time></trkpt><trkpt lat="44.3705205" lon="9.7716257"><ele>1137.0</ele><time>2026-04-26T10:05:14.867Z</time></trkpt><trkpt lat="44.3704337" lon="9.7716486"><ele>1136.1666666666667</ele><time>2026-04-26T10:05:15.867Z</time></trkpt><trkpt lat="44.3703537" lon="9.7716602"><ele>1135.3333333333333</ele><time>2026-04-26T10:05:16.867Z</time></trkpt><trkpt lat="44.3702726" lon="9.7716814"><ele>1134.5</ele><time>2026-04-26T10:05:17.868Z</time></trkpt><trkpt lat="44.3701967" lon="9.7716954"><ele>1133.6666666666665</ele><time>2026-04-26T10:05:18.867Z</time></trkpt><trkpt lat="44.3701209" lon="9.7717097"><ele>1132.8333333333333</ele><time>2026-04-26T10:05:19.868Z</time></trkpt><trkpt lat="44.3700359" lon="9.7717362"><ele>1132.0</ele><time>2026-04-26T10:05:20.868Z</time></trkpt><trkpt lat="44.3699422" lon="9.7717806"><ele>1132.0</ele><time>2026-04-26T10:05:21.868Z</time></trkpt><trkpt lat="44.36984" lon="9.7718399"><ele>1132.0</ele><time>2026-04-26T10:05:22.868Z</time></trkpt><trkpt lat="44.3697256" lon="9.7718891"><ele>1132.0</ele><time>2026-04-26T10:05:23.868Z</time></trkpt><trkpt lat="44.3696233" lon="9.7719313"><ele>1132.0</ele><time>2026-04-26T10:05:24.867Z</time></trkpt><trkpt lat="44.3695406" lon="9.7719612"><ele>1132.0</ele><time>2026-04-26T10:05:25.868Z</time></trkpt><trkpt lat="44.3694705" lon="9.7720033"><ele>1131.5</ele><time>2026-04-26T10:05:26.867Z</time></trkpt><trkpt lat="44.3694027" lon="9.7720601"><ele>1131.0</ele><time>2026-04-26T10:05:27.868Z</time></trkpt><trkpt lat="44.3693323" lon="9.7721294"><ele>1130.5</ele><time>2026-04-26T10:05:28.868Z</time></trkpt><trkpt lat="44.3692622" lon="9.7722078"><ele>1130.0</ele><time>2026-04-26T10:05:29.867Z</time></trkpt><trkpt lat="44.3691836" lon="9.7722857"><ele>1129.5</ele><time>2026-04-26T10:05:30.867Z</time></trkpt><trkpt lat="44.3691117" lon="9.7723429"><ele>1129.0</ele><time>2026-04-26T10:05:31.867Z</time></trkpt><trkpt lat="44.3690416" lon="9.7723819"><ele>1129.0</ele><time>2026-04-26T10:05:32.868Z</time></trkpt><trkpt lat="44.3689544" lon="9.7724213"><ele>1129.0</ele><time>2026-04-26T10:05:33.868Z</time></trkpt><trkpt lat="44.3688629" lon="9.7724586"><ele>1129.0</ele><time>2026-04-26T10:05:34.868Z</time></trkpt><trkpt lat="44.368776" lon="9.7724867"><ele>1129.0</ele><time>2026-04-26T10:05:35.868Z</time></trkpt><trkpt lat="44.3686937" lon="9.7725023"><ele>1129.0</ele><time>2026-04-26T10:05:36.867Z</time></trkpt><trkpt lat="44.3686124" lon="9.7725157"><ele>1129.0</ele><time>2026-04-26T10:05:37.867Z</time></trkpt><trkpt lat="44.3685397" lon="9.7725321"><ele>1128.0</ele><time>2026-04-26T10:05:38.867Z</time></trkpt><trkpt lat="44.3684298" lon="9.7725618"><ele>1127.0</ele><time>2026-04-26T10:05:40.867Z</time></trkpt><trkpt lat="44.3683417" lon="9.7726157"><ele>1126.0</ele><time>2026-04-26T10:05:42.866Z</time></trkpt><trkpt lat="44.3682441" lon="9.7727113"><ele>1125.0</ele><time>2026-04-26T10:05:44.867Z</time></trkpt><trkpt lat="44.3681888" lon="9.7727549"><ele>1124.0</ele><time>2026-04-26T10:05:45.867Z</time></trkpt><trkpt lat="44.368118" lon="9.7727918"><ele>1124.1666666666667</ele><time>2026-04-26T10:05:46.866Z</time></trkpt><trkpt lat="44.3680495" lon="9.7728106"><ele>1124.3333333333335</ele><time>2026-04-26T10:05:47.866Z</time></trkpt><trkpt lat="44.3679863" lon="9.7728243"><ele>1124.5</ele><time>2026-04-26T10:05:48.868Z</time></trkpt><trkpt lat="44.3678856" lon="9.7728174"><ele>1124.6666666666667</ele><time>2026-04-26T10:05:50.867Z</time></trkpt><trkpt lat="44.3678062" lon="9.7728189"><ele>1124.8333333333333</ele><time>2026-04-26T10:05:53.866Z</time></trkpt><trkpt lat="44.3677177" lon="9.7728519"><ele>1125.0</ele><time>2026-04-26T10:05:56.866Z</time></trkpt><trkpt lat="44.3676209" lon="9.7728667"><ele>1125.0</ele><time>2026-04-26T10:05:58.867Z</time></trkpt><trkpt lat="44.367535" lon="9.7728506"><ele>1125.0</ele><time>2026-04-26T10:06:00.868Z</time></trkpt><trkpt lat="44.3674612" lon="9.77283"><ele>1125.0</ele><time>2026-04-26T10:06:02.867Z</time></trkpt><trkpt lat="44.3673755" lon="9.7728551"><ele>1125.0</ele><time>2026-04-26T10:06:05.866Z</time></trkpt><trkpt lat="44.3673235" lon="9.7729057"><ele>1125.0</ele><time>2026-04-26T10:06:07.866Z</time></trkpt><trkpt lat="44.3672532" lon="9.7729238"><ele>1125.0</ele><time>2026-04-26T10:06:10.867Z</time></trkpt><trkpt lat="44.3671953" lon="9.7728707"><ele>1125.0</ele><time>2026-04-26T10:06:13.867Z</time></trkpt><trkpt lat="44.367214" lon="9.7727686"><ele>1125.0</ele><time>2026-04-26T10:06:17.867Z</time></trkpt><trkpt lat="44.3673048" lon="9.77278"><ele>1125.0</ele><time>2026-04-26T10:06:20.866Z</time></trkpt><trkpt lat="44.3673703" lon="9.7728068"><ele>1125.0</ele><time>2026-04-26T10:06:22.867Z</time></trkpt><trkpt lat="44.3674411" lon="9.7728313"><ele>1125.0</ele><time>2026-04-26T10:06:24.867Z</time></trkpt><trkpt lat="44.3675277" lon="9.7728453"><ele>1125.0</ele><time>2026-04-26T10:06:26.867Z</time></trkpt><trkpt lat="44.3676276" lon="9.7728563"><ele>1125.0</ele><time>2026-04-26T10:06:28.867Z</time></trkpt><trkpt lat="44.3677189" lon="9.7728608"><ele>1125.0</ele><time>2026-04-26T10:06:30.867Z</time></trkpt><trkpt lat="44.3678056" lon="9.7728528"><ele>1125.0</ele><time>2026-04-26T10:06:32.866Z</time></trkpt><trkpt lat="44.3679361" lon="9.7728272"><ele>1125.0</ele><time>2026-04-26T10:06:34.866Z</time></trkpt><trkpt lat="44.3680098" lon="9.7728135"><ele>1125.0</ele><time>2026-04-26T10:06:35.866Z</time></trkpt><trkpt lat="44.3681205" lon="9.7727993"><ele>1124.8333333333333</ele><time>2026-04-26T10:06:37.867Z</time></trkpt><trkpt lat="44.3681859" lon="9.772777"><ele>1124.6666666666667</ele><time>2026-04-26T10:06:39.867Z</time></trkpt><trkpt lat="44.36817" lon="9.7726838"><ele>1124.5</ele><time>2026-04-26T10:06:52.866Z</time></trkpt><trkpt lat="44.3680895" lon="9.7726475"><ele>1124.3333333333335</ele><time>2026-04-26T10:06:54.866Z</time></trkpt><trkpt lat="44.3679747" lon="9.7726046"><ele>1124.1666666666667</ele><time>2026-04-26T10:06:56.866Z</time></trkpt><trkpt lat="44.3679138" lon="9.7725703"><ele>1124.0</ele><time>2026-04-26T10:06:57.866Z</time></trkpt><trkpt lat="44.3678491" lon="9.7725474"><ele>1122.6666666666667</ele><time>2026-04-26T10:06:58.866Z</time></trkpt><trkpt lat="44.3677863" lon="9.772516"><ele>1121.3333333333335</ele><time>2026-04-26T10:06:59.867Z</time></trkpt><trkpt lat="44.3677216" lon="9.772492"><ele>1120.0</ele><time>2026-04-26T10:07:00.866Z</time></trkpt><trkpt lat="44.3676582" lon="9.772474"><ele>1118.6666666666667</ele><time>2026-04-26T10:07:01.866Z</time></trkpt><trkpt lat="44.3675326" lon="9.7724563"><ele>1117.3333333333333</ele><time>2026-04-26T10:07:03.867Z</time></trkpt><trkpt lat="44.3674538" lon="9.7724445"><ele>1116.0</ele><time>2026-04-26T10:07:04.866Z</time></trkpt><trkpt lat="44.3673873" lon="9.7724437"><ele>1116.0</ele><time>2026-04-26T10:07:05.866Z</time></trkpt><trkpt lat="44.3673051" lon="9.7724676"><ele>1116.0</ele><time>2026-04-26T10:07:06.866Z</time></trkpt><trkpt lat="44.3672325" lon="9.7724589"><ele>1116.0</ele><time>2026-04-26T10:07:07.866Z</time></trkpt><trkpt lat="44.3671631" lon="9.7724663"><ele>1116.0</ele><time>2026-04-26T10:07:08.866Z</time></trkpt><trkpt lat="44.3670584" lon="9.7724565"><ele>1116.0</ele><time>2026-04-26T10:07:10.867Z</time></trkpt><trkpt lat="44.3669915" lon="9.7724378"><ele>1116.0</ele><time>2026-04-26T10:07:11.867Z</time></trkpt><trkpt lat="44.366916" lon="9.7724316"><ele>1114.6666666666667</ele><time>2026-04-26T10:07:12.867Z</time></trkpt><trkpt lat="44.3668386" lon="9.7724217"><ele>1113.3333333333333</ele><time>2026-04-26T10:07:13.866Z</time></trkpt><trkpt lat="44.3667665" lon="9.7724136"><ele>1112.0</ele><time>2026-04-26T10:07:14.866Z</time></trkpt><trkpt lat="44.3667" lon="9.7724016"><ele>1110.6666666666665</ele><time>2026-04-26T10:07:15.866Z</time></trkpt><trkpt lat="44.3665674" lon="9.7724137"><ele>1109.3333333333333</ele><time>2026-04-26T10:07:17.866Z</time></trkpt><trkpt lat="44.3664975" lon="9.7724349"><ele>1108.0</ele><time>2026-04-26T10:07:18.866Z</time></trkpt><trkpt lat="44.3664271" lon="9.7724495"><ele>1108.0</ele><time>2026-04-26T10:07:19.867Z</time></trkpt><trkpt lat="44.3663631" lon="9.7724582"><ele>1108.0</ele><time>2026-04-26T10:07:20.867Z</time></trkpt><trkpt lat="44.3662979" lon="9.7724613"><ele>1108.0</ele><time>2026-04-26T10:07:21.867Z</time></trkpt><trkpt lat="44.3661929" lon="9.7724324"><ele>1108.0</ele><time>2026-04-26T10:07:23.867Z</time></trkpt><trkpt lat="44.3660843" lon="9.7724447"><ele>1108.0</ele><time>2026-04-26T10:07:25.867Z</time></trkpt><trkpt lat="44.3659765" lon="9.7724868"><ele>1105.6</ele><time>2026-04-26T10:07:27.867Z</time></trkpt><trkpt lat="44.365858" lon="9.7725391"><ele>1103.1999999999998</ele><time>2026-04-26T10:07:29.866Z</time></trkpt><trkpt lat="44.3657411" lon="9.7725588"><ele>1100.8</ele><time>2026-04-26T10:07:31.866Z</time></trkpt><trkpt lat="44.3656645" lon="9.7725799"><ele>1098.3999999999999</ele><time>2026-04-26T10:07:32.866Z</time></trkpt><trkpt lat="44.3655874" lon="9.7725941"><ele>1096.0</ele><time>2026-04-26T10:07:33.866Z</time></trkpt><trkpt lat="44.3655096" lon="9.772604"><ele>1096.2857142857144</ele><time>2026-04-26T10:07:34.867Z</time></trkpt><trkpt lat="44.3654391" lon="9.7726193"><ele>1096.5714285714287</ele><time>2026-04-26T10:07:35.867Z</time></trkpt><trkpt lat="44.3653636" lon="9.7726327"><ele>1096.857142857143</ele><time>2026-04-26T10:07:36.868Z</time></trkpt><trkpt lat="44.3652922" lon="9.7726452"><ele>1097.1428571428573</ele><time>2026-04-26T10:07:37.867Z</time></trkpt><trkpt lat="44.3652287" lon="9.7726573"><ele>1097.4285714285716</ele><time>2026-04-26T10:07:38.867Z</time></trkpt><trkpt lat="44.365159" lon="9.7726726"><ele>1097.7142857142858</ele><time>2026-04-26T10:07:39.867Z</time></trkpt><trkpt lat="44.3650873" lon="9.7726901"><ele>1098.0</ele><time>2026-04-26T10:07:40.867Z</time></trkpt><trkpt lat="44.3650306" lon="9.7727373"><ele>1098.0</ele><time>2026-04-26T10:07:41.866Z</time></trkpt><trkpt lat="44.3649704" lon="9.7727745"><ele>1098.0</ele><time>2026-04-26T10:07:42.866Z</time></trkpt><trkpt lat="44.3648823" lon="9.7728736"><ele>1098.0</ele><time>2026-04-26T10:07:44.866Z</time></trkpt><trkpt lat="44.3648246" lon="9.7730056"><ele>1098.0</ele><time>2026-04-26T10:07:46.866Z</time></trkpt><trkpt lat="44.3647956" lon="9.7730882"><ele>1098.0</ele><time>2026-04-26T10:07:47.867Z</time></trkpt><trkpt lat="44.364761" lon="9.7731691"><ele>1098.0</ele><time>2026-04-26T10:07:48.866Z</time></trkpt><trkpt lat="44.3647202" lon="9.7732472"><ele>1097.0</ele><time>2026-04-26T10:07:49.866Z</time></trkpt><trkpt lat="44.3646518" lon="9.7733533"><ele>1096.0</ele><time>2026-04-26T10:07:51.867Z</time></trkpt><trkpt lat="44.3645895" lon="9.773439"><ele>1095.0</ele><time>2026-04-26T10:07:53.867Z</time></trkpt><trkpt lat="44.3645242" lon="9.773538"><ele>1094.0</ele><time>2026-04-26T10:07:55.868Z</time></trkpt><trkpt lat="44.3644087" lon="9.7735556"><ele>1093.0</ele><time>2026-04-26T10:07:57.866Z</time></trkpt><trkpt lat="44.3643418" lon="9.7735553"><ele>1090.6</ele><time>2026-04-26T10:07:58.867Z</time></trkpt><trkpt lat="44.3642718" lon="9.773569"><ele>1088.1999999999998</ele><time>2026-04-26T10:07:59.867Z</time></trkpt><trkpt lat="44.3641622" lon="9.7736352"><ele>1085.8</ele><time>2026-04-26T10:08:01.866Z</time></trkpt><trkpt lat="44.36405" lon="9.7737312"><ele>1083.3999999999999</ele><time>2026-04-26T10:08:03.866Z</time></trkpt><trkpt lat="44.3639928" lon="9.773775"><ele>1081.0</ele><time>2026-04-26T10:08:04.866Z</time></trkpt><trkpt lat="44.3639372" lon="9.7738375"><ele>1081.0</ele><time>2026-04-26T10:08:05.866Z</time></trkpt><trkpt lat="44.3638663" lon="9.7739198"><ele>1081.0</ele><time>2026-04-26T10:08:06.866Z</time></trkpt><trkpt lat="44.3638051" lon="9.7739608"><ele>1081.0</ele><time>2026-04-26T10:08:07.866Z</time></trkpt><trkpt lat="44.3636752" lon="9.7739855"><ele>1081.0</ele><time>2026-04-26T10:08:09.866Z</time></trkpt><trkpt lat="44.3636009" lon="9.773992"><ele>1081.0</ele><time>2026-04-26T10:08:10.866Z</time></trkpt><trkpt lat="44.3635311" lon="9.77402"><ele>1081.0</ele><time>2026-04-26T10:08:11.866Z</time></trkpt><trkpt lat="44.3634667" lon="9.7740442"><ele>1080.5</ele><time>2026-04-26T10:08:12.866Z</time></trkpt><trkpt lat="44.3634064" lon="9.77408"><ele>1080.0</ele><time>2026-04-26T10:08:13.866Z</time></trkpt><trkpt lat="44.3633426" lon="9.774108"><ele>1079.5</ele><time>2026-04-26T10:08:14.866Z</time></trkpt><trkpt lat="44.3632474" lon="9.7742019"><ele>1079.0</ele><time>2026-04-26T10:08:16.866Z</time></trkpt><trkpt lat="44.3631552" lon="9.7742638"><ele>1078.5</ele><time>2026-04-26T10:08:18.866Z</time></trkpt><trkpt lat="44.3630629" lon="9.774292"><ele>1078.0</ele><time>2026-04-26T10:08:20.867Z</time></trkpt><trkpt lat="44.3629721" lon="9.774328"><ele>1079.6</ele><time>2026-04-26T10:08:22.866Z</time></trkpt><trkpt lat="44.3628604" lon="9.7743591"><ele>1081.1999999999998</ele><time>2026-04-26T10:08:24.866Z</time></trkpt><trkpt lat="44.3627593" lon="9.7743862"><ele>1082.8</ele><time>2026-04-26T10:08:26.866Z</time></trkpt><trkpt lat="44.362665" lon="9.774403"><ele>1084.3999999999999</ele><time>2026-04-26T10:08:28.867Z</time></trkpt><trkpt lat="44.3625729" lon="9.7744269"><ele>1086.0</ele><time>2026-04-26T10:08:31.866Z</time></trkpt><trkpt lat="44.3624709" lon="9.7744559"><ele>1086.0</ele><time>2026-04-26T10:08:33.866Z</time></trkpt><trkpt lat="44.3623936" lon="9.7744843"><ele>1086.0</ele><time>2026-04-26T10:08:35.866Z</time></trkpt><trkpt lat="44.3622924" lon="9.774495"><ele>1086.0</ele><time>2026-04-26T10:08:37.867Z</time></trkpt><trkpt lat="44.3622005" lon="9.7745304"><ele>1086.0</ele><time>2026-04-26T10:08:40.866Z</time></trkpt><trkpt lat="44.3621217" lon="9.7745524"><ele>1086.0</ele><time>2026-04-26T10:08:42.867Z</time></trkpt><trkpt lat="44.362028" lon="9.77457"><ele>1085.2</ele><time>2026-04-26T10:08:44.866Z</time></trkpt><trkpt lat="44.3619222" lon="9.7746125"><ele>1084.3999999999999</ele><time>2026-04-26T10:08:46.866Z</time></trkpt><trkpt lat="44.3618258" lon="9.7746392"><ele>1083.6</ele><time>2026-04-26T10:08:48.867Z</time></trkpt><trkpt lat="44.3617375" lon="9.7746952"><ele>1082.8</ele><time>2026-04-26T10:08:50.866Z</time></trkpt><trkpt lat="44.361668" lon="9.7747474"><ele>1082.0</ele><time>2026-04-26T10:08:52.867Z</time></trkpt><trkpt lat="44.3616041" lon="9.7747846"><ele>1082.0</ele><time>2026-04-26T10:08:54.867Z</time></trkpt><trkpt lat="44.3615419" lon="9.7748371"><ele>1082.0</ele><time>2026-04-26T10:08:56.866Z</time></trkpt><trkpt lat="44.3614513" lon="9.7749088"><ele>1082.0</ele><time>2026-04-26T10:08:58.866Z</time></trkpt><trkpt lat="44.3613776" lon="9.7749534"><ele>1082.0</ele><time>2026-04-26T10:09:00.866Z</time></trkpt><trkpt lat="44.3612943" lon="9.7749943"><ele>1082.0</ele><time>2026-04-26T10:09:02.867Z</time></trkpt><trkpt lat="44.361162" lon="9.7751307"><ele>1080.8</ele><time>2026-04-26T10:09:04.866Z</time></trkpt><trkpt lat="44.3610829" lon="9.7751565"><ele>1079.6</ele><time>2026-04-26T10:09:05.867Z</time></trkpt><trkpt lat="44.3609768" lon="9.7752125"><ele>1078.3999999999999</ele><time>2026-04-26T10:09:07.868Z</time></trkpt><trkpt lat="44.3608966" lon="9.7752948"><ele>1077.2</ele><time>2026-04-26T10:09:09.866Z</time></trkpt><trkpt lat="44.3608139" lon="9.7753144"><ele>1076.0</ele><time>2026-04-26T10:09:11.866Z</time></trkpt><trkpt lat="44.3607365" lon="9.7753745"><ele>1076.0</ele><time>2026-04-26T10:09:12.867Z</time></trkpt><trkpt lat="44.3606775" lon="9.7754154"><ele>1076.0</ele><time>2026-04-26T10:09:13.867Z</time></trkpt><trkpt lat="44.3605883" lon="9.7754637"><ele>1076.0</ele><time>2026-04-26T10:09:14.867Z</time></trkpt><trkpt lat="44.3605391" lon="9.7755274"><ele>1076.0</ele><time>2026-04-26T10:09:15.866Z</time></trkpt><trkpt lat="44.3604728" lon="9.775571"><ele>1076.0</ele><time>2026-04-26T10:09:16.866Z</time></trkpt><trkpt lat="44.3603894" lon="9.7756261"><ele>1076.0</ele><time>2026-04-26T10:09:18.867Z</time></trkpt><trkpt lat="44.3603317" lon="9.7756654"><ele>1071.6666666666667</ele><time>2026-04-26T10:09:19.867Z</time></trkpt><trkpt lat="44.3602293" lon="9.7757267"><ele>1067.3333333333335</ele><time>2026-04-26T10:09:21.867Z</time></trkpt><trkpt lat="44.3601513" lon="9.775764"><ele>1063.0</ele><time>2026-04-26T10:09:23.867Z</time></trkpt><trkpt lat="44.3600558" lon="9.7757983"><ele>1058.6666666666667</ele><time>2026-04-26T10:09:25.866Z</time></trkpt><trkpt lat="44.3599863" lon="9.7758198"><ele>1054.3333333333333</ele><time>2026-04-26T10:09:27.866Z</time></trkpt><trkpt lat="44.3599013" lon="9.7758023"><ele>1050.0</ele><time>2026-04-26T10:09:29.866Z</time></trkpt><trkpt lat="44.3598054" lon="9.7758198"><ele>1045.6</ele><time>2026-04-26T10:09:30.866Z</time></trkpt><trkpt lat="44.3596931" lon="9.7758712"><ele>1041.2</ele><time>2026-04-26T10:09:32.867Z</time></trkpt><trkpt lat="44.3595838" lon="9.7758985"><ele>1036.8</ele><time>2026-04-26T10:09:34.867Z</time></trkpt><trkpt lat="44.3595023" lon="9.7758847"><ele>1032.4</ele><time>2026-04-26T10:09:36.866Z</time></trkpt><trkpt lat="44.3594187" lon="9.7759026"><ele>1028.0</ele><time>2026-04-26T10:09:38.867Z</time></trkpt><trkpt lat="44.3593026" lon="9.7759578"><ele>1028.0</ele><time>2026-04-26T10:09:40.866Z</time></trkpt><trkpt lat="44.3592399" lon="9.7759743"><ele>1028.0</ele><time>2026-04-26T10:09:41.866Z</time></trkpt><trkpt lat="44.3591275" lon="9.7759988"><ele>1028.0</ele><time>2026-04-26T10:09:43.866Z</time></trkpt><trkpt lat="44.3590125" lon="9.7760505"><ele>1028.0</ele><time>2026-04-26T10:09:45.866Z</time></trkpt><trkpt lat="44.3588711" lon="9.7760907"><ele>1028.0</ele><time>2026-04-26T10:09:47.867Z</time></trkpt><trkpt lat="44.3588083" lon="9.7761188"><ele>1028.0</ele><time>2026-04-26T10:09:49.867Z</time></trkpt><trkpt lat="44.3587344" lon="9.7761512"><ele>1028.0</ele><time>2026-04-26T10:09:52.867Z</time></trkpt><trkpt lat="44.3588075" lon="9.7761282"><ele>1028.0</ele><time>2026-04-26T10:10:47.866Z</time></trkpt><trkpt lat="44.3589069" lon="9.7760456"><ele>1028.0</ele><time>2026-04-26T10:10:49.866Z</time></trkpt><trkpt lat="44.3589725" lon="9.7760323"><ele>1028.0</ele><time>2026-04-26T10:10:50.866Z</time></trkpt><trkpt lat="44.3590823" lon="9.7760102"><ele>1028.0</ele><time>2026-04-26T10:10:52.866Z</time></trkpt><trkpt lat="44.359212" lon="9.7759923"><ele>1028.0</ele><time>2026-04-26T10:10:54.865Z</time></trkpt><trkpt lat="44.3592823" lon="9.7759931"><ele>1028.0</ele><time>2026-04-26T10:10:55.865Z</time></trkpt><trkpt lat="44.3593988" lon="9.7759765"><ele>1028.0</ele><time>2026-04-26T10:10:57.866Z</time></trkpt><trkpt lat="44.3594565" lon="9.7759259"><ele>1028.0</ele><time>2026-04-26T10:10:59.865Z</time></trkpt><trkpt lat="44.3595204" lon="9.7759136"><ele>1028.0</ele><time>2026-04-26T10:11:01.865Z</time></trkpt><trkpt lat="44.359607" lon="9.7758781"><ele>1028.0</ele><time>2026-04-26T10:11:03.866Z</time></trkpt><trkpt lat="44.3597266" lon="9.7758548"><ele>1031.6666666666667</ele><time>2026-04-26T10:11:05.865Z</time></trkpt><trkpt lat="44.3598642" lon="9.7758216"><ele>1035.3333333333335</ele><time>2026-04-26T10:11:07.865Z</time></trkpt><trkpt lat="44.3599409" lon="9.7758021"><ele>1039.0</ele><time>2026-04-26T10:11:08.865Z</time></trkpt><trkpt lat="44.3600214" lon="9.775752"><ele>1042.6666666666667</ele><time>2026-04-26T10:11:10.865Z</time></trkpt><trkpt lat="44.3600863" lon="9.7757464"><ele>1046.3333333333333</ele><time>2026-04-26T10:11:11.865Z</time></trkpt><trkpt lat="44.3601587" lon="9.7757332"><ele>1050.0</ele><time>2026-04-26T10:11:12.865Z</time></trkpt><trkpt lat="44.360264" lon="9.7756967"><ele>1050.0</ele><time>2026-04-26T10:11:14.866Z</time></trkpt><trkpt lat="44.3603316" lon="9.7756697"><ele>1050.0</ele><time>2026-04-26T10:11:15.866Z</time></trkpt><trkpt lat="44.3604022" lon="9.7756319"><ele>1050.0</ele><time>2026-04-26T10:11:16.866Z</time></trkpt><trkpt lat="44.3604614" lon="9.7755632"><ele>1050.0</ele><time>2026-04-26T10:11:17.866Z</time></trkpt><trkpt lat="44.3605247" lon="9.7755243"><ele>1050.0</ele><time>2026-04-26T10:11:18.866Z</time></trkpt><trkpt lat="44.3606241" lon="9.7754588"><ele>1050.0</ele><time>2026-04-26T10:11:20.865Z</time></trkpt><trkpt lat="44.3606846" lon="9.7754235"><ele>1050.7142857142858</ele><time>2026-04-26T10:11:21.866Z</time></trkpt><trkpt lat="44.3607465" lon="9.7753953"><ele>1051.4285714285716</ele><time>2026-04-26T10:11:22.866Z</time></trkpt><trkpt lat="44.3608096" lon="9.7753599"><ele>1052.142857142857</ele><time>2026-04-26T10:11:23.865Z</time></trkpt><trkpt lat="44.3608733" lon="9.7753316"><ele>1052.857142857143</ele><time>2026-04-26T10:11:24.865Z</time></trkpt><trkpt lat="44.3609384" lon="9.7752903"><ele>1053.5714285714287</ele><time>2026-04-26T10:11:25.865Z</time></trkpt><trkpt lat="44.3609979" lon="9.7752456"><ele>1054.2857142857142</ele><time>2026-04-26T10:11:26.865Z</time></trkpt><trkpt lat="44.3610695" lon="9.7751979"><ele>1055.0</ele><time>2026-04-26T10:11:27.865Z</time></trkpt><trkpt lat="44.3611324" lon="9.7751344"><ele>1055.0</ele><time>2026-04-26T10:11:28.866Z</time></trkpt><trkpt lat="44.3611918" lon="9.7750844"><ele>1055.0</ele><time>2026-04-26T10:11:29.867Z</time></trkpt><trkpt lat="44.3612544" lon="9.7750359"><ele>1055.0</ele><time>2026-04-26T10:11:30.865Z</time></trkpt><trkpt lat="44.3613707" lon="9.7749531"><ele>1055.0</ele><time>2026-04-26T10:11:32.865Z</time></trkpt><trkpt lat="44.3614312" lon="9.7748953"><ele>1055.0</ele><time>2026-04-26T10:11:33.865Z</time></trkpt><trkpt lat="44.3615007" lon="9.7748452"><ele>1055.0</ele><time>2026-04-26T10:11:34.865Z</time></trkpt><trkpt lat="44.3615687" lon="9.7747836"><ele>1060.4</ele><time>2026-04-26T10:11:35.865Z</time></trkpt><trkpt lat="44.3616319" lon="9.7747584"><ele>1065.8</ele><time>2026-04-26T10:11:36.865Z</time></trkpt><trkpt lat="44.3616894" lon="9.7747217"><ele>1071.2</ele><time>2026-04-26T10:11:37.865Z</time></trkpt><trkpt lat="44.3617998" lon="9.774665"><ele>1076.6</ele><time>2026-04-26T10:11:39.866Z</time></trkpt><trkpt lat="44.3619055" lon="9.7746239"><ele>1082.0</ele><time>2026-04-26T10:11:41.865Z</time></trkpt><trkpt lat="44.3620195" lon="9.7745807"><ele>1082.0</ele><time>2026-04-26T10:11:43.866Z</time></trkpt><trkpt lat="44.3621254" lon="9.7745546"><ele>1082.0</ele><time>2026-04-26T10:11:45.865Z</time></trkpt><trkpt lat="44.3622402" lon="9.7745075"><ele>1082.0</ele><time>2026-04-26T10:11:47.865Z</time></trkpt><trkpt lat="44.3623768" lon="9.7744921"><ele>1082.0</ele><time>2026-04-26T10:11:49.865Z</time></trkpt><trkpt lat="44.3624602" lon="9.7744732"><ele>1082.0</ele><time>2026-04-26T10:11:50.866Z</time></trkpt><trkpt lat="44.3625541" lon="9.7744503"><ele>1082.6666666666667</ele><time>2026-04-26T10:11:51.866Z</time></trkpt><trkpt lat="44.3626253" lon="9.7744303"><ele>1083.3333333333335</ele><time>2026-04-26T10:11:52.865Z</time></trkpt><trkpt lat="44.3627025" lon="9.7744077"><ele>1084.0</ele><time>2026-04-26T10:11:53.866Z</time></trkpt><trkpt lat="44.3627791" lon="9.7743852"><ele>1084.6666666666667</ele><time>2026-04-26T10:11:54.865Z</time></trkpt><trkpt lat="44.3628477" lon="9.7743616"><ele>1085.3333333333333</ele><time>2026-04-26T10:11:55.865Z</time></trkpt><trkpt lat="44.3629117" lon="9.7743423"><ele>1086.0</ele><time>2026-04-26T10:11:56.866Z</time></trkpt><trkpt lat="44.3630297" lon="9.7743242"><ele>1085.8333333333333</ele><time>2026-04-26T10:11:58.866Z</time></trkpt><trkpt lat="44.3631056" lon="9.7742987"><ele>1085.6666666666667</ele><time>2026-04-26T10:12:00.865Z</time></trkpt><trkpt lat="44.3631599" lon="9.7742279"><ele>1085.5</ele><time>2026-04-26T10:12:02.865Z</time></trkpt><trkpt lat="44.3632103" lon="9.774172"><ele>1085.3333333333335</ele><time>2026-04-26T10:12:03.866Z</time></trkpt><trkpt lat="44.3632749" lon="9.7741206"><ele>1085.1666666666667</ele><time>2026-04-26T10:12:04.865Z</time></trkpt><trkpt lat="44.3633446" lon="9.7740837"><ele>1085.0</ele><time>2026-04-26T10:12:05.865Z</time></trkpt><trkpt lat="44.3634257" lon="9.774046"><ele>1085.0</ele><time>2026-04-26T10:12:06.865Z</time></trkpt><trkpt lat="44.3635043" lon="9.7740223"><ele>1085.0</ele><time>2026-04-26T10:12:07.865Z</time></trkpt><trkpt lat="44.3635866" lon="9.7740044"><ele>1085.0</ele><time>2026-04-26T10:12:08.866Z</time></trkpt><trkpt lat="44.3636661" lon="9.7740001"><ele>1085.0</ele><time>2026-04-26T10:12:09.866Z</time></trkpt><trkpt lat="44.363737" lon="9.7739825"><ele>1085.0</ele><time>2026-04-26T10:12:10.865Z</time></trkpt><trkpt lat="44.3637996" lon="9.7739464"><ele>1085.0</ele><time>2026-04-26T10:12:11.865Z</time></trkpt><trkpt lat="44.3638964" lon="9.7738531"><ele>1084.2</ele><time>2026-04-26T10:12:13.865Z</time></trkpt><trkpt lat="44.3639865" lon="9.7737619"><ele>1083.4</ele><time>2026-04-26T10:12:15.866Z</time></trkpt><trkpt lat="44.364095" lon="9.7736796"><ele>1082.6</ele><time>2026-04-26T10:12:17.866Z</time></trkpt><trkpt lat="44.3641525" lon="9.7736324"><ele>1081.8</ele><time>2026-04-26T10:12:18.865Z</time></trkpt><trkpt lat="44.3642431" lon="9.7735642"><ele>1081.0</ele><time>2026-04-26T10:12:20.865Z</time></trkpt><trkpt lat="44.3643524" lon="9.7735586"><ele>1081.0</ele><time>2026-04-26T10:12:22.865Z</time></trkpt><trkpt lat="44.3644558" lon="9.7735515"><ele>1081.0</ele><time>2026-04-26T10:12:24.867Z</time></trkpt><trkpt lat="44.3645588" lon="9.7735039"><ele>1081.0</ele><time>2026-04-26T10:12:26.866Z</time></trkpt><trkpt lat="44.3646076" lon="9.7733877"><ele>1081.0</ele><time>2026-04-26T10:12:28.865Z</time></trkpt><trkpt lat="44.364666" lon="9.7732989"><ele>1081.0</ele><time>2026-04-26T10:12:30.867Z</time></trkpt><trkpt lat="44.3647419" lon="9.7731712"><ele>1085.25</ele><time>2026-04-26T10:12:32.866Z</time></trkpt><trkpt lat="44.3647993" lon="9.7730261"><ele>1089.5</ele><time>2026-04-26T10:12:34.866Z</time></trkpt><trkpt lat="44.364842" lon="9.7728935"><ele>1093.75</ele><time>2026-04-26T10:12:36.866Z</time></trkpt><trkpt lat="44.3649146" lon="9.7727917"><ele>1098.0</ele><time>2026-04-26T10:12:38.865Z</time></trkpt><trkpt lat="44.3650272" lon="9.7727029"><ele>1095.2</ele><time>2026-04-26T10:12:40.866Z</time></trkpt><trkpt lat="44.3651002" lon="9.7726719"><ele>1092.4</ele><time>2026-04-26T10:12:41.865Z</time></trkpt><trkpt lat="44.365173" lon="9.7726404"><ele>1089.6000000000001</ele><time>2026-04-26T10:12:42.866Z</time></trkpt><trkpt lat="44.3652954" lon="9.7726184"><ele>1086.8</ele><time>2026-04-26T10:12:44.865Z</time></trkpt><trkpt lat="44.3654317" lon="9.7725988"><ele>1084.0</ele><time>2026-04-26T10:12:46.865Z</time></trkpt><trkpt lat="44.365506" lon="9.7725878"><ele>1086.0</ele><time>2026-04-26T10:12:47.865Z</time></trkpt><trkpt lat="44.3655838" lon="9.7725801"><ele>1088.0</ele><time>2026-04-26T10:12:48.865Z</time></trkpt><trkpt lat="44.3656587" lon="9.7725624"><ele>1090.0</ele><time>2026-04-26T10:12:49.865Z</time></trkpt><trkpt lat="44.365746" lon="9.7725332"><ele>1092.0</ele><time>2026-04-26T10:12:50.866Z</time></trkpt><trkpt lat="44.3658388" lon="9.7725011"><ele>1094.0</ele><time>2026-04-26T10:12:51.866Z</time></trkpt><trkpt lat="44.3659189" lon="9.7724809"><ele>1096.0</ele><time>2026-04-26T10:12:52.866Z</time></trkpt><trkpt lat="44.3660071" lon="9.7724584"><ele>1096.0</ele><time>2026-04-26T10:12:53.866Z</time></trkpt><trkpt lat="44.3660873" lon="9.7724611"><ele>1096.0</ele><time>2026-04-26T10:12:54.866Z</time></trkpt><trkpt lat="44.3661759" lon="9.7724565"><ele>1096.0</ele><time>2026-04-26T10:12:55.866Z</time></trkpt><trkpt lat="44.3662616" lon="9.7724661"><ele>1096.0</ele><time>2026-04-26T10:12:56.866Z</time></trkpt><trkpt lat="44.366342" lon="9.7724704"><ele>1096.0</ele><time>2026-04-26T10:12:57.866Z</time></trkpt><trkpt lat="44.3664166" lon="9.7724549"><ele>1096.0</ele><time>2026-04-26T10:12:58.866Z</time></trkpt><trkpt lat="44.3664921" lon="9.7724398"><ele>1098.3999999999999</ele><time>2026-04-26T10:12:59.866Z</time></trkpt><trkpt lat="44.3665737" lon="9.7724276"><ele>1100.8</ele><time>2026-04-26T10:13:00.865Z</time></trkpt><trkpt lat="44.3666516" lon="9.772431"><ele>1103.1999999999998</ele><time>2026-04-26T10:13:01.865Z</time></trkpt><trkpt lat="44.3667391" lon="9.7724311"><ele>1105.6</ele><time>2026-04-26T10:13:02.865Z</time></trkpt><trkpt lat="44.3668391" lon="9.7724386"><ele>1108.0</ele><time>2026-04-26T10:13:03.865Z</time></trkpt><trkpt lat="44.3669517" lon="9.7724535"><ele>1108.0</ele><time>2026-04-26T10:13:04.865Z</time></trkpt><trkpt lat="44.3670537" lon="9.7724745"><ele>1108.0</ele><time>2026-04-26T10:13:05.865Z</time></trkpt><trkpt lat="44.3671486" lon="9.7724825"><ele>1108.0</ele><time>2026-04-26T10:13:06.865Z</time></trkpt><trkpt lat="44.3672474" lon="9.7724908"><ele>1108.0</ele><time>2026-04-26T10:13:07.865Z</time></trkpt><trkpt lat="44.3673329" lon="9.7724853"><ele>1108.0</ele><time>2026-04-26T10:13:08.865Z</time></trkpt><trkpt lat="44.3674137" lon="9.7724696"><ele>1109.3333333333333</ele><time>2026-04-26T10:13:09.865Z</time></trkpt><trkpt lat="44.3674927" lon="9.7724732"><ele>1110.6666666666665</ele><time>2026-04-26T10:13:10.866Z</time></trkpt><trkpt lat="44.3675784" lon="9.7724786"><ele>1112.0</ele><time>2026-04-26T10:13:11.866Z</time></trkpt><trkpt lat="44.3676586" lon="9.7724966"><ele>1113.3333333333333</ele><time>2026-04-26T10:13:12.866Z</time></trkpt><trkpt lat="44.3677408" lon="9.7725241"><ele>1114.6666666666667</ele><time>2026-04-26T10:13:13.866Z</time></trkpt><trkpt lat="44.3678188" lon="9.7725588"><ele>1116.0</ele><time>2026-04-26T10:13:14.866Z</time></trkpt><trkpt lat="44.3678994" lon="9.7725882"><ele>1115.9999999999998</ele><time>2026-04-26T10:13:15.865Z</time></trkpt><trkpt lat="44.3679767" lon="9.7726185"><ele>1116.0</ele><time>2026-04-26T10:13:16.865Z</time></trkpt><trkpt lat="44.3680475" lon="9.7726478"><ele>1116.0</ele><time>2026-04-26T10:13:17.865Z</time></trkpt><trkpt lat="44.3681268" lon="9.7726786"><ele>1116.0</ele><time>2026-04-26T10:13:19.867Z</time></trkpt><trkpt lat="44.368193" lon="9.7727119"><ele>1116.0</ele><time>2026-04-26T10:13:21.866Z</time></trkpt><trkpt lat="44.3682614" lon="9.7727026"><ele>1115.9999999999998</ele><time>2026-04-26T10:13:24.865Z</time></trkpt><trkpt lat="44.3683237" lon="9.7726493"><ele>1116.0</ele><time>2026-04-26T10:13:26.865Z</time></trkpt><trkpt lat="44.3683953" lon="9.7725764"><ele>1117.3333333333333</ele><time>2026-04-26T10:13:28.865Z</time></trkpt><trkpt lat="44.368499" lon="9.7725419"><ele>1118.6666666666667</ele><time>2026-04-26T10:13:30.865Z</time></trkpt><trkpt lat="44.36856" lon="9.7725647"><ele>1120.0</ele><time>2026-04-26T10:13:32.865Z</time></trkpt><trkpt lat="44.3686634" lon="9.7725393"><ele>1121.3333333333335</ele><time>2026-04-26T10:15:17.864Z</time></trkpt><trkpt lat="44.3687286" lon="9.7725269"><ele>1122.6666666666667</ele><time>2026-04-26T10:15:18.864Z</time></trkpt><trkpt lat="44.3688079" lon="9.7725002"><ele>1124.0</ele><time>2026-04-26T10:15:19.865Z</time></trkpt><trkpt lat="44.3689055" lon="9.7724554"><ele>1125.0</ele><time>2026-04-26T10:15:20.864Z</time></trkpt><trkpt lat="44.368989" lon="9.7724101"><ele>1126.0</ele><time>2026-04-26T10:15:21.864Z</time></trkpt><trkpt lat="44.3690799" lon="9.7723573"><ele>1127.0</ele><time>2026-04-26T10:15:22.865Z</time></trkpt><trkpt lat="44.3691655" lon="9.7722987"><ele>1128.0</ele><time>2026-04-26T10:15:23.864Z</time></trkpt><trkpt lat="44.3692479" lon="9.7722188"><ele>1129.0</ele><time>2026-04-26T10:15:24.864Z</time></trkpt><trkpt lat="44.3693239" lon="9.772134"><ele>1129.0</ele><time>2026-04-26T10:15:25.864Z</time></trkpt><trkpt lat="44.3693846" lon="9.7720693"><ele>1129.0</ele><time>2026-04-26T10:15:26.864Z</time></trkpt><trkpt lat="44.3694452" lon="9.7720174"><ele>1129.0</ele><time>2026-04-26T10:15:27.864Z</time></trkpt><trkpt lat="44.3695035" lon="9.7719755"><ele>1129.0</ele><time>2026-04-26T10:15:28.865Z</time></trkpt><trkpt lat="44.3695686" lon="9.7719459"><ele>1129.0</ele><time>2026-04-26T10:15:29.865Z</time></trkpt><trkpt lat="44.3696421" lon="9.7719207"><ele>1129.0</ele><time>2026-04-26T10:15:30.864Z</time></trkpt><trkpt lat="44.3697259" lon="9.7718862"><ele>1129.0</ele><time>2026-04-26T10:15:31.865Z</time></trkpt><trkpt lat="44.3698099" lon="9.7718521"><ele>1129.5</ele><time>2026-04-26T10:15:32.864Z</time></trkpt><trkpt lat="44.3699" lon="9.7718071"><ele>1130.0</ele><time>2026-04-26T10:15:33.864Z</time></trkpt><trkpt lat="44.3699855" lon="9.7717607"><ele>1130.5</ele><time>2026-04-26T10:15:34.865Z</time></trkpt><trkpt lat="44.3700592" lon="9.7717301"><ele>1131.0</ele><time>2026-04-26T10:15:35.865Z</time></trkpt><trkpt lat="44.370136" lon="9.7717067"><ele>1131.5</ele><time>2026-04-26T10:15:36.864Z</time></trkpt><trkpt lat="44.3702135" lon="9.7716956"><ele>1132.0</ele><time>2026-04-26T10:15:37.864Z</time></trkpt><trkpt lat="44.3702909" lon="9.77169"><ele>1132.0</ele><time>2026-04-26T10:15:38.864Z</time></trkpt><trkpt lat="44.3703666" lon="9.7716671"><ele>1132.0</ele><time>2026-04-26T10:15:39.864Z</time></trkpt><trkpt lat="44.3704407" lon="9.7716496"><ele>1132.0</ele><time>2026-04-26T10:15:40.865Z</time></trkpt><trkpt lat="44.3705126" lon="9.7716355"><ele>1132.0</ele><time>2026-04-26T10:15:41.865Z</time></trkpt><trkpt lat="44.3705932" lon="9.7716158"><ele>1132.0</ele><time>2026-04-26T10:15:42.865Z</time></trkpt><trkpt lat="44.3706721" lon="9.7715971"><ele>1132.0</ele><time>2026-04-26T10:15:43.864Z</time></trkpt><trkpt lat="44.3707555" lon="9.7715918"><ele>1132.8333333333333</ele><time>2026-04-26T10:15:44.864Z</time></trkpt><trkpt lat="44.370843" lon="9.7715894"><ele>1133.6666666666665</ele><time>2026-04-26T10:15:45.864Z</time></trkpt><trkpt lat="44.3709332" lon="9.7715901"><ele>1134.5</ele><time>2026-04-26T10:15:46.864Z</time></trkpt><trkpt lat="44.3710129" lon="9.7716035"><ele>1135.3333333333333</ele><time>2026-04-26T10:15:47.864Z</time></trkpt><trkpt lat="44.3710971" lon="9.7716013"><ele>1136.1666666666667</ele><time>2026-04-26T10:15:48.864Z</time></trkpt><trkpt lat="44.3711815" lon="9.7715915"><ele>1137.0</ele><time>2026-04-26T10:15:49.865Z</time></trkpt><trkpt lat="44.3712719" lon="9.7715826"><ele>1137.1666666666667</ele><time>2026-04-26T10:15:50.865Z</time></trkpt><trkpt lat="44.3713576" lon="9.771578"><ele>1137.3333333333333</ele><time>2026-04-26T10:15:51.864Z</time></trkpt><trkpt lat="44.3714489" lon="9.7715782"><ele>1137.5</ele><time>2026-04-26T10:15:52.864Z</time></trkpt><trkpt lat="44.3715271" lon="9.7715646"><ele>1137.6666666666665</ele><time>2026-04-26T10:15:53.864Z</time></trkpt><trkpt lat="44.3715938" lon="9.7715305"><ele>1137.8333333333333</ele><time>2026-04-26T10:15:54.865Z</time></trkpt><trkpt lat="44.3716531" lon="9.7714748"><ele>1138.0</ele><time>2026-04-26T10:15:55.865Z</time></trkpt><trkpt lat="44.3717308" lon="9.7714256"><ele>1138.0</ele><time>2026-04-26T10:15:56.864Z</time></trkpt><trkpt lat="44.3718205" lon="9.7713855"><ele>1138.0</ele><time>2026-04-26T10:15:57.864Z</time></trkpt><trkpt lat="44.3719051" lon="9.7713582"><ele>1138.0</ele><time>2026-04-26T10:15:58.864Z</time></trkpt><trkpt lat="44.3719951" lon="9.7713578"><ele>1138.0</ele><time>2026-04-26T10:15:59.864Z</time></trkpt><trkpt lat="44.3720845" lon="9.7713756"><ele>1138.0</ele><time>2026-04-26T10:16:00.864Z</time></trkpt><trkpt lat="44.3721639" lon="9.7714157"><ele>1138.0</ele><time>2026-04-26T10:16:01.864Z</time></trkpt><trkpt lat="44.3722456" lon="9.7714774"><ele>1138.5</ele><time>2026-04-26T10:16:02.866Z</time></trkpt><trkpt lat="44.372314" lon="9.7715411"><ele>1139.0</ele><time>2026-04-26T10:16:03.865Z</time></trkpt><trkpt lat="44.3723832" lon="9.7716041"><ele>1139.5</ele><time>2026-04-26T10:16:04.866Z</time></trkpt><trkpt lat="44.372453" lon="9.7716493"><ele>1140.0</ele><time>2026-04-26T10:16:05.864Z</time></trkpt><trkpt lat="44.3725291" lon="9.7716911"><ele>1140.5</ele><time>2026-04-26T10:16:06.864Z</time></trkpt><trkpt lat="44.3726236" lon="9.7717352"><ele>1141.0</ele><time>2026-04-26T10:16:07.865Z</time></trkpt><trkpt lat="44.3727146" lon="9.7717839"><ele>1141.0</ele><time>2026-04-26T10:16:08.865Z</time></trkpt><trkpt lat="44.3727938" lon="9.7718415"><ele>1141.0</ele><time>2026-04-26T10:16:09.864Z</time></trkpt><trkpt lat="44.3728606" lon="9.7719058"><ele>1141.0</ele><time>2026-04-26T10:16:10.864Z</time></trkpt><trkpt lat="44.3729251" lon="9.7719865"><ele>1141.0</ele><time>2026-04-26T10:16:11.864Z</time></trkpt><trkpt lat="44.372965" lon="9.7720752"><ele>1141.0</ele><time>2026-04-26T10:16:12.864Z</time></trkpt><trkpt lat="44.3730028" lon="9.7721815"><ele>1141.0</ele><time>2026-04-26T10:16:13.864Z</time></trkpt><trkpt lat="44.3730289" lon="9.7722897"><ele>1141.5</ele><time>2026-04-26T10:16:14.865Z</time></trkpt><trkpt lat="44.3730492" lon="9.7723845"><ele>1142.0</ele><time>2026-04-26T10:16:15.866Z</time></trkpt><trkpt lat="44.3730737" lon="9.7724789"><ele>1142.5</ele><time>2026-04-26T10:16:16.865Z</time></trkpt><trkpt lat="44.3731155" lon="9.7725822"><ele>1143.0</ele><time>2026-04-26T10:16:18.864Z</time></trkpt><trkpt lat="44.3731789" lon="9.7726417"><ele>1143.5</ele><time>2026-04-26T10:16:20.865Z</time></trkpt><trkpt lat="44.3732804" lon="9.7726545"><ele>1144.0</ele><time>2026-04-26T10:16:22.864Z</time></trkpt><trkpt lat="44.3733354" lon="9.7725802"><ele>1143.9999999999998</ele><time>2026-04-26T10:16:25.865Z</time></trkpt><trkpt lat="44.3732826" lon="9.7725268"><ele>1144.0</ele><time>2026-04-26T10:16:28.864Z</time></trkpt><trkpt lat="44.3732257" lon="9.7724714"><ele>1144.0</ele><time>2026-04-26T10:29:05.858Z</time></trkpt><trkpt lat="44.373177" lon="9.7724143"><ele>1144.0</ele><time>2026-04-26T10:29:07.858Z</time></trkpt><trkpt lat="44.3731328" lon="9.7723413"><ele>1144.0</ele><time>2026-04-26T10:29:09.858Z</time></trkpt><trkpt lat="44.3731162" lon="9.7722141"><ele>1143.9999999999998</ele><time>2026-04-26T10:29:11.859Z</time></trkpt><trkpt lat="44.3731419" lon="9.7721304"><ele>1144.0</ele><time>2026-04-26T10:29:12.858Z</time></trkpt><trkpt lat="44.3731876" lon="9.7720541"><ele>1144.0</ele><time>2026-04-26T10:29:13.858Z</time></trkpt><trkpt lat="44.37325" lon="9.7719977"><ele>1144.0</ele><time>2026-04-26T10:29:14.858Z</time></trkpt><trkpt lat="44.3733237" lon="9.7719763"><ele>1144.0</ele><time>2026-04-26T10:29:15.859Z</time></trkpt><trkpt lat="44.3734051" lon="9.7719888"><ele>1144.0</ele><time>2026-04-26T10:29:16.859Z</time></trkpt><trkpt lat="44.3734814" lon="9.7720228"><ele>1144.0</ele><time>2026-04-26T10:29:17.858Z</time></trkpt><trkpt lat="44.3735522" lon="9.7720569"><ele>1144.0</ele><time>2026-04-26T10:29:18.858Z</time></trkpt><trkpt lat="44.3736231" lon="9.7720865"><ele>1144.0</ele><time>2026-04-26T10:29:19.859Z</time></trkpt><trkpt lat="44.3736901" lon="9.7721083"><ele>1144.0</ele><time>2026-04-26T10:29:20.858Z</time></trkpt><trkpt lat="44.3737557" lon="9.7721307"><ele>1144.0</ele><time>2026-04-26T10:29:21.858Z</time></trkpt><trkpt lat="44.3738736" lon="9.7721828"><ele>1144.0</ele><time>2026-04-26T10:29:23.859Z</time></trkpt><trkpt lat="44.3739383" lon="9.7722129"><ele>1144.0</ele><time>2026-04-26T10:29:24.859Z</time></trkpt><trkpt lat="44.3740121" lon="9.7722385"><ele>1144.0</ele><time>2026-04-26T10:29:25.858Z</time></trkpt><trkpt lat="44.3740745" lon="9.7722742"><ele>1144.6666666666665</ele><time>2026-04-26T10:29:26.859Z</time></trkpt><trkpt lat="44.3741498" lon="9.7723062"><ele>1145.3333333333333</ele><time>2026-04-26T10:29:27.858Z</time></trkpt><trkpt lat="44.3742278" lon="9.772333"><ele>1146.0</ele><time>2026-04-26T10:29:28.86Z</time></trkpt><trkpt lat="44.3743123" lon="9.772345"><ele>1146.6666666666667</ele><time>2026-04-26T10:29:29.858Z</time></trkpt><trkpt lat="44.3743907" lon="9.7723491"><ele>1147.3333333333335</ele><time>2026-04-26T10:29:30.859Z</time></trkpt><trkpt lat="44.3744585" lon="9.7723508"><ele>1148.0</ele><time>2026-04-26T10:29:31.858Z</time></trkpt><trkpt lat="44.3745257" lon="9.7723431"><ele>1148.0</ele><time>2026-04-26T10:29:32.86Z</time></trkpt><trkpt lat="44.3746572" lon="9.7723133"><ele>1148.0</ele><time>2026-04-26T10:29:34.859Z</time></trkpt><trkpt lat="44.3747315" lon="9.7722924"><ele>1148.0</ele><time>2026-04-26T10:29:35.858Z</time></trkpt><trkpt lat="44.3748109" lon="9.7722658"><ele>1148.0</ele><time>2026-04-26T10:29:36.858Z</time></trkpt><trkpt lat="44.3748989" lon="9.7722332"><ele>1148.0</ele><time>2026-04-26T10:29:37.859Z</time></trkpt><trkpt lat="44.3749891" lon="9.7721948"><ele>1148.0</ele><time>2026-04-26T10:29:38.858Z</time></trkpt><trkpt lat="44.3750851" lon="9.7721387"><ele>1148.0</ele><time>2026-04-26T10:29:39.858Z</time></trkpt><trkpt lat="44.3751858" lon="9.7720843"><ele>1148.0</ele><time>2026-04-26T10:29:40.859Z</time></trkpt><trkpt lat="44.3752876" lon="9.7720244"><ele>1148.0</ele><time>2026-04-26T10:29:41.858Z</time></trkpt><trkpt lat="44.375386" lon="9.7719565"><ele>1148.0</ele><time>2026-04-26T10:29:42.859Z</time></trkpt><trkpt lat="44.3754831" lon="9.7718779"><ele>1146.25</ele><time>2026-04-26T10:29:43.858Z</time></trkpt><trkpt lat="44.3755877" lon="9.7717858"><ele>1144.5</ele><time>2026-04-26T10:29:44.858Z</time></trkpt><trkpt lat="44.3756939" lon="9.7716893"><ele>1142.75</ele><time>2026-04-26T10:29:45.859Z</time></trkpt><trkpt lat="44.375803" lon="9.771587"><ele>1141.0</ele><time>2026-04-26T10:29:46.859Z</time></trkpt><trkpt lat="44.3759097" lon="9.7714758"><ele>1141.0</ele><time>2026-04-26T10:29:47.858Z</time></trkpt><trkpt lat="44.3760031" lon="9.7713447"><ele>1141.0</ele><time>2026-04-26T10:29:48.858Z</time></trkpt><trkpt lat="44.3760801" lon="9.7711748"><ele>1141.0</ele><time>2026-04-26T10:29:49.858Z</time></trkpt><trkpt lat="44.3761406" lon="9.7709875"><ele>1141.0</ele><time>2026-04-26T10:29:50.859Z</time></trkpt><trkpt lat="44.3761984" lon="9.7707917"><ele>1142.0</ele><time>2026-04-26T10:29:51.858Z</time></trkpt><trkpt lat="44.3762675" lon="9.7705968"><ele>1143.0</ele><time>2026-04-26T10:29:52.859Z</time></trkpt><trkpt lat="44.3763369" lon="9.7704197"><ele>1144.0</ele><time>2026-04-26T10:29:53.858Z</time></trkpt><trkpt lat="44.3763972" lon="9.7702518"><ele>1145.0</ele><time>2026-04-26T10:29:54.858Z</time></trkpt><trkpt lat="44.3764479" lon="9.7700932"><ele>1145.0</ele><time>2026-04-26T10:29:55.86Z</time></trkpt><trkpt lat="44.3764818" lon="9.7699352"><ele>1145.0</ele><time>2026-04-26T10:29:56.859Z</time></trkpt><trkpt lat="44.376503" lon="9.7697777"><ele>1145.0</ele><time>2026-04-26T10:29:57.858Z</time></trkpt><trkpt lat="44.3765146" lon="9.7696098"><ele>1145.0</ele><time>2026-04-26T10:29:58.858Z</time></trkpt><trkpt lat="44.3765201" lon="9.7694334"><ele>1144.0</ele><time>2026-04-26T10:29:59.859Z</time></trkpt><trkpt lat="44.3765126" lon="9.769255"><ele>1143.0</ele><time>2026-04-26T10:30:00.858Z</time></trkpt><trkpt lat="44.3764973" lon="9.7690704"><ele>1142.0</ele><time>2026-04-26T10:30:01.858Z</time></trkpt><trkpt lat="44.3764665" lon="9.7688904"><ele>1141.0</ele><time>2026-04-26T10:30:02.858Z</time></trkpt><trkpt lat="44.3764229" lon="9.7687115"><ele>1141.0</ele><time>2026-04-26T10:30:03.858Z</time></trkpt><trkpt lat="44.3763666" lon="9.7685406"><ele>1141.0</ele><time>2026-04-26T10:30:04.858Z</time></trkpt><trkpt lat="44.3763039" lon="9.7683627"><ele>1141.0</ele><time>2026-04-26T10:30:05.858Z</time></trkpt><trkpt lat="44.376245" lon="9.7681849"><ele>1141.0</ele><time>2026-04-26T10:30:06.858Z</time></trkpt><trkpt lat="44.3761914" lon="9.7680024"><ele>1135.75</ele><time>2026-04-26T10:30:07.858Z</time></trkpt><trkpt lat="44.3761394" lon="9.7678256"><ele>1130.5</ele><time>2026-04-26T10:30:08.858Z</time></trkpt><trkpt lat="44.3760841" lon="9.7676581"><ele>1125.25</ele><time>2026-04-26T10:30:09.858Z</time></trkpt><trkpt lat="44.376016" lon="9.7675239"><ele>1120.0</ele><time>2026-04-26T10:30:10.858Z</time></trkpt><trkpt lat="44.3759372" lon="9.7674042"><ele>1120.0</ele><time>2026-04-26T10:30:11.859Z</time></trkpt><trkpt lat="44.3758504" lon="9.7672934"><ele>1120.0</ele><time>2026-04-26T10:30:12.859Z</time></trkpt><trkpt lat="44.3757619" lon="9.76718"><ele>1120.0</ele><time>2026-04-26T10:30:13.859Z</time></trkpt><trkpt lat="44.3756795" lon="9.7670449"><ele>1120.0</ele><time>2026-04-26T10:30:14.858Z</time></trkpt><trkpt lat="44.3756143" lon="9.7668893"><ele>1121.8333333333333</ele><time>2026-04-26T10:30:15.858Z</time></trkpt><trkpt lat="44.3755671" lon="9.7667409"><ele>1123.6666666666665</ele><time>2026-04-26T10:30:16.858Z</time></trkpt><trkpt lat="44.3755394" lon="9.7666287"><ele>1125.5</ele><time>2026-04-26T10:30:17.859Z</time></trkpt><trkpt lat="44.3755302" lon="9.7665376"><ele>1127.3333333333333</ele><time>2026-04-26T10:30:18.859Z</time></trkpt><trkpt lat="44.3755197" lon="9.7664256"><ele>1129.1666666666667</ele><time>2026-04-26T10:30:20.858Z</time></trkpt><trkpt lat="44.3755057" lon="9.7663218"><ele>1131.0</ele><time>2026-04-26T10:30:24.859Z</time></trkpt><trkpt lat="44.3754808" lon="9.766231"><ele>1129.8</ele><time>2026-04-26T10:30:29.858Z</time></trkpt><trkpt lat="44.3754418" lon="9.7661166"><ele>1128.6</ele><time>2026-04-26T10:30:31.859Z</time></trkpt><trkpt lat="44.3754474" lon="9.7659912"><ele>1127.4</ele><time>2026-04-26T10:30:33.858Z</time></trkpt><trkpt lat="44.3755213" lon="9.7658692"><ele>1126.2</ele><time>2026-04-26T10:30:35.859Z</time></trkpt><trkpt lat="44.3756359" lon="9.7657893"><ele>1125.0</ele><time>2026-04-26T10:30:37.858Z</time></trkpt><trkpt lat="44.3757091" lon="9.7657436"><ele>1125.0</ele><time>2026-04-26T10:30:38.858Z</time></trkpt><trkpt lat="44.3757869" lon="9.7656804"><ele>1125.0</ele><time>2026-04-26T10:30:39.859Z</time></trkpt><trkpt lat="44.3758733" lon="9.7656194"><ele>1125.0</ele><time>2026-04-26T10:30:40.859Z</time></trkpt><trkpt lat="44.3759691" lon="9.7655669"><ele>1125.0</ele><time>2026-04-26T10:30:41.859Z</time></trkpt><trkpt lat="44.3760715" lon="9.7655044"><ele>1125.0</ele><time>2026-04-26T10:30:42.858Z</time></trkpt><trkpt lat="44.376187" lon="9.7654412"><ele>1125.0</ele><time>2026-04-26T10:30:43.858Z</time></trkpt><trkpt lat="44.3763091" lon="9.7653703"><ele>1125.0</ele><time>2026-04-26T10:30:44.858Z</time></trkpt><trkpt lat="44.3764336" lon="9.7652939"><ele>1125.0</ele><time>2026-04-26T10:30:45.858Z</time></trkpt><trkpt lat="44.3765575" lon="9.7652122"><ele>1125.0</ele><time>2026-04-26T10:30:46.859Z</time></trkpt><trkpt lat="44.3766809" lon="9.7651311"><ele>1120.5</ele><time>2026-04-26T10:30:47.858Z</time></trkpt><trkpt lat="44.3768061" lon="9.7650438"><ele>1116.0</ele><time>2026-04-26T10:30:48.858Z</time></trkpt><trkpt lat="44.3769288" lon="9.7649504"><ele>1111.5</ele><time>2026-04-26T10:30:49.858Z</time></trkpt><trkpt lat="44.3770534" lon="9.7648589"><ele>1107.0</ele><time>2026-04-26T10:30:50.858Z</time></trkpt><trkpt lat="44.3771773" lon="9.7647656"><ele>1105.0</ele><time>2026-04-26T10:30:51.858Z</time></trkpt><trkpt lat="44.3772943" lon="9.7646685"><ele>1103.0</ele><time>2026-04-26T10:30:52.859Z</time></trkpt><trkpt lat="44.3773969" lon="9.764573"><ele>1101.0</ele><time>2026-04-26T10:30:53.858Z</time></trkpt><trkpt lat="44.3774854" lon="9.7644716"><ele>1099.0</ele><time>2026-04-26T10:30:54.858Z</time></trkpt><trkpt lat="44.3775571" lon="9.7643446"><ele>1099.0</ele><time>2026-04-26T10:30:55.858Z</time></trkpt><trkpt lat="44.3776068" lon="9.7641884"><ele>1099.0</ele><time>2026-04-26T10:30:56.859Z</time></trkpt><trkpt lat="44.3776479" lon="9.7640105"><ele>1099.0</ele><time>2026-04-26T10:30:57.858Z</time></trkpt><trkpt lat="44.377698" lon="9.7638352"><ele>1099.0</ele><time>2026-04-26T10:30:58.858Z</time></trkpt><trkpt lat="44.3777623" lon="9.7637035"><ele>1099.0</ele><time>2026-04-26T10:30:59.858Z</time></trkpt><trkpt lat="44.3778182" lon="9.7635966"><ele>1099.0</ele><time>2026-04-26T10:31:00.858Z</time></trkpt><trkpt lat="44.3778479" lon="9.7635072"><ele>1099.0</ele><time>2026-04-26T10:31:01.858Z</time></trkpt><trkpt lat="44.3778644" lon="9.7634111"><ele>1099.0</ele><time>2026-04-26T10:31:03.858Z</time></trkpt><trkpt lat="44.3778486" lon="9.7633196"><ele>1099.0</ele><time>2026-04-26T10:31:05.858Z</time></trkpt><trkpt lat="44.3777946" lon="9.7631715"><ele>1099.0</ele><time>2026-04-26T10:31:07.857Z</time></trkpt><trkpt lat="44.377747" lon="9.7630752"><ele>1097.0</ele><time>2026-04-26T10:31:08.858Z</time></trkpt><trkpt lat="44.3777007" lon="9.7629807"><ele>1095.0</ele><time>2026-04-26T10:31:09.857Z</time></trkpt><trkpt lat="44.377656" lon="9.7628787"><ele>1093.0</ele><time>2026-04-26T10:31:10.857Z</time></trkpt><trkpt lat="44.377614" lon="9.7627732"><ele>1091.0</ele><time>2026-04-26T10:31:11.857Z</time></trkpt><trkpt lat="44.3775753" lon="9.7626601"><ele>1089.0</ele><time>2026-04-26T10:31:12.857Z</time></trkpt><trkpt lat="44.3775395" lon="9.7625382"><ele>1087.0</ele><time>2026-04-26T10:31:13.857Z</time></trkpt><trkpt lat="44.3775062" lon="9.7624055"><ele>1086.6</ele><time>2026-04-26T10:31:14.858Z</time></trkpt><trkpt lat="44.3774696" lon="9.7622619"><ele>1086.2</ele><time>2026-04-26T10:31:15.857Z</time></trkpt><trkpt lat="44.3774354" lon="9.7621101"><ele>1085.8</ele><time>2026-04-26T10:31:16.858Z</time></trkpt><trkpt lat="44.3774164" lon="9.7619566"><ele>1085.4</ele><time>2026-04-26T10:31:17.858Z</time></trkpt><trkpt lat="44.3774226" lon="9.7618057"><ele>1085.0</ele><time>2026-04-26T10:31:18.858Z</time></trkpt><trkpt lat="44.3774465" lon="9.7616705"><ele>1085.0</ele><time>2026-04-26T10:31:19.857Z</time></trkpt><trkpt lat="44.3774844" lon="9.7615461"><ele>1085.0</ele><time>2026-04-26T10:31:20.858Z</time></trkpt><trkpt lat="44.3775212" lon="9.7614307"><ele>1085.0</ele><time>2026-04-26T10:31:21.857Z</time></trkpt><trkpt lat="44.3775532" lon="9.7613123"><ele>1085.0</ele><time>2026-04-26T10:31:22.858Z</time></trkpt><trkpt lat="44.377576" lon="9.7611874"><ele>1085.0</ele><time>2026-04-26T10:31:23.857Z</time></trkpt><trkpt lat="44.3775867" lon="9.7610627"><ele>1084.6666666666667</ele><time>2026-04-26T10:31:24.857Z</time></trkpt><trkpt lat="44.3775732" lon="9.7609443"><ele>1084.3333333333335</ele><time>2026-04-26T10:31:25.858Z</time></trkpt><trkpt lat="44.3775297" lon="9.7608498"><ele>1084.0</ele><time>2026-04-26T10:31:26.857Z</time></trkpt><trkpt lat="44.3774625" lon="9.7607893"><ele>1083.6666666666667</ele><time>2026-04-26T10:31:27.857Z</time></trkpt><trkpt lat="44.3773823" lon="9.7607694"><ele>1083.3333333333333</ele><time>2026-04-26T10:31:28.859Z</time></trkpt><trkpt lat="44.3772883" lon="9.7607644"><ele>1083.0</ele><time>2026-04-26T10:31:29.857Z</time></trkpt><trkpt lat="44.3771898" lon="9.7607698"><ele>1080.6</ele><time>2026-04-26T10:31:30.858Z</time></trkpt><trkpt lat="44.3770883" lon="9.7607874"><ele>1078.1999999999998</ele><time>2026-04-26T10:31:31.857Z</time></trkpt><trkpt lat="44.3769869" lon="9.7608088"><ele>1075.8</ele><time>2026-04-26T10:31:32.857Z</time></trkpt><trkpt lat="44.3768867" lon="9.760832"><ele>1073.3999999999999</ele><time>2026-04-26T10:31:33.857Z</time></trkpt><trkpt lat="44.3767832" lon="9.7608443"><ele>1071.0</ele><time>2026-04-26T10:31:34.858Z</time></trkpt><trkpt lat="44.3766708" lon="9.7608402"><ele>1071.0</ele><time>2026-04-26T10:31:35.858Z</time></trkpt><trkpt lat="44.3765597" lon="9.7608238"><ele>1071.0</ele><time>2026-04-26T10:31:36.857Z</time></trkpt><trkpt lat="44.3764449" lon="9.760797"><ele>1071.0</ele><time>2026-04-26T10:31:37.858Z</time></trkpt><trkpt lat="44.3763244" lon="9.7607482"><ele>1071.0</ele><time>2026-04-26T10:31:38.859Z</time></trkpt><trkpt lat="44.3762025" lon="9.7606938"><ele>1067.0</ele><time>2026-04-26T10:31:39.857Z</time></trkpt><trkpt lat="44.3760799" lon="9.7606246"><ele>1063.0</ele><time>2026-04-26T10:31:40.857Z</time></trkpt><trkpt lat="44.3759636" lon="9.7605452"><ele>1059.0</ele><time>2026-04-26T10:31:41.857Z</time></trkpt><trkpt lat="44.3758522" lon="9.7604737"><ele>1055.0</ele><time>2026-04-26T10:31:42.857Z</time></trkpt><trkpt lat="44.375739" lon="9.7604087"><ele>1055.0</ele><time>2026-04-26T10:31:43.857Z</time></trkpt><trkpt lat="44.3756215" lon="9.7603558"><ele>1055.0</ele><time>2026-04-26T10:31:44.857Z</time></trkpt><trkpt lat="44.3755018" lon="9.7603206"><ele>1055.0</ele><time>2026-04-26T10:31:45.858Z</time></trkpt><trkpt lat="44.3753736" lon="9.7602933"><ele>1055.0</ele><time>2026-04-26T10:31:46.857Z</time></trkpt><trkpt lat="44.3752425" lon="9.7602706"><ele>1057.0</ele><time>2026-04-26T10:31:47.858Z</time></trkpt><trkpt lat="44.375104" lon="9.7602407"><ele>1059.0</ele><time>2026-04-26T10:31:48.858Z</time></trkpt><trkpt lat="44.3749651" lon="9.760203"><ele>1061.0</ele><time>2026-04-26T10:31:49.857Z</time></trkpt><trkpt lat="44.3748296" lon="9.7601565"><ele>1063.0</ele><time>2026-04-26T10:31:50.858Z</time></trkpt><trkpt lat="44.3746995" lon="9.7601036"><ele>1058.25</ele><time>2026-04-26T10:31:51.858Z</time></trkpt><trkpt lat="44.3745657" lon="9.7600489"><ele>1053.5</ele><time>2026-04-26T10:31:52.857Z</time></trkpt><trkpt lat="44.3744345" lon="9.7600018"><ele>1048.75</ele><time>2026-04-26T10:31:53.857Z</time></trkpt><trkpt lat="44.3743035" lon="9.7599523"><ele>1044.0</ele><time>2026-04-26T10:31:54.857Z</time></trkpt><trkpt lat="44.3741723" lon="9.7599069"><ele>1044.0</ele><time>2026-04-26T10:31:55.857Z</time></trkpt><trkpt lat="44.3740519" lon="9.7598561"><ele>1044.0</ele><time>2026-04-26T10:31:56.857Z</time></trkpt><trkpt lat="44.373948" lon="9.759792"><ele>1044.0</ele><time>2026-04-26T10:31:57.859Z</time></trkpt><trkpt lat="44.3738575" lon="9.7596935"><ele>1044.0</ele><time>2026-04-26T10:31:58.857Z</time></trkpt><trkpt lat="44.3737821" lon="9.7595601"><ele>1043.0</ele><time>2026-04-26T10:31:59.857Z</time></trkpt><trkpt lat="44.3737204" lon="9.7594145"><ele>1042.0</ele><time>2026-04-26T10:32:00.859Z</time></trkpt><trkpt lat="44.3736719" lon="9.7592706"><ele>1041.0</ele><time>2026-04-26T10:32:01.857Z</time></trkpt><trkpt lat="44.3736243" lon="9.7591475"><ele>1040.0</ele><time>2026-04-26T10:32:02.858Z</time></trkpt><trkpt lat="44.3735599" lon="9.7590676"><ele>1039.0</ele><time>2026-04-26T10:32:03.858Z</time></trkpt><trkpt lat="44.3734913" lon="9.7590259"><ele>1039.0</ele><time>2026-04-26T10:32:04.857Z</time></trkpt><trkpt lat="44.3734082" lon="9.7590421"><ele>1039.0</ele><time>2026-04-26T10:32:05.857Z</time></trkpt><trkpt lat="44.3732925" lon="9.7591307"><ele>1039.0</ele><time>2026-04-26T10:32:06.857Z</time></trkpt><trkpt lat="44.3731884" lon="9.7591934"><ele>1039.0</ele><time>2026-04-26T10:32:07.857Z</time></trkpt><trkpt lat="44.3730729" lon="9.7592642"><ele>1038.0</ele><time>2026-04-26T10:32:08.857Z</time></trkpt><trkpt lat="44.3729534" lon="9.7593502"><ele>1037.0</ele><time>2026-04-26T10:32:09.858Z</time></trkpt><trkpt lat="44.3728286" lon="9.7594432"><ele>1036.0</ele><time>2026-04-26T10:32:10.857Z</time></trkpt><trkpt lat="44.3727062" lon="9.7595332"><ele>1035.0</ele><time>2026-04-26T10:32:11.857Z</time></trkpt><trkpt lat="44.3725849" lon="9.7596137"><ele>1030.25</ele><time>2026-04-26T10:32:12.857Z</time></trkpt><trkpt lat="44.3724605" lon="9.7596827"><ele>1025.5</ele><time>2026-04-26T10:32:13.857Z</time></trkpt><trkpt lat="44.3723278" lon="9.7597204"><ele>1020.75</ele><time>2026-04-26T10:32:14.857Z</time></trkpt><trkpt lat="44.3721969" lon="9.7597193"><ele>1016.0</ele><time>2026-04-26T10:32:15.857Z</time></trkpt><trkpt lat="44.3720718" lon="9.7596919"><ele>1014.25</ele><time>2026-04-26T10:32:16.857Z</time></trkpt><trkpt lat="44.3719456" lon="9.7596634"><ele>1012.5</ele><time>2026-04-26T10:32:17.857Z</time></trkpt><trkpt lat="44.3718278" lon="9.7596719"><ele>1010.75</ele><time>2026-04-26T10:32:18.857Z</time></trkpt><trkpt lat="44.3717044" lon="9.7597373"><ele>1009.0</ele><time>2026-04-26T10:32:19.857Z</time></trkpt><trkpt lat="44.3715984" lon="9.7597981"><ele>1009.0</ele><time>2026-04-26T10:32:20.858Z</time></trkpt><trkpt lat="44.3714996" lon="9.7598731"><ele>1009.0000000000001</ele><time>2026-04-26T10:32:21.859Z</time></trkpt><trkpt lat="44.3714021" lon="9.7599434"><ele>1009.0000000000001</ele><time>2026-04-26T10:32:22.858Z</time></trkpt><trkpt lat="44.3713043" lon="9.7599927"><ele>1009.0</ele><time>2026-04-26T10:32:23.858Z</time></trkpt><trkpt lat="44.3712059" lon="9.7600062"><ele>1009.0</ele><time>2026-04-26T10:32:24.858Z</time></trkpt><trkpt lat="44.3711098" lon="9.7599724"><ele>1006.25</ele><time>2026-04-26T10:32:25.857Z</time></trkpt><trkpt lat="44.3710224" lon="9.7598951"><ele>1003.5</ele><time>2026-04-26T10:32:26.857Z</time></trkpt><trkpt lat="44.3709286" lon="9.7598016"><ele>1000.75</ele><time>2026-04-26T10:32:27.857Z</time></trkpt><trkpt lat="44.3708287" lon="9.7597046"><ele>998.0</ele><time>2026-04-26T10:32:28.858Z</time></trkpt><trkpt lat="44.3707243" lon="9.7595899"><ele>998.0</ele><time>2026-04-26T10:32:29.858Z</time></trkpt><trkpt lat="44.3706203" lon="9.7594573"><ele>998.0</ele><time>2026-04-26T10:32:30.857Z</time></trkpt><trkpt lat="44.3705206" lon="9.7593235"><ele>998.0</ele><time>2026-04-26T10:32:31.857Z</time></trkpt><trkpt lat="44.3704187" lon="9.7591958"><ele>998.0</ele><time>2026-04-26T10:32:32.857Z</time></trkpt><trkpt lat="44.3703131" lon="9.7590892"><ele>998.75</ele><time>2026-04-26T10:32:33.858Z</time></trkpt><trkpt lat="44.3701991" lon="9.7590075"><ele>999.5</ele><time>2026-04-26T10:32:34.857Z</time></trkpt><trkpt lat="44.3700835" lon="9.7589901"><ele>1000.25</ele><time>2026-04-26T10:32:35.857Z</time></trkpt><trkpt lat="44.3699581" lon="9.759018"><ele>1001.0</ele><time>2026-04-26T10:32:36.858Z</time></trkpt><trkpt lat="44.3698397" lon="9.7590853"><ele>1001.0</ele><time>2026-04-26T10:32:37.858Z</time></trkpt><trkpt lat="44.3697199" lon="9.7591869"><ele>1001.0</ele><time>2026-04-26T10:32:38.857Z</time></trkpt><trkpt lat="44.3696181" lon="9.7593122"><ele>1001.0</ele><time>2026-04-26T10:32:39.857Z</time></trkpt><trkpt lat="44.3695213" lon="9.7594377"><ele>1001.0</ele><time>2026-04-26T10:32:40.857Z</time></trkpt><trkpt lat="44.3694323" lon="9.759538"><ele>996.5999999999999</ele><time>2026-04-26T10:32:41.857Z</time></trkpt><trkpt lat="44.3693306" lon="9.7595911"><ele>992.1999999999999</ele><time>2026-04-26T10:32:42.857Z</time></trkpt><trkpt lat="44.3692243" lon="9.7595951"><ele>987.8000000000001</ele><time>2026-04-26T10:32:43.857Z</time></trkpt><trkpt lat="44.3691256" lon="9.7595595"><ele>983.4000000000001</ele><time>2026-04-26T10:32:44.857Z</time></trkpt><trkpt lat="44.3690171" lon="9.7595054"><ele>979.0</ele><time>2026-04-26T10:32:45.857Z</time></trkpt><trkpt lat="44.368907" lon="9.7594484"><ele>977.0</ele><time>2026-04-26T10:32:46.857Z</time></trkpt><trkpt lat="44.3687948" lon="9.7593909"><ele>975.0</ele><time>2026-04-26T10:32:47.859Z</time></trkpt><trkpt lat="44.3686786" lon="9.7593461"><ele>973.0</ele><time>2026-04-26T10:32:48.857Z</time></trkpt><trkpt lat="44.3685698" lon="9.7593413"><ele>971.0</ele><time>2026-04-26T10:32:49.857Z</time></trkpt><trkpt lat="44.3684714" lon="9.7593954"><ele>971.0</ele><time>2026-04-26T10:32:50.857Z</time></trkpt><trkpt lat="44.368365" lon="9.7594476"><ele>971.0</ele><time>2026-04-26T10:32:51.858Z</time></trkpt><trkpt lat="44.368243" lon="9.7595416"><ele>971.0</ele><time>2026-04-26T10:32:52.857Z</time></trkpt><trkpt lat="44.3681206" lon="9.7596159"><ele>971.0</ele><time>2026-04-26T10:32:53.858Z</time></trkpt><trkpt lat="44.3679864" lon="9.7596914"><ele>969.75</ele><time>2026-04-26T10:32:54.857Z</time></trkpt><trkpt lat="44.3678429" lon="9.7597614"><ele>968.5</ele><time>2026-04-26T10:32:55.857Z</time></trkpt><trkpt lat="44.3676975" lon="9.7598115"><ele>967.25</ele><time>2026-04-26T10:32:56.858Z</time></trkpt><trkpt lat="44.3675632" lon="9.7598327"><ele>966.0</ele><time>2026-04-26T10:32:57.859Z</time></trkpt><trkpt lat="44.3674415" lon="9.7598145"><ele>966.0</ele><time>2026-04-26T10:32:58.857Z</time></trkpt><trkpt lat="44.367332" lon="9.7597415"><ele>966.0</ele><time>2026-04-26T10:32:59.857Z</time></trkpt><trkpt lat="44.367243" lon="9.7596306"><ele>966.0</ele><time>2026-04-26T10:33:00.859Z</time></trkpt><trkpt lat="44.3671491" lon="9.7594966"><ele>966.0</ele><time>2026-04-26T10:33:01.858Z</time></trkpt><trkpt lat="44.3670386" lon="9.7593562"><ele>965.5</ele><time>2026-04-26T10:33:02.858Z</time></trkpt><trkpt lat="44.3669243" lon="9.7592183"><ele>965.0</ele><time>2026-04-26T10:33:03.858Z</time></trkpt><trkpt lat="44.3668148" lon="9.7590789"><ele>964.5</ele><time>2026-04-26T10:33:04.858Z</time></trkpt><trkpt lat="44.3667203" lon="9.7589295"><ele>964.0</ele><time>2026-04-26T10:33:05.858Z</time></trkpt><trkpt lat="44.3666421" lon="9.7587677"><ele>964.0</ele><time>2026-04-26T10:33:06.857Z</time></trkpt><trkpt lat="44.3665768" lon="9.7585984"><ele>964.0</ele><time>2026-04-26T10:33:07.857Z</time></trkpt><trkpt lat="44.3665183" lon="9.7584444"><ele>964.0</ele><time>2026-04-26T10:33:08.857Z</time></trkpt><trkpt lat="44.3664601" lon="9.7583196"><ele>964.0</ele><time>2026-04-26T10:33:09.858Z</time></trkpt><trkpt lat="44.3663964" lon="9.758187"><ele>961.4000000000001</ele><time>2026-04-26T10:33:10.857Z</time></trkpt><trkpt lat="44.3663265" lon="9.7582188"><ele>958.8000000000001</ele><time>2026-04-26T10:33:11.857Z</time></trkpt><trkpt lat="44.3662102" lon="9.7583264"><ele>956.1999999999999</ele><time>2026-04-26T10:33:13.857Z</time></trkpt><trkpt lat="44.3661483" lon="9.7584309"><ele>953.5999999999999</ele><time>2026-04-26T10:33:14.857Z</time></trkpt><trkpt lat="44.3660764" lon="9.7585613"><ele>951.0</ele><time>2026-04-26T10:33:15.857Z</time></trkpt><trkpt lat="44.3660051" lon="9.7586968"><ele>951.0</ele><time>2026-04-26T10:33:16.857Z</time></trkpt><trkpt lat="44.365936" lon="9.7588344"><ele>951.0</ele><time>2026-04-26T10:33:17.857Z</time></trkpt><trkpt lat="44.3658646" lon="9.7589768"><ele>951.0</ele><time>2026-04-26T10:33:18.858Z</time></trkpt><trkpt lat="44.3657919" lon="9.7591076"><ele>951.0</ele><time>2026-04-26T10:33:19.858Z</time></trkpt><trkpt lat="44.365725" lon="9.7592384"><ele>950.4</ele><time>2026-04-26T10:33:20.858Z</time></trkpt><trkpt lat="44.365669" lon="9.7593821"><ele>949.8</ele><time>2026-04-26T10:33:21.857Z</time></trkpt><trkpt lat="44.3656554" lon="9.7595271"><ele>949.1999999999999</ele><time>2026-04-26T10:33:22.857Z</time></trkpt><trkpt lat="44.3656732" lon="9.7596698"><ele>948.5999999999999</ele><time>2026-04-26T10:33:23.857Z</time></trkpt><trkpt lat="44.3657161" lon="9.7598005"><ele>948.0</ele><time>2026-04-26T10:33:24.857Z</time></trkpt><trkpt lat="44.3657635" lon="9.7599194"><ele>948.0</ele><time>2026-04-26T10:33:25.859Z</time></trkpt><trkpt lat="44.3657919" lon="9.7600471"><ele>948.0</ele><time>2026-04-26T10:33:26.857Z</time></trkpt><trkpt lat="44.3657973" lon="9.7601802"><ele>948.0</ele><time>2026-04-26T10:33:27.857Z</time></trkpt><trkpt lat="44.3657707" lon="9.7603199"><ele>948.0</ele><time>2026-04-26T10:33:28.858Z</time></trkpt><trkpt lat="44.36572" lon="9.7604645"><ele>948.0</ele><time>2026-04-26T10:33:29.857Z</time></trkpt><trkpt lat="44.365659" lon="9.7606099"><ele>944.25</ele><time>2026-04-26T10:33:30.857Z</time></trkpt><trkpt lat="44.3655898" lon="9.7607324"><ele>940.5</ele><time>2026-04-26T10:33:31.858Z</time></trkpt><trkpt lat="44.365499" lon="9.7608229"><ele>936.75</ele><time>2026-04-26T10:33:32.857Z</time></trkpt><trkpt lat="44.365392" lon="9.7608882"><ele>933.0</ele><time>2026-04-26T10:33:33.857Z</time></trkpt><trkpt lat="44.365272" lon="9.7609442"><ele>933.0</ele><time>2026-04-26T10:33:34.858Z</time></trkpt><trkpt lat="44.3651561" lon="9.7609992"><ele>933.0</ele><time>2026-04-26T10:33:35.859Z</time></trkpt><trkpt lat="44.3650432" lon="9.7610428"><ele>933.0</ele><time>2026-04-26T10:33:36.857Z</time></trkpt><trkpt lat="44.3649318" lon="9.761066"><ele>933.0</ele><time>2026-04-26T10:33:37.856Z</time></trkpt><trkpt lat="44.3648203" lon="9.7610517"><ele>933.0</ele><time>2026-04-26T10:33:38.856Z</time></trkpt><trkpt lat="44.3647129" lon="9.7610096"><ele>933.0</ele><time>2026-04-26T10:33:39.857Z</time></trkpt><trkpt lat="44.3646072" lon="9.7609602"><ele>933.0</ele><time>2026-04-26T10:33:40.856Z</time></trkpt><trkpt lat="44.3645008" lon="9.7609205"><ele>933.0</ele><time>2026-04-26T10:33:41.856Z</time></trkpt><trkpt lat="44.3643938" lon="9.7608865"><ele>933.0</ele><time>2026-04-26T10:33:42.856Z</time></trkpt><trkpt lat="44.3642881" lon="9.7608379"><ele>929.5999999999999</ele><time>2026-04-26T10:33:43.856Z</time></trkpt><trkpt lat="44.3641969" lon="9.7607661"><ele>926.1999999999999</ele><time>2026-04-26T10:33:44.856Z</time></trkpt><trkpt lat="44.3641267" lon="9.7606688"><ele>922.8</ele><time>2026-04-26T10:33:45.856Z</time></trkpt><trkpt lat="44.3640837" lon="9.7605485"><ele>919.4</ele><time>2026-04-26T10:33:46.856Z</time></trkpt><trkpt lat="44.3641" lon="9.7604177"><ele>916.0</ele><time>2026-04-26T10:33:47.856Z</time></trkpt><trkpt lat="44.3641454" lon="9.76029"><ele>915.75</ele><time>2026-04-26T10:33:48.856Z</time></trkpt><trkpt lat="44.3642039" lon="9.76015"><ele>915.5</ele><time>2026-04-26T10:33:49.856Z</time></trkpt><trkpt lat="44.3642609" lon="9.7599947"><ele>915.25</ele><time>2026-04-26T10:33:50.856Z</time></trkpt><trkpt lat="44.3643083" lon="9.7598336"><ele>915.0</ele><time>2026-04-26T10:33:51.856Z</time></trkpt><trkpt lat="44.3643263" lon="9.7596661"><ele>915.0</ele><time>2026-04-26T10:33:52.856Z</time></trkpt><trkpt lat="44.3643274" lon="9.7594974"><ele>915.0</ele><time>2026-04-26T10:33:53.858Z</time></trkpt><trkpt lat="44.3643208" lon="9.7593229"><ele>915.0</ele><time>2026-04-26T10:33:54.857Z</time></trkpt><trkpt lat="44.3643179" lon="9.759132"><ele>915.0</ele><time>2026-04-26T10:33:55.856Z</time></trkpt><trkpt lat="44.364321" lon="9.7589463"><ele>913.25</ele><time>2026-04-26T10:33:56.856Z</time></trkpt><trkpt lat="44.3643424" lon="9.7587685"><ele>911.5</ele><time>2026-04-26T10:33:57.857Z</time></trkpt><trkpt lat="44.3643807" lon="9.7585882"><ele>909.75</ele><time>2026-04-26T10:33:58.858Z</time></trkpt><trkpt lat="44.364445" lon="9.7584113"><ele>908.0</ele><time>2026-04-26T10:33:59.856Z</time></trkpt><trkpt lat="44.3645227" lon="9.7582357"><ele>907.25</ele><time>2026-04-26T10:34:00.856Z</time></trkpt><trkpt lat="44.3645974" lon="9.7580555"><ele>906.5</ele><time>2026-04-26T10:34:01.857Z</time></trkpt><trkpt lat="44.3646608" lon="9.7578815"><ele>905.75</ele><time>2026-04-26T10:34:02.857Z</time></trkpt><trkpt lat="44.3647208" lon="9.7577088"><ele>905.0</ele><time>2026-04-26T10:34:03.856Z</time></trkpt><trkpt lat="44.3647697" lon="9.7575478"><ele>904.2</ele><time>2026-04-26T10:34:04.856Z</time></trkpt><trkpt lat="44.3647961" lon="9.7574006"><ele>903.4</ele><time>2026-04-26T10:34:05.856Z</time></trkpt><trkpt lat="44.3647991" lon="9.7572622"><ele>902.5999999999999</ele><time>2026-04-26T10:34:06.856Z</time></trkpt><trkpt lat="44.3647631" lon="9.7571333"><ele>901.8</ele><time>2026-04-26T10:34:07.857Z</time></trkpt><trkpt lat="44.3646926" lon="9.7570268"><ele>901.0</ele><time>2026-04-26T10:34:08.857Z</time></trkpt><trkpt lat="44.3645992" lon="9.7569277"><ele>902.25</ele><time>2026-04-26T10:34:09.857Z</time></trkpt><trkpt lat="44.3644886" lon="9.7568665"><ele>903.5</ele><time>2026-04-26T10:34:10.857Z</time></trkpt><trkpt lat="44.3643606" lon="9.7568265"><ele>904.75</ele><time>2026-04-26T10:34:11.856Z</time></trkpt><trkpt lat="44.3642228" lon="9.7568032"><ele>906.0</ele><time>2026-04-26T10:34:12.856Z</time></trkpt><trkpt lat="44.3640714" lon="9.7567988"><ele>906.0</ele><time>2026-04-26T10:34:13.856Z</time></trkpt><trkpt lat="44.3639231" lon="9.7567947"><ele>906.0</ele><time>2026-04-26T10:34:14.856Z</time></trkpt><trkpt lat="44.3637807" lon="9.7567766"><ele>906.0</ele><time>2026-04-26T10:34:15.856Z</time></trkpt><trkpt lat="44.3636465" lon="9.7567512"><ele>906.0</ele><time>2026-04-26T10:34:16.856Z</time></trkpt><trkpt lat="44.3635209" lon="9.7567276"><ele>902.5</ele><time>2026-04-26T10:34:17.857Z</time></trkpt><trkpt lat="44.3634074" lon="9.7567244"><ele>899.0</ele><time>2026-04-26T10:34:18.856Z</time></trkpt><trkpt lat="44.3632982" lon="9.7567427"><ele>895.5</ele><time>2026-04-26T10:34:19.856Z</time></trkpt><trkpt lat="44.3631862" lon="9.7568001"><ele>892.0</ele><time>2026-04-26T10:34:20.856Z</time></trkpt><trkpt lat="44.363106" lon="9.7569153"><ele>888.75</ele><time>2026-04-26T10:34:21.857Z</time></trkpt><trkpt lat="44.3630274" lon="9.7570298"><ele>885.5</ele><time>2026-04-26T10:34:22.856Z</time></trkpt><trkpt lat="44.3629486" lon="9.7571618"><ele>882.25</ele><time>2026-04-26T10:34:23.856Z</time></trkpt><trkpt lat="44.3629083" lon="9.7573437"><ele>879.0</ele><time>2026-04-26T10:34:24.856Z</time></trkpt><trkpt lat="44.3628341" lon="9.7575114"><ele>879.0</ele><time>2026-04-26T10:34:25.856Z</time></trkpt><trkpt lat="44.3627644" lon="9.7576881"><ele>879.0</ele><time>2026-04-26T10:34:26.856Z</time></trkpt><trkpt lat="44.3626859" lon="9.7578676"><ele>879.0</ele><time>2026-04-26T10:34:27.857Z</time></trkpt><trkpt lat="44.3626164" lon="9.7580334"><ele>879.0</ele><time>2026-04-26T10:34:28.856Z</time></trkpt><trkpt lat="44.3625533" lon="9.7581695"><ele>879.0</ele><time>2026-04-26T10:34:29.856Z</time></trkpt><trkpt lat="44.3624829" lon="9.758277"><ele>879.0000000000001</ele><time>2026-04-26T10:34:30.857Z</time></trkpt><trkpt lat="44.3623996" lon="9.7583203"><ele>879.0000000000001</ele><time>2026-04-26T10:34:31.856Z</time></trkpt><trkpt lat="44.3623126" lon="9.7583083"><ele>879.0</ele><time>2026-04-26T10:34:32.856Z</time></trkpt><trkpt lat="44.3622412" lon="9.7582438"><ele>879.0</ele><time>2026-04-26T10:34:33.856Z</time></trkpt><trkpt lat="44.3621861" lon="9.7581399"><ele>876.75</ele><time>2026-04-26T10:34:34.857Z</time></trkpt><trkpt lat="44.3621442" lon="9.7579983"><ele>874.5</ele><time>2026-04-26T10:34:35.856Z</time></trkpt><trkpt lat="44.3621121" lon="9.7578535"><ele>872.25</ele><time>2026-04-26T10:34:36.856Z</time></trkpt><trkpt lat="44.3620752" lon="9.7576888"><ele>870.0</ele><time>2026-04-26T10:34:37.857Z</time></trkpt><trkpt lat="44.3620469" lon="9.7575107"><ele>870.0</ele><time>2026-04-26T10:34:38.857Z</time></trkpt><trkpt lat="44.3620132" lon="9.7573295"><ele>870.0</ele><time>2026-04-26T10:34:39.856Z</time></trkpt><trkpt lat="44.3619794" lon="9.7571431"><ele>870.0</ele><time>2026-04-26T10:34:40.856Z</time></trkpt><trkpt lat="44.3619452" lon="9.7569553"><ele>870.0</ele><time>2026-04-26T10:34:41.857Z</time></trkpt><trkpt lat="44.3619164" lon="9.756774"><ele>870.0</ele><time>2026-04-26T10:34:42.856Z</time></trkpt><trkpt lat="44.3618877" lon="9.7566203"><ele>870.0</ele><time>2026-04-26T10:34:43.856Z</time></trkpt><trkpt lat="44.3618432" lon="9.756503"><ele>870.0</ele><time>2026-04-26T10:34:44.856Z</time></trkpt><trkpt lat="44.3617824" lon="9.7564201"><ele>870.0</ele><time>2026-04-26T10:34:45.856Z</time></trkpt><trkpt lat="44.3616997" lon="9.7563853"><ele>870.0</ele><time>2026-04-26T10:34:46.856Z</time></trkpt><trkpt lat="44.3616126" lon="9.7563966"><ele>870.0</ele><time>2026-04-26T10:34:47.856Z</time></trkpt><trkpt lat="44.3615212" lon="9.7564451"><ele>870.0</ele><time>2026-04-26T10:34:48.856Z</time></trkpt><trkpt lat="44.3614274" lon="9.7565189"><ele>870.0</ele><time>2026-04-26T10:34:49.856Z</time></trkpt><trkpt lat="44.3613298" lon="9.7565988"><ele>870.0</ele><time>2026-04-26T10:34:50.857Z</time></trkpt><trkpt lat="44.3612288" lon="9.7566882"><ele>870.0</ele><time>2026-04-26T10:34:51.856Z</time></trkpt><trkpt lat="44.3611256" lon="9.7567885"><ele>867.0</ele><time>2026-04-26T10:34:52.856Z</time></trkpt><trkpt lat="44.3610198" lon="9.7568882"><ele>864.0</ele><time>2026-04-26T10:34:53.858Z</time></trkpt><trkpt lat="44.3609147" lon="9.7569727"><ele>861.0</ele><time>2026-04-26T10:34:54.856Z</time></trkpt><trkpt lat="44.3608055" lon="9.7570509"><ele>858.0</ele><time>2026-04-26T10:34:55.856Z</time></trkpt><trkpt lat="44.3606935" lon="9.757112"><ele>858.0</ele><time>2026-04-26T10:34:56.857Z</time></trkpt><trkpt lat="44.360582" lon="9.757162"><ele>858.0</ele><time>2026-04-26T10:34:57.856Z</time></trkpt><trkpt lat="44.3604799" lon="9.7571936"><ele>858.0</ele><time>2026-04-26T10:34:58.856Z</time></trkpt><trkpt lat="44.3603898" lon="9.7572425"><ele>858.0</ele><time>2026-04-26T10:34:59.857Z</time></trkpt><trkpt lat="44.3603271" lon="9.757297"><ele>858.0</ele><time>2026-04-26T10:35:00.856Z</time></trkpt><trkpt lat="44.360276" lon="9.7574291"><ele>857.1666666666666</ele><time>2026-04-26T10:35:02.856Z</time></trkpt><trkpt lat="44.360303" lon="9.7575799"><ele>856.3333333333333</ele><time>2026-04-26T10:35:04.857Z</time></trkpt><trkpt lat="44.3603244" lon="9.7576765"><ele>855.5</ele><time>2026-04-26T10:35:05.856Z</time></trkpt><trkpt lat="44.3603235" lon="9.7577777"><ele>854.6666666666666</ele><time>2026-04-26T10:35:06.857Z</time></trkpt><trkpt lat="44.3603031" lon="9.7578778"><ele>853.8333333333333</ele><time>2026-04-26T10:35:07.857Z</time></trkpt><trkpt lat="44.3602813" lon="9.7579671"><ele>853.0</ele><time>2026-04-26T10:35:08.856Z</time></trkpt><trkpt lat="44.3602274" lon="9.758062"><ele>851.3333333333333</ele><time>2026-04-26T10:35:09.856Z</time></trkpt><trkpt lat="44.3601571" lon="9.7581183"><ele>849.6666666666666</ele><time>2026-04-26T10:35:10.856Z</time></trkpt><trkpt lat="44.3600783" lon="9.7581683"><ele>848.0</ele><time>2026-04-26T10:35:11.856Z</time></trkpt><trkpt lat="44.3599944" lon="9.7582085"><ele>846.3333333333333</ele><time>2026-04-26T10:35:12.856Z</time></trkpt><trkpt lat="44.3599057" lon="9.7582424"><ele>844.6666666666666</ele><time>2026-04-26T10:35:13.856Z</time></trkpt><trkpt lat="44.3598063" lon="9.758261"><ele>843.0</ele><time>2026-04-26T10:35:14.856Z</time></trkpt><trkpt lat="44.3597085" lon="9.7582462"><ele>841.0</ele><time>2026-04-26T10:35:15.856Z</time></trkpt><trkpt lat="44.3596221" lon="9.7581996"><ele>839.0</ele><time>2026-04-26T10:35:16.857Z</time></trkpt><trkpt lat="44.3595383" lon="9.7581333"><ele>837.0</ele><time>2026-04-26T10:35:17.857Z</time></trkpt><trkpt lat="44.3594492" lon="9.7580713"><ele>835.0</ele><time>2026-04-26T10:35:18.857Z</time></trkpt><trkpt lat="44.3593622" lon="9.7580215"><ele>833.0</ele><time>2026-04-26T10:35:19.858Z</time></trkpt><trkpt lat="44.3592684" lon="9.7579788"><ele>833.0</ele><time>2026-04-26T10:35:20.857Z</time></trkpt><trkpt lat="44.3591735" lon="9.7579256"><ele>833.0</ele><time>2026-04-26T10:35:21.856Z</time></trkpt><trkpt lat="44.3590873" lon="9.7578849"><ele>833.0</ele><time>2026-04-26T10:35:22.856Z</time></trkpt><trkpt lat="44.3590078" lon="9.7578151"><ele>833.0</ele><time>2026-04-26T10:35:23.856Z</time></trkpt><trkpt lat="44.3589263" lon="9.757736"><ele>833.0</ele><time>2026-04-26T10:35:24.858Z</time></trkpt><trkpt lat="44.3588381" lon="9.7576461"><ele>830.75</ele><time>2026-04-26T10:35:25.858Z</time></trkpt><trkpt lat="44.358754" lon="9.7575477"><ele>828.5</ele><time>2026-04-26T10:35:26.856Z</time></trkpt><trkpt lat="44.3586938" lon="9.7574162"><ele>826.25</ele><time>2026-04-26T10:35:27.856Z</time></trkpt><trkpt lat="44.3586603" lon="9.7572617"><ele>824.0</ele><time>2026-04-26T10:35:28.856Z</time></trkpt><trkpt lat="44.3586295" lon="9.7570975"><ele>824.0</ele><time>2026-04-26T10:35:29.856Z</time></trkpt><trkpt lat="44.3585803" lon="9.7569414"><ele>824.0</ele><time>2026-04-26T10:35:30.856Z</time></trkpt><trkpt lat="44.3585099" lon="9.7568091"><ele>824.0</ele><time>2026-04-26T10:35:31.856Z</time></trkpt><trkpt lat="44.3584197" lon="9.7567041"><ele>824.0</ele><time>2026-04-26T10:35:32.856Z</time></trkpt><trkpt lat="44.3583154" lon="9.7566031"><ele>824.0</ele><time>2026-04-26T10:35:33.857Z</time></trkpt><trkpt lat="44.3582091" lon="9.7564983"><ele>824.0</ele><time>2026-04-26T10:35:34.857Z</time></trkpt><trkpt lat="44.3581134" lon="9.756376"><ele>824.0</ele><time>2026-04-26T10:35:35.857Z</time></trkpt><trkpt lat="44.3580339" lon="9.7562558"><ele>824.0</ele><time>2026-04-26T10:35:36.857Z</time></trkpt><trkpt lat="44.3579797" lon="9.7561506"><ele>822.8333333333334</ele><time>2026-04-26T10:35:37.857Z</time></trkpt><trkpt lat="44.3579409" lon="9.7560447"><ele>821.6666666666667</ele><time>2026-04-26T10:35:38.857Z</time></trkpt><trkpt lat="44.3579025" lon="9.755954"><ele>820.5</ele><time>2026-04-26T10:35:39.857Z</time></trkpt><trkpt lat="44.3578773" lon="9.7558542"><ele>819.3333333333333</ele><time>2026-04-26T10:35:40.858Z</time></trkpt><trkpt lat="44.3578593" lon="9.7557661"><ele>818.1666666666666</ele><time>2026-04-26T10:35:41.857Z</time></trkpt><trkpt lat="44.3578152" lon="9.7556208"><ele>817.0</ele><time>2026-04-26T10:35:43.857Z</time></trkpt><trkpt lat="44.3577415" lon="9.7554693"><ele>816.9999999999999</ele><time>2026-04-26T10:35:45.857Z</time></trkpt><trkpt lat="44.3576923" lon="9.7553928"><ele>817.0</ele><time>2026-04-26T10:35:46.857Z</time></trkpt><trkpt lat="44.3576242" lon="9.7553293"><ele>817.0</ele><time>2026-04-26T10:35:47.857Z</time></trkpt><trkpt lat="44.3575484" lon="9.7552694"><ele>817.0</ele><time>2026-04-26T10:35:48.856Z</time></trkpt><trkpt lat="44.3574777" lon="9.7552123"><ele>816.9999999999999</ele><time>2026-04-26T10:35:49.856Z</time></trkpt><trkpt lat="44.3573813" lon="9.7551897"><ele>817.0</ele><time>2026-04-26T10:35:50.856Z</time></trkpt><trkpt lat="44.3572827" lon="9.7551527"><ele>816.2</ele><time>2026-04-26T10:35:51.857Z</time></trkpt><trkpt lat="44.3571853" lon="9.7551286"><ele>815.4000000000001</ele><time>2026-04-26T10:35:52.857Z</time></trkpt><trkpt lat="44.3570848" lon="9.7551411"><ele>814.5999999999999</ele><time>2026-04-26T10:35:53.856Z</time></trkpt><trkpt lat="44.3569795" lon="9.7551978"><ele>813.8</ele><time>2026-04-26T10:35:54.856Z</time></trkpt><trkpt lat="44.3568825" lon="9.7552068"><ele>813.0</ele><time>2026-04-26T10:35:55.856Z</time></trkpt><trkpt lat="44.3567661" lon="9.7551863"><ele>817.25</ele><time>2026-04-26T10:35:56.856Z</time></trkpt><trkpt lat="44.3566424" lon="9.7551506"><ele>821.5</ele><time>2026-04-26T10:35:57.856Z</time></trkpt><trkpt lat="44.3565243" lon="9.7551155"><ele>825.75</ele><time>2026-04-26T10:35:58.857Z</time></trkpt><trkpt lat="44.3564042" lon="9.7550752"><ele>830.0</ele><time>2026-04-26T10:35:59.856Z</time></trkpt><trkpt lat="44.3562817" lon="9.7550375"><ele>830.0</ele><time>2026-04-26T10:36:00.856Z</time></trkpt><trkpt lat="44.3561498" lon="9.7550065"><ele>830.0</ele><time>2026-04-26T10:36:01.856Z</time></trkpt><trkpt lat="44.356015" lon="9.754998"><ele>830.0</ele><time>2026-04-26T10:36:02.856Z</time></trkpt><trkpt lat="44.35589" lon="9.7549921"><ele>830.0</ele><time>2026-04-26T10:36:03.856Z</time></trkpt><trkpt lat="44.3557675" lon="9.7549787"><ele>830.0</ele><time>2026-04-26T10:36:04.856Z</time></trkpt><trkpt lat="44.3556594" lon="9.7549269"><ele>830.0</ele><time>2026-04-26T10:36:05.857Z</time></trkpt><trkpt lat="44.3555523" lon="9.7548597"><ele>830.0</ele><time>2026-04-26T10:36:06.857Z</time></trkpt><trkpt lat="44.3554458" lon="9.7547745"><ele>830.0</ele><time>2026-04-26T10:36:07.857Z</time></trkpt><trkpt lat="44.3553363" lon="9.7546852"><ele>831.5</ele><time>2026-04-26T10:36:08.857Z</time></trkpt><trkpt lat="44.355235" lon="9.7545874"><ele>833.0</ele><time>2026-04-26T10:36:09.856Z</time></trkpt><trkpt lat="44.3551511" lon="9.7544622"><ele>834.5</ele><time>2026-04-26T10:36:10.857Z</time></trkpt><trkpt lat="44.3550783" lon="9.7543234"><ele>836.0</ele><time>2026-04-26T10:36:11.857Z</time></trkpt><trkpt lat="44.354995" lon="9.7542033"><ele>836.0</ele><time>2026-04-26T10:36:12.856Z</time></trkpt><trkpt lat="44.3548945" lon="9.7540919"><ele>836.0</ele><time>2026-04-26T10:36:13.856Z</time></trkpt><trkpt lat="44.3547931" lon="9.7539933"><ele>836.0</ele><time>2026-04-26T10:36:14.856Z</time></trkpt><trkpt lat="44.3546926" lon="9.7539327"><ele>836.0</ele><time>2026-04-26T10:36:15.856Z</time></trkpt><trkpt lat="44.3545739" lon="9.7539329"><ele>836.5</ele><time>2026-04-26T10:36:16.856Z</time></trkpt><trkpt lat="44.3544582" lon="9.7539606"><ele>837.0</ele><time>2026-04-26T10:36:17.856Z</time></trkpt><trkpt lat="44.3543373" lon="9.7540136"><ele>837.5</ele><time>2026-04-26T10:36:18.856Z</time></trkpt><trkpt lat="44.354213" lon="9.7540666"><ele>838.0</ele><time>2026-04-26T10:36:19.856Z</time></trkpt><trkpt lat="44.3540911" lon="9.7541242"><ele>838.0</ele><time>2026-04-26T10:36:20.856Z</time></trkpt><trkpt lat="44.3539768" lon="9.7541738"><ele>838.0</ele><time>2026-04-26T10:36:21.856Z</time></trkpt><trkpt lat="44.3538768" lon="9.7542202"><ele>838.0</ele><time>2026-04-26T10:36:22.857Z</time></trkpt><trkpt lat="44.3537876" lon="9.754253"><ele>838.0</ele><time>2026-04-26T10:36:23.857Z</time></trkpt><trkpt lat="44.3537128" lon="9.7542559"><ele>838.0</ele><time>2026-04-26T10:36:24.856Z</time></trkpt><trkpt lat="44.3536205" lon="9.7541783"><ele>837.6666666666666</ele><time>2026-04-26T10:36:26.857Z</time></trkpt><trkpt lat="44.3535716" lon="9.754098"><ele>837.3333333333333</ele><time>2026-04-26T10:36:28.856Z</time></trkpt><trkpt lat="44.3535574" lon="9.754006"><ele>837.0</ele><time>2026-04-26T10:36:30.857Z</time></trkpt><trkpt lat="44.3535694" lon="9.753901"><ele>836.6666666666667</ele><time>2026-04-26T10:36:32.857Z</time></trkpt><trkpt lat="44.3536012" lon="9.7537515"><ele>836.3333333333334</ele><time>2026-04-26T10:36:34.856Z</time></trkpt><trkpt lat="44.3536202" lon="9.753654"><ele>836.0</ele><time>2026-04-26T10:36:35.858Z</time></trkpt><trkpt lat="44.3536464" lon="9.7535405"><ele>833.5999999999999</ele><time>2026-04-26T10:36:36.857Z</time></trkpt><trkpt lat="44.3536792" lon="9.7534174"><ele>831.2</ele><time>2026-04-26T10:36:37.857Z</time></trkpt><trkpt lat="44.3537363" lon="9.7532951"><ele>828.8</ele><time>2026-04-26T10:36:38.856Z</time></trkpt><trkpt lat="44.3537944" lon="9.7531797"><ele>826.4000000000001</ele><time>2026-04-26T10:36:39.857Z</time></trkpt><trkpt lat="44.353819" lon="9.7530436"><ele>824.0</ele><time>2026-04-26T10:36:40.856Z</time></trkpt><trkpt lat="44.3538044" lon="9.752911"><ele>824.0000000000001</ele><time>2026-04-26T10:36:41.856Z</time></trkpt><trkpt lat="44.3537667" lon="9.7527996"><ele>824.0</ele><time>2026-04-26T10:36:42.856Z</time></trkpt><trkpt lat="44.3537209" lon="9.7526992"><ele>824.0</ele><time>2026-04-26T10:36:43.856Z</time></trkpt><trkpt lat="44.3536781" lon="9.7525885"><ele>824.0</ele><time>2026-04-26T10:36:44.856Z</time></trkpt><trkpt lat="44.3536431" lon="9.7524732"><ele>824.0000000000001</ele><time>2026-04-26T10:36:45.856Z</time></trkpt><trkpt lat="44.35362" lon="9.7523546"><ele>824.0</ele><time>2026-04-26T10:36:46.855Z</time></trkpt><trkpt lat="44.3535982" lon="9.7522468"><ele>824.0000000000001</ele><time>2026-04-26T10:36:47.855Z</time></trkpt><trkpt lat="44.3535853" lon="9.7521492"><ele>824.0</ele><time>2026-04-26T10:36:48.855Z</time></trkpt><trkpt lat="44.3535894" lon="9.7520448"><ele>824.0</ele><time>2026-04-26T10:36:49.855Z</time></trkpt><trkpt lat="44.3536231" lon="9.7519596"><ele>824.0</ele><time>2026-04-26T10:36:50.855Z</time></trkpt><trkpt lat="44.3536798" lon="9.7518863"><ele>824.0000000000001</ele><time>2026-04-26T10:36:51.856Z</time></trkpt><trkpt lat="44.3537502" lon="9.7518116"><ele>824.0</ele><time>2026-04-26T10:36:52.856Z</time></trkpt><trkpt lat="44.3538297" lon="9.7517386"><ele>826.6666666666667</ele><time>2026-04-26T10:36:53.856Z</time></trkpt><trkpt lat="44.3539131" lon="9.751655"><ele>829.3333333333334</ele><time>2026-04-26T10:36:54.855Z</time></trkpt><trkpt lat="44.3539853" lon="9.7515734"><ele>832.0</ele><time>2026-04-26T10:36:55.856Z</time></trkpt><trkpt lat="44.3540532" lon="9.7514942"><ele>834.6666666666667</ele><time>2026-04-26T10:36:56.857Z</time></trkpt><trkpt lat="44.354116" lon="9.7514223"><ele>837.3333333333334</ele><time>2026-04-26T10:36:57.855Z</time></trkpt><trkpt lat="44.3541712" lon="9.7513537"><ele>840.0</ele><time>2026-04-26T10:36:58.855Z</time></trkpt><trkpt lat="44.3542178" lon="9.7512797"><ele>840.0</ele><time>2026-04-26T10:36:59.855Z</time></trkpt><trkpt lat="44.354257" lon="9.7511963"><ele>840.0</ele><time>2026-04-26T10:37:00.855Z</time></trkpt><trkpt lat="44.3542913" lon="9.7510805"><ele>840.0</ele><time>2026-04-26T10:37:01.856Z</time></trkpt><trkpt lat="44.3543254" lon="9.7509469"><ele>840.0</ele><time>2026-04-26T10:37:02.855Z</time></trkpt><trkpt lat="44.3543667" lon="9.7507827"><ele>840.0</ele><time>2026-04-26T10:37:03.856Z</time></trkpt><trkpt lat="44.3544121" lon="9.750618"><ele>836.75</ele><time>2026-04-26T10:37:04.856Z</time></trkpt><trkpt lat="44.3544557" lon="9.7504517"><ele>833.5</ele><time>2026-04-26T10:37:05.855Z</time></trkpt><trkpt lat="44.3545106" lon="9.7502975"><ele>830.25</ele><time>2026-04-26T10:37:06.856Z</time></trkpt><trkpt lat="44.3545628" lon="9.7501552"><ele>827.0</ele><time>2026-04-26T10:37:07.856Z</time></trkpt><trkpt lat="44.3546268" lon="9.7500316"><ele>826.75</ele><time>2026-04-26T10:37:08.855Z</time></trkpt><trkpt lat="44.3547212" lon="9.749971"><ele>826.5</ele><time>2026-04-26T10:37:09.856Z</time></trkpt><trkpt lat="44.3548268" lon="9.7499279"><ele>826.25</ele><time>2026-04-26T10:37:10.856Z</time></trkpt><trkpt lat="44.354942" lon="9.7499095"><ele>826.0</ele><time>2026-04-26T10:37:11.856Z</time></trkpt><trkpt lat="44.3550691" lon="9.7499219"><ele>826.0</ele><time>2026-04-26T10:37:12.856Z</time></trkpt><trkpt lat="44.3551984" lon="9.749943"><ele>826.0</ele><time>2026-04-26T10:37:13.855Z</time></trkpt><trkpt lat="44.3553296" lon="9.7499857"><ele>826.0</ele><time>2026-04-26T10:37:14.855Z</time></trkpt><trkpt lat="44.3554361" lon="9.7500441"><ele>826.0</ele><time>2026-04-26T10:37:15.855Z</time></trkpt><trkpt lat="44.3555309" lon="9.7500981"><ele>826.3333333333333</ele><time>2026-04-26T10:37:16.855Z</time></trkpt><trkpt lat="44.3555982" lon="9.7500596"><ele>826.6666666666666</ele><time>2026-04-26T10:37:17.855Z</time></trkpt><trkpt lat="44.3556597" lon="9.7499786"><ele>827.0</ele><time>2026-04-26T10:37:18.856Z</time></trkpt><trkpt lat="44.3556845" lon="9.7498866"><ele>827.3333333333333</ele><time>2026-04-26T10:37:19.855Z</time></trkpt><trkpt lat="44.3556699" lon="9.7497996"><ele>827.6666666666666</ele><time>2026-04-26T10:37:20.856Z</time></trkpt><trkpt lat="44.3556288" lon="9.7497038"><ele>828.0</ele><time>2026-04-26T10:37:21.855Z</time></trkpt><trkpt lat="44.3555774" lon="9.7495862"><ele>828.0</ele><time>2026-04-26T10:37:22.856Z</time></trkpt><trkpt lat="44.3555389" lon="9.7494638"><ele>828.0</ele><time>2026-04-26T10:37:23.856Z</time></trkpt><trkpt lat="44.3555217" lon="9.7493381"><ele>828.0</ele><time>2026-04-26T10:37:24.856Z</time></trkpt><trkpt lat="44.3555446" lon="9.7492291"><ele>828.0</ele><time>2026-04-26T10:37:25.856Z</time></trkpt><trkpt lat="44.3556049" lon="9.7491434"><ele>828.0</ele><time>2026-04-26T10:37:26.855Z</time></trkpt><trkpt lat="44.3556992" lon="9.7490706"><ele>826.5</ele><time>2026-04-26T10:37:27.856Z</time></trkpt><trkpt lat="44.3558084" lon="9.7489741"><ele>825.0</ele><time>2026-04-26T10:37:28.856Z</time></trkpt><trkpt lat="44.3559191" lon="9.7488791"><ele>823.5</ele><time>2026-04-26T10:37:29.855Z</time></trkpt><trkpt lat="44.3560292" lon="9.7487772"><ele>822.0</ele><time>2026-04-26T10:37:30.855Z</time></trkpt><trkpt lat="44.3561356" lon="9.7486702"><ele>822.0</ele><time>2026-04-26T10:37:31.855Z</time></trkpt><trkpt lat="44.3562302" lon="9.7485592"><ele>822.0</ele><time>2026-04-26T10:37:32.855Z</time></trkpt><trkpt lat="44.3563075" lon="9.7484357"><ele>822.0</ele><time>2026-04-26T10:37:33.855Z</time></trkpt><trkpt lat="44.3563635" lon="9.7483016"><ele>822.0</ele><time>2026-04-26T10:37:34.856Z</time></trkpt><trkpt lat="44.3564075" lon="9.7481751"><ele>821.2</ele><time>2026-04-26T10:37:35.856Z</time></trkpt><trkpt lat="44.3564585" lon="9.7480584"><ele>820.4000000000001</ele><time>2026-04-26T10:37:36.856Z</time></trkpt><trkpt lat="44.3565141" lon="9.7479507"><ele>819.5999999999999</ele><time>2026-04-26T10:37:37.856Z</time></trkpt><trkpt lat="44.3565582" lon="9.7478266"><ele>818.8</ele><time>2026-04-26T10:37:38.855Z</time></trkpt><trkpt lat="44.3565799" lon="9.7477072"><ele>818.0</ele><time>2026-04-26T10:37:39.855Z</time></trkpt><trkpt lat="44.3566064" lon="9.7476049"><ele>817.0000000000001</ele><time>2026-04-26T10:37:40.857Z</time></trkpt><trkpt lat="44.3566616" lon="9.7475302"><ele>816.0</ele><time>2026-04-26T10:37:41.857Z</time></trkpt><trkpt lat="44.356724" lon="9.7474618"><ele>815.0</ele><time>2026-04-26T10:37:42.855Z</time></trkpt><trkpt lat="44.3567929" lon="9.7473895"><ele>814.0</ele><time>2026-04-26T10:37:43.855Z</time></trkpt><trkpt lat="44.3568717" lon="9.7473195"><ele>813.0000000000001</ele><time>2026-04-26T10:37:44.855Z</time></trkpt><trkpt lat="44.3569589" lon="9.7472493"><ele>812.0</ele><time>2026-04-26T10:37:45.856Z</time></trkpt><trkpt lat="44.3570576" lon="9.7471711"><ele>812.0</ele><time>2026-04-26T10:37:46.856Z</time></trkpt><trkpt lat="44.3571554" lon="9.7471095"><ele>812.0</ele><time>2026-04-26T10:37:47.855Z</time></trkpt><trkpt lat="44.3572526" lon="9.7470464"><ele>812.0</ele><time>2026-04-26T10:37:48.855Z</time></trkpt><trkpt lat="44.3573486" lon="9.7469796"><ele>812.0</ele><time>2026-04-26T10:37:49.856Z</time></trkpt><trkpt lat="44.3574448" lon="9.7469139"><ele>812.0</ele><time>2026-04-26T10:37:50.856Z</time></trkpt><trkpt lat="44.3575337" lon="9.7468479"><ele>812.0</ele><time>2026-04-26T10:37:51.856Z</time></trkpt><trkpt lat="44.3576224" lon="9.7467854"><ele>812.0</ele><time>2026-04-26T10:37:52.855Z</time></trkpt><trkpt lat="44.3577183" lon="9.7467297"><ele>812.0</ele><time>2026-04-26T10:37:53.856Z</time></trkpt><trkpt lat="44.3578274" lon="9.7466945"><ele>812.0</ele><time>2026-04-26T10:37:54.855Z</time></trkpt><trkpt lat="44.357939" lon="9.7466707"><ele>812.0</ele><time>2026-04-26T10:37:55.855Z</time></trkpt><trkpt lat="44.3580489" lon="9.7466386"><ele>812.0</ele><time>2026-04-26T10:37:56.855Z</time></trkpt><trkpt lat="44.3581596" lon="9.7465951"><ele>812.0</ele><time>2026-04-26T10:37:57.855Z</time></trkpt><trkpt lat="44.3582748" lon="9.7465524"><ele>812.0</ele><time>2026-04-26T10:37:58.855Z</time></trkpt><trkpt lat="44.3583913" lon="9.7465158"><ele>812.0</ele><time>2026-04-26T10:37:59.856Z</time></trkpt><trkpt lat="44.3585127" lon="9.7464861"><ele>812.0</ele><time>2026-04-26T10:38:00.855Z</time></trkpt><trkpt lat="44.358636" lon="9.7464545"><ele>812.0</ele><time>2026-04-26T10:38:01.855Z</time></trkpt><trkpt lat="44.3587644" lon="9.7464542"><ele>812.0</ele><time>2026-04-26T10:38:02.855Z</time></trkpt><trkpt lat="44.3588768" lon="9.7464704"><ele>812.0</ele><time>2026-04-26T10:38:03.856Z</time></trkpt><trkpt lat="44.3589922" lon="9.7465196"><ele>812.8</ele><time>2026-04-26T10:38:04.856Z</time></trkpt><trkpt lat="44.3591018" lon="9.7465927"><ele>813.6</ele><time>2026-04-26T10:38:05.855Z</time></trkpt><trkpt lat="44.3592127" lon="9.746654"><ele>814.4</ele><time>2026-04-26T10:38:06.856Z</time></trkpt><trkpt lat="44.3593194" lon="9.7466893"><ele>815.1999999999999</ele><time>2026-04-26T10:38:07.856Z</time></trkpt><trkpt lat="44.3594141" lon="9.7466966"><ele>816.0</ele><time>2026-04-26T10:38:08.856Z</time></trkpt><trkpt lat="44.3594894" lon="9.7466706"><ele>816.0</ele><time>2026-04-26T10:38:09.856Z</time></trkpt><trkpt lat="44.3595532" lon="9.7465985"><ele>816.0</ele><time>2026-04-26T10:38:10.855Z</time></trkpt><trkpt lat="44.3596048" lon="9.7464895"><ele>816.0</ele><time>2026-04-26T10:38:11.855Z</time></trkpt><trkpt lat="44.3596431" lon="9.7463587"><ele>816.0</ele><time>2026-04-26T10:38:12.856Z</time></trkpt><trkpt lat="44.3596721" lon="9.7462271"><ele>816.0</ele><time>2026-04-26T10:38:13.856Z</time></trkpt><trkpt lat="44.3596586" lon="9.7460815"><ele>814.5</ele><time>2026-04-26T10:38:14.856Z</time></trkpt><trkpt lat="44.3596194" lon="9.7459422"><ele>813.0</ele><time>2026-04-26T10:38:15.856Z</time></trkpt><trkpt lat="44.3595805" lon="9.7458096"><ele>811.5</ele><time>2026-04-26T10:38:16.857Z</time></trkpt><trkpt lat="44.3594667" lon="9.7457042"><ele>810.0</ele><time>2026-04-26T10:38:17.856Z</time></trkpt><trkpt lat="44.3593712" lon="9.7455904"><ele>810.0</ele><time>2026-04-26T10:38:18.855Z</time></trkpt><trkpt lat="44.3592673" lon="9.7454938"><ele>810.0</ele><time>2026-04-26T10:38:19.856Z</time></trkpt><trkpt lat="44.3591498" lon="9.7453956"><ele>810.0</ele><time>2026-04-26T10:38:20.855Z</time></trkpt><trkpt lat="44.3590262" lon="9.7452923"><ele>810.0</ele><time>2026-04-26T10:38:21.856Z</time></trkpt><trkpt lat="44.358901" lon="9.7451933"><ele>811.75</ele><time>2026-04-26T10:38:22.856Z</time></trkpt><trkpt lat="44.3587763" lon="9.7450941"><ele>813.5</ele><time>2026-04-26T10:38:23.856Z</time></trkpt><trkpt lat="44.35865" lon="9.7449829"><ele>815.25</ele><time>2026-04-26T10:38:24.855Z</time></trkpt><trkpt lat="44.358528" lon="9.7448649"><ele>817.0</ele><time>2026-04-26T10:38:25.855Z</time></trkpt><trkpt lat="44.3584035" lon="9.7447578"><ele>817.0</ele><time>2026-04-26T10:38:26.855Z</time></trkpt><trkpt lat="44.3582679" lon="9.7446664"><ele>817.0</ele><time>2026-04-26T10:38:27.855Z</time></trkpt><trkpt lat="44.3581471" lon="9.7445839"><ele>817.0</ele><time>2026-04-26T10:38:28.855Z</time></trkpt><trkpt lat="44.3580406" lon="9.7445046"><ele>817.0</ele><time>2026-04-26T10:38:29.855Z</time></trkpt><trkpt lat="44.3579565" lon="9.7444179"><ele>819.0</ele><time>2026-04-26T10:38:30.855Z</time></trkpt><trkpt lat="44.3578722" lon="9.7443407"><ele>821.0</ele><time>2026-04-26T10:38:31.855Z</time></trkpt><trkpt lat="44.3578172" lon="9.7442464"><ele>823.0</ele><time>2026-04-26T10:38:32.855Z</time></trkpt><trkpt lat="44.3578812" lon="9.744105"><ele>825.0</ele><time>2026-04-26T10:38:33.855Z</time></trkpt><trkpt lat="44.3578925" lon="9.7439708"><ele>827.0</ele><time>2026-04-26T10:38:34.855Z</time></trkpt><trkpt lat="44.3579106" lon="9.7438244"><ele>827.0</ele><time>2026-04-26T10:38:35.855Z</time></trkpt><trkpt lat="44.3579584" lon="9.7436878"><ele>827.0</ele><time>2026-04-26T10:38:36.855Z</time></trkpt><trkpt lat="44.3580327" lon="9.7435755"><ele>827.0</ele><time>2026-04-26T10:38:37.856Z</time></trkpt><trkpt lat="44.3581297" lon="9.7434691"><ele>827.0</ele><time>2026-04-26T10:38:38.856Z</time></trkpt><trkpt lat="44.358218" lon="9.7433543"><ele>829.8</ele><time>2026-04-26T10:38:39.855Z</time></trkpt><trkpt lat="44.3582843" lon="9.7432158"><ele>832.6</ele><time>2026-04-26T10:38:40.855Z</time></trkpt><trkpt lat="44.3583257" lon="9.7430682"><ele>835.4</ele><time>2026-04-26T10:38:41.855Z</time></trkpt><trkpt lat="44.3583279" lon="9.7429408"><ele>838.1999999999999</ele><time>2026-04-26T10:38:42.855Z</time></trkpt><trkpt lat="44.3583355" lon="9.742819"><ele>841.0</ele><time>2026-04-26T10:38:43.855Z</time></trkpt><trkpt lat="44.3583319" lon="9.7427091"><ele>843.0</ele><time>2026-04-26T10:38:44.855Z</time></trkpt><trkpt lat="44.3582656" lon="9.7425937"><ele>845.0</ele><time>2026-04-26T10:38:45.855Z</time></trkpt><trkpt lat="44.3581962" lon="9.7425349"><ele>847.0</ele><time>2026-04-26T10:38:46.855Z</time></trkpt><trkpt lat="44.3580106" lon="9.7427149"><ele>849.0</ele><time>2026-04-26T10:38:47.856Z</time></trkpt><trkpt lat="44.3578988" lon="9.7426853"><ele>846.3333333333334</ele><time>2026-04-26T10:38:48.857Z</time></trkpt><trkpt lat="44.357828" lon="9.7426526"><ele>843.6666666666667</ele><time>2026-04-26T10:38:49.856Z</time></trkpt><trkpt lat="44.3577871" lon="9.7425559"><ele>841.0</ele><time>2026-04-26T10:38:50.856Z</time></trkpt><trkpt lat="44.3577595" lon="9.742424"><ele>838.3333333333334</ele><time>2026-04-26T10:38:51.856Z</time></trkpt><trkpt lat="44.3577721" lon="9.7422906"><ele>835.6666666666667</ele><time>2026-04-26T10:38:52.855Z</time></trkpt><trkpt lat="44.3578071" lon="9.7421747"><ele>833.0</ele><time>2026-04-26T10:38:53.856Z</time></trkpt><trkpt lat="44.3578647" lon="9.7420794"><ele>833.0</ele><time>2026-04-26T10:38:54.856Z</time></trkpt><trkpt lat="44.3579366" lon="9.7419828"><ele>833.0</ele><time>2026-04-26T10:38:55.855Z</time></trkpt><trkpt lat="44.3580065" lon="9.7418788"><ele>833.0</ele><time>2026-04-26T10:38:56.856Z</time></trkpt><trkpt lat="44.3580567" lon="9.7417599"><ele>833.0</ele><time>2026-04-26T10:38:57.856Z</time></trkpt><trkpt lat="44.358078" lon="9.7416145"><ele>833.0</ele><time>2026-04-26T10:38:58.856Z</time></trkpt><trkpt lat="44.3580838" lon="9.7414468"><ele>838.25</ele><time>2026-04-26T10:38:59.855Z</time></trkpt><trkpt lat="44.3581041" lon="9.7412738"><ele>843.5</ele><time>2026-04-26T10:39:00.855Z</time></trkpt><trkpt lat="44.3581303" lon="9.7411088"><ele>848.75</ele><time>2026-04-26T10:39:01.856Z</time></trkpt><trkpt lat="44.3581635" lon="9.7409445"><ele>854.0</ele><time>2026-04-26T10:39:02.855Z</time></trkpt><trkpt lat="44.3581657" lon="9.7407945"><ele>855.4000000000001</ele><time>2026-04-26T10:39:03.855Z</time></trkpt><trkpt lat="44.358134" lon="9.740667"><ele>856.8000000000001</ele><time>2026-04-26T10:39:04.855Z</time></trkpt><trkpt lat="44.3580798" lon="9.740554"><ele>858.1999999999999</ele><time>2026-04-26T10:39:05.855Z</time></trkpt><trkpt lat="44.3580054" lon="9.7404578"><ele>859.5999999999999</ele><time>2026-04-26T10:39:06.856Z</time></trkpt><trkpt lat="44.3579163" lon="9.7403679"><ele>861.0</ele><time>2026-04-26T10:39:07.855Z</time></trkpt><trkpt lat="44.3578274" lon="9.7402698"><ele>858.5</ele><time>2026-04-26T10:39:08.855Z</time></trkpt><trkpt lat="44.357744" lon="9.7401508"><ele>856.0</ele><time>2026-04-26T10:39:09.855Z</time></trkpt><trkpt lat="44.3576697" lon="9.7400114"><ele>853.5</ele><time>2026-04-26T10:39:10.856Z</time></trkpt><trkpt lat="44.3575903" lon="9.739866"><ele>851.0</ele><time>2026-04-26T10:39:11.856Z</time></trkpt><trkpt lat="44.3575088" lon="9.7397194"><ele>851.0</ele><time>2026-04-26T10:39:12.857Z</time></trkpt><trkpt lat="44.357434" lon="9.7395774"><ele>851.0</ele><time>2026-04-26T10:39:13.856Z</time></trkpt><trkpt lat="44.3573779" lon="9.7394347"><ele>851.0</ele><time>2026-04-26T10:39:14.856Z</time></trkpt><trkpt lat="44.3573299" lon="9.7393048"><ele>851.0</ele><time>2026-04-26T10:39:15.857Z</time></trkpt><trkpt lat="44.3572827" lon="9.7392006"><ele>851.0</ele><time>2026-04-26T10:39:16.856Z</time></trkpt><trkpt lat="44.3571579" lon="9.7391957"><ele>852.5999999999999</ele><time>2026-04-26T10:39:18.855Z</time></trkpt><trkpt lat="44.3570858" lon="9.7391957"><ele>854.2</ele><time>2026-04-26T10:39:19.855Z</time></trkpt><trkpt lat="44.3569931" lon="9.7391971"><ele>855.8000000000001</ele><time>2026-04-26T10:39:20.855Z</time></trkpt><trkpt lat="44.3568822" lon="9.7391379"><ele>857.4000000000001</ele><time>2026-04-26T10:39:21.855Z</time></trkpt><trkpt lat="44.3567944" lon="9.7391006"><ele>859.0</ele><time>2026-04-26T10:39:22.855Z</time></trkpt><trkpt lat="44.3566804" lon="9.7390139"><ele>859.0</ele><time>2026-04-26T10:39:23.855Z</time></trkpt><trkpt lat="44.3565787" lon="9.7389505"><ele>859.0000000000001</ele><time>2026-04-26T10:39:24.855Z</time></trkpt><trkpt lat="44.3565015" lon="9.7388665"><ele>859.0000000000001</ele><time>2026-04-26T10:39:25.855Z</time></trkpt><trkpt lat="44.3564537" lon="9.7387767"><ele>859.0</ele><time>2026-04-26T10:39:26.855Z</time></trkpt><trkpt lat="44.3564372" lon="9.7386668"><ele>859.0</ele><time>2026-04-26T10:39:27.856Z</time></trkpt><trkpt lat="44.3564354" lon="9.7385371"><ele>859.8333333333333</ele><time>2026-04-26T10:39:28.856Z</time></trkpt><trkpt lat="44.3564367" lon="9.7384058"><ele>860.6666666666666</ele><time>2026-04-26T10:39:29.856Z</time></trkpt><trkpt lat="44.3564085" lon="9.7382946"><ele>861.5</ele><time>2026-04-26T10:39:30.856Z</time></trkpt><trkpt lat="44.3563954" lon="9.738186"><ele>862.3333333333333</ele><time>2026-04-26T10:39:31.855Z</time></trkpt><trkpt lat="44.356353" lon="9.7380735"><ele>863.1666666666666</ele><time>2026-04-26T10:39:32.855Z</time></trkpt><trkpt lat="44.3562638" lon="9.7380271"><ele>864.0</ele><time>2026-04-26T10:39:33.855Z</time></trkpt><trkpt lat="44.3561044" lon="9.738049"><ele>864.0</ele><time>2026-04-26T10:39:34.855Z</time></trkpt><trkpt lat="44.3560165" lon="9.7379881"><ele>864.0000000000001</ele><time>2026-04-26T10:39:35.855Z</time></trkpt><trkpt lat="44.3559585" lon="9.7379099"><ele>864.0000000000001</ele><time>2026-04-26T10:39:36.855Z</time></trkpt><trkpt lat="44.3558963" lon="9.7378459"><ele>864.0</ele><time>2026-04-26T10:39:37.855Z</time></trkpt><trkpt lat="44.3558778" lon="9.7377263"><ele>864.0</ele><time>2026-04-26T10:39:38.855Z</time></trkpt><trkpt lat="44.3558569" lon="9.7375766"><ele>866.0</ele><time>2026-04-26T10:39:39.855Z</time></trkpt><trkpt lat="44.3558692" lon="9.7374174"><ele>868.0000000000001</ele><time>2026-04-26T10:39:40.855Z</time></trkpt><trkpt lat="44.3558486" lon="9.7372639"><ele>870.0000000000001</ele><time>2026-04-26T10:39:41.855Z</time></trkpt><trkpt lat="44.3558343" lon="9.7371093"><ele>872.0</ele><time>2026-04-26T10:39:42.856Z</time></trkpt><trkpt lat="44.3558297" lon="9.7369736"><ele>874.0</ele><time>2026-04-26T10:39:43.856Z</time></trkpt><trkpt lat="44.3558339" lon="9.7368219"><ele>876.4000000000001</ele><time>2026-04-26T10:39:44.855Z</time></trkpt><trkpt lat="44.3558917" lon="9.7367073"><ele>878.8000000000001</ele><time>2026-04-26T10:39:45.855Z</time></trkpt><trkpt lat="44.355891" lon="9.7365886"><ele>881.1999999999999</ele><time>2026-04-26T10:39:46.855Z</time></trkpt><trkpt lat="44.3558888" lon="9.7364776"><ele>883.5999999999999</ele><time>2026-04-26T10:39:47.855Z</time></trkpt><trkpt lat="44.3558121" lon="9.7363186"><ele>886.0</ele><time>2026-04-26T10:39:48.855Z</time></trkpt><trkpt lat="44.3557514" lon="9.7361953"><ele>886.0</ele><time>2026-04-26T10:39:49.855Z</time></trkpt><trkpt lat="44.3556197" lon="9.7361212"><ele>886.0</ele><time>2026-04-26T10:39:50.855Z</time></trkpt><trkpt lat="44.3555335" lon="9.736003"><ele>886.0</ele><time>2026-04-26T10:39:51.855Z</time></trkpt><trkpt lat="44.3554458" lon="9.7358925"><ele>886.0</ele><time>2026-04-26T10:39:52.856Z</time></trkpt><trkpt lat="44.3553769" lon="9.7357708"><ele>886.25</ele><time>2026-04-26T10:39:53.855Z</time></trkpt><trkpt lat="44.3553155" lon="9.7356352"><ele>886.5</ele><time>2026-04-26T10:39:54.855Z</time></trkpt><trkpt lat="44.3553016" lon="9.7354602"><ele>886.75</ele><time>2026-04-26T10:39:55.855Z</time></trkpt><trkpt lat="44.3552509" lon="9.7353068"><ele>887.0</ele><time>2026-04-26T10:39:56.855Z</time></trkpt><trkpt lat="44.3551952" lon="9.7351547"><ele>887.0</ele><time>2026-04-26T10:39:57.857Z</time></trkpt><trkpt lat="44.3551491" lon="9.7349758"><ele>887.0</ele><time>2026-04-26T10:39:58.857Z</time></trkpt><trkpt lat="44.3551048" lon="9.7348011"><ele>887.0</ele><time>2026-04-26T10:39:59.856Z</time></trkpt><trkpt lat="44.355068" lon="9.7346417"><ele>887.0</ele><time>2026-04-26T10:40:00.856Z</time></trkpt><trkpt lat="44.355013" lon="9.7344967"><ele>887.0</ele><time>2026-04-26T10:40:01.855Z</time></trkpt><trkpt lat="44.3549272" lon="9.734384"><ele>887.0</ele><time>2026-04-26T10:40:02.854Z</time></trkpt><trkpt lat="44.354838" lon="9.7343048"><ele>887.0</ele><time>2026-04-26T10:40:03.854Z</time></trkpt><trkpt lat="44.3547621" lon="9.7342408"><ele>887.0</ele><time>2026-04-26T10:40:04.854Z</time></trkpt><trkpt lat="44.3547012" lon="9.7341773"><ele>887.0</ele><time>2026-04-26T10:40:05.854Z</time></trkpt><trkpt lat="44.3546453" lon="9.7340667"><ele>887.0000000000001</ele><time>2026-04-26T10:40:07.854Z</time></trkpt><trkpt lat="44.3546093" lon="9.7339858"><ele>887.0</ele><time>2026-04-26T10:40:10.854Z</time></trkpt><trkpt lat="44.3545491" lon="9.7339327"><ele>887.0</ele><time>2026-04-26T10:40:13.854Z</time></trkpt><trkpt lat="44.3544832" lon="9.7339011"><ele>887.0</ele><time>2026-04-26T10:40:16.854Z</time></trkpt><trkpt lat="44.3544184" lon="9.7338581"><ele>887.0000000000001</ele><time>2026-04-26T10:40:19.854Z</time></trkpt><trkpt lat="44.3543342" lon="9.7337804"><ele>887.0</ele><time>2026-04-26T10:40:22.854Z</time></trkpt><trkpt lat="44.3542892" lon="9.7336832"><ele>888.4000000000001</ele><time>2026-04-26T10:40:24.855Z</time></trkpt><trkpt lat="44.3542436" lon="9.733542"><ele>889.8000000000001</ele><time>2026-04-26T10:40:26.855Z</time></trkpt><trkpt lat="44.3542038" lon="9.7333724"><ele>891.2</ele><time>2026-04-26T10:40:28.854Z</time></trkpt><trkpt lat="44.3541875" lon="9.7332675"><ele>892.6</ele><time>2026-04-26T10:40:29.854Z</time></trkpt><trkpt lat="44.3541727" lon="9.7331619"><ele>894.0</ele><time>2026-04-26T10:40:30.854Z</time></trkpt><trkpt lat="44.3541617" lon="9.7330585"><ele>894.0</ele><time>2026-04-26T10:40:31.855Z</time></trkpt><trkpt lat="44.3541514" lon="9.7329472"><ele>894.0</ele><time>2026-04-26T10:40:32.855Z</time></trkpt><trkpt lat="44.3541428" lon="9.7328377"><ele>894.0</ele><time>2026-04-26T10:40:33.855Z</time></trkpt><trkpt lat="44.3541356" lon="9.732722"><ele>894.0</ele><time>2026-04-26T10:40:34.855Z</time></trkpt><trkpt lat="44.354115" lon="9.7326088"><ele>894.0</ele><time>2026-04-26T10:40:35.855Z</time></trkpt><trkpt lat="44.3540763" lon="9.7324958"><ele>894.0</ele><time>2026-04-26T10:40:36.854Z</time></trkpt><trkpt lat="44.354026" lon="9.7323687"><ele>892.8000000000001</ele><time>2026-04-26T10:40:37.854Z</time></trkpt><trkpt lat="44.3539682" lon="9.7322315"><ele>891.6000000000001</ele><time>2026-04-26T10:40:38.855Z</time></trkpt><trkpt lat="44.3539164" lon="9.7321026"><ele>890.4</ele><time>2026-04-26T10:40:39.856Z</time></trkpt><trkpt lat="44.3538788" lon="9.7319697"><ele>889.2</ele><time>2026-04-26T10:40:40.855Z</time></trkpt><trkpt lat="44.353862" lon="9.7318501"><ele>888.0</ele><time>2026-04-26T10:40:41.856Z</time></trkpt><trkpt lat="44.3538764" lon="9.7317174"><ele>888.0</ele><time>2026-04-26T10:40:42.855Z</time></trkpt><trkpt lat="44.3538721" lon="9.7315955"><ele>888.0</ele><time>2026-04-26T10:40:43.856Z</time></trkpt><trkpt lat="44.3538522" lon="9.7314946"><ele>888.0</ele><time>2026-04-26T10:40:44.855Z</time></trkpt><trkpt lat="44.3538083" lon="9.7313779"><ele>888.0</ele><time>2026-04-26T10:40:45.855Z</time></trkpt><trkpt lat="44.3537575" lon="9.7312528"><ele>888.0</ele><time>2026-04-26T10:40:46.855Z</time></trkpt><trkpt lat="44.3536939" lon="9.7311037"><ele>886.0</ele><time>2026-04-26T10:40:47.854Z</time></trkpt><trkpt lat="44.3536307" lon="9.7309621"><ele>884.0</ele><time>2026-04-26T10:40:48.855Z</time></trkpt><trkpt lat="44.3535778" lon="9.7308362"><ele>882.0</ele><time>2026-04-26T10:40:49.854Z</time></trkpt><trkpt lat="44.3535312" lon="9.7307201"><ele>880.0</ele><time>2026-04-26T10:40:50.854Z</time></trkpt><trkpt lat="44.3534824" lon="9.730634"><ele>878.0</ele><time>2026-04-26T10:40:51.855Z</time></trkpt><trkpt lat="44.353425" lon="9.7305612"><ele>878.0000000000001</ele><time>2026-04-26T10:40:52.855Z</time></trkpt><trkpt lat="44.3533615" lon="9.7305179"><ele>878.0</ele><time>2026-04-26T10:40:53.854Z</time></trkpt><trkpt lat="44.3532972" lon="9.7305037"><ele>878.0</ele><time>2026-04-26T10:40:54.854Z</time></trkpt><trkpt lat="44.353211" lon="9.7305406"><ele>878.0</ele><time>2026-04-26T10:40:55.854Z</time></trkpt><trkpt lat="44.3531352" lon="9.7305322"><ele>878.0000000000001</ele><time>2026-04-26T10:40:56.854Z</time></trkpt><trkpt lat="44.3530398" lon="9.730643"><ele>878.0</ele><time>2026-04-26T10:40:57.854Z</time></trkpt><trkpt lat="44.3529547" lon="9.730627"><ele>879.1666666666667</ele><time>2026-04-26T10:40:58.854Z</time></trkpt><trkpt lat="44.3528832" lon="9.7305951"><ele>880.3333333333334</ele><time>2026-04-26T10:40:59.855Z</time></trkpt><trkpt lat="44.3528014" lon="9.7305607"><ele>881.5</ele><time>2026-04-26T10:41:00.854Z</time></trkpt><trkpt lat="44.3527198" lon="9.7305211"><ele>882.6666666666667</ele><time>2026-04-26T10:41:01.855Z</time></trkpt><trkpt lat="44.3526491" lon="9.7304844"><ele>883.8333333333334</ele><time>2026-04-26T10:41:02.856Z</time></trkpt><trkpt lat="44.3525907" lon="9.7304094"><ele>885.0</ele><time>2026-04-26T10:41:03.855Z</time></trkpt><trkpt lat="44.352542" lon="9.7303421"><ele>885.0</ele><time>2026-04-26T10:41:04.854Z</time></trkpt><trkpt lat="44.3525148" lon="9.7302465"><ele>885.0</ele><time>2026-04-26T10:41:05.854Z</time></trkpt><trkpt lat="44.3525046" lon="9.7301427"><ele>885.0</ele><time>2026-04-26T10:41:06.855Z</time></trkpt><trkpt lat="44.3525446" lon="9.729995"><ele>885.0</ele><time>2026-04-26T10:41:07.854Z</time></trkpt><trkpt lat="44.3526124" lon="9.7299027"><ele>885.0</ele><time>2026-04-26T10:41:08.854Z</time></trkpt><trkpt lat="44.3526643" lon="9.7298111"><ele>885.0</ele><time>2026-04-26T10:41:09.855Z</time></trkpt><trkpt lat="44.35262" lon="9.7297276"><ele>883.8</ele><time>2026-04-26T10:41:10.855Z</time></trkpt><trkpt lat="44.3526205" lon="9.7296186"><ele>882.6</ele><time>2026-04-26T10:41:11.855Z</time></trkpt><trkpt lat="44.3525294" lon="9.7294762"><ele>881.4000000000001</ele><time>2026-04-26T10:41:12.854Z</time></trkpt><trkpt lat="44.3524741" lon="9.7293529"><ele>880.2</ele><time>2026-04-26T10:41:13.854Z</time></trkpt><trkpt lat="44.352451" lon="9.7292275"><ele>879.0</ele><time>2026-04-26T10:41:14.854Z</time></trkpt><trkpt lat="44.3524055" lon="9.7291079"><ele>879.4000000000001</ele><time>2026-04-26T10:41:15.854Z</time></trkpt><trkpt lat="44.3523897" lon="9.7289998"><ele>879.8000000000001</ele><time>2026-04-26T10:41:16.855Z</time></trkpt><trkpt lat="44.3523324" lon="9.728899"><ele>880.1999999999999</ele><time>2026-04-26T10:41:17.854Z</time></trkpt><trkpt lat="44.3522779" lon="9.7288139"><ele>880.5999999999999</ele><time>2026-04-26T10:41:18.854Z</time></trkpt><trkpt lat="44.3521945" lon="9.7287235"><ele>881.0</ele><time>2026-04-26T10:41:19.855Z</time></trkpt><trkpt lat="44.3520509" lon="9.7286554"><ele>881.0</ele><time>2026-04-26T10:41:20.854Z</time></trkpt><trkpt lat="44.3519089" lon="9.7286075"><ele>881.0</ele><time>2026-04-26T10:41:21.855Z</time></trkpt><trkpt lat="44.3517814" lon="9.7285776"><ele>881.0</ele><time>2026-04-26T10:41:22.854Z</time></trkpt><trkpt lat="44.3516786" lon="9.7285223"><ele>881.0</ele><time>2026-04-26T10:41:23.854Z</time></trkpt><trkpt lat="44.351594" lon="9.7284861"><ele>879.4</ele><time>2026-04-26T10:41:24.854Z</time></trkpt><trkpt lat="44.3515108" lon="9.7284756"><ele>877.8</ele><time>2026-04-26T10:41:25.854Z</time></trkpt><trkpt lat="44.3514192" lon="9.7285097"><ele>876.1999999999999</ele><time>2026-04-26T10:41:26.855Z</time></trkpt><trkpt lat="44.3513246" lon="9.7285713"><ele>874.5999999999999</ele><time>2026-04-26T10:41:27.855Z</time></trkpt><trkpt lat="44.3512215" lon="9.7286472"><ele>873.0</ele><time>2026-04-26T10:41:28.854Z</time></trkpt><trkpt lat="44.3511345" lon="9.7287315"><ele>873.0</ele><time>2026-04-26T10:41:29.854Z</time></trkpt><trkpt lat="44.3510779" lon="9.7288857"><ele>873.0</ele><time>2026-04-26T10:41:30.854Z</time></trkpt><trkpt lat="44.3509978" lon="9.7290133"><ele>873.0</ele><time>2026-04-26T10:41:31.855Z</time></trkpt><trkpt lat="44.3508937" lon="9.7291373"><ele>873.0</ele><time>2026-04-26T10:41:32.855Z</time></trkpt><trkpt lat="44.3508141" lon="9.7292761"><ele>875.4</ele><time>2026-04-26T10:41:33.855Z</time></trkpt><trkpt lat="44.3507613" lon="9.7294124"><ele>877.8</ele><time>2026-04-26T10:41:34.854Z</time></trkpt><trkpt lat="44.3506994" lon="9.7295186"><ele>880.2</ele><time>2026-04-26T10:41:35.854Z</time></trkpt><trkpt lat="44.3506382" lon="9.7295788"><ele>882.6</ele><time>2026-04-26T10:41:36.855Z</time></trkpt><trkpt lat="44.3505607" lon="9.7294477"><ele>885.0</ele><time>2026-04-26T10:41:37.855Z</time></trkpt><trkpt lat="44.3504398" lon="9.7294284"><ele>885.0</ele><time>2026-04-26T10:41:39.854Z</time></trkpt><trkpt lat="44.3503685" lon="9.7294428"><ele>885.0</ele><time>2026-04-26T10:41:40.854Z</time></trkpt><trkpt lat="44.3503224" lon="9.7295415"><ele>885.0</ele><time>2026-04-26T10:41:41.854Z</time></trkpt><trkpt lat="44.3503079" lon="9.7296773"><ele>885.0</ele><time>2026-04-26T10:41:42.854Z</time></trkpt><trkpt lat="44.3502453" lon="9.7298237"><ele>885.0</ele><time>2026-04-26T10:41:43.855Z</time></trkpt><trkpt lat="44.3501931" lon="9.7299474"><ele>885.0</ele><time>2026-04-26T10:41:44.855Z</time></trkpt><trkpt lat="44.3501434" lon="9.7300228"><ele>885.0</ele><time>2026-04-26T10:41:45.854Z</time></trkpt><trkpt lat="44.3500815" lon="9.7300736"><ele>885.0</ele><time>2026-04-26T10:41:46.854Z</time></trkpt><trkpt lat="44.3499668" lon="9.7300067"><ele>885.0</ele><time>2026-04-26T10:41:48.855Z</time></trkpt><trkpt lat="44.3499106" lon="9.7298979"><ele>885.0</ele><time>2026-04-26T10:41:49.854Z</time></trkpt><trkpt lat="44.3498472" lon="9.729768"><ele>885.0</ele><time>2026-04-26T10:41:50.854Z</time></trkpt><trkpt lat="44.3497829" lon="9.7296365"><ele>885.0</ele><time>2026-04-26T10:41:51.854Z</time></trkpt><trkpt lat="44.3497126" lon="9.7294907"><ele>885.0</ele><time>2026-04-26T10:41:52.854Z</time></trkpt><trkpt lat="44.3496471" lon="9.7293463"><ele>885.0</ele><time>2026-04-26T10:41:53.855Z</time></trkpt><trkpt lat="44.3495815" lon="9.7292156"><ele>882.6</ele><time>2026-04-26T10:41:54.854Z</time></trkpt><trkpt lat="44.3495123" lon="9.729101"><ele>880.2</ele><time>2026-04-26T10:41:55.854Z</time></trkpt><trkpt lat="44.3494435" lon="9.7290185"><ele>877.8</ele><time>2026-04-26T10:41:56.855Z</time></trkpt><trkpt lat="44.3493673" lon="9.7289719"><ele>875.4</ele><time>2026-04-26T10:41:57.855Z</time></trkpt><trkpt lat="44.3492833" lon="9.7289602"><ele>873.0</ele><time>2026-04-26T10:41:58.855Z</time></trkpt><trkpt lat="44.3492005" lon="9.7289806"><ele>873.0</ele><time>2026-04-26T10:41:59.854Z</time></trkpt><trkpt lat="44.3491056" lon="9.729039"><ele>873.0</ele><time>2026-04-26T10:42:00.854Z</time></trkpt><trkpt lat="44.3490234" lon="9.7290921"><ele>873.0</ele><time>2026-04-26T10:42:01.854Z</time></trkpt><trkpt lat="44.3489544" lon="9.7291758"><ele>873.0</ele><time>2026-04-26T10:42:02.854Z</time></trkpt><trkpt lat="44.348911" lon="9.7292979"><ele>873.0</ele><time>2026-04-26T10:42:03.854Z</time></trkpt><trkpt lat="44.3488921" lon="9.7294379"><ele>875.5</ele><time>2026-04-26T10:42:04.855Z</time></trkpt><trkpt lat="44.3488929" lon="9.7295755"><ele>878.0</ele><time>2026-04-26T10:42:05.855Z</time></trkpt><trkpt lat="44.3488678" lon="9.7296954"><ele>880.5</ele><time>2026-04-26T10:42:06.855Z</time></trkpt><trkpt lat="44.3488209" lon="9.7297786"><ele>883.0</ele><time>2026-04-26T10:42:07.854Z</time></trkpt><trkpt lat="44.3487514" lon="9.7298043"><ele>885.5</ele><time>2026-04-26T10:42:08.855Z</time></trkpt><trkpt lat="44.3486719" lon="9.7297773"><ele>888.0</ele><time>2026-04-26T10:42:09.854Z</time></trkpt><trkpt lat="44.3485885" lon="9.7297211"><ele>888.0</ele><time>2026-04-26T10:42:10.854Z</time></trkpt><trkpt lat="44.3485034" lon="9.7296656"><ele>888.0</ele><time>2026-04-26T10:42:11.855Z</time></trkpt><trkpt lat="44.3484242" lon="9.729647"><ele>888.0</ele><time>2026-04-26T10:42:12.854Z</time></trkpt><trkpt lat="44.3483303" lon="9.7296028"><ele>888.0</ele><time>2026-04-26T10:42:13.854Z</time></trkpt><trkpt lat="44.3482555" lon="9.7296239"><ele>888.0</ele><time>2026-04-26T10:42:14.854Z</time></trkpt><trkpt lat="44.3481909" lon="9.7296749"><ele>888.0</ele><time>2026-04-26T10:42:15.855Z</time></trkpt><trkpt lat="44.3481004" lon="9.7298822"><ele>890.2</ele><time>2026-04-26T10:42:16.854Z</time></trkpt><trkpt lat="44.3480202" lon="9.7299672"><ele>892.4</ele><time>2026-04-26T10:42:17.854Z</time></trkpt><trkpt lat="44.3479471" lon="9.7300373"><ele>894.6000000000001</ele><time>2026-04-26T10:42:18.855Z</time></trkpt><trkpt lat="44.3478555" lon="9.7300996"><ele>896.8000000000001</ele><time>2026-04-26T10:42:19.854Z</time></trkpt><trkpt lat="44.3477728" lon="9.7301148"><ele>899.0</ele><time>2026-04-26T10:42:20.855Z</time></trkpt><trkpt lat="44.3477441" lon="9.7299647"><ele>899.0</ele><time>2026-04-26T10:42:21.854Z</time></trkpt><trkpt lat="44.3476917" lon="9.729863"><ele>899.0000000000001</ele><time>2026-04-26T10:42:22.854Z</time></trkpt><trkpt lat="44.3476373" lon="9.729758"><ele>899.0000000000001</ele><time>2026-04-26T10:42:23.855Z</time></trkpt><trkpt lat="44.3475751" lon="9.7296723"><ele>899.0</ele><time>2026-04-26T10:42:24.855Z</time></trkpt><trkpt lat="44.3475061" lon="9.7296088"><ele>899.0</ele><time>2026-04-26T10:42:25.854Z</time></trkpt><trkpt lat="44.347418" lon="9.7295444"><ele>899.0</ele><time>2026-04-26T10:42:26.854Z</time></trkpt><trkpt lat="44.3473204" lon="9.7294899"><ele>899.0</ele><time>2026-04-26T10:42:27.854Z</time></trkpt><trkpt lat="44.347247" lon="9.729422"><ele>899.0</ele><time>2026-04-26T10:42:28.854Z</time></trkpt><trkpt lat="44.3472498" lon="9.7292458"><ele>899.0</ele><time>2026-04-26T10:42:30.854Z</time></trkpt><trkpt lat="44.3473541" lon="9.7291254"><ele>897.2</ele><time>2026-04-26T10:42:32.855Z</time></trkpt><trkpt lat="44.3474291" lon="9.729059"><ele>895.4000000000001</ele><time>2026-04-26T10:42:33.855Z</time></trkpt><trkpt lat="44.3474882" lon="9.7289605"><ele>893.6</ele><time>2026-04-26T10:42:34.854Z</time></trkpt><trkpt lat="44.3475264" lon="9.7288426"><ele>891.8</ele><time>2026-04-26T10:42:35.855Z</time></trkpt><trkpt lat="44.3475621" lon="9.7287398"><ele>890.0</ele><time>2026-04-26T10:42:36.855Z</time></trkpt><trkpt lat="44.3475756" lon="9.728596"><ele>889.8</ele><time>2026-04-26T10:42:37.854Z</time></trkpt><trkpt lat="44.3475855" lon="9.7284363"><ele>889.6</ele><time>2026-04-26T10:42:38.855Z</time></trkpt><trkpt lat="44.3475541" lon="9.7283305"><ele>889.4000000000001</ele><time>2026-04-26T10:42:39.854Z</time></trkpt><trkpt lat="44.347539" lon="9.728221"><ele>889.2</ele><time>2026-04-26T10:42:40.854Z</time></trkpt><trkpt lat="44.3474953" lon="9.7281137"><ele>889.0</ele><time>2026-04-26T10:42:41.854Z</time></trkpt><trkpt lat="44.3474174" lon="9.7280076"><ele>889.0</ele><time>2026-04-26T10:42:42.855Z</time></trkpt><trkpt lat="44.3472733" lon="9.7279629"><ele>889.0000000000001</ele><time>2026-04-26T10:42:43.855Z</time></trkpt><trkpt lat="44.3471862" lon="9.7279174"><ele>889.0000000000001</ele><time>2026-04-26T10:42:44.854Z</time></trkpt><trkpt lat="44.3471102" lon="9.7279036"><ele>889.0</ele><time>2026-04-26T10:42:45.854Z</time></trkpt><trkpt lat="44.3470273" lon="9.7279508"><ele>889.0</ele><time>2026-04-26T10:42:46.854Z</time></trkpt><trkpt lat="44.3469278" lon="9.7280324"><ele>891.75</ele><time>2026-04-26T10:42:47.855Z</time></trkpt><trkpt lat="44.3468497" lon="9.7281523"><ele>894.5</ele><time>2026-04-26T10:42:48.854Z</time></trkpt><trkpt lat="44.3467713" lon="9.7282099"><ele>897.25</ele><time>2026-04-26T10:42:49.855Z</time></trkpt><trkpt lat="44.3466702" lon="9.7282037"><ele>900.0</ele><time>2026-04-26T10:42:51.854Z</time></trkpt><trkpt lat="44.3465909" lon="9.7280218"><ele>900.0</ele><time>2026-04-26T10:42:52.854Z</time></trkpt><trkpt lat="44.3465113" lon="9.7279489"><ele>900.0</ele><time>2026-04-26T10:42:53.854Z</time></trkpt><trkpt lat="44.3464239" lon="9.727906"><ele>900.0</ele><time>2026-04-26T10:42:54.855Z</time></trkpt><trkpt lat="44.346321" lon="9.7279033"><ele>900.0</ele><time>2026-04-26T10:42:55.855Z</time></trkpt><trkpt lat="44.3462243" lon="9.7279278"><ele>900.0</ele><time>2026-04-26T10:42:56.855Z</time></trkpt><trkpt lat="44.3461462" lon="9.7279816"><ele>901.0</ele><time>2026-04-26T10:42:57.855Z</time></trkpt><trkpt lat="44.3460819" lon="9.7280622"><ele>902.0</ele><time>2026-04-26T10:42:58.855Z</time></trkpt><trkpt lat="44.3460088" lon="9.7281329"><ele>903.0</ele><time>2026-04-26T10:42:59.854Z</time></trkpt><trkpt lat="44.3459354" lon="9.7281441"><ele>904.0</ele><time>2026-04-26T10:43:00.855Z</time></trkpt><trkpt lat="44.3458796" lon="9.7281019"><ele>905.0</ele><time>2026-04-26T10:43:01.854Z</time></trkpt><trkpt lat="44.3458309" lon="9.7280238"><ele>906.0</ele><time>2026-04-26T10:43:02.854Z</time></trkpt><trkpt lat="44.3457747" lon="9.7279325"><ele>905.9999999999999</ele><time>2026-04-26T10:43:03.855Z</time></trkpt><trkpt lat="44.3457131" lon="9.727839"><ele>906.0</ele><time>2026-04-26T10:43:04.855Z</time></trkpt><trkpt lat="44.345646" lon="9.7277561"><ele>905.9999999999999</ele><time>2026-04-26T10:43:05.855Z</time></trkpt><trkpt lat="44.3455841" lon="9.7277339"><ele>905.9999999999999</ele><time>2026-04-26T10:43:06.855Z</time></trkpt><trkpt lat="44.3455195" lon="9.7277096"><ele>906.0</ele><time>2026-04-26T10:43:07.854Z</time></trkpt><trkpt lat="44.3454534" lon="9.727715"><ele>905.9999999999999</ele><time>2026-04-26T10:43:08.855Z</time></trkpt><trkpt lat="44.3453858" lon="9.727749"><ele>905.9999999999999</ele><time>2026-04-26T10:43:09.854Z</time></trkpt><trkpt lat="44.3452842" lon="9.7278062"><ele>907.6666666666666</ele><time>2026-04-26T10:43:11.854Z</time></trkpt><trkpt lat="44.3451833" lon="9.7278506"><ele>909.3333333333333</ele><time>2026-04-26T10:43:13.854Z</time></trkpt><trkpt lat="44.3450951" lon="9.7279466"><ele>911.0</ele><time>2026-04-26T10:43:15.854Z</time></trkpt><trkpt lat="44.3450449" lon="9.7280008"><ele>912.6666666666666</ele><time>2026-04-26T10:43:16.854Z</time></trkpt><trkpt lat="44.3449936" lon="9.728058"><ele>914.3333333333333</ele><time>2026-04-26T10:43:17.854Z</time></trkpt><trkpt lat="44.3449171" lon="9.7280597"><ele>916.0</ele><time>2026-04-26T10:43:18.855Z</time></trkpt><trkpt lat="44.3448067" lon="9.7280908"><ele>915.9999999999999</ele><time>2026-04-26T10:43:19.855Z</time></trkpt><trkpt lat="44.344723" lon="9.7281351"><ele>916.0</ele><time>2026-04-26T10:43:20.854Z</time></trkpt><trkpt lat="44.3446426" lon="9.7281889"><ele>916.0</ele><time>2026-04-26T10:43:21.854Z</time></trkpt><trkpt lat="44.3445685" lon="9.7282182"><ele>916.0</ele><time>2026-04-26T10:43:22.854Z</time></trkpt><trkpt lat="44.344504" lon="9.7282049"><ele>915.9999999999999</ele><time>2026-04-26T10:43:23.854Z</time></trkpt><trkpt lat="44.3444487" lon="9.7281403"><ele>916.0</ele><time>2026-04-26T10:43:24.855Z</time></trkpt><trkpt lat="44.3443879" lon="9.7280868"><ele>915.9999999999999</ele><time>2026-04-26T10:43:25.854Z</time></trkpt><trkpt lat="44.3443599" lon="9.7280023"><ele>916.0</ele><time>2026-04-26T10:43:26.855Z</time></trkpt><trkpt lat="44.3442924" lon="9.7279249"><ele>916.0</ele><time>2026-04-26T10:43:27.854Z</time></trkpt><trkpt lat="44.3442236" lon="9.727873"><ele>916.0</ele><time>2026-04-26T10:43:28.854Z</time></trkpt><trkpt lat="44.3441489" lon="9.7278102"><ele>915.9999999999999</ele><time>2026-04-26T10:43:29.854Z</time></trkpt><trkpt lat="44.344067" lon="9.7278161"><ele>916.0</ele><time>2026-04-26T10:43:30.855Z</time></trkpt><trkpt lat="44.3439975" lon="9.72798"><ele>916.0</ele><time>2026-04-26T10:43:31.854Z</time></trkpt><trkpt lat="44.3439098" lon="9.7280382"><ele>915.9999999999999</ele><time>2026-04-26T10:43:32.854Z</time></trkpt><trkpt lat="44.3438176" lon="9.7281129"><ele>915.9999999999999</ele><time>2026-04-26T10:43:33.855Z</time></trkpt><trkpt lat="44.3437342" lon="9.7281693"><ele>916.0</ele><time>2026-04-26T10:43:34.854Z</time></trkpt><trkpt lat="44.3436589" lon="9.7282216"><ele>916.0</ele><time>2026-04-26T10:43:35.856Z</time></trkpt><trkpt lat="44.343596" lon="9.7282631"><ele>916.0</ele><time>2026-04-26T10:43:36.855Z</time></trkpt><trkpt lat="44.3434826" lon="9.728345"><ele>915.9999999999999</ele><time>2026-04-26T10:43:38.854Z</time></trkpt><trkpt lat="44.3433919" lon="9.7283221"><ele>915.9999999999999</ele><time>2026-04-26T10:43:40.855Z</time></trkpt><trkpt lat="44.343281" lon="9.7282796"><ele>916.0</ele><time>2026-04-26T10:43:42.854Z</time></trkpt><trkpt lat="44.343214" lon="9.7282389"><ele>916.0</ele><time>2026-04-26T10:43:43.854Z</time></trkpt><trkpt lat="44.3431437" lon="9.7281906"><ele>916.0</ele><time>2026-04-26T10:43:44.855Z</time></trkpt><trkpt lat="44.343066" lon="9.7281366"><ele>915.9999999999999</ele><time>2026-04-26T10:43:45.855Z</time></trkpt><trkpt lat="44.3429817" lon="9.7280913"><ele>915.9999999999999</ele><time>2026-04-26T10:43:46.855Z</time></trkpt><trkpt lat="44.342887" lon="9.7280743"><ele>916.0</ele><time>2026-04-26T10:43:47.853Z</time></trkpt><trkpt lat="44.3427859" lon="9.7280936"><ele>916.0</ele><time>2026-04-26T10:43:48.853Z</time></trkpt><trkpt lat="44.3427016" lon="9.7281317"><ele>917.4999999999999</ele><time>2026-04-26T10:43:49.853Z</time></trkpt><trkpt lat="44.3426147" lon="9.7281556"><ele>919.0</ele><time>2026-04-26T10:43:50.854Z</time></trkpt><trkpt lat="44.3425439" lon="9.7281352"><ele>920.5</ele><time>2026-04-26T10:43:51.853Z</time></trkpt><trkpt lat="44.342481" lon="9.7280822"><ele>922.0</ele><time>2026-04-26T10:43:52.853Z</time></trkpt><trkpt lat="44.3424171" lon="9.7279914"><ele>923.4999999999999</ele><time>2026-04-26T10:43:53.854Z</time></trkpt><trkpt lat="44.3423585" lon="9.7278773"><ele>925.0</ele><time>2026-04-26T10:43:54.854Z</time></trkpt><trkpt lat="44.3422955" lon="9.7277585"><ele>927.25</ele><time>2026-04-26T10:43:55.854Z</time></trkpt><trkpt lat="44.3422164" lon="9.7276561"><ele>929.5</ele><time>2026-04-26T10:43:56.854Z</time></trkpt><trkpt lat="44.3421187" lon="9.7275711"><ele>931.75</ele><time>2026-04-26T10:43:57.855Z</time></trkpt><trkpt lat="44.3419972" lon="9.7274887"><ele>934.0</ele><time>2026-04-26T10:43:58.854Z</time></trkpt><trkpt lat="44.3418887" lon="9.7273996"><ele>937.0</ele><time>2026-04-26T10:43:59.853Z</time></trkpt><trkpt lat="44.3418004" lon="9.7272701"><ele>940.0</ele><time>2026-04-26T10:44:00.854Z</time></trkpt><trkpt lat="44.3416978" lon="9.7271307"><ele>943.0</ele><time>2026-04-26T10:44:01.854Z</time></trkpt><trkpt lat="44.3415737" lon="9.7269893"><ele>946.0</ele><time>2026-04-26T10:44:02.853Z</time></trkpt><trkpt lat="44.3414392" lon="9.7268901"><ele>949.6666666666666</ele><time>2026-04-26T10:44:03.854Z</time></trkpt><trkpt lat="44.3412829" lon="9.726828"><ele>953.3333333333333</ele><time>2026-04-26T10:44:04.854Z</time></trkpt><trkpt lat="44.3411055" lon="9.7268483"><ele>957.0</ele><time>2026-04-26T10:44:05.853Z</time></trkpt><trkpt lat="44.3409206" lon="9.7268089"><ele>957.0</ele><time>2026-04-26T10:44:06.853Z</time></trkpt><trkpt lat="44.3407804" lon="9.7267681"><ele>957.0</ele><time>2026-04-26T10:44:07.854Z</time></trkpt><trkpt lat="44.3406385" lon="9.726741"><ele>957.0</ele><time>2026-04-26T10:44:08.853Z</time></trkpt><trkpt lat="44.3405945" lon="9.726627"><ele>957.0</ele><time>2026-04-26T10:44:09.853Z</time></trkpt><trkpt lat="44.3405219" lon="9.7265241"><ele>959.5</ele><time>2026-04-26T10:44:10.854Z</time></trkpt><trkpt lat="44.3404594" lon="9.7264448"><ele>962.0</ele><time>2026-04-26T10:44:11.853Z</time></trkpt><trkpt lat="44.340391" lon="9.7263785"><ele>964.5</ele><time>2026-04-26T10:44:12.853Z</time></trkpt><trkpt lat="44.3403246" lon="9.726315"><ele>967.0</ele><time>2026-04-26T10:44:13.853Z</time></trkpt><trkpt lat="44.3402494" lon="9.7263122"><ele>969.5</ele><time>2026-04-26T10:44:14.853Z</time></trkpt><trkpt lat="44.3401503" lon="9.7263366"><ele>972.0</ele><time>2026-04-26T10:44:15.854Z</time></trkpt><trkpt lat="44.3400356" lon="9.7263068"><ele>972.0</ele><time>2026-04-26T10:44:16.854Z</time></trkpt><trkpt lat="44.339939" lon="9.7262498"><ele>972.0</ele><time>2026-04-26T10:44:17.854Z</time></trkpt><trkpt lat="44.3398506" lon="9.7261971"><ele>972.0</ele><time>2026-04-26T10:44:18.855Z</time></trkpt><trkpt lat="44.3397789" lon="9.7261316"><ele>972.0</ele><time>2026-04-26T10:44:19.854Z</time></trkpt><trkpt lat="44.3397249" lon="9.7260027"><ele>972.0</ele><time>2026-04-26T10:44:20.853Z</time></trkpt><trkpt lat="44.3396482" lon="9.7258563"><ele>972.1666666666666</ele><time>2026-04-26T10:44:22.853Z</time></trkpt><trkpt lat="44.3395695" lon="9.7257701"><ele>972.3333333333333</ele><time>2026-04-26T10:44:23.854Z</time></trkpt><trkpt lat="44.3394997" lon="9.7256938"><ele>972.5</ele><time>2026-04-26T10:44:24.854Z</time></trkpt><trkpt lat="44.3394388" lon="9.7256449"><ele>972.6666666666666</ele><time>2026-04-26T10:44:25.853Z</time></trkpt><trkpt lat="44.3393819" lon="9.7255983"><ele>972.8333333333333</ele><time>2026-04-26T10:44:26.853Z</time></trkpt><trkpt lat="44.3392774" lon="9.7256155"><ele>973.0</ele><time>2026-04-26T10:44:28.854Z</time></trkpt><trkpt lat="44.3391822" lon="9.7256922"><ele>972.9999999999999</ele><time>2026-04-26T10:44:30.853Z</time></trkpt><trkpt lat="44.3391381" lon="9.72576"><ele>973.0</ele><time>2026-04-26T10:44:31.854Z</time></trkpt><trkpt lat="44.3390815" lon="9.725805"><ele>973.0</ele><time>2026-04-26T10:44:32.854Z</time></trkpt><trkpt lat="44.3389546" lon="9.7258199"><ele>973.0</ele><time>2026-04-26T10:44:34.853Z</time></trkpt><trkpt lat="44.3388726" lon="9.7257938"><ele>972.9999999999999</ele><time>2026-04-26T10:44:35.854Z</time></trkpt><trkpt lat="44.3387842" lon="9.7257499"><ele>973.0</ele><time>2026-04-26T10:44:36.854Z</time></trkpt><trkpt lat="44.3387005" lon="9.7257179"><ele>973.0</ele><time>2026-04-26T10:44:37.853Z</time></trkpt><trkpt lat="44.3386245" lon="9.7256363"><ele>973.0</ele><time>2026-04-26T10:44:38.853Z</time></trkpt><trkpt lat="44.3385336" lon="9.7255771"><ele>973.0</ele><time>2026-04-26T10:44:39.853Z</time></trkpt><trkpt lat="44.3384563" lon="9.7255307"><ele>973.0</ele><time>2026-04-26T10:44:40.854Z</time></trkpt><trkpt lat="44.3383719" lon="9.7254925"><ele>973.0</ele><time>2026-04-26T10:44:41.854Z</time></trkpt><trkpt lat="44.338298" lon="9.7254327"><ele>972.9999999999999</ele><time>2026-04-26T10:44:42.854Z</time></trkpt><trkpt lat="44.3382343" lon="9.7253613"><ele>973.0</ele><time>2026-04-26T10:44:43.855Z</time></trkpt><trkpt lat="44.3381731" lon="9.7252822"><ele>973.0</ele><time>2026-04-26T10:44:44.853Z</time></trkpt><trkpt lat="44.3381184" lon="9.7252013"><ele>973.0</ele><time>2026-04-26T10:44:45.853Z</time></trkpt><trkpt lat="44.3380563" lon="9.7251182"><ele>972.9999999999999</ele><time>2026-04-26T10:44:46.853Z</time></trkpt><trkpt lat="44.3379739" lon="9.7250451"><ele>973.0</ele><time>2026-04-26T10:44:47.854Z</time></trkpt><trkpt lat="44.3378946" lon="9.724986"><ele>973.6666666666666</ele><time>2026-04-26T10:44:48.853Z</time></trkpt><trkpt lat="44.3378187" lon="9.7249409"><ele>974.3333333333333</ele><time>2026-04-26T10:44:49.853Z</time></trkpt><trkpt lat="44.3377331" lon="9.7248951"><ele>975.0</ele><time>2026-04-26T10:44:50.854Z</time></trkpt><trkpt lat="44.33766" lon="9.7248407"><ele>975.6666666666667</ele><time>2026-04-26T10:44:51.854Z</time></trkpt><trkpt lat="44.3376039" lon="9.7247722"><ele>976.3333333333334</ele><time>2026-04-26T10:44:52.854Z</time></trkpt><trkpt lat="44.3375524" lon="9.7247091"><ele>977.0</ele><time>2026-04-26T10:44:53.854Z</time></trkpt><trkpt lat="44.3374924" lon="9.7246557"><ele>977.0000000000001</ele><time>2026-04-26T10:44:54.853Z</time></trkpt><trkpt lat="44.337422" lon="9.7246212"><ele>977.0</ele><time>2026-04-26T10:44:55.853Z</time></trkpt><trkpt lat="44.3373467" lon="9.7246046"><ele>977.0</ele><time>2026-04-26T10:44:56.853Z</time></trkpt><trkpt lat="44.3372638" lon="9.7245939"><ele>977.0</ele><time>2026-04-26T10:44:57.853Z</time></trkpt><trkpt lat="44.3371714" lon="9.7245842"><ele>977.0000000000001</ele><time>2026-04-26T10:44:58.853Z</time></trkpt><trkpt lat="44.3370773" lon="9.7245786"><ele>977.0</ele><time>2026-04-26T10:44:59.853Z</time></trkpt><trkpt lat="44.336985" lon="9.7245975"><ele>976.6</ele><time>2026-04-26T10:45:00.853Z</time></trkpt><trkpt lat="44.3368903" lon="9.7246239"><ele>976.2</ele><time>2026-04-26T10:45:01.854Z</time></trkpt><trkpt lat="44.3368017" lon="9.7246416"><ele>975.8</ele><time>2026-04-26T10:45:02.853Z</time></trkpt><trkpt lat="44.3367309" lon="9.724647"><ele>975.4</ele><time>2026-04-26T10:45:03.853Z</time></trkpt><trkpt lat="44.3366693" lon="9.7246283"><ele>975.0</ele><time>2026-04-26T10:45:04.853Z</time></trkpt><trkpt lat="44.336554" lon="9.7245233"><ele>975.0</ele><time>2026-04-26T10:45:06.853Z</time></trkpt><trkpt lat="44.3364858" lon="9.7244434"><ele>975.0</ele><time>2026-04-26T10:45:07.854Z</time></trkpt><trkpt lat="44.3364047" lon="9.7243397"><ele>975.0</ele><time>2026-04-26T10:45:08.854Z</time></trkpt><trkpt lat="44.3363471" lon="9.7242269"><ele>975.0</ele><time>2026-04-26T10:45:09.855Z</time></trkpt><trkpt lat="44.336283" lon="9.724141"><ele>975.0</ele><time>2026-04-26T10:45:10.854Z</time></trkpt><trkpt lat="44.3362317" lon="9.724058"><ele>978.6666666666666</ele><time>2026-04-26T10:45:11.855Z</time></trkpt><trkpt lat="44.3361742" lon="9.7239793"><ele>982.3333333333333</ele><time>2026-04-26T10:45:12.854Z</time></trkpt><trkpt lat="44.3361065" lon="9.7239038"><ele>986.0</ele><time>2026-04-26T10:45:13.853Z</time></trkpt><trkpt lat="44.3360311" lon="9.7239349"><ele>989.6666666666666</ele><time>2026-04-26T10:45:14.854Z</time></trkpt><trkpt lat="44.3359251" lon="9.7240153"><ele>993.3333333333333</ele><time>2026-04-26T10:45:16.854Z</time></trkpt><trkpt lat="44.335867" lon="9.724065"><ele>997.0</ele><time>2026-04-26T10:45:17.854Z</time></trkpt><trkpt lat="44.3358074" lon="9.7241366"><ele>997.0</ele><time>2026-04-26T10:45:18.853Z</time></trkpt><trkpt lat="44.335757" lon="9.7242339"><ele>997.0</ele><time>2026-04-26T10:45:19.853Z</time></trkpt><trkpt lat="44.3357203" lon="9.7243488"><ele>997.0</ele><time>2026-04-26T10:45:20.853Z</time></trkpt><trkpt lat="44.3356815" lon="9.7244525"><ele>997.0</ele><time>2026-04-26T10:45:21.854Z</time></trkpt><trkpt lat="44.3356208" lon="9.7245612"><ele>997.0</ele><time>2026-04-26T10:45:22.854Z</time></trkpt><trkpt lat="44.3355541" lon="9.724684"><ele>996.0</ele><time>2026-04-26T10:45:23.854Z</time></trkpt><trkpt lat="44.335488" lon="9.724804"><ele>995.0</ele><time>2026-04-26T10:45:24.854Z</time></trkpt><trkpt lat="44.3354216" lon="9.7249093"><ele>994.0</ele><time>2026-04-26T10:45:25.855Z</time></trkpt><trkpt lat="44.3353556" lon="9.7250165"><ele>993.0</ele><time>2026-04-26T10:45:26.854Z</time></trkpt><trkpt lat="44.3352955" lon="9.7251298"><ele>992.0</ele><time>2026-04-26T10:45:27.855Z</time></trkpt><trkpt lat="44.3352402" lon="9.7252351"><ele>992.0000000000001</ele><time>2026-04-26T10:45:28.854Z</time></trkpt><trkpt lat="44.3351846" lon="9.7253302"><ele>992.0</ele><time>2026-04-26T10:45:29.854Z</time></trkpt><trkpt lat="44.3351264" lon="9.7254197"><ele>992.0</ele><time>2026-04-26T10:45:30.854Z</time></trkpt><trkpt lat="44.3350651" lon="9.7255042"><ele>992.0</ele><time>2026-04-26T10:45:31.853Z</time></trkpt><trkpt lat="44.3350038" lon="9.7255861"><ele>992.0000000000001</ele><time>2026-04-26T10:45:32.853Z</time></trkpt><trkpt lat="44.3349316" lon="9.7256475"><ele>992.0</ele><time>2026-04-26T10:45:33.853Z</time></trkpt><trkpt lat="44.3348432" lon="9.7256971"><ele>992.0</ele><time>2026-04-26T10:45:34.853Z</time></trkpt><trkpt lat="44.3347629" lon="9.7257686"><ele>992.0</ele><time>2026-04-26T10:45:35.853Z</time></trkpt><trkpt lat="44.3346853" lon="9.7258543"><ele>992.0</ele><time>2026-04-26T10:45:36.853Z</time></trkpt><trkpt lat="44.3346031" lon="9.7259336"><ele>992.0</ele><time>2026-04-26T10:45:37.854Z</time></trkpt><trkpt lat="44.3345185" lon="9.7260214"><ele>992.0</ele><time>2026-04-26T10:45:38.855Z</time></trkpt><trkpt lat="44.3344312" lon="9.7261098"><ele>991.5000000000001</ele><time>2026-04-26T10:45:39.854Z</time></trkpt><trkpt lat="44.3343566" lon="9.7261997"><ele>991.0</ele><time>2026-04-26T10:45:40.854Z</time></trkpt><trkpt lat="44.3342938" lon="9.7262687"><ele>990.5</ele><time>2026-04-26T10:45:41.854Z</time></trkpt><trkpt lat="44.3342329" lon="9.7263145"><ele>990.0</ele><time>2026-04-26T10:45:42.854Z</time></trkpt><trkpt lat="44.3341658" lon="9.7263327"><ele>989.5000000000001</ele><time>2026-04-26T10:45:43.854Z</time></trkpt><trkpt lat="44.3340876" lon="9.7263267"><ele>989.0</ele><time>2026-04-26T10:45:44.854Z</time></trkpt><trkpt lat="44.3339984" lon="9.7262983"><ele>989.0</ele><time>2026-04-26T10:45:45.855Z</time></trkpt><trkpt lat="44.333901" lon="9.7262512"><ele>989.0000000000001</ele><time>2026-04-26T10:45:46.854Z</time></trkpt><trkpt lat="44.3338094" lon="9.7262223"><ele>989.0000000000001</ele><time>2026-04-26T10:45:47.854Z</time></trkpt><trkpt lat="44.3337265" lon="9.7262027"><ele>989.0</ele><time>2026-04-26T10:45:48.854Z</time></trkpt><trkpt lat="44.3336576" lon="9.7262017"><ele>989.0</ele><time>2026-04-26T10:45:49.854Z</time></trkpt><trkpt lat="44.3335533" lon="9.7262447"><ele>991.8333333333334</ele><time>2026-04-26T10:45:51.853Z</time></trkpt><trkpt lat="44.3334685" lon="9.7263889"><ele>994.6666666666667</ele><time>2026-04-26T10:45:53.853Z</time></trkpt><trkpt lat="44.3334332" lon="9.7264955"><ele>997.5</ele><time>2026-04-26T10:45:54.853Z</time></trkpt><trkpt lat="44.3334022" lon="9.72658"><ele>1000.3333333333333</ele><time>2026-04-26T10:45:55.854Z</time></trkpt><trkpt lat="44.3333605" lon="9.7266711"><ele>1003.1666666666666</ele><time>2026-04-26T10:45:56.854Z</time></trkpt><trkpt lat="44.3333083" lon="9.726737"><ele>1006.0</ele><time>2026-04-26T10:45:57.854Z</time></trkpt><trkpt lat="44.3332355" lon="9.7267957"><ele>1006.0</ele><time>2026-04-26T10:45:58.853Z</time></trkpt><trkpt lat="44.3331341" lon="9.7268515"><ele>1005.9999999999999</ele><time>2026-04-26T10:45:59.853Z</time></trkpt><trkpt lat="44.3330154" lon="9.7269039"><ele>1005.9999999999999</ele><time>2026-04-26T10:46:00.853Z</time></trkpt><trkpt lat="44.3329252" lon="9.7269357"><ele>1006.0</ele><time>2026-04-26T10:46:01.853Z</time></trkpt><trkpt lat="44.3328246" lon="9.7269412"><ele>1006.0</ele><time>2026-04-26T10:46:02.853Z</time></trkpt><trkpt lat="44.3327217" lon="9.7269319"><ele>1004.0</ele><time>2026-04-26T10:46:03.854Z</time></trkpt><trkpt lat="44.3326148" lon="9.7269048"><ele>1001.9999999999999</ele><time>2026-04-26T10:46:04.854Z</time></trkpt><trkpt lat="44.3325174" lon="9.7268788"><ele>999.9999999999999</ele><time>2026-04-26T10:46:05.854Z</time></trkpt><trkpt lat="44.3324304" lon="9.7268656"><ele>998.0</ele><time>2026-04-26T10:46:06.853Z</time></trkpt><trkpt lat="44.3323324" lon="9.7268643"><ele>996.0</ele><time>2026-04-26T10:46:07.853Z</time></trkpt><trkpt lat="44.3322399" lon="9.7268669"><ele>996.5999999999999</ele><time>2026-04-26T10:46:08.853Z</time></trkpt><trkpt lat="44.3321498" lon="9.7268689"><ele>997.1999999999999</ele><time>2026-04-26T10:46:09.853Z</time></trkpt><trkpt lat="44.3320576" lon="9.726887"><ele>997.8000000000001</ele><time>2026-04-26T10:46:10.853Z</time></trkpt><trkpt lat="44.3319678" lon="9.7269065"><ele>998.4000000000001</ele><time>2026-04-26T10:46:11.854Z</time></trkpt><trkpt lat="44.3318812" lon="9.7269266"><ele>999.0</ele><time>2026-04-26T10:46:12.854Z</time></trkpt><trkpt lat="44.3317891" lon="9.7269417"><ele>999.0</ele><time>2026-04-26T10:46:13.854Z</time></trkpt><trkpt lat="44.3317009" lon="9.7269543"><ele>999.0</ele><time>2026-04-26T10:46:14.853Z</time></trkpt><trkpt lat="44.3316303" lon="9.7269522"><ele>999.0</ele><time>2026-04-26T10:46:15.853Z</time></trkpt><trkpt lat="44.331565" lon="9.7269344"><ele>999.0</ele><time>2026-04-26T10:46:16.853Z</time></trkpt><trkpt lat="44.3314888" lon="9.726897"><ele>999.0</ele><time>2026-04-26T10:46:17.853Z</time></trkpt><trkpt lat="44.3314137" lon="9.7268357"><ele>999.0</ele><time>2026-04-26T10:46:18.853Z</time></trkpt><trkpt lat="44.3313488" lon="9.7267624"><ele>1002.0</ele><time>2026-04-26T10:46:19.854Z</time></trkpt><trkpt lat="44.3312763" lon="9.7266772"><ele>1005.0</ele><time>2026-04-26T10:46:20.853Z</time></trkpt><trkpt lat="44.3312099" lon="9.7266079"><ele>1008.0</ele><time>2026-04-26T10:46:21.854Z</time></trkpt><trkpt lat="44.331136" lon="9.7265383"><ele>1011.0</ele><time>2026-04-26T10:46:22.854Z</time></trkpt><trkpt lat="44.3310636" lon="9.7264872"><ele>1014.0</ele><time>2026-04-26T10:46:23.854Z</time></trkpt><trkpt lat="44.3309917" lon="9.7264587"><ele>1017.0</ele><time>2026-04-26T10:46:24.854Z</time></trkpt><trkpt lat="44.3309102" lon="9.7264504"><ele>1017.0</ele><time>2026-04-26T10:46:25.853Z</time></trkpt><trkpt lat="44.3308271" lon="9.7264579"><ele>1017.0</ele><time>2026-04-26T10:46:26.853Z</time></trkpt><trkpt lat="44.3307431" lon="9.7264713"><ele>1017.0</ele><time>2026-04-26T10:46:27.853Z</time></trkpt><trkpt lat="44.3306669" lon="9.7264793"><ele>1017.0</ele><time>2026-04-26T10:46:28.853Z</time></trkpt><trkpt lat="44.3305985" lon="9.726496"><ele>1017.0</ele><time>2026-04-26T10:46:29.854Z</time></trkpt><trkpt lat="44.3305368" lon="9.7265364"><ele>1017.0</ele><time>2026-04-26T10:46:30.853Z</time></trkpt><trkpt lat="44.3304859" lon="9.7266083"><ele>1016.8333333333334</ele><time>2026-04-26T10:46:31.853Z</time></trkpt><trkpt lat="44.3304523" lon="9.7267085"><ele>1016.6666666666667</ele><time>2026-04-26T10:46:32.854Z</time></trkpt><trkpt lat="44.3304394" lon="9.7268557"><ele>1016.5</ele><time>2026-04-26T10:46:33.853Z</time></trkpt><trkpt lat="44.3304215" lon="9.7270019"><ele>1016.3333333333334</ele><time>2026-04-26T10:46:34.853Z</time></trkpt><trkpt lat="44.3304143" lon="9.7271136"><ele>1016.1666666666667</ele><time>2026-04-26T10:46:35.853Z</time></trkpt><trkpt lat="44.3303838" lon="9.7271973"><ele>1016.0</ele><time>2026-04-26T10:46:36.854Z</time></trkpt><trkpt lat="44.3302805" lon="9.7272939"><ele>1016.0000000000001</ele><time>2026-04-26T10:46:38.854Z</time></trkpt><trkpt lat="44.3302074" lon="9.727302"><ele>1016.0</ele><time>2026-04-26T10:46:39.853Z</time></trkpt><trkpt lat="44.3301099" lon="9.7272921"><ele>1016.0</ele><time>2026-04-26T10:46:40.853Z</time></trkpt><trkpt lat="44.3300019" lon="9.7272626"><ele>1016.0</ele><time>2026-04-26T10:46:41.854Z</time></trkpt><trkpt lat="44.3299153" lon="9.7272462"><ele>1016.0000000000001</ele><time>2026-04-26T10:46:42.853Z</time></trkpt><trkpt lat="44.3298411" lon="9.727245"><ele>1016.0</ele><time>2026-04-26T10:46:43.853Z</time></trkpt><trkpt lat="44.3297883" lon="9.727319"><ele>1016.0</ele><time>2026-04-26T10:46:45.854Z</time></trkpt><trkpt lat="44.3297612" lon="9.7275087"><ele>1015.9999999999999</ele><time>2026-04-26T10:46:47.853Z</time></trkpt><trkpt lat="44.329766" lon="9.727614"><ele>1015.9999999999999</ele><time>2026-04-26T10:46:48.854Z</time></trkpt><trkpt lat="44.3297422" lon="9.7277223"><ele>1016.0</ele><time>2026-04-26T10:46:49.853Z</time></trkpt><trkpt lat="44.3296924" lon="9.7278523"><ele>1016.0</ele><time>2026-04-26T10:46:50.854Z</time></trkpt><trkpt lat="44.3296365" lon="9.7279576"><ele>1018.1666666666667</ele><time>2026-04-26T10:46:51.853Z</time></trkpt><trkpt lat="44.329586" lon="9.7280484"><ele>1020.3333333333334</ele><time>2026-04-26T10:46:52.854Z</time></trkpt><trkpt lat="44.3295461" lon="9.7281278"><ele>1022.5</ele><time>2026-04-26T10:46:53.853Z</time></trkpt><trkpt lat="44.329515" lon="9.7282076"><ele>1024.6666666666667</ele><time>2026-04-26T10:46:54.853Z</time></trkpt><trkpt lat="44.3295126" lon="9.7283739"><ele>1026.8333333333333</ele><time>2026-04-26T10:46:56.853Z</time></trkpt><trkpt lat="44.3295697" lon="9.7285082"><ele>1029.0</ele><time>2026-04-26T10:46:58.854Z</time></trkpt><trkpt lat="44.3296479" lon="9.7285163"><ele>1025.4</ele><time>2026-04-26T10:46:59.854Z</time></trkpt><trkpt lat="44.3297405" lon="9.7285251"><ele>1021.8000000000001</ele><time>2026-04-26T10:47:00.853Z</time></trkpt><trkpt lat="44.3298197" lon="9.7285046"><ele>1018.1999999999999</ele><time>2026-04-26T10:47:01.853Z</time></trkpt><trkpt lat="44.3299191" lon="9.7285181"><ele>1014.5999999999999</ele><time>2026-04-26T10:47:03.853Z</time></trkpt><trkpt lat="44.3299886" lon="9.7285784"><ele>1011.0</ele><time>2026-04-26T10:47:08.853Z</time></trkpt><trkpt lat="44.3299971" lon="9.7287154"><ele>1011.0</ele><time>2026-04-26T10:47:10.853Z</time></trkpt><trkpt lat="44.3299865" lon="9.7288156"><ele>1010.9999999999999</ele><time>2026-04-26T10:47:11.853Z</time></trkpt><trkpt lat="44.3299775" lon="9.7289307"><ele>1010.9999999999999</ele><time>2026-04-26T10:47:12.853Z</time></trkpt><trkpt lat="44.3299554" lon="9.7290701"><ele>1011.0</ele><time>2026-04-26T10:47:13.853Z</time></trkpt><trkpt lat="44.3299355" lon="9.729206"><ele>1011.0</ele><time>2026-04-26T10:47:14.854Z</time></trkpt><trkpt lat="44.3299041" lon="9.7293388"><ele>1010.1999999999999</ele><time>2026-04-26T10:47:15.853Z</time></trkpt><trkpt lat="44.3298536" lon="9.7294544"><ele>1009.3999999999999</ele><time>2026-04-26T10:47:16.853Z</time></trkpt><trkpt lat="44.3297894" lon="9.7295479"><ele>1008.6</ele><time>2026-04-26T10:47:17.853Z</time></trkpt><trkpt lat="44.3297071" lon="9.7296341"><ele>1007.8</ele><time>2026-04-26T10:47:18.853Z</time></trkpt><trkpt lat="44.3296189" lon="9.7297201"><ele>1007.0</ele><time>2026-04-26T10:47:19.853Z</time></trkpt><trkpt lat="44.3295313" lon="9.7298058"><ele>1012.6</ele><time>2026-04-26T10:47:20.853Z</time></trkpt><trkpt lat="44.3294724" lon="9.7299161"><ele>1018.2</ele><time>2026-04-26T10:47:21.853Z</time></trkpt><trkpt lat="44.3294464" lon="9.7300558"><ele>1023.8</ele><time>2026-04-26T10:47:22.853Z</time></trkpt><trkpt lat="44.3294479" lon="9.730208"><ele>1029.4</ele><time>2026-04-26T10:47:23.853Z</time></trkpt><trkpt lat="44.3294264" lon="9.7303401"><ele>1035.0</ele><time>2026-04-26T10:47:24.854Z</time></trkpt><trkpt lat="44.3293748" lon="9.7304405"><ele>1035.0</ele><time>2026-04-26T10:47:25.853Z</time></trkpt><trkpt lat="44.3292933" lon="9.7305309"><ele>1035.0</ele><time>2026-04-26T10:47:26.853Z</time></trkpt><trkpt lat="44.32923" lon="9.7306562"><ele>1035.0</ele><time>2026-04-26T10:47:27.853Z</time></trkpt><trkpt lat="44.3291815" lon="9.7307863"><ele>1035.0</ele><time>2026-04-26T10:47:28.854Z</time></trkpt><trkpt lat="44.3292083" lon="9.7310086"><ele>1034.25</ele><time>2026-04-26T10:47:29.854Z</time></trkpt><trkpt lat="44.3292014" lon="9.7311759"><ele>1033.5</ele><time>2026-04-26T10:47:30.854Z</time></trkpt><trkpt lat="44.3291712" lon="9.7313364"><ele>1032.75</ele><time>2026-04-26T10:47:31.853Z</time></trkpt><trkpt lat="44.3291207" lon="9.7314945"><ele>1032.0</ele><time>2026-04-26T10:47:32.853Z</time></trkpt><trkpt lat="44.3290662" lon="9.7316481"><ele>1032.0</ele><time>2026-04-26T10:47:33.853Z</time></trkpt><trkpt lat="44.3290257" lon="9.7318075"><ele>1032.0</ele><time>2026-04-26T10:47:34.853Z</time></trkpt><trkpt lat="44.3290237" lon="9.7319603"><ele>1032.0</ele><time>2026-04-26T10:47:35.854Z</time></trkpt><trkpt lat="44.3290434" lon="9.7321042"><ele>1032.0</ele><time>2026-04-26T10:47:36.853Z</time></trkpt><trkpt lat="44.3290791" lon="9.7322271"><ele>1032.0</ele><time>2026-04-26T10:47:37.853Z</time></trkpt><trkpt lat="44.3291108" lon="9.7323444"><ele>1033.0</ele><time>2026-04-26T10:47:38.853Z</time></trkpt><trkpt lat="44.3291076" lon="9.7324567"><ele>1034.0</ele><time>2026-04-26T10:47:39.854Z</time></trkpt><trkpt lat="44.3290884" lon="9.7325683"><ele>1035.0</ele><time>2026-04-26T10:47:40.853Z</time></trkpt><trkpt lat="44.329049" lon="9.7326781"><ele>1036.0</ele><time>2026-04-26T10:47:41.854Z</time></trkpt><trkpt lat="44.3289976" lon="9.7327854"><ele>1037.0</ele><time>2026-04-26T10:47:42.854Z</time></trkpt><trkpt lat="44.3289402" lon="9.7328918"><ele>1038.0</ele><time>2026-04-26T10:47:43.854Z</time></trkpt><trkpt lat="44.328887" lon="9.7330033"><ele>1038.3333333333333</ele><time>2026-04-26T10:47:44.853Z</time></trkpt><trkpt lat="44.3288274" lon="9.733113"><ele>1038.6666666666667</ele><time>2026-04-26T10:47:45.853Z</time></trkpt><trkpt lat="44.3287806" lon="9.7332201"><ele>1039.0</ele><time>2026-04-26T10:47:46.853Z</time></trkpt><trkpt lat="44.3287373" lon="9.7333235"><ele>1039.3333333333335</ele><time>2026-04-26T10:47:47.853Z</time></trkpt><trkpt lat="44.3287135" lon="9.7334274"><ele>1039.6666666666667</ele><time>2026-04-26T10:47:48.854Z</time></trkpt><trkpt lat="44.328706" lon="9.7335225"><ele>1040.0</ele><time>2026-04-26T10:47:49.854Z</time></trkpt><trkpt lat="44.3287055" lon="9.7336795"><ele>1040.0</ele><time>2026-04-26T10:47:51.853Z</time></trkpt><trkpt lat="44.3286969" lon="9.7337907"><ele>1040.0</ele><time>2026-04-26T10:47:53.853Z</time></trkpt><trkpt lat="44.3287221" lon="9.7338853"><ele>1040.0</ele><time>2026-04-26T10:56:48.85Z</time></trkpt><trkpt lat="44.3287945" lon="9.734009"><ele>1040.0</ele><time>2026-04-26T10:56:50.85Z</time></trkpt><trkpt lat="44.3288462" lon="9.7341607"><ele>1040.0</ele><time>2026-04-26T10:56:52.851Z</time></trkpt><trkpt lat="44.3288597" lon="9.7343386"><ele>1041.3333333333335</ele><time>2026-04-26T10:56:54.85Z</time></trkpt><trkpt lat="44.3288527" lon="9.7344388"><ele>1042.6666666666667</ele><time>2026-04-26T10:56:55.851Z</time></trkpt><trkpt lat="44.3288321" lon="9.7345436"><ele>1044.0</ele><time>2026-04-26T10:56:56.851Z</time></trkpt><trkpt lat="44.3288001" lon="9.7346522"><ele>1045.3333333333333</ele><time>2026-04-26T10:56:57.85Z</time></trkpt><trkpt lat="44.3287617" lon="9.734768"><ele>1046.6666666666665</ele><time>2026-04-26T10:56:58.851Z</time></trkpt><trkpt lat="44.3287063" lon="9.7348597"><ele>1048.0</ele><time>2026-04-26T10:56:59.85Z</time></trkpt><trkpt lat="44.3286512" lon="9.7349852"><ele>1048.0</ele><time>2026-04-26T10:57:00.851Z</time></trkpt><trkpt lat="44.3286061" lon="9.735099"><ele>1048.0</ele><time>2026-04-26T10:57:01.851Z</time></trkpt><trkpt lat="44.3285392" lon="9.7352244"><ele>1048.0</ele><time>2026-04-26T10:57:02.851Z</time></trkpt><trkpt lat="44.328478" lon="9.7353512"><ele>1048.0</ele><time>2026-04-26T10:57:03.851Z</time></trkpt><trkpt lat="44.3284082" lon="9.735457"><ele>1048.0</ele><time>2026-04-26T10:57:04.851Z</time></trkpt><trkpt lat="44.3283416" lon="9.7355691"><ele>1049.4</ele><time>2026-04-26T10:57:05.851Z</time></trkpt><trkpt lat="44.3282732" lon="9.7356835"><ele>1050.8</ele><time>2026-04-26T10:57:06.851Z</time></trkpt><trkpt lat="44.3281911" lon="9.7357759"><ele>1052.2</ele><time>2026-04-26T10:57:07.85Z</time></trkpt><trkpt lat="44.3281169" lon="9.7358796"><ele>1053.6</ele><time>2026-04-26T10:57:08.851Z</time></trkpt><trkpt lat="44.328034" lon="9.7359747"><ele>1055.0</ele><time>2026-04-26T10:57:09.85Z</time></trkpt><trkpt lat="44.3279566" lon="9.7360938"><ele>1055.0</ele><time>2026-04-26T10:57:10.85Z</time></trkpt><trkpt lat="44.3278773" lon="9.7362031"><ele>1055.0</ele><time>2026-04-26T10:57:11.85Z</time></trkpt><trkpt lat="44.3277975" lon="9.7363382"><ele>1055.0</ele><time>2026-04-26T10:57:12.85Z</time></trkpt><trkpt lat="44.3277288" lon="9.7364767"><ele>1055.0</ele><time>2026-04-26T10:57:13.85Z</time></trkpt><trkpt lat="44.327653" lon="9.7366211"><ele>1055.0</ele><time>2026-04-26T10:57:14.85Z</time></trkpt><trkpt lat="44.3275891" lon="9.7367625"><ele>1055.0</ele><time>2026-04-26T10:57:15.85Z</time></trkpt><trkpt lat="44.3275434" lon="9.7368982"><ele>1055.0</ele><time>2026-04-26T10:57:16.849Z</time></trkpt><trkpt lat="44.32749" lon="9.7370269"><ele>1055.0</ele><time>2026-04-26T10:57:17.849Z</time></trkpt><trkpt lat="44.3274314" lon="9.7371618"><ele>1055.0</ele><time>2026-04-26T10:57:18.849Z</time></trkpt><trkpt lat="44.3273781" lon="9.7373008"><ele>1056.6</ele><time>2026-04-26T10:57:19.85Z</time></trkpt><trkpt lat="44.3273337" lon="9.7374325"><ele>1058.2</ele><time>2026-04-26T10:57:20.85Z</time></trkpt><trkpt lat="44.327277" lon="9.7375824"><ele>1059.8</ele><time>2026-04-26T10:57:21.85Z</time></trkpt><trkpt lat="44.3272785" lon="9.737744"><ele>1061.4</ele><time>2026-04-26T10:57:22.85Z</time></trkpt><trkpt lat="44.3272511" lon="9.7378874"><ele>1063.0</ele><time>2026-04-26T10:57:23.849Z</time></trkpt><trkpt lat="44.3272676" lon="9.7380485"><ele>1063.0</ele><time>2026-04-26T10:57:24.85Z</time></trkpt><trkpt lat="44.3272575" lon="9.7382046"><ele>1063.0</ele><time>2026-04-26T10:57:25.85Z</time></trkpt><trkpt lat="44.3272489" lon="9.7383555"><ele>1063.0</ele><time>2026-04-26T10:57:26.85Z</time></trkpt><trkpt lat="44.3272434" lon="9.7384887"><ele>1063.0</ele><time>2026-04-26T10:57:27.85Z</time></trkpt><trkpt lat="44.327286" lon="9.7386343"><ele>1063.0</ele><time>2026-04-26T10:57:28.85Z</time></trkpt><trkpt lat="44.3272711" lon="9.7387804"><ele>1061.6</ele><time>2026-04-26T10:57:29.85Z</time></trkpt><trkpt lat="44.3272645" lon="9.7388897"><ele>1060.1999999999998</ele><time>2026-04-26T10:57:30.85Z</time></trkpt><trkpt lat="44.3271736" lon="9.7390264"><ele>1058.8</ele><time>2026-04-26T10:57:31.85Z</time></trkpt><trkpt lat="44.3271533" lon="9.7391364"><ele>1057.3999999999999</ele><time>2026-04-26T10:57:32.85Z</time></trkpt><trkpt lat="44.3271172" lon="9.7392561"><ele>1056.0</ele><time>2026-04-26T10:57:33.85Z</time></trkpt><trkpt lat="44.3270844" lon="9.7393688"><ele>1055.3333333333333</ele><time>2026-04-26T10:57:34.85Z</time></trkpt><trkpt lat="44.327063" lon="9.7394688"><ele>1054.6666666666667</ele><time>2026-04-26T10:57:35.85Z</time></trkpt><trkpt lat="44.3270433" lon="9.739564"><ele>1054.0</ele><time>2026-04-26T10:57:36.85Z</time></trkpt><trkpt lat="44.3270362" lon="9.7396594"><ele>1053.3333333333335</ele><time>2026-04-26T10:57:37.849Z</time></trkpt><trkpt lat="44.32705" lon="9.7397664"><ele>1052.6666666666667</ele><time>2026-04-26T10:57:38.849Z</time></trkpt><trkpt lat="44.3270773" lon="9.7398887"><ele>1052.0</ele><time>2026-04-26T10:57:39.849Z</time></trkpt><trkpt lat="44.3271016" lon="9.7400104"><ele>1052.0</ele><time>2026-04-26T10:57:40.849Z</time></trkpt><trkpt lat="44.3271207" lon="9.7401279"><ele>1052.0</ele><time>2026-04-26T10:57:41.849Z</time></trkpt><trkpt lat="44.3271355" lon="9.7402451"><ele>1052.0</ele><time>2026-04-26T10:57:42.85Z</time></trkpt><trkpt lat="44.32715" lon="9.7403666"><ele>1052.0</ele><time>2026-04-26T10:57:43.849Z</time></trkpt><trkpt lat="44.3271606" lon="9.740491"><ele>1052.0</ele><time>2026-04-26T10:57:44.85Z</time></trkpt><trkpt lat="44.3271637" lon="9.7406133"><ele>1052.0</ele><time>2026-04-26T10:57:45.849Z</time></trkpt><trkpt lat="44.3271736" lon="9.7407316"><ele>1052.0</ele><time>2026-04-26T10:57:46.849Z</time></trkpt><trkpt lat="44.3271795" lon="9.7408497"><ele>1052.0</ele><time>2026-04-26T10:57:47.849Z</time></trkpt><trkpt lat="44.3271695" lon="9.7409807"><ele>1052.0</ele><time>2026-04-26T10:57:48.85Z</time></trkpt><trkpt lat="44.3271527" lon="9.7411023"><ele>1052.0</ele><time>2026-04-26T10:57:49.849Z</time></trkpt><trkpt lat="44.3271402" lon="9.7412084"><ele>1052.0</ele><time>2026-04-26T10:57:50.849Z</time></trkpt><trkpt lat="44.3271291" lon="9.7413107"><ele>1052.0</ele><time>2026-04-26T10:57:51.849Z</time></trkpt><trkpt lat="44.3271167" lon="9.7414041"><ele>1051.5</ele><time>2026-04-26T10:57:52.85Z</time></trkpt><trkpt lat="44.3270901" lon="9.7415061"><ele>1051.0</ele><time>2026-04-26T10:57:53.849Z</time></trkpt><trkpt lat="44.3270656" lon="9.7416049"><ele>1050.5</ele><time>2026-04-26T10:57:54.85Z</time></trkpt><trkpt lat="44.3270093" lon="9.7417048"><ele>1050.0</ele><time>2026-04-26T10:57:55.849Z</time></trkpt><trkpt lat="44.3269614" lon="9.741779"><ele>1049.5</ele><time>2026-04-26T10:57:56.849Z</time></trkpt><trkpt lat="44.3269234" lon="9.7418687"><ele>1049.0</ele><time>2026-04-26T10:57:57.849Z</time></trkpt><trkpt lat="44.3268954" lon="9.7419641"><ele>1046.2</ele><time>2026-04-26T10:57:58.85Z</time></trkpt><trkpt lat="44.3268742" lon="9.7421025"><ele>1043.4</ele><time>2026-04-26T10:57:59.849Z</time></trkpt><trkpt lat="44.3268551" lon="9.7422222"><ele>1040.6</ele><time>2026-04-26T10:58:00.849Z</time></trkpt><trkpt lat="44.3268332" lon="9.7423551"><ele>1037.8</ele><time>2026-04-26T10:58:01.849Z</time></trkpt><trkpt lat="44.3268081" lon="9.7424837"><ele>1035.0</ele><time>2026-04-26T10:58:02.849Z</time></trkpt><trkpt lat="44.3267801" lon="9.7426049"><ele>1032.8</ele><time>2026-04-26T10:58:03.849Z</time></trkpt><trkpt lat="44.3267523" lon="9.742725"><ele>1030.6</ele><time>2026-04-26T10:58:04.85Z</time></trkpt><trkpt lat="44.3267278" lon="9.7428448"><ele>1028.4</ele><time>2026-04-26T10:58:05.851Z</time></trkpt><trkpt lat="44.326712" lon="9.7429755"><ele>1026.2</ele><time>2026-04-26T10:58:06.851Z</time></trkpt><trkpt lat="44.3266935" lon="9.7431148"><ele>1024.0</ele><time>2026-04-26T10:58:07.85Z</time></trkpt><trkpt lat="44.3266797" lon="9.7432626"><ele>1024.0</ele><time>2026-04-26T10:58:08.849Z</time></trkpt><trkpt lat="44.3266687" lon="9.7434073"><ele>1024.0</ele><time>2026-04-26T10:58:09.849Z</time></trkpt><trkpt lat="44.3266712" lon="9.7435499"><ele>1024.0</ele><time>2026-04-26T10:58:10.849Z</time></trkpt><trkpt lat="44.3266718" lon="9.7436852"><ele>1024.0</ele><time>2026-04-26T10:58:11.849Z</time></trkpt><trkpt lat="44.3266524" lon="9.7437969"><ele>1024.0</ele><time>2026-04-26T10:58:12.849Z</time></trkpt><trkpt lat="44.326619" lon="9.7439005"><ele>1024.4</ele><time>2026-04-26T10:58:13.849Z</time></trkpt><trkpt lat="44.3265689" lon="9.7440201"><ele>1024.8000000000002</ele><time>2026-04-26T10:58:14.849Z</time></trkpt><trkpt lat="44.3264944" lon="9.7441582"><ele>1025.1999999999998</ele><time>2026-04-26T10:58:15.849Z</time></trkpt><trkpt lat="44.3264268" lon="9.7442799"><ele>1025.6</ele><time>2026-04-26T10:58:16.85Z</time></trkpt><trkpt lat="44.3263611" lon="9.7444018"><ele>1026.0</ele><time>2026-04-26T10:58:17.85Z</time></trkpt><trkpt lat="44.3263551" lon="9.7445111"><ele>1026.6</ele><time>2026-04-26T10:58:18.85Z</time></trkpt><trkpt lat="44.326335" lon="9.7446238"><ele>1027.1999999999998</ele><time>2026-04-26T10:58:19.85Z</time></trkpt><trkpt lat="44.3263329" lon="9.7447411"><ele>1027.8000000000002</ele><time>2026-04-26T10:58:20.851Z</time></trkpt><trkpt lat="44.3263567" lon="9.7448744"><ele>1028.4</ele><time>2026-04-26T10:58:21.85Z</time></trkpt><trkpt lat="44.3263917" lon="9.745008"><ele>1029.0</ele><time>2026-04-26T10:58:22.849Z</time></trkpt><trkpt lat="44.326426" lon="9.7451401"><ele>1030.0</ele><time>2026-04-26T10:58:23.849Z</time></trkpt><trkpt lat="44.3264411" lon="9.7452562"><ele>1031.0</ele><time>2026-04-26T10:58:24.85Z</time></trkpt><trkpt lat="44.3264354" lon="9.7453654"><ele>1032.0</ele><time>2026-04-26T10:58:25.849Z</time></trkpt><trkpt lat="44.3264065" lon="9.7454635"><ele>1033.0</ele><time>2026-04-26T10:58:26.849Z</time></trkpt><trkpt lat="44.3263599" lon="9.745535"><ele>1034.0</ele><time>2026-04-26T10:58:27.849Z</time></trkpt><trkpt lat="44.3262965" lon="9.7455784"><ele>1035.0</ele><time>2026-04-26T10:58:28.849Z</time></trkpt><trkpt lat="44.3262252" lon="9.7455796"><ele>1035.0</ele><time>2026-04-26T10:58:29.849Z</time></trkpt><trkpt lat="44.3261426" lon="9.7455495"><ele>1035.0</ele><time>2026-04-26T10:58:30.849Z</time></trkpt><trkpt lat="44.3260514" lon="9.7454702"><ele>1035.0</ele><time>2026-04-26T10:58:31.849Z</time></trkpt><trkpt lat="44.3259703" lon="9.7453918"><ele>1035.0</ele><time>2026-04-26T10:58:32.849Z</time></trkpt><trkpt lat="44.3258956" lon="9.7453384"><ele>1035.0</ele><time>2026-04-26T10:58:33.849Z</time></trkpt><trkpt lat="44.3258257" lon="9.7453169"><ele>1035.0</ele><time>2026-04-26T10:58:34.849Z</time></trkpt><trkpt lat="44.3257469" lon="9.7453321"><ele>1035.0</ele><time>2026-04-26T10:58:35.85Z</time></trkpt><trkpt lat="44.3256708" lon="9.7453797"><ele>1035.0</ele><time>2026-04-26T10:58:36.849Z</time></trkpt><trkpt lat="44.3255896" lon="9.7454576"><ele>1035.0</ele><time>2026-04-26T10:58:37.849Z</time></trkpt><trkpt lat="44.3255052" lon="9.7455487"><ele>1035.0</ele><time>2026-04-26T10:58:38.85Z</time></trkpt><trkpt lat="44.325433" lon="9.7456339"><ele>1035.0</ele><time>2026-04-26T10:58:39.85Z</time></trkpt><trkpt lat="44.3253706" lon="9.745686"><ele>1035.0</ele><time>2026-04-26T10:58:40.849Z</time></trkpt><trkpt lat="44.3252607" lon="9.745765"><ele>1035.0</ele><time>2026-04-26T10:58:42.851Z</time></trkpt><trkpt lat="44.3252085" lon="9.7458146"><ele>1035.0</ele><time>2026-04-26T10:58:43.85Z</time></trkpt><trkpt lat="44.3251407" lon="9.7459491"><ele>1035.0</ele><time>2026-04-26T10:58:45.849Z</time></trkpt><trkpt lat="44.3251144" lon="9.7460451"><ele>1035.0</ele><time>2026-04-26T10:58:46.849Z</time></trkpt><trkpt lat="44.3250904" lon="9.7461525"><ele>1036.8</ele><time>2026-04-26T10:58:47.849Z</time></trkpt><trkpt lat="44.3250414" lon="9.7462625"><ele>1038.6</ele><time>2026-04-26T10:58:48.85Z</time></trkpt><trkpt lat="44.3249803" lon="9.7463654"><ele>1040.4</ele><time>2026-04-26T10:58:49.85Z</time></trkpt><trkpt lat="44.3249118" lon="9.7464649"><ele>1042.2</ele><time>2026-04-26T10:58:50.85Z</time></trkpt><trkpt lat="44.3248375" lon="9.7466028"><ele>1044.0</ele><time>2026-04-26T10:58:51.851Z</time></trkpt><trkpt lat="44.3247596" lon="9.7467571"><ele>1042.25</ele><time>2026-04-26T10:58:52.849Z</time></trkpt><trkpt lat="44.3246807" lon="9.7469098"><ele>1040.5</ele><time>2026-04-26T10:58:53.849Z</time></trkpt><trkpt lat="44.3246247" lon="9.7470218"><ele>1038.75</ele><time>2026-04-26T10:58:54.85Z</time></trkpt><trkpt lat="44.3245791" lon="9.7471512"><ele>1037.0</ele><time>2026-04-26T10:58:55.85Z</time></trkpt><trkpt lat="44.324545" lon="9.7473145"><ele>1037.0</ele><time>2026-04-26T10:58:56.85Z</time></trkpt><trkpt lat="44.3245194" lon="9.7474693"><ele>1037.0</ele><time>2026-04-26T10:58:57.851Z</time></trkpt><trkpt lat="44.3245133" lon="9.7476109"><ele>1037.0</ele><time>2026-04-26T10:58:58.849Z</time></trkpt><trkpt lat="44.3244841" lon="9.7477394"><ele>1037.0</ele><time>2026-04-26T10:58:59.849Z</time></trkpt><trkpt lat="44.3244515" lon="9.7478494"><ele>1037.0</ele><time>2026-04-26T10:59:00.849Z</time></trkpt><trkpt lat="44.324414" lon="9.7479407"><ele>1039.6</ele><time>2026-04-26T10:59:01.849Z</time></trkpt><trkpt lat="44.3243706" lon="9.7480878"><ele>1042.2</ele><time>2026-04-26T10:59:03.849Z</time></trkpt><trkpt lat="44.3243554" lon="9.7481943"><ele>1044.8</ele><time>2026-04-26T10:59:04.849Z</time></trkpt><trkpt lat="44.324349" lon="9.7483283"><ele>1047.4</ele><time>2026-04-26T10:59:05.851Z</time></trkpt><trkpt lat="44.3243515" lon="9.748486"><ele>1050.0</ele><time>2026-04-26T10:59:06.849Z</time></trkpt><trkpt lat="44.3243528" lon="9.7486435"><ele>1051.8</ele><time>2026-04-26T10:59:07.85Z</time></trkpt><trkpt lat="44.3243441" lon="9.748774"><ele>1053.6</ele><time>2026-04-26T10:59:08.85Z</time></trkpt><trkpt lat="44.3243119" lon="9.7488928"><ele>1055.4</ele><time>2026-04-26T10:59:09.85Z</time></trkpt><trkpt lat="44.3242515" lon="9.7489977"><ele>1057.2</ele><time>2026-04-26T10:59:10.849Z</time></trkpt><trkpt lat="44.32418" lon="9.7490595"><ele>1059.0</ele><time>2026-04-26T10:59:11.849Z</time></trkpt><trkpt lat="44.3240907" lon="9.7490849"><ele>1059.0</ele><time>2026-04-26T10:59:12.849Z</time></trkpt><trkpt lat="44.3239791" lon="9.7490644"><ele>1059.0</ele><time>2026-04-26T10:59:13.849Z</time></trkpt><trkpt lat="44.3238741" lon="9.749031"><ele>1059.0</ele><time>2026-04-26T10:59:14.849Z</time></trkpt><trkpt lat="44.323789" lon="9.749034"><ele>1059.0</ele><time>2026-04-26T10:59:15.85Z</time></trkpt><trkpt lat="44.3237122" lon="9.7490607"><ele>1059.0</ele><time>2026-04-26T10:59:16.849Z</time></trkpt><trkpt lat="44.3236335" lon="9.749137"><ele>1057.2</ele><time>2026-04-26T10:59:17.85Z</time></trkpt><trkpt lat="44.3235623" lon="9.7492423"><ele>1055.4</ele><time>2026-04-26T10:59:18.85Z</time></trkpt><trkpt lat="44.3235247" lon="9.7493396"><ele>1053.6</ele><time>2026-04-26T10:59:19.849Z</time></trkpt><trkpt lat="44.3235052" lon="9.7494534"><ele>1051.8</ele><time>2026-04-26T10:59:20.849Z</time></trkpt><trkpt lat="44.3235101" lon="9.749621"><ele>1050.0</ele><time>2026-04-26T10:59:21.85Z</time></trkpt><trkpt lat="44.3235355" lon="9.7498193"><ele>1049.0</ele><time>2026-04-26T10:59:22.849Z</time></trkpt><trkpt lat="44.3235729" lon="9.7499959"><ele>1048.0</ele><time>2026-04-26T10:59:23.85Z</time></trkpt><trkpt lat="44.3236044" lon="9.7501637"><ele>1047.0</ele><time>2026-04-26T10:59:24.85Z</time></trkpt><trkpt lat="44.3236134" lon="9.7503287"><ele>1046.0</ele><time>2026-04-26T10:59:25.849Z</time></trkpt><trkpt lat="44.3235948" lon="9.7505174"><ele>1043.75</ele><time>2026-04-26T10:59:26.849Z</time></trkpt><trkpt lat="44.3235611" lon="9.7506928"><ele>1041.5</ele><time>2026-04-26T10:59:27.849Z</time></trkpt><trkpt lat="44.3235334" lon="9.7508497"><ele>1039.25</ele><time>2026-04-26T10:59:28.849Z</time></trkpt><trkpt lat="44.3235016" lon="9.7510202"><ele>1037.0</ele><time>2026-04-26T10:59:29.849Z</time></trkpt><trkpt lat="44.3235162" lon="9.7511957"><ele>1036.8</ele><time>2026-04-26T10:59:30.851Z</time></trkpt><trkpt lat="44.3234983" lon="9.7513411"><ele>1036.6</ele><time>2026-04-26T10:59:31.85Z</time></trkpt><trkpt lat="44.3234646" lon="9.7514652"><ele>1036.3999999999999</ele><time>2026-04-26T10:59:32.849Z</time></trkpt><trkpt lat="44.3233968" lon="9.7516012"><ele>1036.2</ele><time>2026-04-26T10:59:33.849Z</time></trkpt><trkpt lat="44.3233233" lon="9.7517264"><ele>1036.0</ele><time>2026-04-26T10:59:34.85Z</time></trkpt><trkpt lat="44.3232688" lon="9.7518353"><ele>1035.0</ele><time>2026-04-26T10:59:35.85Z</time></trkpt><trkpt lat="44.3232318" lon="9.7519447"><ele>1034.0</ele><time>2026-04-26T10:59:36.851Z</time></trkpt><trkpt lat="44.3232207" lon="9.752056"><ele>1033.0</ele><time>2026-04-26T10:59:37.849Z</time></trkpt><trkpt lat="44.3232423" lon="9.7521956"><ele>1032.0</ele><time>2026-04-26T10:59:38.849Z</time></trkpt><trkpt lat="44.3232848" lon="9.7523749"><ele>1031.0</ele><time>2026-04-26T10:59:39.849Z</time></trkpt><trkpt lat="44.3233446" lon="9.7525964"><ele>1032.25</ele><time>2026-04-26T10:59:40.849Z</time></trkpt><trkpt lat="44.3234118" lon="9.7528197"><ele>1033.5</ele><time>2026-04-26T10:59:41.85Z</time></trkpt><trkpt lat="44.3234644" lon="9.7529913"><ele>1034.75</ele><time>2026-04-26T10:59:42.85Z</time></trkpt><trkpt lat="44.3235171" lon="9.7531539"><ele>1036.0</ele><time>2026-04-26T10:59:43.85Z</time></trkpt><trkpt lat="44.3235799" lon="9.7533047"><ele>1036.0</ele><time>2026-04-26T10:59:44.849Z</time></trkpt><trkpt lat="44.3236254" lon="9.7534556"><ele>1036.0</ele><time>2026-04-26T10:59:45.849Z</time></trkpt><trkpt lat="44.3236514" lon="9.7536215"><ele>1036.0</ele><time>2026-04-26T10:59:46.849Z</time></trkpt><trkpt lat="44.3236656" lon="9.7538016"><ele>1036.0</ele><time>2026-04-26T10:59:47.849Z</time></trkpt><trkpt lat="44.3236657" lon="9.7539662"><ele>1037.5</ele><time>2026-04-26T10:59:48.85Z</time></trkpt><trkpt lat="44.3236477" lon="9.7541173"><ele>1039.0</ele><time>2026-04-26T10:59:49.849Z</time></trkpt><trkpt lat="44.3236072" lon="9.7542853"><ele>1040.5</ele><time>2026-04-26T10:59:50.849Z</time></trkpt><trkpt lat="44.3235497" lon="9.7544554"><ele>1042.0</ele><time>2026-04-26T10:59:51.849Z</time></trkpt><trkpt lat="44.3234828" lon="9.754636"><ele>1045.5</ele><time>2026-04-26T10:59:52.85Z</time></trkpt><trkpt lat="44.3234194" lon="9.7547896"><ele>1049.0</ele><time>2026-04-26T10:59:53.85Z</time></trkpt><trkpt lat="44.3233606" lon="9.7549283"><ele>1052.5</ele><time>2026-04-26T10:59:54.849Z</time></trkpt><trkpt lat="44.323314" lon="9.7550496"><ele>1056.0</ele><time>2026-04-26T10:59:55.849Z</time></trkpt><trkpt lat="44.3232743" lon="9.7552047"><ele>1054.0</ele><time>2026-04-26T10:59:56.851Z</time></trkpt><trkpt lat="44.3232312" lon="9.7553739"><ele>1052.0</ele><time>2026-04-26T10:59:57.849Z</time></trkpt><trkpt lat="44.3231808" lon="9.7555587"><ele>1050.0</ele><time>2026-04-26T10:59:58.849Z</time></trkpt><trkpt lat="44.3231218" lon="9.7557498"><ele>1048.0</ele><time>2026-04-26T10:59:59.849Z</time></trkpt><trkpt lat="44.3230561" lon="9.7559499"><ele>1049.4</ele><time>2026-04-26T11:00:00.849Z</time></trkpt><trkpt lat="44.3229906" lon="9.7561421"><ele>1050.8</ele><time>2026-04-26T11:00:01.849Z</time></trkpt><trkpt lat="44.3229564" lon="9.7562432"><ele>1052.2</ele><time>2026-04-26T11:00:02.849Z</time></trkpt><trkpt lat="44.3229154" lon="9.7563448"><ele>1053.6</ele><time>2026-04-26T11:00:03.85Z</time></trkpt><trkpt lat="44.3228896" lon="9.7564578"><ele>1055.0</ele><time>2026-04-26T11:00:04.85Z</time></trkpt><trkpt lat="44.3228809" lon="9.7565967"><ele>1055.0</ele><time>2026-04-26T11:00:05.85Z</time></trkpt><trkpt lat="44.3228961" lon="9.7567631"><ele>1055.0</ele><time>2026-04-26T11:00:06.849Z</time></trkpt><trkpt lat="44.3229211" lon="9.7569381"><ele>1055.0</ele><time>2026-04-26T11:00:07.849Z</time></trkpt><trkpt lat="44.3229574" lon="9.7570958"><ele>1055.0</ele><time>2026-04-26T11:00:08.849Z</time></trkpt><trkpt lat="44.3230238" lon="9.7572585"><ele>1059.75</ele><time>2026-04-26T11:00:09.85Z</time></trkpt><trkpt lat="44.3231113" lon="9.7574336"><ele>1064.5</ele><time>2026-04-26T11:00:10.849Z</time></trkpt><trkpt lat="44.3231976" lon="9.7576182"><ele>1069.25</ele><time>2026-04-26T11:00:11.849Z</time></trkpt><trkpt lat="44.3232685" lon="9.7577626"><ele>1074.0</ele><time>2026-04-26T11:00:12.849Z</time></trkpt><trkpt lat="44.3233228" lon="9.7578785"><ele>1074.0</ele><time>2026-04-26T11:00:13.85Z</time></trkpt><trkpt lat="44.3233508" lon="9.7580059"><ele>1074.0</ele><time>2026-04-26T11:00:14.85Z</time></trkpt><trkpt lat="44.3233522" lon="9.7581362"><ele>1074.0</ele><time>2026-04-26T11:00:15.85Z</time></trkpt><trkpt lat="44.3233447" lon="9.7582881"><ele>1074.0</ele><time>2026-04-26T11:00:16.849Z</time></trkpt><trkpt lat="44.3233362" lon="9.7584381"><ele>1074.0</ele><time>2026-04-26T11:00:17.849Z</time></trkpt><trkpt lat="44.3233046" lon="9.7585543"><ele>1075.8</ele><time>2026-04-26T11:00:18.848Z</time></trkpt><trkpt lat="44.3232475" lon="9.7586712"><ele>1077.6000000000001</ele><time>2026-04-26T11:00:19.848Z</time></trkpt><trkpt lat="44.3231662" lon="9.7588002"><ele>1079.4</ele><time>2026-04-26T11:00:20.848Z</time></trkpt><trkpt lat="44.3231019" lon="9.7589055"><ele>1081.2</ele><time>2026-04-26T11:00:21.848Z</time></trkpt><trkpt lat="44.3230682" lon="9.7590219"><ele>1083.0</ele><time>2026-04-26T11:00:22.849Z</time></trkpt><trkpt lat="44.3230496" lon="9.7591784"><ele>1079.4</ele><time>2026-04-26T11:00:23.849Z</time></trkpt><trkpt lat="44.323026" lon="9.7593543"><ele>1075.8</ele><time>2026-04-26T11:00:24.849Z</time></trkpt><trkpt lat="44.3229778" lon="9.759507"><ele>1072.2</ele><time>2026-04-26T11:00:25.849Z</time></trkpt><trkpt lat="44.3229543" lon="9.7596235"><ele>1068.6</ele><time>2026-04-26T11:00:26.849Z</time></trkpt><trkpt lat="44.3229558" lon="9.7597327"><ele>1065.0</ele><time>2026-04-26T11:00:27.848Z</time></trkpt><trkpt lat="44.3229893" lon="9.7598392"><ele>1065.0</ele><time>2026-04-26T11:00:28.848Z</time></trkpt><trkpt lat="44.3230384" lon="9.7599554"><ele>1065.0</ele><time>2026-04-26T11:00:29.848Z</time></trkpt><trkpt lat="44.3230604" lon="9.760054"><ele>1065.0</ele><time>2026-04-26T11:00:30.848Z</time></trkpt><trkpt lat="44.3230529" lon="9.7601602"><ele>1065.0</ele><time>2026-04-26T11:00:31.848Z</time></trkpt><trkpt lat="44.3230377" lon="9.7602877"><ele>1065.0</ele><time>2026-04-26T11:00:32.848Z</time></trkpt><trkpt lat="44.3229595" lon="9.760466"><ele>1068.0</ele><time>2026-04-26T11:00:33.848Z</time></trkpt><trkpt lat="44.3229201" lon="9.7605942"><ele>1071.0</ele><time>2026-04-26T11:00:34.848Z</time></trkpt><trkpt lat="44.3228744" lon="9.7606929"><ele>1074.0</ele><time>2026-04-26T11:00:35.849Z</time></trkpt><trkpt lat="44.3228098" lon="9.7607416"><ele>1077.0</ele><time>2026-04-26T11:00:36.849Z</time></trkpt><trkpt lat="44.3227409" lon="9.7607743"><ele>1080.0</ele><time>2026-04-26T11:00:37.849Z</time></trkpt><trkpt lat="44.322667" lon="9.7607893"><ele>1083.0</ele><time>2026-04-26T11:00:38.848Z</time></trkpt><trkpt lat="44.3225801" lon="9.7608054"><ele>1083.0</ele><time>2026-04-26T11:00:39.849Z</time></trkpt><trkpt lat="44.3224754" lon="9.7608145"><ele>1083.0</ele><time>2026-04-26T11:00:40.849Z</time></trkpt><trkpt lat="44.3223567" lon="9.760835"><ele>1083.0</ele><time>2026-04-26T11:00:41.849Z</time></trkpt><trkpt lat="44.322253" lon="9.7608692"><ele>1083.0</ele><time>2026-04-26T11:00:42.849Z</time></trkpt><trkpt lat="44.3221686" lon="9.7609276"><ele>1083.0</ele><time>2026-04-26T11:00:43.849Z</time></trkpt><trkpt lat="44.3220829" lon="9.7610012"><ele>1083.8</ele><time>2026-04-26T11:00:44.849Z</time></trkpt><trkpt lat="44.3220195" lon="9.7610929"><ele>1084.6</ele><time>2026-04-26T11:00:45.848Z</time></trkpt><trkpt lat="44.3219788" lon="9.7612065"><ele>1085.4</ele><time>2026-04-26T11:00:46.848Z</time></trkpt><trkpt lat="44.32195" lon="9.7613608"><ele>1086.2</ele><time>2026-04-26T11:00:47.848Z</time></trkpt><trkpt lat="44.3219321" lon="9.7615158"><ele>1087.0</ele><time>2026-04-26T11:00:48.849Z</time></trkpt><trkpt lat="44.3219252" lon="9.7616357"><ele>1087.0</ele><time>2026-04-26T11:00:49.849Z</time></trkpt><trkpt lat="44.3219129" lon="9.7617347"><ele>1087.0</ele><time>2026-04-26T11:00:50.848Z</time></trkpt><trkpt lat="44.3218289" lon="9.7618347"><ele>1087.0</ele><time>2026-04-26T11:00:52.848Z</time></trkpt><trkpt lat="44.3217384" lon="9.7618174"><ele>1087.0</ele><time>2026-04-26T11:00:54.849Z</time></trkpt><trkpt lat="44.3216412" lon="9.7617582"><ele>1087.0</ele><time>2026-04-26T11:00:56.849Z</time></trkpt><trkpt lat="44.3215705" lon="9.761734"><ele>1087.0</ele><time>2026-04-26T11:00:57.849Z</time></trkpt><trkpt lat="44.3214975" lon="9.7617318"><ele>1087.0</ele><time>2026-04-26T11:00:58.848Z</time></trkpt><trkpt lat="44.3214206" lon="9.7617367"><ele>1087.0</ele><time>2026-04-26T11:00:59.848Z</time></trkpt><trkpt lat="44.3213547" lon="9.7617088"><ele>1087.0</ele><time>2026-04-26T11:01:00.849Z</time></trkpt><trkpt lat="44.3212814" lon="9.7615971"><ele>1087.0</ele><time>2026-04-26T11:01:02.848Z</time></trkpt><trkpt lat="44.3212335" lon="9.7614793"><ele>1087.0</ele><time>2026-04-26T11:01:04.848Z</time></trkpt><trkpt lat="44.3211925" lon="9.7613635"><ele>1085.1666666666665</ele><time>2026-04-26T11:01:06.85Z</time></trkpt><trkpt lat="44.3211344" lon="9.7612974"><ele>1083.3333333333333</ele><time>2026-04-26T11:01:22.848Z</time></trkpt><trkpt lat="44.321046" lon="9.7612423"><ele>1081.5</ele><time>2026-04-26T11:01:24.848Z</time></trkpt><trkpt lat="44.3209828" lon="9.7611993"><ele>1079.6666666666667</ele><time>2026-04-26T11:01:25.85Z</time></trkpt><trkpt lat="44.3209262" lon="9.761158"><ele>1077.8333333333335</ele><time>2026-04-26T11:01:26.849Z</time></trkpt><trkpt lat="44.3208757" lon="9.761031"><ele>1076.0</ele><time>2026-04-26T11:01:28.848Z</time></trkpt><trkpt lat="44.320878" lon="9.7609241"><ele>1074.0</ele><time>2026-04-26T11:01:29.848Z</time></trkpt><trkpt lat="44.3208669" lon="9.7608157"><ele>1072.0</ele><time>2026-04-26T11:01:30.849Z</time></trkpt><trkpt lat="44.3208269" lon="9.7607074"><ele>1070.0</ele><time>2026-04-26T11:01:31.849Z</time></trkpt><trkpt lat="44.3207813" lon="9.7605866"><ele>1068.0</ele><time>2026-04-26T11:01:32.848Z</time></trkpt><trkpt lat="44.3207354" lon="9.7604826"><ele>1066.0</ele><time>2026-04-26T11:01:33.849Z</time></trkpt><trkpt lat="44.3206839" lon="9.7603891"><ele>1064.0</ele><time>2026-04-26T11:01:34.848Z</time></trkpt><trkpt lat="44.3206269" lon="9.760316"><ele>1061.0</ele><time>2026-04-26T11:01:35.848Z</time></trkpt><trkpt lat="44.3205186" lon="9.7602502"><ele>1058.0</ele><time>2026-04-26T11:01:37.849Z</time></trkpt><trkpt lat="44.3204457" lon="9.7602953"><ele>1055.0</ele><time>2026-04-26T11:01:39.849Z</time></trkpt><trkpt lat="44.3204367" lon="9.7603934"><ele>1052.0</ele><time>2026-04-26T11:01:41.848Z</time></trkpt><trkpt lat="44.3204591" lon="9.7605198"><ele>1049.0</ele><time>2026-04-26T11:01:43.848Z</time></trkpt><trkpt lat="44.3204675" lon="9.7606081"><ele>1046.0</ele><time>2026-04-26T11:01:44.849Z</time></trkpt><trkpt lat="44.3204649" lon="9.7607065"><ele>1045.9999999999998</ele><time>2026-04-26T11:01:45.849Z</time></trkpt><trkpt lat="44.3204564" lon="9.7607984"><ele>1046.0</ele><time>2026-04-26T11:01:46.848Z</time></trkpt><trkpt lat="44.3204374" lon="9.7608856"><ele>1046.0</ele><time>2026-04-26T11:01:47.848Z</time></trkpt><trkpt lat="44.3204065" lon="9.7609658"><ele>1046.0</ele><time>2026-04-26T11:01:48.848Z</time></trkpt><trkpt lat="44.3203711" lon="9.7610434"><ele>1046.0</ele><time>2026-04-26T11:01:49.848Z</time></trkpt><trkpt lat="44.3203312" lon="9.7611136"><ele>1045.9999999999998</ele><time>2026-04-26T11:01:50.848Z</time></trkpt><trkpt lat="44.3202917" lon="9.7611834"><ele>1046.0</ele><time>2026-04-26T11:01:51.849Z</time></trkpt><trkpt lat="44.3202449" lon="9.76125"><ele>1046.6666666666667</ele><time>2026-04-26T11:01:52.849Z</time></trkpt><trkpt lat="44.3201895" lon="9.7613024"><ele>1047.3333333333335</ele><time>2026-04-26T11:01:53.849Z</time></trkpt><trkpt lat="44.3201331" lon="9.7613448"><ele>1048.0</ele><time>2026-04-26T11:01:54.849Z</time></trkpt><trkpt lat="44.3200552" lon="9.761372"><ele>1048.6666666666667</ele><time>2026-04-26T11:01:55.849Z</time></trkpt><trkpt lat="44.319975" lon="9.7614003"><ele>1049.3333333333333</ele><time>2026-04-26T11:01:56.849Z</time></trkpt><trkpt lat="44.3198998" lon="9.761428"><ele>1050.0</ele><time>2026-04-26T11:01:57.848Z</time></trkpt><trkpt lat="44.3198188" lon="9.7614474"><ele>1044.8</ele><time>2026-04-26T11:01:58.848Z</time></trkpt><trkpt lat="44.3197184" lon="9.7614627"><ele>1039.6</ele><time>2026-04-26T11:01:59.848Z</time></trkpt><trkpt lat="44.3196209" lon="9.7614809"><ele>1034.4</ele><time>2026-04-26T11:02:00.848Z</time></trkpt><trkpt lat="44.3195267" lon="9.7615025"><ele>1029.2</ele><time>2026-04-26T11:02:01.848Z</time></trkpt><trkpt lat="44.3194331" lon="9.7615131"><ele>1024.0</ele><time>2026-04-26T11:02:02.848Z</time></trkpt><trkpt lat="44.3193388" lon="9.7614944"><ele>1024.0</ele><time>2026-04-26T11:02:03.848Z</time></trkpt><trkpt lat="44.319226" lon="9.7614461"><ele>1024.0</ele><time>2026-04-26T11:02:04.848Z</time></trkpt><trkpt lat="44.3191109" lon="9.761383"><ele>1024.0</ele><time>2026-04-26T11:02:05.848Z</time></trkpt><trkpt lat="44.3189839" lon="9.7613087"><ele>1024.0</ele><time>2026-04-26T11:02:06.848Z</time></trkpt><trkpt lat="44.3188368" lon="9.7612368"><ele>1022.5</ele><time>2026-04-26T11:02:07.848Z</time></trkpt><trkpt lat="44.3186799" lon="9.761168"><ele>1021.0</ele><time>2026-04-26T11:02:08.848Z</time></trkpt><trkpt lat="44.3185422" lon="9.7611117"><ele>1019.5</ele><time>2026-04-26T11:02:09.849Z</time></trkpt><trkpt lat="44.3184126" lon="9.7610711"><ele>1018.0</ele><time>2026-04-26T11:02:10.849Z</time></trkpt><trkpt lat="44.3182996" lon="9.7610314"><ele>1018.0</ele><time>2026-04-26T11:02:11.849Z</time></trkpt><trkpt lat="44.3182059" lon="9.7609697"><ele>1018.0</ele><time>2026-04-26T11:02:12.85Z</time></trkpt><trkpt lat="44.3181204" lon="9.760878"><ele>1018.0</ele><time>2026-04-26T11:02:13.848Z</time></trkpt><trkpt lat="44.3180408" lon="9.7607772"><ele>1018.0</ele><time>2026-04-26T11:02:14.848Z</time></trkpt><trkpt lat="44.3179713" lon="9.7606717"><ele>1018.0</ele><time>2026-04-26T11:02:15.848Z</time></trkpt><trkpt lat="44.3179054" lon="9.7605392"><ele>1017.5999999999999</ele><time>2026-04-26T11:02:16.849Z</time></trkpt><trkpt lat="44.3178484" lon="9.7604095"><ele>1017.1999999999999</ele><time>2026-04-26T11:02:17.848Z</time></trkpt><trkpt lat="44.3177911" lon="9.7603036"><ele>1016.8</ele><time>2026-04-26T11:02:18.848Z</time></trkpt><trkpt lat="44.3177223" lon="9.7602055"><ele>1016.4</ele><time>2026-04-26T11:02:19.848Z</time></trkpt><trkpt lat="44.3176509" lon="9.7601289"><ele>1016.0</ele><time>2026-04-26T11:02:20.849Z</time></trkpt><trkpt lat="44.3175801" lon="9.7600795"><ele>1014.0</ele><time>2026-04-26T11:02:21.849Z</time></trkpt><trkpt lat="44.3175015" lon="9.7600656"><ele>1011.9999999999999</ele><time>2026-04-26T11:02:22.849Z</time></trkpt><trkpt lat="44.3174016" lon="9.7600822"><ele>1009.9999999999999</ele><time>2026-04-26T11:02:23.849Z</time></trkpt><trkpt lat="44.3173008" lon="9.7601284"><ele>1008.0</ele><time>2026-04-26T11:02:24.849Z</time></trkpt><trkpt lat="44.3172054" lon="9.7601988"><ele>1006.0</ele><time>2026-04-26T11:02:25.848Z</time></trkpt><trkpt lat="44.3171254" lon="9.7602474"><ele>1003.8333333333333</ele><time>2026-04-26T11:02:26.848Z</time></trkpt><trkpt lat="44.3170521" lon="9.7602695"><ele>1001.6666666666666</ele><time>2026-04-26T11:02:27.848Z</time></trkpt><trkpt lat="44.3169781" lon="9.7602573"><ele>999.5</ele><time>2026-04-26T11:02:28.848Z</time></trkpt><trkpt lat="44.31691" lon="9.7602115"><ele>997.3333333333333</ele><time>2026-04-26T11:02:29.848Z</time></trkpt><trkpt lat="44.3168274" lon="9.7601345"><ele>995.1666666666666</ele><time>2026-04-26T11:02:30.849Z</time></trkpt><trkpt lat="44.3167359" lon="9.7600406"><ele>993.0</ele><time>2026-04-26T11:02:31.849Z</time></trkpt><trkpt lat="44.3166441" lon="9.7599541"><ele>993.0</ele><time>2026-04-26T11:02:32.849Z</time></trkpt><trkpt lat="44.3165354" lon="9.7598897"><ele>993.0</ele><time>2026-04-26T11:02:33.848Z</time></trkpt><trkpt lat="44.3164137" lon="9.7598504"><ele>993.0</ele><time>2026-04-26T11:02:34.849Z</time></trkpt><trkpt lat="44.3163019" lon="9.7598155"><ele>993.0</ele><time>2026-04-26T11:02:35.849Z</time></trkpt><trkpt lat="44.3162019" lon="9.759853"><ele>992.0</ele><time>2026-04-26T11:02:36.848Z</time></trkpt><trkpt lat="44.3160982" lon="9.759856"><ele>991.0</ele><time>2026-04-26T11:02:37.848Z</time></trkpt><trkpt lat="44.3159626" lon="9.7599127"><ele>990.0</ele><time>2026-04-26T11:02:38.848Z</time></trkpt><trkpt lat="44.3158445" lon="9.7599418"><ele>989.0</ele><time>2026-04-26T11:02:39.848Z</time></trkpt><trkpt lat="44.3157368" lon="9.7599719"><ele>989.0000000000001</ele><time>2026-04-26T11:02:40.848Z</time></trkpt><trkpt lat="44.3156382" lon="9.7599972"><ele>989.0</ele><time>2026-04-26T11:02:41.848Z</time></trkpt><trkpt lat="44.315553" lon="9.7600111"><ele>989.0</ele><time>2026-04-26T11:02:42.848Z</time></trkpt><trkpt lat="44.3154826" lon="9.7600167"><ele>989.0</ele><time>2026-04-26T11:02:43.848Z</time></trkpt><trkpt lat="44.3154082" lon="9.760056"><ele>989.0000000000001</ele><time>2026-04-26T11:02:45.849Z</time></trkpt><trkpt lat="44.3153383" lon="9.7601306"><ele>989.0</ele><time>2026-04-26T11:03:18.849Z</time></trkpt><trkpt lat="44.315276" lon="9.7601937"><ele>988.8333333333334</ele><time>2026-04-26T11:03:19.848Z</time></trkpt><trkpt lat="44.3152065" lon="9.7602435"><ele>988.6666666666667</ele><time>2026-04-26T11:03:20.849Z</time></trkpt><trkpt lat="44.3151194" lon="9.7602825"><ele>988.5</ele><time>2026-04-26T11:03:21.848Z</time></trkpt><trkpt lat="44.3150115" lon="9.760302"><ele>988.3333333333333</ele><time>2026-04-26T11:03:22.849Z</time></trkpt><trkpt lat="44.3149293" lon="9.7603012"><ele>988.1666666666666</ele><time>2026-04-26T11:03:23.849Z</time></trkpt><trkpt lat="44.3148546" lon="9.7603294"><ele>988.0</ele><time>2026-04-26T11:03:24.848Z</time></trkpt><trkpt lat="44.3147943" lon="9.760377"><ele>988.0</ele><time>2026-04-26T11:03:25.849Z</time></trkpt><trkpt lat="44.314734" lon="9.7604197"><ele>988.0</ele><time>2026-04-26T11:03:26.849Z</time></trkpt><trkpt lat="44.3147136" lon="9.7605864"><ele>988.0</ele><time>2026-04-26T11:03:27.849Z</time></trkpt><trkpt lat="44.3146525" lon="9.7606964"><ele>988.0</ele><time>2026-04-26T11:03:28.848Z</time></trkpt><trkpt lat="44.3145828" lon="9.7608017"><ele>988.0</ele><time>2026-04-26T11:03:29.848Z</time></trkpt><trkpt lat="44.3144994" lon="9.7609062"><ele>988.0</ele><time>2026-04-26T11:03:30.848Z</time></trkpt><trkpt lat="44.3144198" lon="9.7610319"><ele>988.0</ele><time>2026-04-26T11:03:31.848Z</time></trkpt><trkpt lat="44.3143373" lon="9.7611641"><ele>988.0</ele><time>2026-04-26T11:03:32.849Z</time></trkpt><trkpt lat="44.3142526" lon="9.7612785"><ele>988.0</ele><time>2026-04-26T11:03:33.849Z</time></trkpt><trkpt lat="44.3141763" lon="9.7613647"><ele>988.25</ele><time>2026-04-26T11:03:34.85Z</time></trkpt><trkpt lat="44.3140926" lon="9.7614322"><ele>988.5</ele><time>2026-04-26T11:03:35.848Z</time></trkpt><trkpt lat="44.3139913" lon="9.7614885"><ele>988.75</ele><time>2026-04-26T11:03:36.85Z</time></trkpt><trkpt lat="44.3138747" lon="9.7615303"><ele>989.0</ele><time>2026-04-26T11:03:37.848Z</time></trkpt><trkpt lat="44.3137566" lon="9.7615818"><ele>989.25</ele><time>2026-04-26T11:03:38.848Z</time></trkpt><trkpt lat="44.3136236" lon="9.7616178"><ele>989.5</ele><time>2026-04-26T11:03:39.848Z</time></trkpt><trkpt lat="44.3135315" lon="9.761694"><ele>989.75</ele><time>2026-04-26T11:03:40.848Z</time></trkpt><trkpt lat="44.3134308" lon="9.7617429"><ele>990.0</ele><time>2026-04-26T11:03:41.849Z</time></trkpt><trkpt lat="44.3133219" lon="9.7618047"><ele>990.0</ele><time>2026-04-26T11:03:42.848Z</time></trkpt><trkpt lat="44.3132317" lon="9.7618524"><ele>990.0</ele><time>2026-04-26T11:03:43.849Z</time></trkpt><trkpt lat="44.3131337" lon="9.7618929"><ele>990.0</ele><time>2026-04-26T11:03:44.849Z</time></trkpt><trkpt lat="44.313022" lon="9.7619304"><ele>990.0</ele><time>2026-04-26T11:03:45.848Z</time></trkpt><trkpt lat="44.3129133" lon="9.7619937"><ele>990.0</ele><time>2026-04-26T11:03:46.848Z</time></trkpt><trkpt lat="44.3128004" lon="9.7620755"><ele>990.6666666666667</ele><time>2026-04-26T11:03:47.848Z</time></trkpt><trkpt lat="44.3126913" lon="9.7621816"><ele>991.3333333333334</ele><time>2026-04-26T11:03:48.849Z</time></trkpt><trkpt lat="44.3126021" lon="9.7622791"><ele>992.0</ele><time>2026-04-26T11:03:49.849Z</time></trkpt><trkpt lat="44.3124476" lon="9.7624973"><ele>992.0</ele><time>2026-04-26T11:03:51.849Z</time></trkpt><trkpt lat="44.3123674" lon="9.7625954"><ele>992.0</ele><time>2026-04-26T11:03:52.848Z</time></trkpt><trkpt lat="44.3122835" lon="9.7626633"><ele>992.0</ele><time>2026-04-26T11:03:53.849Z</time></trkpt><trkpt lat="44.3121804" lon="9.7627362"><ele>992.0</ele><time>2026-04-26T11:03:54.848Z</time></trkpt><trkpt lat="44.3120826" lon="9.7627868"><ele>992.0</ele><time>2026-04-26T11:03:55.849Z</time></trkpt><trkpt lat="44.3119953" lon="9.7628184"><ele>994.6</ele><time>2026-04-26T11:03:56.848Z</time></trkpt><trkpt lat="44.3118927" lon="9.762816"><ele>997.2</ele><time>2026-04-26T11:03:57.848Z</time></trkpt><trkpt lat="44.3117817" lon="9.7628071"><ele>999.8</ele><time>2026-04-26T11:03:58.848Z</time></trkpt><trkpt lat="44.3116674" lon="9.7627809"><ele>1002.4</ele><time>2026-04-26T11:03:59.849Z</time></trkpt><trkpt lat="44.3115653" lon="9.7627678"><ele>1005.0</ele><time>2026-04-26T11:04:00.849Z</time></trkpt><trkpt lat="44.3114538" lon="9.7627644"><ele>1007.4</ele><time>2026-04-26T11:04:01.849Z</time></trkpt><trkpt lat="44.3113383" lon="9.7627896"><ele>1009.8</ele><time>2026-04-26T11:04:02.848Z</time></trkpt><trkpt lat="44.3112379" lon="9.7628227"><ele>1012.2</ele><time>2026-04-26T11:04:03.848Z</time></trkpt><trkpt lat="44.3111403" lon="9.762856"><ele>1014.6</ele><time>2026-04-26T11:04:04.848Z</time></trkpt><trkpt lat="44.3110469" lon="9.7628752"><ele>1017.0</ele><time>2026-04-26T11:04:05.848Z</time></trkpt><trkpt lat="44.3109589" lon="9.7628776"><ele>1017.0</ele><time>2026-04-26T11:04:06.848Z</time></trkpt><trkpt lat="44.310871" lon="9.7628713"><ele>1017.0</ele><time>2026-04-26T11:04:07.847Z</time></trkpt><trkpt lat="44.3107885" lon="9.7628625"><ele>1017.0</ele><time>2026-04-26T11:04:08.847Z</time></trkpt><trkpt lat="44.3107137" lon="9.7628621"><ele>1017.0</ele><time>2026-04-26T11:04:09.847Z</time></trkpt><trkpt lat="44.310645" lon="9.7628806"><ele>1017.0</ele><time>2026-04-26T11:04:10.848Z</time></trkpt><trkpt lat="44.3105724" lon="9.7629303"><ele>1017.0</ele><time>2026-04-26T11:04:11.847Z</time></trkpt><trkpt lat="44.3104898" lon="9.7629969"><ele>1016.5</ele><time>2026-04-26T11:04:12.848Z</time></trkpt><trkpt lat="44.3103974" lon="9.7630589"><ele>1016.0</ele><time>2026-04-26T11:04:13.847Z</time></trkpt><trkpt lat="44.3103032" lon="9.7631093"><ele>1015.5</ele><time>2026-04-26T11:04:14.848Z</time></trkpt><trkpt lat="44.3102268" lon="9.7631617"><ele>1015.0</ele><time>2026-04-26T11:04:15.847Z</time></trkpt><trkpt lat="44.3101706" lon="9.7632263"><ele>1014.5</ele><time>2026-04-26T11:04:16.847Z</time></trkpt><trkpt lat="44.3101198" lon="9.7633101"><ele>1014.0</ele><time>2026-04-26T11:04:17.847Z</time></trkpt><trkpt lat="44.3100727" lon="9.7634189"><ele>1015.5</ele><time>2026-04-26T11:04:18.847Z</time></trkpt><trkpt lat="44.3100354" lon="9.7635478"><ele>1017.0</ele><time>2026-04-26T11:04:19.848Z</time></trkpt><trkpt lat="44.3100156" lon="9.7636811"><ele>1018.5</ele><time>2026-04-26T11:04:20.847Z</time></trkpt><trkpt lat="44.3100019" lon="9.7638197"><ele>1020.0</ele><time>2026-04-26T11:04:21.847Z</time></trkpt><trkpt lat="44.309981" lon="9.7639287"><ele>1021.5</ele><time>2026-04-26T11:04:22.848Z</time></trkpt><trkpt lat="44.3099518" lon="9.764018"><ele>1023.0</ele><time>2026-04-26T11:04:23.847Z</time></trkpt><trkpt lat="44.3098471" lon="9.7640779"><ele>1023.0</ele><time>2026-04-26T11:04:25.847Z</time></trkpt><trkpt lat="44.3097801" lon="9.7640683"><ele>1023.0</ele><time>2026-04-26T11:04:26.847Z</time></trkpt><trkpt lat="44.3097074" lon="9.7640282"><ele>1023.0</ele><time>2026-04-26T11:04:27.847Z</time></trkpt><trkpt lat="44.309629" lon="9.7639599"><ele>1023.0</ele><time>2026-04-26T11:04:28.848Z</time></trkpt><trkpt lat="44.3095476" lon="9.7639058"><ele>1023.0</ele><time>2026-04-26T11:04:29.848Z</time></trkpt><trkpt lat="44.3094791" lon="9.7638805"><ele>1023.0</ele><time>2026-04-26T11:04:30.849Z</time></trkpt><trkpt lat="44.3094137" lon="9.7638739"><ele>1022.1666666666666</ele><time>2026-04-26T11:04:31.847Z</time></trkpt><trkpt lat="44.3093174" lon="9.7639019"><ele>1021.3333333333333</ele><time>2026-04-26T11:04:33.847Z</time></trkpt><trkpt lat="44.3092109" lon="9.7639581"><ele>1020.5</ele><time>2026-04-26T11:04:35.847Z</time></trkpt><trkpt lat="44.3091481" lon="9.7639905"><ele>1019.6666666666666</ele><time>2026-04-26T11:04:36.847Z</time></trkpt><trkpt lat="44.3090786" lon="9.7640411"><ele>1018.8333333333333</ele><time>2026-04-26T11:04:37.847Z</time></trkpt><trkpt lat="44.3089918" lon="9.7640817"><ele>1018.0</ele><time>2026-04-26T11:04:38.847Z</time></trkpt><trkpt lat="44.3088923" lon="9.7641068"><ele>1017.0</ele><time>2026-04-26T11:04:39.847Z</time></trkpt><trkpt lat="44.3087991" lon="9.7641256"><ele>1016.0</ele><time>2026-04-26T11:04:40.847Z</time></trkpt><trkpt lat="44.3087073" lon="9.7641318"><ele>1015.0</ele><time>2026-04-26T11:04:41.847Z</time></trkpt><trkpt lat="44.3086165" lon="9.7641341"><ele>1014.0</ele><time>2026-04-26T11:04:42.847Z</time></trkpt><trkpt lat="44.3085307" lon="9.7641268"><ele>1013.0</ele><time>2026-04-26T11:04:43.847Z</time></trkpt><trkpt lat="44.3084357" lon="9.7641144"><ele>1013.0</ele><time>2026-04-26T11:04:44.848Z</time></trkpt><trkpt lat="44.3083418" lon="9.7641136"><ele>1013.0</ele><time>2026-04-26T11:04:45.848Z</time></trkpt><trkpt lat="44.3082537" lon="9.7641302"><ele>1013.0</ele><time>2026-04-26T11:04:46.849Z</time></trkpt><trkpt lat="44.3081616" lon="9.764152"><ele>1013.0</ele><time>2026-04-26T11:04:47.848Z</time></trkpt><trkpt lat="44.3080637" lon="9.7641747"><ele>1013.0</ele><time>2026-04-26T11:04:48.848Z</time></trkpt><trkpt lat="44.3079339" lon="9.7641974"><ele>1013.5</ele><time>2026-04-26T11:04:49.847Z</time></trkpt><trkpt lat="44.3077934" lon="9.7642255"><ele>1014.0</ele><time>2026-04-26T11:04:50.847Z</time></trkpt><trkpt lat="44.3076634" lon="9.7642779"><ele>1014.5</ele><time>2026-04-26T11:04:51.847Z</time></trkpt><trkpt lat="44.3075612" lon="9.7643256"><ele>1015.0</ele><time>2026-04-26T11:04:52.847Z</time></trkpt><trkpt lat="44.3074833" lon="9.7643908"><ele>1015.0</ele><time>2026-04-26T11:04:53.847Z</time></trkpt><trkpt lat="44.3074201" lon="9.7644907"><ele>1015.0</ele><time>2026-04-26T11:04:54.848Z</time></trkpt><trkpt lat="44.3073563" lon="9.7646373"><ele>1015.0</ele><time>2026-04-26T11:04:55.849Z</time></trkpt><trkpt lat="44.307306" lon="9.7647737"><ele>1015.0</ele><time>2026-04-26T11:04:56.848Z</time></trkpt><trkpt lat="44.3072559" lon="9.7648841"><ele>1015.0</ele><time>2026-04-26T11:04:57.849Z</time></trkpt><trkpt lat="44.3071936" lon="9.7649896"><ele>1014.8</ele><time>2026-04-26T11:04:58.848Z</time></trkpt><trkpt lat="44.3071175" lon="9.7650817"><ele>1014.6</ele><time>2026-04-26T11:04:59.847Z</time></trkpt><trkpt lat="44.307022" lon="9.7651628"><ele>1014.4000000000001</ele><time>2026-04-26T11:05:00.847Z</time></trkpt><trkpt lat="44.3069176" lon="9.765223"><ele>1014.2</ele><time>2026-04-26T11:05:01.847Z</time></trkpt><trkpt lat="44.3068082" lon="9.7652778"><ele>1014.0</ele><time>2026-04-26T11:05:02.847Z</time></trkpt><trkpt lat="44.3066676" lon="9.7653152"><ele>1014.0</ele><time>2026-04-26T11:05:03.847Z</time></trkpt><trkpt lat="44.3065399" lon="9.7653431"><ele>1014.0000000000001</ele><time>2026-04-26T11:05:04.847Z</time></trkpt><trkpt lat="44.3064259" lon="9.7653811"><ele>1014.0000000000001</ele><time>2026-04-26T11:05:05.847Z</time></trkpt><trkpt lat="44.306324" lon="9.7654307"><ele>1014.0</ele><time>2026-04-26T11:05:06.848Z</time></trkpt><trkpt lat="44.3062462" lon="9.7654908"><ele>1014.0</ele><time>2026-04-26T11:05:07.848Z</time></trkpt><trkpt lat="44.3061701" lon="9.7655553"><ele>1018.0</ele><time>2026-04-26T11:05:08.848Z</time></trkpt><trkpt lat="44.3060986" lon="9.7656274"><ele>1022.0</ele><time>2026-04-26T11:05:09.847Z</time></trkpt><trkpt lat="44.306022" lon="9.7656782"><ele>1026.0</ele><time>2026-04-26T11:05:10.848Z</time></trkpt><trkpt lat="44.3059441" lon="9.7657109"><ele>1030.0</ele><time>2026-04-26T11:05:11.847Z</time></trkpt><trkpt lat="44.3058553" lon="9.7657342"><ele>1034.0</ele><time>2026-04-26T11:05:12.847Z</time></trkpt><trkpt lat="44.3057604" lon="9.76577"><ele>1038.0</ele><time>2026-04-26T11:05:13.847Z</time></trkpt><trkpt lat="44.3056791" lon="9.7658283"><ele>1038.0</ele><time>2026-04-26T11:05:14.847Z</time></trkpt><trkpt lat="44.305587" lon="9.7659079"><ele>1038.0</ele><time>2026-04-26T11:05:15.848Z</time></trkpt><trkpt lat="44.3055059" lon="9.7659815"><ele>1038.0</ele><time>2026-04-26T11:05:16.847Z</time></trkpt><trkpt lat="44.305441" lon="9.7660359"><ele>1038.0</ele><time>2026-04-26T11:05:17.847Z</time></trkpt><trkpt lat="44.3053746" lon="9.7660651"><ele>1038.0</ele><time>2026-04-26T11:05:18.847Z</time></trkpt><trkpt lat="44.3053056" lon="9.7660668"><ele>1038.0</ele><time>2026-04-26T11:05:19.847Z</time></trkpt><trkpt lat="44.3052313" lon="9.7660278"><ele>1040.0</ele><time>2026-04-26T11:05:20.847Z</time></trkpt><trkpt lat="44.3051622" lon="9.7659638"><ele>1042.0</ele><time>2026-04-26T11:05:21.847Z</time></trkpt><trkpt lat="44.3050903" lon="9.7658686"><ele>1044.0</ele><time>2026-04-26T11:05:22.847Z</time></trkpt><trkpt lat="44.3050225" lon="9.765781"><ele>1046.0</ele><time>2026-04-26T11:05:23.847Z</time></trkpt><trkpt lat="44.3049531" lon="9.7657197"><ele>1048.0</ele><time>2026-04-26T11:05:24.847Z</time></trkpt><trkpt lat="44.3048839" lon="9.7656701"><ele>1050.0</ele><time>2026-04-26T11:05:25.847Z</time></trkpt><trkpt lat="44.3048209" lon="9.7656513"><ele>1050.0</ele><time>2026-04-26T11:05:26.847Z</time></trkpt><trkpt lat="44.304753" lon="9.7656354"><ele>1050.0</ele><time>2026-04-26T11:05:27.847Z</time></trkpt><trkpt lat="44.3046539" lon="9.7656525"><ele>1050.0</ele><time>2026-04-26T11:05:28.847Z</time></trkpt><trkpt lat="44.3045764" lon="9.7656322"><ele>1050.0</ele><time>2026-04-26T11:05:29.847Z</time></trkpt><trkpt lat="44.3044626" lon="9.765657"><ele>1050.0</ele><time>2026-04-26T11:05:31.847Z</time></trkpt><trkpt lat="44.3043792" lon="9.7657676"><ele>1049.8</ele><time>2026-04-26T11:05:33.847Z</time></trkpt><trkpt lat="44.3043393" lon="9.7658766"><ele>1049.6</ele><time>2026-04-26T11:05:34.847Z</time></trkpt><trkpt lat="44.3042856" lon="9.7660065"><ele>1049.4</ele><time>2026-04-26T11:05:35.847Z</time></trkpt><trkpt lat="44.3042198" lon="9.7661331"><ele>1049.2</ele><time>2026-04-26T11:05:36.848Z</time></trkpt><trkpt lat="44.3041384" lon="9.7662736"><ele>1049.0</ele><time>2026-04-26T11:05:37.847Z</time></trkpt><trkpt lat="44.3040494" lon="9.7663986"><ele>1049.0</ele><time>2026-04-26T11:05:38.847Z</time></trkpt><trkpt lat="44.3039734" lon="9.7665358"><ele>1049.0</ele><time>2026-04-26T11:05:39.847Z</time></trkpt><trkpt lat="44.3038964" lon="9.7666947"><ele>1049.0</ele><time>2026-04-26T11:05:40.848Z</time></trkpt><trkpt lat="44.3038263" lon="9.7668449"><ele>1049.0</ele><time>2026-04-26T11:05:41.848Z</time></trkpt><trkpt lat="44.3037679" lon="9.7670051"><ele>1049.75</ele><time>2026-04-26T11:05:42.847Z</time></trkpt><trkpt lat="44.3037191" lon="9.7671896"><ele>1050.5</ele><time>2026-04-26T11:05:43.847Z</time></trkpt><trkpt lat="44.3036719" lon="9.7673846"><ele>1051.25</ele><time>2026-04-26T11:05:44.847Z</time></trkpt><trkpt lat="44.3036188" lon="9.76756"><ele>1052.0</ele><time>2026-04-26T11:05:45.847Z</time></trkpt><trkpt lat="44.3035592" lon="9.7677256"><ele>1052.75</ele><time>2026-04-26T11:05:46.847Z</time></trkpt><trkpt lat="44.3034909" lon="9.7678859"><ele>1053.5</ele><time>2026-04-26T11:05:47.847Z</time></trkpt><trkpt lat="44.3034224" lon="9.7680403"><ele>1054.25</ele><time>2026-04-26T11:05:48.848Z</time></trkpt><trkpt lat="44.3033688" lon="9.7681643"><ele>1055.0</ele><time>2026-04-26T11:05:49.848Z</time></trkpt><trkpt lat="44.3033203" lon="9.768266"><ele>1055.0</ele><time>2026-04-26T11:05:50.847Z</time></trkpt><trkpt lat="44.3032582" lon="9.7683555"><ele>1055.0</ele><time>2026-04-26T11:05:51.847Z</time></trkpt><trkpt lat="44.3031675" lon="9.7684419"><ele>1055.0</ele><time>2026-04-26T11:05:52.847Z</time></trkpt><trkpt lat="44.303053" lon="9.7685306"><ele>1055.0</ele><time>2026-04-26T11:05:53.848Z</time></trkpt><trkpt lat="44.3029275" lon="9.7686337"><ele>1058.5</ele><time>2026-04-26T11:05:54.848Z</time></trkpt><trkpt lat="44.3028085" lon="9.7687366"><ele>1062.0</ele><time>2026-04-26T11:05:55.847Z</time></trkpt><trkpt lat="44.3026801" lon="9.7688326"><ele>1065.5</ele><time>2026-04-26T11:05:56.848Z</time></trkpt><trkpt lat="44.3025622" lon="9.7689164"><ele>1069.0</ele><time>2026-04-26T11:05:57.847Z</time></trkpt><trkpt lat="44.3024655" lon="9.7689776"><ele>1069.0</ele><time>2026-04-26T11:05:58.847Z</time></trkpt><trkpt lat="44.3023655" lon="9.7690129"><ele>1069.0</ele><time>2026-04-26T11:05:59.849Z</time></trkpt><trkpt lat="44.3022704" lon="9.7690421"><ele>1069.0</ele><time>2026-04-26T11:06:00.847Z</time></trkpt><trkpt lat="44.3021884" lon="9.7690719"><ele>1069.0</ele><time>2026-04-26T11:06:01.847Z</time></trkpt><trkpt lat="44.3021239" lon="9.7691184"><ele>1069.0</ele><time>2026-04-26T11:06:02.847Z</time></trkpt><trkpt lat="44.3020702" lon="9.7691863"><ele>1069.0</ele><time>2026-04-26T11:06:03.847Z</time></trkpt><trkpt lat="44.3020235" lon="9.7692864"><ele>1070.75</ele><time>2026-04-26T11:06:04.848Z</time></trkpt><trkpt lat="44.3019802" lon="9.769438"><ele>1072.5</ele><time>2026-04-26T11:06:05.847Z</time></trkpt><trkpt lat="44.3019157" lon="9.769614"><ele>1074.25</ele><time>2026-04-26T11:06:06.847Z</time></trkpt><trkpt lat="44.3018325" lon="9.769816"><ele>1076.0</ele><time>2026-04-26T11:06:07.847Z</time></trkpt><trkpt lat="44.3017401" lon="9.7700315"><ele>1077.0</ele><time>2026-04-26T11:06:08.848Z</time></trkpt><trkpt lat="44.3016352" lon="9.7702443"><ele>1078.0</ele><time>2026-04-26T11:06:09.847Z</time></trkpt><trkpt lat="44.3015351" lon="9.7704282"><ele>1079.0</ele><time>2026-04-26T11:06:10.847Z</time></trkpt><trkpt lat="44.3014345" lon="9.7705934"><ele>1078.5</ele><time>2026-04-26T11:06:11.848Z</time></trkpt><trkpt lat="44.3013453" lon="9.7707494"><ele>1078.0</ele><time>2026-04-26T11:06:12.848Z</time></trkpt><trkpt lat="44.301259" lon="9.7709078"><ele>1077.5</ele><time>2026-04-26T11:06:13.847Z</time></trkpt><trkpt lat="44.3011752" lon="9.7710651"><ele>1077.0</ele><time>2026-04-26T11:06:14.848Z</time></trkpt><trkpt lat="44.3010973" lon="9.7712066"><ele>1077.0</ele><time>2026-04-26T11:06:15.848Z</time></trkpt><trkpt lat="44.3010257" lon="9.7713226"><ele>1077.0</ele><time>2026-04-26T11:06:16.849Z</time></trkpt><trkpt lat="44.300955" lon="9.7714381"><ele>1077.0</ele><time>2026-04-26T11:06:17.848Z</time></trkpt><trkpt lat="44.3008876" lon="9.7715472"><ele>1077.0</ele><time>2026-04-26T11:06:18.848Z</time></trkpt><trkpt lat="44.3008343" lon="9.7716511"><ele>1077.0</ele><time>2026-04-26T11:06:19.848Z</time></trkpt><trkpt lat="44.3008012" lon="9.7717724"><ele>1075.2</ele><time>2026-04-26T11:06:20.847Z</time></trkpt><trkpt lat="44.3007919" lon="9.7719234"><ele>1073.4</ele><time>2026-04-26T11:06:21.847Z</time></trkpt><trkpt lat="44.3007766" lon="9.7720676"><ele>1071.6</ele><time>2026-04-26T11:06:22.847Z</time></trkpt><trkpt lat="44.3007595" lon="9.7721871"><ele>1069.8</ele><time>2026-04-26T11:06:23.847Z</time></trkpt><trkpt lat="44.3007448" lon="9.7722891"><ele>1068.0</ele><time>2026-04-26T11:06:24.847Z</time></trkpt><trkpt lat="44.3007266" lon="9.7723987"><ele>1068.0</ele><time>2026-04-26T11:06:25.847Z</time></trkpt><trkpt lat="44.30072" lon="9.7725025"><ele>1068.0</ele><time>2026-04-26T11:06:26.847Z</time></trkpt><trkpt lat="44.3007231" lon="9.7726422"><ele>1068.0</ele><time>2026-04-26T11:06:27.848Z</time></trkpt><trkpt lat="44.3007293" lon="9.7727969"><ele>1068.0</ele><time>2026-04-26T11:06:28.847Z</time></trkpt><trkpt lat="44.3007332" lon="9.772971"><ele>1068.0</ele><time>2026-04-26T11:06:29.847Z</time></trkpt><trkpt lat="44.3007328" lon="9.7731464"><ele>1067.2</ele><time>2026-04-26T11:06:30.847Z</time></trkpt><trkpt lat="44.3007263" lon="9.7733018"><ele>1066.4</ele><time>2026-04-26T11:06:31.847Z</time></trkpt><trkpt lat="44.3007157" lon="9.773453"><ele>1065.6000000000001</ele><time>2026-04-26T11:06:32.848Z</time></trkpt><trkpt lat="44.3006995" lon="9.7736046"><ele>1064.8</ele><time>2026-04-26T11:06:33.847Z</time></trkpt><trkpt lat="44.3006832" lon="9.7737546"><ele>1064.0</ele><time>2026-04-26T11:06:34.848Z</time></trkpt><trkpt lat="44.300673" lon="9.7738935"><ele>1063.5</ele><time>2026-04-26T11:06:35.847Z</time></trkpt><trkpt lat="44.3006727" lon="9.7740284"><ele>1063.0</ele><time>2026-04-26T11:06:36.847Z</time></trkpt><trkpt lat="44.3006811" lon="9.7741919"><ele>1062.5</ele><time>2026-04-26T11:06:37.847Z</time></trkpt><trkpt lat="44.3006929" lon="9.77436"><ele>1062.0</ele><time>2026-04-26T11:06:38.847Z</time></trkpt><trkpt lat="44.3007045" lon="9.7745395"><ele>1061.0</ele><time>2026-04-26T11:06:39.847Z</time></trkpt><trkpt lat="44.3007024" lon="9.7747563"><ele>1060.0</ele><time>2026-04-26T11:06:40.848Z</time></trkpt><trkpt lat="44.3006981" lon="9.7749788"><ele>1059.0</ele><time>2026-04-26T11:06:41.847Z</time></trkpt><trkpt lat="44.3006787" lon="9.7752067"><ele>1061.25</ele><time>2026-04-26T11:06:42.847Z</time></trkpt><trkpt lat="44.3006564" lon="9.7754043"><ele>1063.5</ele><time>2026-04-26T11:06:43.847Z</time></trkpt><trkpt lat="44.3006211" lon="9.7755758"><ele>1065.75</ele><time>2026-04-26T11:06:44.847Z</time></trkpt><trkpt lat="44.3005797" lon="9.7757264"><ele>1068.0</ele><time>2026-04-26T11:06:45.848Z</time></trkpt><trkpt lat="44.300517" lon="9.7758471"><ele>1064.8</ele><time>2026-04-26T11:06:46.848Z</time></trkpt><trkpt lat="44.3004184" lon="9.7759581"><ele>1061.6</ele><time>2026-04-26T11:06:47.847Z</time></trkpt><trkpt lat="44.3003222" lon="9.7760341"><ele>1058.4</ele><time>2026-04-26T11:06:48.848Z</time></trkpt><trkpt lat="44.3002379" lon="9.7761063"><ele>1055.2</ele><time>2026-04-26T11:06:49.848Z</time></trkpt><trkpt lat="44.3001769" lon="9.776192"><ele>1052.0</ele><time>2026-04-26T11:06:50.849Z</time></trkpt><trkpt lat="44.3001361" lon="9.7762978"><ele>1052.0</ele><time>2026-04-26T11:06:51.848Z</time></trkpt><trkpt lat="44.3001228" lon="9.7764284"><ele>1052.0</ele><time>2026-04-26T11:06:52.848Z</time></trkpt><trkpt lat="44.3001088" lon="9.7765742"><ele>1052.0</ele><time>2026-04-26T11:06:53.848Z</time></trkpt><trkpt lat="44.3000778" lon="9.7766944"><ele>1052.0</ele><time>2026-04-26T11:06:54.848Z</time></trkpt><trkpt lat="44.3000305" lon="9.7767821"><ele>1052.0</ele><time>2026-04-26T11:06:55.847Z</time></trkpt><trkpt lat="44.2999501" lon="9.7768695"><ele>1055.0</ele><time>2026-04-26T11:06:56.847Z</time></trkpt><trkpt lat="44.2998669" lon="9.7769606"><ele>1058.0</ele><time>2026-04-26T11:06:57.848Z</time></trkpt><trkpt lat="44.2997873" lon="9.7770885"><ele>1061.0</ele><time>2026-04-26T11:06:58.847Z</time></trkpt><trkpt lat="44.2996924" lon="9.7772475"><ele>1064.0</ele><time>2026-04-26T11:06:59.847Z</time></trkpt><trkpt lat="44.2996054" lon="9.7773976"><ele>1056.6666666666667</ele><time>2026-04-26T11:07:00.848Z</time></trkpt><trkpt lat="44.2995137" lon="9.777564"><ele>1049.3333333333333</ele><time>2026-04-26T11:07:01.848Z</time></trkpt><trkpt lat="44.2994234" lon="9.7777439"><ele>1042.0</ele><time>2026-04-26T11:07:02.848Z</time></trkpt><trkpt lat="44.2993361" lon="9.7779077"><ele>1042.0</ele><time>2026-04-26T11:07:03.848Z</time></trkpt><trkpt lat="44.2992599" lon="9.7780481"><ele>1042.0</ele><time>2026-04-26T11:07:04.848Z</time></trkpt><trkpt lat="44.2991841" lon="9.7781994"><ele>1042.0</ele><time>2026-04-26T11:07:05.847Z</time></trkpt><trkpt lat="44.2991026" lon="9.7783539"><ele>1042.0</ele><time>2026-04-26T11:07:06.847Z</time></trkpt><trkpt lat="44.2990272" lon="9.7784956"><ele>1043.6</ele><time>2026-04-26T11:07:07.848Z</time></trkpt><trkpt lat="44.2989537" lon="9.7786212"><ele>1045.2</ele><time>2026-04-26T11:07:08.848Z</time></trkpt><trkpt lat="44.2988782" lon="9.778753"><ele>1046.8</ele><time>2026-04-26T11:07:09.847Z</time></trkpt><trkpt lat="44.2988233" lon="9.7788555"><ele>1048.4</ele><time>2026-04-26T11:07:10.847Z</time></trkpt><trkpt lat="44.2987716" lon="9.7789406"><ele>1050.0</ele><time>2026-04-26T11:07:11.847Z</time></trkpt><trkpt lat="44.2987134" lon="9.7790428"><ele>1042.25</ele><time>2026-04-26T11:07:12.847Z</time></trkpt><trkpt lat="44.2986536" lon="9.7791822"><ele>1034.5</ele><time>2026-04-26T11:07:13.848Z</time></trkpt><trkpt lat="44.2985932" lon="9.7793553"><ele>1026.75</ele><time>2026-04-26T11:07:14.848Z</time></trkpt><trkpt lat="44.2985391" lon="9.7795535"><ele>1019.0</ele><time>2026-04-26T11:07:15.847Z</time></trkpt><trkpt lat="44.2984996" lon="9.7797089"><ele>1019.0</ele><time>2026-04-26T11:07:16.848Z</time></trkpt><trkpt lat="44.2984635" lon="9.779848"><ele>1019.0000000000001</ele><time>2026-04-26T11:07:17.847Z</time></trkpt><trkpt lat="44.2984269" lon="9.7799614"><ele>1019.0000000000001</ele><time>2026-04-26T11:07:18.848Z</time></trkpt><trkpt lat="44.298402" lon="9.7800679"><ele>1019.0</ele><time>2026-04-26T11:07:19.847Z</time></trkpt><trkpt lat="44.2984023" lon="9.780195"><ele>1019.0</ele><time>2026-04-26T11:07:20.849Z</time></trkpt><trkpt lat="44.2984264" lon="9.7803277"><ele>1018.8000000000001</ele><time>2026-04-26T11:07:21.848Z</time></trkpt><trkpt lat="44.2984464" lon="9.7804462"><ele>1018.6000000000001</ele><time>2026-04-26T11:07:22.848Z</time></trkpt><trkpt lat="44.2984429" lon="9.7805737"><ele>1018.4</ele><time>2026-04-26T11:07:23.848Z</time></trkpt><trkpt lat="44.2984186" lon="9.7807038"><ele>1018.2</ele><time>2026-04-26T11:07:24.849Z</time></trkpt><trkpt lat="44.2984087" lon="9.7808212"><ele>1018.0</ele><time>2026-04-26T11:07:25.848Z</time></trkpt><trkpt lat="44.2984107" lon="9.7809493"><ele>1017.0</ele><time>2026-04-26T11:07:26.848Z</time></trkpt><trkpt lat="44.2984302" lon="9.7810661"><ele>1016.0</ele><time>2026-04-26T11:07:27.847Z</time></trkpt><trkpt lat="44.2984662" lon="9.7811783"><ele>1015.0</ele><time>2026-04-26T11:07:28.848Z</time></trkpt><trkpt lat="44.2985161" lon="9.7812865"><ele>1014.0</ele><time>2026-04-26T11:07:29.847Z</time></trkpt><trkpt lat="44.2985442" lon="9.7813789"><ele>1013.0</ele><time>2026-04-26T11:07:30.847Z</time></trkpt><trkpt lat="44.2985201" lon="9.7815492"><ele>1013.0</ele><time>2026-04-26T11:07:32.848Z</time></trkpt><trkpt lat="44.2984626" lon="9.7816651"><ele>1013.0</ele><time>2026-04-26T11:07:33.847Z</time></trkpt><trkpt lat="44.2983948" lon="9.7817869"><ele>1013.0</ele><time>2026-04-26T11:07:34.847Z</time></trkpt><trkpt lat="44.2983065" lon="9.781944"><ele>1013.0</ele><time>2026-04-26T11:07:35.847Z</time></trkpt><trkpt lat="44.2982347" lon="9.7820777"><ele>1013.4</ele><time>2026-04-26T11:07:36.847Z</time></trkpt><trkpt lat="44.2981701" lon="9.7822246"><ele>1013.8</ele><time>2026-04-26T11:07:37.847Z</time></trkpt><trkpt lat="44.2981041" lon="9.7823729"><ele>1014.2</ele><time>2026-04-26T11:07:38.847Z</time></trkpt><trkpt lat="44.2980459" lon="9.7824945"><ele>1014.6</ele><time>2026-04-26T11:07:39.847Z</time></trkpt><trkpt lat="44.2979875" lon="9.7825994"><ele>1015.0</ele><time>2026-04-26T11:07:40.847Z</time></trkpt><trkpt lat="44.2979211" lon="9.782676"><ele>1014.4</ele><time>2026-04-26T11:07:41.848Z</time></trkpt><trkpt lat="44.2978337" lon="9.7827585"><ele>1013.8</ele><time>2026-04-26T11:07:42.847Z</time></trkpt><trkpt lat="44.2977493" lon="9.782806"><ele>1013.2</ele><time>2026-04-26T11:07:43.847Z</time></trkpt><trkpt lat="44.297676" lon="9.7828325"><ele>1012.6</ele><time>2026-04-26T11:07:44.847Z</time></trkpt><trkpt lat="44.2976099" lon="9.782851"><ele>1012.0</ele><time>2026-04-26T11:07:45.847Z</time></trkpt><trkpt lat="44.2974954" lon="9.7828711"><ele>1012.0</ele><time>2026-04-26T11:07:47.847Z</time></trkpt><trkpt lat="44.2973939" lon="9.7829222"><ele>1012.0</ele><time>2026-04-26T11:07:49.848Z</time></trkpt><trkpt lat="44.2973018" lon="9.7830002"><ele>1012.0</ele><time>2026-04-26T11:07:51.848Z</time></trkpt><trkpt lat="44.2972212" lon="9.7830805"><ele>1012.0</ele><time>2026-04-26T11:07:53.848Z</time></trkpt><trkpt lat="44.2971399" lon="9.7831637"><ele>1012.0</ele><time>2026-04-26T11:07:55.847Z</time></trkpt><trkpt lat="44.2970528" lon="9.7832582"><ele>1009.4000000000001</ele><time>2026-04-26T11:07:57.847Z</time></trkpt><trkpt lat="44.2970034" lon="9.7833264"><ele>1006.8000000000001</ele><time>2026-04-26T11:08:04.847Z</time></trkpt><trkpt lat="44.2969431" lon="9.7835078"><ele>1004.2</ele><time>2026-04-26T11:08:06.847Z</time></trkpt><trkpt lat="44.2969022" lon="9.7836543"><ele>1001.6</ele><time>2026-04-26T11:08:07.848Z</time></trkpt><trkpt lat="44.2968778" lon="9.7837841"><ele>999.0</ele><time>2026-04-26T11:08:08.848Z</time></trkpt><trkpt lat="44.2968718" lon="9.7839068"><ele>999.0</ele><time>2026-04-26T11:08:09.847Z</time></trkpt><trkpt lat="44.2968807" lon="9.7840072"><ele>999.0</ele><time>2026-04-26T11:08:10.848Z</time></trkpt><trkpt lat="44.2968742" lon="9.7841598"><ele>999.0</ele><time>2026-04-26T11:08:12.848Z</time></trkpt><trkpt lat="44.2968462" lon="9.7842551"><ele>999.0</ele><time>2026-04-26T11:08:19.848Z</time></trkpt><trkpt lat="44.2967894" lon="9.7843201"><ele>999.0</ele><time>2026-04-26T11:08:21.848Z</time></trkpt><trkpt lat="44.2966984" lon="9.7843747"><ele>999.0</ele><time>2026-04-26T11:08:23.847Z</time></trkpt><trkpt lat="44.2966251" lon="9.7844408"><ele>1000.5</ele><time>2026-04-26T11:08:24.847Z</time></trkpt><trkpt lat="44.296524" lon="9.7845297"><ele>1002.0</ele><time>2026-04-26T11:08:25.848Z</time></trkpt><trkpt lat="44.2964206" lon="9.7846184"><ele>1003.5</ele><time>2026-04-26T11:08:26.847Z</time></trkpt><trkpt lat="44.296325" lon="9.7846931"><ele>1005.0</ele><time>2026-04-26T11:08:27.847Z</time></trkpt><trkpt lat="44.296235" lon="9.7847637"><ele>1005.0</ele><time>2026-04-26T11:08:28.847Z</time></trkpt><trkpt lat="44.2961449" lon="9.7848344"><ele>1005.0</ele><time>2026-04-26T11:08:29.848Z</time></trkpt><trkpt lat="44.2960551" lon="9.7849125"><ele>1005.0</ele><time>2026-04-26T11:08:30.846Z</time></trkpt><trkpt lat="44.2959684" lon="9.7849882"><ele>1005.0</ele><time>2026-04-26T11:08:31.846Z</time></trkpt><trkpt lat="44.2958823" lon="9.7850737"><ele>1005.0</ele><time>2026-04-26T11:08:32.846Z</time></trkpt><trkpt lat="44.2958055" lon="9.7851483"><ele>1004.2</ele><time>2026-04-26T11:08:33.847Z</time></trkpt><trkpt lat="44.2957304" lon="9.785217"><ele>1003.4</ele><time>2026-04-26T11:08:34.847Z</time></trkpt><trkpt lat="44.2956522" lon="9.7852797"><ele>1002.5999999999999</ele><time>2026-04-26T11:08:35.846Z</time></trkpt><trkpt lat="44.2955629" lon="9.7853505"><ele>1001.8</ele><time>2026-04-26T11:08:36.846Z</time></trkpt><trkpt lat="44.2954705" lon="9.7854335"><ele>1001.0</ele><time>2026-04-26T11:08:37.847Z</time></trkpt><trkpt lat="44.295383" lon="9.7855205"><ele>1001.0</ele><time>2026-04-26T11:08:38.847Z</time></trkpt><trkpt lat="44.2953139" lon="9.7856089"><ele>1000.9999999999999</ele><time>2026-04-26T11:08:39.846Z</time></trkpt><trkpt lat="44.295259" lon="9.785703"><ele>1000.9999999999999</ele><time>2026-04-26T11:08:40.846Z</time></trkpt><trkpt lat="44.2952116" lon="9.7858159"><ele>1001.0</ele><time>2026-04-26T11:08:41.846Z</time></trkpt><trkpt lat="44.2951657" lon="9.7859484"><ele>1001.0</ele><time>2026-04-26T11:08:42.846Z</time></trkpt><trkpt lat="44.2951153" lon="9.7860925"><ele>1003.5999999999999</ele><time>2026-04-26T11:08:43.846Z</time></trkpt><trkpt lat="44.2950559" lon="9.786234"><ele>1006.1999999999999</ele><time>2026-04-26T11:08:44.846Z</time></trkpt><trkpt lat="44.2949969" lon="9.7863621"><ele>1008.8000000000001</ele><time>2026-04-26T11:08:45.848Z</time></trkpt><trkpt lat="44.2949411" lon="9.786473"><ele>1011.4000000000001</ele><time>2026-04-26T11:08:46.846Z</time></trkpt><trkpt lat="44.2948893" lon="9.7865673"><ele>1014.0</ele><time>2026-04-26T11:08:47.846Z</time></trkpt><trkpt lat="44.2948229" lon="9.7866675"><ele>1014.0</ele><time>2026-04-26T11:08:48.846Z</time></trkpt><trkpt lat="44.2947594" lon="9.7867757"><ele>1014.0000000000001</ele><time>2026-04-26T11:08:49.846Z</time></trkpt><trkpt lat="44.2946999" lon="9.7868811"><ele>1014.0000000000001</ele><time>2026-04-26T11:08:50.846Z</time></trkpt><trkpt lat="44.2946425" lon="9.7869917"><ele>1014.0</ele><time>2026-04-26T11:08:51.846Z</time></trkpt><trkpt lat="44.2945971" lon="9.7871019"><ele>1014.0</ele><time>2026-04-26T11:08:52.846Z</time></trkpt><trkpt lat="44.2945658" lon="9.7872149"><ele>1013.5</ele><time>2026-04-26T11:08:53.847Z</time></trkpt><trkpt lat="44.2945391" lon="9.7873576"><ele>1013.0</ele><time>2026-04-26T11:08:54.846Z</time></trkpt><trkpt lat="44.2945195" lon="9.7875232"><ele>1012.5</ele><time>2026-04-26T11:08:55.846Z</time></trkpt><trkpt lat="44.2944794" lon="9.7876808"><ele>1012.0</ele><time>2026-04-26T11:08:56.846Z</time></trkpt><trkpt lat="44.2944332" lon="9.7878207"><ele>1011.9999999999999</ele><time>2026-04-26T11:08:57.846Z</time></trkpt><trkpt lat="44.2943889" lon="9.787946"><ele>1012.0</ele><time>2026-04-26T11:08:58.846Z</time></trkpt><trkpt lat="44.2943434" lon="9.7880462"><ele>1012.0</ele><time>2026-04-26T11:08:59.847Z</time></trkpt><trkpt lat="44.2942865" lon="9.7881153"><ele>1012.0</ele><time>2026-04-26T11:09:00.847Z</time></trkpt><trkpt lat="44.2942148" lon="9.7881561"><ele>1011.9999999999999</ele><time>2026-04-26T11:09:01.847Z</time></trkpt><trkpt lat="44.2941246" lon="9.7882122"><ele>1012.0</ele><time>2026-04-26T11:09:02.846Z</time></trkpt><trkpt lat="44.2940327" lon="9.7882934"><ele>1012.0</ele><time>2026-04-26T11:09:03.846Z</time></trkpt><trkpt lat="44.2939548" lon="9.7883624"><ele>1012.0</ele><time>2026-04-26T11:09:04.847Z</time></trkpt><trkpt lat="44.2938768" lon="9.7884369"><ele>1012.0</ele><time>2026-04-26T11:09:05.847Z</time></trkpt><trkpt lat="44.2938462" lon="9.7885366"><ele>1012.0</ele><time>2026-04-26T11:09:07.846Z</time></trkpt><trkpt lat="44.2938986" lon="9.7886929"><ele>1012.0</ele><time>2026-04-26T11:09:09.846Z</time></trkpt><trkpt lat="44.2939553" lon="9.7887712"><ele>1013.4000000000001</ele><time>2026-04-26T11:09:10.846Z</time></trkpt><trkpt lat="44.2940136" lon="9.7889189"><ele>1014.8000000000001</ele><time>2026-04-26T11:09:12.846Z</time></trkpt><trkpt lat="44.2939816" lon="9.7890715"><ele>1016.2</ele><time>2026-04-26T11:09:14.846Z</time></trkpt><trkpt lat="44.2938936" lon="9.7890772"><ele>1017.6</ele><time>2026-04-26T11:09:15.846Z</time></trkpt><trkpt lat="44.2937801" lon="9.7891187"><ele>1019.0</ele><time>2026-04-26T11:09:17.847Z</time></trkpt><trkpt lat="44.2937258" lon="9.789196"><ele>1016.3333333333334</ele><time>2026-04-26T11:09:18.847Z</time></trkpt><trkpt lat="44.2936698" lon="9.7892432"><ele>1013.6666666666667</ele><time>2026-04-26T11:09:19.847Z</time></trkpt><trkpt lat="44.2936043" lon="9.7892432"><ele>1011.0</ele><time>2026-04-26T11:09:20.846Z</time></trkpt><trkpt lat="44.2935281" lon="9.7892289"><ele>1008.3333333333333</ele><time>2026-04-26T11:09:21.846Z</time></trkpt><trkpt lat="44.293441" lon="9.7892349"><ele>1005.6666666666666</ele><time>2026-04-26T11:09:22.846Z</time></trkpt><trkpt lat="44.2933652" lon="9.7892647"><ele>1003.0</ele><time>2026-04-26T11:09:23.847Z</time></trkpt><trkpt lat="44.2932808" lon="9.7893233"><ele>1003.75</ele><time>2026-04-26T11:09:24.848Z</time></trkpt><trkpt lat="44.2931863" lon="9.7894008"><ele>1004.5</ele><time>2026-04-26T11:09:25.846Z</time></trkpt><trkpt lat="44.2930815" lon="9.7894989"><ele>1005.25</ele><time>2026-04-26T11:09:26.846Z</time></trkpt><trkpt lat="44.2929646" lon="9.789603"><ele>1006.0</ele><time>2026-04-26T11:09:27.847Z</time></trkpt><trkpt lat="44.2928446" lon="9.7897092"><ele>1006.0</ele><time>2026-04-26T11:09:28.846Z</time></trkpt><trkpt lat="44.2927308" lon="9.7898141"><ele>1006.0</ele><time>2026-04-26T11:09:29.846Z</time></trkpt><trkpt lat="44.2926162" lon="9.7899325"><ele>1006.0</ele><time>2026-04-26T11:09:30.846Z</time></trkpt><trkpt lat="44.2924957" lon="9.7900485"><ele>1006.0</ele><time>2026-04-26T11:09:31.847Z</time></trkpt><trkpt lat="44.2923802" lon="9.7901704"><ele>1007.5</ele><time>2026-04-26T11:09:32.847Z</time></trkpt><trkpt lat="44.2922649" lon="9.7902824"><ele>1009.0</ele><time>2026-04-26T11:09:33.846Z</time></trkpt><trkpt lat="44.2921552" lon="9.7903817"><ele>1010.5</ele><time>2026-04-26T11:09:34.846Z</time></trkpt><trkpt lat="44.2920479" lon="9.7904803"><ele>1012.0</ele><time>2026-04-26T11:09:35.847Z</time></trkpt><trkpt lat="44.2919528" lon="9.7905624"><ele>1012.0</ele><time>2026-04-26T11:09:36.846Z</time></trkpt><trkpt lat="44.2918672" lon="9.7906324"><ele>1012.0</ele><time>2026-04-26T11:09:37.846Z</time></trkpt><trkpt lat="44.2917833" lon="9.7907119"><ele>1012.0</ele><time>2026-04-26T11:09:38.847Z</time></trkpt><trkpt lat="44.2917006" lon="9.7908074"><ele>1012.0</ele><time>2026-04-26T11:09:39.847Z</time></trkpt><trkpt lat="44.2916237" lon="9.7909074"><ele>1012.0</ele><time>2026-04-26T11:09:40.846Z</time></trkpt><trkpt lat="44.2915426" lon="9.7910231"><ele>1011.6666666666666</ele><time>2026-04-26T11:09:41.846Z</time></trkpt><trkpt lat="44.2914627" lon="9.7911318"><ele>1011.3333333333333</ele><time>2026-04-26T11:09:42.846Z</time></trkpt><trkpt lat="44.2913883" lon="9.7912244"><ele>1011.0</ele><time>2026-04-26T11:09:43.846Z</time></trkpt><trkpt lat="44.2913279" lon="9.791303"><ele>1010.6666666666667</ele><time>2026-04-26T11:09:44.846Z</time></trkpt><trkpt lat="44.2912914" lon="9.7913842"><ele>1010.3333333333334</ele><time>2026-04-26T11:09:45.847Z</time></trkpt><trkpt lat="44.2912714" lon="9.7914869"><ele>1010.0</ele><time>2026-04-26T11:09:46.847Z</time></trkpt><trkpt lat="44.2912604" lon="9.7915962"><ele>1010.0</ele><time>2026-04-26T11:09:47.847Z</time></trkpt><trkpt lat="44.2912311" lon="9.7916825"><ele>1010.0</ele><time>2026-04-26T11:09:48.847Z</time></trkpt><trkpt lat="44.2911062" lon="9.7917824"><ele>1010.0</ele><time>2026-04-26T11:09:50.846Z</time></trkpt><trkpt lat="44.2910231" lon="9.7918249"><ele>1010.0</ele><time>2026-04-26T11:09:51.846Z</time></trkpt><trkpt lat="44.2909581" lon="9.79189"><ele>1010.0</ele><time>2026-04-26T11:09:52.846Z</time></trkpt><trkpt lat="44.290901" lon="9.7919764"><ele>1008.1666666666667</ele><time>2026-04-26T11:09:53.846Z</time></trkpt><trkpt lat="44.2908659" lon="9.7920774"><ele>1006.3333333333334</ele><time>2026-04-26T11:09:54.847Z</time></trkpt><trkpt lat="44.2908443" lon="9.7921958"><ele>1004.5</ele><time>2026-04-26T11:09:55.846Z</time></trkpt><trkpt lat="44.2908269" lon="9.7922831"><ele>1002.6666666666667</ele><time>2026-04-26T11:09:56.848Z</time></trkpt><trkpt lat="44.2907337" lon="9.7923895"><ele>1000.8333333333334</ele><time>2026-04-26T11:09:58.846Z</time></trkpt><trkpt lat="44.2906573" lon="9.7924262"><ele>999.0</ele><time>2026-04-26T11:09:59.846Z</time></trkpt><trkpt lat="44.2905793" lon="9.7924755"><ele>999.0</ele><time>2026-04-26T11:10:00.846Z</time></trkpt><trkpt lat="44.2905281" lon="9.7925403"><ele>999.0</ele><time>2026-04-26T11:10:01.846Z</time></trkpt><trkpt lat="44.2904869" lon="9.7926225"><ele>999.0</ele><time>2026-04-26T11:10:02.847Z</time></trkpt><trkpt lat="44.2904501" lon="9.7927217"><ele>999.0</ele><time>2026-04-26T11:10:03.846Z</time></trkpt><trkpt lat="44.2904165" lon="9.7928445"><ele>999.0</ele><time>2026-04-26T11:10:04.846Z</time></trkpt><trkpt lat="44.290377" lon="9.7929707"><ele>999.0</ele><time>2026-04-26T11:10:05.847Z</time></trkpt><trkpt lat="44.2903369" lon="9.7930953"><ele>1001.8000000000001</ele><time>2026-04-26T11:10:06.847Z</time></trkpt><trkpt lat="44.2903047" lon="9.7932141"><ele>1004.6000000000001</ele><time>2026-04-26T11:10:07.847Z</time></trkpt><trkpt lat="44.2902896" lon="9.7933296"><ele>1007.4</ele><time>2026-04-26T11:10:08.847Z</time></trkpt><trkpt lat="44.2902923" lon="9.7934573"><ele>1010.2</ele><time>2026-04-26T11:10:09.847Z</time></trkpt><trkpt lat="44.2903141" lon="9.7935901"><ele>1013.0</ele><time>2026-04-26T11:10:10.846Z</time></trkpt><trkpt lat="44.2903535" lon="9.7937154"><ele>1017.0</ele><time>2026-04-26T11:10:11.846Z</time></trkpt><trkpt lat="44.2903812" lon="9.793827"><ele>1021.0</ele><time>2026-04-26T11:10:12.846Z</time></trkpt><trkpt lat="44.2903522" lon="9.7939696"><ele>1025.0</ele><time>2026-04-26T11:10:14.847Z</time></trkpt><trkpt lat="44.2902128" lon="9.7940218"><ele>1029.0</ele><time>2026-04-26T11:10:16.846Z</time></trkpt><trkpt lat="44.2901251" lon="9.7940708"><ele>1033.0</ele><time>2026-04-26T11:10:17.847Z</time></trkpt><trkpt lat="44.2900351" lon="9.7941411"><ele>1033.0</ele><time>2026-04-26T11:10:18.846Z</time></trkpt><trkpt lat="44.2899331" lon="9.7942315"><ele>1033.0</ele><time>2026-04-26T11:10:19.847Z</time></trkpt><trkpt lat="44.2898297" lon="9.7943218"><ele>1033.0</ele><time>2026-04-26T11:10:20.847Z</time></trkpt><trkpt lat="44.2897455" lon="9.7944017"><ele>1033.0</ele><time>2026-04-26T11:10:21.846Z</time></trkpt><trkpt lat="44.2896782" lon="9.7944831"><ele>1033.0</ele><time>2026-04-26T11:10:22.846Z</time></trkpt><trkpt lat="44.2896252" lon="9.7945805"><ele>1031.6</ele><time>2026-04-26T11:10:23.846Z</time></trkpt><trkpt lat="44.2895815" lon="9.7947088"><ele>1030.1999999999998</ele><time>2026-04-26T11:10:24.846Z</time></trkpt><trkpt lat="44.2895319" lon="9.7947886"><ele>1028.8</ele><time>2026-04-26T11:10:25.846Z</time></trkpt><trkpt lat="44.2894448" lon="9.794865"><ele>1027.3999999999999</ele><time>2026-04-26T11:10:26.847Z</time></trkpt><trkpt lat="44.2893255" lon="9.7949414"><ele>1026.0</ele><time>2026-04-26T11:10:27.847Z</time></trkpt><trkpt lat="44.2892108" lon="9.7950113"><ele>1026.0</ele><time>2026-04-26T11:10:28.847Z</time></trkpt><trkpt lat="44.2891114" lon="9.7950705"><ele>1026.0</ele><time>2026-04-26T11:10:29.847Z</time></trkpt><trkpt lat="44.2890341" lon="9.7951333"><ele>1026.0</ele><time>2026-04-26T11:10:30.846Z</time></trkpt><trkpt lat="44.2889741" lon="9.7952054"><ele>1026.0</ele><time>2026-04-26T11:10:31.846Z</time></trkpt><trkpt lat="44.2889347" lon="9.7952933"><ele>1026.0</ele><time>2026-04-26T11:10:32.846Z</time></trkpt><trkpt lat="44.288903" lon="9.795409"><ele>1026.0</ele><time>2026-04-26T11:10:33.847Z</time></trkpt><trkpt lat="44.2888752" lon="9.795554"><ele>1027.75</ele><time>2026-04-26T11:10:34.847Z</time></trkpt><trkpt lat="44.2888378" lon="9.7957124"><ele>1029.5</ele><time>2026-04-26T11:10:35.846Z</time></trkpt><trkpt lat="44.2887871" lon="9.7958688"><ele>1031.25</ele><time>2026-04-26T11:10:36.846Z</time></trkpt><trkpt lat="44.2887155" lon="9.7960258"><ele>1033.0</ele><time>2026-04-26T11:10:37.846Z</time></trkpt><trkpt lat="44.2886259" lon="9.7961899"><ele>1033.0</ele><time>2026-04-26T11:10:38.847Z</time></trkpt><trkpt lat="44.2885153" lon="9.7963412"><ele>1033.0</ele><time>2026-04-26T11:10:39.846Z</time></trkpt><trkpt lat="44.2884161" lon="9.7964677"><ele>1033.0</ele><time>2026-04-26T11:10:40.846Z</time></trkpt><trkpt lat="44.2883173" lon="9.7966037"><ele>1033.0</ele><time>2026-04-26T11:10:41.846Z</time></trkpt><trkpt lat="44.2882303" lon="9.7967536"><ele>1035.75</ele><time>2026-04-26T11:10:42.846Z</time></trkpt><trkpt lat="44.2881611" lon="9.7969162"><ele>1038.5</ele><time>2026-04-26T11:10:43.846Z</time></trkpt><trkpt lat="44.2881032" lon="9.7970773"><ele>1041.25</ele><time>2026-04-26T11:10:44.847Z</time></trkpt><trkpt lat="44.288054" lon="9.7972489"><ele>1044.0</ele><time>2026-04-26T11:10:45.847Z</time></trkpt><trkpt lat="44.2880024" lon="9.7974253"><ele>1039.25</ele><time>2026-04-26T11:10:46.847Z</time></trkpt><trkpt lat="44.2879507" lon="9.7975715"><ele>1034.5</ele><time>2026-04-26T11:10:47.846Z</time></trkpt><trkpt lat="44.287902" lon="9.7977129"><ele>1029.75</ele><time>2026-04-26T11:10:48.846Z</time></trkpt><trkpt lat="44.2878629" lon="9.7978647"><ele>1025.0</ele><time>2026-04-26T11:10:49.846Z</time></trkpt><trkpt lat="44.2878366" lon="9.7980357"><ele>1025.0</ele><time>2026-04-26T11:10:50.846Z</time></trkpt><trkpt lat="44.2878029" lon="9.7982098"><ele>1025.0</ele><time>2026-04-26T11:10:51.847Z</time></trkpt><trkpt lat="44.2877658" lon="9.7983771"><ele>1025.0</ele><time>2026-04-26T11:10:52.847Z</time></trkpt><trkpt lat="44.2877141" lon="9.7985469"><ele>1025.0</ele><time>2026-04-26T11:10:53.848Z</time></trkpt><trkpt lat="44.2876525" lon="9.7987171"><ele>1028.25</ele><time>2026-04-26T11:10:54.846Z</time></trkpt><trkpt lat="44.2875851" lon="9.7988921"><ele>1031.5</ele><time>2026-04-26T11:10:55.846Z</time></trkpt><trkpt lat="44.2875154" lon="9.7990682"><ele>1034.75</ele><time>2026-04-26T11:10:56.846Z</time></trkpt><trkpt lat="44.2874377" lon="9.7992255"><ele>1038.0</ele><time>2026-04-26T11:10:57.847Z</time></trkpt><trkpt lat="44.2873614" lon="9.7993618"><ele>1035.75</ele><time>2026-04-26T11:10:58.848Z</time></trkpt><trkpt lat="44.2872841" lon="9.7994973"><ele>1033.5</ele><time>2026-04-26T11:10:59.846Z</time></trkpt><trkpt lat="44.2872056" lon="9.799627"><ele>1031.25</ele><time>2026-04-26T11:11:00.846Z</time></trkpt><trkpt lat="44.2871236" lon="9.7997511"><ele>1029.0</ele><time>2026-04-26T11:11:01.846Z</time></trkpt><trkpt lat="44.2870382" lon="9.7998717"><ele>1029.0</ele><time>2026-04-26T11:11:02.847Z</time></trkpt><trkpt lat="44.2869716" lon="9.8000026"><ele>1029.0</ele><time>2026-04-26T11:11:03.847Z</time></trkpt><trkpt lat="44.286918" lon="9.8001536"><ele>1029.0</ele><time>2026-04-26T11:11:04.846Z</time></trkpt><trkpt lat="44.2868628" lon="9.8003224"><ele>1029.0</ele><time>2026-04-26T11:11:05.846Z</time></trkpt><trkpt lat="44.2867996" lon="9.800465"><ele>1033.5</ele><time>2026-04-26T11:11:06.846Z</time></trkpt><trkpt lat="44.2867261" lon="9.8006204"><ele>1038.0</ele><time>2026-04-26T11:11:07.846Z</time></trkpt><trkpt lat="44.2866589" lon="9.8007684"><ele>1042.5</ele><time>2026-04-26T11:11:08.847Z</time></trkpt><trkpt lat="44.286588" lon="9.8009045"><ele>1047.0</ele><time>2026-04-26T11:11:09.846Z</time></trkpt><trkpt lat="44.2865528" lon="9.8010002"><ele>1045.6</ele><time>2026-04-26T11:11:10.846Z</time></trkpt><trkpt lat="44.2865001" lon="9.8010772"><ele>1044.2</ele><time>2026-04-26T11:11:11.846Z</time></trkpt><trkpt lat="44.2864288" lon="9.8011477"><ele>1042.8</ele><time>2026-04-26T11:11:12.847Z</time></trkpt><trkpt lat="44.2863467" lon="9.801238"><ele>1041.4</ele><time>2026-04-26T11:11:13.847Z</time></trkpt><trkpt lat="44.2862538" lon="9.8013544"><ele>1040.0</ele><time>2026-04-26T11:11:14.846Z</time></trkpt><trkpt lat="44.2861677" lon="9.8014708"><ele>1040.0</ele><time>2026-04-26T11:11:15.846Z</time></trkpt><trkpt lat="44.2860942" lon="9.8015812"><ele>1040.0</ele><time>2026-04-26T11:11:16.847Z</time></trkpt><trkpt lat="44.2860184" lon="9.8017076"><ele>1040.0</ele><time>2026-04-26T11:11:17.847Z</time></trkpt><trkpt lat="44.2859493" lon="9.8018528"><ele>1040.0</ele><time>2026-04-26T11:11:18.846Z</time></trkpt><trkpt lat="44.2858881" lon="9.8020196"><ele>1042.75</ele><time>2026-04-26T11:11:19.847Z</time></trkpt><trkpt lat="44.2858431" lon="9.802173"><ele>1045.5</ele><time>2026-04-26T11:11:20.847Z</time></trkpt><trkpt lat="44.285789" lon="9.8023381"><ele>1048.25</ele><time>2026-04-26T11:11:21.846Z</time></trkpt><trkpt lat="44.2857235" lon="9.8024756"><ele>1051.0</ele><time>2026-04-26T11:11:22.846Z</time></trkpt><trkpt lat="44.2856475" lon="9.8025912"><ele>1049.2</ele><time>2026-04-26T11:11:23.846Z</time></trkpt><trkpt lat="44.2855656" lon="9.8027166"><ele>1047.3999999999999</ele><time>2026-04-26T11:11:24.846Z</time></trkpt><trkpt lat="44.2854853" lon="9.8028333"><ele>1045.6</ele><time>2026-04-26T11:11:25.847Z</time></trkpt><trkpt lat="44.2854104" lon="9.8029316"><ele>1043.8</ele><time>2026-04-26T11:11:26.847Z</time></trkpt><trkpt lat="44.2853417" lon="9.8030135"><ele>1042.0</ele><time>2026-04-26T11:11:27.847Z</time></trkpt><trkpt lat="44.2852702" lon="9.8030707"><ele>1042.0</ele><time>2026-04-26T11:11:28.847Z</time></trkpt><trkpt lat="44.2851908" lon="9.8031194"><ele>1042.0</ele><time>2026-04-26T11:11:29.847Z</time></trkpt><trkpt lat="44.2850883" lon="9.8031648"><ele>1042.0</ele><time>2026-04-26T11:11:30.848Z</time></trkpt><trkpt lat="44.2849767" lon="9.8032059"><ele>1042.0</ele><time>2026-04-26T11:11:31.847Z</time></trkpt><trkpt lat="44.2848754" lon="9.8032408"><ele>1042.0</ele><time>2026-04-26T11:11:32.847Z</time></trkpt><trkpt lat="44.2847831" lon="9.8032846"><ele>1041.8333333333333</ele><time>2026-04-26T11:11:33.846Z</time></trkpt><trkpt lat="44.2847046" lon="9.8033336"><ele>1041.6666666666665</ele><time>2026-04-26T11:11:34.846Z</time></trkpt><trkpt lat="44.2846359" lon="9.8033959"><ele>1041.5</ele><time>2026-04-26T11:11:35.846Z</time></trkpt><trkpt lat="44.2845807" lon="9.8034646"><ele>1041.3333333333333</ele><time>2026-04-26T11:11:36.846Z</time></trkpt><trkpt lat="44.2845296" lon="9.8035386"><ele>1041.1666666666667</ele><time>2026-04-26T11:11:37.847Z</time></trkpt><trkpt lat="44.2844794" lon="9.8036218"><ele>1041.0</ele><time>2026-04-26T11:11:38.847Z</time></trkpt><trkpt lat="44.2844264" lon="9.803698"><ele>1041.0</ele><time>2026-04-26T11:11:39.847Z</time></trkpt><trkpt lat="44.2843729" lon="9.8037578"><ele>1041.0</ele><time>2026-04-26T11:11:40.846Z</time></trkpt><trkpt lat="44.2843147" lon="9.803817"><ele>1041.0</ele><time>2026-04-26T11:11:41.846Z</time></trkpt><trkpt lat="44.2842596" lon="9.8038756"><ele>1041.0</ele><time>2026-04-26T11:11:42.846Z</time></trkpt><trkpt lat="44.2842073" lon="9.8039431"><ele>1041.0</ele><time>2026-04-26T11:11:43.846Z</time></trkpt><trkpt lat="44.2841508" lon="9.8040175"><ele>1041.0</ele><time>2026-04-26T11:11:44.846Z</time></trkpt><trkpt lat="44.2840881" lon="9.8040975"><ele>1041.0</ele><time>2026-04-26T11:11:45.846Z</time></trkpt><trkpt lat="44.2840199" lon="9.8041816"><ele>1041.0</ele><time>2026-04-26T11:11:46.847Z</time></trkpt><trkpt lat="44.2839404" lon="9.8042684"><ele>1041.0</ele><time>2026-04-26T11:11:47.847Z</time></trkpt><trkpt lat="44.2838509" lon="9.804364"><ele>1041.0</ele><time>2026-04-26T11:11:48.846Z</time></trkpt><trkpt lat="44.2837607" lon="9.8044647"><ele>1041.0</ele><time>2026-04-26T11:11:49.847Z</time></trkpt><trkpt lat="44.2836747" lon="9.8045719"><ele>1041.0</ele><time>2026-04-26T11:11:50.846Z</time></trkpt><trkpt lat="44.2835968" lon="9.8046752"><ele>1040.2</ele><time>2026-04-26T11:11:51.846Z</time></trkpt><trkpt lat="44.2835242" lon="9.8047808"><ele>1039.3999999999999</ele><time>2026-04-26T11:11:52.847Z</time></trkpt><trkpt lat="44.2834493" lon="9.80489"><ele>1038.6</ele><time>2026-04-26T11:11:53.848Z</time></trkpt><trkpt lat="44.2833886" lon="9.8049967"><ele>1037.8</ele><time>2026-04-26T11:11:54.847Z</time></trkpt><trkpt lat="44.2833385" lon="9.8051177"><ele>1037.0</ele><time>2026-04-26T11:11:55.846Z</time></trkpt><trkpt lat="44.2832801" lon="9.8052348"><ele>1037.1666666666667</ele><time>2026-04-26T11:11:56.846Z</time></trkpt><trkpt lat="44.283225" lon="9.8053082"><ele>1037.3333333333335</ele><time>2026-04-26T11:11:57.846Z</time></trkpt><trkpt lat="44.2831657" lon="9.8053615"><ele>1037.5</ele><time>2026-04-26T11:11:58.847Z</time></trkpt><trkpt lat="44.2830923" lon="9.8053927"><ele>1037.6666666666667</ele><time>2026-04-26T11:11:59.847Z</time></trkpt><trkpt lat="44.2830032" lon="9.8054085"><ele>1037.8333333333333</ele><time>2026-04-26T11:12:00.848Z</time></trkpt><trkpt lat="44.2829129" lon="9.8054396"><ele>1038.0</ele><time>2026-04-26T11:12:01.846Z</time></trkpt><trkpt lat="44.2828392" lon="9.8054663"><ele>1038.0</ele><time>2026-04-26T11:12:02.847Z</time></trkpt><trkpt lat="44.2827748" lon="9.8054929"><ele>1038.0</ele><time>2026-04-26T11:12:03.846Z</time></trkpt><trkpt lat="44.2827025" lon="9.8055389"><ele>1038.0</ele><time>2026-04-26T11:12:04.846Z</time></trkpt><trkpt lat="44.2826246" lon="9.8056299"><ele>1038.0</ele><time>2026-04-26T11:12:05.847Z</time></trkpt><trkpt lat="44.2825427" lon="9.8057098"><ele>1038.0</ele><time>2026-04-26T11:12:06.847Z</time></trkpt><trkpt lat="44.2824742" lon="9.8057821"><ele>1038.0</ele><time>2026-04-26T11:12:07.846Z</time></trkpt><trkpt lat="44.2824078" lon="9.805867"><ele>1038.0</ele><time>2026-04-26T11:12:08.847Z</time></trkpt><trkpt lat="44.2823598" lon="9.8059461"><ele>1038.0</ele><time>2026-04-26T11:12:09.847Z</time></trkpt><trkpt lat="44.2823287" lon="9.806037"><ele>1038.0</ele><time>2026-04-26T11:12:10.847Z</time></trkpt><trkpt lat="44.2823182" lon="9.8061264"><ele>1038.0</ele><time>2026-04-26T11:12:11.846Z</time></trkpt><trkpt lat="44.2823372" lon="9.8062236"><ele>1038.0</ele><time>2026-04-26T11:12:12.847Z</time></trkpt><trkpt lat="44.2823277" lon="9.8063925"><ele>1038.0</ele><time>2026-04-26T11:12:14.846Z</time></trkpt><trkpt lat="44.2823031" lon="9.8064933"><ele>1040.4</ele><time>2026-04-26T11:12:15.846Z</time></trkpt><trkpt lat="44.2822669" lon="9.8065717"><ele>1042.8</ele><time>2026-04-26T11:12:16.847Z</time></trkpt><trkpt lat="44.2821811" lon="9.8066447"><ele>1045.2</ele><time>2026-04-26T11:12:18.846Z</time></trkpt><trkpt lat="44.2820349" lon="9.8066205"><ele>1047.6</ele><time>2026-04-26T11:12:20.847Z</time></trkpt><trkpt lat="44.2819621" lon="9.8066167"><ele>1050.0</ele><time>2026-04-26T11:12:21.847Z</time></trkpt><trkpt lat="44.2818764" lon="9.806634"><ele>1049.0</ele><time>2026-04-26T11:12:22.847Z</time></trkpt><trkpt lat="44.2817967" lon="9.8066688"><ele>1048.0</ele><time>2026-04-26T11:12:23.847Z</time></trkpt><trkpt lat="44.2817253" lon="9.8067327"><ele>1047.0</ele><time>2026-04-26T11:12:24.846Z</time></trkpt><trkpt lat="44.2816513" lon="9.8068027"><ele>1046.0</ele><time>2026-04-26T11:12:25.846Z</time></trkpt><trkpt lat="44.2815831" lon="9.8068808"><ele>1045.0</ele><time>2026-04-26T11:12:26.846Z</time></trkpt><trkpt lat="44.2815176" lon="9.8069858"><ele>1044.0</ele><time>2026-04-26T11:12:27.847Z</time></trkpt><trkpt lat="44.2814439" lon="9.80709"><ele>1039.8</ele><time>2026-04-26T11:12:28.848Z</time></trkpt><trkpt lat="44.2813726" lon="9.8071995"><ele>1035.6000000000001</ele><time>2026-04-26T11:12:29.846Z</time></trkpt><trkpt lat="44.2813079" lon="9.8073147"><ele>1031.4</ele><time>2026-04-26T11:12:30.847Z</time></trkpt><trkpt lat="44.2812433" lon="9.8074313"><ele>1027.2</ele><time>2026-04-26T11:12:31.846Z</time></trkpt><trkpt lat="44.2811716" lon="9.807558"><ele>1023.0</ele><time>2026-04-26T11:12:32.846Z</time></trkpt><trkpt lat="44.2811004" lon="9.8076796"><ele>1023.0</ele><time>2026-04-26T11:12:33.846Z</time></trkpt><trkpt lat="44.2810242" lon="9.8077976"><ele>1023.0</ele><time>2026-04-26T11:12:34.846Z</time></trkpt><trkpt lat="44.2809487" lon="9.8079055"><ele>1023.0</ele><time>2026-04-26T11:12:35.847Z</time></trkpt><trkpt lat="44.2808833" lon="9.8080051"><ele>1023.0</ele><time>2026-04-26T11:12:36.846Z</time></trkpt><trkpt lat="44.2808244" lon="9.8081026"><ele>1023.0</ele><time>2026-04-26T11:12:37.847Z</time></trkpt><trkpt lat="44.2807708" lon="9.8082085"><ele>1023.0</ele><time>2026-04-26T11:12:38.846Z</time></trkpt><trkpt lat="44.2807119" lon="9.8083106"><ele>1023.0</ele><time>2026-04-26T11:12:39.846Z</time></trkpt><trkpt lat="44.2806501" lon="9.8084004"><ele>1023.0</ele><time>2026-04-26T11:12:40.846Z</time></trkpt><trkpt lat="44.2805877" lon="9.8084917"><ele>1023.0</ele><time>2026-04-26T11:12:41.846Z</time></trkpt><trkpt lat="44.2804801" lon="9.8085094"><ele>1023.0</ele><time>2026-04-26T11:12:42.846Z</time></trkpt><trkpt lat="44.2803884" lon="9.8085381"><ele>1018.8</ele><time>2026-04-26T11:12:43.846Z</time></trkpt><trkpt lat="44.2802918" lon="9.8085326"><ele>1014.5999999999999</ele><time>2026-04-26T11:12:44.846Z</time></trkpt><trkpt lat="44.2801955" lon="9.8085087"><ele>1010.4000000000001</ele><time>2026-04-26T11:12:45.847Z</time></trkpt><trkpt lat="44.2800973" lon="9.8084894"><ele>1006.2</ele><time>2026-04-26T11:12:46.847Z</time></trkpt><trkpt lat="44.2800049" lon="9.8084771"><ele>1002.0</ele><time>2026-04-26T11:12:47.847Z</time></trkpt><trkpt lat="44.2799251" lon="9.8084596"><ele>1002.0</ele><time>2026-04-26T11:12:48.846Z</time></trkpt><trkpt lat="44.2798541" lon="9.8084431"><ele>1002.0</ele><time>2026-04-26T11:12:49.846Z</time></trkpt><trkpt lat="44.2797517" lon="9.8083965"><ele>1002.0</ele><time>2026-04-26T11:12:51.846Z</time></trkpt><trkpt lat="44.2796601" lon="9.8084541"><ele>1002.0</ele><time>2026-04-26T11:12:53.847Z</time></trkpt><trkpt lat="44.2797671" lon="9.8085767"><ele>1002.0</ele><time>2026-04-26T11:12:55.847Z</time></trkpt><trkpt lat="44.2798693" lon="9.8086681"><ele>1000.8</ele><time>2026-04-26T11:12:57.846Z</time></trkpt><trkpt lat="44.2799422" lon="9.8087329"><ele>999.6</ele><time>2026-04-26T11:12:59.847Z</time></trkpt><trkpt lat="44.2799375" lon="9.8088311"><ele>998.3999999999999</ele><time>2026-04-26T11:13:02.847Z</time></trkpt><trkpt lat="44.2797812" lon="9.8087839"><ele>997.1999999999999</ele><time>2026-04-26T11:13:05.846Z</time></trkpt><trkpt lat="44.279657" lon="9.8087539"><ele>996.0</ele><time>2026-04-26T11:13:07.847Z</time></trkpt><trkpt lat="44.2795794" lon="9.808759"><ele>995.3333333333334</ele><time>2026-04-26T11:13:08.847Z</time></trkpt><trkpt lat="44.2795076" lon="9.8087446"><ele>994.6666666666667</ele><time>2026-04-26T11:13:09.846Z</time></trkpt><trkpt lat="44.2794218" lon="9.8087508"><ele>994.0</ele><time>2026-04-26T11:13:10.846Z</time></trkpt><trkpt lat="44.2793355" lon="9.8087463"><ele>993.3333333333334</ele><time>2026-04-26T11:13:11.846Z</time></trkpt><trkpt lat="44.2792628" lon="9.808741"><ele>992.6666666666667</ele><time>2026-04-26T11:13:12.846Z</time></trkpt><trkpt lat="44.2791924" lon="9.8087826"><ele>992.0</ele><time>2026-04-26T11:13:13.847Z</time></trkpt><trkpt lat="44.2791125" lon="9.8088075"><ele>992.0000000000001</ele><time>2026-04-26T11:13:14.847Z</time></trkpt><trkpt lat="44.2790329" lon="9.80885"><ele>992.0</ele><time>2026-04-26T11:13:16.846Z</time></trkpt><trkpt lat="44.2789627" lon="9.8089179"><ele>992.0</ele><time>2026-04-26T11:13:18.847Z</time></trkpt><trkpt lat="44.2789145" lon="9.8089774"><ele>992.0</ele><time>2026-04-26T11:13:20.846Z</time></trkpt><trkpt lat="44.2788434" lon="9.8090461"><ele>992.0000000000001</ele><time>2026-04-26T11:13:22.845Z</time></trkpt><trkpt lat="44.2787931" lon="9.8091182"><ele>992.0</ele><time>2026-04-26T11:13:24.846Z</time></trkpt><trkpt lat="44.2787354" lon="9.8091925"><ele>992.0</ele><time>2026-04-26T11:13:26.846Z</time></trkpt><trkpt lat="44.278699" lon="9.8092784"><ele>992.0000000000001</ele><time>2026-04-26T11:13:29.846Z</time></trkpt><trkpt lat="44.2786565" lon="9.8093545"><ele>992.0</ele><time>2026-04-26T11:13:33.845Z</time></trkpt><trkpt lat="44.278602" lon="9.8093055"><ele>992.0</ele><time>2026-04-26T12:01:26.839Z</time></trkpt><trkpt lat="44.2785195" lon="9.8093307"><ele>992.0000000000001</ele><time>2026-04-26T12:02:08.838Z</time></trkpt><trkpt lat="44.2784621" lon="9.8093855"><ele>992.0</ele><time>2026-04-26T12:02:11.839Z</time></trkpt><trkpt lat="44.2783893" lon="9.8094229"><ele>992.0</ele><time>2026-04-26T12:02:13.839Z</time></trkpt><trkpt lat="44.2783217" lon="9.8094574"><ele>992.0</ele><time>2026-04-26T12:02:15.839Z</time></trkpt><trkpt lat="44.2782655" lon="9.809355"><ele>992.0</ele><time>2026-04-26T12:02:17.838Z</time></trkpt><trkpt lat="44.2782116" lon="9.8092448"><ele>992.0</ele><time>2026-04-26T12:02:19.838Z</time></trkpt><trkpt lat="44.278099" lon="9.8091937"><ele>992.0</ele><time>2026-04-26T12:02:21.839Z</time></trkpt><trkpt lat="44.2780266" lon="9.809194"><ele>992.0</ele><time>2026-04-26T12:02:22.838Z</time></trkpt><trkpt lat="44.2779547" lon="9.8091765"><ele>991.3333333333334</ele><time>2026-04-26T12:02:23.838Z</time></trkpt><trkpt lat="44.2778827" lon="9.8091473"><ele>990.6666666666667</ele><time>2026-04-26T12:02:24.838Z</time></trkpt><trkpt lat="44.2778082" lon="9.8091113"><ele>990.0</ele><time>2026-04-26T12:02:25.838Z</time></trkpt><trkpt lat="44.2777421" lon="9.8090853"><ele>989.3333333333333</ele><time>2026-04-26T12:02:26.839Z</time></trkpt><trkpt lat="44.2776476" lon="9.8090499"><ele>988.6666666666666</ele><time>2026-04-26T12:02:28.839Z</time></trkpt><trkpt lat="44.2775794" lon="9.8090326"><ele>988.0</ele><time>2026-04-26T12:02:30.839Z</time></trkpt><trkpt lat="44.2774862" lon="9.809066"><ele>987.9999999999999</ele><time>2026-04-26T12:02:32.84Z</time></trkpt><trkpt lat="44.2774263" lon="9.8090998"><ele>988.0</ele><time>2026-04-26T12:02:33.838Z</time></trkpt><trkpt lat="44.2773619" lon="9.809147"><ele>988.0</ele><time>2026-04-26T12:02:34.838Z</time></trkpt><trkpt lat="44.2772937" lon="9.8092139"><ele>988.0</ele><time>2026-04-26T12:02:35.839Z</time></trkpt><trkpt lat="44.2772239" lon="9.8092859"><ele>987.9999999999999</ele><time>2026-04-26T12:02:36.839Z</time></trkpt><trkpt lat="44.2771552" lon="9.8093468"><ele>988.0</ele><time>2026-04-26T12:02:37.838Z</time></trkpt><trkpt lat="44.2770876" lon="9.8094078"><ele>989.0</ele><time>2026-04-26T12:02:38.839Z</time></trkpt><trkpt lat="44.2770245" lon="9.8094713"><ele>990.0</ele><time>2026-04-26T12:02:39.839Z</time></trkpt><trkpt lat="44.2769554" lon="9.8095383"><ele>991.0</ele><time>2026-04-26T12:02:40.838Z</time></trkpt><trkpt lat="44.2768827" lon="9.8096162"><ele>992.0</ele><time>2026-04-26T12:02:41.838Z</time></trkpt><trkpt lat="44.2768051" lon="9.8097068"><ele>993.0</ele><time>2026-04-26T12:02:42.84Z</time></trkpt><trkpt lat="44.2767181" lon="9.8098024"><ele>993.0</ele><time>2026-04-26T12:02:43.838Z</time></trkpt><trkpt lat="44.2766275" lon="9.8098959"><ele>993.0</ele><time>2026-04-26T12:02:44.838Z</time></trkpt><trkpt lat="44.2765392" lon="9.8099892"><ele>993.0</ele><time>2026-04-26T12:02:45.838Z</time></trkpt><trkpt lat="44.2764479" lon="9.8100789"><ele>993.0</ele><time>2026-04-26T12:02:46.839Z</time></trkpt><trkpt lat="44.2763506" lon="9.8101733"><ele>994.25</ele><time>2026-04-26T12:02:47.838Z</time></trkpt><trkpt lat="44.2762518" lon="9.8102689"><ele>995.5</ele><time>2026-04-26T12:02:48.839Z</time></trkpt><trkpt lat="44.2761503" lon="9.8103637"><ele>996.75</ele><time>2026-04-26T12:02:49.838Z</time></trkpt><trkpt lat="44.2760472" lon="9.81046"><ele>998.0</ele><time>2026-04-26T12:02:50.839Z</time></trkpt><trkpt lat="44.275951" lon="9.8105554"><ele>998.0</ele><time>2026-04-26T12:02:51.838Z</time></trkpt><trkpt lat="44.2758532" lon="9.8106581"><ele>998.0</ele><time>2026-04-26T12:02:52.839Z</time></trkpt><trkpt lat="44.2757563" lon="9.8107555"><ele>998.0</ele><time>2026-04-26T12:02:53.838Z</time></trkpt><trkpt lat="44.2756561" lon="9.8108476"><ele>998.0</ele><time>2026-04-26T12:02:54.838Z</time></trkpt><trkpt lat="44.2755582" lon="9.8109385"><ele>998.25</ele><time>2026-04-26T12:02:55.839Z</time></trkpt><trkpt lat="44.2754642" lon="9.8110358"><ele>998.5</ele><time>2026-04-26T12:02:56.838Z</time></trkpt><trkpt lat="44.2753731" lon="9.8111251"><ele>998.75</ele><time>2026-04-26T12:02:57.839Z</time></trkpt><trkpt lat="44.2752788" lon="9.8112118"><ele>999.0</ele><time>2026-04-26T12:02:58.84Z</time></trkpt><trkpt lat="44.2751837" lon="9.8113044"><ele>999.0</ele><time>2026-04-26T12:02:59.838Z</time></trkpt><trkpt lat="44.2750898" lon="9.8114041"><ele>999.0</ele><time>2026-04-26T12:03:00.838Z</time></trkpt><trkpt lat="44.2749959" lon="9.8115068"><ele>999.0</ele><time>2026-04-26T12:03:01.839Z</time></trkpt><trkpt lat="44.2749006" lon="9.8116079"><ele>999.0</ele><time>2026-04-26T12:03:02.838Z</time></trkpt><trkpt lat="44.2748113" lon="9.8117028"><ele>998.0</ele><time>2026-04-26T12:03:03.838Z</time></trkpt><trkpt lat="44.2747217" lon="9.8117821"><ele>997.0000000000001</ele><time>2026-04-26T12:03:04.838Z</time></trkpt><trkpt lat="44.2746372" lon="9.8118511"><ele>996.0000000000001</ele><time>2026-04-26T12:03:05.838Z</time></trkpt><trkpt lat="44.274553" lon="9.8119242"><ele>995.0</ele><time>2026-04-26T12:03:06.838Z</time></trkpt><trkpt lat="44.2744753" lon="9.8120096"><ele>994.0</ele><time>2026-04-26T12:03:07.838Z</time></trkpt><trkpt lat="44.2744075" lon="9.8121085"><ele>994.0</ele><time>2026-04-26T12:03:08.838Z</time></trkpt><trkpt lat="44.2743574" lon="9.8122265"><ele>994.0000000000001</ele><time>2026-04-26T12:03:09.838Z</time></trkpt><trkpt lat="44.2743186" lon="9.812359"><ele>994.0000000000001</ele><time>2026-04-26T12:03:10.838Z</time></trkpt><trkpt lat="44.274274" lon="9.8124981"><ele>994.0</ele><time>2026-04-26T12:03:11.839Z</time></trkpt><trkpt lat="44.2742197" lon="9.8126233"><ele>994.0</ele><time>2026-04-26T12:03:12.839Z</time></trkpt><trkpt lat="44.2741558" lon="9.8127416"><ele>991.8333333333333</ele><time>2026-04-26T12:03:13.838Z</time></trkpt><trkpt lat="44.2740943" lon="9.8128453"><ele>989.6666666666666</ele><time>2026-04-26T12:03:14.838Z</time></trkpt><trkpt lat="44.2740416" lon="9.8129404"><ele>987.5</ele><time>2026-04-26T12:03:15.839Z</time></trkpt><trkpt lat="44.2739998" lon="9.8130184"><ele>985.3333333333333</ele><time>2026-04-26T12:03:16.838Z</time></trkpt><trkpt lat="44.2739676" lon="9.8131084"><ele>983.1666666666666</ele><time>2026-04-26T12:03:17.839Z</time></trkpt><trkpt lat="44.2739391" lon="9.8132104"><ele>981.0</ele><time>2026-04-26T12:03:18.838Z</time></trkpt><trkpt lat="44.2739125" lon="9.8133331"><ele>981.0</ele><time>2026-04-26T12:03:19.839Z</time></trkpt><trkpt lat="44.2738945" lon="9.8134688"><ele>981.0</ele><time>2026-04-26T12:03:20.839Z</time></trkpt><trkpt lat="44.2738848" lon="9.8135937"><ele>981.0</ele><time>2026-04-26T12:03:21.838Z</time></trkpt><trkpt lat="44.2738804" lon="9.813723"><ele>981.0</ele><time>2026-04-26T12:03:22.839Z</time></trkpt><trkpt lat="44.2738848" lon="9.813831"><ele>981.0</ele><time>2026-04-26T12:03:23.838Z</time></trkpt><trkpt lat="44.2738974" lon="9.8139399"><ele>981.0</ele><time>2026-04-26T12:03:24.838Z</time></trkpt><trkpt lat="44.2739243" lon="9.8140384"><ele>985.2857142857143</ele><time>2026-04-26T12:03:25.839Z</time></trkpt><trkpt lat="44.2739613" lon="9.8141256"><ele>989.5714285714284</ele><time>2026-04-26T12:03:26.838Z</time></trkpt><trkpt lat="44.2740073" lon="9.8141903"><ele>993.8571428571428</ele><time>2026-04-26T12:03:27.839Z</time></trkpt><trkpt lat="44.2740611" lon="9.8142489"><ele>998.1428571428571</ele><time>2026-04-26T12:03:28.838Z</time></trkpt><trkpt lat="44.2741201" lon="9.8142849"><ele>1002.4285714285713</ele><time>2026-04-26T12:03:29.839Z</time></trkpt><trkpt lat="44.2741881" lon="9.8143011"><ele>1006.7142857142856</ele><time>2026-04-26T12:03:30.838Z</time></trkpt><trkpt lat="44.2742647" lon="9.8142965"><ele>1010.9999999999999</ele><time>2026-04-26T12:03:31.839Z</time></trkpt><trkpt lat="44.2743527" lon="9.8142721"><ele>1011.0</ele><time>2026-04-26T12:03:32.838Z</time></trkpt><trkpt lat="44.2744328" lon="9.8142581"><ele>1011.0</ele><time>2026-04-26T12:03:33.838Z</time></trkpt><trkpt lat="44.2745047" lon="9.8142601"><ele>1011.0</ele><time>2026-04-26T12:03:34.839Z</time></trkpt><trkpt lat="44.2745723" lon="9.8142807"><ele>1011.0</ele><time>2026-04-26T12:03:35.838Z</time></trkpt><trkpt lat="44.2746527" lon="9.8143764"><ele>1011.0</ele><time>2026-04-26T12:03:37.838Z</time></trkpt><trkpt lat="44.2746805" lon="9.8145264"><ele>1011.0</ele><time>2026-04-26T12:03:39.839Z</time></trkpt><trkpt lat="44.2746408" lon="9.8146991"><ele>1008.8333333333334</ele><time>2026-04-26T12:03:41.838Z</time></trkpt><trkpt lat="44.2746188" lon="9.8148083"><ele>1006.6666666666667</ele><time>2026-04-26T12:03:42.839Z</time></trkpt><trkpt lat="44.2746167" lon="9.8149176"><ele>1004.5</ele><time>2026-04-26T12:03:43.839Z</time></trkpt><trkpt lat="44.2746398" lon="9.8150326"><ele>1002.3333333333334</ele><time>2026-04-26T12:03:44.839Z</time></trkpt><trkpt lat="44.2746841" lon="9.8151476"><ele>1000.1666666666667</ele><time>2026-04-26T12:03:45.839Z</time></trkpt><trkpt lat="44.2747429" lon="9.8152716"><ele>998.0</ele><time>2026-04-26T12:03:46.838Z</time></trkpt><trkpt lat="44.2748045" lon="9.8153877"><ele>1003.8333333333334</ele><time>2026-04-26T12:03:47.838Z</time></trkpt><trkpt lat="44.2748487" lon="9.8155024"><ele>1009.6666666666667</ele><time>2026-04-26T12:03:48.838Z</time></trkpt><trkpt lat="44.274875" lon="9.8156126"><ele>1015.5</ele><time>2026-04-26T12:03:49.838Z</time></trkpt><trkpt lat="44.2748932" lon="9.8157372"><ele>1021.3333333333333</ele><time>2026-04-26T12:03:50.838Z</time></trkpt><trkpt lat="44.2749073" lon="9.8158546"><ele>1027.1666666666665</ele><time>2026-04-26T12:03:51.84Z</time></trkpt><trkpt lat="44.274915" lon="9.8159734"><ele>1033.0</ele><time>2026-04-26T12:03:52.838Z</time></trkpt><trkpt lat="44.2749182" lon="9.8161018"><ele>1034.5</ele><time>2026-04-26T12:03:53.838Z</time></trkpt><trkpt lat="44.274906" lon="9.8162269"><ele>1036.0</ele><time>2026-04-26T12:03:54.838Z</time></trkpt><trkpt lat="44.2748755" lon="9.8163441"><ele>1037.5</ele><time>2026-04-26T12:03:55.838Z</time></trkpt><trkpt lat="44.2748401" lon="9.8164588"><ele>1039.0</ele><time>2026-04-26T12:03:56.839Z</time></trkpt><trkpt lat="44.274801" lon="9.8165763"><ele>1040.5</ele><time>2026-04-26T12:03:57.838Z</time></trkpt><trkpt lat="44.2747701" lon="9.8166901"><ele>1042.0</ele><time>2026-04-26T12:03:58.838Z</time></trkpt><trkpt lat="44.2747423" lon="9.8168066"><ele>1033.5</ele><time>2026-04-26T12:03:59.838Z</time></trkpt><trkpt lat="44.2747103" lon="9.8169183"><ele>1025.0</ele><time>2026-04-26T12:04:00.838Z</time></trkpt><trkpt lat="44.2746875" lon="9.8170219"><ele>1016.5</ele><time>2026-04-26T12:04:01.838Z</time></trkpt><trkpt lat="44.2746734" lon="9.8171253"><ele>1008.0</ele><time>2026-04-26T12:04:02.838Z</time></trkpt><trkpt lat="44.2746739" lon="9.8172462"><ele>999.4999999999999</ele><time>2026-04-26T12:04:03.838Z</time></trkpt><trkpt lat="44.2746827" lon="9.8173669"><ele>991.0</ele><time>2026-04-26T12:04:04.838Z</time></trkpt><trkpt lat="44.2746968" lon="9.8174863"><ele>991.0000000000001</ele><time>2026-04-26T12:04:05.838Z</time></trkpt><trkpt lat="44.2747257" lon="9.817596"><ele>991.0</ele><time>2026-04-26T12:04:06.838Z</time></trkpt><trkpt lat="44.2747361" lon="9.8176988"><ele>991.0000000000001</ele><time>2026-04-26T12:04:07.839Z</time></trkpt><trkpt lat="44.2747312" lon="9.8178003"><ele>991.0000000000001</ele><time>2026-04-26T12:04:08.839Z</time></trkpt><trkpt lat="44.2747104" lon="9.8178969"><ele>991.0</ele><time>2026-04-26T12:04:09.839Z</time></trkpt><trkpt lat="44.2746867" lon="9.817998"><ele>991.0000000000001</ele><time>2026-04-26T12:04:10.84Z</time></trkpt><trkpt lat="44.2746634" lon="9.818088"><ele>991.0000000000001</ele><time>2026-04-26T12:04:11.839Z</time></trkpt><trkpt lat="44.2746013" lon="9.8182531"><ele>993.0</ele><time>2026-04-26T12:04:13.838Z</time></trkpt><trkpt lat="44.2745621" lon="9.8183493"><ele>994.9999999999999</ele><time>2026-04-26T12:04:14.838Z</time></trkpt><trkpt lat="44.2745235" lon="9.8184539"><ele>996.9999999999999</ele><time>2026-04-26T12:04:15.838Z</time></trkpt><trkpt lat="44.2744942" lon="9.8185706"><ele>999.0</ele><time>2026-04-26T12:04:16.838Z</time></trkpt><trkpt lat="44.2744796" lon="9.8187041"><ele>1001.0</ele><time>2026-04-26T12:04:17.838Z</time></trkpt><trkpt lat="44.274461" lon="9.8188538"><ele>1004.0</ele><time>2026-04-26T12:04:18.838Z</time></trkpt><trkpt lat="44.2744331" lon="9.8189982"><ele>1006.9999999999999</ele><time>2026-04-26T12:04:19.838Z</time></trkpt><trkpt lat="44.2744" lon="9.8191397"><ele>1009.9999999999999</ele><time>2026-04-26T12:04:20.838Z</time></trkpt><trkpt lat="44.2743631" lon="9.8192806"><ele>1013.0</ele><time>2026-04-26T12:04:21.839Z</time></trkpt><trkpt lat="44.2743206" lon="9.8194274"><ele>1016.0</ele><time>2026-04-26T12:04:22.838Z</time></trkpt><trkpt lat="44.2742755" lon="9.8195603"><ele>1019.1999999999999</ele><time>2026-04-26T12:04:23.838Z</time></trkpt><trkpt lat="44.2742196" lon="9.8196973"><ele>1022.3999999999999</ele><time>2026-04-26T12:04:24.839Z</time></trkpt><trkpt lat="44.2741752" lon="9.8198315"><ele>1025.6</ele><time>2026-04-26T12:04:25.839Z</time></trkpt><trkpt lat="44.2741373" lon="9.8199735"><ele>1028.8</ele><time>2026-04-26T12:04:26.838Z</time></trkpt><trkpt lat="44.27411" lon="9.8201244"><ele>1032.0</ele><time>2026-04-26T12:04:27.839Z</time></trkpt><trkpt lat="44.2740985" lon="9.8202738"><ele>1033.8</ele><time>2026-04-26T12:04:28.838Z</time></trkpt><trkpt lat="44.2741003" lon="9.820428"><ele>1035.6</ele><time>2026-04-26T12:04:29.839Z</time></trkpt><trkpt lat="44.2741018" lon="9.8205811"><ele>1037.3999999999999</ele><time>2026-04-26T12:04:30.839Z</time></trkpt><trkpt lat="44.274097" lon="9.8207235"><ele>1039.2</ele><time>2026-04-26T12:04:31.839Z</time></trkpt><trkpt lat="44.2740812" lon="9.8208711"><ele>1041.0</ele><time>2026-04-26T12:04:32.838Z</time></trkpt><trkpt lat="44.2740579" lon="9.8210071"><ele>1043.8</ele><time>2026-04-26T12:04:33.838Z</time></trkpt><trkpt lat="44.274032" lon="9.8211482"><ele>1046.6</ele><time>2026-04-26T12:04:34.838Z</time></trkpt><trkpt lat="44.2739956" lon="9.8212879"><ele>1049.4</ele><time>2026-04-26T12:04:35.839Z</time></trkpt><trkpt lat="44.2739485" lon="9.8214113"><ele>1052.2</ele><time>2026-04-26T12:04:36.84Z</time></trkpt><trkpt lat="44.2738942" lon="9.8215441"><ele>1055.0</ele><time>2026-04-26T12:04:37.839Z</time></trkpt><trkpt lat="44.2738311" lon="9.821682"><ele>1051.2</ele><time>2026-04-26T12:04:38.84Z</time></trkpt><trkpt lat="44.27376" lon="9.8218115"><ele>1047.4</ele><time>2026-04-26T12:04:39.838Z</time></trkpt><trkpt lat="44.2736862" lon="9.8219388"><ele>1043.6</ele><time>2026-04-26T12:04:40.838Z</time></trkpt><trkpt lat="44.2736175" lon="9.8220509"><ele>1039.8</ele><time>2026-04-26T12:04:41.838Z</time></trkpt><trkpt lat="44.2735573" lon="9.822163"><ele>1036.0</ele><time>2026-04-26T12:04:42.838Z</time></trkpt><trkpt lat="44.2734965" lon="9.8222932"><ele>1036.0</ele><time>2026-04-26T12:04:43.838Z</time></trkpt><trkpt lat="44.2734528" lon="9.8224434"><ele>1036.0</ele><time>2026-04-26T12:04:44.838Z</time></trkpt><trkpt lat="44.2734184" lon="9.8226008"><ele>1036.0</ele><time>2026-04-26T12:04:45.838Z</time></trkpt><trkpt lat="44.2733861" lon="9.8227623"><ele>1036.0</ele><time>2026-04-26T12:04:46.838Z</time></trkpt><trkpt lat="44.2733486" lon="9.8229173"><ele>1039.25</ele><time>2026-04-26T12:04:47.838Z</time></trkpt><trkpt lat="44.2733099" lon="9.8230635"><ele>1042.5</ele><time>2026-04-26T12:04:48.839Z</time></trkpt><trkpt lat="44.2732706" lon="9.8232173"><ele>1045.75</ele><time>2026-04-26T12:04:49.839Z</time></trkpt><trkpt lat="44.2732297" lon="9.8233778"><ele>1049.0</ele><time>2026-04-26T12:04:50.839Z</time></trkpt><trkpt lat="44.2731788" lon="9.8235403"><ele>1053.75</ele><time>2026-04-26T12:04:51.839Z</time></trkpt><trkpt lat="44.2731254" lon="9.8236985"><ele>1058.5</ele><time>2026-04-26T12:04:52.839Z</time></trkpt><trkpt lat="44.2730645" lon="9.8238431"><ele>1063.25</ele><time>2026-04-26T12:04:53.839Z</time></trkpt><trkpt lat="44.272989" lon="9.8239811"><ele>1068.0</ele><time>2026-04-26T12:04:54.838Z</time></trkpt><trkpt lat="44.2729158" lon="9.824121"><ele>1061.75</ele><time>2026-04-26T12:04:55.838Z</time></trkpt><trkpt lat="44.272841" lon="9.8242777"><ele>1055.5</ele><time>2026-04-26T12:04:56.838Z</time></trkpt><trkpt lat="44.2727746" lon="9.8244338"><ele>1049.25</ele><time>2026-04-26T12:04:57.838Z</time></trkpt><trkpt lat="44.2727045" lon="9.8245947"><ele>1043.0</ele><time>2026-04-26T12:04:58.839Z</time></trkpt><trkpt lat="44.272639" lon="9.8247532"><ele>1043.0</ele><time>2026-04-26T12:04:59.838Z</time></trkpt><trkpt lat="44.2725766" lon="9.8249022"><ele>1043.0</ele><time>2026-04-26T12:05:00.838Z</time></trkpt><trkpt lat="44.2725101" lon="9.8250529"><ele>1043.0</ele><time>2026-04-26T12:05:01.838Z</time></trkpt><trkpt lat="44.2724559" lon="9.8251903"><ele>1043.0</ele><time>2026-04-26T12:05:02.838Z</time></trkpt><trkpt lat="44.2724165" lon="9.8253252"><ele>1045.5</ele><time>2026-04-26T12:05:03.838Z</time></trkpt><trkpt lat="44.2723959" lon="9.8254695"><ele>1048.0</ele><time>2026-04-26T12:05:04.838Z</time></trkpt><trkpt lat="44.2723871" lon="9.8256289"><ele>1050.5</ele><time>2026-04-26T12:05:05.838Z</time></trkpt><trkpt lat="44.2723865" lon="9.8257946"><ele>1053.0</ele><time>2026-04-26T12:05:06.838Z</time></trkpt><trkpt lat="44.2723747" lon="9.8259702"><ele>1055.25</ele><time>2026-04-26T12:05:07.838Z</time></trkpt><trkpt lat="44.2723436" lon="9.8261493"><ele>1057.5</ele><time>2026-04-26T12:05:08.838Z</time></trkpt><trkpt lat="44.2723041" lon="9.8263255"><ele>1059.75</ele><time>2026-04-26T12:05:09.838Z</time></trkpt><trkpt lat="44.2722608" lon="9.8264998"><ele>1062.0</ele><time>2026-04-26T12:05:10.838Z</time></trkpt><trkpt lat="44.2722165" lon="9.826672"><ele>1054.75</ele><time>2026-04-26T12:05:11.838Z</time></trkpt><trkpt lat="44.272181" lon="9.8268363"><ele>1047.5</ele><time>2026-04-26T12:05:12.838Z</time></trkpt><trkpt lat="44.2721394" lon="9.8270071"><ele>1040.25</ele><time>2026-04-26T12:05:13.838Z</time></trkpt><trkpt lat="44.2720905" lon="9.8271756"><ele>1033.0</ele><time>2026-04-26T12:05:14.838Z</time></trkpt><trkpt lat="44.2720359" lon="9.827346"><ele>1033.0</ele><time>2026-04-26T12:05:15.838Z</time></trkpt><trkpt lat="44.2719843" lon="9.827516"><ele>1033.0</ele><time>2026-04-26T12:05:16.839Z</time></trkpt><trkpt lat="44.2719375" lon="9.8276807"><ele>1033.0</ele><time>2026-04-26T12:05:17.839Z</time></trkpt><trkpt lat="44.2718995" lon="9.8278453"><ele>1033.0</ele><time>2026-04-26T12:05:18.838Z</time></trkpt><trkpt lat="44.2718751" lon="9.8280092"><ele>1034.75</ele><time>2026-04-26T12:05:19.838Z</time></trkpt><trkpt lat="44.2718635" lon="9.8281818"><ele>1036.5</ele><time>2026-04-26T12:05:20.838Z</time></trkpt><trkpt lat="44.2718649" lon="9.8283701"><ele>1038.25</ele><time>2026-04-26T12:05:21.838Z</time></trkpt><trkpt lat="44.2718715" lon="9.8285607"><ele>1040.0</ele><time>2026-04-26T12:05:22.838Z</time></trkpt><trkpt lat="44.2718783" lon="9.8287495"><ele>1040.75</ele><time>2026-04-26T12:05:23.839Z</time></trkpt><trkpt lat="44.2718777" lon="9.8289435"><ele>1041.5</ele><time>2026-04-26T12:05:24.838Z</time></trkpt><trkpt lat="44.2718677" lon="9.8291291"><ele>1042.25</ele><time>2026-04-26T12:05:25.838Z</time></trkpt><trkpt lat="44.2718538" lon="9.8293164"><ele>1043.0</ele><time>2026-04-26T12:05:26.838Z</time></trkpt><trkpt lat="44.2718351" lon="9.8294994"><ele>1045.5</ele><time>2026-04-26T12:05:27.838Z</time></trkpt><trkpt lat="44.2717999" lon="9.8296669"><ele>1048.0</ele><time>2026-04-26T12:05:28.838Z</time></trkpt><trkpt lat="44.2717466" lon="9.8298332"><ele>1050.5</ele><time>2026-04-26T12:05:29.84Z</time></trkpt><trkpt lat="44.2716875" lon="9.8300051"><ele>1053.0</ele><time>2026-04-26T12:05:30.838Z</time></trkpt><trkpt lat="44.2716165" lon="9.8301715"><ele>1057.5</ele><time>2026-04-26T12:05:31.838Z</time></trkpt><trkpt lat="44.2715443" lon="9.8303334"><ele>1062.0</ele><time>2026-04-26T12:05:32.838Z</time></trkpt><trkpt lat="44.2714658" lon="9.8304976"><ele>1066.5</ele><time>2026-04-26T12:05:33.839Z</time></trkpt><trkpt lat="44.2713841" lon="9.8306506"><ele>1071.0</ele><time>2026-04-26T12:05:34.838Z</time></trkpt><trkpt lat="44.2712983" lon="9.830795"><ele>1066.25</ele><time>2026-04-26T12:05:35.838Z</time></trkpt><trkpt lat="44.2712168" lon="9.830931"><ele>1061.5</ele><time>2026-04-26T12:05:36.838Z</time></trkpt><trkpt lat="44.2711485" lon="9.8310719"><ele>1056.75</ele><time>2026-04-26T12:05:37.839Z</time></trkpt><trkpt lat="44.2710814" lon="9.8312331"><ele>1052.0</ele><time>2026-04-26T12:05:38.838Z</time></trkpt><trkpt lat="44.2710127" lon="9.8314082"><ele>1052.0</ele><time>2026-04-26T12:05:39.838Z</time></trkpt><trkpt lat="44.2709394" lon="9.8315843"><ele>1052.0</ele><time>2026-04-26T12:05:40.838Z</time></trkpt><trkpt lat="44.2708748" lon="9.8317552"><ele>1052.0</ele><time>2026-04-26T12:05:41.838Z</time></trkpt><trkpt lat="44.2708078" lon="9.8319339"><ele>1052.0</ele><time>2026-04-26T12:05:42.838Z</time></trkpt><trkpt lat="44.2707353" lon="9.8321073"><ele>1050.0</ele><time>2026-04-26T12:05:43.838Z</time></trkpt><trkpt lat="44.2706591" lon="9.8322848"><ele>1048.0</ele><time>2026-04-26T12:05:44.838Z</time></trkpt><trkpt lat="44.2705795" lon="9.8324685"><ele>1046.0</ele><time>2026-04-26T12:05:45.838Z</time></trkpt><trkpt lat="44.2705028" lon="9.8326561"><ele>1046.0</ele><time>2026-04-26T12:05:46.84Z</time></trkpt><trkpt lat="44.2704246" lon="9.8328531"><ele>1046.0</ele><time>2026-04-26T12:05:47.839Z</time></trkpt><trkpt lat="44.2703452" lon="9.833062"><ele>1046.0</ele><time>2026-04-26T12:05:48.838Z</time></trkpt><trkpt lat="44.2702645" lon="9.8332686"><ele>1046.0</ele><time>2026-04-26T12:05:49.838Z</time></trkpt><trkpt lat="44.27019" lon="9.8334595"><ele>1046.0</ele><time>2026-04-26T12:05:50.839Z</time></trkpt><trkpt lat="44.2701104" lon="9.833652"><ele>1046.0</ele><time>2026-04-26T12:05:51.839Z</time></trkpt><trkpt lat="44.2700308" lon="9.8338389"><ele>1049.3333333333335</ele><time>2026-04-26T12:05:52.838Z</time></trkpt><trkpt lat="44.2699572" lon="9.8340231"><ele>1052.6666666666667</ele><time>2026-04-26T12:05:53.838Z</time></trkpt><trkpt lat="44.2698865" lon="9.8342157"><ele>1056.0</ele><time>2026-04-26T12:05:54.838Z</time></trkpt><trkpt lat="44.2698167" lon="9.8344045"><ele>1050.6666666666667</ele><time>2026-04-26T12:05:55.838Z</time></trkpt><trkpt lat="44.2697532" lon="9.8345989"><ele>1045.3333333333335</ele><time>2026-04-26T12:05:56.84Z</time></trkpt><trkpt lat="44.2696855" lon="9.8347998"><ele>1040.0</ele><time>2026-04-26T12:05:57.838Z</time></trkpt><trkpt lat="44.2696216" lon="9.8350098"><ele>1043.25</ele><time>2026-04-26T12:05:58.838Z</time></trkpt><trkpt lat="44.2695425" lon="9.8351808"><ele>1046.5</ele><time>2026-04-26T12:05:59.839Z</time></trkpt><trkpt lat="44.2694786" lon="9.8353679"><ele>1049.75</ele><time>2026-04-26T12:06:00.838Z</time></trkpt><trkpt lat="44.2693893" lon="9.8355071"><ele>1053.0</ele><time>2026-04-26T12:06:01.838Z</time></trkpt><trkpt lat="44.2693216" lon="9.8356517"><ele>1053.0</ele><time>2026-04-26T12:06:02.839Z</time></trkpt><trkpt lat="44.2692538" lon="9.8357879"><ele>1053.0</ele><time>2026-04-26T12:06:03.838Z</time></trkpt><trkpt lat="44.2691885" lon="9.8359106"><ele>1053.0</ele><time>2026-04-26T12:06:04.838Z</time></trkpt><trkpt lat="44.2691222" lon="9.8360459"><ele>1053.0</ele><time>2026-04-26T12:06:05.838Z</time></trkpt><trkpt lat="44.2690648" lon="9.8362026"><ele>1050.75</ele><time>2026-04-26T12:06:06.838Z</time></trkpt><trkpt lat="44.2690105" lon="9.8363603"><ele>1048.5</ele><time>2026-04-26T12:06:07.838Z</time></trkpt><trkpt lat="44.2689581" lon="9.8365232"><ele>1046.25</ele><time>2026-04-26T12:06:08.838Z</time></trkpt><trkpt lat="44.2689098" lon="9.8366839"><ele>1044.0</ele><time>2026-04-26T12:06:09.838Z</time></trkpt><trkpt lat="44.2688677" lon="9.8368331"><ele>1044.0</ele><time>2026-04-26T12:06:10.838Z</time></trkpt><trkpt lat="44.2688244" lon="9.8369827"><ele>1044.0</ele><time>2026-04-26T12:06:11.838Z</time></trkpt><trkpt lat="44.268776" lon="9.8371392"><ele>1044.0</ele><time>2026-04-26T12:06:12.838Z</time></trkpt><trkpt lat="44.2687314" lon="9.8372918"><ele>1044.0</ele><time>2026-04-26T12:06:13.838Z</time></trkpt><trkpt lat="44.268694" lon="9.8374378"><ele>1044.0</ele><time>2026-04-26T12:06:14.838Z</time></trkpt><trkpt lat="44.2686549" lon="9.8375816"><ele>1044.0</ele><time>2026-04-26T12:06:15.839Z</time></trkpt><trkpt lat="44.2686123" lon="9.837703"><ele>1044.0</ele><time>2026-04-26T12:06:16.838Z</time></trkpt><trkpt lat="44.268575" lon="9.837818"><ele>1044.0</ele><time>2026-04-26T12:06:17.839Z</time></trkpt><trkpt lat="44.2685448" lon="9.8379514"><ele>1044.0</ele><time>2026-04-26T12:06:18.838Z</time></trkpt><trkpt lat="44.2685255" lon="9.8381003"><ele>1044.4</ele><time>2026-04-26T12:06:19.839Z</time></trkpt><trkpt lat="44.2685202" lon="9.8382566"><ele>1044.8000000000002</ele><time>2026-04-26T12:06:20.838Z</time></trkpt><trkpt lat="44.2685212" lon="9.8384163"><ele>1045.1999999999998</ele><time>2026-04-26T12:06:21.838Z</time></trkpt><trkpt lat="44.268524" lon="9.8385751"><ele>1045.6</ele><time>2026-04-26T12:06:22.839Z</time></trkpt><trkpt lat="44.2685204" lon="9.8387218"><ele>1046.0</ele><time>2026-04-26T12:06:23.838Z</time></trkpt><trkpt lat="44.2685185" lon="9.8388643"><ele>1046.6</ele><time>2026-04-26T12:06:24.839Z</time></trkpt><trkpt lat="44.2685171" lon="9.8390123"><ele>1047.1999999999998</ele><time>2026-04-26T12:06:25.839Z</time></trkpt><trkpt lat="44.2685108" lon="9.8391522"><ele>1047.8000000000002</ele><time>2026-04-26T12:06:26.839Z</time></trkpt><trkpt lat="44.2684926" lon="9.8392859"><ele>1048.4</ele><time>2026-04-26T12:06:27.839Z</time></trkpt><trkpt lat="44.2684571" lon="9.839425"><ele>1049.0</ele><time>2026-04-26T12:06:28.839Z</time></trkpt><trkpt lat="44.2684247" lon="9.839565"><ele>1049.8</ele><time>2026-04-26T12:06:29.839Z</time></trkpt><trkpt lat="44.2683923" lon="9.8397071"><ele>1050.6000000000001</ele><time>2026-04-26T12:06:30.838Z</time></trkpt><trkpt lat="44.2683518" lon="9.8398419"><ele>1051.4</ele><time>2026-04-26T12:06:31.838Z</time></trkpt><trkpt lat="44.2682926" lon="9.8399704"><ele>1052.2</ele><time>2026-04-26T12:06:32.838Z</time></trkpt><trkpt lat="44.2682308" lon="9.8401199"><ele>1053.0</ele><time>2026-04-26T12:06:33.838Z</time></trkpt><trkpt lat="44.2681709" lon="9.8402645"><ele>1055.5</ele><time>2026-04-26T12:06:34.838Z</time></trkpt><trkpt lat="44.268111" lon="9.8404135"><ele>1058.0</ele><time>2026-04-26T12:06:35.838Z</time></trkpt><trkpt lat="44.2680581" lon="9.8405618"><ele>1060.5</ele><time>2026-04-26T12:06:36.838Z</time></trkpt><trkpt lat="44.2680042" lon="9.8407019"><ele>1063.0</ele><time>2026-04-26T12:06:37.838Z</time></trkpt><trkpt lat="44.2679331" lon="9.8408163"><ele>1060.2</ele><time>2026-04-26T12:06:38.838Z</time></trkpt><trkpt lat="44.26785" lon="9.8409177"><ele>1057.4</ele><time>2026-04-26T12:06:39.838Z</time></trkpt><trkpt lat="44.2677611" lon="9.8410201"><ele>1054.6000000000001</ele><time>2026-04-26T12:06:40.839Z</time></trkpt><trkpt lat="44.267682" lon="9.8411181"><ele>1051.8</ele><time>2026-04-26T12:06:41.838Z</time></trkpt><trkpt lat="44.267613" lon="9.8412112"><ele>1049.0</ele><time>2026-04-26T12:06:42.839Z</time></trkpt><trkpt lat="44.2675643" lon="9.8413041"><ele>1049.0</ele><time>2026-04-26T12:06:43.839Z</time></trkpt><trkpt lat="44.2675201" lon="9.8414084"><ele>1049.0</ele><time>2026-04-26T12:06:44.838Z</time></trkpt><trkpt lat="44.2674741" lon="9.8415199"><ele>1049.0</ele><time>2026-04-26T12:06:45.839Z</time></trkpt><trkpt lat="44.2674124" lon="9.8416251"><ele>1049.0</ele><time>2026-04-26T12:06:46.838Z</time></trkpt><trkpt lat="44.2673452" lon="9.841725"><ele>1049.0</ele><time>2026-04-26T12:06:47.837Z</time></trkpt><trkpt lat="44.2672827" lon="9.8418383"><ele>1046.6000000000001</ele><time>2026-04-26T12:06:48.837Z</time></trkpt><trkpt lat="44.2672155" lon="9.8419492"><ele>1044.2</ele><time>2026-04-26T12:06:49.837Z</time></trkpt><trkpt lat="44.267138" lon="9.8420412"><ele>1041.8000000000002</ele><time>2026-04-26T12:06:50.839Z</time></trkpt><trkpt lat="44.2670622" lon="9.8421267"><ele>1039.4</ele><time>2026-04-26T12:06:51.837Z</time></trkpt><trkpt lat="44.2669892" lon="9.8422247"><ele>1037.0</ele><time>2026-04-26T12:06:52.837Z</time></trkpt><trkpt lat="44.2669151" lon="9.8423201"><ele>1037.0</ele><time>2026-04-26T12:06:53.837Z</time></trkpt><trkpt lat="44.2668391" lon="9.8424163"><ele>1037.0</ele><time>2026-04-26T12:06:54.837Z</time></trkpt><trkpt lat="44.2667664" lon="9.8425145"><ele>1037.0</ele><time>2026-04-26T12:06:55.837Z</time></trkpt><trkpt lat="44.266698" lon="9.8426147"><ele>1037.0</ele><time>2026-04-26T12:06:56.837Z</time></trkpt><trkpt lat="44.2666334" lon="9.8427013"><ele>1037.0</ele><time>2026-04-26T12:06:57.837Z</time></trkpt><trkpt lat="44.2665808" lon="9.842768"><ele>1038.3333333333335</ele><time>2026-04-26T12:06:58.837Z</time></trkpt><trkpt lat="44.2665308" lon="9.8428727"><ele>1039.6666666666667</ele><time>2026-04-26T12:06:59.837Z</time></trkpt><trkpt lat="44.2664958" lon="9.8429849"><ele>1041.0</ele><time>2026-04-26T12:07:00.837Z</time></trkpt><trkpt lat="44.2664729" lon="9.8431108"><ele>1042.3333333333333</ele><time>2026-04-26T12:07:01.837Z</time></trkpt><trkpt lat="44.2664644" lon="9.8432357"><ele>1043.6666666666665</ele><time>2026-04-26T12:07:02.837Z</time></trkpt><trkpt lat="44.2664648" lon="9.8433597"><ele>1045.0</ele><time>2026-04-26T12:07:03.837Z</time></trkpt><trkpt lat="44.266464" lon="9.8434733"><ele>1046.3333333333333</ele><time>2026-04-26T12:07:04.838Z</time></trkpt><trkpt lat="44.266445" lon="9.843583"><ele>1047.6666666666665</ele><time>2026-04-26T12:07:05.838Z</time></trkpt><trkpt lat="44.2664192" lon="9.8436951"><ele>1049.0</ele><time>2026-04-26T12:07:06.838Z</time></trkpt><trkpt lat="44.2663785" lon="9.8437875"><ele>1050.3333333333333</ele><time>2026-04-26T12:07:07.837Z</time></trkpt><trkpt lat="44.2663141" lon="9.8438603"><ele>1051.6666666666667</ele><time>2026-04-26T12:07:08.837Z</time></trkpt><trkpt lat="44.2662629" lon="9.8439492"><ele>1053.0</ele><time>2026-04-26T12:07:09.838Z</time></trkpt><trkpt lat="44.2662179" lon="9.8440425"><ele>1047.2</ele><time>2026-04-26T12:07:10.838Z</time></trkpt><trkpt lat="44.2661785" lon="9.8441482"><ele>1041.4</ele><time>2026-04-26T12:07:11.837Z</time></trkpt><trkpt lat="44.2661464" lon="9.8442738"><ele>1035.6000000000001</ele><time>2026-04-26T12:07:12.839Z</time></trkpt><trkpt lat="44.2661181" lon="9.8444157"><ele>1029.8</ele><time>2026-04-26T12:07:13.837Z</time></trkpt><trkpt lat="44.2660864" lon="9.84455"><ele>1024.0</ele><time>2026-04-26T12:07:14.838Z</time></trkpt><trkpt lat="44.2660499" lon="9.8446753"><ele>1024.0</ele><time>2026-04-26T12:07:15.837Z</time></trkpt><trkpt lat="44.2660086" lon="9.8447964"><ele>1024.0</ele><time>2026-04-26T12:07:16.837Z</time></trkpt><trkpt lat="44.2659667" lon="9.8449265"><ele>1024.0</ele><time>2026-04-26T12:07:17.837Z</time></trkpt><trkpt lat="44.2659359" lon="9.8450596"><ele>1024.0</ele><time>2026-04-26T12:07:18.837Z</time></trkpt><trkpt lat="44.2659092" lon="9.8451923"><ele>1024.0</ele><time>2026-04-26T12:07:19.837Z</time></trkpt><trkpt lat="44.2658955" lon="9.8453185"><ele>1025.6666666666665</ele><time>2026-04-26T12:07:20.837Z</time></trkpt><trkpt lat="44.2658805" lon="9.8454414"><ele>1027.3333333333333</ele><time>2026-04-26T12:07:21.837Z</time></trkpt><trkpt lat="44.2658527" lon="9.8455438"><ele>1029.0</ele><time>2026-04-26T12:07:22.837Z</time></trkpt><trkpt lat="44.2658132" lon="9.8456437"><ele>1030.6666666666667</ele><time>2026-04-26T12:07:23.837Z</time></trkpt><trkpt lat="44.2657563" lon="9.845736"><ele>1032.3333333333335</ele><time>2026-04-26T12:07:24.838Z</time></trkpt><trkpt lat="44.2656953" lon="9.8458305"><ele>1034.0</ele><time>2026-04-26T12:07:25.837Z</time></trkpt><trkpt lat="44.2656273" lon="9.8459179"><ele>1030.4</ele><time>2026-04-26T12:07:26.837Z</time></trkpt><trkpt lat="44.2655616" lon="9.8459948"><ele>1026.8000000000002</ele><time>2026-04-26T12:07:27.837Z</time></trkpt><trkpt lat="44.2654885" lon="9.8460652"><ele>1023.1999999999999</ele><time>2026-04-26T12:07:28.838Z</time></trkpt><trkpt lat="44.2654111" lon="9.8461606"><ele>1019.5999999999999</ele><time>2026-04-26T12:07:29.838Z</time></trkpt><trkpt lat="44.2653322" lon="9.8462435"><ele>1016.0</ele><time>2026-04-26T12:07:30.838Z</time></trkpt><trkpt lat="44.2652521" lon="9.8463263"><ele>1016.0</ele><time>2026-04-26T12:07:31.839Z</time></trkpt><trkpt lat="44.2651744" lon="9.8464021"><ele>1015.9999999999999</ele><time>2026-04-26T12:07:32.837Z</time></trkpt><trkpt lat="44.2651058" lon="9.8464815"><ele>1015.9999999999999</ele><time>2026-04-26T12:07:33.837Z</time></trkpt><trkpt lat="44.2650495" lon="9.8465744"><ele>1016.0</ele><time>2026-04-26T12:07:34.838Z</time></trkpt><trkpt lat="44.2649939" lon="9.846702"><ele>1016.0</ele><time>2026-04-26T12:07:35.837Z</time></trkpt><trkpt lat="44.264944" lon="9.8468277"><ele>1017.4</ele><time>2026-04-26T12:07:36.838Z</time></trkpt><trkpt lat="44.2649001" lon="9.8469423"><ele>1018.8</ele><time>2026-04-26T12:07:37.837Z</time></trkpt><trkpt lat="44.2648518" lon="9.8470645"><ele>1020.1999999999999</ele><time>2026-04-26T12:07:38.837Z</time></trkpt><trkpt lat="44.2647924" lon="9.8471833"><ele>1021.5999999999999</ele><time>2026-04-26T12:07:39.838Z</time></trkpt><trkpt lat="44.2647265" lon="9.8472908"><ele>1023.0</ele><time>2026-04-26T12:07:40.838Z</time></trkpt><trkpt lat="44.2646512" lon="9.8473994"><ele>1019.5999999999999</ele><time>2026-04-26T12:07:41.838Z</time></trkpt><trkpt lat="44.2645799" lon="9.8474998"><ele>1016.1999999999999</ele><time>2026-04-26T12:07:42.838Z</time></trkpt><trkpt lat="44.2645179" lon="9.8475859"><ele>1012.8</ele><time>2026-04-26T12:07:43.838Z</time></trkpt><trkpt lat="44.2644532" lon="9.8476766"><ele>1009.4</ele><time>2026-04-26T12:07:44.837Z</time></trkpt><trkpt lat="44.2643875" lon="9.8477657"><ele>1006.0</ele><time>2026-04-26T12:07:45.837Z</time></trkpt><trkpt lat="44.2643107" lon="9.847839"><ele>1005.9999999999999</ele><time>2026-04-26T12:07:46.837Z</time></trkpt><trkpt lat="44.2642398" lon="9.8478929"><ele>1006.0</ele><time>2026-04-26T12:07:47.837Z</time></trkpt><trkpt lat="44.2641657" lon="9.8479232"><ele>1006.0</ele><time>2026-04-26T12:07:48.837Z</time></trkpt><trkpt lat="44.2640933" lon="9.8479353"><ele>1006.0</ele><time>2026-04-26T12:07:49.837Z</time></trkpt><trkpt lat="44.2640246" lon="9.8479289"><ele>1005.9999999999999</ele><time>2026-04-26T12:07:50.837Z</time></trkpt><trkpt lat="44.2639457" lon="9.8478858"><ele>1006.0</ele><time>2026-04-26T12:07:51.838Z</time></trkpt><trkpt lat="44.2638673" lon="9.8478337"><ele>1007.8333333333333</ele><time>2026-04-26T12:07:52.837Z</time></trkpt><trkpt lat="44.2637885" lon="9.8477745"><ele>1009.6666666666666</ele><time>2026-04-26T12:07:53.837Z</time></trkpt><trkpt lat="44.2637154" lon="9.8477284"><ele>1011.5</ele><time>2026-04-26T12:07:54.837Z</time></trkpt><trkpt lat="44.2636435" lon="9.8476807"><ele>1013.3333333333333</ele><time>2026-04-26T12:07:55.838Z</time></trkpt><trkpt lat="44.2635727" lon="9.8476623"><ele>1015.1666666666666</ele><time>2026-04-26T12:07:56.838Z</time></trkpt><trkpt lat="44.2634891" lon="9.8476653"><ele>1017.0</ele><time>2026-04-26T12:07:57.837Z</time></trkpt><trkpt lat="44.2634118" lon="9.8476858"><ele>1017.0</ele><time>2026-04-26T12:07:58.837Z</time></trkpt><trkpt lat="44.2633324" lon="9.8477373"><ele>1017.0</ele><time>2026-04-26T12:07:59.837Z</time></trkpt><trkpt lat="44.2632515" lon="9.8477927"><ele>1017.0</ele><time>2026-04-26T12:08:00.839Z</time></trkpt><trkpt lat="44.2631771" lon="9.8478396"><ele>1017.0</ele><time>2026-04-26T12:08:01.837Z</time></trkpt><trkpt lat="44.2631014" lon="9.84786"><ele>1017.0</ele><time>2026-04-26T12:08:02.837Z</time></trkpt><trkpt lat="44.263024" lon="9.847844"><ele>1017.0</ele><time>2026-04-26T12:08:03.837Z</time></trkpt><trkpt lat="44.2629503" lon="9.8478038"><ele>1015.6</ele><time>2026-04-26T12:08:04.837Z</time></trkpt><trkpt lat="44.2628712" lon="9.8477568"><ele>1014.2</ele><time>2026-04-26T12:08:05.838Z</time></trkpt><trkpt lat="44.2627742" lon="9.8477294"><ele>1012.8</ele><time>2026-04-26T12:08:06.838Z</time></trkpt><trkpt lat="44.2626727" lon="9.8477222"><ele>1011.4</ele><time>2026-04-26T12:08:07.837Z</time></trkpt><trkpt lat="44.2625738" lon="9.8477226"><ele>1010.0</ele><time>2026-04-26T12:08:08.837Z</time></trkpt><trkpt lat="44.2624787" lon="9.8477068"><ele>1010.0000000000001</ele><time>2026-04-26T12:08:09.837Z</time></trkpt><trkpt lat="44.2623961" lon="9.8476935"><ele>1010.0</ele><time>2026-04-26T12:08:10.837Z</time></trkpt><trkpt lat="44.2623221" lon="9.847696"><ele>1010.0</ele><time>2026-04-26T12:08:11.837Z</time></trkpt><trkpt lat="44.2622493" lon="9.847722"><ele>1010.0</ele><time>2026-04-26T12:08:12.838Z</time></trkpt><trkpt lat="44.2621768" lon="9.8477614"><ele>1010.0000000000001</ele><time>2026-04-26T12:08:13.837Z</time></trkpt><trkpt lat="44.2621106" lon="9.84783"><ele>1010.0</ele><time>2026-04-26T12:08:14.837Z</time></trkpt><trkpt lat="44.2620505" lon="9.8479193"><ele>1009.6666666666667</ele><time>2026-04-26T12:08:15.837Z</time></trkpt><trkpt lat="44.2620087" lon="9.8480223"><ele>1009.3333333333334</ele><time>2026-04-26T12:08:16.838Z</time></trkpt><trkpt lat="44.261975" lon="9.848114"><ele>1009.0</ele><time>2026-04-26T12:08:17.838Z</time></trkpt><trkpt lat="44.2619587" lon="9.8482217"><ele>1008.6666666666667</ele><time>2026-04-26T12:08:18.839Z</time></trkpt><trkpt lat="44.2619201" lon="9.8483306"><ele>1008.3333333333334</ele><time>2026-04-26T12:08:19.838Z</time></trkpt><trkpt lat="44.2618701" lon="9.8484314"><ele>1008.0</ele><time>2026-04-26T12:08:20.838Z</time></trkpt><trkpt lat="44.2618051" lon="9.8485254"><ele>1008.0</ele><time>2026-04-26T12:08:21.839Z</time></trkpt><trkpt lat="44.2617294" lon="9.8486046"><ele>1008.0</ele><time>2026-04-26T12:08:22.838Z</time></trkpt><trkpt lat="44.2616455" lon="9.8486577"><ele>1008.0</ele><time>2026-04-26T12:08:23.838Z</time></trkpt><trkpt lat="44.2615739" lon="9.8487307"><ele>1008.0</ele><time>2026-04-26T12:08:24.837Z</time></trkpt><trkpt lat="44.2615139" lon="9.8488095"><ele>1008.0</ele><time>2026-04-26T12:08:25.838Z</time></trkpt><trkpt lat="44.2614667" lon="9.8488983"><ele>1008.0</ele><time>2026-04-26T12:08:26.838Z</time></trkpt><trkpt lat="44.2614289" lon="9.8489894"><ele>1004.1666666666666</ele><time>2026-04-26T12:08:27.838Z</time></trkpt><trkpt lat="44.2613944" lon="9.8490796"><ele>1000.3333333333333</ele><time>2026-04-26T12:08:28.838Z</time></trkpt><trkpt lat="44.2613107" lon="9.8492162"><ele>996.5</ele><time>2026-04-26T12:08:30.837Z</time></trkpt><trkpt lat="44.2612575" lon="9.8492729"><ele>992.6666666666666</ele><time>2026-04-26T12:08:31.837Z</time></trkpt><trkpt lat="44.2611953" lon="9.8493347"><ele>988.8333333333333</ele><time>2026-04-26T12:08:32.837Z</time></trkpt><trkpt lat="44.2611425" lon="9.8494059"><ele>985.0</ele><time>2026-04-26T12:08:33.837Z</time></trkpt><trkpt lat="44.2611009" lon="9.849484"><ele>984.9999999999999</ele><time>2026-04-26T12:08:34.838Z</time></trkpt><trkpt lat="44.261068" lon="9.8495921"><ele>985.0</ele><time>2026-04-26T12:08:35.838Z</time></trkpt><trkpt lat="44.2610343" lon="9.8496947"><ele>985.0</ele><time>2026-04-26T12:08:36.838Z</time></trkpt><trkpt lat="44.2609953" lon="9.8497765"><ele>985.0</ele><time>2026-04-26T12:08:37.837Z</time></trkpt><trkpt lat="44.2609511" lon="9.8498542"><ele>984.9999999999999</ele><time>2026-04-26T12:08:38.838Z</time></trkpt><trkpt lat="44.2608921" lon="9.8499187"><ele>985.0</ele><time>2026-04-26T12:08:39.838Z</time></trkpt><trkpt lat="44.2608252" lon="9.8499641"><ele>984.9999999999999</ele><time>2026-04-26T12:08:40.837Z</time></trkpt><trkpt lat="44.2607404" lon="9.8499975"><ele>985.0</ele><time>2026-04-26T12:08:41.838Z</time></trkpt><trkpt lat="44.2606587" lon="9.8500113"><ele>985.0</ele><time>2026-04-26T12:08:42.837Z</time></trkpt><trkpt lat="44.2605671" lon="9.8500224"><ele>985.0</ele><time>2026-04-26T12:08:43.837Z</time></trkpt><trkpt lat="44.2604776" lon="9.8500329"><ele>984.9999999999999</ele><time>2026-04-26T12:08:44.837Z</time></trkpt><trkpt lat="44.2603927" lon="9.8500373"><ele>985.0</ele><time>2026-04-26T12:08:45.837Z</time></trkpt><trkpt lat="44.2602663" lon="9.8500318"><ele>981.9999999999999</ele><time>2026-04-26T12:08:47.837Z</time></trkpt><trkpt lat="44.2601918" lon="9.8500795"><ele>979.0</ele><time>2026-04-26T12:08:48.837Z</time></trkpt><trkpt lat="44.2601636" lon="9.850208"><ele>976.0</ele><time>2026-04-26T12:08:50.837Z</time></trkpt><trkpt lat="44.260156" lon="9.8503027"><ele>973.0</ele><time>2026-04-26T12:08:51.837Z</time></trkpt><trkpt lat="44.2601665" lon="9.8503938"><ele>969.9999999999999</ele><time>2026-04-26T12:08:52.838Z</time></trkpt><trkpt lat="44.2602417" lon="9.8505011"><ele>967.0</ele><time>2026-04-26T12:08:54.838Z</time></trkpt><trkpt lat="44.2603715" lon="9.8505227"><ele>966.6666666666666</ele><time>2026-04-26T12:08:56.837Z</time></trkpt><trkpt lat="44.2604397" lon="9.850507"><ele>966.3333333333333</ele><time>2026-04-26T12:08:57.837Z</time></trkpt><trkpt lat="44.2605123" lon="9.8504794"><ele>966.0</ele><time>2026-04-26T12:08:58.837Z</time></trkpt><trkpt lat="44.2605766" lon="9.8504684"><ele>965.6666666666667</ele><time>2026-04-26T12:08:59.837Z</time></trkpt><trkpt lat="44.2606886" lon="9.8504426"><ele>965.3333333333334</ele><time>2026-04-26T12:09:00.838Z</time></trkpt><trkpt lat="44.2607623" lon="9.8504098"><ele>965.0</ele><time>2026-04-26T12:09:01.837Z</time></trkpt><trkpt lat="44.2608407" lon="9.8503891"><ele>965.0000000000001</ele><time>2026-04-26T12:09:02.837Z</time></trkpt><trkpt lat="44.2609194" lon="9.8503773"><ele>965.0</ele><time>2026-04-26T12:09:03.837Z</time></trkpt><trkpt lat="44.2609834" lon="9.8504085"><ele>965.0</ele><time>2026-04-26T12:09:04.837Z</time></trkpt><trkpt lat="44.2610673" lon="9.8504499"><ele>965.0</ele><time>2026-04-26T12:09:05.837Z</time></trkpt><trkpt lat="44.2611477" lon="9.8505175"><ele>965.0000000000001</ele><time>2026-04-26T12:09:06.837Z</time></trkpt><trkpt lat="44.2612361" lon="9.8505981"><ele>965.0</ele><time>2026-04-26T12:09:07.837Z</time></trkpt><trkpt lat="44.2613158" lon="9.8506813"><ele>965.0000000000001</ele><time>2026-04-26T12:09:08.837Z</time></trkpt><trkpt lat="44.2613943" lon="9.8507642"><ele>965.0</ele><time>2026-04-26T12:09:09.837Z</time></trkpt><trkpt lat="44.2614677" lon="9.8508377"><ele>965.0</ele><time>2026-04-26T12:09:10.837Z</time></trkpt><trkpt lat="44.2615362" lon="9.8509014"><ele>965.0</ele><time>2026-04-26T12:09:11.838Z</time></trkpt><trkpt lat="44.2616026" lon="9.8509376"><ele>965.0000000000001</ele><time>2026-04-26T12:09:12.838Z</time></trkpt><trkpt lat="44.261683" lon="9.8509364"><ele>965.0</ele><time>2026-04-26T12:09:13.837Z</time></trkpt><trkpt lat="44.2617605" lon="9.8509093"><ele>966.1666666666667</ele><time>2026-04-26T12:09:14.838Z</time></trkpt><trkpt lat="44.2618244" lon="9.8508702"><ele>967.3333333333334</ele><time>2026-04-26T12:09:15.838Z</time></trkpt><trkpt lat="44.2618905" lon="9.8508284"><ele>968.5</ele><time>2026-04-26T12:09:16.837Z</time></trkpt><trkpt lat="44.2619757" lon="9.8508261"><ele>969.6666666666667</ele><time>2026-04-26T12:09:17.837Z</time></trkpt><trkpt lat="44.2620512" lon="9.8508106"><ele>970.8333333333334</ele><time>2026-04-26T12:09:18.837Z</time></trkpt><trkpt lat="44.2621545" lon="9.8508233"><ele>972.0</ele><time>2026-04-26T12:09:19.838Z</time></trkpt><trkpt lat="44.2622506" lon="9.8508274"><ele>970.8333333333334</ele><time>2026-04-26T12:09:20.837Z</time></trkpt><trkpt lat="44.2623269" lon="9.8508052"><ele>969.6666666666667</ele><time>2026-04-26T12:09:21.837Z</time></trkpt><trkpt lat="44.2623958" lon="9.8507899"><ele>968.5</ele><time>2026-04-26T12:09:22.838Z</time></trkpt><trkpt lat="44.2624687" lon="9.8507538"><ele>967.3333333333334</ele><time>2026-04-26T12:09:23.837Z</time></trkpt><trkpt lat="44.262541" lon="9.8506886"><ele>966.1666666666667</ele><time>2026-04-26T12:09:24.837Z</time></trkpt><trkpt lat="44.2626242" lon="9.8506066"><ele>965.0</ele><time>2026-04-26T12:09:25.838Z</time></trkpt><trkpt lat="44.2627009" lon="9.8505485"><ele>965.0000000000001</ele><time>2026-04-26T12:09:26.837Z</time></trkpt><trkpt lat="44.262763" lon="9.8504978"><ele>965.0</ele><time>2026-04-26T12:09:27.838Z</time></trkpt><trkpt lat="44.2628328" lon="9.85043"><ele>965.0</ele><time>2026-04-26T12:09:28.837Z</time></trkpt><trkpt lat="44.2628948" lon="9.8503535"><ele>965.0</ele><time>2026-04-26T12:09:29.837Z</time></trkpt><trkpt lat="44.2629528" lon="9.850281"><ele>965.0000000000001</ele><time>2026-04-26T12:09:30.837Z</time></trkpt><trkpt lat="44.2630057" lon="9.8502017"><ele>965.0</ele><time>2026-04-26T12:09:31.837Z</time></trkpt><trkpt lat="44.2630826" lon="9.8500842"><ele>966.1666666666667</ele><time>2026-04-26T12:09:33.837Z</time></trkpt><trkpt lat="44.2631822" lon="9.8500613"><ele>967.3333333333334</ele><time>2026-04-26T12:09:35.838Z</time></trkpt><trkpt lat="44.2632903" lon="9.8500934"><ele>968.5</ele><time>2026-04-26T12:09:37.837Z</time></trkpt><trkpt lat="44.2633755" lon="9.8501398"><ele>969.6666666666667</ele><time>2026-04-26T12:09:38.837Z</time></trkpt><trkpt lat="44.2634389" lon="9.8501662"><ele>970.8333333333334</ele><time>2026-04-26T12:09:39.837Z</time></trkpt><trkpt lat="44.2635184" lon="9.8501683"><ele>972.0</ele><time>2026-04-26T12:09:40.837Z</time></trkpt><trkpt lat="44.2635885" lon="9.850164"><ele>972.0</ele><time>2026-04-26T12:09:41.838Z</time></trkpt><trkpt lat="44.2636659" lon="9.8501279"><ele>972.0</ele><time>2026-04-26T12:09:42.839Z</time></trkpt><trkpt lat="44.2637098" lon="9.8500573"><ele>972.0</ele><time>2026-04-26T12:09:43.837Z</time></trkpt><trkpt lat="44.2637538" lon="9.8499841"><ele>972.0</ele><time>2026-04-26T12:09:44.838Z</time></trkpt><trkpt lat="44.2638208" lon="9.8498741"><ele>972.0</ele><time>2026-04-26T12:09:45.837Z</time></trkpt><trkpt lat="44.2638808" lon="9.8497692"><ele>972.0</ele><time>2026-04-26T12:09:46.837Z</time></trkpt><trkpt lat="44.2639392" lon="9.8496827"><ele>968.6</ele><time>2026-04-26T12:09:47.838Z</time></trkpt><trkpt lat="44.2639913" lon="9.8496256"><ele>965.2</ele><time>2026-04-26T12:09:48.837Z</time></trkpt><trkpt lat="44.2640871" lon="9.8495641"><ele>961.8</ele><time>2026-04-26T12:09:50.837Z</time></trkpt><trkpt lat="44.2641917" lon="9.8495327"><ele>958.4</ele><time>2026-04-26T12:09:52.837Z</time></trkpt><trkpt lat="44.264259" lon="9.8495336"><ele>955.0</ele><time>2026-04-26T12:09:53.837Z</time></trkpt><trkpt lat="44.2643976" lon="9.8495974"><ele>954.9999999999999</ele><time>2026-04-26T12:09:55.838Z</time></trkpt><trkpt lat="44.2645067" lon="9.8496443"><ele>955.0</ele><time>2026-04-26T12:09:57.837Z</time></trkpt><trkpt lat="44.2645655" lon="9.8497143"><ele>955.0</ele><time>2026-04-26T12:09:59.837Z</time></trkpt><trkpt lat="44.2645994" lon="9.8497999"><ele>955.0</ele><time>2026-04-26T12:10:01.837Z</time></trkpt><trkpt lat="44.2646037" lon="9.8499153"><ele>954.9999999999999</ele><time>2026-04-26T12:10:03.837Z</time></trkpt><trkpt lat="44.2645897" lon="9.8500427"><ele>955.0</ele><time>2026-04-26T12:10:05.837Z</time></trkpt><trkpt lat="44.2645755" lon="9.850186"><ele>952.6666666666666</ele><time>2026-04-26T12:10:07.837Z</time></trkpt><trkpt lat="44.264577" lon="9.8503448"><ele>950.3333333333333</ele><time>2026-04-26T12:10:09.838Z</time></trkpt><trkpt lat="44.2645977" lon="9.8504505"><ele>948.0</ele><time>2026-04-26T12:10:10.837Z</time></trkpt><trkpt lat="44.2646125" lon="9.8505475"><ele>945.6666666666667</ele><time>2026-04-26T12:10:11.837Z</time></trkpt><trkpt lat="44.2646176" lon="9.850645"><ele>943.3333333333334</ele><time>2026-04-26T12:10:12.837Z</time></trkpt><trkpt lat="44.2646006" lon="9.8507438"><ele>941.0</ele><time>2026-04-26T12:10:13.837Z</time></trkpt><trkpt lat="44.2645897" lon="9.8508505"><ele>941.0</ele><time>2026-04-26T12:10:14.837Z</time></trkpt><trkpt lat="44.2645519" lon="9.8509526"><ele>940.9999999999999</ele><time>2026-04-26T12:10:15.837Z</time></trkpt><trkpt lat="44.2645132" lon="9.8511301"><ele>940.9999999999999</ele><time>2026-04-26T12:10:16.837Z</time></trkpt><trkpt lat="44.2644982" lon="9.8512675"><ele>941.0</ele><time>2026-04-26T12:10:17.837Z</time></trkpt><trkpt lat="44.2644588" lon="9.8514153"><ele>941.0</ele><time>2026-04-26T12:10:18.837Z</time></trkpt><trkpt lat="44.2644116" lon="9.8515584"><ele>940.8</ele><time>2026-04-26T12:10:19.837Z</time></trkpt><trkpt lat="44.2643462" lon="9.8516942"><ele>940.5999999999999</ele><time>2026-04-26T12:10:20.837Z</time></trkpt><trkpt lat="44.2642798" lon="9.8518569"><ele>940.4</ele><time>2026-04-26T12:10:21.837Z</time></trkpt><trkpt lat="44.2642273" lon="9.8519852"><ele>940.2</ele><time>2026-04-26T12:10:22.837Z</time></trkpt><trkpt lat="44.2641944" lon="9.8520735"><ele>940.0</ele><time>2026-04-26T12:10:23.838Z</time></trkpt><trkpt lat="44.2641811" lon="9.8521872"><ele>939.8</ele><time>2026-04-26T12:10:24.838Z</time></trkpt><trkpt lat="44.2641591" lon="9.8522996"><ele>939.6</ele><time>2026-04-26T12:10:25.838Z</time></trkpt><trkpt lat="44.2642166" lon="9.8524096"><ele>939.4000000000001</ele><time>2026-04-26T12:10:26.838Z</time></trkpt><trkpt lat="44.2642265" lon="9.8525827"><ele>939.2</ele><time>2026-04-26T12:10:28.837Z</time></trkpt><trkpt lat="44.2642399" lon="9.8526825"><ele>939.0</ele><time>2026-04-26T12:10:29.837Z</time></trkpt><trkpt lat="44.2642372" lon="9.8527921"><ele>937.8000000000001</ele><time>2026-04-26T12:10:30.837Z</time></trkpt><trkpt lat="44.264228" lon="9.852907"><ele>936.6000000000001</ele><time>2026-04-26T12:10:31.837Z</time></trkpt><trkpt lat="44.2642063" lon="9.8530295"><ele>935.4</ele><time>2026-04-26T12:10:32.837Z</time></trkpt><trkpt lat="44.2641561" lon="9.8531585"><ele>934.2</ele><time>2026-04-26T12:10:33.837Z</time></trkpt><trkpt lat="44.2641097" lon="9.8532875"><ele>933.0</ele><time>2026-04-26T12:10:34.837Z</time></trkpt><trkpt lat="44.2640617" lon="9.8534149"><ele>931.8</ele><time>2026-04-26T12:10:35.837Z</time></trkpt><trkpt lat="44.2640086" lon="9.853537"><ele>930.5999999999999</ele><time>2026-04-26T12:10:36.837Z</time></trkpt><trkpt lat="44.2639593" lon="9.8536681"><ele>929.4000000000001</ele><time>2026-04-26T12:10:37.837Z</time></trkpt><trkpt lat="44.2639152" lon="9.8537917"><ele>928.2</ele><time>2026-04-26T12:10:38.837Z</time></trkpt><trkpt lat="44.263879" lon="9.8539318"><ele>927.0</ele><time>2026-04-26T12:10:39.837Z</time></trkpt><trkpt lat="44.2638276" lon="9.8540692"><ele>927.0</ele><time>2026-04-26T12:10:40.837Z</time></trkpt><trkpt lat="44.2637617" lon="9.8541806"><ele>927.0</ele><time>2026-04-26T12:10:41.837Z</time></trkpt><trkpt lat="44.2636948" lon="9.8542696"><ele>927.0</ele><time>2026-04-26T12:10:42.838Z</time></trkpt><trkpt lat="44.2636003" lon="9.8543366"><ele>927.0</ele><time>2026-04-26T12:10:43.838Z</time></trkpt><trkpt lat="44.2635082" lon="9.8543771"><ele>927.0</ele><time>2026-04-26T12:10:44.838Z</time></trkpt><trkpt lat="44.2634121" lon="9.8544263"><ele>926.4000000000001</ele><time>2026-04-26T12:10:45.836Z</time></trkpt><trkpt lat="44.2633438" lon="9.8544678"><ele>925.8000000000001</ele><time>2026-04-26T12:10:46.836Z</time></trkpt><trkpt lat="44.2632821" lon="9.8545654"><ele>925.2</ele><time>2026-04-26T12:10:47.837Z</time></trkpt><trkpt lat="44.263204" lon="9.8546508"><ele>924.6</ele><time>2026-04-26T12:10:48.836Z</time></trkpt><trkpt lat="44.2631351" lon="9.8547926"><ele>924.0</ele><time>2026-04-26T12:10:49.836Z</time></trkpt><trkpt lat="44.2630464" lon="9.8549261"><ele>924.0</ele><time>2026-04-26T12:10:50.836Z</time></trkpt><trkpt lat="44.2629396" lon="9.8550625"><ele>924.0</ele><time>2026-04-26T12:10:51.836Z</time></trkpt><trkpt lat="44.262829" lon="9.855139"><ele>924.0</ele><time>2026-04-26T12:10:52.836Z</time></trkpt><trkpt lat="44.2627241" lon="9.8552414"><ele>924.0</ele><time>2026-04-26T12:10:53.837Z</time></trkpt><trkpt lat="44.2626161" lon="9.8553395"><ele>930.0</ele><time>2026-04-26T12:10:54.837Z</time></trkpt><trkpt lat="44.2625563" lon="9.8554284"><ele>936.0</ele><time>2026-04-26T12:10:55.837Z</time></trkpt><trkpt lat="44.2624808" lon="9.8555334"><ele>942.0</ele><time>2026-04-26T12:10:56.836Z</time></trkpt><trkpt lat="44.2623928" lon="9.8556765"><ele>948.0</ele><time>2026-04-26T12:10:57.837Z</time></trkpt><trkpt lat="44.2623116" lon="9.8558109"><ele>943.8</ele><time>2026-04-26T12:10:58.837Z</time></trkpt><trkpt lat="44.2622468" lon="9.8559359"><ele>939.5999999999999</ele><time>2026-04-26T12:10:59.837Z</time></trkpt><trkpt lat="44.2621881" lon="9.8560617"><ele>935.4000000000001</ele><time>2026-04-26T12:11:00.836Z</time></trkpt><trkpt lat="44.262144" lon="9.8562036"><ele>931.2</ele><time>2026-04-26T12:11:01.836Z</time></trkpt><trkpt lat="44.2621005" lon="9.8563371"><ele>927.0</ele><time>2026-04-26T12:11:02.836Z</time></trkpt><trkpt lat="44.2620589" lon="9.8564589"><ele>927.0</ele><time>2026-04-26T12:11:03.837Z</time></trkpt><trkpt lat="44.2620054" lon="9.8565573"><ele>927.0</ele><time>2026-04-26T12:11:04.837Z</time></trkpt><trkpt lat="44.2619423" lon="9.8566581"><ele>927.0</ele><time>2026-04-26T12:11:05.836Z</time></trkpt><trkpt lat="44.261867" lon="9.8567809"><ele>927.0</ele><time>2026-04-26T12:11:06.837Z</time></trkpt><trkpt lat="44.2617728" lon="9.8568842"><ele>927.0</ele><time>2026-04-26T12:11:07.836Z</time></trkpt><trkpt lat="44.2616911" lon="9.8569821"><ele>929.0</ele><time>2026-04-26T12:11:08.836Z</time></trkpt><trkpt lat="44.2616235" lon="9.857068"><ele>931.0</ele><time>2026-04-26T12:11:09.836Z</time></trkpt><trkpt lat="44.2615455" lon="9.8571529"><ele>933.0</ele><time>2026-04-26T12:11:10.836Z</time></trkpt><trkpt lat="44.2614734" lon="9.8572206"><ele>935.0</ele><time>2026-04-26T12:11:11.836Z</time></trkpt><trkpt lat="44.2614113" lon="9.8572904"><ele>937.0</ele><time>2026-04-26T12:11:12.836Z</time></trkpt><trkpt lat="44.2613508" lon="9.8573654"><ele>939.0</ele><time>2026-04-26T12:11:13.836Z</time></trkpt><trkpt lat="44.2613441" lon="9.8574715"><ele>936.2</ele><time>2026-04-26T12:11:14.836Z</time></trkpt><trkpt lat="44.2613334" lon="9.8576429"><ele>933.4000000000001</ele><time>2026-04-26T12:11:16.837Z</time></trkpt><trkpt lat="44.2613732" lon="9.8577419"><ele>930.6</ele><time>2026-04-26T12:11:17.836Z</time></trkpt><trkpt lat="44.2614242" lon="9.8578532"><ele>927.8</ele><time>2026-04-26T12:11:18.837Z</time></trkpt><trkpt lat="44.2614769" lon="9.8579572"><ele>925.0</ele><time>2026-04-26T12:11:19.836Z</time></trkpt><trkpt lat="44.2615246" lon="9.8580578"><ele>924.9999999999999</ele><time>2026-04-26T12:11:20.836Z</time></trkpt><trkpt lat="44.2615785" lon="9.8581599"><ele>925.0</ele><time>2026-04-26T12:11:21.836Z</time></trkpt><trkpt lat="44.2616074" lon="9.8582788"><ele>925.0</ele><time>2026-04-26T12:11:22.836Z</time></trkpt><trkpt lat="44.261607" lon="9.8583736"><ele>925.0</ele><time>2026-04-26T12:11:23.836Z</time></trkpt><trkpt lat="44.26159" lon="9.8584711"><ele>924.9999999999999</ele><time>2026-04-26T12:11:24.837Z</time></trkpt><trkpt lat="44.2615652" lon="9.8585542"><ele>925.0</ele><time>2026-04-26T12:11:25.836Z</time></trkpt><trkpt lat="44.2615329" lon="9.8586382"><ele>923.4999999999999</ele><time>2026-04-26T12:11:26.836Z</time></trkpt><trkpt lat="44.26149" lon="9.8587219"><ele>922.0</ele><time>2026-04-26T12:11:27.836Z</time></trkpt><trkpt lat="44.2614585" lon="9.8588025"><ele>920.5</ele><time>2026-04-26T12:11:28.836Z</time></trkpt><trkpt lat="44.2614596" lon="9.8589789"><ele>919.0</ele><time>2026-04-26T12:11:30.836Z</time></trkpt><trkpt lat="44.261505" lon="9.8590743"><ele>917.4999999999999</ele><time>2026-04-26T12:11:32.836Z</time></trkpt><trkpt lat="44.2615861" lon="9.8591579"><ele>916.0</ele><time>2026-04-26T12:11:34.836Z</time></trkpt><trkpt lat="44.2616833" lon="9.8591372"><ele>916.0</ele><time>2026-04-26T12:11:35.838Z</time></trkpt><trkpt lat="44.2617562" lon="9.8591081"><ele>915.9999999999999</ele><time>2026-04-26T12:11:36.838Z</time></trkpt><trkpt lat="44.2618285" lon="9.8590759"><ele>915.9999999999999</ele><time>2026-04-26T12:11:37.838Z</time></trkpt><trkpt lat="44.2619372" lon="9.8589933"><ele>916.0</ele><time>2026-04-26T12:11:39.837Z</time></trkpt><trkpt lat="44.2620036" lon="9.8589544"><ele>916.0</ele><time>2026-04-26T12:11:40.837Z</time></trkpt><trkpt lat="44.262099" lon="9.8588202"><ele>915.9999999999999</ele><time>2026-04-26T12:11:42.837Z</time></trkpt><trkpt lat="44.2621415" lon="9.8587274"><ele>916.0</ele><time>2026-04-26T12:11:43.837Z</time></trkpt><trkpt lat="44.2621922" lon="9.8586344"><ele>916.0</ele><time>2026-04-26T12:11:44.837Z</time></trkpt><trkpt lat="44.2622969" lon="9.8585545"><ele>916.0</ele><time>2026-04-26T12:11:46.837Z</time></trkpt><trkpt lat="44.2623706" lon="9.8585167"><ele>915.9999999999999</ele><time>2026-04-26T12:11:47.836Z</time></trkpt><trkpt lat="44.2624406" lon="9.8585051"><ele>916.0</ele><time>2026-04-26T12:11:48.836Z</time></trkpt><trkpt lat="44.2625126" lon="9.8584824"><ele>918.8</ele><time>2026-04-26T12:11:49.836Z</time></trkpt><trkpt lat="44.2626356" lon="9.8585174"><ele>921.5999999999999</ele><time>2026-04-26T12:11:50.836Z</time></trkpt><trkpt lat="44.2627272" lon="9.8584945"><ele>924.4</ele><time>2026-04-26T12:11:51.837Z</time></trkpt><trkpt lat="44.2628056" lon="9.858465"><ele>927.2</ele><time>2026-04-26T12:11:52.836Z</time></trkpt><trkpt lat="44.2628738" lon="9.8584309"><ele>930.0</ele><time>2026-04-26T12:11:53.837Z</time></trkpt><trkpt lat="44.2629956" lon="9.8583841"><ele>924.25</ele><time>2026-04-26T12:11:55.837Z</time></trkpt><trkpt lat="44.2631613" lon="9.8584473"><ele>918.5</ele><time>2026-04-26T12:11:57.837Z</time></trkpt><trkpt lat="44.2632414" lon="9.8584807"><ele>912.75</ele><time>2026-04-26T12:11:58.837Z</time></trkpt><trkpt lat="44.2633224" lon="9.8585247"><ele>907.0</ele><time>2026-04-26T12:11:59.836Z</time></trkpt><trkpt lat="44.2634535" lon="9.8585293"><ele>907.0</ele><time>2026-04-26T12:12:01.836Z</time></trkpt><trkpt lat="44.2635036" lon="9.858408"><ele>907.0</ele><time>2026-04-26T12:12:03.836Z</time></trkpt><trkpt lat="44.2634914" lon="9.8582776"><ele>907.0</ele><time>2026-04-26T12:12:05.836Z</time></trkpt><trkpt lat="44.2634128" lon="9.8581485"><ele>907.0</ele><time>2026-04-26T12:12:07.836Z</time></trkpt><trkpt lat="44.2633595" lon="9.8580817"><ele>907.0</ele><time>2026-04-26T12:12:08.836Z</time></trkpt><trkpt lat="44.263316" lon="9.8580136"><ele>906.9999999999999</ele><time>2026-04-26T12:12:09.836Z</time></trkpt><trkpt lat="44.2632786" lon="9.8578569"><ele>907.0</ele><time>2026-04-26T12:12:11.836Z</time></trkpt><trkpt lat="44.2632754" lon="9.8577589"><ele>907.0</ele><time>2026-04-26T12:12:12.837Z</time></trkpt><trkpt lat="44.2632768" lon="9.8576559"><ele>907.0</ele><time>2026-04-26T12:12:13.838Z</time></trkpt><trkpt lat="44.2632865" lon="9.8575574"><ele>906.9999999999999</ele><time>2026-04-26T12:12:14.837Z</time></trkpt><trkpt lat="44.263312" lon="9.857456"><ele>907.0</ele><time>2026-04-26T12:12:15.837Z</time></trkpt><trkpt lat="44.2633335" lon="9.8573547"><ele>908.3333333333333</ele><time>2026-04-26T12:12:16.836Z</time></trkpt><trkpt lat="44.2633535" lon="9.8572628"><ele>909.6666666666666</ele><time>2026-04-26T12:12:17.836Z</time></trkpt><trkpt lat="44.2633835" lon="9.857166"><ele>911.0</ele><time>2026-04-26T12:12:18.836Z</time></trkpt><trkpt lat="44.2634073" lon="9.8570676"><ele>912.3333333333333</ele><time>2026-04-26T12:12:19.836Z</time></trkpt><trkpt lat="44.2634681" lon="9.8569429"><ele>913.6666666666666</ele><time>2026-04-26T12:12:20.836Z</time></trkpt><trkpt lat="44.263507" lon="9.8568241"><ele>915.0</ele><time>2026-04-26T12:12:21.836Z</time></trkpt><trkpt lat="44.2635367" lon="9.8567214"><ele>916.0</ele><time>2026-04-26T12:12:22.836Z</time></trkpt><trkpt lat="44.26352" lon="9.8566224"><ele>917.0</ele><time>2026-04-26T12:12:23.836Z</time></trkpt><trkpt lat="44.2635243" lon="9.8565204"><ele>918.0</ele><time>2026-04-26T12:12:24.837Z</time></trkpt><trkpt lat="44.2634745" lon="9.8563709"><ele>919.0</ele><time>2026-04-26T12:12:26.837Z</time></trkpt><trkpt lat="44.2634562" lon="9.8562369"><ele>920.0</ele><time>2026-04-26T12:12:28.836Z</time></trkpt><trkpt lat="44.2635095" lon="9.8560795"><ele>920.0</ele><time>2026-04-26T12:12:30.837Z</time></trkpt><trkpt lat="44.2635504" lon="9.8559684"><ele>920.0</ele><time>2026-04-26T12:12:31.836Z</time></trkpt><trkpt lat="44.2636091" lon="9.8558508"><ele>920.0</ele><time>2026-04-26T12:12:32.836Z</time></trkpt><trkpt lat="44.2636766" lon="9.855745"><ele>920.0</ele><time>2026-04-26T12:12:33.837Z</time></trkpt><trkpt lat="44.2637463" lon="9.8556512"><ele>920.0</ele><time>2026-04-26T12:12:34.836Z</time></trkpt><trkpt lat="44.2638141" lon="9.8555532"><ele>923.4</ele><time>2026-04-26T12:12:35.836Z</time></trkpt><trkpt lat="44.2638689" lon="9.8554494"><ele>926.8</ele><time>2026-04-26T12:12:36.836Z</time></trkpt><trkpt lat="44.2639329" lon="9.8553602"><ele>930.2</ele><time>2026-04-26T12:12:37.836Z</time></trkpt><trkpt lat="44.2639996" lon="9.8552627"><ele>933.6</ele><time>2026-04-26T12:12:38.837Z</time></trkpt><trkpt lat="44.264061" lon="9.8551718"><ele>937.0</ele><time>2026-04-26T12:12:39.836Z</time></trkpt><trkpt lat="44.2641405" lon="9.8551229"><ele>931.4999999999999</ele><time>2026-04-26T12:12:40.836Z</time></trkpt><trkpt lat="44.2641953" lon="9.8550616"><ele>926.0</ele><time>2026-04-26T12:12:41.836Z</time></trkpt><trkpt lat="44.2642394" lon="9.8549945"><ele>920.5</ele><time>2026-04-26T12:12:42.836Z</time></trkpt><trkpt lat="44.2642991" lon="9.8549284"><ele>915.0</ele><time>2026-04-26T12:12:43.836Z</time></trkpt><trkpt lat="44.2643428" lon="9.8548516"><ele>909.4999999999999</ele><time>2026-04-26T12:12:44.837Z</time></trkpt><trkpt lat="44.2643674" lon="9.8547701"><ele>904.0</ele><time>2026-04-26T12:12:45.836Z</time></trkpt><trkpt lat="44.2644021" lon="9.8546257"><ele>903.9999999999999</ele><time>2026-04-26T12:12:47.837Z</time></trkpt><trkpt lat="44.2645041" lon="9.8545052"><ele>904.0</ele><time>2026-04-26T12:12:49.837Z</time></trkpt><trkpt lat="44.2645606" lon="9.8544434"><ele>904.0</ele><time>2026-04-26T12:12:50.837Z</time></trkpt><trkpt lat="44.2645963" lon="9.8543667"><ele>904.0</ele><time>2026-04-26T12:12:51.837Z</time></trkpt><trkpt lat="44.2646482" lon="9.8542815"><ele>903.9999999999999</ele><time>2026-04-26T12:12:52.837Z</time></trkpt><trkpt lat="44.2646931" lon="9.8541778"><ele>904.0</ele><time>2026-04-26T12:12:53.836Z</time></trkpt><trkpt lat="44.2647359" lon="9.8540822"><ele>907.3333333333333</ele><time>2026-04-26T12:12:54.837Z</time></trkpt><trkpt lat="44.2647695" lon="9.853983"><ele>910.6666666666666</ele><time>2026-04-26T12:12:55.837Z</time></trkpt><trkpt lat="44.264805" lon="9.8538835"><ele>914.0</ele><time>2026-04-26T12:12:56.837Z</time></trkpt><trkpt lat="44.2648336" lon="9.853787"><ele>917.3333333333333</ele><time>2026-04-26T12:12:57.837Z</time></trkpt><trkpt lat="44.2648864" lon="9.8536253"><ele>920.6666666666666</ele><time>2026-04-26T12:12:59.837Z</time></trkpt><trkpt lat="44.2649303" lon="9.8535407"><ele>924.0</ele><time>2026-04-26T12:13:00.837Z</time></trkpt><trkpt lat="44.2649867" lon="9.8534863"><ele>920.5</ele><time>2026-04-26T12:13:01.837Z</time></trkpt><trkpt lat="44.2650533" lon="9.8534538"><ele>917.0</ele><time>2026-04-26T12:13:02.838Z</time></trkpt><trkpt lat="44.2651207" lon="9.8534187"><ele>913.5</ele><time>2026-04-26T12:13:03.837Z</time></trkpt><trkpt lat="44.265189" lon="9.8534096"><ele>910.0</ele><time>2026-04-26T12:13:04.838Z</time></trkpt><trkpt lat="44.265259" lon="9.8534114"><ele>906.5</ele><time>2026-04-26T12:13:05.837Z</time></trkpt><trkpt lat="44.265327" lon="9.8534104"><ele>903.0</ele><time>2026-04-26T12:13:06.837Z</time></trkpt><trkpt lat="44.2654311" lon="9.8534281"><ele>903.0</ele><time>2026-04-26T12:13:07.836Z</time></trkpt><trkpt lat="44.2655143" lon="9.8534263"><ele>903.0</ele><time>2026-04-26T12:13:08.836Z</time></trkpt><trkpt lat="44.2655884" lon="9.8534103"><ele>903.0</ele><time>2026-04-26T12:13:09.836Z</time></trkpt><trkpt lat="44.2656633" lon="9.8533875"><ele>903.0</ele><time>2026-04-26T12:13:10.836Z</time></trkpt><trkpt lat="44.2657447" lon="9.8533657"><ele>903.0</ele><time>2026-04-26T12:13:11.836Z</time></trkpt><trkpt lat="44.2657913" lon="9.8532981"><ele>903.0</ele><time>2026-04-26T12:13:12.836Z</time></trkpt><trkpt lat="44.2658543" lon="9.8532377"><ele>897.0</ele><time>2026-04-26T12:13:13.836Z</time></trkpt><trkpt lat="44.26591" lon="9.8531756"><ele>891.0</ele><time>2026-04-26T12:13:14.836Z</time></trkpt><trkpt lat="44.2659662" lon="9.853117"><ele>885.0</ele><time>2026-04-26T12:13:15.836Z</time></trkpt><trkpt lat="44.2660226" lon="9.8530627"><ele>879.0</ele><time>2026-04-26T12:13:16.837Z</time></trkpt><trkpt lat="44.2661292" lon="9.8529816"><ele>873.0</ele><time>2026-04-26T12:13:18.837Z</time></trkpt><trkpt lat="44.2662013" lon="9.8529582"><ele>867.0</ele><time>2026-04-26T12:13:19.837Z</time></trkpt><trkpt lat="44.2662742" lon="9.8529248"><ele>867.0</ele><time>2026-04-26T12:13:20.836Z</time></trkpt><trkpt lat="44.2663763" lon="9.8529005"><ele>867.0</ele><time>2026-04-26T12:13:22.837Z</time></trkpt><trkpt lat="44.2664874" lon="9.8529433"><ele>867.0</ele><time>2026-04-26T12:13:24.836Z</time></trkpt><trkpt lat="44.2665785" lon="9.8530628"><ele>867.0</ele><time>2026-04-26T12:13:26.837Z</time></trkpt><trkpt lat="44.2666546" lon="9.8532182"><ele>866.6666666666666</ele><time>2026-04-26T12:13:28.837Z</time></trkpt><trkpt lat="44.266697" lon="9.8532975"><ele>866.3333333333333</ele><time>2026-04-26T12:13:29.837Z</time></trkpt><trkpt lat="44.266771" lon="9.8533881"><ele>866.0</ele><time>2026-04-26T12:13:30.837Z</time></trkpt><trkpt lat="44.266814" lon="9.8534723"><ele>865.6666666666666</ele><time>2026-04-26T12:13:31.837Z</time></trkpt><trkpt lat="44.2668465" lon="9.8535694"><ele>865.3333333333333</ele><time>2026-04-26T12:13:32.837Z</time></trkpt><trkpt lat="44.2668672" lon="9.8536638"><ele>865.0</ele><time>2026-04-26T12:13:33.838Z</time></trkpt><trkpt lat="44.2668831" lon="9.853764"><ele>859.4999999999999</ele><time>2026-04-26T12:13:34.836Z</time></trkpt><trkpt lat="44.2668902" lon="9.8538778"><ele>854.0</ele><time>2026-04-26T12:13:35.837Z</time></trkpt><trkpt lat="44.2669048" lon="9.8539941"><ele>848.5</ele><time>2026-04-26T12:13:36.837Z</time></trkpt><trkpt lat="44.2669258" lon="9.8541001"><ele>843.0</ele><time>2026-04-26T12:13:37.837Z</time></trkpt><trkpt lat="44.2669611" lon="9.8542064"><ele>837.4999999999999</ele><time>2026-04-26T12:13:38.837Z</time></trkpt><trkpt lat="44.2670008" lon="9.8543053"><ele>832.0</ele><time>2026-04-26T12:13:39.837Z</time></trkpt><trkpt lat="44.2670526" lon="9.8543892"><ele>831.6666666666666</ele><time>2026-04-26T12:13:40.837Z</time></trkpt><trkpt lat="44.2671094" lon="9.8544751"><ele>831.3333333333333</ele><time>2026-04-26T12:13:41.837Z</time></trkpt><trkpt lat="44.2671695" lon="9.8545461"><ele>831.0</ele><time>2026-04-26T12:13:42.836Z</time></trkpt><trkpt lat="44.2672324" lon="9.8546187"><ele>830.6666666666667</ele><time>2026-04-26T12:13:43.836Z</time></trkpt><trkpt lat="44.2673055" lon="9.8546756"><ele>830.3333333333334</ele><time>2026-04-26T12:13:44.836Z</time></trkpt><trkpt lat="44.2673863" lon="9.8547209"><ele>830.0</ele><time>2026-04-26T12:13:45.836Z</time></trkpt><trkpt lat="44.2674556" lon="9.8547545"><ele>830.0000000000001</ele><time>2026-04-26T12:13:46.836Z</time></trkpt><trkpt lat="44.26751" lon="9.8548002"><ele>830.0</ele><time>2026-04-26T12:13:47.836Z</time></trkpt><trkpt lat="44.2675701" lon="9.8548437"><ele>830.0</ele><time>2026-04-26T12:13:48.836Z</time></trkpt><trkpt lat="44.2676304" lon="9.8548849"><ele>830.0</ele><time>2026-04-26T12:13:49.836Z</time></trkpt><trkpt lat="44.2676897" lon="9.854923"><ele>830.0000000000001</ele><time>2026-04-26T12:13:50.837Z</time></trkpt><trkpt lat="44.2677981" lon="9.8550071"><ele>830.0</ele><time>2026-04-26T12:13:52.836Z</time></trkpt><trkpt lat="44.2678981" lon="9.8549706"><ele>830.0000000000001</ele><time>2026-04-26T12:13:54.836Z</time></trkpt><trkpt lat="44.2679912" lon="9.8548643"><ele>830.0</ele><time>2026-04-26T12:13:56.836Z</time></trkpt><trkpt lat="44.2680403" lon="9.8547971"><ele>830.0</ele><time>2026-04-26T12:13:57.837Z</time></trkpt><trkpt lat="44.2680912" lon="9.8547215"><ele>830.0</ele><time>2026-04-26T12:13:58.837Z</time></trkpt><trkpt lat="44.2681529" lon="9.8546529"><ele>830.0000000000001</ele><time>2026-04-26T12:13:59.836Z</time></trkpt><trkpt lat="44.2682112" lon="9.8546059"><ele>830.0</ele><time>2026-04-26T12:14:00.836Z</time></trkpt><trkpt lat="44.2682755" lon="9.8545602"><ele>829.1428571428571</ele><time>2026-04-26T12:14:01.836Z</time></trkpt><trkpt lat="44.2683427" lon="9.8545133"><ele>828.2857142857143</ele><time>2026-04-26T12:14:02.836Z</time></trkpt><trkpt lat="44.2684141" lon="9.8544688"><ele>827.4285714285713</ele><time>2026-04-26T12:14:03.836Z</time></trkpt><trkpt lat="44.2684863" lon="9.854402"><ele>826.5714285714286</ele><time>2026-04-26T12:14:04.836Z</time></trkpt><trkpt lat="44.2685269" lon="9.8543233"><ele>825.7142857142857</ele><time>2026-04-26T12:14:05.837Z</time></trkpt><trkpt lat="44.2685864" lon="9.8542792"><ele>824.8571428571428</ele><time>2026-04-26T12:14:06.837Z</time></trkpt><trkpt lat="44.2686562" lon="9.8542682"><ele>824.0</ele><time>2026-04-26T12:14:07.836Z</time></trkpt><trkpt lat="44.2687293" lon="9.854284"><ele>822.5714285714286</ele><time>2026-04-26T12:14:08.836Z</time></trkpt><trkpt lat="44.2687932" lon="9.8542812"><ele>821.1428571428571</ele><time>2026-04-26T12:14:09.836Z</time></trkpt><trkpt lat="44.2688603" lon="9.8542738"><ele>819.7142857142858</ele><time>2026-04-26T12:14:10.836Z</time></trkpt><trkpt lat="44.2689326" lon="9.8542592"><ele>818.2857142857142</ele><time>2026-04-26T12:14:11.837Z</time></trkpt><trkpt lat="44.2689476" lon="9.854169"><ele>816.8571428571429</ele><time>2026-04-26T12:14:12.837Z</time></trkpt><trkpt lat="44.2689585" lon="9.85407"><ele>815.4285714285714</ele><time>2026-04-26T12:14:13.836Z</time></trkpt><trkpt lat="44.26898" lon="9.8539776"><ele>814.0</ele><time>2026-04-26T12:14:14.836Z</time></trkpt><trkpt lat="44.2690076" lon="9.8538975"><ele>813.9999999999999</ele><time>2026-04-26T12:14:15.836Z</time></trkpt><trkpt lat="44.2690199" lon="9.8538075"><ele>814.0</ele><time>2026-04-26T12:14:16.836Z</time></trkpt><trkpt lat="44.2690261" lon="9.8537028"><ele>814.0</ele><time>2026-04-26T12:14:17.837Z</time></trkpt><trkpt lat="44.2690282" lon="9.8536054"><ele>814.0</ele><time>2026-04-26T12:14:18.837Z</time></trkpt><trkpt lat="44.2690321" lon="9.8534954"><ele>813.9999999999999</ele><time>2026-04-26T12:14:19.837Z</time></trkpt><trkpt lat="44.2690354" lon="9.8534056"><ele>814.0</ele><time>2026-04-26T12:14:20.836Z</time></trkpt><trkpt lat="44.2690904" lon="9.8532555"><ele>817.4999999999999</ele><time>2026-04-26T12:14:22.836Z</time></trkpt><trkpt lat="44.2691442" lon="9.853199"><ele>821.0</ele><time>2026-04-26T12:14:23.837Z</time></trkpt><trkpt lat="44.2692442" lon="9.8531288"><ele>824.5</ele><time>2026-04-26T12:14:25.838Z</time></trkpt><trkpt lat="44.2693145" lon="9.8531251"><ele>828.0</ele><time>2026-04-26T12:14:26.836Z</time></trkpt><trkpt lat="44.2693957" lon="9.8531561"><ele>831.4999999999999</ele><time>2026-04-26T12:14:27.837Z</time></trkpt><trkpt lat="44.2694712" lon="9.853214"><ele>835.0</ele><time>2026-04-26T12:14:28.837Z</time></trkpt><trkpt lat="44.2695501" lon="9.8532859"><ele>835.0</ele><time>2026-04-26T12:14:29.837Z</time></trkpt><trkpt lat="44.2696224" lon="9.85337"><ele>835.0</ele><time>2026-04-26T12:14:30.836Z</time></trkpt><trkpt lat="44.2696996" lon="9.8534582"><ele>835.0</ele><time>2026-04-26T12:14:31.836Z</time></trkpt><trkpt lat="44.2697682" lon="9.8535446"><ele>835.0</ele><time>2026-04-26T12:14:32.836Z</time></trkpt><trkpt lat="44.2698296" lon="9.8536343"><ele>835.0</ele><time>2026-04-26T12:14:33.836Z</time></trkpt><trkpt lat="44.2699422" lon="9.8536652"><ele>833.4</ele><time>2026-04-26T12:14:35.836Z</time></trkpt><trkpt lat="44.270024" lon="9.8536433"><ele>831.8</ele><time>2026-04-26T12:14:36.836Z</time></trkpt><trkpt lat="44.2700989" lon="9.8536197"><ele>830.2</ele><time>2026-04-26T12:14:37.836Z</time></trkpt><trkpt lat="44.2701645" lon="9.8534646"><ele>828.6</ele><time>2026-04-26T12:14:38.836Z</time></trkpt><trkpt lat="44.2702228" lon="9.8534038"><ele>827.0</ele><time>2026-04-26T12:14:39.837Z</time></trkpt><trkpt lat="44.270327" lon="9.8533194"><ele>827.0</ele><time>2026-04-26T12:14:41.835Z</time></trkpt><trkpt lat="44.2704267" lon="9.8533174"><ele>827.0</ele><time>2026-04-26T12:14:43.836Z</time></trkpt><trkpt lat="44.2705267" lon="9.8534139"><ele>827.0</ele><time>2026-04-26T12:14:45.835Z</time></trkpt><trkpt lat="44.2705678" lon="9.8534989"><ele>827.0</ele><time>2026-04-26T12:14:46.835Z</time></trkpt><trkpt lat="44.2706119" lon="9.8536022"><ele>827.0</ele><time>2026-04-26T12:14:47.835Z</time></trkpt><trkpt lat="44.2706585" lon="9.8536977"><ele>820.1666666666667</ele><time>2026-04-26T12:14:48.836Z</time></trkpt><trkpt lat="44.2707126" lon="9.8537707"><ele>813.3333333333334</ele><time>2026-04-26T12:14:49.835Z</time></trkpt><trkpt lat="44.2707617" lon="9.8538448"><ele>806.5</ele><time>2026-04-26T12:14:50.836Z</time></trkpt><trkpt lat="44.2708367" lon="9.8538853"><ele>799.6666666666667</ele><time>2026-04-26T12:14:51.836Z</time></trkpt><trkpt lat="44.2709327" lon="9.8539005"><ele>792.8333333333334</ele><time>2026-04-26T12:14:52.836Z</time></trkpt><trkpt lat="44.2709985" lon="9.8539225"><ele>786.0</ele><time>2026-04-26T12:14:53.835Z</time></trkpt><trkpt lat="44.2710624" lon="9.8539351"><ele>786.0</ele><time>2026-04-26T12:14:54.835Z</time></trkpt><trkpt lat="44.271133" lon="9.8539604"><ele>786.0</ele><time>2026-04-26T12:14:55.835Z</time></trkpt><trkpt lat="44.2712032" lon="9.8539865"><ele>786.0</ele><time>2026-04-26T12:14:56.835Z</time></trkpt><trkpt lat="44.2712738" lon="9.8540455"><ele>786.0</ele><time>2026-04-26T12:14:57.835Z</time></trkpt><trkpt lat="44.2713908" lon="9.8541688"><ele>786.0</ele><time>2026-04-26T12:14:59.836Z</time></trkpt><trkpt lat="44.2714406" lon="9.854245"><ele>786.0</ele><time>2026-04-26T12:15:00.836Z</time></trkpt><trkpt lat="44.2714966" lon="9.8543152"><ele>787.6666666666666</ele><time>2026-04-26T12:15:01.835Z</time></trkpt><trkpt lat="44.2715487" lon="9.8543727"><ele>789.3333333333333</ele><time>2026-04-26T12:15:02.836Z</time></trkpt><trkpt lat="44.2716027" lon="9.8544216"><ele>791.0</ele><time>2026-04-26T12:15:03.837Z</time></trkpt><trkpt lat="44.2716607" lon="9.8543843"><ele>792.6666666666666</ele><time>2026-04-26T12:15:04.835Z</time></trkpt><trkpt lat="44.2717599" lon="9.8543352"><ele>794.3333333333333</ele><time>2026-04-26T12:15:06.835Z</time></trkpt><trkpt lat="44.2718192" lon="9.8542972"><ele>796.0</ele><time>2026-04-26T12:15:07.835Z</time></trkpt><trkpt lat="44.2718447" lon="9.8541724"><ele>796.0</ele><time>2026-04-26T12:15:08.836Z</time></trkpt><trkpt lat="44.2718411" lon="9.8540483"><ele>796.0</ele><time>2026-04-26T12:15:09.836Z</time></trkpt><trkpt lat="44.2718827" lon="9.8538735"><ele>796.0</ele><time>2026-04-26T12:15:11.836Z</time></trkpt><trkpt lat="44.2719526" lon="9.8537769"><ele>796.0</ele><time>2026-04-26T12:15:12.836Z</time></trkpt><trkpt lat="44.2720153" lon="9.853667"><ele>796.0</ele><time>2026-04-26T12:15:13.835Z</time></trkpt><trkpt lat="44.2720746" lon="9.8535771"><ele>796.0</ele><time>2026-04-26T12:15:14.835Z</time></trkpt><trkpt lat="44.2721227" lon="9.8535056"><ele>796.0</ele><time>2026-04-26T12:15:15.835Z</time></trkpt><trkpt lat="44.2722033" lon="9.853405"><ele>796.0</ele><time>2026-04-26T12:15:17.836Z</time></trkpt><trkpt lat="44.2722971" lon="9.8534765"><ele>796.0</ele><time>2026-04-26T12:15:18.835Z</time></trkpt><trkpt lat="44.2723754" lon="9.8534835"><ele>796.0</ele><time>2026-04-26T12:15:19.836Z</time></trkpt><trkpt lat="44.2724607" lon="9.8535022"><ele>790.8333333333333</ele><time>2026-04-26T12:15:20.835Z</time></trkpt><trkpt lat="44.2725666" lon="9.8535472"><ele>785.6666666666666</ele><time>2026-04-26T12:15:21.835Z</time></trkpt><trkpt lat="44.272648" lon="9.8535608"><ele>780.5</ele><time>2026-04-26T12:15:22.835Z</time></trkpt><trkpt lat="44.2727528" lon="9.853581"><ele>775.3333333333333</ele><time>2026-04-26T12:15:23.835Z</time></trkpt><trkpt lat="44.2728195" lon="9.8535517"><ele>770.1666666666666</ele><time>2026-04-26T12:15:24.835Z</time></trkpt><trkpt lat="44.2728931" lon="9.8535289"><ele>765.0</ele><time>2026-04-26T12:15:25.836Z</time></trkpt><trkpt lat="44.2729546" lon="9.8534721"><ele>766.0</ele><time>2026-04-26T12:15:26.836Z</time></trkpt><trkpt lat="44.2730301" lon="9.8532828"><ele>767.0</ele><time>2026-04-26T12:15:28.835Z</time></trkpt><trkpt lat="44.2730848" lon="9.853188"><ele>768.0</ele><time>2026-04-26T12:15:29.835Z</time></trkpt><trkpt lat="44.2731317" lon="9.8531148"><ele>769.0</ele><time>2026-04-26T12:15:30.835Z</time></trkpt><trkpt lat="44.2731677" lon="9.8530415"><ele>770.0</ele><time>2026-04-26T12:15:31.835Z</time></trkpt><trkpt lat="44.2732152" lon="9.8529795"><ele>771.0</ele><time>2026-04-26T12:15:32.835Z</time></trkpt><trkpt lat="44.2733386" lon="9.8529338"><ele>771.0</ele><time>2026-04-26T12:15:34.835Z</time></trkpt><trkpt lat="44.2734278" lon="9.8529169"><ele>771.0</ele><time>2026-04-26T12:15:35.835Z</time></trkpt><trkpt lat="44.2735033" lon="9.8528718"><ele>771.0</ele><time>2026-04-26T12:15:36.836Z</time></trkpt><trkpt lat="44.2735691" lon="9.8528156"><ele>771.0</ele><time>2026-04-26T12:15:37.835Z</time></trkpt><trkpt lat="44.2736351" lon="9.8527458"><ele>771.0</ele><time>2026-04-26T12:15:38.835Z</time></trkpt><trkpt lat="44.2736795" lon="9.8526439"><ele>771.0</ele><time>2026-04-26T12:15:39.835Z</time></trkpt><trkpt lat="44.2737767" lon="9.8525294"><ele>769.3333333333334</ele><time>2026-04-26T12:15:41.835Z</time></trkpt><trkpt lat="44.2738267" lon="9.8524589"><ele>767.6666666666666</ele><time>2026-04-26T12:15:42.836Z</time></trkpt><trkpt lat="44.2739435" lon="9.8524585"><ele>766.0</ele><time>2026-04-26T12:15:43.836Z</time></trkpt><trkpt lat="44.2740266" lon="9.8524206"><ele>764.3333333333333</ele><time>2026-04-26T12:15:44.835Z</time></trkpt><trkpt lat="44.2740975" lon="9.8523982"><ele>762.6666666666666</ele><time>2026-04-26T12:15:45.835Z</time></trkpt><trkpt lat="44.2741624" lon="9.8524009"><ele>761.0</ele><time>2026-04-26T12:15:46.835Z</time></trkpt><trkpt lat="44.2742345" lon="9.8524364"><ele>761.0</ele><time>2026-04-26T12:15:47.835Z</time></trkpt><trkpt lat="44.2743252" lon="9.8525021"><ele>761.0</ele><time>2026-04-26T12:15:48.836Z</time></trkpt><trkpt lat="44.2744148" lon="9.8525827"><ele>761.0</ele><time>2026-04-26T12:15:49.836Z</time></trkpt><trkpt lat="44.2745246" lon="9.852673"><ele>761.0</ele><time>2026-04-26T12:15:50.835Z</time></trkpt><trkpt lat="44.2746312" lon="9.8527637"><ele>759.25</ele><time>2026-04-26T12:15:51.835Z</time></trkpt><trkpt lat="44.2747233" lon="9.8528501"><ele>757.5</ele><time>2026-04-26T12:15:52.835Z</time></trkpt><trkpt lat="44.2748161" lon="9.8529435"><ele>755.75</ele><time>2026-04-26T12:15:53.836Z</time></trkpt><trkpt lat="44.2749018" lon="9.8530569"><ele>754.0</ele><time>2026-04-26T12:15:54.836Z</time></trkpt><trkpt lat="44.274985" lon="9.8531667"><ele>754.0</ele><time>2026-04-26T12:15:55.836Z</time></trkpt><trkpt lat="44.275068" lon="9.8532533"><ele>754.0</ele><time>2026-04-26T12:15:56.836Z</time></trkpt><trkpt lat="44.2751663" lon="9.8533377"><ele>754.0</ele><time>2026-04-26T12:15:57.835Z</time></trkpt><trkpt lat="44.275253" lon="9.8534131"><ele>754.0</ele><time>2026-04-26T12:15:58.835Z</time></trkpt><trkpt lat="44.2753502" lon="9.8534732"><ele>754.0</ele><time>2026-04-26T12:15:59.835Z</time></trkpt><trkpt lat="44.2754473" lon="9.8535211"><ele>751.2</ele><time>2026-04-26T12:16:00.836Z</time></trkpt><trkpt lat="44.275523" lon="9.8535972"><ele>748.4000000000001</ele><time>2026-04-26T12:16:01.836Z</time></trkpt><trkpt lat="44.2756157" lon="9.8536545"><ele>745.6</ele><time>2026-04-26T12:16:02.836Z</time></trkpt><trkpt lat="44.2757012" lon="9.8537003"><ele>742.8</ele><time>2026-04-26T12:16:03.837Z</time></trkpt><trkpt lat="44.2757762" lon="9.8537525"><ele>740.0</ele><time>2026-04-26T12:16:04.836Z</time></trkpt><trkpt lat="44.2758935" lon="9.8536753"><ele>740.0</ele><time>2026-04-26T12:16:05.837Z</time></trkpt><trkpt lat="44.2759931" lon="9.8536644"><ele>740.0</ele><time>2026-04-26T12:16:06.836Z</time></trkpt><trkpt lat="44.2760954" lon="9.8536169"><ele>740.0</ele><time>2026-04-26T12:16:07.836Z</time></trkpt><trkpt lat="44.2761872" lon="9.8536046"><ele>740.0</ele><time>2026-04-26T12:16:08.836Z</time></trkpt><trkpt lat="44.2762677" lon="9.8536083"><ele>740.0</ele><time>2026-04-26T12:16:09.836Z</time></trkpt><trkpt lat="44.2763576" lon="9.853716"><ele>740.0</ele><time>2026-04-26T12:16:11.836Z</time></trkpt><trkpt lat="44.2764067" lon="9.8537958"><ele>740.0</ele><time>2026-04-26T12:16:12.836Z</time></trkpt><trkpt lat="44.2764549" lon="9.8538653"><ele>740.0</ele><time>2026-04-26T12:16:13.836Z</time></trkpt><trkpt lat="44.2765642" lon="9.8539355"><ele>740.0</ele><time>2026-04-26T12:16:15.836Z</time></trkpt><trkpt lat="44.2766522" lon="9.8539257"><ele>740.0</ele><time>2026-04-26T12:16:16.836Z</time></trkpt><trkpt lat="44.2767345" lon="9.8539257"><ele>740.0</ele><time>2026-04-26T12:16:17.836Z</time></trkpt><trkpt lat="44.2768237" lon="9.8539167"><ele>740.0</ele><time>2026-04-26T12:16:18.836Z</time></trkpt><trkpt lat="44.2768999" lon="9.8539066"><ele>740.0</ele><time>2026-04-26T12:16:19.836Z</time></trkpt><trkpt lat="44.2769638" lon="9.8539147"><ele>740.0</ele><time>2026-04-26T12:16:20.835Z</time></trkpt><trkpt lat="44.2770232" lon="9.8539504"><ele>740.0</ele><time>2026-04-26T12:16:21.835Z</time></trkpt><trkpt lat="44.2770964" lon="9.8539825"><ele>740.0</ele><time>2026-04-26T12:16:22.836Z</time></trkpt><trkpt lat="44.2771802" lon="9.8540251"><ele>740.0</ele><time>2026-04-26T12:16:23.835Z</time></trkpt><trkpt lat="44.2772559" lon="9.8540706"><ele>739.8333333333333</ele><time>2026-04-26T12:16:24.835Z</time></trkpt><trkpt lat="44.2773215" lon="9.8541072"><ele>739.6666666666666</ele><time>2026-04-26T12:16:25.835Z</time></trkpt><trkpt lat="44.2773838" lon="9.8541464"><ele>739.5</ele><time>2026-04-26T12:16:26.835Z</time></trkpt><trkpt lat="44.277426" lon="9.8542189"><ele>739.3333333333334</ele><time>2026-04-26T12:16:27.835Z</time></trkpt><trkpt lat="44.2774591" lon="9.854315"><ele>739.1666666666667</ele><time>2026-04-26T12:16:28.835Z</time></trkpt><trkpt lat="44.277489" lon="9.8544408"><ele>739.0</ele><time>2026-04-26T12:16:29.835Z</time></trkpt><trkpt lat="44.2774827" lon="9.8545648"><ele>739.0</ele><time>2026-04-26T12:16:30.836Z</time></trkpt><trkpt lat="44.2774916" lon="9.8546993"><ele>739.0</ele><time>2026-04-26T12:16:31.835Z</time></trkpt><trkpt lat="44.2774662" lon="9.8548683"><ele>739.0</ele><time>2026-04-26T12:16:32.835Z</time></trkpt><trkpt lat="44.2774646" lon="9.8550092"><ele>739.0</ele><time>2026-04-26T12:16:33.835Z</time></trkpt><trkpt lat="44.2774783" lon="9.8551242"><ele>739.0</ele><time>2026-04-26T12:16:34.835Z</time></trkpt><trkpt lat="44.2775024" lon="9.8552181"><ele>736.0</ele><time>2026-04-26T12:16:35.836Z</time></trkpt><trkpt lat="44.2775371" lon="9.8553181"><ele>733.0</ele><time>2026-04-26T12:16:36.837Z</time></trkpt><trkpt lat="44.2776063" lon="9.8553685"><ele>730.0</ele><time>2026-04-26T12:16:37.835Z</time></trkpt><trkpt lat="44.2776913" lon="9.8554399"><ele>727.0</ele><time>2026-04-26T12:16:38.836Z</time></trkpt><trkpt lat="44.2777827" lon="9.8555011"><ele>724.0</ele><time>2026-04-26T12:16:39.835Z</time></trkpt><trkpt lat="44.2778597" lon="9.8555616"><ele>721.0</ele><time>2026-04-26T12:16:40.836Z</time></trkpt><trkpt lat="44.277906" lon="9.8556243"><ele>721.0</ele><time>2026-04-26T12:16:41.835Z</time></trkpt><trkpt lat="44.2779549" lon="9.8557142"><ele>721.0</ele><time>2026-04-26T12:16:42.835Z</time></trkpt><trkpt lat="44.2779846" lon="9.8558208"><ele>721.0</ele><time>2026-04-26T12:16:43.835Z</time></trkpt><trkpt lat="44.2779986" lon="9.855945"><ele>721.0</ele><time>2026-04-26T12:16:44.835Z</time></trkpt><trkpt lat="44.2780084" lon="9.8560639"><ele>721.0</ele><time>2026-04-26T12:16:45.835Z</time></trkpt><trkpt lat="44.2780184" lon="9.8561813"><ele>721.0</ele><time>2026-04-26T12:16:46.836Z</time></trkpt><trkpt lat="44.2780203" lon="9.8562922"><ele>720.4</ele><time>2026-04-26T12:16:47.835Z</time></trkpt><trkpt lat="44.2779883" lon="9.856421"><ele>719.8</ele><time>2026-04-26T12:16:48.835Z</time></trkpt><trkpt lat="44.2779701" lon="9.8565427"><ele>719.1999999999999</ele><time>2026-04-26T12:16:49.835Z</time></trkpt><trkpt lat="44.2779483" lon="9.8566461"><ele>718.5999999999999</ele><time>2026-04-26T12:16:50.836Z</time></trkpt><trkpt lat="44.2778771" lon="9.8567967"><ele>718.0</ele><time>2026-04-26T12:16:51.835Z</time></trkpt><trkpt lat="44.2778308" lon="9.8569323"><ele>718.0</ele><time>2026-04-26T12:16:52.835Z</time></trkpt><trkpt lat="44.2777606" lon="9.8571071"><ele>718.0</ele><time>2026-04-26T12:16:53.835Z</time></trkpt><trkpt lat="44.2777192" lon="9.8572528"><ele>718.0</ele><time>2026-04-26T12:16:54.836Z</time></trkpt><trkpt lat="44.2776737" lon="9.8573784"><ele>718.0</ele><time>2026-04-26T12:16:55.835Z</time></trkpt><trkpt lat="44.2776361" lon="9.8574797"><ele>718.0</ele><time>2026-04-26T12:16:56.836Z</time></trkpt><trkpt lat="44.2775863" lon="9.8575706"><ele>716.8</ele><time>2026-04-26T12:16:57.836Z</time></trkpt><trkpt lat="44.2775126" lon="9.8576525"><ele>715.5999999999999</ele><time>2026-04-26T12:16:58.835Z</time></trkpt><trkpt lat="44.2774382" lon="9.857765"><ele>714.4000000000001</ele><time>2026-04-26T12:16:59.835Z</time></trkpt><trkpt lat="44.2773704" lon="9.8578546"><ele>713.2</ele><time>2026-04-26T12:17:00.835Z</time></trkpt><trkpt lat="44.2773241" lon="9.8579348"><ele>712.0</ele><time>2026-04-26T12:17:01.836Z</time></trkpt><trkpt lat="44.277272" lon="9.8580915"><ele>712.0</ele><time>2026-04-26T12:17:03.835Z</time></trkpt><trkpt lat="44.2773914" lon="9.8582348"><ele>712.0</ele><time>2026-04-26T12:17:05.835Z</time></trkpt><trkpt lat="44.2774515" lon="9.8582619"><ele>712.0</ele><time>2026-04-26T12:17:06.835Z</time></trkpt><trkpt lat="44.2775346" lon="9.8582421"><ele>712.0</ele><time>2026-04-26T12:17:07.836Z</time></trkpt><trkpt lat="44.2776064" lon="9.8582377"><ele>712.0</ele><time>2026-04-26T12:17:08.835Z</time></trkpt><trkpt lat="44.2776782" lon="9.8581979"><ele>712.0</ele><time>2026-04-26T12:17:09.836Z</time></trkpt><trkpt lat="44.2777523" lon="9.8581194"><ele>712.0</ele><time>2026-04-26T12:17:10.835Z</time></trkpt><trkpt lat="44.2778047" lon="9.8580508"><ele>712.0</ele><time>2026-04-26T12:17:11.835Z</time></trkpt><trkpt lat="44.2778768" lon="9.8579675"><ele>712.0</ele><time>2026-04-26T12:17:12.835Z</time></trkpt><trkpt lat="44.277973" lon="9.8579337"><ele>712.0</ele><time>2026-04-26T12:17:13.836Z</time></trkpt><trkpt lat="44.2780605" lon="9.8578835"><ele>712.0</ele><time>2026-04-26T12:17:14.837Z</time></trkpt><trkpt lat="44.2781536" lon="9.857979"><ele>712.0</ele><time>2026-04-26T12:17:15.836Z</time></trkpt><trkpt lat="44.2782145" lon="9.8580349"><ele>712.0</ele><time>2026-04-26T12:17:16.835Z</time></trkpt><trkpt lat="44.2782926" lon="9.8581057"><ele>712.0</ele><time>2026-04-26T12:17:17.835Z</time></trkpt><trkpt lat="44.2783626" lon="9.8581754"><ele>712.0</ele><time>2026-04-26T12:17:18.835Z</time></trkpt><trkpt lat="44.278442" lon="9.8582537"><ele>712.0</ele><time>2026-04-26T12:17:19.835Z</time></trkpt><trkpt lat="44.2785147" lon="9.8583142"><ele>712.0</ele><time>2026-04-26T12:17:20.835Z</time></trkpt><trkpt lat="44.2785834" lon="9.8583779"><ele>712.0</ele><time>2026-04-26T12:17:21.836Z</time></trkpt><trkpt lat="44.2786449" lon="9.8584521"><ele>712.0</ele><time>2026-04-26T12:17:22.835Z</time></trkpt><trkpt lat="44.2787039" lon="9.8585419"><ele>712.0</ele><time>2026-04-26T12:17:23.835Z</time></trkpt><trkpt lat="44.2787642" lon="9.8586168"><ele>712.0</ele><time>2026-04-26T12:17:24.836Z</time></trkpt><trkpt lat="44.2788252" lon="9.8586814"><ele>707.5</ele><time>2026-04-26T12:17:25.836Z</time></trkpt><trkpt lat="44.2788892" lon="9.8587261"><ele>703.0</ele><time>2026-04-26T12:17:26.836Z</time></trkpt><trkpt lat="44.278961" lon="9.8587378"><ele>698.5</ele><time>2026-04-26T12:17:27.836Z</time></trkpt><trkpt lat="44.2790311" lon="9.8587435"><ele>694.0</ele><time>2026-04-26T12:17:28.836Z</time></trkpt><trkpt lat="44.279116" lon="9.8586685"><ele>689.5</ele><time>2026-04-26T12:17:29.836Z</time></trkpt><trkpt lat="44.2792023" lon="9.8586031"><ele>685.0</ele><time>2026-04-26T12:17:30.835Z</time></trkpt><trkpt lat="44.2792879" lon="9.8585365"><ele>685.0</ele><time>2026-04-26T12:17:31.835Z</time></trkpt><trkpt lat="44.2793758" lon="9.8584721"><ele>685.0</ele><time>2026-04-26T12:17:32.836Z</time></trkpt><trkpt lat="44.2794652" lon="9.8583979"><ele>685.0</ele><time>2026-04-26T12:17:33.836Z</time></trkpt><trkpt lat="44.2795518" lon="9.8583309"><ele>685.0</ele><time>2026-04-26T12:17:34.836Z</time></trkpt><trkpt lat="44.279635" lon="9.8582595"><ele>685.0</ele><time>2026-04-26T12:17:35.835Z</time></trkpt><trkpt lat="44.2797121" lon="9.8581887"><ele>686.6</ele><time>2026-04-26T12:17:36.835Z</time></trkpt><trkpt lat="44.2797897" lon="9.8581301"><ele>688.2</ele><time>2026-04-26T12:17:37.835Z</time></trkpt><trkpt lat="44.279864" lon="9.8580664"><ele>689.8</ele><time>2026-04-26T12:17:38.835Z</time></trkpt><trkpt lat="44.2799378" lon="9.8579821"><ele>691.4</ele><time>2026-04-26T12:17:39.835Z</time></trkpt><trkpt lat="44.2800085" lon="9.8578832"><ele>693.0</ele><time>2026-04-26T12:17:40.835Z</time></trkpt><trkpt lat="44.2800598" lon="9.8577545"><ele>693.0</ele><time>2026-04-26T12:17:41.836Z</time></trkpt><trkpt lat="44.2801084" lon="9.8576392"><ele>693.0</ele><time>2026-04-26T12:17:42.836Z</time></trkpt><trkpt lat="44.2801596" lon="9.8575551"><ele>693.0</ele><time>2026-04-26T12:17:43.836Z</time></trkpt><trkpt lat="44.2802487" lon="9.8574763"><ele>693.0</ele><time>2026-04-26T12:17:45.836Z</time></trkpt><trkpt lat="44.2803492" lon="9.8575181"><ele>693.0</ele><time>2026-04-26T12:17:47.835Z</time></trkpt><trkpt lat="44.2803782" lon="9.8576812"><ele>693.0</ele><time>2026-04-26T12:17:49.835Z</time></trkpt><trkpt lat="44.2803617" lon="9.8577744"><ele>693.0</ele><time>2026-04-26T12:17:50.835Z</time></trkpt><trkpt lat="44.2803131" lon="9.857874"><ele>693.0</ele><time>2026-04-26T12:17:51.835Z</time></trkpt><trkpt lat="44.2802489" lon="9.8579619"><ele>693.0</ele><time>2026-04-26T12:17:52.836Z</time></trkpt><trkpt lat="44.2801815" lon="9.858035"><ele>693.0</ele><time>2026-04-26T12:17:53.835Z</time></trkpt><trkpt lat="44.2801171" lon="9.8581224"><ele>693.0</ele><time>2026-04-26T12:17:54.835Z</time></trkpt><trkpt lat="44.2800522" lon="9.8582248"><ele>693.0</ele><time>2026-04-26T12:17:55.835Z</time></trkpt><trkpt lat="44.2799864" lon="9.8583294"><ele>693.0</ele><time>2026-04-26T12:17:56.835Z</time></trkpt><trkpt lat="44.2799183" lon="9.8584408"><ele>693.0</ele><time>2026-04-26T12:17:57.835Z</time></trkpt><trkpt lat="44.2798574" lon="9.8585621"><ele>693.0</ele><time>2026-04-26T12:17:58.835Z</time></trkpt><trkpt lat="44.2797961" lon="9.8586692"><ele>693.0</ele><time>2026-04-26T12:17:59.835Z</time></trkpt><trkpt lat="44.2797499" lon="9.8587446"><ele>691.8571428571429</ele><time>2026-04-26T12:18:00.835Z</time></trkpt><trkpt lat="44.2797103" lon="9.8588164"><ele>690.7142857142858</ele><time>2026-04-26T12:18:01.835Z</time></trkpt><trkpt lat="44.2796701" lon="9.8588936"><ele>689.5714285714286</ele><time>2026-04-26T12:18:02.835Z</time></trkpt><trkpt lat="44.2796412" lon="9.8589845"><ele>688.4285714285714</ele><time>2026-04-26T12:18:03.835Z</time></trkpt><trkpt lat="44.2796022" lon="9.8590684"><ele>687.2857142857143</ele><time>2026-04-26T12:18:04.835Z</time></trkpt><trkpt lat="44.2795581" lon="9.8591536"><ele>686.1428571428571</ele><time>2026-04-26T12:18:05.836Z</time></trkpt><trkpt lat="44.2795166" lon="9.8592589"><ele>685.0</ele><time>2026-04-26T12:18:06.835Z</time></trkpt><trkpt lat="44.2794935" lon="9.8593732"><ele>681.5</ele><time>2026-04-26T12:18:07.836Z</time></trkpt><trkpt lat="44.2794898" lon="9.8594868"><ele>678.0</ele><time>2026-04-26T12:18:08.835Z</time></trkpt><trkpt lat="44.2795081" lon="9.8596"><ele>674.5</ele><time>2026-04-26T12:18:09.836Z</time></trkpt><trkpt lat="44.2795385" lon="9.8597066"><ele>671.0</ele><time>2026-04-26T12:18:10.836Z</time></trkpt><trkpt lat="44.2795909" lon="9.8598061"><ele>667.5</ele><time>2026-04-26T12:18:11.835Z</time></trkpt><trkpt lat="44.2796617" lon="9.8598838"><ele>664.0</ele><time>2026-04-26T12:18:12.835Z</time></trkpt><trkpt lat="44.279752" lon="9.8599372"><ele>665.4000000000001</ele><time>2026-04-26T12:18:13.836Z</time></trkpt><trkpt lat="44.279859" lon="9.8599671"><ele>666.8</ele><time>2026-04-26T12:18:14.835Z</time></trkpt><trkpt lat="44.2799698" lon="9.8599972"><ele>668.2</ele><time>2026-04-26T12:18:15.836Z</time></trkpt><trkpt lat="44.2800795" lon="9.8600341"><ele>669.5999999999999</ele><time>2026-04-26T12:18:16.835Z</time></trkpt><trkpt lat="44.2801731" lon="9.8600639"><ele>671.0</ele><time>2026-04-26T12:18:17.835Z</time></trkpt><trkpt lat="44.2802724" lon="9.8600985"><ele>671.1999999999999</ele><time>2026-04-26T12:18:19.835Z</time></trkpt><trkpt lat="44.2802994" lon="9.8601979"><ele>671.4</ele><time>2026-04-26T12:22:43.834Z</time></trkpt><trkpt lat="44.2803995" lon="9.8602017"><ele>671.6</ele><time>2026-04-26T12:22:46.834Z</time></trkpt><trkpt lat="44.2805283" lon="9.8602071"><ele>671.8</ele><time>2026-04-26T12:22:48.833Z</time></trkpt><trkpt lat="44.2806044" lon="9.8602271"><ele>672.0</ele><time>2026-04-26T12:22:49.833Z</time></trkpt><trkpt lat="44.2806826" lon="9.8602457"><ele>672.0</ele><time>2026-04-26T12:22:50.834Z</time></trkpt><trkpt lat="44.2807615" lon="9.8602686"><ele>672.0</ele><time>2026-04-26T12:22:51.833Z</time></trkpt><trkpt lat="44.2808407" lon="9.8602941"><ele>672.0</ele><time>2026-04-26T12:22:52.833Z</time></trkpt><trkpt lat="44.2809208" lon="9.8603232"><ele>672.0</ele><time>2026-04-26T12:22:53.833Z</time></trkpt><trkpt lat="44.2810045" lon="9.8603493"><ele>672.0</ele><time>2026-04-26T12:22:54.833Z</time></trkpt><trkpt lat="44.2810863" lon="9.8603701"><ele>672.0</ele><time>2026-04-26T12:22:55.834Z</time></trkpt><trkpt lat="44.2811622" lon="9.8603927"><ele>672.0</ele><time>2026-04-26T12:22:56.834Z</time></trkpt><trkpt lat="44.2812417" lon="9.8604099"><ele>672.0</ele><time>2026-04-26T12:22:57.833Z</time></trkpt><trkpt lat="44.2813182" lon="9.8604266"><ele>672.0</ele><time>2026-04-26T12:22:58.834Z</time></trkpt><trkpt lat="44.2813977" lon="9.8604396"><ele>672.0</ele><time>2026-04-26T12:22:59.833Z</time></trkpt><trkpt lat="44.2814712" lon="9.8604427"><ele>672.0</ele><time>2026-04-26T12:23:00.833Z</time></trkpt><trkpt lat="44.2815538" lon="9.8604132"><ele>672.0</ele><time>2026-04-26T12:23:01.834Z</time></trkpt><trkpt lat="44.2816382" lon="9.8603598"><ele>671.25</ele><time>2026-04-26T12:23:02.833Z</time></trkpt><trkpt lat="44.2817103" lon="9.8602589"><ele>670.5</ele><time>2026-04-26T12:23:03.833Z</time></trkpt><trkpt lat="44.2817885" lon="9.8601538"><ele>669.75</ele><time>2026-04-26T12:23:04.834Z</time></trkpt><trkpt lat="44.28187" lon="9.8600275"><ele>669.0</ele><time>2026-04-26T12:23:05.833Z</time></trkpt><trkpt lat="44.2819337" lon="9.8598883"><ele>667.6</ele><time>2026-04-26T12:23:06.833Z</time></trkpt><trkpt lat="44.2819996" lon="9.8597551"><ele>666.2</ele><time>2026-04-26T12:23:07.834Z</time></trkpt><trkpt lat="44.2820453" lon="9.8596267"><ele>664.8000000000001</ele><time>2026-04-26T12:23:08.834Z</time></trkpt><trkpt lat="44.2820796" lon="9.8594948"><ele>663.4000000000001</ele><time>2026-04-26T12:23:09.833Z</time></trkpt><trkpt lat="44.2821183" lon="9.8593576"><ele>662.0</ele><time>2026-04-26T12:23:10.834Z</time></trkpt><trkpt lat="44.2821611" lon="9.8592296"><ele>661.2</ele><time>2026-04-26T12:23:11.834Z</time></trkpt><trkpt lat="44.2822136" lon="9.8590972"><ele>660.4000000000001</ele><time>2026-04-26T12:23:12.833Z</time></trkpt><trkpt lat="44.2822729" lon="9.858969"><ele>659.5999999999999</ele><time>2026-04-26T12:23:13.833Z</time></trkpt><trkpt lat="44.2823419" lon="9.8588552"><ele>658.8</ele><time>2026-04-26T12:23:14.834Z</time></trkpt><trkpt lat="44.2824388" lon="9.8587772"><ele>658.0</ele><time>2026-04-26T12:23:15.833Z</time></trkpt><trkpt lat="44.2825525" lon="9.8587137"><ele>657.75</ele><time>2026-04-26T12:23:16.834Z</time></trkpt><trkpt lat="44.2826882" lon="9.8586943"><ele>657.5</ele><time>2026-04-26T12:23:17.833Z</time></trkpt><trkpt lat="44.2828075" lon="9.8586937"><ele>657.25</ele><time>2026-04-26T12:23:18.833Z</time></trkpt><trkpt lat="44.2829162" lon="9.8586841"><ele>657.0</ele><time>2026-04-26T12:23:19.834Z</time></trkpt><trkpt lat="44.2830009" lon="9.8586417"><ele>657.0</ele><time>2026-04-26T12:23:20.833Z</time></trkpt><trkpt lat="44.283068" lon="9.8585686"><ele>657.0</ele><time>2026-04-26T12:23:21.833Z</time></trkpt><trkpt lat="44.2831136" lon="9.8584537"><ele>657.0</ele><time>2026-04-26T12:23:22.833Z</time></trkpt><trkpt lat="44.2831438" lon="9.858308"><ele>657.0</ele><time>2026-04-26T12:23:23.833Z</time></trkpt><trkpt lat="44.2831895" lon="9.8581469"><ele>657.0</ele><time>2026-04-26T12:23:24.833Z</time></trkpt><trkpt lat="44.2832356" lon="9.8579798"><ele>654.2</ele><time>2026-04-26T12:23:25.834Z</time></trkpt><trkpt lat="44.2832754" lon="9.8578242"><ele>651.4000000000001</ele><time>2026-04-26T12:23:26.833Z</time></trkpt><trkpt lat="44.2833141" lon="9.8576797"><ele>648.5999999999999</ele><time>2026-04-26T12:23:27.834Z</time></trkpt><trkpt lat="44.2833386" lon="9.8575343"><ele>645.8</ele><time>2026-04-26T12:23:28.834Z</time></trkpt><trkpt lat="44.2832897" lon="9.8574145"><ele>643.0</ele><time>2026-04-26T12:23:29.834Z</time></trkpt><trkpt lat="44.2832654" lon="9.857281"><ele>642.75</ele><time>2026-04-26T12:23:30.835Z</time></trkpt><trkpt lat="44.2832249" lon="9.8571442"><ele>642.5</ele><time>2026-04-26T12:23:31.834Z</time></trkpt><trkpt lat="44.2831777" lon="9.8570022"><ele>642.25</ele><time>2026-04-26T12:23:32.833Z</time></trkpt><trkpt lat="44.2831082" lon="9.8568616"><ele>642.0</ele><time>2026-04-26T12:23:33.833Z</time></trkpt><trkpt lat="44.2830499" lon="9.8567237"><ele>643.2</ele><time>2026-04-26T12:23:34.833Z</time></trkpt><trkpt lat="44.2829965" lon="9.8565955"><ele>644.4000000000001</ele><time>2026-04-26T12:23:35.834Z</time></trkpt><trkpt lat="44.282963" lon="9.8564634"><ele>645.5999999999999</ele><time>2026-04-26T12:23:36.833Z</time></trkpt><trkpt lat="44.2829537" lon="9.8563318"><ele>646.8</ele><time>2026-04-26T12:23:37.833Z</time></trkpt><trkpt lat="44.2829668" lon="9.8561909"><ele>648.0</ele><time>2026-04-26T12:23:38.833Z</time></trkpt><trkpt lat="44.2829938" lon="9.8560456"><ele>646.1999999999999</ele><time>2026-04-26T12:23:39.834Z</time></trkpt><trkpt lat="44.2830342" lon="9.8558979"><ele>644.4</ele><time>2026-04-26T12:23:40.833Z</time></trkpt><trkpt lat="44.2830767" lon="9.855765"><ele>642.5999999999999</ele><time>2026-04-26T12:23:41.833Z</time></trkpt><trkpt lat="44.2831376" lon="9.8556487"><ele>640.8</ele><time>2026-04-26T12:23:42.834Z</time></trkpt><trkpt lat="44.2832318" lon="9.8555286"><ele>639.0</ele><time>2026-04-26T12:23:43.833Z</time></trkpt><trkpt lat="44.2833475" lon="9.8554487"><ele>639.0</ele><time>2026-04-26T12:23:44.833Z</time></trkpt><trkpt lat="44.2834614" lon="9.8554073"><ele>639.0</ele><time>2026-04-26T12:23:45.834Z</time></trkpt><trkpt lat="44.283585" lon="9.8554054"><ele>639.0</ele><time>2026-04-26T12:23:46.833Z</time></trkpt><trkpt lat="44.283701" lon="9.8554178"><ele>639.0</ele><time>2026-04-26T12:23:47.833Z</time></trkpt><trkpt lat="44.2837996" lon="9.8554513"><ele>639.0</ele><time>2026-04-26T12:23:48.833Z</time></trkpt><trkpt lat="44.2838874" lon="9.8555175"><ele>639.0</ele><time>2026-04-26T12:23:49.833Z</time></trkpt><trkpt lat="44.2839679" lon="9.8555952"><ele>639.0</ele><time>2026-04-26T12:23:50.834Z</time></trkpt><trkpt lat="44.2840516" lon="9.8556685"><ele>639.0</ele><time>2026-04-26T12:23:51.833Z</time></trkpt><trkpt lat="44.2841324" lon="9.8556769"><ele>639.0</ele><time>2026-04-26T12:23:52.833Z</time></trkpt><trkpt lat="44.2842169" lon="9.8556874"><ele>636.2</ele><time>2026-04-26T12:23:53.833Z</time></trkpt><trkpt lat="44.2843044" lon="9.8556371"><ele>633.4</ele><time>2026-04-26T12:23:54.834Z</time></trkpt><trkpt lat="44.2843862" lon="9.8555154"><ele>630.6</ele><time>2026-04-26T12:23:55.833Z</time></trkpt><trkpt lat="44.2844666" lon="9.855437"><ele>627.8</ele><time>2026-04-26T12:23:56.834Z</time></trkpt><trkpt lat="44.2845512" lon="9.8553494"><ele>625.0</ele><time>2026-04-26T12:23:57.834Z</time></trkpt><trkpt lat="44.2846384" lon="9.8552586"><ele>625.0</ele><time>2026-04-26T12:23:58.835Z</time></trkpt><trkpt lat="44.2847225" lon="9.855176"><ele>625.0</ele><time>2026-04-26T12:23:59.834Z</time></trkpt><trkpt lat="44.2848036" lon="9.8550974"><ele>625.0</ele><time>2026-04-26T12:24:00.834Z</time></trkpt><trkpt lat="44.2848848" lon="9.85503"><ele>625.0</ele><time>2026-04-26T12:24:01.833Z</time></trkpt><trkpt lat="44.2849717" lon="9.8549699"><ele>625.0</ele><time>2026-04-26T12:24:02.833Z</time></trkpt><trkpt lat="44.2850623" lon="9.8549244"><ele>620.75</ele><time>2026-04-26T12:24:03.833Z</time></trkpt><trkpt lat="44.2851566" lon="9.8548839"><ele>616.5</ele><time>2026-04-26T12:24:04.833Z</time></trkpt><trkpt lat="44.2852661" lon="9.8548353"><ele>612.25</ele><time>2026-04-26T12:24:05.833Z</time></trkpt><trkpt lat="44.285384" lon="9.8547814"><ele>608.0</ele><time>2026-04-26T12:24:06.834Z</time></trkpt><trkpt lat="44.2855081" lon="9.8547142"><ele>606.25</ele><time>2026-04-26T12:24:07.833Z</time></trkpt><trkpt lat="44.2856311" lon="9.8546488"><ele>604.5</ele><time>2026-04-26T12:24:08.833Z</time></trkpt><trkpt lat="44.285753" lon="9.8546046"><ele>602.75</ele><time>2026-04-26T12:24:09.833Z</time></trkpt><trkpt lat="44.2858655" lon="9.8545703"><ele>601.0</ele><time>2026-04-26T12:24:10.833Z</time></trkpt><trkpt lat="44.2859549" lon="9.8545382"><ele>601.0</ele><time>2026-04-26T12:24:11.833Z</time></trkpt><trkpt lat="44.2860251" lon="9.854481"><ele>601.0</ele><time>2026-04-26T12:24:12.834Z</time></trkpt><trkpt lat="44.2860987" lon="9.8544202"><ele>601.0</ele><time>2026-04-26T12:24:13.833Z</time></trkpt><trkpt lat="44.286074" lon="9.8542545"><ele>601.0</ele><time>2026-04-26T12:24:14.833Z</time></trkpt><trkpt lat="44.2860634" lon="9.854134"><ele>601.0</ele><time>2026-04-26T12:24:15.833Z</time></trkpt><trkpt lat="44.286045" lon="9.8540323"><ele>600.25</ele><time>2026-04-26T12:24:16.832Z</time></trkpt><trkpt lat="44.2860154" lon="9.853926"><ele>599.5</ele><time>2026-04-26T12:24:17.833Z</time></trkpt><trkpt lat="44.2859325" lon="9.853809"><ele>598.75</ele><time>2026-04-26T12:24:18.832Z</time></trkpt><trkpt lat="44.285796" lon="9.8538205"><ele>598.0</ele><time>2026-04-26T12:24:19.833Z</time></trkpt><trkpt lat="44.2856799" lon="9.8537923"><ele>599.0</ele><time>2026-04-26T12:24:20.832Z</time></trkpt><trkpt lat="44.2855464" lon="9.8537906"><ele>600.0</ele><time>2026-04-26T12:24:21.833Z</time></trkpt><trkpt lat="44.28545" lon="9.8537682"><ele>601.0</ele><time>2026-04-26T12:24:22.832Z</time></trkpt><trkpt lat="44.2853575" lon="9.8538023"><ele>602.0</ele><time>2026-04-26T12:24:23.832Z</time></trkpt><trkpt lat="44.2853058" lon="9.8537283"><ele>603.0</ele><time>2026-04-26T12:24:24.833Z</time></trkpt><trkpt lat="44.2853234" lon="9.8535982"><ele>603.0</ele><time>2026-04-26T12:24:26.832Z</time></trkpt><trkpt lat="44.2854635" lon="9.8535792"><ele>603.0</ele><time>2026-04-26T12:24:28.832Z</time></trkpt><trkpt lat="44.2855686" lon="9.8535933"><ele>603.0</ele><time>2026-04-26T12:24:29.832Z</time></trkpt><trkpt lat="44.2856835" lon="9.8535935"><ele>603.0</ele><time>2026-04-26T12:24:30.832Z</time></trkpt><trkpt lat="44.2858053" lon="9.8535737"><ele>601.75</ele><time>2026-04-26T12:24:31.832Z</time></trkpt><trkpt lat="44.2859365" lon="9.8535462"><ele>600.5</ele><time>2026-04-26T12:24:32.832Z</time></trkpt><trkpt lat="44.2860694" lon="9.8535218"><ele>599.25</ele><time>2026-04-26T12:24:33.832Z</time></trkpt><trkpt lat="44.2862018" lon="9.853494"><ele>598.0</ele><time>2026-04-26T12:24:34.832Z</time></trkpt><trkpt lat="44.2863215" lon="9.8534584"><ele>592.75</ele><time>2026-04-26T12:24:35.833Z</time></trkpt><trkpt lat="44.2864286" lon="9.8534123"><ele>587.5</ele><time>2026-04-26T12:24:36.832Z</time></trkpt><trkpt lat="44.2865274" lon="9.8533407"><ele>582.25</ele><time>2026-04-26T12:24:37.834Z</time></trkpt><trkpt lat="44.2866078" lon="9.8532307"><ele>577.0</ele><time>2026-04-26T12:24:38.832Z</time></trkpt><trkpt lat="44.2866596" lon="9.8530868"><ele>577.0</ele><time>2026-04-26T12:24:39.833Z</time></trkpt><trkpt lat="44.2867019" lon="9.8529508"><ele>577.0</ele><time>2026-04-26T12:24:40.833Z</time></trkpt><trkpt lat="44.2867734" lon="9.8528587"><ele>577.0</ele><time>2026-04-26T12:24:41.832Z</time></trkpt><trkpt lat="44.2868562" lon="9.8528097"><ele>577.0</ele><time>2026-04-26T12:24:42.833Z</time></trkpt><trkpt lat="44.2869459" lon="9.8528114"><ele>577.0</ele><time>2026-04-26T12:24:43.833Z</time></trkpt><trkpt lat="44.2870142" lon="9.8528602"><ele>577.0</ele><time>2026-04-26T12:24:44.832Z</time></trkpt><trkpt lat="44.2870685" lon="9.8529453"><ele>577.0</ele><time>2026-04-26T12:24:45.832Z</time></trkpt><trkpt lat="44.2871109" lon="9.8530478"><ele>577.0</ele><time>2026-04-26T12:24:46.833Z</time></trkpt><trkpt lat="44.2871673" lon="9.8531456"><ele>577.0</ele><time>2026-04-26T12:24:47.832Z</time></trkpt><trkpt lat="44.287225" lon="9.8532451"><ele>577.0</ele><time>2026-04-26T12:24:48.832Z</time></trkpt><trkpt lat="44.2873401" lon="9.8532409"><ele>574.0</ele><time>2026-04-26T12:24:49.832Z</time></trkpt><trkpt lat="44.2874493" lon="9.8532453"><ele>571.0</ele><time>2026-04-26T12:24:50.832Z</time></trkpt><trkpt lat="44.2875659" lon="9.8532432"><ele>568.0</ele><time>2026-04-26T12:24:51.832Z</time></trkpt><trkpt lat="44.2876865" lon="9.8532389"><ele>565.0</ele><time>2026-04-26T12:24:52.832Z</time></trkpt><trkpt lat="44.2877993" lon="9.8532097"><ele>565.0</ele><time>2026-04-26T12:24:53.833Z</time></trkpt><trkpt lat="44.2879096" lon="9.8531536"><ele>565.0</ele><time>2026-04-26T12:24:54.833Z</time></trkpt><trkpt lat="44.2880084" lon="9.853066"><ele>565.0</ele><time>2026-04-26T12:24:55.832Z</time></trkpt><trkpt lat="44.2880931" lon="9.8529434"><ele>565.0</ele><time>2026-04-26T12:24:56.832Z</time></trkpt><trkpt lat="44.2881738" lon="9.8528105"><ele>563.2</ele><time>2026-04-26T12:24:57.832Z</time></trkpt><trkpt lat="44.2882547" lon="9.8526946"><ele>561.4</ele><time>2026-04-26T12:24:58.833Z</time></trkpt><trkpt lat="44.2883508" lon="9.8526113"><ele>559.6</ele><time>2026-04-26T12:24:59.832Z</time></trkpt><trkpt lat="44.2884564" lon="9.8525732"><ele>557.8</ele><time>2026-04-26T12:25:00.832Z</time></trkpt><trkpt lat="44.2885621" lon="9.8525524"><ele>556.0</ele><time>2026-04-26T12:25:01.832Z</time></trkpt><trkpt lat="44.2886665" lon="9.8525134"><ele>556.0</ele><time>2026-04-26T12:25:02.832Z</time></trkpt><trkpt lat="44.2887658" lon="9.8524539"><ele>556.0</ele><time>2026-04-26T12:25:03.833Z</time></trkpt><trkpt lat="44.2888922" lon="9.8523681"><ele>556.0</ele><time>2026-04-26T12:25:04.832Z</time></trkpt><trkpt lat="44.289013" lon="9.8523059"><ele>556.0</ele><time>2026-04-26T12:25:05.833Z</time></trkpt><trkpt lat="44.2891412" lon="9.8522074"><ele>553.0</ele><time>2026-04-26T12:25:06.833Z</time></trkpt><trkpt lat="44.2892348" lon="9.852147"><ele>550.0</ele><time>2026-04-26T12:25:07.833Z</time></trkpt><trkpt lat="44.2893239" lon="9.85206"><ele>547.0</ele><time>2026-04-26T12:25:08.833Z</time></trkpt><trkpt lat="44.2893707" lon="9.8519896"><ele>544.0</ele><time>2026-04-26T12:25:09.833Z</time></trkpt><trkpt lat="44.2894716" lon="9.8519809"><ele>541.0</ele><time>2026-04-26T12:25:11.833Z</time></trkpt><trkpt lat="44.289461" lon="9.8521004"><ele>541.0</ele><time>2026-04-26T12:25:13.833Z</time></trkpt><trkpt lat="44.2893742" lon="9.8522381"><ele>541.0</ele><time>2026-04-26T12:25:15.833Z</time></trkpt><trkpt lat="44.2892849" lon="9.8523647"><ele>541.0</ele><time>2026-04-26T12:25:16.833Z</time></trkpt><trkpt lat="44.2891422" lon="9.8524339"><ele>541.0</ele><time>2026-04-26T12:25:17.832Z</time></trkpt><trkpt lat="44.2890463" lon="9.8525196"><ele>541.0</ele><time>2026-04-26T12:25:18.832Z</time></trkpt><trkpt lat="44.2889681" lon="9.8525871"><ele>541.0</ele><time>2026-04-26T12:25:19.832Z</time></trkpt><trkpt lat="44.2889103" lon="9.8526533"><ele>541.0</ele><time>2026-04-26T12:25:20.832Z</time></trkpt><trkpt lat="44.2888384" lon="9.8527298"><ele>541.0</ele><time>2026-04-26T12:25:21.833Z</time></trkpt><trkpt lat="44.288783" lon="9.8527976"><ele>541.0</ele><time>2026-04-26T12:25:22.833Z</time></trkpt><trkpt lat="44.2888763" lon="9.8528587"><ele>541.0</ele><time>2026-04-26T12:25:24.832Z</time></trkpt><trkpt lat="44.2890805" lon="9.8527512"><ele>541.0</ele><time>2026-04-26T12:25:25.833Z</time></trkpt><trkpt lat="44.2891743" lon="9.8526624"><ele>541.0</ele><time>2026-04-26T12:25:26.832Z</time></trkpt><trkpt lat="44.2892843" lon="9.8525842"><ele>541.0</ele><time>2026-04-26T12:25:27.832Z</time></trkpt><trkpt lat="44.2894178" lon="9.852519"><ele>541.0</ele><time>2026-04-26T12:25:28.834Z</time></trkpt><trkpt lat="44.2895549" lon="9.8524451"><ele>541.0</ele><time>2026-04-26T12:25:29.832Z</time></trkpt><trkpt lat="44.2896814" lon="9.8523946"><ele>541.0</ele><time>2026-04-26T12:25:30.833Z</time></trkpt><trkpt lat="44.2898139" lon="9.8523275"><ele>541.0</ele><time>2026-04-26T12:25:31.833Z</time></trkpt><trkpt lat="44.2899379" lon="9.8522641"><ele>541.0</ele><time>2026-04-26T12:25:32.834Z</time></trkpt><trkpt lat="44.2900306" lon="9.852233"><ele>538.4</ele><time>2026-04-26T12:25:33.833Z</time></trkpt><trkpt lat="44.2901347" lon="9.8521955"><ele>535.8</ele><time>2026-04-26T12:25:34.833Z</time></trkpt><trkpt lat="44.2902431" lon="9.8521708"><ele>533.1999999999999</ele><time>2026-04-26T12:25:35.832Z</time></trkpt><trkpt lat="44.290332" lon="9.8521842"><ele>530.6</ele><time>2026-04-26T12:25:36.833Z</time></trkpt><trkpt lat="44.2904122" lon="9.852253"><ele>528.0</ele><time>2026-04-26T12:25:37.832Z</time></trkpt><trkpt lat="44.2902457" lon="9.8524699"><ele>528.0</ele><time>2026-04-26T12:25:38.833Z</time></trkpt><trkpt lat="44.2902205" lon="9.8525798"><ele>528.0</ele><time>2026-04-26T12:25:39.833Z</time></trkpt><trkpt lat="44.2901941" lon="9.8526843"><ele>528.0</ele><time>2026-04-26T12:25:40.833Z</time></trkpt><trkpt lat="44.2900581" lon="9.8527619"><ele>528.0</ele><time>2026-04-26T12:25:41.833Z</time></trkpt><trkpt lat="44.2899828" lon="9.852842"><ele>528.0</ele><time>2026-04-26T12:25:42.832Z</time></trkpt><trkpt lat="44.289894" lon="9.8529563"><ele>526.0</ele><time>2026-04-26T12:25:44.833Z</time></trkpt><trkpt lat="44.2899565" lon="9.8530008"><ele>524.0</ele><time>2026-04-26T12:25:45.832Z</time></trkpt><trkpt lat="44.2900657" lon="9.8529886"><ele>522.0</ele><time>2026-04-26T12:25:47.834Z</time></trkpt><trkpt lat="44.2902583" lon="9.85291"><ele>520.0</ele><time>2026-04-26T12:25:49.832Z</time></trkpt><trkpt lat="44.2903638" lon="9.8529447"><ele>520.0</ele><time>2026-04-26T12:25:50.833Z</time></trkpt><trkpt lat="44.2904611" lon="9.8529719"><ele>520.0</ele><time>2026-04-26T12:25:51.833Z</time></trkpt><trkpt lat="44.2905631" lon="9.8530291"><ele>520.0</ele><time>2026-04-26T12:25:52.833Z</time></trkpt><trkpt lat="44.2906689" lon="9.8530694"><ele>520.0</ele><time>2026-04-26T12:25:53.832Z</time></trkpt><trkpt lat="44.2907819" lon="9.8530106"><ele>520.0</ele><time>2026-04-26T12:25:54.832Z</time></trkpt><trkpt lat="44.2908951" lon="9.8529311"><ele>518.5</ele><time>2026-04-26T12:25:55.832Z</time></trkpt><trkpt lat="44.2910146" lon="9.8528591"><ele>517.0</ele><time>2026-04-26T12:25:56.832Z</time></trkpt><trkpt lat="44.2911295" lon="9.8527429"><ele>515.5</ele><time>2026-04-26T12:25:57.832Z</time></trkpt><trkpt lat="44.2912374" lon="9.8526078"><ele>514.0</ele><time>2026-04-26T12:25:58.833Z</time></trkpt><trkpt lat="44.2913243" lon="9.8524997"><ele>514.0</ele><time>2026-04-26T12:25:59.833Z</time></trkpt><trkpt lat="44.2914181" lon="9.8523763"><ele>514.0</ele><time>2026-04-26T12:26:00.832Z</time></trkpt><trkpt lat="44.2914591" lon="9.8522104"><ele>514.0</ele><time>2026-04-26T12:26:01.832Z</time></trkpt><trkpt lat="44.2914878" lon="9.8520359"><ele>514.0</ele><time>2026-04-26T12:26:02.832Z</time></trkpt><trkpt lat="44.2914865" lon="9.8518484"><ele>510.2</ele><time>2026-04-26T12:26:03.832Z</time></trkpt><trkpt lat="44.2914786" lon="9.851675"><ele>506.4</ele><time>2026-04-26T12:26:04.832Z</time></trkpt><trkpt lat="44.291483" lon="9.8515123"><ele>502.6</ele><time>2026-04-26T12:26:05.833Z</time></trkpt><trkpt lat="44.2914956" lon="9.8513803"><ele>498.8</ele><time>2026-04-26T12:26:06.832Z</time></trkpt><trkpt lat="44.2915261" lon="9.851287"><ele>495.0</ele><time>2026-04-26T12:26:07.832Z</time></trkpt><trkpt lat="44.2915834" lon="9.8512382"><ele>495.0</ele><time>2026-04-26T12:26:08.833Z</time></trkpt><trkpt lat="44.291654" lon="9.8513271"><ele>495.0</ele><time>2026-04-26T12:26:10.832Z</time></trkpt><trkpt lat="44.2916469" lon="9.8514313"><ele>495.0</ele><time>2026-04-26T12:26:11.833Z</time></trkpt><trkpt lat="44.2916422" lon="9.8515398"><ele>495.0</ele><time>2026-04-26T12:26:12.832Z</time></trkpt><trkpt lat="44.2916391" lon="9.8516347"><ele>495.0</ele><time>2026-04-26T12:26:13.832Z</time></trkpt><trkpt lat="44.2916655" lon="9.8517931"><ele>495.0</ele><time>2026-04-26T12:26:15.832Z</time></trkpt><trkpt lat="44.2917352" lon="9.8517642"><ele>495.0</ele><time>2026-04-26T12:26:16.832Z</time></trkpt><trkpt lat="44.2917829" lon="9.8515915"><ele>495.0</ele><time>2026-04-26T12:26:18.833Z</time></trkpt><trkpt lat="44.2918107" lon="9.8514707"><ele>495.0</ele><time>2026-04-26T12:26:19.833Z</time></trkpt><trkpt lat="44.2918817" lon="9.8513529"><ele>495.0</ele><time>2026-04-26T12:26:20.832Z</time></trkpt><trkpt lat="44.2919536" lon="9.8512335"><ele>495.0</ele><time>2026-04-26T12:26:21.833Z</time></trkpt><trkpt lat="44.2920324" lon="9.8511184"><ele>495.0</ele><time>2026-04-26T12:26:22.832Z</time></trkpt><trkpt lat="44.2921285" lon="9.8510179"><ele>495.0</ele><time>2026-04-26T12:26:23.832Z</time></trkpt><trkpt lat="44.2922189" lon="9.8509375"><ele>495.0</ele><time>2026-04-26T12:26:24.833Z</time></trkpt><trkpt lat="44.2923082" lon="9.8508954"><ele>495.0</ele><time>2026-04-26T12:26:25.833Z</time></trkpt><trkpt lat="44.2923559" lon="9.8508322"><ele>495.0</ele><time>2026-04-26T12:26:26.832Z</time></trkpt><trkpt lat="44.2924188" lon="9.8507492"><ele>492.75</ele><time>2026-04-26T12:26:27.832Z</time></trkpt><trkpt lat="44.2923988" lon="9.8505911"><ele>490.5</ele><time>2026-04-26T12:26:29.832Z</time></trkpt><trkpt lat="44.2922944" lon="9.8505842"><ele>488.25</ele><time>2026-04-26T12:26:30.832Z</time></trkpt><trkpt lat="44.2921422" lon="9.8506818"><ele>486.0</ele><time>2026-04-26T12:26:31.832Z</time></trkpt><trkpt lat="44.2920598" lon="9.8506705"><ele>486.0</ele><time>2026-04-26T12:26:32.832Z</time></trkpt><trkpt lat="44.2919681" lon="9.8506364"><ele>486.0</ele><time>2026-04-26T12:26:33.832Z</time></trkpt><trkpt lat="44.2918946" lon="9.8505884"><ele>486.0</ele><time>2026-04-26T12:26:34.832Z</time></trkpt><trkpt lat="44.2919248" lon="9.8504459"><ele>486.0</ele><time>2026-04-26T12:26:36.832Z</time></trkpt><trkpt lat="44.292048" lon="9.8504361"><ele>486.0</ele><time>2026-04-26T12:26:38.832Z</time></trkpt><trkpt lat="44.2921213" lon="9.8504413"><ele>486.0</ele><time>2026-04-26T12:26:39.833Z</time></trkpt><trkpt lat="44.2922217" lon="9.8504436"><ele>486.0</ele><time>2026-04-26T12:26:40.834Z</time></trkpt><trkpt lat="44.2923188" lon="9.8504471"><ele>486.0</ele><time>2026-04-26T12:26:41.832Z</time></trkpt><trkpt lat="44.2924059" lon="9.8505027"><ele>486.0</ele><time>2026-04-26T12:26:42.832Z</time></trkpt><trkpt lat="44.2924753" lon="9.8505944"><ele>486.0</ele><time>2026-04-26T12:26:43.832Z</time></trkpt><trkpt lat="44.2925294" lon="9.8506851"><ele>484.8333333333333</ele><time>2026-04-26T12:26:44.832Z</time></trkpt><trkpt lat="44.2925838" lon="9.8507828"><ele>483.66666666666663</ele><time>2026-04-26T12:26:45.832Z</time></trkpt><trkpt lat="44.2926343" lon="9.8508803"><ele>482.5</ele><time>2026-04-26T12:26:46.833Z</time></trkpt><trkpt lat="44.2926846" lon="9.8509708"><ele>481.3333333333333</ele><time>2026-04-26T12:26:47.833Z</time></trkpt><trkpt lat="44.2927357" lon="9.8510601"><ele>480.16666666666663</ele><time>2026-04-26T12:26:48.832Z</time></trkpt><trkpt lat="44.2927927" lon="9.851134"><ele>479.0</ele><time>2026-04-26T12:26:49.832Z</time></trkpt><trkpt lat="44.2928639" lon="9.8511964"><ele>479.0</ele><time>2026-04-26T12:26:50.833Z</time></trkpt><trkpt lat="44.2929443" lon="9.8512798"><ele>479.0</ele><time>2026-04-26T12:26:51.833Z</time></trkpt><trkpt lat="44.293039" lon="9.851372"><ele>479.0</ele><time>2026-04-26T12:26:52.834Z</time></trkpt><trkpt lat="44.2931368" lon="9.8514642"><ele>479.0</ele><time>2026-04-26T12:26:53.833Z</time></trkpt><trkpt lat="44.2932492" lon="9.8515537"><ele>478.0</ele><time>2026-04-26T12:26:54.833Z</time></trkpt><trkpt lat="44.2933645" lon="9.851653"><ele>477.0</ele><time>2026-04-26T12:26:55.832Z</time></trkpt><trkpt lat="44.2934878" lon="9.851755"><ele>476.0</ele><time>2026-04-26T12:26:56.832Z</time></trkpt><trkpt lat="44.2936041" lon="9.8518534"><ele>475.0</ele><time>2026-04-26T12:26:57.832Z</time></trkpt><trkpt lat="44.293717" lon="9.8519729"><ele>475.0</ele><time>2026-04-26T12:26:58.832Z</time></trkpt><trkpt lat="44.2938306" lon="9.8520923"><ele>475.0</ele><time>2026-04-26T12:26:59.833Z</time></trkpt><trkpt lat="44.2939283" lon="9.8522357"><ele>475.0</ele><time>2026-04-26T12:27:00.832Z</time></trkpt><trkpt lat="44.2940172" lon="9.8523881"><ele>475.0</ele><time>2026-04-26T12:27:01.832Z</time></trkpt><trkpt lat="44.2940975" lon="9.8525586"><ele>474.5</ele><time>2026-04-26T12:27:02.833Z</time></trkpt><trkpt lat="44.2941771" lon="9.8527386"><ele>474.0</ele><time>2026-04-26T12:27:03.832Z</time></trkpt><trkpt lat="44.2942608" lon="9.8529115"><ele>473.5</ele><time>2026-04-26T12:27:04.832Z</time></trkpt><trkpt lat="44.2943377" lon="9.8530882"><ele>473.0</ele><time>2026-04-26T12:27:05.832Z</time></trkpt><trkpt lat="44.2944087" lon="9.8532602"><ele>473.0</ele><time>2026-04-26T12:27:06.834Z</time></trkpt><trkpt lat="44.2944687" lon="9.8534355"><ele>473.0</ele><time>2026-04-26T12:27:07.832Z</time></trkpt><trkpt lat="44.2945168" lon="9.8536196"><ele>473.0</ele><time>2026-04-26T12:27:08.832Z</time></trkpt><trkpt lat="44.2945621" lon="9.8537978"><ele>473.0</ele><time>2026-04-26T12:27:09.833Z</time></trkpt><trkpt lat="44.294619" lon="9.8539592"><ele>476.0</ele><time>2026-04-26T12:27:10.832Z</time></trkpt><trkpt lat="44.2947046" lon="9.8541106"><ele>479.0</ele><time>2026-04-26T12:27:11.832Z</time></trkpt><trkpt lat="44.2948051" lon="9.8542394"><ele>482.0</ele><time>2026-04-26T12:27:12.833Z</time></trkpt><trkpt lat="44.2949257" lon="9.8543577"><ele>485.0</ele><time>2026-04-26T12:27:13.833Z</time></trkpt><trkpt lat="44.2950457" lon="9.8544641"><ele>485.0</ele><time>2026-04-26T12:27:14.834Z</time></trkpt><trkpt lat="44.2951679" lon="9.8545602"><ele>485.0</ele><time>2026-04-26T12:27:15.832Z</time></trkpt><trkpt lat="44.2952797" lon="9.8546576"><ele>485.0</ele><time>2026-04-26T12:27:16.832Z</time></trkpt><trkpt lat="44.295396" lon="9.8547712"><ele>485.0</ele><time>2026-04-26T12:27:17.831Z</time></trkpt><trkpt lat="44.2954628" lon="9.8549117"><ele>485.0</ele><time>2026-04-26T12:27:18.831Z</time></trkpt><trkpt lat="44.29554" lon="9.8549936"><ele>485.0</ele><time>2026-04-26T12:27:19.831Z</time></trkpt><trkpt lat="44.2956236" lon="9.8550705"><ele>485.0</ele><time>2026-04-26T12:27:20.831Z</time></trkpt><trkpt lat="44.2957139" lon="9.8551274"><ele>485.0</ele><time>2026-04-26T12:27:21.831Z</time></trkpt><trkpt lat="44.2958471" lon="9.8551231"><ele>485.0</ele><time>2026-04-26T12:27:22.831Z</time></trkpt><trkpt lat="44.295984" lon="9.8550429"><ele>477.5</ele><time>2026-04-26T12:27:23.832Z</time></trkpt><trkpt lat="44.2961379" lon="9.8549993"><ele>470.0</ele><time>2026-04-26T12:27:24.831Z</time></trkpt><trkpt lat="44.2962582" lon="9.8549848"><ele>462.5</ele><time>2026-04-26T12:27:25.831Z</time></trkpt><trkpt lat="44.2963575" lon="9.854978"><ele>455.0</ele><time>2026-04-26T12:27:26.831Z</time></trkpt><trkpt lat="44.296439" lon="9.8549787"><ele>454.42857142857144</ele><time>2026-04-26T12:27:27.832Z</time></trkpt><trkpt lat="44.2965063" lon="9.8550053"><ele>453.8571428571429</ele><time>2026-04-26T12:27:28.832Z</time></trkpt><trkpt lat="44.2965502" lon="9.8550832"><ele>453.2857142857143</ele><time>2026-04-26T12:27:29.832Z</time></trkpt><trkpt lat="44.2965682" lon="9.8551715"><ele>452.7142857142857</ele><time>2026-04-26T12:27:30.832Z</time></trkpt><trkpt lat="44.2965728" lon="9.855278"><ele>452.14285714285717</ele><time>2026-04-26T12:27:31.831Z</time></trkpt><trkpt lat="44.2965787" lon="9.8553842"><ele>451.57142857142856</ele><time>2026-04-26T12:27:32.831Z</time></trkpt><trkpt lat="44.2965791" lon="9.8555051"><ele>451.0</ele><time>2026-04-26T12:27:33.831Z</time></trkpt><trkpt lat="44.2965809" lon="9.8556322"><ele>451.00000000000006</ele><time>2026-04-26T12:27:34.832Z</time></trkpt><trkpt lat="44.2965848" lon="9.855755"><ele>451.0</ele><time>2026-04-26T12:27:35.832Z</time></trkpt><trkpt lat="44.2965847" lon="9.8558845"><ele>451.0</ele><time>2026-04-26T12:27:36.831Z</time></trkpt><trkpt lat="44.296586" lon="9.8560026"><ele>451.0</ele><time>2026-04-26T12:27:37.831Z</time></trkpt><trkpt lat="44.2965865" lon="9.856118"><ele>451.00000000000006</ele><time>2026-04-26T12:27:38.831Z</time></trkpt><trkpt lat="44.2965844" lon="9.8562306"><ele>451.0</ele><time>2026-04-26T12:27:39.831Z</time></trkpt><trkpt lat="44.2965853" lon="9.8563388"><ele>452.50000000000006</ele><time>2026-04-26T12:27:40.831Z</time></trkpt><trkpt lat="44.2965917" lon="9.856436"><ele>454.0</ele><time>2026-04-26T12:27:41.832Z</time></trkpt><trkpt lat="44.2965899" lon="9.8565362"><ele>455.5</ele><time>2026-04-26T12:27:42.831Z</time></trkpt><trkpt lat="44.2966085" lon="9.8567029"><ele>457.0</ele><time>2026-04-26T12:27:44.831Z</time></trkpt><trkpt lat="44.2966187" lon="9.8568627"><ele>458.50000000000006</ele><time>2026-04-26T12:27:46.831Z</time></trkpt><trkpt lat="44.2966583" lon="9.8569447"><ele>460.0</ele><time>2026-04-26T12:27:52.831Z</time></trkpt><trkpt lat="44.2967253" lon="9.8570442"><ele>465.0</ele><time>2026-04-26T12:27:54.831Z</time></trkpt><trkpt lat="44.2967931" lon="9.8571103"><ele>470.0</ele><time>2026-04-26T12:27:55.831Z</time></trkpt><trkpt lat="44.2968793" lon="9.8571701"><ele>475.0</ele><time>2026-04-26T12:27:56.831Z</time></trkpt><trkpt lat="44.2969849" lon="9.8572158"><ele>480.0</ele><time>2026-04-26T12:27:57.831Z</time></trkpt><trkpt lat="44.2971057" lon="9.8572574"><ele>485.0</ele><time>2026-04-26T12:27:58.831Z</time></trkpt><trkpt lat="44.2972331" lon="9.8572731"><ele>480.5</ele><time>2026-04-26T12:27:59.831Z</time></trkpt><trkpt lat="44.2973622" lon="9.8572661"><ele>476.0</ele><time>2026-04-26T12:28:00.831Z</time></trkpt><trkpt lat="44.2974911" lon="9.8572232"><ele>471.5</ele><time>2026-04-26T12:28:01.831Z</time></trkpt><trkpt lat="44.2976151" lon="9.857149"><ele>467.0</ele><time>2026-04-26T12:28:02.832Z</time></trkpt><trkpt lat="44.2977214" lon="9.8570542"><ele>467.0</ele><time>2026-04-26T12:28:03.831Z</time></trkpt><trkpt lat="44.297819" lon="9.8569508"><ele>467.0</ele><time>2026-04-26T12:28:04.832Z</time></trkpt><trkpt lat="44.2979145" lon="9.8568682"><ele>467.0</ele><time>2026-04-26T12:28:05.831Z</time></trkpt><trkpt lat="44.2980211" lon="9.8568426"><ele>467.0</ele><time>2026-04-26T12:28:06.832Z</time></trkpt><trkpt lat="44.2981345" lon="9.8568555"><ele>467.25</ele><time>2026-04-26T12:28:07.832Z</time></trkpt><trkpt lat="44.2982439" lon="9.8568792"><ele>467.5</ele><time>2026-04-26T12:28:08.831Z</time></trkpt><trkpt lat="44.2983541" lon="9.8569397"><ele>467.75</ele><time>2026-04-26T12:28:09.831Z</time></trkpt><trkpt lat="44.2984572" lon="9.8570285"><ele>468.0</ele><time>2026-04-26T12:28:10.832Z</time></trkpt><trkpt lat="44.2985708" lon="9.857103"><ele>468.0</ele><time>2026-04-26T12:28:11.831Z</time></trkpt><trkpt lat="44.2986904" lon="9.8571465"><ele>467.99999999999994</ele><time>2026-04-26T12:28:12.832Z</time></trkpt><trkpt lat="44.2988046" lon="9.8571815"><ele>467.99999999999994</ele><time>2026-04-26T12:28:13.832Z</time></trkpt><trkpt lat="44.2989001" lon="9.8572251"><ele>468.0</ele><time>2026-04-26T12:28:14.831Z</time></trkpt><trkpt lat="44.2989974" lon="9.8572737"><ele>468.0</ele><time>2026-04-26T12:28:15.831Z</time></trkpt><trkpt lat="44.2990666" lon="9.8573328"><ele>461.25</ele><time>2026-04-26T12:28:16.831Z</time></trkpt><trkpt lat="44.2991314" lon="9.8575012"><ele>454.5</ele><time>2026-04-26T12:28:17.831Z</time></trkpt><trkpt lat="44.2992235" lon="9.8575923"><ele>447.75</ele><time>2026-04-26T12:28:18.831Z</time></trkpt><trkpt lat="44.2993421" lon="9.8576583"><ele>441.0</ele><time>2026-04-26T12:28:19.831Z</time></trkpt><trkpt lat="44.2994613" lon="9.8577035"><ele>453.0</ele><time>2026-04-26T12:28:20.832Z</time></trkpt><trkpt lat="44.2995863" lon="9.8577432"><ele>465.0</ele><time>2026-04-26T12:28:21.832Z</time></trkpt><trkpt lat="44.2997185" lon="9.857772"><ele>477.0</ele><time>2026-04-26T12:28:22.832Z</time></trkpt><trkpt lat="44.2998531" lon="9.8578023"><ele>489.0</ele><time>2026-04-26T12:28:23.832Z</time></trkpt><trkpt lat="44.2999893" lon="9.8578413"><ele>489.0</ele><time>2026-04-26T12:28:24.831Z</time></trkpt><trkpt lat="44.3001279" lon="9.8578944"><ele>489.0</ele><time>2026-04-26T12:28:25.832Z</time></trkpt><trkpt lat="44.3002645" lon="9.8579539"><ele>489.0</ele><time>2026-04-26T12:28:26.832Z</time></trkpt><trkpt lat="44.300398" lon="9.8580168"><ele>489.0</ele><time>2026-04-26T12:28:27.832Z</time></trkpt><trkpt lat="44.3005221" lon="9.8580874"><ele>491.5</ele><time>2026-04-26T12:28:28.832Z</time></trkpt><trkpt lat="44.3006404" lon="9.8581606"><ele>494.0</ele><time>2026-04-26T12:28:29.832Z</time></trkpt><trkpt lat="44.3007419" lon="9.8582837"><ele>496.5</ele><time>2026-04-26T12:28:30.831Z</time></trkpt><trkpt lat="44.300859" lon="9.8583868"><ele>499.0</ele><time>2026-04-26T12:28:31.832Z</time></trkpt><trkpt lat="44.3009663" lon="9.8584762"><ele>499.0</ele><time>2026-04-26T12:28:32.831Z</time></trkpt><trkpt lat="44.301063" lon="9.8585673"><ele>499.0</ele><time>2026-04-26T12:28:33.832Z</time></trkpt><trkpt lat="44.3011366" lon="9.8586717"><ele>499.0</ele><time>2026-04-26T12:28:34.831Z</time></trkpt><trkpt lat="44.3011315" lon="9.8588477"><ele>499.0</ele><time>2026-04-26T12:28:35.832Z</time></trkpt><trkpt lat="44.3011633" lon="9.8589901"><ele>499.0</ele><time>2026-04-26T12:28:36.832Z</time></trkpt><trkpt lat="44.3011976" lon="9.8591442"><ele>499.0</ele><time>2026-04-26T12:28:37.831Z</time></trkpt><trkpt lat="44.3012593" lon="9.8592931"><ele>499.0</ele><time>2026-04-26T12:28:38.832Z</time></trkpt><trkpt lat="44.3013268" lon="9.8594416"><ele>499.0</ele><time>2026-04-26T12:28:39.832Z</time></trkpt><trkpt lat="44.301427" lon="9.8595766"><ele>492.75</ele><time>2026-04-26T12:28:40.832Z</time></trkpt><trkpt lat="44.3015286" lon="9.8597096"><ele>486.5</ele><time>2026-04-26T12:28:41.831Z</time></trkpt><trkpt lat="44.3016245" lon="9.8598344"><ele>480.25</ele><time>2026-04-26T12:28:42.831Z</time></trkpt><trkpt lat="44.3017061" lon="9.8599661"><ele>474.0</ele><time>2026-04-26T12:28:43.831Z</time></trkpt><trkpt lat="44.3017887" lon="9.8600946"><ele>472.75</ele><time>2026-04-26T12:28:44.831Z</time></trkpt><trkpt lat="44.3018938" lon="9.860195"><ele>471.5</ele><time>2026-04-26T12:28:45.832Z</time></trkpt><trkpt lat="44.3020097" lon="9.8602728"><ele>470.25</ele><time>2026-04-26T12:28:46.832Z</time></trkpt><trkpt lat="44.3021352" lon="9.8603325"><ele>469.0</ele><time>2026-04-26T12:28:47.831Z</time></trkpt><trkpt lat="44.3022661" lon="9.860387"><ele>469.0</ele><time>2026-04-26T12:28:48.832Z</time></trkpt><trkpt lat="44.3023885" lon="9.8604474"><ele>469.0</ele><time>2026-04-26T12:28:49.832Z</time></trkpt><trkpt lat="44.3025006" lon="9.8605304"><ele>469.0</ele><time>2026-04-26T12:28:50.832Z</time></trkpt><trkpt lat="44.3025987" lon="9.8606256"><ele>469.0</ele><time>2026-04-26T12:28:51.831Z</time></trkpt><trkpt lat="44.3026376" lon="9.8607544"><ele>469.0</ele><time>2026-04-26T12:28:52.831Z</time></trkpt><trkpt lat="44.3026483" lon="9.8608831"><ele>469.0</ele><time>2026-04-26T12:28:53.832Z</time></trkpt><trkpt lat="44.3026504" lon="9.8609987"><ele>469.0</ele><time>2026-04-26T12:28:54.832Z</time></trkpt><trkpt lat="44.3026408" lon="9.8611235"><ele>469.0</ele><time>2026-04-26T12:28:55.831Z</time></trkpt><trkpt lat="44.3025631" lon="9.8612805"><ele>469.0</ele><time>2026-04-26T12:28:56.832Z</time></trkpt><trkpt lat="44.3025104" lon="9.8614304"><ele>471.6</ele><time>2026-04-26T12:28:57.832Z</time></trkpt><trkpt lat="44.3024629" lon="9.8615798"><ele>474.2</ele><time>2026-04-26T12:28:58.831Z</time></trkpt><trkpt lat="44.3024072" lon="9.8617298"><ele>476.80000000000007</ele><time>2026-04-26T12:28:59.831Z</time></trkpt><trkpt lat="44.3023508" lon="9.8618532"><ele>479.40000000000003</ele><time>2026-04-26T12:29:00.832Z</time></trkpt><trkpt lat="44.3023076" lon="9.8619776"><ele>482.0</ele><time>2026-04-26T12:29:01.831Z</time></trkpt><trkpt lat="44.3022735" lon="9.8620828"><ele>484.3333333333333</ele><time>2026-04-26T12:29:02.831Z</time></trkpt><trkpt lat="44.3022382" lon="9.8621653"><ele>486.66666666666663</ele><time>2026-04-26T12:29:03.831Z</time></trkpt><trkpt lat="44.3022433" lon="9.8622626"><ele>489.0</ele><time>2026-04-26T12:29:04.831Z</time></trkpt><trkpt lat="44.3023013" lon="9.8623603"><ele>491.33333333333337</ele><time>2026-04-26T12:29:05.831Z</time></trkpt><trkpt lat="44.302381" lon="9.8624325"><ele>493.6666666666667</ele><time>2026-04-26T12:29:06.833Z</time></trkpt><trkpt lat="44.3024806" lon="9.8623979"><ele>496.0</ele><time>2026-04-26T12:29:07.832Z</time></trkpt><trkpt lat="44.3027144" lon="9.8621835"><ele>496.0</ele><time>2026-04-26T12:29:08.832Z</time></trkpt><trkpt lat="44.3028359" lon="9.8621304"><ele>496.0</ele><time>2026-04-26T12:29:09.831Z</time></trkpt><trkpt lat="44.3029569" lon="9.8620676"><ele>496.0</ele><time>2026-04-26T12:29:10.831Z</time></trkpt><trkpt lat="44.3030701" lon="9.8620038"><ele>496.0</ele><time>2026-04-26T12:29:11.832Z</time></trkpt><trkpt lat="44.3031927" lon="9.8619301"><ele>497.0</ele><time>2026-04-26T12:29:12.832Z</time></trkpt><trkpt lat="44.3033053" lon="9.8618844"><ele>498.0</ele><time>2026-04-26T12:29:13.832Z</time></trkpt><trkpt lat="44.3034188" lon="9.8618529"><ele>499.0</ele><time>2026-04-26T12:29:14.832Z</time></trkpt><trkpt lat="44.3035384" lon="9.8618653"><ele>500.0</ele><time>2026-04-26T12:29:15.832Z</time></trkpt><trkpt lat="44.3036473" lon="9.8618725"><ele>500.0</ele><time>2026-04-26T12:29:16.831Z</time></trkpt><trkpt lat="44.3037385" lon="9.8619305"><ele>500.0</ele><time>2026-04-26T12:29:17.832Z</time></trkpt><trkpt lat="44.3038351" lon="9.8620912"><ele>500.0</ele><time>2026-04-26T12:29:18.831Z</time></trkpt><trkpt lat="44.3038761" lon="9.8622576"><ele>500.0</ele><time>2026-04-26T12:29:19.831Z</time></trkpt><trkpt lat="44.3039078" lon="9.8624418"><ele>497.75</ele><time>2026-04-26T12:29:20.831Z</time></trkpt><trkpt lat="44.3039158" lon="9.8626254"><ele>495.5</ele><time>2026-04-26T12:29:21.831Z</time></trkpt><trkpt lat="44.3039097" lon="9.8627993"><ele>493.25</ele><time>2026-04-26T12:29:22.831Z</time></trkpt><trkpt lat="44.3039457" lon="9.8629448"><ele>491.0</ele><time>2026-04-26T12:29:23.831Z</time></trkpt><trkpt lat="44.3039932" lon="9.8630885"><ele>491.0</ele><time>2026-04-26T12:29:24.832Z</time></trkpt><trkpt lat="44.3040808" lon="9.8632062"><ele>491.0</ele><time>2026-04-26T12:29:25.832Z</time></trkpt><trkpt lat="44.3041887" lon="9.8633178"><ele>491.0</ele><time>2026-04-26T12:29:26.832Z</time></trkpt><trkpt lat="44.3042837" lon="9.8634343"><ele>491.0</ele><time>2026-04-26T12:29:27.831Z</time></trkpt><trkpt lat="44.3043811" lon="9.8635539"><ele>498.0</ele><time>2026-04-26T12:29:28.831Z</time></trkpt><trkpt lat="44.3044097" lon="9.8637386"><ele>505.0</ele><time>2026-04-26T12:29:29.831Z</time></trkpt><trkpt lat="44.304458" lon="9.8638655"><ele>512.0</ele><time>2026-04-26T12:29:30.831Z</time></trkpt><trkpt lat="44.3045189" lon="9.8639652"><ele>519.0</ele><time>2026-04-26T12:29:31.832Z</time></trkpt><trkpt lat="44.3046201" lon="9.8640082"><ele>526.0</ele><time>2026-04-26T12:29:32.831Z</time></trkpt><trkpt lat="44.3046954" lon="9.864042"><ele>519.0</ele><time>2026-04-26T12:29:33.831Z</time></trkpt><trkpt lat="44.3048077" lon="9.863991"><ele>512.0</ele><time>2026-04-26T12:29:34.831Z</time></trkpt><trkpt lat="44.3049137" lon="9.8639745"><ele>505.0</ele><time>2026-04-26T12:29:35.831Z</time></trkpt><trkpt lat="44.3050304" lon="9.8639533"><ele>498.0</ele><time>2026-04-26T12:29:36.831Z</time></trkpt><trkpt lat="44.3051513" lon="9.8639414"><ele>498.0</ele><time>2026-04-26T12:29:37.831Z</time></trkpt><trkpt lat="44.3052739" lon="9.8639438"><ele>498.0</ele><time>2026-04-26T12:29:38.831Z</time></trkpt><trkpt lat="44.3054109" lon="9.8639371"><ele>498.0</ele><time>2026-04-26T12:29:39.831Z</time></trkpt><trkpt lat="44.3055506" lon="9.8639228"><ele>498.0</ele><time>2026-04-26T12:29:40.832Z</time></trkpt><trkpt lat="44.3056927" lon="9.8638943"><ele>499.0</ele><time>2026-04-26T12:29:41.832Z</time></trkpt><trkpt lat="44.3058366" lon="9.8638589"><ele>500.0</ele><time>2026-04-26T12:29:42.833Z</time></trkpt><trkpt lat="44.3059751" lon="9.8638044"><ele>501.0</ele><time>2026-04-26T12:29:43.831Z</time></trkpt><trkpt lat="44.3061071" lon="9.8637225"><ele>502.0</ele><time>2026-04-26T12:29:44.831Z</time></trkpt><trkpt lat="44.3062221" lon="9.8636312"><ele>502.0</ele><time>2026-04-26T12:29:45.831Z</time></trkpt><trkpt lat="44.3063314" lon="9.8635637"><ele>502.00000000000006</ele><time>2026-04-26T12:29:46.831Z</time></trkpt><trkpt lat="44.3064291" lon="9.8635634"><ele>502.00000000000006</ele><time>2026-04-26T12:29:47.832Z</time></trkpt><trkpt lat="44.3065254" lon="9.8636086"><ele>502.0</ele><time>2026-04-26T12:29:48.831Z</time></trkpt><trkpt lat="44.3066238" lon="9.8636786"><ele>502.0</ele><time>2026-04-26T12:29:49.831Z</time></trkpt><trkpt lat="44.3067436" lon="9.8637376"><ele>502.0</ele><time>2026-04-26T12:29:50.831Z</time></trkpt><trkpt lat="44.306872" lon="9.8637846"><ele>502.0</ele><time>2026-04-26T12:29:51.831Z</time></trkpt><trkpt lat="44.3070006" lon="9.8638459"><ele>502.0</ele><time>2026-04-26T12:29:52.831Z</time></trkpt><trkpt lat="44.3071249" lon="9.8639124"><ele>502.0</ele><time>2026-04-26T12:29:53.831Z</time></trkpt><trkpt lat="44.3072416" lon="9.8639984"><ele>497.0</ele><time>2026-04-26T12:29:54.831Z</time></trkpt><trkpt lat="44.3073381" lon="9.8641098"><ele>492.0</ele><time>2026-04-26T12:29:55.831Z</time></trkpt><trkpt lat="44.3074117" lon="9.8642371"><ele>487.0</ele><time>2026-04-26T12:29:56.832Z</time></trkpt><trkpt lat="44.3074603" lon="9.8643773"><ele>482.0</ele><time>2026-04-26T12:29:57.831Z</time></trkpt><trkpt lat="44.3074857" lon="9.8645325"><ele>482.0</ele><time>2026-04-26T12:29:58.831Z</time></trkpt><trkpt lat="44.3074887" lon="9.8646969"><ele>482.00000000000006</ele><time>2026-04-26T12:29:59.832Z</time></trkpt><trkpt lat="44.3074574" lon="9.8648527"><ele>482.00000000000006</ele><time>2026-04-26T12:30:00.832Z</time></trkpt><trkpt lat="44.3074525" lon="9.8649845"><ele>482.0</ele><time>2026-04-26T12:30:01.832Z</time></trkpt><trkpt lat="44.3074623" lon="9.8651204"><ele>482.0</ele><time>2026-04-26T12:30:02.832Z</time></trkpt><trkpt lat="44.307503" lon="9.8652312"><ele>484.75</ele><time>2026-04-26T12:30:03.832Z</time></trkpt><trkpt lat="44.3076126" lon="9.8653605"><ele>487.5</ele><time>2026-04-26T12:30:04.831Z</time></trkpt><trkpt lat="44.307657" lon="9.8655063"><ele>490.25</ele><time>2026-04-26T12:30:05.831Z</time></trkpt><trkpt lat="44.3076907" lon="9.8656665"><ele>493.0</ele><time>2026-04-26T12:30:06.831Z</time></trkpt><trkpt lat="44.3077205" lon="9.8658363"><ele>496.25</ele><time>2026-04-26T12:30:07.831Z</time></trkpt><trkpt lat="44.3077767" lon="9.8659984"><ele>499.5</ele><time>2026-04-26T12:30:08.831Z</time></trkpt><trkpt lat="44.3078222" lon="9.8661713"><ele>502.75</ele><time>2026-04-26T12:30:09.832Z</time></trkpt><trkpt lat="44.3078819" lon="9.8663387"><ele>506.0</ele><time>2026-04-26T12:30:10.833Z</time></trkpt><trkpt lat="44.3079117" lon="9.8665236"><ele>506.0</ele><time>2026-04-26T12:30:11.832Z</time></trkpt><trkpt lat="44.30794" lon="9.8667088"><ele>506.0</ele><time>2026-04-26T12:30:12.832Z</time></trkpt><trkpt lat="44.3079672" lon="9.866897"><ele>506.0</ele><time>2026-04-26T12:30:13.832Z</time></trkpt><trkpt lat="44.3079931" lon="9.8670877"><ele>506.0</ele><time>2026-04-26T12:30:14.831Z</time></trkpt><trkpt lat="44.3080323" lon="9.8672526"><ele>500.5</ele><time>2026-04-26T12:30:15.831Z</time></trkpt><trkpt lat="44.3080953" lon="9.8674088"><ele>495.0</ele><time>2026-04-26T12:30:16.831Z</time></trkpt><trkpt lat="44.308179" lon="9.8675549"><ele>489.5</ele><time>2026-04-26T12:30:17.831Z</time></trkpt><trkpt lat="44.3082712" lon="9.8676976"><ele>484.0</ele><time>2026-04-26T12:30:18.833Z</time></trkpt><trkpt lat="44.3083646" lon="9.8678364"><ele>484.0</ele><time>2026-04-26T12:30:19.832Z</time></trkpt><trkpt lat="44.3084509" lon="9.8679806"><ele>484.0</ele><time>2026-04-26T12:30:20.832Z</time></trkpt><trkpt lat="44.308515" lon="9.8681375"><ele>484.0</ele><time>2026-04-26T12:30:21.831Z</time></trkpt><trkpt lat="44.3085458" lon="9.8683143"><ele>484.0</ele><time>2026-04-26T12:30:22.831Z</time></trkpt><trkpt lat="44.3085943" lon="9.8684871"><ele>488.5</ele><time>2026-04-26T12:30:23.831Z</time></trkpt><trkpt lat="44.3086692" lon="9.8686511"><ele>493.0</ele><time>2026-04-26T12:30:24.831Z</time></trkpt><trkpt lat="44.3087516" lon="9.8688231"><ele>497.5</ele><time>2026-04-26T12:30:25.831Z</time></trkpt><trkpt lat="44.308855" lon="9.8689854"><ele>502.0</ele><time>2026-04-26T12:30:26.831Z</time></trkpt><trkpt lat="44.3089547" lon="9.8691486"><ele>493.0</ele><time>2026-04-26T12:30:27.831Z</time></trkpt><trkpt lat="44.3090505" lon="9.8693088"><ele>484.0</ele><time>2026-04-26T12:30:28.832Z</time></trkpt><trkpt lat="44.3091397" lon="9.8694662"><ele>475.0</ele><time>2026-04-26T12:30:29.832Z</time></trkpt><trkpt lat="44.3092212" lon="9.8696218"><ele>466.0</ele><time>2026-04-26T12:30:30.833Z</time></trkpt><trkpt lat="44.309302" lon="9.8697748"><ele>466.0</ele><time>2026-04-26T12:30:31.832Z</time></trkpt><trkpt lat="44.3093903" lon="9.8699295"><ele>466.0</ele><time>2026-04-26T12:30:32.832Z</time></trkpt><trkpt lat="44.3094522" lon="9.870094"><ele>466.0</ele><time>2026-04-26T12:30:33.831Z</time></trkpt><trkpt lat="44.3094841" lon="9.8702841"><ele>466.0</ele><time>2026-04-26T12:30:34.831Z</time></trkpt><trkpt lat="44.3095053" lon="9.8704841"><ele>463.75</ele><time>2026-04-26T12:30:35.831Z</time></trkpt><trkpt lat="44.3095452" lon="9.8706692"><ele>461.5</ele><time>2026-04-26T12:30:36.831Z</time></trkpt><trkpt lat="44.3096139" lon="9.8708222"><ele>459.25</ele><time>2026-04-26T12:30:37.831Z</time></trkpt><trkpt lat="44.3096752" lon="9.8709724"><ele>457.0</ele><time>2026-04-26T12:30:38.831Z</time></trkpt><trkpt lat="44.3097525" lon="9.8711025"><ele>457.0</ele><time>2026-04-26T12:30:39.832Z</time></trkpt><trkpt lat="44.3098558" lon="9.871197"><ele>457.0</ele><time>2026-04-26T12:30:40.831Z</time></trkpt><trkpt lat="44.3100665" lon="9.8711513"><ele>457.0</ele><time>2026-04-26T12:30:41.831Z</time></trkpt><trkpt lat="44.3101741" lon="9.8711883"><ele>457.0</ele><time>2026-04-26T12:30:42.832Z</time></trkpt><trkpt lat="44.3102739" lon="9.8712345"><ele>457.0</ele><time>2026-04-26T12:30:43.832Z</time></trkpt><trkpt lat="44.310349" lon="9.8712898"><ele>457.00000000000006</ele><time>2026-04-26T12:30:44.833Z</time></trkpt><trkpt lat="44.3103935" lon="9.8714212"><ele>457.00000000000006</ele><time>2026-04-26T12:30:45.832Z</time></trkpt><trkpt lat="44.3104211" lon="9.871566"><ele>457.0</ele><time>2026-04-26T12:30:46.832Z</time></trkpt><trkpt lat="44.3104222" lon="9.871718"><ele>457.0</ele><time>2026-04-26T12:30:47.83Z</time></trkpt><trkpt lat="44.3103904" lon="9.8718686"><ele>459.40000000000003</ele><time>2026-04-26T12:30:48.831Z</time></trkpt><trkpt lat="44.310335" lon="9.8720185"><ele>461.80000000000007</ele><time>2026-04-26T12:30:49.831Z</time></trkpt><trkpt lat="44.3103123" lon="9.8721602"><ele>464.2</ele><time>2026-04-26T12:30:50.831Z</time></trkpt><trkpt lat="44.3103214" lon="9.8723005"><ele>466.6</ele><time>2026-04-26T12:30:51.83Z</time></trkpt><trkpt lat="44.3103274" lon="9.8724502"><ele>469.0</ele><time>2026-04-26T12:30:52.83Z</time></trkpt><trkpt lat="44.3104143" lon="9.8725734"><ele>471.5</ele><time>2026-04-26T12:30:53.83Z</time></trkpt><trkpt lat="44.3104448" lon="9.872725"><ele>474.0</ele><time>2026-04-26T12:30:54.83Z</time></trkpt><trkpt lat="44.3104564" lon="9.8728796"><ele>476.5</ele><time>2026-04-26T12:30:55.831Z</time></trkpt><trkpt lat="44.3104409" lon="9.8730551"><ele>479.0</ele><time>2026-04-26T12:30:56.831Z</time></trkpt><trkpt lat="44.3104342" lon="9.8732072"><ele>479.0</ele><time>2026-04-26T12:30:57.831Z</time></trkpt><trkpt lat="44.3104253" lon="9.8733599"><ele>479.0</ele><time>2026-04-26T12:30:58.83Z</time></trkpt><trkpt lat="44.3104818" lon="9.873461"><ele>479.0</ele><time>2026-04-26T12:30:59.83Z</time></trkpt><trkpt lat="44.3105308" lon="9.8735567"><ele>479.0</ele><time>2026-04-26T12:31:00.83Z</time></trkpt><trkpt lat="44.3106464" lon="9.8735886"><ele>479.0</ele><time>2026-04-26T12:31:01.831Z</time></trkpt><trkpt lat="44.3107585" lon="9.8735959"><ele>470.25</ele><time>2026-04-26T12:31:02.83Z</time></trkpt><trkpt lat="44.3108748" lon="9.8735921"><ele>461.5</ele><time>2026-04-26T12:31:03.83Z</time></trkpt><trkpt lat="44.3109827" lon="9.8736029"><ele>452.75</ele><time>2026-04-26T12:31:04.83Z</time></trkpt><trkpt lat="44.3110863" lon="9.8736781"><ele>444.0</ele><time>2026-04-26T12:31:05.831Z</time></trkpt><trkpt lat="44.3112206" lon="9.8737681"><ele>444.0</ele><time>2026-04-26T12:31:06.831Z</time></trkpt><trkpt lat="44.3112727" lon="9.8739751"><ele>444.0</ele><time>2026-04-26T12:31:07.831Z</time></trkpt><trkpt lat="44.3113681" lon="9.87409"><ele>444.0</ele><time>2026-04-26T12:31:08.831Z</time></trkpt><trkpt lat="44.3114283" lon="9.8742389"><ele>444.0</ele><time>2026-04-26T12:31:09.831Z</time></trkpt><trkpt lat="44.311476" lon="9.8743913"><ele>434.5</ele><time>2026-04-26T12:31:10.83Z</time></trkpt><trkpt lat="44.3115281" lon="9.8745447"><ele>425.0</ele><time>2026-04-26T12:31:11.83Z</time></trkpt><trkpt lat="44.311557" lon="9.8747068"><ele>415.5</ele><time>2026-04-26T12:31:12.83Z</time></trkpt><trkpt lat="44.3115658" lon="9.8748638"><ele>406.0</ele><time>2026-04-26T12:31:13.83Z</time></trkpt><trkpt lat="44.3115398" lon="9.8750168"><ele>408.5</ele><time>2026-04-26T12:31:14.83Z</time></trkpt><trkpt lat="44.3115069" lon="9.875164"><ele>411.0</ele><time>2026-04-26T12:31:15.83Z</time></trkpt><trkpt lat="44.3114878" lon="9.8753241"><ele>413.5</ele><time>2026-04-26T12:31:16.83Z</time></trkpt><trkpt lat="44.3115246" lon="9.8754828"><ele>416.0</ele><time>2026-04-26T12:31:17.831Z</time></trkpt><trkpt lat="44.3115801" lon="9.8756431"><ele>416.0</ele><time>2026-04-26T12:31:18.83Z</time></trkpt><trkpt lat="44.3116697" lon="9.8757873"><ele>416.0</ele><time>2026-04-26T12:31:19.83Z</time></trkpt><trkpt lat="44.3118062" lon="9.875882"><ele>416.0</ele><time>2026-04-26T12:31:20.831Z</time></trkpt><trkpt lat="44.3118903" lon="9.8760232"><ele>416.0</ele><time>2026-04-26T12:31:21.831Z</time></trkpt><trkpt lat="44.3119573" lon="9.8761804"><ele>419.5</ele><time>2026-04-26T12:31:22.832Z</time></trkpt><trkpt lat="44.3119986" lon="9.8763492"><ele>423.0</ele><time>2026-04-26T12:31:23.831Z</time></trkpt><trkpt lat="44.3120242" lon="9.8765091"><ele>426.5</ele><time>2026-04-26T12:31:24.83Z</time></trkpt><trkpt lat="44.3120233" lon="9.8766669"><ele>430.0</ele><time>2026-04-26T12:31:25.83Z</time></trkpt><trkpt lat="44.3120361" lon="9.8768236"><ele>433.0</ele><time>2026-04-26T12:31:26.831Z</time></trkpt><trkpt lat="44.3120276" lon="9.8769803"><ele>436.0</ele><time>2026-04-26T12:31:27.83Z</time></trkpt><trkpt lat="44.3120364" lon="9.877132"><ele>439.0</ele><time>2026-04-26T12:31:28.831Z</time></trkpt><trkpt lat="44.3121415" lon="9.877302"><ele>442.0</ele><time>2026-04-26T12:31:29.83Z</time></trkpt><trkpt lat="44.3122202" lon="9.8774567"><ele>433.25</ele><time>2026-04-26T12:31:30.83Z</time></trkpt><trkpt lat="44.3122556" lon="9.8776157"><ele>424.5</ele><time>2026-04-26T12:31:31.83Z</time></trkpt><trkpt lat="44.3122837" lon="9.8777678"><ele>415.75</ele><time>2026-04-26T12:31:32.83Z</time></trkpt><trkpt lat="44.3123071" lon="9.8779195"><ele>407.0</ele><time>2026-04-26T12:31:33.83Z</time></trkpt><trkpt lat="44.3123703" lon="9.8780474"><ele>407.0</ele><time>2026-04-26T12:31:34.831Z</time></trkpt><trkpt lat="44.3124611" lon="9.8781486"><ele>407.0</ele><time>2026-04-26T12:31:35.831Z</time></trkpt><trkpt lat="44.3125535" lon="9.8782531"><ele>407.0</ele><time>2026-04-26T12:31:36.831Z</time></trkpt><trkpt lat="44.3126555" lon="9.8783593"><ele>407.0</ele><time>2026-04-26T12:31:37.83Z</time></trkpt><trkpt lat="44.3127205" lon="9.8784821"><ele>412.75</ele><time>2026-04-26T12:31:38.831Z</time></trkpt><trkpt lat="44.3127947" lon="9.8786207"><ele>418.5</ele><time>2026-04-26T12:31:39.83Z</time></trkpt><trkpt lat="44.3128189" lon="9.8787869"><ele>424.25</ele><time>2026-04-26T12:31:40.83Z</time></trkpt><trkpt lat="44.3128282" lon="9.8789491"><ele>430.0</ele><time>2026-04-26T12:31:41.83Z</time></trkpt><trkpt lat="44.3128565" lon="9.8790874"><ele>430.0</ele><time>2026-04-26T12:31:42.83Z</time></trkpt><trkpt lat="44.312913" lon="9.8792133"><ele>430.0</ele><time>2026-04-26T12:31:43.832Z</time></trkpt><trkpt lat="44.312956" lon="9.8793352"><ele>430.0</ele><time>2026-04-26T12:31:44.831Z</time></trkpt><trkpt lat="44.3131472" lon="9.8793766"><ele>430.0</ele><time>2026-04-26T12:31:45.83Z</time></trkpt><trkpt lat="44.3132386" lon="9.8794945"><ele>419.0</ele><time>2026-04-26T12:31:46.83Z</time></trkpt><trkpt lat="44.3133489" lon="9.8796019"><ele>408.0</ele><time>2026-04-26T12:31:47.83Z</time></trkpt><trkpt lat="44.3134321" lon="9.8797375"><ele>397.0</ele><time>2026-04-26T12:31:48.83Z</time></trkpt><trkpt lat="44.3135111" lon="9.8798735"><ele>386.0</ele><time>2026-04-26T12:31:49.83Z</time></trkpt><trkpt lat="44.3135539" lon="9.8800207"><ele>386.25</ele><time>2026-04-26T12:31:50.83Z</time></trkpt><trkpt lat="44.3135712" lon="9.8801757"><ele>386.5</ele><time>2026-04-26T12:31:51.83Z</time></trkpt><trkpt lat="44.313551" lon="9.880341"><ele>386.75</ele><time>2026-04-26T12:31:52.832Z</time></trkpt><trkpt lat="44.3135171" lon="9.8805137"><ele>387.0</ele><time>2026-04-26T12:31:53.83Z</time></trkpt><trkpt lat="44.3134826" lon="9.8806937"><ele>387.0</ele><time>2026-04-26T12:31:54.831Z</time></trkpt><trkpt lat="44.3134479" lon="9.8808782"><ele>387.0</ele><time>2026-04-26T12:31:55.83Z</time></trkpt><trkpt lat="44.3134072" lon="9.8810615"><ele>387.0</ele><time>2026-04-26T12:31:56.83Z</time></trkpt><trkpt lat="44.3133591" lon="9.8812508"><ele>387.0</ele><time>2026-04-26T12:31:57.831Z</time></trkpt><trkpt lat="44.313299" lon="9.8814223"><ele>384.25</ele><time>2026-04-26T12:31:58.83Z</time></trkpt><trkpt lat="44.3132238" lon="9.8815847"><ele>381.5</ele><time>2026-04-26T12:31:59.83Z</time></trkpt><trkpt lat="44.3131509" lon="9.8817411"><ele>378.75</ele><time>2026-04-26T12:32:00.831Z</time></trkpt><trkpt lat="44.3130894" lon="9.8818991"><ele>376.0</ele><time>2026-04-26T12:32:01.831Z</time></trkpt><trkpt lat="44.3130622" lon="9.8820349"><ele>376.75</ele><time>2026-04-26T12:32:02.831Z</time></trkpt><trkpt lat="44.3130529" lon="9.882179"><ele>377.5</ele><time>2026-04-26T12:32:03.832Z</time></trkpt><trkpt lat="44.3130813" lon="9.8823271"><ele>378.25</ele><time>2026-04-26T12:32:04.831Z</time></trkpt><trkpt lat="44.3131508" lon="9.882484"><ele>379.0</ele><time>2026-04-26T12:32:05.83Z</time></trkpt><trkpt lat="44.3132226" lon="9.8826441"><ele>379.0</ele><time>2026-04-26T12:32:06.831Z</time></trkpt><trkpt lat="44.3132809" lon="9.8827924"><ele>379.0</ele><time>2026-04-26T12:32:07.831Z</time></trkpt><trkpt lat="44.3133376" lon="9.8829094"><ele>379.0</ele><time>2026-04-26T12:32:08.83Z</time></trkpt><trkpt lat="44.3134015" lon="9.8829731"><ele>379.0</ele><time>2026-04-26T12:32:09.83Z</time></trkpt><trkpt lat="44.3134982" lon="9.8829932"><ele>379.0</ele><time>2026-04-26T12:32:10.831Z</time></trkpt><trkpt lat="44.313577" lon="9.882979"><ele>379.0</ele><time>2026-04-26T12:32:11.83Z</time></trkpt><trkpt lat="44.3136721" lon="9.882933"><ele>379.0</ele><time>2026-04-26T12:32:12.83Z</time></trkpt><trkpt lat="44.3137533" lon="9.8829426"><ele>379.0</ele><time>2026-04-26T12:32:13.83Z</time></trkpt><trkpt lat="44.3138488" lon="9.8829681"><ele>379.0</ele><time>2026-04-26T12:32:14.831Z</time></trkpt><trkpt lat="44.3139366" lon="9.8830173"><ele>379.0</ele><time>2026-04-26T12:32:15.831Z</time></trkpt><trkpt lat="44.313989" lon="9.8831658"><ele>379.0</ele><time>2026-04-26T12:32:16.831Z</time></trkpt><trkpt lat="44.3138146" lon="9.8833869"><ele>379.0</ele><time>2026-04-26T12:32:17.831Z</time></trkpt><trkpt lat="44.3138032" lon="9.8835349"><ele>379.0</ele><time>2026-04-26T12:32:18.83Z</time></trkpt><trkpt lat="44.3137781" lon="9.8836985"><ele>382.5</ele><time>2026-04-26T12:32:19.83Z</time></trkpt><trkpt lat="44.3137802" lon="9.883865"><ele>386.0</ele><time>2026-04-26T12:32:20.83Z</time></trkpt><trkpt lat="44.3137949" lon="9.8840562"><ele>389.5</ele><time>2026-04-26T12:32:21.83Z</time></trkpt><trkpt lat="44.3138173" lon="9.8842606"><ele>393.0</ele><time>2026-04-26T12:32:22.831Z</time></trkpt><trkpt lat="44.3138251" lon="9.8844652"><ele>394.0</ele><time>2026-04-26T12:32:23.83Z</time></trkpt><trkpt lat="44.3138218" lon="9.8846646"><ele>395.0</ele><time>2026-04-26T12:32:24.83Z</time></trkpt><trkpt lat="44.3138337" lon="9.8848665"><ele>396.0</ele><time>2026-04-26T12:32:25.83Z</time></trkpt><trkpt lat="44.3138399" lon="9.8850743"><ele>397.0</ele><time>2026-04-26T12:32:26.83Z</time></trkpt><trkpt lat="44.3138426" lon="9.8852732"><ele>394.25</ele><time>2026-04-26T12:32:27.83Z</time></trkpt><trkpt lat="44.3138529" lon="9.8854509"><ele>391.5</ele><time>2026-04-26T12:32:28.83Z</time></trkpt><trkpt lat="44.3138922" lon="9.8856148"><ele>388.75</ele><time>2026-04-26T12:32:29.83Z</time></trkpt><trkpt lat="44.313944" lon="9.8857694"><ele>386.0</ele><time>2026-04-26T12:32:30.83Z</time></trkpt><trkpt lat="44.3140247" lon="9.8859034"><ele>380.6</ele><time>2026-04-26T12:32:31.83Z</time></trkpt><trkpt lat="44.3141032" lon="9.8860078"><ele>375.20000000000005</ele><time>2026-04-26T12:32:32.832Z</time></trkpt><trkpt lat="44.3141966" lon="9.8860813"><ele>369.79999999999995</ele><time>2026-04-26T12:32:33.831Z</time></trkpt><trkpt lat="44.3142914" lon="9.8861462"><ele>364.4</ele><time>2026-04-26T12:32:34.83Z</time></trkpt><trkpt lat="44.3143727" lon="9.8862191"><ele>359.0</ele><time>2026-04-26T12:32:35.83Z</time></trkpt><trkpt lat="44.3144365" lon="9.8863163"><ele>359.0</ele><time>2026-04-26T12:32:36.83Z</time></trkpt><trkpt lat="44.3144885" lon="9.8864371"><ele>359.0</ele><time>2026-04-26T12:32:37.83Z</time></trkpt><trkpt lat="44.3145137" lon="9.8865716"><ele>359.0</ele><time>2026-04-26T12:32:38.832Z</time></trkpt><trkpt lat="44.3145153" lon="9.8867086"><ele>359.0</ele><time>2026-04-26T12:32:39.83Z</time></trkpt><trkpt lat="44.3144976" lon="9.8868519"><ele>359.0</ele><time>2026-04-26T12:32:40.83Z</time></trkpt><trkpt lat="44.3144567" lon="9.8869958"><ele>357.2</ele><time>2026-04-26T12:32:41.831Z</time></trkpt><trkpt lat="44.3144058" lon="9.8871437"><ele>355.4</ele><time>2026-04-26T12:32:42.83Z</time></trkpt><trkpt lat="44.3143378" lon="9.8872766"><ele>353.6</ele><time>2026-04-26T12:32:43.831Z</time></trkpt><trkpt lat="44.3142609" lon="9.8873938"><ele>351.8</ele><time>2026-04-26T12:32:44.831Z</time></trkpt><trkpt lat="44.3142223" lon="9.8874902"><ele>350.0</ele><time>2026-04-26T12:32:45.83Z</time></trkpt><trkpt lat="44.3141882" lon="9.8876005"><ele>350.0</ele><time>2026-04-26T12:32:46.83Z</time></trkpt><trkpt lat="44.3142099" lon="9.8877069"><ele>350.0</ele><time>2026-04-26T12:32:47.83Z</time></trkpt><trkpt lat="44.3142381" lon="9.8878013"><ele>350.0</ele><time>2026-04-26T12:32:48.831Z</time></trkpt><trkpt lat="44.314292" lon="9.8878944"><ele>350.0</ele><time>2026-04-26T12:32:49.83Z</time></trkpt><trkpt lat="44.3143652" lon="9.8879593"><ele>350.0</ele><time>2026-04-26T12:32:50.83Z</time></trkpt><trkpt lat="44.3144439" lon="9.8880015"><ele>350.0</ele><time>2026-04-26T12:32:51.83Z</time></trkpt><trkpt lat="44.3145136" lon="9.8880249"><ele>350.0</ele><time>2026-04-26T12:32:52.831Z</time></trkpt><trkpt lat="44.3145863" lon="9.8880364"><ele>350.0</ele><time>2026-04-26T12:32:53.831Z</time></trkpt><trkpt lat="44.3146555" lon="9.8880734"><ele>350.0</ele><time>2026-04-26T12:32:54.832Z</time></trkpt><trkpt lat="44.3147211" lon="9.8881297"><ele>350.0</ele><time>2026-04-26T12:32:55.831Z</time></trkpt><trkpt lat="44.3147479" lon="9.8882191"><ele>350.0</ele><time>2026-04-26T12:32:56.83Z</time></trkpt><trkpt lat="44.3147587" lon="9.8883263"><ele>350.0</ele><time>2026-04-26T12:32:58.83Z</time></trkpt><trkpt lat="44.3147798" lon="9.8884635"><ele>350.0</ele><time>2026-04-26T12:33:08.83Z</time></trkpt><trkpt lat="44.3147848" lon="9.8885626"><ele>350.0</ele><time>2026-04-26T12:33:10.83Z</time></trkpt><trkpt lat="44.3148005" lon="9.8884746"><ele>350.0</ele><time>2026-04-26T12:35:47.829Z</time></trkpt><trkpt lat="44.3147443" lon="9.8884154"><ele>350.0</ele><time>2026-04-26T12:35:54.874Z</time></trkpt><trkpt lat="44.3146781" lon="9.8884237"><ele>350.0</ele><time>2026-04-26T12:35:59.893Z</time></trkpt><trkpt lat="44.3148508" lon="9.8883515"><ele>346.6</ele><time>2026-04-26T12:38:36.591Z</time></trkpt><trkpt lat="44.3148281" lon="9.8884361"><ele>343.2</ele><time>2026-04-26T12:39:33.848Z</time></trkpt><trkpt lat="44.3147803" lon="9.888499"><ele>339.79999999999995</ele><time>2026-04-26T12:39:40.826Z</time></trkpt><trkpt lat="44.314904" lon="9.8886846"><ele>336.4</ele><time>2026-04-26T12:47:50.827Z</time></trkpt><trkpt lat="44.3149311" lon="9.8887711"><ele>333.0</ele><time>2026-04-26T12:47:51.826Z</time></trkpt><trkpt lat="44.3149492" lon="9.8889345"><ele>333.0</ele><time>2026-04-26T12:47:53.826Z</time></trkpt><trkpt lat="44.3149696" lon="9.8890761"><ele>333.0</ele><time>2026-04-26T12:47:55.826Z</time></trkpt><trkpt lat="44.314969" lon="9.8891696"><ele>333.0</ele><time>2026-04-26T12:47:56.826Z</time></trkpt><trkpt lat="44.314963" lon="9.8892743"><ele>333.0</ele><time>2026-04-26T12:47:57.827Z</time></trkpt><trkpt lat="44.3149506" lon="9.8893897"><ele>333.0</ele><time>2026-04-26T12:47:58.826Z</time></trkpt><trkpt lat="44.3149257" lon="9.889512"><ele>333.0</ele><time>2026-04-26T12:47:59.826Z</time></trkpt><trkpt lat="44.314883" lon="9.8896485"><ele>330.79999999999995</ele><time>2026-04-26T12:48:00.827Z</time></trkpt><trkpt lat="44.3148312" lon="9.8897789"><ele>328.6</ele><time>2026-04-26T12:48:01.826Z</time></trkpt><trkpt lat="44.3147803" lon="9.8899075"><ele>326.4</ele><time>2026-04-26T12:48:02.826Z</time></trkpt><trkpt lat="44.3147356" lon="9.8900271"><ele>324.20000000000005</ele><time>2026-04-26T12:48:03.827Z</time></trkpt><trkpt lat="44.314707" lon="9.8901279"><ele>322.0</ele><time>2026-04-26T12:48:04.826Z</time></trkpt><trkpt lat="44.314701" lon="9.8902199"><ele>319.20000000000005</ele><time>2026-04-26T12:48:05.827Z</time></trkpt><trkpt lat="44.3147861" lon="9.8903596"><ele>316.40000000000003</ele><time>2026-04-26T12:48:07.826Z</time></trkpt><trkpt lat="44.3148562" lon="9.8903999"><ele>313.6</ele><time>2026-04-26T12:48:08.827Z</time></trkpt><trkpt lat="44.3149624" lon="9.8904132"><ele>310.8</ele><time>2026-04-26T12:48:09.826Z</time></trkpt><trkpt lat="44.3150737" lon="9.8904064"><ele>308.0</ele><time>2026-04-26T12:48:10.826Z</time></trkpt><trkpt lat="44.3151882" lon="9.8903917"><ele>308.0</ele><time>2026-04-26T12:48:11.827Z</time></trkpt><trkpt lat="44.3152959" lon="9.8903738"><ele>308.0</ele><time>2026-04-26T12:48:12.826Z</time></trkpt><trkpt lat="44.3154016" lon="9.8903663"><ele>308.0</ele><time>2026-04-26T12:48:13.827Z</time></trkpt><trkpt lat="44.3154981" lon="9.8903937"><ele>308.0</ele><time>2026-04-26T12:48:14.827Z</time></trkpt><trkpt lat="44.3155743" lon="9.8904649"><ele>308.0</ele><time>2026-04-26T12:48:15.827Z</time></trkpt><trkpt lat="44.3156282" lon="9.8905706"><ele>310.0</ele><time>2026-04-26T12:48:16.827Z</time></trkpt><trkpt lat="44.3156742" lon="9.8906957"><ele>312.0</ele><time>2026-04-26T12:48:17.828Z</time></trkpt><trkpt lat="44.3157157" lon="9.8908378"><ele>314.0</ele><time>2026-04-26T12:48:18.826Z</time></trkpt><trkpt lat="44.3157388" lon="9.8909856"><ele>316.0</ele><time>2026-04-26T12:48:19.826Z</time></trkpt><trkpt lat="44.3157334" lon="9.8911286"><ele>318.0</ele><time>2026-04-26T12:48:20.827Z</time></trkpt><trkpt lat="44.3156928" lon="9.8912487"><ele>314.0</ele><time>2026-04-26T12:48:21.826Z</time></trkpt><trkpt lat="44.3156189" lon="9.891331"><ele>310.0</ele><time>2026-04-26T12:48:22.827Z</time></trkpt><trkpt lat="44.3155257" lon="9.8913892"><ele>306.0</ele><time>2026-04-26T12:48:23.827Z</time></trkpt><trkpt lat="44.3154211" lon="9.8914332"><ele>302.0</ele><time>2026-04-26T12:48:24.826Z</time></trkpt><trkpt lat="44.3153112" lon="9.8914763"><ele>298.0</ele><time>2026-04-26T12:48:25.827Z</time></trkpt><trkpt lat="44.3152004" lon="9.891518"><ele>297.8</ele><time>2026-04-26T12:48:26.827Z</time></trkpt><trkpt lat="44.3150865" lon="9.8915535"><ele>297.6</ele><time>2026-04-26T12:48:27.826Z</time></trkpt><trkpt lat="44.3149768" lon="9.8915819"><ele>297.4</ele><time>2026-04-26T12:48:28.827Z</time></trkpt><trkpt lat="44.3148752" lon="9.891617"><ele>297.2</ele><time>2026-04-26T12:48:29.827Z</time></trkpt><trkpt lat="44.3147905" lon="9.8916767"><ele>297.0</ele><time>2026-04-26T12:48:30.826Z</time></trkpt><trkpt lat="44.3147301" lon="9.8917562"><ele>294.25</ele><time>2026-04-26T12:48:31.826Z</time></trkpt><trkpt lat="44.3147216" lon="9.8918958"><ele>291.5</ele><time>2026-04-26T12:48:32.826Z</time></trkpt><trkpt lat="44.3147286" lon="9.8920416"><ele>288.75</ele><time>2026-04-26T12:48:33.826Z</time></trkpt><trkpt lat="44.3147474" lon="9.8922065"><ele>286.0</ele><time>2026-04-26T12:48:34.827Z</time></trkpt><trkpt lat="44.3147751" lon="9.8923798"><ele>286.0</ele><time>2026-04-26T12:48:35.826Z</time></trkpt><trkpt lat="44.3148032" lon="9.8925687"><ele>286.0</ele><time>2026-04-26T12:48:36.826Z</time></trkpt><trkpt lat="44.3148432" lon="9.8927562"><ele>286.0</ele><time>2026-04-26T12:48:37.827Z</time></trkpt><trkpt lat="44.3148852" lon="9.8929355"><ele>286.0</ele><time>2026-04-26T12:48:38.826Z</time></trkpt><trkpt lat="44.3149363" lon="9.8931061"><ele>285.25</ele><time>2026-04-26T12:48:39.827Z</time></trkpt><trkpt lat="44.3150044" lon="9.8932603"><ele>284.5</ele><time>2026-04-26T12:48:40.827Z</time></trkpt><trkpt lat="44.3150772" lon="9.8934024"><ele>283.75</ele><time>2026-04-26T12:48:41.827Z</time></trkpt><trkpt lat="44.3151489" lon="9.8935381"><ele>283.0</ele><time>2026-04-26T12:48:42.826Z</time></trkpt><trkpt lat="44.3152206" lon="9.893671"><ele>286.5</ele><time>2026-04-26T12:48:43.826Z</time></trkpt><trkpt lat="44.3152942" lon="9.8937953"><ele>290.0</ele><time>2026-04-26T12:48:44.827Z</time></trkpt><trkpt lat="44.3153715" lon="9.8939141"><ele>293.5</ele><time>2026-04-26T12:48:45.826Z</time></trkpt><trkpt lat="44.3154513" lon="9.8940279"><ele>297.0</ele><time>2026-04-26T12:48:46.826Z</time></trkpt><trkpt lat="44.3155263" lon="9.8941351"><ele>290.8</ele><time>2026-04-26T12:48:47.828Z</time></trkpt><trkpt lat="44.3156019" lon="9.8942487"><ele>284.6</ele><time>2026-04-26T12:48:48.826Z</time></trkpt><trkpt lat="44.3156637" lon="9.8943674"><ele>278.40000000000003</ele><time>2026-04-26T12:48:49.828Z</time></trkpt><trkpt lat="44.3156961" lon="9.8945043"><ele>272.2</ele><time>2026-04-26T12:48:50.826Z</time></trkpt><trkpt lat="44.3157016" lon="9.8946217"><ele>266.0</ele><time>2026-04-26T12:48:51.826Z</time></trkpt><trkpt lat="44.315716" lon="9.8947199"><ele>265.5</ele><time>2026-04-26T12:48:52.826Z</time></trkpt><trkpt lat="44.315754" lon="9.8948008"><ele>265.0</ele><time>2026-04-26T12:48:53.826Z</time></trkpt><trkpt lat="44.3158213" lon="9.8948493"><ele>264.5</ele><time>2026-04-26T12:48:54.826Z</time></trkpt><trkpt lat="44.3158995" lon="9.8948464"><ele>264.0</ele><time>2026-04-26T12:48:55.828Z</time></trkpt><trkpt lat="44.3159894" lon="9.8947983"><ele>263.5</ele><time>2026-04-26T12:48:56.827Z</time></trkpt><trkpt lat="44.3160652" lon="9.8947148"><ele>263.0</ele><time>2026-04-26T12:48:57.828Z</time></trkpt><trkpt lat="44.3161307" lon="9.894623"><ele>263.0</ele><time>2026-04-26T12:48:58.826Z</time></trkpt><trkpt lat="44.3161943" lon="9.8945326"><ele>263.0</ele><time>2026-04-26T12:48:59.826Z</time></trkpt><trkpt lat="44.3161801" lon="9.8944002"><ele>263.0</ele><time>2026-04-26T12:49:00.826Z</time></trkpt><trkpt lat="44.3161711" lon="9.8942744"><ele>263.0</ele><time>2026-04-26T12:49:01.826Z</time></trkpt><trkpt lat="44.3161919" lon="9.8941556"><ele>263.0</ele><time>2026-04-26T12:49:02.827Z</time></trkpt><trkpt lat="44.3162386" lon="9.8940476"><ele>263.6</ele><time>2026-04-26T12:49:03.827Z</time></trkpt><trkpt lat="44.3163077" lon="9.8939871"><ele>264.20000000000005</ele><time>2026-04-26T12:49:04.826Z</time></trkpt><trkpt lat="44.3163978" lon="9.893976"><ele>264.8</ele><time>2026-04-26T12:49:05.826Z</time></trkpt><trkpt lat="44.3164852" lon="9.8940173"><ele>265.40000000000003</ele><time>2026-04-26T12:49:06.826Z</time></trkpt><trkpt lat="44.3165726" lon="9.8940686"><ele>266.0</ele><time>2026-04-26T12:49:07.827Z</time></trkpt><trkpt lat="44.3166665" lon="9.8941144"><ele>262.6</ele><time>2026-04-26T12:49:08.827Z</time></trkpt><trkpt lat="44.3167561" lon="9.8941239"><ele>259.20000000000005</ele><time>2026-04-26T12:49:09.826Z</time></trkpt><trkpt lat="44.3168345" lon="9.8941202"><ele>255.79999999999998</ele><time>2026-04-26T12:49:10.827Z</time></trkpt><trkpt lat="44.316906" lon="9.8940074"><ele>252.39999999999998</ele><time>2026-04-26T12:49:11.826Z</time></trkpt><trkpt lat="44.3169522" lon="9.893887"><ele>249.0</ele><time>2026-04-26T12:49:12.826Z</time></trkpt><trkpt lat="44.3170115" lon="9.8937683"><ele>249.0</ele><time>2026-04-26T12:49:13.826Z</time></trkpt><trkpt lat="44.3170965" lon="9.8936912"><ele>248.99999999999997</ele><time>2026-04-26T12:49:14.826Z</time></trkpt><trkpt lat="44.3171976" lon="9.8936448"><ele>248.99999999999997</ele><time>2026-04-26T12:49:15.827Z</time></trkpt><trkpt lat="44.3173091" lon="9.8936074"><ele>249.0</ele><time>2026-04-26T12:49:16.827Z</time></trkpt><trkpt lat="44.3174187" lon="9.8935589"><ele>249.0</ele><time>2026-04-26T12:49:17.827Z</time></trkpt><trkpt lat="44.3175266" lon="9.8934973"><ele>248.2</ele><time>2026-04-26T12:49:18.826Z</time></trkpt><trkpt lat="44.3176255" lon="9.8934157"><ele>247.39999999999998</ele><time>2026-04-26T12:49:19.826Z</time></trkpt><trkpt lat="44.3177141" lon="9.8933259"><ele>246.6</ele><time>2026-04-26T12:49:20.827Z</time></trkpt><trkpt lat="44.3177929" lon="9.8932625"><ele>245.8</ele><time>2026-04-26T12:49:21.826Z</time></trkpt><trkpt lat="44.3178614" lon="9.8932392"><ele>245.0</ele><time>2026-04-26T12:49:22.826Z</time></trkpt><trkpt lat="44.3179286" lon="9.8932616"><ele>245.0</ele><time>2026-04-26T12:49:23.826Z</time></trkpt><trkpt lat="44.3179915" lon="9.8933403"><ele>245.0</ele><time>2026-04-26T12:49:24.827Z</time></trkpt><trkpt lat="44.3180445" lon="9.8934429"><ele>245.0</ele><time>2026-04-26T12:49:25.826Z</time></trkpt><trkpt lat="44.3181105" lon="9.8935609"><ele>245.0</ele><time>2026-04-26T12:49:26.826Z</time></trkpt><trkpt lat="44.3181752" lon="9.8936964"><ele>245.0</ele><time>2026-04-26T12:49:27.826Z</time></trkpt><trkpt lat="44.3182418" lon="9.8938303"><ele>239.75</ele><time>2026-04-26T12:49:28.826Z</time></trkpt><trkpt lat="44.3183283" lon="9.8939556"><ele>234.5</ele><time>2026-04-26T12:49:29.827Z</time></trkpt><trkpt lat="44.3184237" lon="9.8940651"><ele>229.25</ele><time>2026-04-26T12:49:30.826Z</time></trkpt><trkpt lat="44.3185699" lon="9.8941354"><ele>224.0</ele><time>2026-04-26T12:49:31.826Z</time></trkpt><trkpt lat="44.318715" lon="9.8941962"><ele>223.66666666666669</ele><time>2026-04-26T12:49:32.827Z</time></trkpt><trkpt lat="44.3188605" lon="9.8942593"><ele>223.33333333333331</ele><time>2026-04-26T12:49:33.827Z</time></trkpt><trkpt lat="44.3190098" lon="9.894323"><ele>223.0</ele><time>2026-04-26T12:49:34.826Z</time></trkpt><trkpt lat="44.3191609" lon="9.8943918"><ele>220.0</ele><time>2026-04-26T12:49:35.826Z</time></trkpt><trkpt lat="44.3193165" lon="9.8944578"><ele>217.0</ele><time>2026-04-26T12:49:36.826Z</time></trkpt><trkpt lat="44.3194753" lon="9.8945234"><ele>214.0</ele><time>2026-04-26T12:49:37.826Z</time></trkpt><trkpt lat="44.3196383" lon="9.8945916"><ele>215.25</ele><time>2026-04-26T12:49:38.826Z</time></trkpt><trkpt lat="44.3197829" lon="9.8946543"><ele>216.5</ele><time>2026-04-26T12:49:39.826Z</time></trkpt><trkpt lat="44.3199022" lon="9.8947185"><ele>217.75</ele><time>2026-04-26T12:49:40.826Z</time></trkpt><trkpt lat="44.3199842" lon="9.8948065"><ele>219.0</ele><time>2026-04-26T12:49:41.826Z</time></trkpt><trkpt lat="44.3200346" lon="9.8949233"><ele>219.0</ele><time>2026-04-26T12:49:42.827Z</time></trkpt><trkpt lat="44.3200527" lon="9.8950573"><ele>218.99999999999997</ele><time>2026-04-26T12:49:43.827Z</time></trkpt><trkpt lat="44.3200486" lon="9.8952064"><ele>218.99999999999997</ele><time>2026-04-26T12:49:44.826Z</time></trkpt><trkpt lat="44.3200445" lon="9.8953721"><ele>219.0</ele><time>2026-04-26T12:49:45.828Z</time></trkpt><trkpt lat="44.3200472" lon="9.8955477"><ele>219.0</ele><time>2026-04-26T12:49:46.826Z</time></trkpt><trkpt lat="44.3200591" lon="9.8957387"><ele>217.25</ele><time>2026-04-26T12:49:47.827Z</time></trkpt><trkpt lat="44.3200784" lon="9.8959384"><ele>215.5</ele><time>2026-04-26T12:49:48.826Z</time></trkpt><trkpt lat="44.3201032" lon="9.8961495"><ele>213.75</ele><time>2026-04-26T12:49:49.827Z</time></trkpt><trkpt lat="44.3201283" lon="9.896356"><ele>212.0</ele><time>2026-04-26T12:49:50.825Z</time></trkpt><trkpt lat="44.3201504" lon="9.8965664"><ele>211.66666666666669</ele><time>2026-04-26T12:49:51.825Z</time></trkpt><trkpt lat="44.3201734" lon="9.8967789"><ele>211.33333333333331</ele><time>2026-04-26T12:49:52.825Z</time></trkpt><trkpt lat="44.3201998" lon="9.8969946"><ele>211.0</ele><time>2026-04-26T12:49:53.827Z</time></trkpt><trkpt lat="44.3202252" lon="9.897213"><ele>211.0</ele><time>2026-04-26T12:49:54.825Z</time></trkpt><trkpt lat="44.3202517" lon="9.897428"><ele>211.0</ele><time>2026-04-26T12:49:55.825Z</time></trkpt><trkpt lat="44.3202761" lon="9.8976444"><ele>211.0</ele><time>2026-04-26T12:49:56.826Z</time></trkpt><trkpt lat="44.3202982" lon="9.8978562"><ele>210.66666666666666</ele><time>2026-04-26T12:49:57.825Z</time></trkpt><trkpt lat="44.3203134" lon="9.8980656"><ele>210.33333333333331</ele><time>2026-04-26T12:49:58.825Z</time></trkpt><trkpt lat="44.3203165" lon="9.8982736"><ele>210.0</ele><time>2026-04-26T12:49:59.826Z</time></trkpt><trkpt lat="44.3202971" lon="9.8984869"><ele>209.75</ele><time>2026-04-26T12:50:00.825Z</time></trkpt><trkpt lat="44.3202816" lon="9.8986929"><ele>209.5</ele><time>2026-04-26T12:50:01.825Z</time></trkpt><trkpt lat="44.3202698" lon="9.8988901"><ele>209.25</ele><time>2026-04-26T12:50:02.825Z</time></trkpt><trkpt lat="44.3202984" lon="9.8990795"><ele>209.0</ele><time>2026-04-26T12:50:03.825Z</time></trkpt><trkpt lat="44.3203323" lon="9.8992649"><ele>208.25</ele><time>2026-04-26T12:50:04.826Z</time></trkpt><trkpt lat="44.3203721" lon="9.8994409"><ele>207.5</ele><time>2026-04-26T12:50:05.826Z</time></trkpt><trkpt lat="44.3204118" lon="9.8996261"><ele>206.75</ele><time>2026-04-26T12:50:06.826Z</time></trkpt><trkpt lat="44.3204566" lon="9.8998119"><ele>206.0</ele><time>2026-04-26T12:50:07.825Z</time></trkpt><trkpt lat="44.3205166" lon="9.8999855"><ele>207.25</ele><time>2026-04-26T12:50:08.825Z</time></trkpt><trkpt lat="44.3205887" lon="9.9001541"><ele>208.5</ele><time>2026-04-26T12:50:09.825Z</time></trkpt><trkpt lat="44.3206668" lon="9.9003323"><ele>209.75</ele><time>2026-04-26T12:50:10.826Z</time></trkpt><trkpt lat="44.320745" lon="9.9005129"><ele>211.0</ele><time>2026-04-26T12:50:11.826Z</time></trkpt><trkpt lat="44.3208247" lon="9.9007041"><ele>211.0</ele><time>2026-04-26T12:50:12.827Z</time></trkpt><trkpt lat="44.3208995" lon="9.900893"><ele>211.0</ele><time>2026-04-26T12:50:13.826Z</time></trkpt><trkpt lat="44.320969" lon="9.9010696"><ele>211.0</ele><time>2026-04-26T12:50:14.825Z</time></trkpt><trkpt lat="44.3210306" lon="9.9012314"><ele>211.0</ele><time>2026-04-26T12:50:15.825Z</time></trkpt><trkpt lat="44.3210811" lon="9.9013962"><ele>210.75</ele><time>2026-04-26T12:50:16.825Z</time></trkpt><trkpt lat="44.3211097" lon="9.9015603"><ele>210.5</ele><time>2026-04-26T12:50:17.826Z</time></trkpt><trkpt lat="44.3211152" lon="9.9017314"><ele>210.25</ele><time>2026-04-26T12:50:18.826Z</time></trkpt><trkpt lat="44.321117" lon="9.9019085"><ele>210.0</ele><time>2026-04-26T12:50:19.825Z</time></trkpt><trkpt lat="44.3211181" lon="9.9020938"><ele>209.25</ele><time>2026-04-26T12:50:20.825Z</time></trkpt><trkpt lat="44.32112" lon="9.9022905"><ele>208.5</ele><time>2026-04-26T12:50:21.825Z</time></trkpt><trkpt lat="44.3211196" lon="9.9024941"><ele>207.75</ele><time>2026-04-26T12:50:22.825Z</time></trkpt><trkpt lat="44.3211159" lon="9.9026967"><ele>207.0</ele><time>2026-04-26T12:50:23.826Z</time></trkpt><trkpt lat="44.3211177" lon="9.9028955"><ele>206.5</ele><time>2026-04-26T12:50:24.825Z</time></trkpt><trkpt lat="44.321129" lon="9.9030959"><ele>206.0</ele><time>2026-04-26T12:50:25.825Z</time></trkpt><trkpt lat="44.3211574" lon="9.9032913"><ele>205.5</ele><time>2026-04-26T12:50:26.827Z</time></trkpt><trkpt lat="44.3211991" lon="9.9034863"><ele>205.0</ele><time>2026-04-26T12:50:27.825Z</time></trkpt><trkpt lat="44.3212372" lon="9.9036822"><ele>204.25</ele><time>2026-04-26T12:50:28.825Z</time></trkpt><trkpt lat="44.3212708" lon="9.903867"><ele>203.5</ele><time>2026-04-26T12:50:29.826Z</time></trkpt><trkpt lat="44.3213004" lon="9.9040381"><ele>202.75</ele><time>2026-04-26T12:50:30.825Z</time></trkpt><trkpt lat="44.321332" lon="9.9042027"><ele>202.0</ele><time>2026-04-26T12:50:31.825Z</time></trkpt><trkpt lat="44.3213688" lon="9.9043576"><ele>202.0</ele><time>2026-04-26T12:50:32.826Z</time></trkpt><trkpt lat="44.3214227" lon="9.9044956"><ele>202.0</ele><time>2026-04-26T12:50:33.826Z</time></trkpt><trkpt lat="44.3214875" lon="9.9046347"><ele>202.0</ele><time>2026-04-26T12:50:34.825Z</time></trkpt><trkpt lat="44.3215703" lon="9.9047609"><ele>202.0</ele><time>2026-04-26T12:50:35.825Z</time></trkpt><trkpt lat="44.3216673" lon="9.9048848"><ele>202.0</ele><time>2026-04-26T12:50:36.826Z</time></trkpt><trkpt lat="44.3217723" lon="9.9050094"><ele>202.0</ele><time>2026-04-26T12:50:37.825Z</time></trkpt><trkpt lat="44.3218808" lon="9.9051356"><ele>202.0</ele><time>2026-04-26T12:50:38.826Z</time></trkpt><trkpt lat="44.321989" lon="9.9052667"><ele>202.0</ele><time>2026-04-26T12:50:39.826Z</time></trkpt><trkpt lat="44.3220946" lon="9.9053951"><ele>202.0</ele><time>2026-04-26T12:50:40.826Z</time></trkpt><trkpt lat="44.3221962" lon="9.9055219"><ele>202.0</ele><time>2026-04-26T12:50:41.826Z</time></trkpt><trkpt lat="44.3222912" lon="9.9056439"><ele>202.0</ele><time>2026-04-26T12:50:42.826Z</time></trkpt><trkpt lat="44.3223802" lon="9.9057719"><ele>202.0</ele><time>2026-04-26T12:50:43.825Z</time></trkpt><trkpt lat="44.322462" lon="9.9059077"><ele>201.75</ele><time>2026-04-26T12:50:44.825Z</time></trkpt><trkpt lat="44.3225354" lon="9.9060543"><ele>201.5</ele><time>2026-04-26T12:50:45.825Z</time></trkpt><trkpt lat="44.3226101" lon="9.9062031"><ele>201.25</ele><time>2026-04-26T12:50:46.826Z</time></trkpt><trkpt lat="44.3226838" lon="9.9063594"><ele>201.0</ele><time>2026-04-26T12:50:47.825Z</time></trkpt><trkpt lat="44.3227564" lon="9.9065188"><ele>201.0</ele><time>2026-04-26T12:50:48.825Z</time></trkpt><trkpt lat="44.322828" lon="9.9066766"><ele>201.0</ele><time>2026-04-26T12:50:49.826Z</time></trkpt><trkpt lat="44.3229047" lon="9.9068349"><ele>201.0</ele><time>2026-04-26T12:50:50.825Z</time></trkpt><trkpt lat="44.3229773" lon="9.9069958"><ele>201.0</ele><time>2026-04-26T12:50:51.825Z</time></trkpt><trkpt lat="44.3230478" lon="9.9071582"><ele>201.25</ele><time>2026-04-26T12:50:52.826Z</time></trkpt><trkpt lat="44.3231133" lon="9.9073238"><ele>201.5</ele><time>2026-04-26T12:50:53.826Z</time></trkpt><trkpt lat="44.3231741" lon="9.9074855"><ele>201.75</ele><time>2026-04-26T12:50:54.825Z</time></trkpt><trkpt lat="44.3232292" lon="9.9076452"><ele>202.0</ele><time>2026-04-26T12:50:55.825Z</time></trkpt><trkpt lat="44.3232766" lon="9.9078022"><ele>201.0</ele><time>2026-04-26T12:50:56.826Z</time></trkpt><trkpt lat="44.3233281" lon="9.9079462"><ele>200.0</ele><time>2026-04-26T12:50:57.825Z</time></trkpt><trkpt lat="44.3233757" lon="9.9080848"><ele>199.0</ele><time>2026-04-26T12:50:58.825Z</time></trkpt><trkpt lat="44.3234223" lon="9.9082203"><ele>198.0</ele><time>2026-04-26T12:50:59.826Z</time></trkpt><trkpt lat="44.3234717" lon="9.9083552"><ele>197.0</ele><time>2026-04-26T12:51:00.826Z</time></trkpt><trkpt lat="44.3235156" lon="9.9084798"><ele>196.2</ele><time>2026-04-26T12:51:01.826Z</time></trkpt><trkpt lat="44.323563" lon="9.9086041"><ele>195.39999999999998</ele><time>2026-04-26T12:51:02.826Z</time></trkpt><trkpt lat="44.3236152" lon="9.9087291"><ele>194.60000000000002</ele><time>2026-04-26T12:51:03.826Z</time></trkpt><trkpt lat="44.3236685" lon="9.9088576"><ele>193.8</ele><time>2026-04-26T12:51:04.825Z</time></trkpt><trkpt lat="44.3237149" lon="9.9089915"><ele>193.0</ele><time>2026-04-26T12:51:05.825Z</time></trkpt><trkpt lat="44.3237582" lon="9.9091283"><ele>192.83333333333331</ele><time>2026-04-26T12:51:06.826Z</time></trkpt><trkpt lat="44.3238001" lon="9.9092575"><ele>192.66666666666666</ele><time>2026-04-26T12:51:07.825Z</time></trkpt><trkpt lat="44.3238481" lon="9.909374"><ele>192.5</ele><time>2026-04-26T12:51:08.826Z</time></trkpt><trkpt lat="44.3239023" lon="9.9094699"><ele>192.33333333333331</ele><time>2026-04-26T12:51:09.825Z</time></trkpt><trkpt lat="44.3239679" lon="9.9095444"><ele>192.16666666666666</ele><time>2026-04-26T12:51:10.825Z</time></trkpt><trkpt lat="44.3240308" lon="9.9096067"><ele>192.0</ele><time>2026-04-26T12:51:11.826Z</time></trkpt><trkpt lat="44.3240987" lon="9.9096702"><ele>192.0</ele><time>2026-04-26T12:51:12.825Z</time></trkpt><trkpt lat="44.324166" lon="9.9097279"><ele>192.0</ele><time>2026-04-26T12:51:13.825Z</time></trkpt><trkpt lat="44.3242204" lon="9.9097841"><ele>192.0</ele><time>2026-04-26T12:51:14.826Z</time></trkpt><trkpt lat="44.3242981" lon="9.9099081"><ele>192.0</ele><time>2026-04-26T12:51:16.825Z</time></trkpt><trkpt lat="44.3243783" lon="9.9099934"><ele>192.0</ele><time>2026-04-26T12:51:18.825Z</time></trkpt><trkpt lat="44.3244724" lon="9.9099395"><ele>192.0</ele><time>2026-04-26T12:51:20.826Z</time></trkpt><trkpt lat="44.3245141" lon="9.9098624"><ele>192.0</ele><time>2026-04-26T12:51:21.825Z</time></trkpt><trkpt lat="44.32457" lon="9.909777"><ele>192.0</ele><time>2026-04-26T12:51:22.825Z</time></trkpt><trkpt lat="44.3246307" lon="9.9096896"><ele>192.0</ele><time>2026-04-26T12:51:23.825Z</time></trkpt><trkpt lat="44.3246983" lon="9.9095922"><ele>192.0</ele><time>2026-04-26T12:51:24.825Z</time></trkpt><trkpt lat="44.324769" lon="9.9094858"><ele>192.0</ele><time>2026-04-26T12:51:25.825Z</time></trkpt><trkpt lat="44.3248456" lon="9.9093756"><ele>191.39999999999998</ele><time>2026-04-26T12:51:26.826Z</time></trkpt><trkpt lat="44.3249216" lon="9.9092617"><ele>190.79999999999998</ele><time>2026-04-26T12:51:27.826Z</time></trkpt><trkpt lat="44.3249992" lon="9.9091494"><ele>190.2</ele><time>2026-04-26T12:51:28.826Z</time></trkpt><trkpt lat="44.325073" lon="9.90904"><ele>189.6</ele><time>2026-04-26T12:51:29.827Z</time></trkpt><trkpt lat="44.3251503" lon="9.9089285"><ele>189.0</ele><time>2026-04-26T12:51:30.825Z</time></trkpt><trkpt lat="44.3252258" lon="9.9088133"><ele>189.0</ele><time>2026-04-26T12:51:31.825Z</time></trkpt><trkpt lat="44.3253013" lon="9.9086994"><ele>189.0</ele><time>2026-04-26T12:51:32.825Z</time></trkpt><trkpt lat="44.3253854" lon="9.9085863"><ele>189.0</ele><time>2026-04-26T12:51:33.825Z</time></trkpt><trkpt lat="44.3254712" lon="9.90848"><ele>189.0</ele><time>2026-04-26T12:51:34.826Z</time></trkpt><trkpt lat="44.3255619" lon="9.9083669"><ele>188.25</ele><time>2026-04-26T12:51:35.826Z</time></trkpt><trkpt lat="44.3256572" lon="9.9082484"><ele>187.5</ele><time>2026-04-26T12:51:36.825Z</time></trkpt><trkpt lat="44.3257526" lon="9.9081345"><ele>186.75</ele><time>2026-04-26T12:51:37.826Z</time></trkpt><trkpt lat="44.3258464" lon="9.9080285"><ele>186.0</ele><time>2026-04-26T12:51:38.825Z</time></trkpt><trkpt lat="44.3259362" lon="9.9079295"><ele>186.0</ele><time>2026-04-26T12:51:39.825Z</time></trkpt><trkpt lat="44.3260164" lon="9.9078427"><ele>186.0</ele><time>2026-04-26T12:51:40.825Z</time></trkpt><trkpt lat="44.3260922" lon="9.9077531"><ele>186.0</ele><time>2026-04-26T12:51:41.825Z</time></trkpt><trkpt lat="44.3261711" lon="9.9076594"><ele>186.0</ele><time>2026-04-26T12:51:42.825Z</time></trkpt><trkpt lat="44.3262559" lon="9.907563"><ele>186.0</ele><time>2026-04-26T12:51:43.825Z</time></trkpt><trkpt lat="44.326343" lon="9.9074568"><ele>186.25</ele><time>2026-04-26T12:51:44.825Z</time></trkpt><trkpt lat="44.3264365" lon="9.9073556"><ele>186.5</ele><time>2026-04-26T12:51:45.825Z</time></trkpt><trkpt lat="44.3265336" lon="9.907256"><ele>186.75</ele><time>2026-04-26T12:51:46.826Z</time></trkpt><trkpt lat="44.3266306" lon="9.9071575"><ele>187.0</ele><time>2026-04-26T12:51:47.825Z</time></trkpt><trkpt lat="44.3267295" lon="9.9070625"><ele>187.0</ele><time>2026-04-26T12:51:48.826Z</time></trkpt><trkpt lat="44.3268317" lon="9.9069748"><ele>187.0</ele><time>2026-04-26T12:51:49.825Z</time></trkpt><trkpt lat="44.3269304" lon="9.9068866"><ele>187.0</ele><time>2026-04-26T12:51:50.826Z</time></trkpt><trkpt lat="44.3270308" lon="9.9068078"><ele>187.0</ele><time>2026-04-26T12:51:51.825Z</time></trkpt><trkpt lat="44.3271289" lon="9.9067324"><ele>188.0</ele><time>2026-04-26T12:51:52.826Z</time></trkpt><trkpt lat="44.3272245" lon="9.9066447"><ele>189.0</ele><time>2026-04-26T12:51:53.825Z</time></trkpt><trkpt lat="44.327314" lon="9.9065515"><ele>190.0</ele><time>2026-04-26T12:51:54.826Z</time></trkpt><trkpt lat="44.3274019" lon="9.9064607"><ele>191.0</ele><time>2026-04-26T12:51:55.825Z</time></trkpt><trkpt lat="44.327493" lon="9.9063661"><ele>192.0</ele><time>2026-04-26T12:51:56.825Z</time></trkpt><trkpt lat="44.3275818" lon="9.9062593"><ele>192.0</ele><time>2026-04-26T12:51:57.825Z</time></trkpt><trkpt lat="44.3276769" lon="9.9061467"><ele>192.0</ele><time>2026-04-26T12:51:58.826Z</time></trkpt><trkpt lat="44.3277754" lon="9.9060323"><ele>192.0</ele><time>2026-04-26T12:51:59.825Z</time></trkpt><trkpt lat="44.3278783" lon="9.9059187"><ele>192.0</ele><time>2026-04-26T12:52:00.825Z</time></trkpt><trkpt lat="44.3279779" lon="9.9058059"><ele>192.5</ele><time>2026-04-26T12:52:01.826Z</time></trkpt><trkpt lat="44.3280684" lon="9.9056788"><ele>193.0</ele><time>2026-04-26T12:52:02.825Z</time></trkpt><trkpt lat="44.3281498" lon="9.9055416"><ele>193.5</ele><time>2026-04-26T12:52:03.825Z</time></trkpt><trkpt lat="44.3282207" lon="9.9053877"><ele>194.0</ele><time>2026-04-26T12:52:04.825Z</time></trkpt><trkpt lat="44.3282882" lon="9.905231"><ele>195.75</ele><time>2026-04-26T12:52:05.826Z</time></trkpt><trkpt lat="44.3283563" lon="9.9050761"><ele>197.5</ele><time>2026-04-26T12:52:06.826Z</time></trkpt><trkpt lat="44.3284417" lon="9.9049633"><ele>199.25</ele><time>2026-04-26T12:52:07.825Z</time></trkpt><trkpt lat="44.3285419" lon="9.9048818"><ele>201.0</ele><time>2026-04-26T12:52:08.826Z</time></trkpt><trkpt lat="44.3286515" lon="9.904838"><ele>201.0</ele><time>2026-04-26T12:52:09.825Z</time></trkpt><trkpt lat="44.3287713" lon="9.904825"><ele>201.0</ele><time>2026-04-26T12:52:10.825Z</time></trkpt><trkpt lat="44.328895" lon="9.9048294"><ele>201.0</ele><time>2026-04-26T12:52:11.826Z</time></trkpt><trkpt lat="44.3290241" lon="9.9048786"><ele>201.0</ele><time>2026-04-26T12:52:12.825Z</time></trkpt><trkpt lat="44.3291602" lon="9.9049474"><ele>198.0</ele><time>2026-04-26T12:52:13.825Z</time></trkpt><trkpt lat="44.3292861" lon="9.9050027"><ele>195.0</ele><time>2026-04-26T12:52:14.825Z</time></trkpt><trkpt lat="44.3294084" lon="9.9050296"><ele>192.0</ele><time>2026-04-26T12:52:15.826Z</time></trkpt><trkpt lat="44.3295331" lon="9.9050084"><ele>189.0</ele><time>2026-04-26T12:52:16.825Z</time></trkpt><trkpt lat="44.3296594" lon="9.904974"><ele>188.5</ele><time>2026-04-26T12:52:17.826Z</time></trkpt><trkpt lat="44.3297889" lon="9.9049176"><ele>188.0</ele><time>2026-04-26T12:52:18.825Z</time></trkpt><trkpt lat="44.3299116" lon="9.9048339"><ele>187.5</ele><time>2026-04-26T12:52:19.826Z</time></trkpt><trkpt lat="44.3300363" lon="9.9047445"><ele>187.0</ele><time>2026-04-26T12:52:20.825Z</time></trkpt><trkpt lat="44.3301622" lon="9.9046498"><ele>187.0</ele><time>2026-04-26T12:52:21.826Z</time></trkpt><trkpt lat="44.3302965" lon="9.9045564"><ele>187.0</ele><time>2026-04-26T12:52:22.825Z</time></trkpt><trkpt lat="44.3304294" lon="9.9044838"><ele>187.0</ele><time>2026-04-26T12:52:23.825Z</time></trkpt><trkpt lat="44.3305674" lon="9.9044411"><ele>187.0</ele><time>2026-04-26T12:52:24.825Z</time></trkpt><trkpt lat="44.3307102" lon="9.9044131"><ele>186.75</ele><time>2026-04-26T12:52:25.826Z</time></trkpt><trkpt lat="44.3308526" lon="9.9043968"><ele>186.5</ele><time>2026-04-26T12:52:26.826Z</time></trkpt><trkpt lat="44.3310015" lon="9.9043819"><ele>186.25</ele><time>2026-04-26T12:52:27.825Z</time></trkpt><trkpt lat="44.3311525" lon="9.9043735"><ele>186.0</ele><time>2026-04-26T12:52:28.825Z</time></trkpt><trkpt lat="44.3313018" lon="9.9043621"><ele>187.0</ele><time>2026-04-26T12:52:29.825Z</time></trkpt><trkpt lat="44.3314523" lon="9.9043528"><ele>188.0</ele><time>2026-04-26T12:52:30.825Z</time></trkpt><trkpt lat="44.3316046" lon="9.9043423"><ele>189.0</ele><time>2026-04-26T12:52:31.825Z</time></trkpt><trkpt lat="44.3317572" lon="9.9043283"><ele>189.0</ele><time>2026-04-26T12:52:32.826Z</time></trkpt><trkpt lat="44.3319135" lon="9.9043125"><ele>189.0</ele><time>2026-04-26T12:52:33.826Z</time></trkpt><trkpt lat="44.3320637" lon="9.9042894"><ele>189.0</ele><time>2026-04-26T12:52:34.825Z</time></trkpt><trkpt lat="44.3322204" lon="9.904266"><ele>189.0</ele><time>2026-04-26T12:52:35.825Z</time></trkpt><trkpt lat="44.332374" lon="9.9042449"><ele>189.0</ele><time>2026-04-26T12:52:36.825Z</time></trkpt><trkpt lat="44.3325221" lon="9.9042248"><ele>189.0</ele><time>2026-04-26T12:52:37.826Z</time></trkpt><trkpt lat="44.3326683" lon="9.9042007"><ele>189.0</ele><time>2026-04-26T12:52:38.825Z</time></trkpt><trkpt lat="44.332813" lon="9.9041486"><ele>189.0</ele><time>2026-04-26T12:52:39.825Z</time></trkpt><trkpt lat="44.3329526" lon="9.9040651"><ele>189.0</ele><time>2026-04-26T12:52:40.824Z</time></trkpt><trkpt lat="44.333082" lon="9.9039521"><ele>188.33333333333334</ele><time>2026-04-26T12:52:41.824Z</time></trkpt><trkpt lat="44.3332038" lon="9.9038204"><ele>187.66666666666669</ele><time>2026-04-26T12:52:42.824Z</time></trkpt><trkpt lat="44.3333191" lon="9.9036705"><ele>187.0</ele><time>2026-04-26T12:52:43.825Z</time></trkpt><trkpt lat="44.3334404" lon="9.9035316"><ele>188.33333333333334</ele><time>2026-04-26T12:52:44.824Z</time></trkpt><trkpt lat="44.3335738" lon="9.9033979"><ele>189.66666666666666</ele><time>2026-04-26T12:52:45.824Z</time></trkpt><trkpt lat="44.3337107" lon="9.90328"><ele>191.0</ele><time>2026-04-26T12:52:46.824Z</time></trkpt><trkpt lat="44.3338543" lon="9.9031666"><ele>191.66666666666666</ele><time>2026-04-26T12:52:47.824Z</time></trkpt><trkpt lat="44.3340033" lon="9.9030571"><ele>192.33333333333331</ele><time>2026-04-26T12:52:48.824Z</time></trkpt><trkpt lat="44.3341536" lon="9.9029449"><ele>193.0</ele><time>2026-04-26T12:52:49.824Z</time></trkpt><trkpt lat="44.3342995" lon="9.9028296"><ele>193.0</ele><time>2026-04-26T12:52:50.824Z</time></trkpt><trkpt lat="44.3344412" lon="9.9027103"><ele>193.0</ele><time>2026-04-26T12:52:51.825Z</time></trkpt><trkpt lat="44.3345694" lon="9.9025774"><ele>193.0</ele><time>2026-04-26T12:52:52.825Z</time></trkpt><trkpt lat="44.3346857" lon="9.9024272"><ele>193.66666666666666</ele><time>2026-04-26T12:52:53.825Z</time></trkpt><trkpt lat="44.3347857" lon="9.902258"><ele>194.33333333333331</ele><time>2026-04-26T12:52:54.824Z</time></trkpt><trkpt lat="44.3348684" lon="9.9020691"><ele>195.0</ele><time>2026-04-26T12:52:55.825Z</time></trkpt><trkpt lat="44.3349406" lon="9.9018713"><ele>195.0</ele><time>2026-04-26T12:52:56.824Z</time></trkpt><trkpt lat="44.3349888" lon="9.9016596"><ele>195.0</ele><time>2026-04-26T12:52:57.825Z</time></trkpt><trkpt lat="44.3350236" lon="9.9014371"><ele>195.0</ele><time>2026-04-26T12:52:58.824Z</time></trkpt><trkpt lat="44.3350592" lon="9.9012129"><ele>195.0</ele><time>2026-04-26T12:52:59.824Z</time></trkpt><trkpt lat="44.3350952" lon="9.9009946"><ele>195.0</ele><time>2026-04-26T12:53:00.824Z</time></trkpt><trkpt lat="44.3351279" lon="9.9007793"><ele>195.0</ele><time>2026-04-26T12:53:01.825Z</time></trkpt><trkpt lat="44.3351482" lon="9.9005648"><ele>195.5</ele><time>2026-04-26T12:53:02.824Z</time></trkpt><trkpt lat="44.3351567" lon="9.9003539"><ele>196.0</ele><time>2026-04-26T12:53:03.824Z</time></trkpt><trkpt lat="44.3351644" lon="9.9001595"><ele>196.5</ele><time>2026-04-26T12:53:04.824Z</time></trkpt><trkpt lat="44.3351762" lon="9.8999867"><ele>197.0</ele><time>2026-04-26T12:53:05.825Z</time></trkpt><trkpt lat="44.3352019" lon="9.8998344"><ele>197.25</ele><time>2026-04-26T12:53:06.824Z</time></trkpt><trkpt lat="44.3352652" lon="9.8997042"><ele>197.5</ele><time>2026-04-26T12:53:07.825Z</time></trkpt><trkpt lat="44.3353573" lon="9.8996034"><ele>197.75</ele><time>2026-04-26T12:53:08.824Z</time></trkpt><trkpt lat="44.3354717" lon="9.8995286"><ele>198.0</ele><time>2026-04-26T12:53:09.826Z</time></trkpt><trkpt lat="44.3355956" lon="9.8994606"><ele>197.0</ele><time>2026-04-26T12:53:10.824Z</time></trkpt><trkpt lat="44.3357268" lon="9.8993876"><ele>196.0</ele><time>2026-04-26T12:53:11.825Z</time></trkpt><trkpt lat="44.3358636" lon="9.8993113"><ele>195.0</ele><time>2026-04-26T12:53:12.824Z</time></trkpt><trkpt lat="44.3360056" lon="9.8992355"><ele>194.0</ele><time>2026-04-26T12:53:13.824Z</time></trkpt><trkpt lat="44.3361435" lon="9.8991583"><ele>194.0</ele><time>2026-04-26T12:53:14.824Z</time></trkpt><trkpt lat="44.3362898" lon="9.8990932"><ele>194.0</ele><time>2026-04-26T12:53:15.824Z</time></trkpt><trkpt lat="44.3364345" lon="9.8990406"><ele>194.0</ele><time>2026-04-26T12:53:16.824Z</time></trkpt><trkpt lat="44.3365782" lon="9.8990407"><ele>194.0</ele><time>2026-04-26T12:53:17.825Z</time></trkpt><trkpt lat="44.3367101" lon="9.8990871"><ele>193.5</ele><time>2026-04-26T12:53:18.825Z</time></trkpt><trkpt lat="44.3368342" lon="9.8991692"><ele>193.0</ele><time>2026-04-26T12:53:19.824Z</time></trkpt><trkpt lat="44.3369351" lon="9.8992767"><ele>192.5</ele><time>2026-04-26T12:53:20.824Z</time></trkpt><trkpt lat="44.3370044" lon="9.8994163"><ele>192.0</ele><time>2026-04-26T12:53:21.824Z</time></trkpt><trkpt lat="44.3370438" lon="9.899565"><ele>191.5</ele><time>2026-04-26T12:53:22.824Z</time></trkpt><trkpt lat="44.3370609" lon="9.8997271"><ele>191.0</ele><time>2026-04-26T12:53:23.824Z</time></trkpt><trkpt lat="44.3370781" lon="9.8998901"><ele>190.5</ele><time>2026-04-26T12:53:24.824Z</time></trkpt><trkpt lat="44.3370978" lon="9.9000578"><ele>190.0</ele><time>2026-04-26T12:53:25.824Z</time></trkpt><trkpt lat="44.3371218" lon="9.9002303"><ele>189.75</ele><time>2026-04-26T12:53:26.824Z</time></trkpt><trkpt lat="44.3371469" lon="9.9004072"><ele>189.5</ele><time>2026-04-26T12:53:27.824Z</time></trkpt><trkpt lat="44.3371719" lon="9.9005977"><ele>189.25</ele><time>2026-04-26T12:53:28.825Z</time></trkpt><trkpt lat="44.337201" lon="9.9007906"><ele>189.0</ele><time>2026-04-26T12:53:29.824Z</time></trkpt><trkpt lat="44.3372231" lon="9.9009779"><ele>191.5</ele><time>2026-04-26T12:53:30.824Z</time></trkpt><trkpt lat="44.3372474" lon="9.9011669"><ele>194.0</ele><time>2026-04-26T12:53:31.824Z</time></trkpt><trkpt lat="44.3372767" lon="9.9013503"><ele>196.5</ele><time>2026-04-26T12:53:32.824Z</time></trkpt><trkpt lat="44.3373044" lon="9.9015415"><ele>199.0</ele><time>2026-04-26T12:53:33.825Z</time></trkpt><trkpt lat="44.3373423" lon="9.901736"><ele>196.66666666666666</ele><time>2026-04-26T12:53:34.824Z</time></trkpt><trkpt lat="44.3373972" lon="9.901924"><ele>194.33333333333331</ele><time>2026-04-26T12:53:35.824Z</time></trkpt><trkpt lat="44.3374682" lon="9.9021152"><ele>192.0</ele><time>2026-04-26T12:53:36.824Z</time></trkpt><trkpt lat="44.3375479" lon="9.902298"><ele>192.0</ele><time>2026-04-26T12:53:37.825Z</time></trkpt><trkpt lat="44.3376259" lon="9.9024806"><ele>192.0</ele><time>2026-04-26T12:53:38.825Z</time></trkpt><trkpt lat="44.3376945" lon="9.9026685"><ele>192.0</ele><time>2026-04-26T12:53:39.824Z</time></trkpt><trkpt lat="44.3377601" lon="9.9028544"><ele>191.25</ele><time>2026-04-26T12:53:40.824Z</time></trkpt><trkpt lat="44.3378051" lon="9.9030478"><ele>190.5</ele><time>2026-04-26T12:53:41.825Z</time></trkpt><trkpt lat="44.33786" lon="9.9032429"><ele>189.75</ele><time>2026-04-26T12:53:42.824Z</time></trkpt><trkpt lat="44.3379194" lon="9.9034253"><ele>189.0</ele><time>2026-04-26T12:53:43.824Z</time></trkpt><trkpt lat="44.3379783" lon="9.903606"><ele>189.25</ele><time>2026-04-26T12:53:44.825Z</time></trkpt><trkpt lat="44.3380972" lon="9.9037161"><ele>189.5</ele><time>2026-04-26T12:53:45.826Z</time></trkpt><trkpt lat="44.3381945" lon="9.9038488"><ele>189.75</ele><time>2026-04-26T12:53:46.825Z</time></trkpt><trkpt lat="44.3383031" lon="9.9039676"><ele>190.0</ele><time>2026-04-26T12:53:47.824Z</time></trkpt><trkpt lat="44.3384208" lon="9.9040717"><ele>190.0</ele><time>2026-04-26T12:53:48.824Z</time></trkpt><trkpt lat="44.3385397" lon="9.9041759"><ele>190.0</ele><time>2026-04-26T12:53:49.824Z</time></trkpt><trkpt lat="44.3386567" lon="9.904284"><ele>190.0</ele><time>2026-04-26T12:53:50.824Z</time></trkpt><trkpt lat="44.338773" lon="9.9043761"><ele>190.0</ele><time>2026-04-26T12:53:51.824Z</time></trkpt><trkpt lat="44.3388921" lon="9.9044467"><ele>189.0</ele><time>2026-04-26T12:53:52.824Z</time></trkpt><trkpt lat="44.3390176" lon="9.9044751"><ele>188.0</ele><time>2026-04-26T12:53:53.825Z</time></trkpt><trkpt lat="44.3391431" lon="9.9044669"><ele>187.0</ele><time>2026-04-26T12:53:54.824Z</time></trkpt><trkpt lat="44.3392671" lon="9.904444"><ele>186.0</ele><time>2026-04-26T12:53:55.824Z</time></trkpt><trkpt lat="44.3393883" lon="9.9043983"><ele>186.0</ele><time>2026-04-26T12:53:56.825Z</time></trkpt><trkpt lat="44.3395157" lon="9.9043539"><ele>186.0</ele><time>2026-04-26T12:53:57.825Z</time></trkpt><trkpt lat="44.3396434" lon="9.9043034"><ele>186.0</ele><time>2026-04-26T12:53:58.824Z</time></trkpt><trkpt lat="44.3397772" lon="9.9042453"><ele>186.0</ele><time>2026-04-26T12:53:59.824Z</time></trkpt><trkpt lat="44.3399148" lon="9.904188"><ele>186.5</ele><time>2026-04-26T12:54:00.825Z</time></trkpt><trkpt lat="44.3400535" lon="9.9041373"><ele>187.0</ele><time>2026-04-26T12:54:01.825Z</time></trkpt><trkpt lat="44.3401997" lon="9.9040923"><ele>187.5</ele><time>2026-04-26T12:54:02.824Z</time></trkpt><trkpt lat="44.3403487" lon="9.9040559"><ele>188.0</ele><time>2026-04-26T12:54:03.825Z</time></trkpt><trkpt lat="44.3405023" lon="9.9040168"><ele>187.0</ele><time>2026-04-26T12:54:04.824Z</time></trkpt><trkpt lat="44.3406586" lon="9.903984"><ele>186.0</ele><time>2026-04-26T12:54:05.825Z</time></trkpt><trkpt lat="44.3408166" lon="9.9039492"><ele>185.0</ele><time>2026-04-26T12:54:06.824Z</time></trkpt><trkpt lat="44.3409779" lon="9.9039172"><ele>185.0</ele><time>2026-04-26T12:54:07.824Z</time></trkpt><trkpt lat="44.3411344" lon="9.9038886"><ele>185.0</ele><time>2026-04-26T12:54:08.825Z</time></trkpt><trkpt lat="44.3412896" lon="9.9038756"><ele>185.0</ele><time>2026-04-26T12:54:09.824Z</time></trkpt><trkpt lat="44.3414472" lon="9.9038613"><ele>185.33333333333331</ele><time>2026-04-26T12:54:10.824Z</time></trkpt><trkpt lat="44.3416036" lon="9.9038517"><ele>185.66666666666666</ele><time>2026-04-26T12:54:11.825Z</time></trkpt><trkpt lat="44.3417624" lon="9.9038403"><ele>186.0</ele><time>2026-04-26T12:54:12.825Z</time></trkpt><trkpt lat="44.3419235" lon="9.9038288"><ele>186.0</ele><time>2026-04-26T12:54:13.824Z</time></trkpt><trkpt lat="44.3420825" lon="9.9038184"><ele>186.0</ele><time>2026-04-26T12:54:14.825Z</time></trkpt><trkpt lat="44.342242" lon="9.9038094"><ele>186.0</ele><time>2026-04-26T12:54:15.825Z</time></trkpt><trkpt lat="44.3424014" lon="9.9037964"><ele>186.33333333333334</ele><time>2026-04-26T12:54:16.825Z</time></trkpt><trkpt lat="44.3425608" lon="9.9037844"><ele>186.66666666666669</ele><time>2026-04-26T12:54:17.824Z</time></trkpt><trkpt lat="44.342723" lon="9.9037443"><ele>187.0</ele><time>2026-04-26T12:54:18.824Z</time></trkpt><trkpt lat="44.3428881" lon="9.9036852"><ele>187.0</ele><time>2026-04-26T12:54:19.825Z</time></trkpt><trkpt lat="44.3430494" lon="9.9036149"><ele>187.0</ele><time>2026-04-26T12:54:20.825Z</time></trkpt><trkpt lat="44.3432105" lon="9.9035355"><ele>187.0</ele><time>2026-04-26T12:54:21.824Z</time></trkpt><trkpt lat="44.3433716" lon="9.9034539"><ele>189.33333333333334</ele><time>2026-04-26T12:54:22.824Z</time></trkpt><trkpt lat="44.3435355" lon="9.9033736"><ele>191.66666666666669</ele><time>2026-04-26T12:54:23.825Z</time></trkpt><trkpt lat="44.3436979" lon="9.90329"><ele>194.0</ele><time>2026-04-26T12:54:24.824Z</time></trkpt><trkpt lat="44.3438613" lon="9.9032013"><ele>192.66666666666669</ele><time>2026-04-26T12:54:25.824Z</time></trkpt><trkpt lat="44.3440256" lon="9.9031175"><ele>191.33333333333334</ele><time>2026-04-26T12:54:26.824Z</time></trkpt><trkpt lat="44.3441867" lon="9.903042"><ele>190.0</ele><time>2026-04-26T12:54:27.825Z</time></trkpt><trkpt lat="44.3443469" lon="9.9029734"><ele>190.0</ele><time>2026-04-26T12:54:28.824Z</time></trkpt><trkpt lat="44.34451" lon="9.902906"><ele>190.0</ele><time>2026-04-26T12:54:29.825Z</time></trkpt><trkpt lat="44.3446742" lon="9.9028466"><ele>190.0</ele><time>2026-04-26T12:54:30.824Z</time></trkpt><trkpt lat="44.3448414" lon="9.9027851"><ele>190.0</ele><time>2026-04-26T12:54:31.824Z</time></trkpt><trkpt lat="44.3450094" lon="9.9027258"><ele>190.0</ele><time>2026-04-26T12:54:32.825Z</time></trkpt><trkpt lat="44.3451761" lon="9.9026679"><ele>190.0</ele><time>2026-04-26T12:54:33.824Z</time></trkpt><trkpt lat="44.3453424" lon="9.9026164"><ele>191.0</ele><time>2026-04-26T12:54:34.825Z</time></trkpt><trkpt lat="44.3455054" lon="9.9025658"><ele>192.0</ele><time>2026-04-26T12:54:35.824Z</time></trkpt><trkpt lat="44.3456654" lon="9.9025156"><ele>193.0</ele><time>2026-04-26T12:54:36.824Z</time></trkpt><trkpt lat="44.3458246" lon="9.9024637"><ele>193.0</ele><time>2026-04-26T12:54:37.824Z</time></trkpt><trkpt lat="44.3459847" lon="9.9024151"><ele>193.0</ele><time>2026-04-26T12:54:38.824Z</time></trkpt><trkpt lat="44.346146" lon="9.902367"><ele>193.0</ele><time>2026-04-26T12:54:39.825Z</time></trkpt><trkpt lat="44.3463062" lon="9.9023186"><ele>195.33333333333331</ele><time>2026-04-26T12:54:40.825Z</time></trkpt><trkpt lat="44.346466" lon="9.9022658"><ele>197.66666666666669</ele><time>2026-04-26T12:54:41.825Z</time></trkpt><trkpt lat="44.3466243" lon="9.9022023"><ele>200.0</ele><time>2026-04-26T12:54:42.825Z</time></trkpt><trkpt lat="44.3467735" lon="9.9021156"><ele>200.0</ele><time>2026-04-26T12:54:43.824Z</time></trkpt><trkpt lat="44.3469178" lon="9.902022"><ele>200.0</ele><time>2026-04-26T12:54:44.825Z</time></trkpt><trkpt lat="44.3470611" lon="9.9019154"><ele>200.0</ele><time>2026-04-26T12:54:45.825Z</time></trkpt><trkpt lat="44.3472035" lon="9.9018011"><ele>203.0</ele><time>2026-04-26T12:54:46.825Z</time></trkpt><trkpt lat="44.3473452" lon="9.9016881"><ele>206.0</ele><time>2026-04-26T12:54:47.824Z</time></trkpt><trkpt lat="44.3474874" lon="9.9015724"><ele>209.0</ele><time>2026-04-26T12:54:48.824Z</time></trkpt><trkpt lat="44.3476269" lon="9.9014562"><ele>209.0</ele><time>2026-04-26T12:54:49.825Z</time></trkpt><trkpt lat="44.3477679" lon="9.9013412"><ele>209.0</ele><time>2026-04-26T12:54:50.825Z</time></trkpt><trkpt lat="44.3479066" lon="9.9012255"><ele>209.0</ele><time>2026-04-26T12:54:51.824Z</time></trkpt><trkpt lat="44.3480413" lon="9.901103"><ele>209.66666666666669</ele><time>2026-04-26T12:54:52.826Z</time></trkpt><trkpt lat="44.3481721" lon="9.900978"><ele>210.33333333333331</ele><time>2026-04-26T12:54:53.825Z</time></trkpt><trkpt lat="44.348301" lon="9.9008473"><ele>211.0</ele><time>2026-04-26T12:54:54.824Z</time></trkpt><trkpt lat="44.348425" lon="9.9007191"><ele>212.0</ele><time>2026-04-26T12:54:55.824Z</time></trkpt><trkpt lat="44.3485544" lon="9.9005924"><ele>213.0</ele><time>2026-04-26T12:54:56.825Z</time></trkpt><trkpt lat="44.3486828" lon="9.9004674"><ele>214.0</ele><time>2026-04-26T12:54:57.824Z</time></trkpt><trkpt lat="44.3488138" lon="9.9003413"><ele>215.0</ele><time>2026-04-26T12:54:58.824Z</time></trkpt><trkpt lat="44.3489231" lon="9.9001827"><ele>216.0</ele><time>2026-04-26T12:54:59.825Z</time></trkpt><trkpt lat="44.3490287" lon="9.9000192"><ele>217.0</ele><time>2026-04-26T12:55:00.825Z</time></trkpt><trkpt lat="44.3491274" lon="9.8998304"><ele>217.25</ele><time>2026-04-26T12:55:01.824Z</time></trkpt><trkpt lat="44.3491759" lon="9.8996451"><ele>217.5</ele><time>2026-04-26T12:55:02.825Z</time></trkpt><trkpt lat="44.3492276" lon="9.8994723"><ele>217.75</ele><time>2026-04-26T12:55:03.825Z</time></trkpt><trkpt lat="44.3492762" lon="9.8993079"><ele>218.0</ele><time>2026-04-26T12:55:04.824Z</time></trkpt><trkpt lat="44.349321" lon="9.8991508"><ele>218.75</ele><time>2026-04-26T12:55:05.824Z</time></trkpt><trkpt lat="44.3493732" lon="9.899"><ele>219.5</ele><time>2026-04-26T12:55:06.824Z</time></trkpt><trkpt lat="44.3494177" lon="9.8988433"><ele>220.25</ele><time>2026-04-26T12:55:07.824Z</time></trkpt><trkpt lat="44.3494607" lon="9.8986892"><ele>221.0</ele><time>2026-04-26T12:55:08.824Z</time></trkpt><trkpt lat="44.3495085" lon="9.8985369"><ele>221.25</ele><time>2026-04-26T12:55:09.824Z</time></trkpt><trkpt lat="44.3495528" lon="9.8983879"><ele>221.5</ele><time>2026-04-26T12:55:10.825Z</time></trkpt><trkpt lat="44.3495973" lon="9.8982376"><ele>221.75</ele><time>2026-04-26T12:55:11.825Z</time></trkpt><trkpt lat="44.3496416" lon="9.898077"><ele>222.0</ele><time>2026-04-26T12:55:12.824Z</time></trkpt><trkpt lat="44.3496867" lon="9.897918"><ele>222.39999999999998</ele><time>2026-04-26T12:55:13.824Z</time></trkpt><trkpt lat="44.3497276" lon="9.8977678"><ele>222.79999999999998</ele><time>2026-04-26T12:55:14.825Z</time></trkpt><trkpt lat="44.3497655" lon="9.8976303"><ele>223.2</ele><time>2026-04-26T12:55:15.824Z</time></trkpt><trkpt lat="44.3498032" lon="9.897498"><ele>223.6</ele><time>2026-04-26T12:55:16.825Z</time></trkpt><trkpt lat="44.3498389" lon="9.8973752"><ele>224.0</ele><time>2026-04-26T12:55:17.824Z</time></trkpt><trkpt lat="44.3498726" lon="9.8972589"><ele>224.16666666666669</ele><time>2026-04-26T12:55:18.825Z</time></trkpt><trkpt lat="44.3499055" lon="9.8971545"><ele>224.33333333333334</ele><time>2026-04-26T12:55:19.824Z</time></trkpt><trkpt lat="44.3499418" lon="9.8970482"><ele>224.5</ele><time>2026-04-26T12:55:20.825Z</time></trkpt><trkpt lat="44.349976" lon="9.8969306"><ele>224.66666666666669</ele><time>2026-04-26T12:55:21.825Z</time></trkpt><trkpt lat="44.3500108" lon="9.8968097"><ele>224.83333333333334</ele><time>2026-04-26T12:55:22.825Z</time></trkpt><trkpt lat="44.3500509" lon="9.8966837"><ele>225.0</ele><time>2026-04-26T12:55:23.825Z</time></trkpt><trkpt lat="44.3500913" lon="9.8965441"><ele>225.5</ele><time>2026-04-26T12:55:24.824Z</time></trkpt><trkpt lat="44.3501293" lon="9.8964013"><ele>226.0</ele><time>2026-04-26T12:55:25.825Z</time></trkpt><trkpt lat="44.3501776" lon="9.8962582"><ele>226.5</ele><time>2026-04-26T12:55:26.823Z</time></trkpt><trkpt lat="44.3502383" lon="9.8961119"><ele>227.0</ele><time>2026-04-26T12:55:27.824Z</time></trkpt><trkpt lat="44.3503143" lon="9.8959654"><ele>227.0</ele><time>2026-04-26T12:55:28.823Z</time></trkpt><trkpt lat="44.3504066" lon="9.8958312"><ele>227.0</ele><time>2026-04-26T12:55:29.824Z</time></trkpt><trkpt lat="44.3505053" lon="9.8957096"><ele>227.0</ele><time>2026-04-26T12:55:30.824Z</time></trkpt><trkpt lat="44.3506138" lon="9.8955963"><ele>227.0</ele><time>2026-04-26T12:55:31.823Z</time></trkpt><trkpt lat="44.3507341" lon="9.895491"><ele>227.0</ele><time>2026-04-26T12:55:32.824Z</time></trkpt><trkpt lat="44.3508548" lon="9.8953938"><ele>227.0</ele><time>2026-04-26T12:55:33.823Z</time></trkpt><trkpt lat="44.3509775" lon="9.8953002"><ele>227.0</ele><time>2026-04-26T12:55:34.824Z</time></trkpt><trkpt lat="44.3511059" lon="9.8952048"><ele>227.0</ele><time>2026-04-26T12:55:35.823Z</time></trkpt><trkpt lat="44.3512401" lon="9.8951058"><ele>228.0</ele><time>2026-04-26T12:55:36.823Z</time></trkpt><trkpt lat="44.351381" lon="9.894996"><ele>229.0</ele><time>2026-04-26T12:55:37.823Z</time></trkpt><trkpt lat="44.3515212" lon="9.8948868"><ele>230.0</ele><time>2026-04-26T12:55:38.823Z</time></trkpt><trkpt lat="44.3516674" lon="9.8947842"><ele>230.0</ele><time>2026-04-26T12:55:39.823Z</time></trkpt><trkpt lat="44.3518078" lon="9.8946872"><ele>230.0</ele><time>2026-04-26T12:55:40.824Z</time></trkpt><trkpt lat="44.3519535" lon="9.8946113"><ele>230.0</ele><time>2026-04-26T12:55:41.824Z</time></trkpt><trkpt lat="44.3520934" lon="9.8945485"><ele>230.25</ele><time>2026-04-26T12:55:42.824Z</time></trkpt><trkpt lat="44.352241" lon="9.8945096"><ele>230.5</ele><time>2026-04-26T12:55:43.824Z</time></trkpt><trkpt lat="44.3523854" lon="9.8944875"><ele>230.75</ele><time>2026-04-26T12:55:44.823Z</time></trkpt><trkpt lat="44.3525309" lon="9.8944757"><ele>231.0</ele><time>2026-04-26T12:55:45.823Z</time></trkpt><trkpt lat="44.3526698" lon="9.894472"><ele>231.0</ele><time>2026-04-26T12:55:46.823Z</time></trkpt><trkpt lat="44.3528074" lon="9.8944709"><ele>231.0</ele><time>2026-04-26T12:55:47.823Z</time></trkpt><trkpt lat="44.3529449" lon="9.894469"><ele>231.0</ele><time>2026-04-26T12:55:48.823Z</time></trkpt><trkpt lat="44.3530835" lon="9.8944652"><ele>231.0</ele><time>2026-04-26T12:55:49.823Z</time></trkpt><trkpt lat="44.3532269" lon="9.8944497"><ele>231.25</ele><time>2026-04-26T12:55:50.823Z</time></trkpt><trkpt lat="44.3533704" lon="9.8944351"><ele>231.5</ele><time>2026-04-26T12:55:51.823Z</time></trkpt><trkpt lat="44.3535183" lon="9.8944184"><ele>231.75</ele><time>2026-04-26T12:55:52.823Z</time></trkpt><trkpt lat="44.3536664" lon="9.8944078"><ele>232.0</ele><time>2026-04-26T12:55:53.824Z</time></trkpt><trkpt lat="44.3538092" lon="9.894401"><ele>232.25</ele><time>2026-04-26T12:55:54.823Z</time></trkpt><trkpt lat="44.3539467" lon="9.894394"><ele>232.5</ele><time>2026-04-26T12:55:55.823Z</time></trkpt><trkpt lat="44.354074" lon="9.8943797"><ele>232.75</ele><time>2026-04-26T12:55:56.824Z</time></trkpt><trkpt lat="44.3542029" lon="9.8943668"><ele>233.0</ele><time>2026-04-26T12:55:57.823Z</time></trkpt><trkpt lat="44.3543388" lon="9.8943516"><ele>233.0</ele><time>2026-04-26T12:55:58.823Z</time></trkpt><trkpt lat="44.3544652" lon="9.8943287"><ele>233.0</ele><time>2026-04-26T12:55:59.823Z</time></trkpt><trkpt lat="44.3545853" lon="9.8943039"><ele>233.0</ele><time>2026-04-26T12:56:00.824Z</time></trkpt><trkpt lat="44.3546987" lon="9.8942816"><ele>233.0</ele><time>2026-04-26T12:56:01.824Z</time></trkpt><trkpt lat="44.3548068" lon="9.8942559"><ele>233.60000000000002</ele><time>2026-04-26T12:56:02.823Z</time></trkpt><trkpt lat="44.3549085" lon="9.8942297"><ele>234.20000000000002</ele><time>2026-04-26T12:56:03.823Z</time></trkpt><trkpt lat="44.3550152" lon="9.8941967"><ele>234.8</ele><time>2026-04-26T12:56:04.823Z</time></trkpt><trkpt lat="44.3551249" lon="9.8941572"><ele>235.4</ele><time>2026-04-26T12:56:05.823Z</time></trkpt><trkpt lat="44.3552366" lon="9.8941153"><ele>236.0</ele><time>2026-04-26T12:56:06.823Z</time></trkpt><trkpt lat="44.3553421" lon="9.8940724"><ele>236.0</ele><time>2026-04-26T12:56:07.824Z</time></trkpt><trkpt lat="44.3554419" lon="9.8940313"><ele>236.00000000000003</ele><time>2026-04-26T12:56:08.824Z</time></trkpt><trkpt lat="44.3555488" lon="9.8940305"><ele>236.00000000000003</ele><time>2026-04-26T12:56:09.823Z</time></trkpt><trkpt lat="44.3556493" lon="9.8940304"><ele>236.0</ele><time>2026-04-26T12:56:10.823Z</time></trkpt><trkpt lat="44.355739" lon="9.8940701"><ele>236.0</ele><time>2026-04-26T12:56:11.823Z</time></trkpt><trkpt lat="44.3558006" lon="9.8941438"><ele>235.8</ele><time>2026-04-26T12:56:12.824Z</time></trkpt><trkpt lat="44.3558443" lon="9.8942538"><ele>235.60000000000002</ele><time>2026-04-26T12:56:13.823Z</time></trkpt><trkpt lat="44.3558639" lon="9.8943896"><ele>235.4</ele><time>2026-04-26T12:56:14.823Z</time></trkpt><trkpt lat="44.3558799" lon="9.8945441"><ele>235.2</ele><time>2026-04-26T12:56:15.824Z</time></trkpt><trkpt lat="44.3558941" lon="9.894707"><ele>235.0</ele><time>2026-04-26T12:56:16.824Z</time></trkpt><trkpt lat="44.3559071" lon="9.8948732"><ele>234.75</ele><time>2026-04-26T12:56:17.823Z</time></trkpt><trkpt lat="44.3559219" lon="9.8950462"><ele>234.5</ele><time>2026-04-26T12:56:18.823Z</time></trkpt><trkpt lat="44.355938" lon="9.8952234"><ele>234.25</ele><time>2026-04-26T12:56:19.824Z</time></trkpt><trkpt lat="44.3559567" lon="9.8953971"><ele>234.0</ele><time>2026-04-26T12:56:20.823Z</time></trkpt><trkpt lat="44.355989" lon="9.8955606"><ele>233.0</ele><time>2026-04-26T12:56:21.823Z</time></trkpt><trkpt lat="44.3560329" lon="9.8957173"><ele>232.0</ele><time>2026-04-26T12:56:22.824Z</time></trkpt><trkpt lat="44.3560861" lon="9.8958718"><ele>231.0</ele><time>2026-04-26T12:56:23.825Z</time></trkpt><trkpt lat="44.3561555" lon="9.896009"><ele>230.0</ele><time>2026-04-26T12:56:24.823Z</time></trkpt><trkpt lat="44.3562395" lon="9.8961049"><ele>226.66666666666669</ele><time>2026-04-26T12:56:25.823Z</time></trkpt><trkpt lat="44.3563665" lon="9.8962185"><ele>223.33333333333331</ele><time>2026-04-26T12:56:26.823Z</time></trkpt><trkpt lat="44.3565216" lon="9.8962198"><ele>220.0</ele><time>2026-04-26T12:56:27.824Z</time></trkpt><trkpt lat="44.3566817" lon="9.8961659"><ele>217.25</ele><time>2026-04-26T12:56:28.824Z</time></trkpt><trkpt lat="44.3568235" lon="9.8961175"><ele>214.5</ele><time>2026-04-26T12:56:29.825Z</time></trkpt><trkpt lat="44.3569618" lon="9.8960769"><ele>211.75</ele><time>2026-04-26T12:56:30.823Z</time></trkpt><trkpt lat="44.3570962" lon="9.8960473"><ele>209.0</ele><time>2026-04-26T12:56:31.823Z</time></trkpt><trkpt lat="44.3572241" lon="9.8960479"><ele>208.25</ele><time>2026-04-26T12:56:32.823Z</time></trkpt><trkpt lat="44.3573451" lon="9.8960816"><ele>207.5</ele><time>2026-04-26T12:56:33.823Z</time></trkpt><trkpt lat="44.3574607" lon="9.8961395"><ele>206.75</ele><time>2026-04-26T12:56:34.823Z</time></trkpt><trkpt lat="44.3575614" lon="9.8962225"><ele>206.0</ele><time>2026-04-26T12:56:35.824Z</time></trkpt><trkpt lat="44.3576468" lon="9.8963337"><ele>206.0</ele><time>2026-04-26T12:56:36.823Z</time></trkpt><trkpt lat="44.3577201" lon="9.8964604"><ele>206.0</ele><time>2026-04-26T12:56:37.823Z</time></trkpt><trkpt lat="44.3577879" lon="9.8966043"><ele>206.0</ele><time>2026-04-26T12:56:38.824Z</time></trkpt><trkpt lat="44.3578526" lon="9.8967489"><ele>206.0</ele><time>2026-04-26T12:56:39.824Z</time></trkpt><trkpt lat="44.357916" lon="9.8968778"><ele>204.25</ele><time>2026-04-26T12:56:40.823Z</time></trkpt><trkpt lat="44.3579813" lon="9.8970111"><ele>202.5</ele><time>2026-04-26T12:56:41.823Z</time></trkpt><trkpt lat="44.3580428" lon="9.8971564"><ele>200.75</ele><time>2026-04-26T12:56:42.825Z</time></trkpt><trkpt lat="44.3580994" lon="9.8973014"><ele>199.0</ele><time>2026-04-26T12:56:43.823Z</time></trkpt><trkpt lat="44.3581554" lon="9.8974359"><ele>199.0</ele><time>2026-04-26T12:56:44.823Z</time></trkpt><trkpt lat="44.3582104" lon="9.8975598"><ele>199.0</ele><time>2026-04-26T12:56:45.823Z</time></trkpt><trkpt lat="44.3582655" lon="9.8976813"><ele>199.0</ele><time>2026-04-26T12:56:46.824Z</time></trkpt><trkpt lat="44.3583144" lon="9.8978026"><ele>199.0</ele><time>2026-04-26T12:56:47.823Z</time></trkpt><trkpt lat="44.358363" lon="9.8979089"><ele>199.0</ele><time>2026-04-26T12:56:48.824Z</time></trkpt><trkpt lat="44.3584134" lon="9.8980144"><ele>199.2</ele><time>2026-04-26T12:56:49.824Z</time></trkpt><trkpt lat="44.3584684" lon="9.8981067"><ele>199.39999999999998</ele><time>2026-04-26T12:56:50.823Z</time></trkpt><trkpt lat="44.3585315" lon="9.898198"><ele>199.6</ele><time>2026-04-26T12:56:51.823Z</time></trkpt><trkpt lat="44.3585981" lon="9.8982848"><ele>199.8</ele><time>2026-04-26T12:56:52.823Z</time></trkpt><trkpt lat="44.3586759" lon="9.898365"><ele>200.0</ele><time>2026-04-26T12:56:53.825Z</time></trkpt><trkpt lat="44.3587555" lon="9.8984459"><ele>200.0</ele><time>2026-04-26T12:56:54.823Z</time></trkpt><trkpt lat="44.3588351" lon="9.8985293"><ele>200.0</ele><time>2026-04-26T12:56:55.823Z</time></trkpt><trkpt lat="44.3589195" lon="9.8986143"><ele>200.0</ele><time>2026-04-26T12:56:56.824Z</time></trkpt><trkpt lat="44.3590028" lon="9.8986931"><ele>200.0</ele><time>2026-04-26T12:56:57.823Z</time></trkpt><trkpt lat="44.3590897" lon="9.8987715"><ele>200.0</ele><time>2026-04-26T12:56:58.823Z</time></trkpt><trkpt lat="44.3591793" lon="9.8988498"><ele>200.50000000000003</ele><time>2026-04-26T12:56:59.823Z</time></trkpt><trkpt lat="44.3592667" lon="9.8989225"><ele>201.0</ele><time>2026-04-26T12:57:00.823Z</time></trkpt><trkpt lat="44.3593438" lon="9.8989931"><ele>201.5</ele><time>2026-04-26T12:57:01.823Z</time></trkpt><trkpt lat="44.3594145" lon="9.8990559"><ele>202.0</ele><time>2026-04-26T12:57:02.824Z</time></trkpt><trkpt lat="44.3594839" lon="9.8991179"><ele>202.50000000000003</ele><time>2026-04-26T12:57:03.825Z</time></trkpt><trkpt lat="44.3595582" lon="9.8991793"><ele>203.0</ele><time>2026-04-26T12:57:04.823Z</time></trkpt><trkpt lat="44.3596297" lon="9.8992456"><ele>203.14285714285714</ele><time>2026-04-26T12:57:05.823Z</time></trkpt><trkpt lat="44.3597018" lon="9.8993037"><ele>203.28571428571428</ele><time>2026-04-26T12:57:06.823Z</time></trkpt><trkpt lat="44.3597657" lon="9.8993554"><ele>203.42857142857144</ele><time>2026-04-26T12:57:07.823Z</time></trkpt><trkpt lat="44.3598223" lon="9.8994042"><ele>203.57142857142856</ele><time>2026-04-26T12:57:08.823Z</time></trkpt><trkpt lat="44.359899" lon="9.8994681"><ele>203.71428571428572</ele><time>2026-04-26T12:57:10.823Z</time></trkpt><trkpt lat="44.3599503" lon="9.8995226"><ele>203.85714285714286</ele><time>2026-04-26T12:57:12.823Z</time></trkpt><trkpt lat="44.3600033" lon="9.8995834"><ele>204.0</ele><time>2026-04-26T12:57:15.823Z</time></trkpt><trkpt lat="44.3600657" lon="9.8996512"><ele>204.0</ele><time>2026-04-26T12:57:18.824Z</time></trkpt><trkpt lat="44.360129" lon="9.899691"><ele>204.0</ele><time>2026-04-26T12:57:20.823Z</time></trkpt><trkpt lat="44.3602377" lon="9.8996574"><ele>204.0</ele><time>2026-04-26T12:57:22.824Z</time></trkpt><trkpt lat="44.3603533" lon="9.8995619"><ele>204.0</ele><time>2026-04-26T12:57:24.824Z</time></trkpt><trkpt lat="44.3604207" lon="9.8994923"><ele>204.0</ele><time>2026-04-26T12:57:25.823Z</time></trkpt><trkpt lat="44.3604801" lon="9.8994252"><ele>204.33333333333334</ele><time>2026-04-26T12:57:26.823Z</time></trkpt><trkpt lat="44.360539" lon="9.8993638"><ele>204.66666666666669</ele><time>2026-04-26T12:57:27.824Z</time></trkpt><trkpt lat="44.3606301" lon="9.8992665"><ele>205.0</ele><time>2026-04-26T12:57:29.823Z</time></trkpt><trkpt lat="44.3607094" lon="9.8991902"><ele>205.33333333333334</ele><time>2026-04-26T12:57:31.823Z</time></trkpt><trkpt lat="44.3607716" lon="9.8991448"><ele>205.66666666666669</ele><time>2026-04-26T12:57:33.823Z</time></trkpt><trkpt lat="44.360844" lon="9.8991233"><ele>206.0</ele><time>2026-04-26T12:57:36.824Z</time></trkpt><trkpt lat="44.3609102" lon="9.8991463"><ele>206.00000000000003</ele><time>2026-04-26T12:57:39.824Z</time></trkpt><trkpt lat="44.3609673" lon="9.8991077"><ele>206.0</ele><time>2026-04-26T12:57:42.824Z</time></trkpt><trkpt lat="44.3610271" lon="9.8989841"><ele>206.0</ele><time>2026-04-26T13:05:26.82Z</time></trkpt><trkpt lat="44.3610742" lon="9.8988877"><ele>206.0</ele><time>2026-04-26T13:05:28.82Z</time></trkpt><trkpt lat="44.3610984" lon="9.8987797"><ele>206.00000000000003</ele><time>2026-04-26T13:05:31.82Z</time></trkpt><trkpt lat="44.3611416" lon="9.8986336"><ele>206.0</ele><time>2026-04-26T13:05:34.821Z</time></trkpt><trkpt lat="44.3612313" lon="9.8985265"><ele>206.00000000000003</ele><time>2026-04-26T13:05:36.821Z</time></trkpt><trkpt lat="44.3612872" lon="9.8984687"><ele>206.0</ele><time>2026-04-26T13:05:37.821Z</time></trkpt><trkpt lat="44.361349" lon="9.8984028"><ele>206.0</ele><time>2026-04-26T13:05:38.821Z</time></trkpt><trkpt lat="44.3614177" lon="9.8983239"><ele>206.0</ele><time>2026-04-26T13:05:39.821Z</time></trkpt><trkpt lat="44.3614897" lon="9.8982421"><ele>206.00000000000003</ele><time>2026-04-26T13:05:40.82Z</time></trkpt><trkpt lat="44.3615632" lon="9.8981574"><ele>206.0</ele><time>2026-04-26T13:05:41.821Z</time></trkpt><trkpt lat="44.36164" lon="9.8980695"><ele>206.5</ele><time>2026-04-26T13:05:42.821Z</time></trkpt><trkpt lat="44.3617217" lon="9.8979758"><ele>207.0</ele><time>2026-04-26T13:05:43.821Z</time></trkpt><trkpt lat="44.3618095" lon="9.8978732"><ele>207.5</ele><time>2026-04-26T13:05:44.821Z</time></trkpt><trkpt lat="44.3618971" lon="9.8977703"><ele>208.0</ele><time>2026-04-26T13:05:45.821Z</time></trkpt><trkpt lat="44.36199" lon="9.8976645"><ele>207.75</ele><time>2026-04-26T13:05:46.821Z</time></trkpt><trkpt lat="44.3620852" lon="9.8975568"><ele>207.5</ele><time>2026-04-26T13:05:47.82Z</time></trkpt><trkpt lat="44.3621855" lon="9.8974447"><ele>207.25</ele><time>2026-04-26T13:05:48.82Z</time></trkpt><trkpt lat="44.3622847" lon="9.8973304"><ele>207.0</ele><time>2026-04-26T13:05:49.82Z</time></trkpt><trkpt lat="44.3623855" lon="9.8972148"><ele>207.5</ele><time>2026-04-26T13:05:50.821Z</time></trkpt><trkpt lat="44.362485" lon="9.8970951"><ele>208.0</ele><time>2026-04-26T13:05:51.821Z</time></trkpt><trkpt lat="44.3625866" lon="9.8969754"><ele>208.5</ele><time>2026-04-26T13:05:52.82Z</time></trkpt><trkpt lat="44.3626832" lon="9.8968627"><ele>209.0</ele><time>2026-04-26T13:05:53.82Z</time></trkpt><trkpt lat="44.3627759" lon="9.8967608"><ele>209.39999999999998</ele><time>2026-04-26T13:05:54.821Z</time></trkpt><trkpt lat="44.3628628" lon="9.8966633"><ele>209.8</ele><time>2026-04-26T13:05:55.821Z</time></trkpt><trkpt lat="44.3629503" lon="9.8965667"><ele>210.2</ele><time>2026-04-26T13:05:56.82Z</time></trkpt><trkpt lat="44.3630368" lon="9.8964703"><ele>210.60000000000002</ele><time>2026-04-26T13:05:57.82Z</time></trkpt><trkpt lat="44.3631187" lon="9.8963774"><ele>211.0</ele><time>2026-04-26T13:05:58.82Z</time></trkpt><trkpt lat="44.3631993" lon="9.8962917"><ele>210.99999999999997</ele><time>2026-04-26T13:05:59.82Z</time></trkpt><trkpt lat="44.3632628" lon="9.8962023"><ele>211.0</ele><time>2026-04-26T13:06:00.821Z</time></trkpt><trkpt lat="44.3633185" lon="9.8961158"><ele>211.0</ele><time>2026-04-26T13:06:01.821Z</time></trkpt><trkpt lat="44.3633653" lon="9.8960378"><ele>211.0</ele><time>2026-04-26T13:06:02.82Z</time></trkpt><trkpt lat="44.3634571" lon="9.8960048"><ele>210.99999999999997</ele><time>2026-04-26T13:06:04.82Z</time></trkpt><trkpt lat="44.3635502" lon="9.8960255"><ele>211.0</ele><time>2026-04-26T13:06:06.822Z</time></trkpt><trkpt lat="44.3636777" lon="9.896061"><ele>210.99999999999997</ele><time>2026-04-26T13:06:08.822Z</time></trkpt><trkpt lat="44.3637555" lon="9.8960868"><ele>211.0</ele><time>2026-04-26T13:06:09.82Z</time></trkpt><trkpt lat="44.3638313" lon="9.8961126"><ele>211.0</ele><time>2026-04-26T13:06:10.82Z</time></trkpt><trkpt lat="44.3639019" lon="9.8961367"><ele>211.0</ele><time>2026-04-26T13:06:11.82Z</time></trkpt><trkpt lat="44.3639795" lon="9.8961644"><ele>210.99999999999997</ele><time>2026-04-26T13:06:12.821Z</time></trkpt><trkpt lat="44.3640548" lon="9.896196"><ele>211.0</ele><time>2026-04-26T13:06:13.821Z</time></trkpt><trkpt lat="44.3641219" lon="9.8962378"><ele>212.33333333333331</ele><time>2026-04-26T13:06:14.82Z</time></trkpt><trkpt lat="44.3641814" lon="9.8962835"><ele>213.66666666666666</ele><time>2026-04-26T13:06:15.82Z</time></trkpt><trkpt lat="44.3642389" lon="9.8963367"><ele>215.0</ele><time>2026-04-26T13:06:16.82Z</time></trkpt><trkpt lat="44.3643133" lon="9.8964213"><ele>216.33333333333331</ele><time>2026-04-26T13:06:17.82Z</time></trkpt><trkpt lat="44.3643895" lon="9.8964991"><ele>217.66666666666666</ele><time>2026-04-26T13:06:18.82Z</time></trkpt><trkpt lat="44.3644494" lon="9.8965462"><ele>219.0</ele><time>2026-04-26T13:06:19.82Z</time></trkpt><trkpt lat="44.3645106" lon="9.8965871"><ele>219.0</ele><time>2026-04-26T13:06:21.822Z</time></trkpt><trkpt lat="44.3645745" lon="9.8966185"><ele>219.0</ele><time>2026-04-26T13:06:49.819Z</time></trkpt><trkpt lat="44.3646644" lon="9.8966883"><ele>219.0</ele><time>2026-04-26T13:06:51.819Z</time></trkpt><trkpt lat="44.3647734" lon="9.896741"><ele>219.0</ele><time>2026-04-26T13:06:53.819Z</time></trkpt><trkpt lat="44.3648421" lon="9.8967721"><ele>219.0</ele><time>2026-04-26T13:06:54.82Z</time></trkpt><trkpt lat="44.3649185" lon="9.8967766"><ele>219.0</ele><time>2026-04-26T13:06:55.819Z</time></trkpt><trkpt lat="44.3650558" lon="9.8968136"><ele>220.83333333333334</ele><time>2026-04-26T13:06:57.819Z</time></trkpt><trkpt lat="44.365139" lon="9.8968243"><ele>222.66666666666669</ele><time>2026-04-26T13:06:58.819Z</time></trkpt><trkpt lat="44.3652117" lon="9.8968029"><ele>224.5</ele><time>2026-04-26T13:06:59.819Z</time></trkpt><trkpt lat="44.3652817" lon="9.896786"><ele>226.33333333333334</ele><time>2026-04-26T13:07:00.82Z</time></trkpt><trkpt lat="44.365384" lon="9.896755"><ele>228.16666666666669</ele><time>2026-04-26T13:07:02.82Z</time></trkpt><trkpt lat="44.3654527" lon="9.8967128"><ele>230.0</ele><time>2026-04-26T13:07:03.82Z</time></trkpt><trkpt lat="44.3655199" lon="9.8967396"><ele>230.0</ele><time>2026-04-26T13:07:38.82Z</time></trkpt><trkpt lat="44.3654386" lon="9.8967526"><ele>230.0</ele><time>2026-04-26T13:07:46.82Z</time></trkpt><trkpt lat="44.3653669" lon="9.8967491"><ele>230.0</ele><time>2026-04-26T13:07:48.819Z</time></trkpt><trkpt lat="44.365276" lon="9.8967757"><ele>230.0</ele><time>2026-04-26T13:07:50.819Z</time></trkpt><trkpt lat="44.3651164" lon="9.8967935"><ele>230.0</ele><time>2026-04-26T13:07:52.819Z</time></trkpt><trkpt lat="44.3650422" lon="9.8968013"><ele>230.0</ele><time>2026-04-26T13:07:53.82Z</time></trkpt><trkpt lat="44.3649679" lon="9.8967651"><ele>230.0</ele><time>2026-04-26T13:07:54.819Z</time></trkpt><trkpt lat="44.364885" lon="9.8967457"><ele>230.0</ele><time>2026-04-26T13:07:55.819Z</time></trkpt><trkpt lat="44.3647936" lon="9.8967214"><ele>230.0</ele><time>2026-04-26T13:07:56.819Z</time></trkpt><trkpt lat="44.3647078" lon="9.8966921"><ele>230.0</ele><time>2026-04-26T13:07:57.819Z</time></trkpt><trkpt lat="44.3646063" lon="9.8966304"><ele>227.8</ele><time>2026-04-26T13:07:58.819Z</time></trkpt><trkpt lat="44.3645153" lon="9.8965772"><ele>225.6</ele><time>2026-04-26T13:07:59.82Z</time></trkpt><trkpt lat="44.3644266" lon="9.8965287"><ele>223.39999999999998</ele><time>2026-04-26T13:08:00.819Z</time></trkpt><trkpt lat="44.3643293" lon="9.8964407"><ele>221.2</ele><time>2026-04-26T13:08:02.819Z</time></trkpt><trkpt lat="44.3642521" lon="9.8963634"><ele>219.0</ele><time>2026-04-26T13:08:04.819Z</time></trkpt><trkpt lat="44.3641955" lon="9.89631"><ele>219.0</ele><time>2026-04-26T13:08:11.819Z</time></trkpt><trkpt lat="44.3641152" lon="9.8962401"><ele>219.0</ele><time>2026-04-26T13:08:14.819Z</time></trkpt><trkpt lat="44.3640443" lon="9.8961955"><ele>219.0</ele><time>2026-04-26T13:08:16.819Z</time></trkpt><trkpt lat="44.3639404" lon="9.8961588"><ele>219.0</ele><time>2026-04-26T13:08:18.819Z</time></trkpt><trkpt lat="44.3638762" lon="9.8961462"><ele>219.0</ele><time>2026-04-26T13:08:19.819Z</time></trkpt><trkpt lat="44.363794" lon="9.8961222"><ele>219.0</ele><time>2026-04-26T13:08:20.819Z</time></trkpt><trkpt lat="44.3637078" lon="9.89609"><ele>217.39999999999998</ele><time>2026-04-26T13:08:21.819Z</time></trkpt><trkpt lat="44.363625" lon="9.8960619"><ele>215.79999999999998</ele><time>2026-04-26T13:08:22.819Z</time></trkpt><trkpt lat="44.3635501" lon="9.8960403"><ele>214.2</ele><time>2026-04-26T13:08:23.82Z</time></trkpt><trkpt lat="44.3634511" lon="9.8959862"><ele>212.60000000000002</ele><time>2026-04-26T13:08:25.82Z</time></trkpt><trkpt lat="44.3634276" lon="9.8958997"><ele>211.0</ele><time>2026-04-26T13:08:31.82Z</time></trkpt><trkpt lat="44.3634868" lon="9.8957564"><ele>210.20000000000002</ele><time>2026-04-26T13:08:33.82Z</time></trkpt><trkpt lat="44.3635247" lon="9.8956723"><ele>209.4</ele><time>2026-04-26T13:08:34.819Z</time></trkpt><trkpt lat="44.3635723" lon="9.8955642"><ele>208.6</ele><time>2026-04-26T13:08:35.819Z</time></trkpt><trkpt lat="44.3636218" lon="9.8954517"><ele>207.8</ele><time>2026-04-26T13:08:36.819Z</time></trkpt><trkpt lat="44.3636776" lon="9.8953342"><ele>207.0</ele><time>2026-04-26T13:08:37.819Z</time></trkpt><trkpt lat="44.3637377" lon="9.8952015"><ele>207.25</ele><time>2026-04-26T13:08:38.82Z</time></trkpt><trkpt lat="44.3638048" lon="9.8950549"><ele>207.5</ele><time>2026-04-26T13:08:39.82Z</time></trkpt><trkpt lat="44.3638705" lon="9.8949123"><ele>207.75</ele><time>2026-04-26T13:08:40.819Z</time></trkpt><trkpt lat="44.363937" lon="9.8947599"><ele>208.0</ele><time>2026-04-26T13:08:41.819Z</time></trkpt><trkpt lat="44.3640053" lon="9.8946015"><ele>209.0</ele><time>2026-04-26T13:08:42.819Z</time></trkpt><trkpt lat="44.3640775" lon="9.8944374"><ele>210.0</ele><time>2026-04-26T13:08:43.819Z</time></trkpt><trkpt lat="44.3641471" lon="9.8942671"><ele>211.0</ele><time>2026-04-26T13:08:44.819Z</time></trkpt><trkpt lat="44.364217" lon="9.8940882"><ele>212.0</ele><time>2026-04-26T13:08:45.82Z</time></trkpt><trkpt lat="44.3642808" lon="9.8938986"><ele>212.0</ele><time>2026-04-26T13:08:46.821Z</time></trkpt><trkpt lat="44.3643386" lon="9.8936998"><ele>212.0</ele><time>2026-04-26T13:08:47.82Z</time></trkpt><trkpt lat="44.3643847" lon="9.8934954"><ele>212.0</ele><time>2026-04-26T13:08:48.821Z</time></trkpt><trkpt lat="44.3644197" lon="9.8932933"><ele>211.75</ele><time>2026-04-26T13:08:49.819Z</time></trkpt><trkpt lat="44.3644479" lon="9.893087"><ele>211.5</ele><time>2026-04-26T13:08:50.819Z</time></trkpt><trkpt lat="44.3644667" lon="9.8928845"><ele>211.25</ele><time>2026-04-26T13:08:51.819Z</time></trkpt><trkpt lat="44.3644722" lon="9.8926834"><ele>211.0</ele><time>2026-04-26T13:08:52.819Z</time></trkpt><trkpt lat="44.3644706" lon="9.8924837"><ele>211.0</ele><time>2026-04-26T13:08:53.819Z</time></trkpt><trkpt lat="44.364464" lon="9.8922878"><ele>211.0</ele><time>2026-04-26T13:08:54.82Z</time></trkpt><trkpt lat="44.3644523" lon="9.892088"><ele>211.0</ele><time>2026-04-26T13:08:55.82Z</time></trkpt><trkpt lat="44.3644395" lon="9.8918927"><ele>211.0</ele><time>2026-04-26T13:08:56.819Z</time></trkpt><trkpt lat="44.3644271" lon="9.8916979"><ele>211.0</ele><time>2026-04-26T13:08:57.819Z</time></trkpt><trkpt lat="44.3644151" lon="9.8915034"><ele>211.0</ele><time>2026-04-26T13:08:58.819Z</time></trkpt><trkpt lat="44.3644026" lon="9.89131"><ele>211.0</ele><time>2026-04-26T13:08:59.819Z</time></trkpt><trkpt lat="44.3643926" lon="9.8911182"><ele>211.0</ele><time>2026-04-26T13:09:00.82Z</time></trkpt><trkpt lat="44.3643816" lon="9.8909184"><ele>211.5</ele><time>2026-04-26T13:09:01.82Z</time></trkpt><trkpt lat="44.3643711" lon="9.890722"><ele>212.0</ele><time>2026-04-26T13:09:02.819Z</time></trkpt><trkpt lat="44.364358" lon="9.8905251"><ele>212.5</ele><time>2026-04-26T13:09:03.819Z</time></trkpt><trkpt lat="44.3643374" lon="9.890334"><ele>213.0</ele><time>2026-04-26T13:09:04.821Z</time></trkpt><trkpt lat="44.3643094" lon="9.8901477"><ele>213.5</ele><time>2026-04-26T13:09:05.819Z</time></trkpt><trkpt lat="44.3642748" lon="9.889968"><ele>214.0</ele><time>2026-04-26T13:09:06.819Z</time></trkpt><trkpt lat="44.3642332" lon="9.8897862"><ele>214.5</ele><time>2026-04-26T13:09:07.819Z</time></trkpt><trkpt lat="44.3641884" lon="9.8896058"><ele>215.0</ele><time>2026-04-26T13:09:08.819Z</time></trkpt><trkpt lat="44.3641357" lon="9.8894267"><ele>216.5</ele><time>2026-04-26T13:09:09.819Z</time></trkpt><trkpt lat="44.3640873" lon="9.8892478"><ele>218.0</ele><time>2026-04-26T13:09:10.82Z</time></trkpt><trkpt lat="44.3640382" lon="9.8890689"><ele>219.5</ele><time>2026-04-26T13:09:11.819Z</time></trkpt><trkpt lat="44.3639895" lon="9.8888919"><ele>221.0</ele><time>2026-04-26T13:09:12.819Z</time></trkpt><trkpt lat="44.3639437" lon="9.8887149"><ele>221.0</ele><time>2026-04-26T13:09:13.819Z</time></trkpt><trkpt lat="44.3638896" lon="9.888541"><ele>221.0</ele><time>2026-04-26T13:09:14.819Z</time></trkpt><trkpt lat="44.3638347" lon="9.8883781"><ele>221.0</ele><time>2026-04-26T13:09:15.82Z</time></trkpt><trkpt lat="44.3637612" lon="9.8882271"><ele>221.0</ele><time>2026-04-26T13:09:16.82Z</time></trkpt><trkpt lat="44.3637031" lon="9.8880966"><ele>219.60000000000002</ele><time>2026-04-26T13:09:17.82Z</time></trkpt><trkpt lat="44.3636657" lon="9.8879553"><ele>218.20000000000002</ele><time>2026-04-26T13:09:18.819Z</time></trkpt><trkpt lat="44.3636432" lon="9.8878122"><ele>216.79999999999998</ele><time>2026-04-26T13:09:19.82Z</time></trkpt><trkpt lat="44.3636373" lon="9.8876543"><ele>215.39999999999998</ele><time>2026-04-26T13:09:20.819Z</time></trkpt><trkpt lat="44.3636267" lon="9.8874851"><ele>214.0</ele><time>2026-04-26T13:09:21.82Z</time></trkpt><trkpt lat="44.3636167" lon="9.8873032"><ele>214.0</ele><time>2026-04-26T13:09:22.819Z</time></trkpt><trkpt lat="44.3636168" lon="9.887134"><ele>214.0</ele><time>2026-04-26T13:09:23.819Z</time></trkpt><trkpt lat="44.3636421" lon="9.8869723"><ele>214.0</ele><time>2026-04-26T13:09:24.819Z</time></trkpt><trkpt lat="44.3636981" lon="9.8868157"><ele>214.0</ele><time>2026-04-26T13:09:25.819Z</time></trkpt><trkpt lat="44.3637711" lon="9.8866646"><ele>214.0</ele><time>2026-04-26T13:09:26.819Z</time></trkpt><trkpt lat="44.3638584" lon="9.8865132"><ele>214.0</ele><time>2026-04-26T13:09:27.819Z</time></trkpt><trkpt lat="44.3639396" lon="9.8863671"><ele>214.0</ele><time>2026-04-26T13:09:28.818Z</time></trkpt><trkpt lat="44.3640228" lon="9.8862124"><ele>214.0</ele><time>2026-04-26T13:09:29.819Z</time></trkpt><trkpt lat="44.3641124" lon="9.8860661"><ele>216.5</ele><time>2026-04-26T13:09:30.818Z</time></trkpt><trkpt lat="44.3641985" lon="9.8859127"><ele>219.0</ele><time>2026-04-26T13:09:31.818Z</time></trkpt><trkpt lat="44.3642802" lon="9.8857625"><ele>221.5</ele><time>2026-04-26T13:09:32.818Z</time></trkpt><trkpt lat="44.3643617" lon="9.8856265"><ele>224.0</ele><time>2026-04-26T13:09:33.818Z</time></trkpt><trkpt lat="44.3644508" lon="9.8854974"><ele>224.0</ele><time>2026-04-26T13:09:34.819Z</time></trkpt><trkpt lat="44.3645517" lon="9.8853786"><ele>224.0</ele><time>2026-04-26T13:09:35.819Z</time></trkpt><trkpt lat="44.3646662" lon="9.8852723"><ele>224.0</ele><time>2026-04-26T13:09:36.818Z</time></trkpt><trkpt lat="44.364789" lon="9.8851797"><ele>224.0</ele><time>2026-04-26T13:09:37.818Z</time></trkpt><trkpt lat="44.3649126" lon="9.8851068"><ele>223.75</ele><time>2026-04-26T13:09:38.818Z</time></trkpt><trkpt lat="44.3650354" lon="9.8850604"><ele>223.5</ele><time>2026-04-26T13:09:39.819Z</time></trkpt><trkpt lat="44.3651614" lon="9.8850408"><ele>223.25</ele><time>2026-04-26T13:09:40.818Z</time></trkpt><trkpt lat="44.3652899" lon="9.8850381"><ele>223.0</ele><time>2026-04-26T13:09:41.818Z</time></trkpt><trkpt lat="44.3654198" lon="9.8850483"><ele>224.5</ele><time>2026-04-26T13:09:42.818Z</time></trkpt><trkpt lat="44.3655507" lon="9.8850716"><ele>226.0</ele><time>2026-04-26T13:09:43.818Z</time></trkpt><trkpt lat="44.3656812" lon="9.8850983"><ele>227.5</ele><time>2026-04-26T13:09:44.818Z</time></trkpt><trkpt lat="44.3658134" lon="9.8851255"><ele>229.0</ele><time>2026-04-26T13:09:45.819Z</time></trkpt><trkpt lat="44.3659438" lon="9.8851466"><ele>233.25</ele><time>2026-04-26T13:09:46.818Z</time></trkpt><trkpt lat="44.3660773" lon="9.8851583"><ele>237.5</ele><time>2026-04-26T13:09:47.818Z</time></trkpt><trkpt lat="44.3662099" lon="9.8851719"><ele>241.75</ele><time>2026-04-26T13:09:48.819Z</time></trkpt><trkpt lat="44.3663509" lon="9.8851847"><ele>246.0</ele><time>2026-04-26T13:09:49.818Z</time></trkpt><trkpt lat="44.3664915" lon="9.8851873"><ele>246.0</ele><time>2026-04-26T13:09:50.818Z</time></trkpt><trkpt lat="44.3666323" lon="9.8851867"><ele>246.0</ele><time>2026-04-26T13:09:51.819Z</time></trkpt><trkpt lat="44.3667805" lon="9.8851842"><ele>246.0</ele><time>2026-04-26T13:09:52.819Z</time></trkpt><trkpt lat="44.3669236" lon="9.8851864"><ele>246.0</ele><time>2026-04-26T13:09:53.818Z</time></trkpt><trkpt lat="44.3670768" lon="9.8851957"><ele>241.0</ele><time>2026-04-26T13:09:54.818Z</time></trkpt><trkpt lat="44.3672264" lon="9.8852025"><ele>236.0</ele><time>2026-04-26T13:09:55.819Z</time></trkpt><trkpt lat="44.3673771" lon="9.8852064"><ele>231.0</ele><time>2026-04-26T13:09:56.819Z</time></trkpt><trkpt lat="44.3675275" lon="9.8852083"><ele>231.0</ele><time>2026-04-26T13:09:57.818Z</time></trkpt><trkpt lat="44.3676774" lon="9.8852086"><ele>231.0</ele><time>2026-04-26T13:09:58.818Z</time></trkpt><trkpt lat="44.3678224" lon="9.8852151"><ele>231.0</ele><time>2026-04-26T13:09:59.818Z</time></trkpt><trkpt lat="44.3679662" lon="9.8852272"><ele>231.0</ele><time>2026-04-26T13:10:00.818Z</time></trkpt><trkpt lat="44.3681021" lon="9.8852687"><ele>230.75</ele><time>2026-04-26T13:10:01.818Z</time></trkpt><trkpt lat="44.3682304" lon="9.8853223"><ele>230.5</ele><time>2026-04-26T13:10:02.818Z</time></trkpt><trkpt lat="44.3683522" lon="9.8853874"><ele>230.25</ele><time>2026-04-26T13:10:03.818Z</time></trkpt><trkpt lat="44.3684686" lon="9.8854512"><ele>230.0</ele><time>2026-04-26T13:10:04.818Z</time></trkpt><trkpt lat="44.3685885" lon="9.8855226"><ele>230.0</ele><time>2026-04-26T13:10:05.818Z</time></trkpt><trkpt lat="44.3687073" lon="9.8856"><ele>230.0</ele><time>2026-04-26T13:10:06.818Z</time></trkpt><trkpt lat="44.3688256" lon="9.8856711"><ele>230.0</ele><time>2026-04-26T13:10:07.819Z</time></trkpt><trkpt lat="44.3689439" lon="9.8857465"><ele>230.0</ele><time>2026-04-26T13:10:08.818Z</time></trkpt><trkpt lat="44.3690635" lon="9.8858217"><ele>230.25</ele><time>2026-04-26T13:10:09.818Z</time></trkpt><trkpt lat="44.3691811" lon="9.8858996"><ele>230.5</ele><time>2026-04-26T13:10:10.818Z</time></trkpt><trkpt lat="44.3692975" lon="9.8859754"><ele>230.75</ele><time>2026-04-26T13:10:11.819Z</time></trkpt><trkpt lat="44.3694131" lon="9.8860455"><ele>231.0</ele><time>2026-04-26T13:10:12.818Z</time></trkpt><trkpt lat="44.3695209" lon="9.8861201"><ele>231.0</ele><time>2026-04-26T13:10:13.818Z</time></trkpt><trkpt lat="44.3696273" lon="9.886194"><ele>231.0</ele><time>2026-04-26T13:10:14.818Z</time></trkpt><trkpt lat="44.3697362" lon="9.886275"><ele>231.0</ele><time>2026-04-26T13:10:15.819Z</time></trkpt><trkpt lat="44.3698439" lon="9.8863577"><ele>231.0</ele><time>2026-04-26T13:10:16.818Z</time></trkpt><trkpt lat="44.3699502" lon="9.8864403"><ele>231.0</ele><time>2026-04-26T13:10:17.818Z</time></trkpt><trkpt lat="44.3700529" lon="9.8865286"><ele>231.0</ele><time>2026-04-26T13:10:18.818Z</time></trkpt><trkpt lat="44.3701601" lon="9.886619"><ele>231.0</ele><time>2026-04-26T13:10:19.818Z</time></trkpt><trkpt lat="44.3702697" lon="9.8867001"><ele>231.0</ele><time>2026-04-26T13:10:20.819Z</time></trkpt><trkpt lat="44.3703813" lon="9.8867804"><ele>231.25</ele><time>2026-04-26T13:10:21.818Z</time></trkpt><trkpt lat="44.3704956" lon="9.8868596"><ele>231.5</ele><time>2026-04-26T13:10:22.818Z</time></trkpt><trkpt lat="44.3706107" lon="9.8869345"><ele>231.75</ele><time>2026-04-26T13:10:23.818Z</time></trkpt><trkpt lat="44.3707275" lon="9.8870116"><ele>232.0</ele><time>2026-04-26T13:10:24.818Z</time></trkpt><trkpt lat="44.3708493" lon="9.8870724"><ele>232.0</ele><time>2026-04-26T13:10:25.819Z</time></trkpt><trkpt lat="44.370974" lon="9.8871273"><ele>232.0</ele><time>2026-04-26T13:10:26.82Z</time></trkpt><trkpt lat="44.3710988" lon="9.8871749"><ele>232.0</ele><time>2026-04-26T13:10:27.818Z</time></trkpt><trkpt lat="44.3712289" lon="9.8872118"><ele>232.0</ele><time>2026-04-26T13:10:28.818Z</time></trkpt><trkpt lat="44.3713644" lon="9.8872386"><ele>232.5</ele><time>2026-04-26T13:10:29.818Z</time></trkpt><trkpt lat="44.371506" lon="9.8872575"><ele>233.0</ele><time>2026-04-26T13:10:30.819Z</time></trkpt><trkpt lat="44.3716503" lon="9.8872611"><ele>233.5</ele><time>2026-04-26T13:10:31.819Z</time></trkpt><trkpt lat="44.3717977" lon="9.8872556"><ele>234.0</ele><time>2026-04-26T13:10:32.819Z</time></trkpt><trkpt lat="44.3719434" lon="9.8872301"><ele>234.0</ele><time>2026-04-26T13:10:33.819Z</time></trkpt><trkpt lat="44.3720866" lon="9.8871948"><ele>234.0</ele><time>2026-04-26T13:10:34.819Z</time></trkpt><trkpt lat="44.372231" lon="9.887151"><ele>234.0</ele><time>2026-04-26T13:10:35.819Z</time></trkpt><trkpt lat="44.372381" lon="9.8871073"><ele>234.0</ele><time>2026-04-26T13:10:36.818Z</time></trkpt><trkpt lat="44.3725265" lon="9.8870631"><ele>234.33333333333331</ele><time>2026-04-26T13:10:37.818Z</time></trkpt><trkpt lat="44.3726736" lon="9.8870148"><ele>234.66666666666666</ele><time>2026-04-26T13:10:38.819Z</time></trkpt><trkpt lat="44.3728204" lon="9.886972"><ele>235.0</ele><time>2026-04-26T13:10:39.818Z</time></trkpt><trkpt lat="44.3729673" lon="9.8869308"><ele>235.33333333333331</ele><time>2026-04-26T13:10:40.818Z</time></trkpt><trkpt lat="44.3731162" lon="9.8868865"><ele>235.66666666666669</ele><time>2026-04-26T13:10:41.818Z</time></trkpt><trkpt lat="44.3732701" lon="9.8868393"><ele>236.0</ele><time>2026-04-26T13:10:42.819Z</time></trkpt><trkpt lat="44.3734214" lon="9.8867913"><ele>235.66666666666669</ele><time>2026-04-26T13:10:43.818Z</time></trkpt><trkpt lat="44.3735694" lon="9.8867368"><ele>235.33333333333331</ele><time>2026-04-26T13:10:44.818Z</time></trkpt><trkpt lat="44.3737209" lon="9.8866857"><ele>235.0</ele><time>2026-04-26T13:10:45.818Z</time></trkpt><trkpt lat="44.3738717" lon="9.8866359"><ele>235.0</ele><time>2026-04-26T13:10:46.819Z</time></trkpt><trkpt lat="44.3740315" lon="9.8865925"><ele>235.0</ele><time>2026-04-26T13:10:47.819Z</time></trkpt><trkpt lat="44.3741863" lon="9.8865476"><ele>235.0</ele><time>2026-04-26T13:10:48.818Z</time></trkpt><trkpt lat="44.3743405" lon="9.8864993"><ele>235.0</ele><time>2026-04-26T13:10:49.818Z</time></trkpt><trkpt lat="44.3744999" lon="9.8864477"><ele>235.0</ele><time>2026-04-26T13:10:50.819Z</time></trkpt><trkpt lat="44.3746535" lon="9.8863995"><ele>235.0</ele><time>2026-04-26T13:10:51.819Z</time></trkpt><trkpt lat="44.3748048" lon="9.8863567"><ele>236.0</ele><time>2026-04-26T13:10:52.819Z</time></trkpt><trkpt lat="44.3749538" lon="9.8863134"><ele>237.0</ele><time>2026-04-26T13:10:53.819Z</time></trkpt><trkpt lat="44.3750934" lon="9.8862568"><ele>238.0</ele><time>2026-04-26T13:10:54.818Z</time></trkpt><trkpt lat="44.3752206" lon="9.8861677"><ele>239.0</ele><time>2026-04-26T13:10:55.819Z</time></trkpt><trkpt lat="44.3753451" lon="9.8860658"><ele>239.0</ele><time>2026-04-26T13:10:56.818Z</time></trkpt><trkpt lat="44.3754691" lon="9.8859616"><ele>239.0</ele><time>2026-04-26T13:10:57.818Z</time></trkpt><trkpt lat="44.3755907" lon="9.8858608"><ele>239.0</ele><time>2026-04-26T13:10:58.819Z</time></trkpt><trkpt lat="44.3757085" lon="9.8857692"><ele>239.0</ele><time>2026-04-26T13:10:59.818Z</time></trkpt><trkpt lat="44.3758214" lon="9.8856877"><ele>240.0</ele><time>2026-04-26T13:11:00.819Z</time></trkpt><trkpt lat="44.3759302" lon="9.8856177"><ele>240.99999999999997</ele><time>2026-04-26T13:11:01.819Z</time></trkpt><trkpt lat="44.3760326" lon="9.8855614"><ele>241.99999999999997</ele><time>2026-04-26T13:11:02.819Z</time></trkpt><trkpt lat="44.3761299" lon="9.8855039"><ele>243.0</ele><time>2026-04-26T13:11:03.819Z</time></trkpt><trkpt lat="44.3762264" lon="9.8854491"><ele>244.0</ele><time>2026-04-26T13:11:04.819Z</time></trkpt><trkpt lat="44.3763278" lon="9.8853976"><ele>246.5</ele><time>2026-04-26T13:11:05.818Z</time></trkpt><trkpt lat="44.3764396" lon="9.885346"><ele>249.0</ele><time>2026-04-26T13:11:06.818Z</time></trkpt><trkpt lat="44.3765583" lon="9.885294"><ele>251.5</ele><time>2026-04-26T13:11:07.818Z</time></trkpt><trkpt lat="44.3766846" lon="9.885244"><ele>254.0</ele><time>2026-04-26T13:11:08.818Z</time></trkpt><trkpt lat="44.3768174" lon="9.8851971"><ele>254.0</ele><time>2026-04-26T13:11:09.819Z</time></trkpt><trkpt lat="44.3769576" lon="9.8851527"><ele>254.0</ele><time>2026-04-26T13:11:10.818Z</time></trkpt><trkpt lat="44.3771047" lon="9.8851087"><ele>254.0</ele><time>2026-04-26T13:11:11.819Z</time></trkpt><trkpt lat="44.3772519" lon="9.8850627"><ele>254.0</ele><time>2026-04-26T13:11:12.819Z</time></trkpt><trkpt lat="44.3773947" lon="9.8850152"><ele>251.5</ele><time>2026-04-26T13:11:13.818Z</time></trkpt><trkpt lat="44.3775343" lon="9.8849606"><ele>249.0</ele><time>2026-04-26T13:11:14.818Z</time></trkpt><trkpt lat="44.3776791" lon="9.8849069"><ele>246.5</ele><time>2026-04-26T13:11:15.818Z</time></trkpt><trkpt lat="44.3778219" lon="9.8848574"><ele>244.0</ele><time>2026-04-26T13:11:16.819Z</time></trkpt><trkpt lat="44.3779629" lon="9.884807"><ele>245.0</ele><time>2026-04-26T13:11:17.818Z</time></trkpt><trkpt lat="44.3781036" lon="9.8847593"><ele>246.0</ele><time>2026-04-26T13:11:18.818Z</time></trkpt><trkpt lat="44.3782435" lon="9.8847066"><ele>247.0</ele><time>2026-04-26T13:11:19.818Z</time></trkpt><trkpt lat="44.378386" lon="9.8846497"><ele>248.0</ele><time>2026-04-26T13:11:20.819Z</time></trkpt><trkpt lat="44.3785175" lon="9.8845982"><ele>248.0</ele><time>2026-04-26T13:11:21.819Z</time></trkpt><trkpt lat="44.3786448" lon="9.8845468"><ele>248.0</ele><time>2026-04-26T13:11:22.818Z</time></trkpt><trkpt lat="44.3787676" lon="9.8844852"><ele>248.0</ele><time>2026-04-26T13:11:23.818Z</time></trkpt><trkpt lat="44.3788869" lon="9.8844233"><ele>248.0</ele><time>2026-04-26T13:11:24.819Z</time></trkpt><trkpt lat="44.3790053" lon="9.8843654"><ele>249.25</ele><time>2026-04-26T13:11:25.818Z</time></trkpt><trkpt lat="44.3791234" lon="9.8842993"><ele>250.5</ele><time>2026-04-26T13:11:26.818Z</time></trkpt><trkpt lat="44.3792526" lon="9.884236"><ele>251.75</ele><time>2026-04-26T13:11:27.818Z</time></trkpt><trkpt lat="44.3793792" lon="9.8841746"><ele>253.0</ele><time>2026-04-26T13:11:28.819Z</time></trkpt><trkpt lat="44.3795052" lon="9.8841212"><ele>252.0</ele><time>2026-04-26T13:11:29.818Z</time></trkpt><trkpt lat="44.3796375" lon="9.8840788"><ele>251.0</ele><time>2026-04-26T13:11:30.818Z</time></trkpt><trkpt lat="44.3797722" lon="9.8840502"><ele>250.0</ele><time>2026-04-26T13:11:31.818Z</time></trkpt><trkpt lat="44.379903" lon="9.884047"><ele>249.0</ele><time>2026-04-26T13:11:32.819Z</time></trkpt><trkpt lat="44.3800292" lon="9.8840592"><ele>260.0</ele><time>2026-04-26T13:11:33.819Z</time></trkpt><trkpt lat="44.3817499" lon="9.8846745"><ele>260.0</ele><time>2026-04-26T13:11:45.818Z</time></trkpt><trkpt lat="44.3818687" lon="9.8846385"><ele>260.0</ele><time>2026-04-26T13:11:46.819Z</time></trkpt><trkpt lat="44.38198" lon="9.8845718"><ele>260.0</ele><time>2026-04-26T13:11:47.818Z</time></trkpt><trkpt lat="44.3820927" lon="9.8844896"><ele>260.0</ele><time>2026-04-26T13:11:48.818Z</time></trkpt><trkpt lat="44.3822004" lon="9.8843925"><ele>258.5</ele><time>2026-04-26T13:11:49.819Z</time></trkpt><trkpt lat="44.3823167" lon="9.8842853"><ele>257.0</ele><time>2026-04-26T13:11:50.819Z</time></trkpt><trkpt lat="44.3824241" lon="9.8841824"><ele>255.5</ele><time>2026-04-26T13:11:51.819Z</time></trkpt><trkpt lat="44.3825329" lon="9.8840751"><ele>254.0</ele><time>2026-04-26T13:11:52.818Z</time></trkpt><trkpt lat="44.3826461" lon="9.8839756"><ele>252.75</ele><time>2026-04-26T13:11:53.818Z</time></trkpt><trkpt lat="44.3827702" lon="9.8839018"><ele>251.5</ele><time>2026-04-26T13:11:54.818Z</time></trkpt><trkpt lat="44.3828974" lon="9.883852"><ele>250.25</ele><time>2026-04-26T13:11:55.819Z</time></trkpt><trkpt lat="44.3830305" lon="9.8838234"><ele>249.0</ele><time>2026-04-26T13:11:56.818Z</time></trkpt><trkpt lat="44.3831645" lon="9.8838038"><ele>249.0</ele><time>2026-04-26T13:11:57.818Z</time></trkpt><trkpt lat="44.3832975" lon="9.8837845"><ele>249.0</ele><time>2026-04-26T13:11:58.818Z</time></trkpt><trkpt lat="44.3834284" lon="9.8837645"><ele>249.0</ele><time>2026-04-26T13:11:59.818Z</time></trkpt><trkpt lat="44.3835619" lon="9.883746"><ele>249.0</ele><time>2026-04-26T13:12:00.818Z</time></trkpt><trkpt lat="44.3836995" lon="9.883738"><ele>249.0</ele><time>2026-04-26T13:12:01.818Z</time></trkpt><trkpt lat="44.3838359" lon="9.8837235"><ele>249.0</ele><time>2026-04-26T13:12:02.818Z</time></trkpt><trkpt lat="44.3839741" lon="9.8837195"><ele>249.0</ele><time>2026-04-26T13:12:03.818Z</time></trkpt><trkpt lat="44.3841101" lon="9.883722"><ele>249.0</ele><time>2026-04-26T13:12:04.819Z</time></trkpt><trkpt lat="44.3842469" lon="9.8837271"><ele>250.0</ele><time>2026-04-26T13:12:05.819Z</time></trkpt><trkpt lat="44.3843845" lon="9.8837395"><ele>251.0</ele><time>2026-04-26T13:12:06.819Z</time></trkpt><trkpt lat="44.3845243" lon="9.8837525"><ele>252.0</ele><time>2026-04-26T13:12:07.818Z</time></trkpt><trkpt lat="44.3846606" lon="9.8837651"><ele>253.0</ele><time>2026-04-26T13:12:08.818Z</time></trkpt><trkpt lat="44.3848006" lon="9.8837794"><ele>253.75</ele><time>2026-04-26T13:12:09.819Z</time></trkpt><trkpt lat="44.3849387" lon="9.8838007"><ele>254.5</ele><time>2026-04-26T13:12:10.819Z</time></trkpt><trkpt lat="44.3850806" lon="9.8838264"><ele>255.25</ele><time>2026-04-26T13:12:11.818Z</time></trkpt><trkpt lat="44.3852189" lon="9.8838499"><ele>256.0</ele><time>2026-04-26T13:12:12.819Z</time></trkpt><trkpt lat="44.3853655" lon="9.8838749"><ele>256.0</ele><time>2026-04-26T13:12:13.818Z</time></trkpt><trkpt lat="44.3855069" lon="9.8838955"><ele>256.0</ele><time>2026-04-26T13:12:14.818Z</time></trkpt><trkpt lat="44.3856544" lon="9.8839209"><ele>256.0</ele><time>2026-04-26T13:12:15.817Z</time></trkpt><trkpt lat="44.3858028" lon="9.8839394"><ele>256.0</ele><time>2026-04-26T13:12:16.817Z</time></trkpt><trkpt lat="44.3859498" lon="9.8839611"><ele>256.5</ele><time>2026-04-26T13:12:17.817Z</time></trkpt><trkpt lat="44.3860902" lon="9.8839826"><ele>257.0</ele><time>2026-04-26T13:12:18.817Z</time></trkpt><trkpt lat="44.3862347" lon="9.8840049"><ele>257.5</ele><time>2026-04-26T13:12:19.817Z</time></trkpt><trkpt lat="44.3863793" lon="9.88403"><ele>258.0</ele><time>2026-04-26T13:12:20.817Z</time></trkpt><trkpt lat="44.3865285" lon="9.8840534"><ele>258.75</ele><time>2026-04-26T13:12:21.817Z</time></trkpt><trkpt lat="44.3866742" lon="9.8840733"><ele>259.5</ele><time>2026-04-26T13:12:22.818Z</time></trkpt><trkpt lat="44.3868242" lon="9.8840911"><ele>260.25</ele><time>2026-04-26T13:12:23.817Z</time></trkpt><trkpt lat="44.3869715" lon="9.8841147"><ele>261.0</ele><time>2026-04-26T13:12:24.818Z</time></trkpt><trkpt lat="44.3871239" lon="9.8841339"><ele>262.3333333333333</ele><time>2026-04-26T13:12:25.818Z</time></trkpt><trkpt lat="44.3872761" lon="9.8841536"><ele>263.66666666666663</ele><time>2026-04-26T13:12:26.817Z</time></trkpt><trkpt lat="44.387433" lon="9.8841723"><ele>265.0</ele><time>2026-04-26T13:12:27.817Z</time></trkpt><trkpt lat="44.387588" lon="9.8841908"><ele>265.0</ele><time>2026-04-26T13:12:28.817Z</time></trkpt><trkpt lat="44.3877411" lon="9.8842151"><ele>265.0</ele><time>2026-04-26T13:12:29.818Z</time></trkpt><trkpt lat="44.3879013" lon="9.8842455"><ele>265.0</ele><time>2026-04-26T13:12:30.818Z</time></trkpt><trkpt lat="44.388061" lon="9.8842724"><ele>265.0</ele><time>2026-04-26T13:12:31.818Z</time></trkpt><trkpt lat="44.3882212" lon="9.8842984"><ele>265.0</ele><time>2026-04-26T13:12:32.817Z</time></trkpt><trkpt lat="44.3883825" lon="9.8843237"><ele>265.0</ele><time>2026-04-26T13:12:33.817Z</time></trkpt><trkpt lat="44.3885495" lon="9.8843498"><ele>265.0</ele><time>2026-04-26T13:12:34.817Z</time></trkpt><trkpt lat="44.3887171" lon="9.8843714"><ele>265.0</ele><time>2026-04-26T13:12:35.818Z</time></trkpt><trkpt lat="44.3888888" lon="9.8843975"><ele>265.0</ele><time>2026-04-26T13:12:36.818Z</time></trkpt><trkpt lat="44.3890588" lon="9.8844157"><ele>265.0</ele><time>2026-04-26T13:12:37.817Z</time></trkpt><trkpt lat="44.3892277" lon="9.8844301"><ele>265.0</ele><time>2026-04-26T13:12:38.817Z</time></trkpt><trkpt lat="44.3893951" lon="9.8844249"><ele>265.0</ele><time>2026-04-26T13:12:39.817Z</time></trkpt><trkpt lat="44.3895572" lon="9.8844088"><ele>266.0</ele><time>2026-04-26T13:12:40.819Z</time></trkpt><trkpt lat="44.3897176" lon="9.8843825"><ele>267.0</ele><time>2026-04-26T13:12:41.817Z</time></trkpt><trkpt lat="44.3898723" lon="9.8843469"><ele>268.0</ele><time>2026-04-26T13:12:42.817Z</time></trkpt><trkpt lat="44.3900274" lon="9.8843003"><ele>271.0</ele><time>2026-04-26T13:12:43.818Z</time></trkpt><trkpt lat="44.390182" lon="9.8842379"><ele>274.0</ele><time>2026-04-26T13:12:44.818Z</time></trkpt><trkpt lat="44.3903362" lon="9.8841656"><ele>277.0</ele><time>2026-04-26T13:12:45.818Z</time></trkpt><trkpt lat="44.3904837" lon="9.8840766"><ele>277.0</ele><time>2026-04-26T13:12:46.817Z</time></trkpt><trkpt lat="44.3906253" lon="9.8839811"><ele>277.0</ele><time>2026-04-26T13:12:47.817Z</time></trkpt><trkpt lat="44.3907611" lon="9.8838696"><ele>277.0</ele><time>2026-04-26T13:12:48.818Z</time></trkpt><trkpt lat="44.3908927" lon="9.8837486"><ele>277.0</ele><time>2026-04-26T13:12:49.817Z</time></trkpt><trkpt lat="44.3910163" lon="9.8836266"><ele>277.0</ele><time>2026-04-26T13:12:50.817Z</time></trkpt><trkpt lat="44.3911357" lon="9.8835031"><ele>277.0</ele><time>2026-04-26T13:12:51.817Z</time></trkpt><trkpt lat="44.3912549" lon="9.8833809"><ele>277.0</ele><time>2026-04-26T13:12:52.817Z</time></trkpt><trkpt lat="44.391373" lon="9.8832636"><ele>278.25</ele><time>2026-04-26T13:12:53.817Z</time></trkpt><trkpt lat="44.3914926" lon="9.8831419"><ele>279.5</ele><time>2026-04-26T13:12:54.818Z</time></trkpt><trkpt lat="44.3916101" lon="9.883024"><ele>280.75</ele><time>2026-04-26T13:12:55.818Z</time></trkpt><trkpt lat="44.3917278" lon="9.8829068"><ele>282.0</ele><time>2026-04-26T13:12:56.817Z</time></trkpt><trkpt lat="44.3918442" lon="9.8827905"><ele>282.0</ele><time>2026-04-26T13:12:57.817Z</time></trkpt><trkpt lat="44.3919567" lon="9.8826733"><ele>282.0</ele><time>2026-04-26T13:12:58.817Z</time></trkpt><trkpt lat="44.3920697" lon="9.8825551"><ele>282.0</ele><time>2026-04-26T13:12:59.818Z</time></trkpt><trkpt lat="44.3921834" lon="9.8824375"><ele>282.0</ele><time>2026-04-26T13:13:00.819Z</time></trkpt><trkpt lat="44.3923017" lon="9.8823184"><ele>283.5</ele><time>2026-04-26T13:13:01.818Z</time></trkpt><trkpt lat="44.3924215" lon="9.8822011"><ele>285.0</ele><time>2026-04-26T13:13:02.818Z</time></trkpt><trkpt lat="44.3925456" lon="9.8820855"><ele>286.5</ele><time>2026-04-26T13:13:03.818Z</time></trkpt><trkpt lat="44.3926618" lon="9.8819663"><ele>288.0</ele><time>2026-04-26T13:13:04.817Z</time></trkpt><trkpt lat="44.3927761" lon="9.8818507"><ele>287.0</ele><time>2026-04-26T13:13:05.817Z</time></trkpt><trkpt lat="44.392891" lon="9.8817351"><ele>286.0</ele><time>2026-04-26T13:13:06.817Z</time></trkpt><trkpt lat="44.3930009" lon="9.8816137"><ele>285.0</ele><time>2026-04-26T13:13:07.817Z</time></trkpt><trkpt lat="44.3931089" lon="9.8815086"><ele>284.0</ele><time>2026-04-26T13:13:08.818Z</time></trkpt><trkpt lat="44.39321" lon="9.881412"><ele>284.0</ele><time>2026-04-26T13:13:09.819Z</time></trkpt><trkpt lat="44.3933053" lon="9.8813258"><ele>284.0</ele><time>2026-04-26T13:13:10.817Z</time></trkpt><trkpt lat="44.3933928" lon="9.8812528"><ele>284.0</ele><time>2026-04-26T13:13:11.817Z</time></trkpt><trkpt lat="44.3934735" lon="9.8811868"><ele>284.0</ele><time>2026-04-26T13:13:12.817Z</time></trkpt><trkpt lat="44.3935335" lon="9.8811002"><ele>284.0</ele><time>2026-04-26T13:13:13.817Z</time></trkpt><trkpt lat="44.3935811" lon="9.8810132"><ele>285.2</ele><time>2026-04-26T13:13:14.818Z</time></trkpt><trkpt lat="44.3936328" lon="9.8809323"><ele>286.4</ele><time>2026-04-26T13:13:15.817Z</time></trkpt><trkpt lat="44.3937032" lon="9.8808492"><ele>287.6</ele><time>2026-04-26T13:13:16.817Z</time></trkpt><trkpt lat="44.3937907" lon="9.8807734"><ele>288.8</ele><time>2026-04-26T13:13:17.817Z</time></trkpt><trkpt lat="44.3938905" lon="9.8806873"><ele>290.0</ele><time>2026-04-26T13:13:18.817Z</time></trkpt><trkpt lat="44.3940003" lon="9.8805994"><ele>290.0</ele><time>2026-04-26T13:13:19.817Z</time></trkpt><trkpt lat="44.3941035" lon="9.8805107"><ele>290.0</ele><time>2026-04-26T13:13:20.817Z</time></trkpt><trkpt lat="44.3942114" lon="9.8804145"><ele>290.0</ele><time>2026-04-26T13:13:21.817Z</time></trkpt><trkpt lat="44.3943226" lon="9.8803243"><ele>290.0</ele><time>2026-04-26T13:13:22.817Z</time></trkpt><trkpt lat="44.3944339" lon="9.8802266"><ele>290.0</ele><time>2026-04-26T13:13:23.817Z</time></trkpt><trkpt lat="44.3945429" lon="9.8801334"><ele>290.0</ele><time>2026-04-26T13:13:24.817Z</time></trkpt><trkpt lat="44.3946537" lon="9.8800454"><ele>290.0</ele><time>2026-04-26T13:13:25.817Z</time></trkpt><trkpt lat="44.394777" lon="9.8799762"><ele>290.0</ele><time>2026-04-26T13:13:26.817Z</time></trkpt><trkpt lat="44.3949064" lon="9.8799242"><ele>293.0</ele><time>2026-04-26T13:13:27.817Z</time></trkpt><trkpt lat="44.395033" lon="9.8798824"><ele>296.0</ele><time>2026-04-26T13:13:28.817Z</time></trkpt><trkpt lat="44.3951726" lon="9.8798443"><ele>299.0</ele><time>2026-04-26T13:13:29.817Z</time></trkpt><trkpt lat="44.3953121" lon="9.8798137"><ele>302.0</ele><time>2026-04-26T13:13:30.817Z</time></trkpt><trkpt lat="44.3954721" lon="9.8797793"><ele>300.6666666666667</ele><time>2026-04-26T13:13:31.817Z</time></trkpt><trkpt lat="44.3956257" lon="9.8797514"><ele>299.3333333333333</ele><time>2026-04-26T13:13:32.817Z</time></trkpt><trkpt lat="44.3957878" lon="9.8797167"><ele>298.0</ele><time>2026-04-26T13:13:33.817Z</time></trkpt><trkpt lat="44.3959372" lon="9.8796795"><ele>298.0</ele><time>2026-04-26T13:13:34.817Z</time></trkpt><trkpt lat="44.3960672" lon="9.8796197"><ele>298.0</ele><time>2026-04-26T13:13:35.817Z</time></trkpt><trkpt lat="44.3962155" lon="9.8795106"><ele>298.0</ele><time>2026-04-26T13:13:36.817Z</time></trkpt><trkpt lat="44.3963387" lon="9.8793797"><ele>301.3333333333333</ele><time>2026-04-26T13:13:37.818Z</time></trkpt><trkpt lat="44.3964691" lon="9.8792538"><ele>304.6666666666667</ele><time>2026-04-26T13:13:38.818Z</time></trkpt><trkpt lat="44.3966006" lon="9.8791164"><ele>308.0</ele><time>2026-04-26T13:13:39.817Z</time></trkpt><trkpt lat="44.3967348" lon="9.8789896"><ele>308.0</ele><time>2026-04-26T13:13:40.817Z</time></trkpt><trkpt lat="44.3968653" lon="9.8788595"><ele>308.0</ele><time>2026-04-26T13:13:41.817Z</time></trkpt><trkpt lat="44.3969892" lon="9.878737"><ele>308.0</ele><time>2026-04-26T13:13:42.817Z</time></trkpt><trkpt lat="44.3971194" lon="9.8786229"><ele>305.0</ele><time>2026-04-26T13:13:43.817Z</time></trkpt><trkpt lat="44.3972457" lon="9.8785382"><ele>302.0</ele><time>2026-04-26T13:13:44.817Z</time></trkpt><trkpt lat="44.3973663" lon="9.8784716"><ele>299.0</ele><time>2026-04-26T13:13:45.817Z</time></trkpt><trkpt lat="44.3975254" lon="9.8784785"><ele>296.0</ele><time>2026-04-26T13:13:46.817Z</time></trkpt><trkpt lat="44.3976731" lon="9.8784791"><ele>296.0</ele><time>2026-04-26T13:13:47.817Z</time></trkpt><trkpt lat="44.397824" lon="9.8784445"><ele>296.0</ele><time>2026-04-26T13:13:48.817Z</time></trkpt><trkpt lat="44.3979821" lon="9.8783861"><ele>296.0</ele><time>2026-04-26T13:13:49.818Z</time></trkpt><trkpt lat="44.398134" lon="9.8783185"><ele>300.0</ele><time>2026-04-26T13:13:50.817Z</time></trkpt><trkpt lat="44.3982519" lon="9.8782081"><ele>304.0</ele><time>2026-04-26T13:13:51.817Z</time></trkpt><trkpt lat="44.3983456" lon="9.8781712"><ele>308.0</ele><time>2026-04-26T13:13:52.818Z</time></trkpt><trkpt lat="44.3984552" lon="9.8781416"><ele>312.0</ele><time>2026-04-26T13:13:53.817Z</time></trkpt><trkpt lat="44.3985718" lon="9.8782533"><ele>312.0</ele><time>2026-04-26T13:13:54.817Z</time></trkpt><trkpt lat="44.3986871" lon="9.8783073"><ele>312.0</ele><time>2026-04-26T13:13:55.817Z</time></trkpt><trkpt lat="44.3988087" lon="9.8783727"><ele>312.0</ele><time>2026-04-26T13:13:56.817Z</time></trkpt><trkpt lat="44.3989382" lon="9.8784521"><ele>312.0</ele><time>2026-04-26T13:13:57.817Z</time></trkpt><trkpt lat="44.3990673" lon="9.87851"><ele>311.25</ele><time>2026-04-26T13:13:58.817Z</time></trkpt><trkpt lat="44.3992034" lon="9.8785447"><ele>310.5</ele><time>2026-04-26T13:13:59.817Z</time></trkpt><trkpt lat="44.3993444" lon="9.8785374"><ele>309.75</ele><time>2026-04-26T13:14:00.817Z</time></trkpt><trkpt lat="44.3994841" lon="9.8785052"><ele>309.0</ele><time>2026-04-26T13:14:01.818Z</time></trkpt><trkpt lat="44.3996256" lon="9.8784637"><ele>312.75</ele><time>2026-04-26T13:14:02.818Z</time></trkpt><trkpt lat="44.3997642" lon="9.8784195"><ele>316.5</ele><time>2026-04-26T13:14:03.817Z</time></trkpt><trkpt lat="44.3999046" lon="9.8783691"><ele>320.25</ele><time>2026-04-26T13:14:04.817Z</time></trkpt><trkpt lat="44.4000476" lon="9.8783281"><ele>324.0</ele><time>2026-04-26T13:14:05.817Z</time></trkpt><trkpt lat="44.4001883" lon="9.8782905"><ele>324.0</ele><time>2026-04-26T13:14:06.817Z</time></trkpt><trkpt lat="44.4003278" lon="9.8782568"><ele>324.0</ele><time>2026-04-26T13:14:07.817Z</time></trkpt><trkpt lat="44.4004649" lon="9.8782231"><ele>324.0</ele><time>2026-04-26T13:14:08.818Z</time></trkpt><trkpt lat="44.4006074" lon="9.8782006"><ele>324.0</ele><time>2026-04-26T13:14:09.818Z</time></trkpt><trkpt lat="44.4007485" lon="9.8781807"><ele>324.5</ele><time>2026-04-26T13:14:10.819Z</time></trkpt><trkpt lat="44.4008918" lon="9.8781591"><ele>325.0</ele><time>2026-04-26T13:14:11.818Z</time></trkpt><trkpt lat="44.4010433" lon="9.878143"><ele>325.5</ele><time>2026-04-26T13:14:12.819Z</time></trkpt><trkpt lat="44.4011927" lon="9.8781359"><ele>326.0</ele><time>2026-04-26T13:14:13.817Z</time></trkpt><trkpt lat="44.4013422" lon="9.8781393"><ele>326.0</ele><time>2026-04-26T13:14:14.817Z</time></trkpt><trkpt lat="44.4014936" lon="9.8781493"><ele>326.0</ele><time>2026-04-26T13:14:15.817Z</time></trkpt><trkpt lat="44.4016498" lon="9.8781698"><ele>326.0</ele><time>2026-04-26T13:14:16.817Z</time></trkpt><trkpt lat="44.4018058" lon="9.8781831"><ele>326.0</ele><time>2026-04-26T13:14:17.817Z</time></trkpt><trkpt lat="44.401961" lon="9.8781899"><ele>326.0</ele><time>2026-04-26T13:14:18.817Z</time></trkpt><trkpt lat="44.4021105" lon="9.8781783"><ele>326.0</ele><time>2026-04-26T13:14:19.818Z</time></trkpt><trkpt lat="44.4022618" lon="9.878136"><ele>326.0</ele><time>2026-04-26T13:14:20.818Z</time></trkpt><trkpt lat="44.4024171" lon="9.8780812"><ele>326.0</ele><time>2026-04-26T13:14:21.818Z</time></trkpt><trkpt lat="44.4025701" lon="9.8780166"><ele>326.0</ele><time>2026-04-26T13:14:22.817Z</time></trkpt><trkpt lat="44.4027261" lon="9.8779536"><ele>326.0</ele><time>2026-04-26T13:14:23.817Z</time></trkpt><trkpt lat="44.4028787" lon="9.8779037"><ele>326.0</ele><time>2026-04-26T13:14:24.817Z</time></trkpt><trkpt lat="44.4030332" lon="9.8778682"><ele>326.0</ele><time>2026-04-26T13:14:25.817Z</time></trkpt><trkpt lat="44.4031828" lon="9.8778487"><ele>325.25</ele><time>2026-04-26T13:14:26.817Z</time></trkpt><trkpt lat="44.4033281" lon="9.8778633"><ele>324.5</ele><time>2026-04-26T13:14:27.818Z</time></trkpt><trkpt lat="44.4034707" lon="9.8779161"><ele>323.75</ele><time>2026-04-26T13:14:28.818Z</time></trkpt><trkpt lat="44.4036113" lon="9.8779927"><ele>323.0</ele><time>2026-04-26T13:14:29.819Z</time></trkpt><trkpt lat="44.403756" lon="9.8780811"><ele>325.0</ele><time>2026-04-26T13:14:30.818Z</time></trkpt><trkpt lat="44.4038995" lon="9.8781812"><ele>327.0</ele><time>2026-04-26T13:14:31.818Z</time></trkpt><trkpt lat="44.4040326" lon="9.8783017"><ele>329.0</ele><time>2026-04-26T13:14:32.818Z</time></trkpt><trkpt lat="44.4041599" lon="9.8784427"><ele>329.0</ele><time>2026-04-26T13:14:33.817Z</time></trkpt><trkpt lat="44.4042874" lon="9.8785878"><ele>329.0</ele><time>2026-04-26T13:14:34.817Z</time></trkpt><trkpt lat="44.4044092" lon="9.8787138"><ele>329.0</ele><time>2026-04-26T13:14:35.818Z</time></trkpt><trkpt lat="44.4045305" lon="9.8788157"><ele>329.0</ele><time>2026-04-26T13:14:36.817Z</time></trkpt><trkpt lat="44.4046498" lon="9.8788753"><ele>329.0</ele><time>2026-04-26T13:14:37.817Z</time></trkpt><trkpt lat="44.4047649" lon="9.8789003"><ele>329.0</ele><time>2026-04-26T13:14:38.818Z</time></trkpt><trkpt lat="44.4048596" lon="9.8789244"><ele>329.0</ele><time>2026-04-26T13:14:39.818Z</time></trkpt><trkpt lat="44.4049287" lon="9.8789859"><ele>329.0</ele><time>2026-04-26T13:14:40.818Z</time></trkpt><trkpt lat="44.4049879" lon="9.8790729"><ele>329.79999999999995</ele><time>2026-04-26T13:14:41.818Z</time></trkpt><trkpt lat="44.4050482" lon="9.8791739"><ele>330.59999999999997</ele><time>2026-04-26T13:14:42.817Z</time></trkpt><trkpt lat="44.4051139" lon="9.8792829"><ele>331.4</ele><time>2026-04-26T13:14:43.817Z</time></trkpt><trkpt lat="44.4051941" lon="9.8793756"><ele>332.2</ele><time>2026-04-26T13:14:44.817Z</time></trkpt><trkpt lat="44.4052672" lon="9.879441"><ele>333.0</ele><time>2026-04-26T13:14:45.818Z</time></trkpt><trkpt lat="44.4053875" lon="9.8794357"><ele>334.25</ele><time>2026-04-26T13:14:46.817Z</time></trkpt><trkpt lat="44.4055009" lon="9.8793823"><ele>335.5</ele><time>2026-04-26T13:14:47.817Z</time></trkpt><trkpt lat="44.4056096" lon="9.8793369"><ele>336.75</ele><time>2026-04-26T13:14:48.817Z</time></trkpt><trkpt lat="44.4057264" lon="9.8792871"><ele>338.0</ele><time>2026-04-26T13:14:49.817Z</time></trkpt><trkpt lat="44.4058491" lon="9.879242"><ele>338.0</ele><time>2026-04-26T13:14:50.818Z</time></trkpt><trkpt lat="44.4059801" lon="9.879195"><ele>338.0</ele><time>2026-04-26T13:14:51.818Z</time></trkpt><trkpt lat="44.4061139" lon="9.8791366"><ele>338.0</ele><time>2026-04-26T13:14:52.818Z</time></trkpt><trkpt lat="44.4062534" lon="9.879083"><ele>338.0</ele><time>2026-04-26T13:14:53.817Z</time></trkpt><trkpt lat="44.4063995" lon="9.8790344"><ele>341.0</ele><time>2026-04-26T13:14:54.817Z</time></trkpt><trkpt lat="44.4065479" lon="9.8790026"><ele>344.0</ele><time>2026-04-26T13:14:55.817Z</time></trkpt><trkpt lat="44.4066972" lon="9.8790009"><ele>347.0</ele><time>2026-04-26T13:14:56.817Z</time></trkpt><trkpt lat="44.4068514" lon="9.8790041"><ele>347.0</ele><time>2026-04-26T13:14:57.817Z</time></trkpt><trkpt lat="44.4070072" lon="9.8789828"><ele>347.0</ele><time>2026-04-26T13:14:58.817Z</time></trkpt><trkpt lat="44.4071637" lon="9.8789313"><ele>347.0</ele><time>2026-04-26T13:14:59.818Z</time></trkpt><trkpt lat="44.4073146" lon="9.8788796"><ele>353.33333333333337</ele><time>2026-04-26T13:15:00.818Z</time></trkpt><trkpt lat="44.4074676" lon="9.8788016"><ele>359.6666666666667</ele><time>2026-04-26T13:15:01.818Z</time></trkpt><trkpt lat="44.4076195" lon="9.8787227"><ele>366.0</ele><time>2026-04-26T13:15:02.816Z</time></trkpt><trkpt lat="44.4077593" lon="9.8786203"><ele>366.0</ele><time>2026-04-26T13:15:03.817Z</time></trkpt><trkpt lat="44.4078982" lon="9.8785196"><ele>366.0</ele><time>2026-04-26T13:15:04.816Z</time></trkpt><trkpt lat="44.4080375" lon="9.8784247"><ele>366.0</ele><time>2026-04-26T13:15:05.816Z</time></trkpt><trkpt lat="44.4081911" lon="9.8783561"><ele>362.3333333333333</ele><time>2026-04-26T13:15:06.816Z</time></trkpt><trkpt lat="44.4083496" lon="9.8783042"><ele>358.66666666666663</ele><time>2026-04-26T13:15:07.816Z</time></trkpt><trkpt lat="44.4085103" lon="9.878272"><ele>355.0</ele><time>2026-04-26T13:15:08.816Z</time></trkpt><trkpt lat="44.4086685" lon="9.8782583"><ele>355.0</ele><time>2026-04-26T13:15:09.817Z</time></trkpt><trkpt lat="44.4088142" lon="9.8782645"><ele>355.0</ele><time>2026-04-26T13:15:10.816Z</time></trkpt><trkpt lat="44.4089409" lon="9.8782973"><ele>355.0</ele><time>2026-04-26T13:15:11.817Z</time></trkpt><trkpt lat="44.4090598" lon="9.8783662"><ele>355.0</ele><time>2026-04-26T13:15:12.817Z</time></trkpt><trkpt lat="44.4091713" lon="9.8784782"><ele>364.5</ele><time>2026-04-26T13:15:13.816Z</time></trkpt><trkpt lat="44.4092766" lon="9.878606"><ele>374.0</ele><time>2026-04-26T13:15:14.816Z</time></trkpt><trkpt lat="44.4093769" lon="9.8787346"><ele>383.5</ele><time>2026-04-26T13:15:15.816Z</time></trkpt><trkpt lat="44.4094859" lon="9.8788654"><ele>393.0</ele><time>2026-04-26T13:15:16.816Z</time></trkpt><trkpt lat="44.409606" lon="9.878995"><ele>392.0</ele><time>2026-04-26T13:15:17.816Z</time></trkpt><trkpt lat="44.4097252" lon="9.879108"><ele>391.0</ele><time>2026-04-26T13:15:18.816Z</time></trkpt><trkpt lat="44.4098484" lon="9.879213"><ele>390.0</ele><time>2026-04-26T13:15:19.816Z</time></trkpt><trkpt lat="44.4099681" lon="9.8793285"><ele>389.0</ele><time>2026-04-26T13:15:20.816Z</time></trkpt><trkpt lat="44.410071" lon="9.8794679"><ele>389.0</ele><time>2026-04-26T13:15:21.817Z</time></trkpt><trkpt lat="44.4101568" lon="9.8796292"><ele>389.0</ele><time>2026-04-26T13:15:22.817Z</time></trkpt><trkpt lat="44.410239" lon="9.879793"><ele>389.0</ele><time>2026-04-26T13:15:23.816Z</time></trkpt><trkpt lat="44.4103252" lon="9.8799558"><ele>389.0</ele><time>2026-04-26T13:15:24.816Z</time></trkpt><trkpt lat="44.4104204" lon="9.8801192"><ele>392.3333333333333</ele><time>2026-04-26T13:15:25.816Z</time></trkpt><trkpt lat="44.4105262" lon="9.8802713"><ele>395.66666666666663</ele><time>2026-04-26T13:15:26.816Z</time></trkpt><trkpt lat="44.4106414" lon="9.8804091"><ele>399.0</ele><time>2026-04-26T13:15:27.816Z</time></trkpt><trkpt lat="44.410762" lon="9.8805333"><ele>399.0</ele><time>2026-04-26T13:15:28.817Z</time></trkpt><trkpt lat="44.4108916" lon="9.8806225"><ele>399.0</ele><time>2026-04-26T13:15:29.816Z</time></trkpt><trkpt lat="44.4110509" lon="9.8806865"><ele>399.0</ele><time>2026-04-26T13:15:30.816Z</time></trkpt><trkpt lat="44.411211" lon="9.880741"><ele>391.3333333333333</ele><time>2026-04-26T13:15:31.816Z</time></trkpt><trkpt lat="44.4113741" lon="9.8807817"><ele>383.66666666666663</ele><time>2026-04-26T13:15:32.816Z</time></trkpt><trkpt lat="44.4115335" lon="9.8808118"><ele>376.0</ele><time>2026-04-26T13:15:33.816Z</time></trkpt><trkpt lat="44.4116886" lon="9.8808586"><ele>376.0</ele><time>2026-04-26T13:15:34.816Z</time></trkpt><trkpt lat="44.4118294" lon="9.8809243"><ele>376.0</ele><time>2026-04-26T13:15:35.816Z</time></trkpt><trkpt lat="44.4119734" lon="9.8809868"><ele>376.0</ele><time>2026-04-26T13:15:36.816Z</time></trkpt><trkpt lat="44.412103" lon="9.8810429"><ele>376.0</ele><time>2026-04-26T13:15:37.818Z</time></trkpt><trkpt lat="44.4122014" lon="9.8811018"><ele>376.5</ele><time>2026-04-26T13:15:38.817Z</time></trkpt><trkpt lat="44.4123077" lon="9.8811776"><ele>377.0</ele><time>2026-04-26T13:15:39.816Z</time></trkpt><trkpt lat="44.4123983" lon="9.8812857"><ele>377.5</ele><time>2026-04-26T13:15:40.816Z</time></trkpt><trkpt lat="44.4124274" lon="9.8814671"><ele>378.0</ele><time>2026-04-26T13:15:41.817Z</time></trkpt><trkpt lat="44.412463" lon="9.8816341"><ele>382.75</ele><time>2026-04-26T13:15:42.816Z</time></trkpt><trkpt lat="44.4125033" lon="9.8818128"><ele>387.5</ele><time>2026-04-26T13:15:43.816Z</time></trkpt><trkpt lat="44.4125484" lon="9.8819872"><ele>392.25</ele><time>2026-04-26T13:15:44.817Z</time></trkpt><trkpt lat="44.4126026" lon="9.8821701"><ele>397.0</ele><time>2026-04-26T13:15:45.817Z</time></trkpt><trkpt lat="44.4126725" lon="9.8823501"><ele>397.0</ele><time>2026-04-26T13:15:46.818Z</time></trkpt><trkpt lat="44.4127616" lon="9.8825181"><ele>397.0</ele><time>2026-04-26T13:15:47.816Z</time></trkpt><trkpt lat="44.4128524" lon="9.8826705"><ele>397.0</ele><time>2026-04-26T13:15:48.816Z</time></trkpt><trkpt lat="44.4129491" lon="9.8828222"><ele>397.0</ele><time>2026-04-26T13:15:49.816Z</time></trkpt><trkpt lat="44.4130492" lon="9.8829707"><ele>391.6666666666667</ele><time>2026-04-26T13:15:50.816Z</time></trkpt><trkpt lat="44.4131419" lon="9.883124"><ele>386.33333333333337</ele><time>2026-04-26T13:15:51.817Z</time></trkpt><trkpt lat="44.4132461" lon="9.8832811"><ele>381.0</ele><time>2026-04-26T13:15:52.816Z</time></trkpt><trkpt lat="44.4133475" lon="9.8834463"><ele>389.25</ele><time>2026-04-26T13:15:53.816Z</time></trkpt><trkpt lat="44.4134442" lon="9.8836111"><ele>397.5</ele><time>2026-04-26T13:15:54.816Z</time></trkpt><trkpt lat="44.4135372" lon="9.8837696"><ele>405.75</ele><time>2026-04-26T13:15:55.817Z</time></trkpt><trkpt lat="44.4136256" lon="9.8839047"><ele>414.0</ele><time>2026-04-26T13:15:56.816Z</time></trkpt><trkpt lat="44.413709" lon="9.8840168"><ele>408.75</ele><time>2026-04-26T13:15:57.816Z</time></trkpt><trkpt lat="44.4138283" lon="9.884053"><ele>403.5</ele><time>2026-04-26T13:15:58.816Z</time></trkpt><trkpt lat="44.4139393" lon="9.8840909"><ele>398.25</ele><time>2026-04-26T13:15:59.816Z</time></trkpt><trkpt lat="44.4140554" lon="9.8841294"><ele>393.0</ele><time>2026-04-26T13:16:00.816Z</time></trkpt><trkpt lat="44.4141703" lon="9.8841795"><ele>393.0</ele><time>2026-04-26T13:16:01.816Z</time></trkpt><trkpt lat="44.4142892" lon="9.8842274"><ele>393.0</ele><time>2026-04-26T13:16:02.816Z</time></trkpt><trkpt lat="44.4144038" lon="9.8842692"><ele>393.0</ele><time>2026-04-26T13:16:03.816Z</time></trkpt><trkpt lat="44.4144972" lon="9.8843306"><ele>393.0</ele><time>2026-04-26T13:16:04.816Z</time></trkpt><trkpt lat="44.4145942" lon="9.8844099"><ele>393.25</ele><time>2026-04-26T13:16:05.817Z</time></trkpt><trkpt lat="44.4146815" lon="9.8845153"><ele>393.5</ele><time>2026-04-26T13:16:06.817Z</time></trkpt><trkpt lat="44.4147141" lon="9.884659"><ele>393.75</ele><time>2026-04-26T13:16:07.816Z</time></trkpt><trkpt lat="44.4147884" lon="9.8848086"><ele>394.0</ele><time>2026-04-26T13:16:08.816Z</time></trkpt><trkpt lat="44.4148493" lon="9.8849446"><ele>394.0</ele><time>2026-04-26T13:16:09.816Z</time></trkpt><trkpt lat="44.414913" lon="9.8850756"><ele>394.0</ele><time>2026-04-26T13:16:10.816Z</time></trkpt><trkpt lat="44.4149142" lon="9.8852427"><ele>394.0</ele><time>2026-04-26T13:16:11.816Z</time></trkpt><trkpt lat="44.415002" lon="9.8853628"><ele>394.0</ele><time>2026-04-26T13:16:12.816Z</time></trkpt><trkpt lat="44.4150814" lon="9.8854781"><ele>396.5</ele><time>2026-04-26T13:16:13.817Z</time></trkpt><trkpt lat="44.4151846" lon="9.8855794"><ele>399.0</ele><time>2026-04-26T13:16:14.816Z</time></trkpt><trkpt lat="44.4152697" lon="9.8857194"><ele>401.5</ele><time>2026-04-26T13:16:15.816Z</time></trkpt><trkpt lat="44.4153648" lon="9.8858308"><ele>404.0</ele><time>2026-04-26T13:16:16.817Z</time></trkpt><trkpt lat="44.4155202" lon="9.885932"><ele>404.0</ele><time>2026-04-26T13:16:17.817Z</time></trkpt><trkpt lat="44.4156223" lon="9.8860597"><ele>404.0</ele><time>2026-04-26T13:16:18.816Z</time></trkpt><trkpt lat="44.4157063" lon="9.8862185"><ele>404.0</ele><time>2026-04-26T13:16:19.816Z</time></trkpt><trkpt lat="44.4157852" lon="9.8863649"><ele>404.0</ele><time>2026-04-26T13:16:20.817Z</time></trkpt><trkpt lat="44.4158591" lon="9.8865007"><ele>404.0</ele><time>2026-04-26T13:16:21.817Z</time></trkpt><trkpt lat="44.4159448" lon="9.8866244"><ele>404.0</ele><time>2026-04-26T13:16:22.817Z</time></trkpt><trkpt lat="44.4160465" lon="9.8866901"><ele>404.0</ele><time>2026-04-26T13:16:23.817Z</time></trkpt><trkpt lat="44.4161479" lon="9.8867536"><ele>404.0</ele><time>2026-04-26T13:16:24.816Z</time></trkpt><trkpt lat="44.4162924" lon="9.8867778"><ele>407.5</ele><time>2026-04-26T13:16:25.816Z</time></trkpt><trkpt lat="44.4164123" lon="9.8868165"><ele>411.0</ele><time>2026-04-26T13:16:26.816Z</time></trkpt><trkpt lat="44.4165323" lon="9.8868718"><ele>414.5</ele><time>2026-04-26T13:16:27.817Z</time></trkpt><trkpt lat="44.4166442" lon="9.886935"><ele>418.0</ele><time>2026-04-26T13:16:28.817Z</time></trkpt><trkpt lat="44.4167438" lon="9.8869995"><ele>418.0</ele><time>2026-04-26T13:16:29.817Z</time></trkpt><trkpt lat="44.416858" lon="9.8870815"><ele>418.0</ele><time>2026-04-26T13:16:30.816Z</time></trkpt><trkpt lat="44.4169144" lon="9.8872288"><ele>418.0</ele><time>2026-04-26T13:16:31.816Z</time></trkpt><trkpt lat="44.4170082" lon="9.8873259"><ele>418.0</ele><time>2026-04-26T13:16:32.817Z</time></trkpt><trkpt lat="44.4171226" lon="9.8874295"><ele>413.75</ele><time>2026-04-26T13:16:33.816Z</time></trkpt><trkpt lat="44.417238" lon="9.8875005"><ele>409.5</ele><time>2026-04-26T13:16:34.817Z</time></trkpt><trkpt lat="44.41737" lon="9.8875025"><ele>405.25</ele><time>2026-04-26T13:16:35.817Z</time></trkpt><trkpt lat="44.417502" lon="9.8875177"><ele>401.0</ele><time>2026-04-26T13:16:36.816Z</time></trkpt><trkpt lat="44.4176336" lon="9.8875235"><ele>401.0</ele><time>2026-04-26T13:16:37.816Z</time></trkpt><trkpt lat="44.4177388" lon="9.8875262"><ele>401.0</ele><time>2026-04-26T13:16:38.816Z</time></trkpt><trkpt lat="44.417841" lon="9.8875294"><ele>401.0</ele><time>2026-04-26T13:16:39.817Z</time></trkpt><trkpt lat="44.4179359" lon="9.8875322"><ele>401.0</ele><time>2026-04-26T13:16:40.816Z</time></trkpt><trkpt lat="44.4180205" lon="9.887503"><ele>401.0</ele><time>2026-04-26T13:16:41.816Z</time></trkpt><trkpt lat="44.4180854" lon="9.8874344"><ele>400.49999999999994</ele><time>2026-04-26T13:16:42.816Z</time></trkpt><trkpt lat="44.4181389" lon="9.8873445"><ele>400.0</ele><time>2026-04-26T13:16:43.816Z</time></trkpt><trkpt lat="44.4181916" lon="9.887234"><ele>399.5</ele><time>2026-04-26T13:16:44.816Z</time></trkpt><trkpt lat="44.4182477" lon="9.8871282"><ele>399.0</ele><time>2026-04-26T13:16:45.817Z</time></trkpt><trkpt lat="44.4183155" lon="9.8870495"><ele>398.49999999999994</ele><time>2026-04-26T13:16:46.817Z</time></trkpt><trkpt lat="44.4183948" lon="9.8869997"><ele>398.0</ele><time>2026-04-26T13:16:47.816Z</time></trkpt><trkpt lat="44.4184921" lon="9.8869994"><ele>398.0</ele><time>2026-04-26T13:16:48.816Z</time></trkpt><trkpt lat="44.4185977" lon="9.88703"><ele>398.0</ele><time>2026-04-26T13:16:49.817Z</time></trkpt><trkpt lat="44.418703" lon="9.8870763"><ele>398.0</ele><time>2026-04-26T13:16:50.816Z</time></trkpt><trkpt lat="44.4188001" lon="9.8871454"><ele>398.0</ele><time>2026-04-26T13:16:51.817Z</time></trkpt><trkpt lat="44.4188783" lon="9.8872363"><ele>398.0</ele><time>2026-04-26T13:16:52.816Z</time></trkpt><trkpt lat="44.4189492" lon="9.8873234"><ele>399.2</ele><time>2026-04-26T13:16:53.816Z</time></trkpt><trkpt lat="44.4190142" lon="9.8873972"><ele>400.4</ele><time>2026-04-26T13:16:54.817Z</time></trkpt><trkpt lat="44.4191182" lon="9.8873808"><ele>401.59999999999997</ele><time>2026-04-26T13:16:55.816Z</time></trkpt><trkpt lat="44.4192062" lon="9.887393"><ele>402.79999999999995</ele><time>2026-04-26T13:16:56.816Z</time></trkpt><trkpt lat="44.4192908" lon="9.887292"><ele>404.0</ele><time>2026-04-26T13:16:57.817Z</time></trkpt><trkpt lat="44.4193955" lon="9.8872"><ele>404.0</ele><time>2026-04-26T13:16:58.817Z</time></trkpt><trkpt lat="44.4194948" lon="9.8871865"><ele>404.0</ele><time>2026-04-26T13:16:59.816Z</time></trkpt><trkpt lat="44.4195864" lon="9.8871718"><ele>404.0</ele><time>2026-04-26T13:17:00.817Z</time></trkpt><trkpt lat="44.4197044" lon="9.8872467"><ele>404.0</ele><time>2026-04-26T13:17:01.816Z</time></trkpt><trkpt lat="44.4197973" lon="9.8873061"><ele>404.0</ele><time>2026-04-26T13:17:02.816Z</time></trkpt><trkpt lat="44.419907" lon="9.8873771"><ele>405.0</ele><time>2026-04-26T13:17:03.816Z</time></trkpt><trkpt lat="44.4200085" lon="9.8874686"><ele>406.0</ele><time>2026-04-26T13:17:04.817Z</time></trkpt><trkpt lat="44.4201064" lon="9.8875702"><ele>407.0</ele><time>2026-04-26T13:17:05.816Z</time></trkpt><trkpt lat="44.4201984" lon="9.8876657"><ele>408.0</ele><time>2026-04-26T13:17:06.816Z</time></trkpt><trkpt lat="44.4202833" lon="9.8877764"><ele>408.0</ele><time>2026-04-26T13:17:07.816Z</time></trkpt><trkpt lat="44.4203658" lon="9.8878773"><ele>408.0</ele><time>2026-04-26T13:17:08.816Z</time></trkpt><trkpt lat="44.420462" lon="9.8879525"><ele>408.0</ele><time>2026-04-26T13:17:09.816Z</time></trkpt><trkpt lat="44.420586" lon="9.8880344"><ele>408.0</ele><time>2026-04-26T13:17:10.817Z</time></trkpt><trkpt lat="44.4206988" lon="9.8881021"><ele>412.0</ele><time>2026-04-26T13:17:11.817Z</time></trkpt><trkpt lat="44.4208103" lon="9.8881512"><ele>416.0</ele><time>2026-04-26T13:17:12.817Z</time></trkpt><trkpt lat="44.4209021" lon="9.8882021"><ele>419.99999999999994</ele><time>2026-04-26T13:17:13.817Z</time></trkpt><trkpt lat="44.4209737" lon="9.8882525"><ele>424.0</ele><time>2026-04-26T13:17:14.817Z</time></trkpt><trkpt lat="44.4210322" lon="9.8882947"><ele>428.0</ele><time>2026-04-26T13:17:15.816Z</time></trkpt><trkpt lat="44.4211129" lon="9.8883675"><ele>427.99999999999994</ele><time>2026-04-26T13:17:17.817Z</time></trkpt><trkpt lat="44.4210543" lon="9.8883231"><ele>428.0</ele><time>2026-04-26T13:17:28.816Z</time></trkpt><trkpt lat="44.4209845" lon="9.8882867"><ele>428.0</ele><time>2026-04-26T13:17:29.816Z</time></trkpt><trkpt lat="44.4209216" lon="9.8882416"><ele>428.0</ele><time>2026-04-26T13:17:30.816Z</time></trkpt><trkpt lat="44.4208726" lon="9.8881834"><ele>427.99999999999994</ele><time>2026-04-26T13:17:31.816Z</time></trkpt><trkpt lat="44.4208267" lon="9.8880774"><ele>428.0</ele><time>2026-04-26T13:17:33.816Z</time></trkpt><trkpt lat="44.4208365" lon="9.8879512"><ele>427.99999999999994</ele><time>2026-04-26T13:17:35.816Z</time></trkpt><trkpt lat="44.4207819" lon="9.8878364"><ele>428.0</ele><time>2026-04-26T13:17:37.816Z</time></trkpt><trkpt lat="44.4207267" lon="9.8877789"><ele>428.0</ele><time>2026-04-26T13:17:38.817Z</time></trkpt><trkpt lat="44.4206879" lon="9.8877035"><ele>428.0</ele><time>2026-04-26T13:17:39.816Z</time></trkpt><trkpt lat="44.420664" lon="9.8876209"><ele>427.99999999999994</ele><time>2026-04-26T13:17:40.817Z</time></trkpt><trkpt lat="44.4206454" lon="9.8875297"><ele>428.0</ele><time>2026-04-26T13:17:41.816Z</time></trkpt><trkpt lat="44.4205714" lon="9.8873749"><ele>426.66666666666663</ele><time>2026-04-26T13:17:43.816Z</time></trkpt><trkpt lat="44.4205209" lon="9.8873115"><ele>425.3333333333333</ele><time>2026-04-26T13:17:44.817Z</time></trkpt><trkpt lat="44.4204668" lon="9.8872423"><ele>424.0</ele><time>2026-04-26T13:17:45.816Z</time></trkpt><trkpt lat="44.4204052" lon="9.8871675"><ele>422.66666666666663</ele><time>2026-04-26T13:17:46.816Z</time></trkpt><trkpt lat="44.420348" lon="9.8870889"><ele>421.3333333333333</ele><time>2026-04-26T13:17:47.816Z</time></trkpt><trkpt lat="44.4203067" lon="9.8869958"><ele>420.0</ele><time>2026-04-26T13:17:48.816Z</time></trkpt><trkpt lat="44.4202822" lon="9.8868929"><ele>420.0</ele><time>2026-04-26T13:17:49.816Z</time></trkpt><trkpt lat="44.4202676" lon="9.8867884"><ele>420.0</ele><time>2026-04-26T13:17:50.816Z</time></trkpt><trkpt lat="44.4202507" lon="9.8866763"><ele>420.0</ele><time>2026-04-26T13:17:51.817Z</time></trkpt><trkpt lat="44.4202315" lon="9.8865783"><ele>420.0</ele><time>2026-04-26T13:17:52.816Z</time></trkpt><trkpt lat="44.4202005" lon="9.8864913"><ele>420.0</ele><time>2026-04-26T13:17:53.816Z</time></trkpt><trkpt lat="44.4201524" lon="9.8864083"><ele>420.0</ele><time>2026-04-26T13:17:54.816Z</time></trkpt><trkpt lat="44.420094" lon="9.886335"><ele>420.1666666666667</ele><time>2026-04-26T13:17:55.816Z</time></trkpt><trkpt lat="44.4200242" lon="9.8862748"><ele>420.33333333333337</ele><time>2026-04-26T13:17:56.816Z</time></trkpt><trkpt lat="44.4199553" lon="9.8862268"><ele>420.5</ele><time>2026-04-26T13:17:57.816Z</time></trkpt><trkpt lat="44.4198884" lon="9.8861821"><ele>420.6666666666667</ele><time>2026-04-26T13:17:58.816Z</time></trkpt><trkpt lat="44.4197888" lon="9.8861087"><ele>420.83333333333337</ele><time>2026-04-26T13:18:00.817Z</time></trkpt><trkpt lat="44.419727" lon="9.886066"><ele>421.0</ele><time>2026-04-26T13:18:03.815Z</time></trkpt><trkpt lat="44.4196145" lon="9.8859895"><ele>421.00000000000006</ele><time>2026-04-26T13:18:09.815Z</time></trkpt><trkpt lat="44.419553" lon="9.8859308"><ele>421.0</ele><time>2026-04-26T13:18:10.815Z</time></trkpt><trkpt lat="44.4194921" lon="9.8858483"><ele>421.0</ele><time>2026-04-26T13:18:11.815Z</time></trkpt><trkpt lat="44.4194431" lon="9.8857589"><ele>421.0</ele><time>2026-04-26T13:18:12.815Z</time></trkpt><trkpt lat="44.4194088" lon="9.8856823"><ele>421.0</ele><time>2026-04-26T13:18:13.816Z</time></trkpt><trkpt lat="44.4194489" lon="9.8856108"><ele>421.00000000000006</ele><time>2026-04-26T13:18:14.815Z</time></trkpt><trkpt lat="44.4194974" lon="9.8855523"><ele>421.0</ele><time>2026-04-26T13:18:15.815Z</time></trkpt><trkpt lat="44.4195671" lon="9.8855117"><ele>427.6666666666667</ele><time>2026-04-26T13:18:16.815Z</time></trkpt><trkpt lat="44.4196506" lon="9.8854757"><ele>434.33333333333337</ele><time>2026-04-26T13:18:17.816Z</time></trkpt><trkpt lat="44.4197361" lon="9.8854269"><ele>441.0</ele><time>2026-04-26T13:18:18.815Z</time></trkpt><trkpt lat="44.4198172" lon="9.8853596"><ele>447.66666666666663</ele><time>2026-04-26T13:18:19.815Z</time></trkpt><trkpt lat="44.4198831" lon="9.8852707"><ele>454.3333333333333</ele><time>2026-04-26T13:18:20.815Z</time></trkpt><trkpt lat="44.4199339" lon="9.885177"><ele>461.0</ele><time>2026-04-26T13:18:21.815Z</time></trkpt><trkpt lat="44.4199739" lon="9.8850715"><ele>461.3333333333333</ele><time>2026-04-26T13:18:22.815Z</time></trkpt><trkpt lat="44.4199641" lon="9.8849351"><ele>461.66666666666663</ele><time>2026-04-26T13:18:23.816Z</time></trkpt><trkpt lat="44.4199947" lon="9.884826"><ele>462.0</ele><time>2026-04-26T13:18:24.815Z</time></trkpt><trkpt lat="44.4200397" lon="9.8847233"><ele>462.33333333333337</ele><time>2026-04-26T13:18:25.815Z</time></trkpt><trkpt lat="44.4200973" lon="9.8846412"><ele>462.6666666666667</ele><time>2026-04-26T13:18:26.816Z</time></trkpt><trkpt lat="44.420164" lon="9.8845733"><ele>463.0</ele><time>2026-04-26T13:18:27.816Z</time></trkpt><trkpt lat="44.4202298" lon="9.884505"><ele>463.0</ele><time>2026-04-26T13:18:28.815Z</time></trkpt><trkpt lat="44.4202934" lon="9.8844295"><ele>462.99999999999994</ele><time>2026-04-26T13:18:29.816Z</time></trkpt><trkpt lat="44.4203597" lon="9.8843481"><ele>462.99999999999994</ele><time>2026-04-26T13:18:30.815Z</time></trkpt><trkpt lat="44.4204219" lon="9.884265"><ele>463.0</ele><time>2026-04-26T13:18:31.815Z</time></trkpt><trkpt lat="44.4204899" lon="9.8841792"><ele>463.0</ele><time>2026-04-26T13:18:32.816Z</time></trkpt><trkpt lat="44.4205632" lon="9.8840814"><ele>465.4</ele><time>2026-04-26T13:18:33.815Z</time></trkpt><trkpt lat="44.4206387" lon="9.8839823"><ele>467.79999999999995</ele><time>2026-04-26T13:18:34.815Z</time></trkpt><trkpt lat="44.4207125" lon="9.8838843"><ele>470.2</ele><time>2026-04-26T13:18:35.815Z</time></trkpt><trkpt lat="44.4207812" lon="9.8837891"><ele>472.6</ele><time>2026-04-26T13:18:36.815Z</time></trkpt><trkpt lat="44.420846" lon="9.8837113"><ele>475.0</ele><time>2026-04-26T13:18:37.816Z</time></trkpt><trkpt lat="44.4209098" lon="9.8836284"><ele>475.00000000000006</ele><time>2026-04-26T13:18:38.816Z</time></trkpt><trkpt lat="44.4209723" lon="9.883553"><ele>475.0</ele><time>2026-04-26T13:18:39.816Z</time></trkpt><trkpt lat="44.42103" lon="9.8834825"><ele>475.0</ele><time>2026-04-26T13:18:40.816Z</time></trkpt><trkpt lat="44.4210832" lon="9.8834205"><ele>475.0</ele><time>2026-04-26T13:18:41.815Z</time></trkpt><trkpt lat="44.4211423" lon="9.8833488"><ele>475.00000000000006</ele><time>2026-04-26T13:18:42.815Z</time></trkpt><trkpt lat="44.4212" lon="9.8832684"><ele>475.0</ele><time>2026-04-26T13:18:43.815Z</time></trkpt><trkpt lat="44.4212589" lon="9.8831778"><ele>474.2</ele><time>2026-04-26T13:18:44.815Z</time></trkpt><trkpt lat="44.4213234" lon="9.8830741"><ele>473.4</ele><time>2026-04-26T13:18:45.815Z</time></trkpt><trkpt lat="44.4213694" lon="9.8829605"><ele>472.6</ele><time>2026-04-26T13:18:46.816Z</time></trkpt><trkpt lat="44.4214045" lon="9.8828354"><ele>471.8</ele><time>2026-04-26T13:18:47.816Z</time></trkpt><trkpt lat="44.4214314" lon="9.8827048"><ele>471.0</ele><time>2026-04-26T13:18:48.816Z</time></trkpt><trkpt lat="44.4214577" lon="9.8825778"><ele>471.0</ele><time>2026-04-26T13:18:49.816Z</time></trkpt><trkpt lat="44.4214921" lon="9.8824596"><ele>471.0</ele><time>2026-04-26T13:18:50.816Z</time></trkpt><trkpt lat="44.4215257" lon="9.8823457"><ele>471.0</ele><time>2026-04-26T13:18:51.815Z</time></trkpt><trkpt lat="44.4215489" lon="9.8822357"><ele>471.0</ele><time>2026-04-26T13:18:52.815Z</time></trkpt><trkpt lat="44.4215631" lon="9.8821427"><ele>471.0</ele><time>2026-04-26T13:18:53.815Z</time></trkpt><trkpt lat="44.4215782" lon="9.8820563"><ele>471.0</ele><time>2026-04-26T13:18:54.815Z</time></trkpt><trkpt lat="44.4216202" lon="9.8819059"><ele>471.0</ele><time>2026-04-26T13:18:56.815Z</time></trkpt><trkpt lat="44.4217159" lon="9.8818666"><ele>471.0</ele><time>2026-04-26T13:18:58.815Z</time></trkpt><trkpt lat="44.4218412" lon="9.8818933"><ele>471.0</ele><time>2026-04-26T13:19:00.815Z</time></trkpt><trkpt lat="44.4219183" lon="9.8819031"><ele>471.0</ele><time>2026-04-26T13:19:01.815Z</time></trkpt><trkpt lat="44.4219892" lon="9.8818725"><ele>471.0</ele><time>2026-04-26T13:19:02.815Z</time></trkpt><trkpt lat="44.4220348" lon="9.8817901"><ele>472.0</ele><time>2026-04-26T13:19:03.816Z</time></trkpt><trkpt lat="44.4220792" lon="9.8817038"><ele>473.0</ele><time>2026-04-26T13:19:04.815Z</time></trkpt><trkpt lat="44.4221469" lon="9.8816276"><ele>474.0</ele><time>2026-04-26T13:19:05.815Z</time></trkpt><trkpt lat="44.422213" lon="9.8815676"><ele>475.0</ele><time>2026-04-26T13:19:06.815Z</time></trkpt><trkpt lat="44.4222665" lon="9.8815036"><ele>476.0</ele><time>2026-04-26T13:19:07.815Z</time></trkpt><trkpt lat="44.4223843" lon="9.8814398"><ele>477.0</ele><time>2026-04-26T13:19:09.815Z</time></trkpt><trkpt lat="44.4225144" lon="9.8814405"><ele>477.0</ele><time>2026-04-26T13:19:11.816Z</time></trkpt><trkpt lat="44.4225832" lon="9.8814715"><ele>477.0</ele><time>2026-04-26T13:19:12.816Z</time></trkpt><trkpt lat="44.4226505" lon="9.8814843"><ele>477.0</ele><time>2026-04-26T13:19:13.816Z</time></trkpt><trkpt lat="44.4227232" lon="9.881503"><ele>477.0</ele><time>2026-04-26T13:19:14.817Z</time></trkpt><trkpt lat="44.4227997" lon="9.8815298"><ele>477.0</ele><time>2026-04-26T13:19:15.816Z</time></trkpt><trkpt lat="44.4228769" lon="9.8815542"><ele>477.0</ele><time>2026-04-26T13:19:16.815Z</time></trkpt><trkpt lat="44.4229623" lon="9.8815854"><ele>479.6</ele><time>2026-04-26T13:19:17.815Z</time></trkpt><trkpt lat="44.4230613" lon="9.8816246"><ele>482.20000000000005</ele><time>2026-04-26T13:19:18.815Z</time></trkpt><trkpt lat="44.4231557" lon="9.881648"><ele>484.8</ele><time>2026-04-26T13:19:19.815Z</time></trkpt><trkpt lat="44.4232494" lon="9.8816691"><ele>487.4</ele><time>2026-04-26T13:19:20.815Z</time></trkpt><trkpt lat="44.4233431" lon="9.8816817"><ele>490.0</ele><time>2026-04-26T13:19:21.815Z</time></trkpt><trkpt lat="44.4234387" lon="9.8816992"><ele>490.00000000000006</ele><time>2026-04-26T13:19:22.815Z</time></trkpt><trkpt lat="44.4235349" lon="9.881716"><ele>490.0</ele><time>2026-04-26T13:19:23.816Z</time></trkpt><trkpt lat="44.4236201" lon="9.8817281"><ele>490.0</ele><time>2026-04-26T13:19:24.816Z</time></trkpt><trkpt lat="44.4237037" lon="9.8817338"><ele>490.0</ele><time>2026-04-26T13:19:25.816Z</time></trkpt><trkpt lat="44.4237124" lon="9.8816228"><ele>490.00000000000006</ele><time>2026-04-26T13:19:29.816Z</time></trkpt><trkpt lat="44.423674" lon="9.8815529"><ele>490.0</ele><time>2026-04-26T13:19:30.816Z</time></trkpt><trkpt lat="44.4236267" lon="9.8814439"><ele>490.0</ele><time>2026-04-26T13:19:31.815Z</time></trkpt><trkpt lat="44.4235907" lon="9.8813648"><ele>490.0</ele><time>2026-04-26T13:19:32.816Z</time></trkpt><trkpt lat="44.4235164" lon="9.8812471"><ele>490.0</ele><time>2026-04-26T13:19:33.815Z</time></trkpt><trkpt lat="44.4234754" lon="9.8811228"><ele>490.0</ele><time>2026-04-26T13:19:34.816Z</time></trkpt><trkpt lat="44.4234738" lon="9.8809977"><ele>490.0</ele><time>2026-04-26T13:19:35.815Z</time></trkpt><trkpt lat="44.4234687" lon="9.8808692"><ele>489.2</ele><time>2026-04-26T13:19:36.815Z</time></trkpt><trkpt lat="44.4234647" lon="9.8807312"><ele>488.4</ele><time>2026-04-26T13:19:37.815Z</time></trkpt><trkpt lat="44.4234619" lon="9.8805999"><ele>487.6</ele><time>2026-04-26T13:19:38.815Z</time></trkpt><trkpt lat="44.4234613" lon="9.8804594"><ele>486.8</ele><time>2026-04-26T13:19:39.815Z</time></trkpt><trkpt lat="44.4234563" lon="9.8803253"><ele>486.0</ele><time>2026-04-26T13:19:40.816Z</time></trkpt><trkpt lat="44.4234482" lon="9.8801932"><ele>487.3333333333333</ele><time>2026-04-26T13:19:41.816Z</time></trkpt><trkpt lat="44.4234268" lon="9.8800661"><ele>488.66666666666663</ele><time>2026-04-26T13:19:42.816Z</time></trkpt><trkpt lat="44.4233848" lon="9.8799441"><ele>490.0</ele><time>2026-04-26T13:19:43.815Z</time></trkpt><trkpt lat="44.4233303" lon="9.879839"><ele>491.3333333333333</ele><time>2026-04-26T13:19:44.815Z</time></trkpt><trkpt lat="44.4232806" lon="9.8797446"><ele>492.66666666666663</ele><time>2026-04-26T13:19:45.815Z</time></trkpt><trkpt lat="44.4232439" lon="9.8796439"><ele>494.0</ele><time>2026-04-26T13:19:46.815Z</time></trkpt><trkpt lat="44.4232042" lon="9.8795295"><ele>493.99999999999994</ele><time>2026-04-26T13:19:47.815Z</time></trkpt><trkpt lat="44.4232057" lon="9.8794053"><ele>494.0</ele><time>2026-04-26T13:19:48.816Z</time></trkpt><trkpt lat="44.4231929" lon="9.8793007"><ele>494.0</ele><time>2026-04-26T13:19:49.815Z</time></trkpt><trkpt lat="44.4231895" lon="9.879212"><ele>494.0</ele><time>2026-04-26T13:19:50.815Z</time></trkpt><trkpt lat="44.4231981" lon="9.8791216"><ele>493.99999999999994</ele><time>2026-04-26T13:19:51.816Z</time></trkpt><trkpt lat="44.4232741" lon="9.8790593"><ele>494.0</ele><time>2026-04-26T13:19:53.815Z</time></trkpt><trkpt lat="44.4233808" lon="9.8790897"><ele>494.0</ele><time>2026-04-26T13:19:55.816Z</time></trkpt><trkpt lat="44.4234563" lon="9.8792407"><ele>494.0</ele><time>2026-04-26T13:19:57.815Z</time></trkpt><trkpt lat="44.4235381" lon="9.8793241"><ele>494.0</ele><time>2026-04-26T13:19:59.816Z</time></trkpt><trkpt lat="44.4236364" lon="9.8793216"><ele>494.0</ele><time>2026-04-26T13:20:01.815Z</time></trkpt><trkpt lat="44.4237139" lon="9.8793394"><ele>494.0</ele><time>2026-04-26T13:20:02.815Z</time></trkpt><trkpt lat="44.4238051" lon="9.8793757"><ele>497.99999999999994</ele><time>2026-04-26T13:20:03.816Z</time></trkpt><trkpt lat="44.4238715" lon="9.8794334"><ele>502.0</ele><time>2026-04-26T13:20:04.815Z</time></trkpt><trkpt lat="44.4239371" lon="9.8794856"><ele>506.0</ele><time>2026-04-26T13:20:05.815Z</time></trkpt><trkpt lat="44.4239812" lon="9.8795684"><ele>510.0</ele><time>2026-04-26T13:20:06.816Z</time></trkpt><trkpt lat="44.4239884" lon="9.8796996"><ele>514.0</ele><time>2026-04-26T13:20:07.816Z</time></trkpt><trkpt lat="44.4239327" lon="9.8798129"><ele>518.0</ele><time>2026-04-26T13:20:08.815Z</time></trkpt><trkpt lat="44.4239305" lon="9.8799201"><ele>518.0</ele><time>2026-04-26T13:20:09.815Z</time></trkpt><trkpt lat="44.4239671" lon="9.880035"><ele>518.0</ele><time>2026-04-26T13:20:10.816Z</time></trkpt><trkpt lat="44.424005" lon="9.8801448"><ele>518.0</ele><time>2026-04-26T13:20:11.816Z</time></trkpt><trkpt lat="44.4240365" lon="9.8802487"><ele>518.0</ele><time>2026-04-26T13:20:12.815Z</time></trkpt><trkpt lat="44.4240858" lon="9.8803493"><ele>518.0</ele><time>2026-04-26T13:20:13.815Z</time></trkpt><trkpt lat="44.4241404" lon="9.8804534"><ele>518.0</ele><time>2026-04-26T13:20:14.815Z</time></trkpt><trkpt lat="44.4241915" lon="9.8805527"><ele>516.1999999999999</ele><time>2026-04-26T13:20:15.815Z</time></trkpt><trkpt lat="44.4242515" lon="9.8806333"><ele>514.4</ele><time>2026-04-26T13:20:16.815Z</time></trkpt><trkpt lat="44.4243279" lon="9.8807195"><ele>512.5999999999999</ele><time>2026-04-26T13:20:17.815Z</time></trkpt><trkpt lat="44.4244068" lon="9.8808116"><ele>510.79999999999995</ele><time>2026-04-26T13:20:18.816Z</time></trkpt><trkpt lat="44.424493" lon="9.8808938"><ele>509.0</ele><time>2026-04-26T13:20:19.816Z</time></trkpt><trkpt lat="44.4245808" lon="9.8809811"><ele>512.0</ele><time>2026-04-26T13:20:20.816Z</time></trkpt><trkpt lat="44.4246623" lon="9.8810562"><ele>515.0</ele><time>2026-04-26T13:20:21.816Z</time></trkpt><trkpt lat="44.4247419" lon="9.8811216"><ele>518.0</ele><time>2026-04-26T13:20:22.816Z</time></trkpt><trkpt lat="44.4248223" lon="9.8811939"><ele>521.0</ele><time>2026-04-26T13:20:23.815Z</time></trkpt><trkpt lat="44.4248962" lon="9.8812779"><ele>524.0</ele><time>2026-04-26T13:20:24.815Z</time></trkpt><trkpt lat="44.4249485" lon="9.8813822"><ele>524.0</ele><time>2026-04-26T13:20:25.815Z</time></trkpt><trkpt lat="44.4249783" lon="9.8814767"><ele>524.0</ele><time>2026-04-26T13:20:26.816Z</time></trkpt><trkpt lat="44.425018" lon="9.8815941"><ele>524.0</ele><time>2026-04-26T13:20:27.816Z</time></trkpt><trkpt lat="44.4250624" lon="9.8817248"><ele>524.0</ele><time>2026-04-26T13:20:28.815Z</time></trkpt><trkpt lat="44.4251389" lon="9.8818154"><ele>524.0</ele><time>2026-04-26T13:20:29.816Z</time></trkpt><trkpt lat="44.4252334" lon="9.8818783"><ele>522.2</ele><time>2026-04-26T13:20:30.815Z</time></trkpt><trkpt lat="44.4253081" lon="9.8819641"><ele>520.4</ele><time>2026-04-26T13:20:31.815Z</time></trkpt><trkpt lat="44.4253885" lon="9.8820485"><ele>518.6</ele><time>2026-04-26T13:20:32.815Z</time></trkpt><trkpt lat="44.4254593" lon="9.8821624"><ele>516.8</ele><time>2026-04-26T13:20:33.816Z</time></trkpt><trkpt lat="44.4255314" lon="9.8822488"><ele>515.0</ele><time>2026-04-26T13:20:34.816Z</time></trkpt><trkpt lat="44.4256095" lon="9.8823344"><ele>518.8</ele><time>2026-04-26T13:20:35.815Z</time></trkpt><trkpt lat="44.4257058" lon="9.8823975"><ele>522.6</ele><time>2026-04-26T13:20:36.816Z</time></trkpt><trkpt lat="44.4258145" lon="9.882441"><ele>526.4</ele><time>2026-04-26T13:20:37.816Z</time></trkpt><trkpt lat="44.4259005" lon="9.8824916"><ele>530.2</ele><time>2026-04-26T13:20:38.815Z</time></trkpt><trkpt lat="44.4259758" lon="9.8825288"><ele>534.0</ele><time>2026-04-26T13:20:39.815Z</time></trkpt><trkpt lat="44.4260365" lon="9.8825745"><ele>534.0</ele><time>2026-04-26T13:20:40.815Z</time></trkpt><trkpt lat="44.4261285" lon="9.8826062"><ele>534.0</ele><time>2026-04-26T13:20:42.816Z</time></trkpt><trkpt lat="44.4261211" lon="9.8824949"><ele>534.0</ele><time>2026-04-26T13:20:45.815Z</time></trkpt><trkpt lat="44.4260952" lon="9.8823926"><ele>534.0</ele><time>2026-04-26T13:20:46.817Z</time></trkpt><trkpt lat="44.4260207" lon="9.8823357"><ele>534.0</ele><time>2026-04-26T13:20:47.815Z</time></trkpt><trkpt lat="44.4259545" lon="9.8822654"><ele>534.0</ele><time>2026-04-26T13:20:48.815Z</time></trkpt><trkpt lat="44.4258799" lon="9.8821709"><ele>534.0</ele><time>2026-04-26T13:20:49.815Z</time></trkpt><trkpt lat="44.4258264" lon="9.8820646"><ele>534.0</ele><time>2026-04-26T13:20:50.815Z</time></trkpt><trkpt lat="44.425761" lon="9.8819587"><ele>534.0</ele><time>2026-04-26T13:20:51.815Z</time></trkpt><trkpt lat="44.425702" lon="9.8818581"><ele>534.0</ele><time>2026-04-26T13:20:52.815Z</time></trkpt><trkpt lat="44.4256409" lon="9.8817591"><ele>534.0</ele><time>2026-04-26T13:20:53.815Z</time></trkpt><trkpt lat="44.4255791" lon="9.8816925"><ele>537.8</ele><time>2026-04-26T13:20:54.816Z</time></trkpt><trkpt lat="44.4255231" lon="9.8815739"><ele>541.5999999999999</ele><time>2026-04-26T13:20:56.815Z</time></trkpt><trkpt lat="44.4256302" lon="9.8815717"><ele>545.4</ele><time>2026-04-26T13:20:58.815Z</time></trkpt><trkpt lat="44.4257348" lon="9.8816316"><ele>549.1999999999999</ele><time>2026-04-26T13:21:00.816Z</time></trkpt><trkpt lat="44.4257928" lon="9.8816701"><ele>553.0</ele><time>2026-04-26T13:21:01.816Z</time></trkpt><trkpt lat="44.4258821" lon="9.8817292"><ele>549.1999999999999</ele><time>2026-04-26T13:21:02.816Z</time></trkpt><trkpt lat="44.425972" lon="9.8818111"><ele>545.4</ele><time>2026-04-26T13:21:03.815Z</time></trkpt><trkpt lat="44.4260558" lon="9.8818804"><ele>541.5999999999999</ele><time>2026-04-26T13:21:04.815Z</time></trkpt><trkpt lat="44.4261317" lon="9.8819642"><ele>537.8</ele><time>2026-04-26T13:21:05.816Z</time></trkpt><trkpt lat="44.4262" lon="9.882056"><ele>534.0</ele><time>2026-04-26T13:21:06.815Z</time></trkpt><trkpt lat="44.4262746" lon="9.8821503"><ele>537.0</ele><time>2026-04-26T13:21:07.816Z</time></trkpt><trkpt lat="44.426349" lon="9.8822381"><ele>540.0</ele><time>2026-04-26T13:21:08.815Z</time></trkpt><trkpt lat="44.4264185" lon="9.8823333"><ele>543.0</ele><time>2026-04-26T13:21:09.816Z</time></trkpt><trkpt lat="44.4265078" lon="9.8824216"><ele>546.0</ele><time>2026-04-26T13:21:10.814Z</time></trkpt><trkpt lat="44.4265871" lon="9.8825114"><ele>549.0</ele><time>2026-04-26T13:21:11.814Z</time></trkpt><trkpt lat="44.4266626" lon="9.8826055"><ele>549.0</ele><time>2026-04-26T13:21:12.815Z</time></trkpt><trkpt lat="44.4267391" lon="9.8827115"><ele>549.0</ele><time>2026-04-26T13:21:13.815Z</time></trkpt><trkpt lat="44.426799" lon="9.8828489"><ele>549.0</ele><time>2026-04-26T13:21:14.814Z</time></trkpt><trkpt lat="44.4268601" lon="9.8829505"><ele>549.0</ele><time>2026-04-26T13:21:15.814Z</time></trkpt><trkpt lat="44.4269277" lon="9.883037"><ele>549.0</ele><time>2026-04-26T13:21:16.815Z</time></trkpt><trkpt lat="44.4269974" lon="9.8831447"><ele>549.0</ele><time>2026-04-26T13:21:17.815Z</time></trkpt><trkpt lat="44.4270806" lon="9.8832502"><ele>549.0</ele><time>2026-04-26T13:21:18.815Z</time></trkpt><trkpt lat="44.42717" lon="9.883358"><ele>549.0</ele><time>2026-04-26T13:21:19.815Z</time></trkpt><trkpt lat="44.4272633" lon="9.8834388"><ele>549.0</ele><time>2026-04-26T13:21:20.814Z</time></trkpt><trkpt lat="44.4273597" lon="9.8835054"><ele>549.0</ele><time>2026-04-26T13:21:21.814Z</time></trkpt><trkpt lat="44.4274551" lon="9.8835547"><ele>548.8</ele><time>2026-04-26T13:21:22.814Z</time></trkpt><trkpt lat="44.4275446" lon="9.8835517"><ele>548.5999999999999</ele><time>2026-04-26T13:21:23.814Z</time></trkpt><trkpt lat="44.4276469" lon="9.8835261"><ele>548.4</ele><time>2026-04-26T13:21:24.815Z</time></trkpt><trkpt lat="44.4277498" lon="9.8835145"><ele>548.1999999999999</ele><time>2026-04-26T13:21:25.814Z</time></trkpt><trkpt lat="44.4278437" lon="9.8834822"><ele>548.0</ele><time>2026-04-26T13:21:26.814Z</time></trkpt><trkpt lat="44.4279515" lon="9.8834441"><ele>551.6</ele><time>2026-04-26T13:21:27.815Z</time></trkpt><trkpt lat="44.4280387" lon="9.8834373"><ele>555.1999999999999</ele><time>2026-04-26T13:21:28.814Z</time></trkpt><trkpt lat="44.4281242" lon="9.8834412"><ele>558.8</ele><time>2026-04-26T13:21:29.815Z</time></trkpt><trkpt lat="44.428241" lon="9.8834945"><ele>562.4</ele><time>2026-04-26T13:21:30.815Z</time></trkpt><trkpt lat="44.4283384" lon="9.8835505"><ele>566.0</ele><time>2026-04-26T13:21:31.814Z</time></trkpt><trkpt lat="44.4284272" lon="9.8836016"><ele>566.0</ele><time>2026-04-26T13:21:32.814Z</time></trkpt><trkpt lat="44.4284993" lon="9.8836393"><ele>566.0</ele><time>2026-04-26T13:21:33.815Z</time></trkpt><trkpt lat="44.4285977" lon="9.8836358"><ele>566.0</ele><time>2026-04-26T13:21:35.814Z</time></trkpt><trkpt lat="44.4285858" lon="9.8835359"><ele>566.0</ele><time>2026-04-26T13:21:38.815Z</time></trkpt><trkpt lat="44.4285236" lon="9.8834932"><ele>566.0</ele><time>2026-04-26T13:21:44.814Z</time></trkpt><trkpt lat="44.4284598" lon="9.8834752"><ele>566.0</ele><time>2026-04-26T13:21:45.814Z</time></trkpt><trkpt lat="44.4283938" lon="9.8834462"><ele>567.0</ele><time>2026-04-26T13:21:46.814Z</time></trkpt><trkpt lat="44.4283316" lon="9.8833953"><ele>568.0</ele><time>2026-04-26T13:21:47.814Z</time></trkpt><trkpt lat="44.4282655" lon="9.88332"><ele>569.0</ele><time>2026-04-26T13:21:48.815Z</time></trkpt><trkpt lat="44.4281941" lon="9.8832366"><ele>570.0</ele><time>2026-04-26T13:21:49.814Z</time></trkpt><trkpt lat="44.4281134" lon="9.8831537"><ele>571.0</ele><time>2026-04-26T13:21:50.815Z</time></trkpt><trkpt lat="44.4280331" lon="9.8830761"><ele>572.0</ele><time>2026-04-26T13:21:51.814Z</time></trkpt><trkpt lat="44.4279597" lon="9.8830073"><ele>572.0</ele><time>2026-04-26T13:21:52.814Z</time></trkpt><trkpt lat="44.4278838" lon="9.8829325"><ele>572.0</ele><time>2026-04-26T13:21:53.814Z</time></trkpt><trkpt lat="44.4278301" lon="9.8828281"><ele>572.0</ele><time>2026-04-26T13:21:54.814Z</time></trkpt><trkpt lat="44.4277858" lon="9.8827138"><ele>572.0</ele><time>2026-04-26T13:21:55.816Z</time></trkpt><trkpt lat="44.4277353" lon="9.8825953"><ele>572.0</ele><time>2026-04-26T13:21:56.814Z</time></trkpt><trkpt lat="44.4276796" lon="9.8824752"><ele>574.4</ele><time>2026-04-26T13:21:57.816Z</time></trkpt><trkpt lat="44.4276182" lon="9.8823518"><ele>576.8000000000001</ele><time>2026-04-26T13:21:58.814Z</time></trkpt><trkpt lat="44.4275605" lon="9.882226"><ele>579.2</ele><time>2026-04-26T13:21:59.814Z</time></trkpt><trkpt lat="44.4275059" lon="9.8821014"><ele>581.6</ele><time>2026-04-26T13:22:00.814Z</time></trkpt><trkpt lat="44.4274514" lon="9.8819801"><ele>584.0</ele><time>2026-04-26T13:22:01.814Z</time></trkpt><trkpt lat="44.4274028" lon="9.8818658"><ele>584.0</ele><time>2026-04-26T13:22:02.814Z</time></trkpt><trkpt lat="44.4273596" lon="9.8817697"><ele>584.0</ele><time>2026-04-26T13:22:03.814Z</time></trkpt><trkpt lat="44.4273423" lon="9.8816051"><ele>584.0</ele><time>2026-04-26T13:22:05.814Z</time></trkpt><trkpt lat="44.4274226" lon="9.881627"><ele>584.0</ele><time>2026-04-26T13:22:06.814Z</time></trkpt><trkpt lat="44.4275188" lon="9.8817089"><ele>584.0</ele><time>2026-04-26T13:22:07.814Z</time></trkpt><trkpt lat="44.4276152" lon="9.8818051"><ele>584.0</ele><time>2026-04-26T13:22:09.815Z</time></trkpt><trkpt lat="44.42768" lon="9.8818787"><ele>584.0</ele><time>2026-04-26T13:22:10.814Z</time></trkpt><trkpt lat="44.4277462" lon="9.8819249"><ele>584.0</ele><time>2026-04-26T13:22:11.814Z</time></trkpt><trkpt lat="44.4278137" lon="9.8819463"><ele>584.0</ele><time>2026-04-26T13:22:13.814Z</time></trkpt><trkpt lat="44.4278363" lon="9.8818581"><ele>584.0</ele><time>2026-04-26T13:22:15.815Z</time></trkpt><trkpt lat="44.4277837" lon="9.881735"><ele>584.0</ele><time>2026-04-26T13:22:17.814Z</time></trkpt><trkpt lat="44.4277119" lon="9.8816428"><ele>586.6</ele><time>2026-04-26T13:22:18.815Z</time></trkpt><trkpt lat="44.4276558" lon="9.8815397"><ele>589.2</ele><time>2026-04-26T13:22:19.814Z</time></trkpt><trkpt lat="44.4275777" lon="9.8814263"><ele>591.8000000000001</ele><time>2026-04-26T13:22:20.814Z</time></trkpt><trkpt lat="44.4275073" lon="9.8813354"><ele>594.4</ele><time>2026-04-26T13:22:21.815Z</time></trkpt><trkpt lat="44.427443" lon="9.8812735"><ele>597.0</ele><time>2026-04-26T13:22:22.814Z</time></trkpt><trkpt lat="44.4273634" lon="9.8811448"><ele>597.0</ele><time>2026-04-26T13:22:24.814Z</time></trkpt><trkpt lat="44.4273" lon="9.8810001"><ele>597.0</ele><time>2026-04-26T13:22:26.814Z</time></trkpt><trkpt lat="44.4273669" lon="9.8809509"><ele>597.0</ele><time>2026-04-26T13:22:28.814Z</time></trkpt><trkpt lat="44.4274295" lon="9.8810255"><ele>597.0</ele><time>2026-04-26T13:22:30.814Z</time></trkpt><trkpt lat="44.427483" lon="9.8810977"><ele>597.0</ele><time>2026-04-26T13:22:32.814Z</time></trkpt><trkpt lat="44.427602" lon="9.881175"><ele>597.0</ele><time>2026-04-26T13:22:34.815Z</time></trkpt><trkpt lat="44.4276729" lon="9.8812384"><ele>597.0</ele><time>2026-04-26T13:22:35.815Z</time></trkpt><trkpt lat="44.4277544" lon="9.8813001"><ele>597.0</ele><time>2026-04-26T13:22:36.815Z</time></trkpt><trkpt lat="44.4278229" lon="9.8813637"><ele>597.0</ele><time>2026-04-26T13:22:37.815Z</time></trkpt><trkpt lat="44.4278843" lon="9.8814247"><ele>597.0</ele><time>2026-04-26T13:22:38.814Z</time></trkpt><trkpt lat="44.4279569" lon="9.8814897"><ele>597.0</ele><time>2026-04-26T13:22:39.814Z</time></trkpt><trkpt lat="44.4280262" lon="9.88159"><ele>598.1666666666666</ele><time>2026-04-26T13:22:40.815Z</time></trkpt><trkpt lat="44.4280707" lon="9.8816841"><ele>599.3333333333334</ele><time>2026-04-26T13:22:41.814Z</time></trkpt><trkpt lat="44.4281337" lon="9.8817494"><ele>600.5</ele><time>2026-04-26T13:22:42.814Z</time></trkpt><trkpt lat="44.4281796" lon="9.8818186"><ele>601.6666666666667</ele><time>2026-04-26T13:22:43.814Z</time></trkpt><trkpt lat="44.4282741" lon="9.881821"><ele>602.8333333333334</ele><time>2026-04-26T13:22:44.814Z</time></trkpt><trkpt lat="44.4283516" lon="9.881762"><ele>604.0</ele><time>2026-04-26T13:22:45.815Z</time></trkpt><trkpt lat="44.4283703" lon="9.8816624"><ele>606.8</ele><time>2026-04-26T13:22:46.814Z</time></trkpt><trkpt lat="44.4283271" lon="9.8815632"><ele>609.5999999999999</ele><time>2026-04-26T13:22:48.814Z</time></trkpt><trkpt lat="44.4282481" lon="9.881455"><ele>612.4</ele><time>2026-04-26T13:22:53.814Z</time></trkpt><trkpt lat="44.4281445" lon="9.8813664"><ele>615.1999999999999</ele><time>2026-04-26T13:22:55.814Z</time></trkpt><trkpt lat="44.4280764" lon="9.8812965"><ele>618.0</ele><time>2026-04-26T13:22:56.815Z</time></trkpt><trkpt lat="44.4280147" lon="9.8812147"><ele>617.1999999999999</ele><time>2026-04-26T13:22:57.814Z</time></trkpt><trkpt lat="44.4279642" lon="9.8810959"><ele>616.4</ele><time>2026-04-26T13:22:58.814Z</time></trkpt><trkpt lat="44.4279081" lon="9.8809993"><ele>615.5999999999999</ele><time>2026-04-26T13:22:59.814Z</time></trkpt><trkpt lat="44.4278892" lon="9.8809008"><ele>614.8</ele><time>2026-04-26T13:23:00.814Z</time></trkpt><trkpt lat="44.427988" lon="9.8808154"><ele>614.0</ele><time>2026-04-26T13:23:01.814Z</time></trkpt><trkpt lat="44.4280365" lon="9.8807178"><ele>616.6666666666666</ele><time>2026-04-26T13:23:03.814Z</time></trkpt><trkpt lat="44.4281118" lon="9.8807737"><ele>619.3333333333333</ele><time>2026-04-26T13:23:04.815Z</time></trkpt><trkpt lat="44.4281826" lon="9.8807848"><ele>622.0</ele><time>2026-04-26T13:23:05.814Z</time></trkpt><trkpt lat="44.4282249" lon="9.880667"><ele>624.6666666666666</ele><time>2026-04-26T13:23:07.814Z</time></trkpt><trkpt lat="44.4281947" lon="9.8805335"><ele>627.3333333333334</ele><time>2026-04-26T13:23:09.815Z</time></trkpt><trkpt lat="44.4281724" lon="9.8804059"><ele>630.0</ele><time>2026-04-26T13:23:10.815Z</time></trkpt><trkpt lat="44.42816" lon="9.8803031"><ele>630.0</ele><time>2026-04-26T13:23:11.815Z</time></trkpt><trkpt lat="44.4281624" lon="9.880205"><ele>630.0</ele><time>2026-04-26T13:23:12.814Z</time></trkpt><trkpt lat="44.4281726" lon="9.8801157"><ele>630.0</ele><time>2026-04-26T13:23:13.814Z</time></trkpt><trkpt lat="44.428197" lon="9.8800272"><ele>630.0</ele><time>2026-04-26T13:23:14.814Z</time></trkpt><trkpt lat="44.4282302" lon="9.8799372"><ele>630.0</ele><time>2026-04-26T13:23:15.815Z</time></trkpt><trkpt lat="44.4282603" lon="9.8798348"><ele>630.0</ele><time>2026-04-26T13:23:16.814Z</time></trkpt><trkpt lat="44.4283006" lon="9.8797247"><ele>630.0</ele><time>2026-04-26T13:23:17.814Z</time></trkpt><trkpt lat="44.4283725" lon="9.8796555"><ele>632.1666666666666</ele><time>2026-04-26T13:23:18.815Z</time></trkpt><trkpt lat="44.4284279" lon="9.8795628"><ele>634.3333333333334</ele><time>2026-04-26T13:23:19.814Z</time></trkpt><trkpt lat="44.428482" lon="9.879472"><ele>636.5</ele><time>2026-04-26T13:23:20.814Z</time></trkpt><trkpt lat="44.4285365" lon="9.8793851"><ele>638.6666666666667</ele><time>2026-04-26T13:23:21.814Z</time></trkpt><trkpt lat="44.4285771" lon="9.8792503"><ele>640.8333333333334</ele><time>2026-04-26T13:23:22.814Z</time></trkpt><trkpt lat="44.4286263" lon="9.879147"><ele>643.0</ele><time>2026-04-26T13:23:23.814Z</time></trkpt><trkpt lat="44.4286899" lon="9.8790302"><ele>644.2</ele><time>2026-04-26T13:23:24.814Z</time></trkpt><trkpt lat="44.4287416" lon="9.878905"><ele>645.4</ele><time>2026-04-26T13:23:25.814Z</time></trkpt><trkpt lat="44.4287866" lon="9.8787802"><ele>646.6</ele><time>2026-04-26T13:23:26.815Z</time></trkpt><trkpt lat="44.4288147" lon="9.8786094"><ele>647.8000000000001</ele><time>2026-04-26T13:23:27.814Z</time></trkpt><trkpt lat="44.4288536" lon="9.8784597"><ele>649.0</ele><time>2026-04-26T13:23:28.815Z</time></trkpt><trkpt lat="44.4288832" lon="9.8783132"><ele>651.4000000000001</ele><time>2026-04-26T13:23:29.815Z</time></trkpt><trkpt lat="44.4289011" lon="9.8781613"><ele>653.8</ele><time>2026-04-26T13:23:30.815Z</time></trkpt><trkpt lat="44.4289241" lon="9.8780248"><ele>656.2</ele><time>2026-04-26T13:23:31.814Z</time></trkpt><trkpt lat="44.4289453" lon="9.8778898"><ele>658.5999999999999</ele><time>2026-04-26T13:23:32.814Z</time></trkpt><trkpt lat="44.4289637" lon="9.8777567"><ele>661.0</ele><time>2026-04-26T13:23:33.814Z</time></trkpt><trkpt lat="44.4289903" lon="9.8776453"><ele>661.8</ele><time>2026-04-26T13:23:34.814Z</time></trkpt><trkpt lat="44.4289978" lon="9.8775394"><ele>662.5999999999999</ele><time>2026-04-26T13:23:35.814Z</time></trkpt><trkpt lat="44.4290116" lon="9.8773947"><ele>663.4</ele><time>2026-04-26T13:23:37.814Z</time></trkpt><trkpt lat="44.4290138" lon="9.8773022"><ele>664.2</ele><time>2026-04-26T13:24:19.814Z</time></trkpt><trkpt lat="44.4289668" lon="9.8770781"><ele>665.0</ele><time>2026-04-26T13:24:21.814Z</time></trkpt><trkpt lat="44.4289439" lon="9.876977"><ele>665.0</ele><time>2026-04-26T13:24:22.814Z</time></trkpt><trkpt lat="44.4289208" lon="9.8768763"><ele>665.0</ele><time>2026-04-26T13:24:23.815Z</time></trkpt><trkpt lat="44.4289013" lon="9.8767723"><ele>665.0</ele><time>2026-04-26T13:24:24.814Z</time></trkpt><trkpt lat="44.4288856" lon="9.8766851"><ele>665.0</ele><time>2026-04-26T13:24:25.814Z</time></trkpt><trkpt lat="44.4288577" lon="9.8765963"><ele>665.0</ele><time>2026-04-26T13:24:26.814Z</time></trkpt><trkpt lat="44.4287935" lon="9.8765589"><ele>665.0</ele><time>2026-04-26T13:24:27.815Z</time></trkpt><trkpt lat="44.4287237" lon="9.876526"><ele>665.0</ele><time>2026-04-26T13:24:28.815Z</time></trkpt><trkpt lat="44.4286566" lon="9.8764633"><ele>665.0</ele><time>2026-04-26T13:24:29.814Z</time></trkpt><trkpt lat="44.4285768" lon="9.8764011"><ele>665.0</ele><time>2026-04-26T13:24:31.815Z</time></trkpt><trkpt lat="44.4285365" lon="9.8762318"><ele>665.0</ele><time>2026-04-26T13:24:33.814Z</time></trkpt><trkpt lat="44.4285348" lon="9.8761336"><ele>665.0</ele><time>2026-04-26T13:24:34.816Z</time></trkpt><trkpt lat="44.4285576" lon="9.8760281"><ele>665.0</ele><time>2026-04-26T13:24:35.815Z</time></trkpt><trkpt lat="44.428587" lon="9.8759297"><ele>665.0</ele><time>2026-04-26T13:24:36.814Z</time></trkpt><trkpt lat="44.4286743" lon="9.8758165"><ele>665.4</ele><time>2026-04-26T13:24:37.814Z</time></trkpt><trkpt lat="44.4287658" lon="9.8757008"><ele>665.8</ele><time>2026-04-26T13:24:38.814Z</time></trkpt><trkpt lat="44.4288215" lon="9.8755961"><ele>666.2</ele><time>2026-04-26T13:24:39.814Z</time></trkpt><trkpt lat="44.4288785" lon="9.8754904"><ele>666.6</ele><time>2026-04-26T13:24:40.815Z</time></trkpt><trkpt lat="44.4289321" lon="9.8753925"><ele>667.0</ele><time>2026-04-26T13:24:41.814Z</time></trkpt><trkpt lat="44.4289881" lon="9.8752917"><ele>668.6</ele><time>2026-04-26T13:24:42.814Z</time></trkpt><trkpt lat="44.4290666" lon="9.8751977"><ele>670.2</ele><time>2026-04-26T13:24:43.814Z</time></trkpt><trkpt lat="44.4291431" lon="9.8750899"><ele>671.8</ele><time>2026-04-26T13:24:44.814Z</time></trkpt><trkpt lat="44.4292029" lon="9.8750025"><ele>673.4</ele><time>2026-04-26T13:24:45.813Z</time></trkpt><trkpt lat="44.4292881" lon="9.8749066"><ele>675.0</ele><time>2026-04-26T13:24:46.813Z</time></trkpt><trkpt lat="44.42939" lon="9.8747624"><ele>676.4</ele><time>2026-04-26T13:24:47.813Z</time></trkpt><trkpt lat="44.4294495" lon="9.8746886"><ele>677.8</ele><time>2026-04-26T13:24:48.813Z</time></trkpt><trkpt lat="44.4295085" lon="9.8745952"><ele>679.2</ele><time>2026-04-26T13:24:49.813Z</time></trkpt><trkpt lat="44.4295735" lon="9.8744899"><ele>680.6</ele><time>2026-04-26T13:24:50.813Z</time></trkpt><trkpt lat="44.4296405" lon="9.8743963"><ele>682.0</ele><time>2026-04-26T13:24:51.813Z</time></trkpt><trkpt lat="44.429718" lon="9.8742585"><ele>686.0</ele><time>2026-04-26T13:24:52.813Z</time></trkpt><trkpt lat="44.4297858" lon="9.8741715"><ele>690.0</ele><time>2026-04-26T13:24:53.813Z</time></trkpt><trkpt lat="44.4298504" lon="9.874064"><ele>694.0</ele><time>2026-04-26T13:24:54.814Z</time></trkpt><trkpt lat="44.4298897" lon="9.8739608"><ele>698.0</ele><time>2026-04-26T13:24:55.813Z</time></trkpt><trkpt lat="44.4299393" lon="9.8738607"><ele>702.0</ele><time>2026-04-26T13:24:56.813Z</time></trkpt><trkpt lat="44.4300034" lon="9.873727"><ele>702.0</ele><time>2026-04-26T13:24:57.813Z</time></trkpt><trkpt lat="44.4299974" lon="9.8735523"><ele>702.0</ele><time>2026-04-26T13:24:58.813Z</time></trkpt><trkpt lat="44.4300527" lon="9.87339"><ele>702.0</ele><time>2026-04-26T13:24:59.815Z</time></trkpt><trkpt lat="44.4300918" lon="9.8732591"><ele>702.0</ele><time>2026-04-26T13:25:00.813Z</time></trkpt><trkpt lat="44.4301064" lon="9.8731117"><ele>701.8</ele><time>2026-04-26T13:25:01.813Z</time></trkpt><trkpt lat="44.4301493" lon="9.8729924"><ele>701.6</ele><time>2026-04-26T13:25:02.813Z</time></trkpt><trkpt lat="44.430208" lon="9.8728621"><ele>701.4</ele><time>2026-04-26T13:25:04.813Z</time></trkpt><trkpt lat="44.4303099" lon="9.8729686"><ele>701.1999999999999</ele><time>2026-04-26T13:25:06.813Z</time></trkpt><trkpt lat="44.4303686" lon="9.8730274"><ele>701.0</ele><time>2026-04-26T13:25:07.813Z</time></trkpt><trkpt lat="44.4304247" lon="9.8731349"><ele>703.6666666666666</ele><time>2026-04-26T13:25:08.814Z</time></trkpt><trkpt lat="44.4305085" lon="9.8731779"><ele>706.3333333333333</ele><time>2026-04-26T13:25:09.814Z</time></trkpt><trkpt lat="44.4305954" lon="9.8731354"><ele>709.0</ele><time>2026-04-26T13:25:11.813Z</time></trkpt><trkpt lat="44.4306545" lon="9.8730788"><ele>711.6666666666666</ele><time>2026-04-26T13:25:12.813Z</time></trkpt><trkpt lat="44.430709" lon="9.8730276"><ele>714.3333333333334</ele><time>2026-04-26T13:25:13.813Z</time></trkpt><trkpt lat="44.4307484" lon="9.872909"><ele>717.0</ele><time>2026-04-26T13:25:14.813Z</time></trkpt><trkpt lat="44.4307877" lon="9.8727879"><ele>717.0</ele><time>2026-04-26T13:25:15.814Z</time></trkpt><trkpt lat="44.4308112" lon="9.8726783"><ele>717.0</ele><time>2026-04-26T13:25:16.813Z</time></trkpt><trkpt lat="44.4308508" lon="9.8725748"><ele>717.0</ele><time>2026-04-26T13:25:17.813Z</time></trkpt><trkpt lat="44.430955" lon="9.8725203"><ele>717.0</ele><time>2026-04-26T13:25:19.813Z</time></trkpt><trkpt lat="44.4310382" lon="9.8725616"><ele>717.0</ele><time>2026-04-26T13:25:20.813Z</time></trkpt><trkpt lat="44.4310844" lon="9.8726237"><ele>717.0</ele><time>2026-04-26T13:25:21.813Z</time></trkpt><trkpt lat="44.431145" lon="9.8726729"><ele>717.0</ele><time>2026-04-26T13:25:22.813Z</time></trkpt><trkpt lat="44.4312456" lon="9.8727114"><ele>717.0</ele><time>2026-04-26T13:25:24.813Z</time></trkpt><trkpt lat="44.431357" lon="9.872712"><ele>717.0</ele><time>2026-04-26T13:25:26.813Z</time></trkpt><trkpt lat="44.4314082" lon="9.8726603"><ele>717.0</ele><time>2026-04-26T13:25:27.814Z</time></trkpt><trkpt lat="44.4314608" lon="9.872524"><ele>717.0</ele><time>2026-04-26T13:25:29.813Z</time></trkpt><trkpt lat="44.4314937" lon="9.8724226"><ele>720.0</ele><time>2026-04-26T13:25:30.813Z</time></trkpt><trkpt lat="44.4315294" lon="9.8723219"><ele>723.0</ele><time>2026-04-26T13:25:31.813Z</time></trkpt><trkpt lat="44.4316703" lon="9.872207"><ele>726.0</ele><time>2026-04-26T13:25:33.813Z</time></trkpt><trkpt lat="44.431728" lon="9.8721396"><ele>729.0</ele><time>2026-04-26T13:25:34.813Z</time></trkpt><trkpt lat="44.4318019" lon="9.8720642"><ele>732.0</ele><time>2026-04-26T13:25:35.814Z</time></trkpt><trkpt lat="44.4318766" lon="9.8719759"><ele>732.0</ele><time>2026-04-26T13:25:36.813Z</time></trkpt><trkpt lat="44.4319515" lon="9.8718814"><ele>732.0</ele><time>2026-04-26T13:25:37.813Z</time></trkpt><trkpt lat="44.4320094" lon="9.8717912"><ele>732.0</ele><time>2026-04-26T13:25:38.813Z</time></trkpt><trkpt lat="44.432075" lon="9.8716809"><ele>732.0</ele><time>2026-04-26T13:25:39.813Z</time></trkpt><trkpt lat="44.4321569" lon="9.8715966"><ele>732.0</ele><time>2026-04-26T13:25:40.813Z</time></trkpt><trkpt lat="44.4322471" lon="9.8715061"><ele>735.6</ele><time>2026-04-26T13:25:41.814Z</time></trkpt><trkpt lat="44.4322985" lon="9.8713886"><ele>739.2</ele><time>2026-04-26T13:25:42.813Z</time></trkpt><trkpt lat="44.432348" lon="9.8712728"><ele>742.8</ele><time>2026-04-26T13:25:43.813Z</time></trkpt><trkpt lat="44.4323969" lon="9.8711613"><ele>746.4</ele><time>2026-04-26T13:25:44.814Z</time></trkpt><trkpt lat="44.4324196" lon="9.8710348"><ele>750.0</ele><time>2026-04-26T13:25:45.814Z</time></trkpt><trkpt lat="44.4324472" lon="9.8709235"><ele>750.0</ele><time>2026-04-26T13:25:46.813Z</time></trkpt><trkpt lat="44.4324363" lon="9.870825"><ele>750.0</ele><time>2026-04-26T13:25:47.813Z</time></trkpt><trkpt lat="44.4324891" lon="9.8708915"><ele>750.0</ele><time>2026-04-26T13:25:49.813Z</time></trkpt><trkpt lat="44.4325791" lon="9.8710447"><ele>750.0</ele><time>2026-04-26T13:25:51.813Z</time></trkpt><trkpt lat="44.4326275" lon="9.8711354"><ele>750.0</ele><time>2026-04-26T13:25:52.813Z</time></trkpt><trkpt lat="44.4327177" lon="9.8712865"><ele>750.0</ele><time>2026-04-26T13:25:54.813Z</time></trkpt><trkpt lat="44.4327694" lon="9.8713793"><ele>750.0</ele><time>2026-04-26T13:25:55.813Z</time></trkpt><trkpt lat="44.4328198" lon="9.8714573"><ele>750.0</ele><time>2026-04-26T13:25:56.814Z</time></trkpt><trkpt lat="44.4329319" lon="9.8715447"><ele>750.0</ele><time>2026-04-26T13:25:58.813Z</time></trkpt><trkpt lat="44.4330598" lon="9.8715798"><ele>750.0</ele><time>2026-04-26T13:26:00.814Z</time></trkpt><trkpt lat="44.4331694" lon="9.8716125"><ele>752.0</ele><time>2026-04-26T13:26:01.813Z</time></trkpt><trkpt lat="44.4332699" lon="9.8716295"><ele>754.0</ele><time>2026-04-26T13:26:02.813Z</time></trkpt><trkpt lat="44.4333555" lon="9.8716815"><ele>756.0</ele><time>2026-04-26T13:26:03.815Z</time></trkpt><trkpt lat="44.4334403" lon="9.8716884"><ele>758.0</ele><time>2026-04-26T13:26:04.814Z</time></trkpt><trkpt lat="44.4335182" lon="9.8716982"><ele>760.0</ele><time>2026-04-26T13:26:05.813Z</time></trkpt><trkpt lat="44.4336042" lon="9.8716662"><ele>762.0</ele><time>2026-04-26T13:26:06.814Z</time></trkpt><trkpt lat="44.4336783" lon="9.8716205"><ele>762.0</ele><time>2026-04-26T13:26:07.814Z</time></trkpt><trkpt lat="44.433748" lon="9.8715825"><ele>762.0</ele><time>2026-04-26T13:26:08.813Z</time></trkpt><trkpt lat="44.4338358" lon="9.8715128"><ele>762.0</ele><time>2026-04-26T13:26:09.813Z</time></trkpt><trkpt lat="44.4339021" lon="9.871357"><ele>762.0</ele><time>2026-04-26T13:26:11.813Z</time></trkpt><trkpt lat="44.4338881" lon="9.8712142"><ele>762.0</ele><time>2026-04-26T13:26:13.814Z</time></trkpt><trkpt lat="44.4338109" lon="9.8710141"><ele>764.4000000000001</ele><time>2026-04-26T13:26:15.813Z</time></trkpt><trkpt lat="44.4337646" lon="9.870903"><ele>766.8000000000001</ele><time>2026-04-26T13:26:16.814Z</time></trkpt><trkpt lat="44.4337309" lon="9.8707935"><ele>769.2</ele><time>2026-04-26T13:26:17.814Z</time></trkpt><trkpt lat="44.4336947" lon="9.8706947"><ele>771.6</ele><time>2026-04-26T13:26:18.813Z</time></trkpt><trkpt lat="44.4336579" lon="9.8705791"><ele>774.0</ele><time>2026-04-26T13:26:19.813Z</time></trkpt><trkpt lat="44.4335723" lon="9.8704815"><ele>774.0</ele><time>2026-04-26T13:26:21.813Z</time></trkpt><trkpt lat="44.433519" lon="9.8704259"><ele>774.0</ele><time>2026-04-26T13:26:22.813Z</time></trkpt><trkpt lat="44.4334721" lon="9.8703437"><ele>774.0</ele><time>2026-04-26T13:26:23.813Z</time></trkpt><trkpt lat="44.4334262" lon="9.8702529"><ele>774.0</ele><time>2026-04-26T13:26:24.813Z</time></trkpt><trkpt lat="44.4333885" lon="9.8701542"><ele>774.0</ele><time>2026-04-26T13:26:25.813Z</time></trkpt><trkpt lat="44.4333299" lon="9.8700326"><ele>774.0</ele><time>2026-04-26T13:26:26.813Z</time></trkpt><trkpt lat="44.4332879" lon="9.869925"><ele>776.8000000000001</ele><time>2026-04-26T13:26:27.813Z</time></trkpt><trkpt lat="44.4332517" lon="9.8697969"><ele>779.6</ele><time>2026-04-26T13:26:28.814Z</time></trkpt><trkpt lat="44.43324" lon="9.869665"><ele>782.4</ele><time>2026-04-26T13:26:29.814Z</time></trkpt><trkpt lat="44.4332321" lon="9.8695348"><ele>785.2</ele><time>2026-04-26T13:26:30.813Z</time></trkpt><trkpt lat="44.4331835" lon="9.8693831"><ele>788.0</ele><time>2026-04-26T13:26:32.814Z</time></trkpt><trkpt lat="44.4331763" lon="9.8692826"><ele>788.0</ele><time>2026-04-26T13:26:34.813Z</time></trkpt><trkpt lat="44.4331953" lon="9.8691814"><ele>788.0</ele><time>2026-04-26T13:26:49.813Z</time></trkpt><trkpt lat="44.4332805" lon="9.8691763"><ele>788.0</ele><time>2026-04-26T13:26:52.813Z</time></trkpt><trkpt lat="44.4334007" lon="9.8693032"><ele>788.0</ele><time>2026-04-26T13:26:54.813Z</time></trkpt><trkpt lat="44.4334885" lon="9.8694111"><ele>788.0</ele><time>2026-04-26T13:26:55.813Z</time></trkpt><trkpt lat="44.4336026" lon="9.869451"><ele>788.0000000000001</ele><time>2026-04-26T13:26:57.813Z</time></trkpt><trkpt lat="44.4336846" lon="9.8694724"><ele>788.0</ele><time>2026-04-26T13:26:58.813Z</time></trkpt><trkpt lat="44.4337637" lon="9.8694256"><ele>788.0</ele><time>2026-04-26T13:26:59.813Z</time></trkpt><trkpt lat="44.4338482" lon="9.869378"><ele>788.0</ele><time>2026-04-26T13:27:00.813Z</time></trkpt><trkpt lat="44.4339095" lon="9.8693192"><ele>788.0000000000001</ele><time>2026-04-26T13:27:01.813Z</time></trkpt><trkpt lat="44.4339811" lon="9.8693424"><ele>788.0</ele><time>2026-04-26T13:27:02.813Z</time></trkpt><trkpt lat="44.4340461" lon="9.8693431"><ele>790.6666666666667</ele><time>2026-04-26T13:27:03.813Z</time></trkpt><trkpt lat="44.4341132" lon="9.8693646"><ele>793.3333333333334</ele><time>2026-04-26T13:27:04.813Z</time></trkpt><trkpt lat="44.434223" lon="9.8694006"><ele>796.0</ele><time>2026-04-26T13:27:05.813Z</time></trkpt><trkpt lat="44.4342955" lon="9.8694152"><ele>798.6666666666667</ele><time>2026-04-26T13:27:06.813Z</time></trkpt><trkpt lat="44.4343938" lon="9.8693764"><ele>801.3333333333334</ele><time>2026-04-26T13:27:07.813Z</time></trkpt><trkpt lat="44.4344809" lon="9.86934"><ele>804.0</ele><time>2026-04-26T13:27:08.813Z</time></trkpt><trkpt lat="44.4345556" lon="9.869337"><ele>806.6</ele><time>2026-04-26T13:27:09.813Z</time></trkpt><trkpt lat="44.4346546" lon="9.8693269"><ele>809.2</ele><time>2026-04-26T13:27:10.813Z</time></trkpt><trkpt lat="44.4347891" lon="9.8692858"><ele>811.8000000000001</ele><time>2026-04-26T13:27:12.813Z</time></trkpt><trkpt lat="44.4348714" lon="9.8692415"><ele>814.4000000000001</ele><time>2026-04-26T13:27:13.813Z</time></trkpt><trkpt lat="44.4349302" lon="9.869187"><ele>817.0</ele><time>2026-04-26T13:27:14.814Z</time></trkpt><trkpt lat="44.4349845" lon="9.8691387"><ele>820.5</ele><time>2026-04-26T13:27:15.813Z</time></trkpt><trkpt lat="44.4350281" lon="9.8690533"><ele>824.0</ele><time>2026-04-26T13:27:16.814Z</time></trkpt><trkpt lat="44.435034" lon="9.8689016"><ele>827.5</ele><time>2026-04-26T13:27:18.814Z</time></trkpt><trkpt lat="44.4350048" lon="9.8687543"><ele>831.0</ele><time>2026-04-26T13:27:20.813Z</time></trkpt><trkpt lat="44.4348461" lon="9.8686844"><ele>831.0</ele><time>2026-04-26T13:27:22.813Z</time></trkpt><trkpt lat="44.4347597" lon="9.8686393"><ele>831.0</ele><time>2026-04-26T13:27:23.814Z</time></trkpt><trkpt lat="44.4346753" lon="9.8685887"><ele>831.0</ele><time>2026-04-26T13:27:24.813Z</time></trkpt><trkpt lat="44.4346308" lon="9.8685029"><ele>831.0</ele><time>2026-04-26T13:27:25.813Z</time></trkpt><trkpt lat="44.4345655" lon="9.8684262"><ele>831.0</ele><time>2026-04-26T13:27:26.813Z</time></trkpt><trkpt lat="44.4344919" lon="9.8683446"><ele>831.0</ele><time>2026-04-26T13:27:27.813Z</time></trkpt><trkpt lat="44.4344304" lon="9.8682333"><ele>831.75</ele><time>2026-04-26T13:27:28.813Z</time></trkpt><trkpt lat="44.4343436" lon="9.8681106"><ele>832.5</ele><time>2026-04-26T13:27:29.813Z</time></trkpt><trkpt lat="44.434274" lon="9.8679858"><ele>833.25</ele><time>2026-04-26T13:27:30.813Z</time></trkpt><trkpt lat="44.4342373" lon="9.8678362"><ele>834.0</ele><time>2026-04-26T13:27:31.813Z</time></trkpt><trkpt lat="44.4341863" lon="9.8677122"><ele>834.0</ele><time>2026-04-26T13:27:32.813Z</time></trkpt><trkpt lat="44.4341573" lon="9.8675849"><ele>834.0</ele><time>2026-04-26T13:27:33.813Z</time></trkpt><trkpt lat="44.434204" lon="9.867515"><ele>834.0</ele><time>2026-04-26T13:27:34.813Z</time></trkpt><trkpt lat="44.4342369" lon="9.8674191"><ele>834.0</ele><time>2026-04-26T13:27:35.813Z</time></trkpt><trkpt lat="44.4343118" lon="9.8675274"><ele>834.0</ele><time>2026-04-26T13:27:37.813Z</time></trkpt><trkpt lat="44.4343981" lon="9.8676689"><ele>834.0</ele><time>2026-04-26T13:27:38.813Z</time></trkpt><trkpt lat="44.434446" lon="9.8677277"><ele>834.0</ele><time>2026-04-26T13:27:39.814Z</time></trkpt><trkpt lat="44.4345378" lon="9.8678174"><ele>834.0</ele><time>2026-04-26T13:27:40.814Z</time></trkpt><trkpt lat="44.4346027" lon="9.8678713"><ele>834.0</ele><time>2026-04-26T13:27:41.814Z</time></trkpt><trkpt lat="44.4346766" lon="9.867907"><ele>834.0</ele><time>2026-04-26T13:27:42.814Z</time></trkpt><trkpt lat="44.4347795" lon="9.8678749"><ele>834.0</ele><time>2026-04-26T13:27:43.814Z</time></trkpt><trkpt lat="44.4348863" lon="9.8677997"><ele>836.6</ele><time>2026-04-26T13:27:45.815Z</time></trkpt><trkpt lat="44.4349801" lon="9.8676451"><ele>839.2</ele><time>2026-04-26T13:27:47.813Z</time></trkpt><trkpt lat="44.4350158" lon="9.867555"><ele>841.8000000000001</ele><time>2026-04-26T13:27:48.813Z</time></trkpt><trkpt lat="44.4350677" lon="9.8674469"><ele>844.4000000000001</ele><time>2026-04-26T13:27:49.814Z</time></trkpt><trkpt lat="44.4350684" lon="9.8673404"><ele>847.0</ele><time>2026-04-26T13:27:50.813Z</time></trkpt><trkpt lat="44.4350846" lon="9.867234"><ele>849.8</ele><time>2026-04-26T13:27:51.813Z</time></trkpt><trkpt lat="44.4350922" lon="9.8671302"><ele>852.6</ele><time>2026-04-26T13:27:52.814Z</time></trkpt><trkpt lat="44.4350606" lon="9.8669592"><ele>855.3999999999999</ele><time>2026-04-26T13:27:53.814Z</time></trkpt><trkpt lat="44.4350417" lon="9.8668147"><ele>858.1999999999999</ele><time>2026-04-26T13:27:54.813Z</time></trkpt><trkpt lat="44.4350121" lon="9.8666807"><ele>861.0</ele><time>2026-04-26T13:27:55.813Z</time></trkpt><trkpt lat="44.4350108" lon="9.866528"><ele>862.1666666666666</ele><time>2026-04-26T13:27:56.814Z</time></trkpt><trkpt lat="44.435" lon="9.8664022"><ele>863.3333333333333</ele><time>2026-04-26T13:27:57.813Z</time></trkpt><trkpt lat="44.4349663" lon="9.8662823"><ele>864.5</ele><time>2026-04-26T13:27:59.813Z</time></trkpt><trkpt lat="44.4349808" lon="9.8661957"><ele>865.6666666666666</ele><time>2026-04-26T13:28:02.814Z</time></trkpt><trkpt lat="44.4350537" lon="9.8661659"><ele>866.8333333333333</ele><time>2026-04-26T13:28:13.814Z</time></trkpt><trkpt lat="44.4351502" lon="9.8662109"><ele>868.0</ele><time>2026-04-26T13:28:14.813Z</time></trkpt><trkpt lat="44.4352668" lon="9.8662649"><ele>868.0</ele><time>2026-04-26T13:28:15.813Z</time></trkpt><trkpt lat="44.4353566" lon="9.866318"><ele>868.0</ele><time>2026-04-26T13:28:16.814Z</time></trkpt><trkpt lat="44.435447" lon="9.8663959"><ele>868.0</ele><time>2026-04-26T13:28:17.813Z</time></trkpt><trkpt lat="44.4355241" lon="9.8664846"><ele>868.0</ele><time>2026-04-26T13:28:18.813Z</time></trkpt><trkpt lat="44.435593" lon="9.8665767"><ele>868.0</ele><time>2026-04-26T13:28:19.813Z</time></trkpt><trkpt lat="44.4356302" lon="9.8666653"><ele>869.3333333333333</ele><time>2026-04-26T13:28:20.814Z</time></trkpt><trkpt lat="44.4356638" lon="9.866764"><ele>870.6666666666666</ele><time>2026-04-26T13:28:21.813Z</time></trkpt><trkpt lat="44.4357097" lon="9.8668755"><ele>872.0</ele><time>2026-04-26T13:28:22.813Z</time></trkpt><trkpt lat="44.435744" lon="9.8669753"><ele>873.3333333333333</ele><time>2026-04-26T13:28:23.814Z</time></trkpt><trkpt lat="44.4357796" lon="9.8670691"><ele>874.6666666666666</ele><time>2026-04-26T13:28:24.813Z</time></trkpt><trkpt lat="44.4358705" lon="9.8671862"><ele>876.0</ele><time>2026-04-26T13:28:26.813Z</time></trkpt><trkpt lat="44.4359679" lon="9.8672369"><ele>876.0</ele><time>2026-04-26T13:28:27.814Z</time></trkpt><trkpt lat="44.4360928" lon="9.8672756"><ele>875.9999999999999</ele><time>2026-04-26T13:28:28.813Z</time></trkpt><trkpt lat="44.436217" lon="9.8672629"><ele>875.9999999999999</ele><time>2026-04-26T13:28:29.813Z</time></trkpt><trkpt lat="44.4363198" lon="9.8672923"><ele>876.0</ele><time>2026-04-26T13:28:30.814Z</time></trkpt><trkpt lat="44.4364089" lon="9.867312"><ele>876.0</ele><time>2026-04-26T13:28:31.814Z</time></trkpt><trkpt lat="44.4364937" lon="9.8672241"><ele>880.75</ele><time>2026-04-26T13:28:33.812Z</time></trkpt><trkpt lat="44.4365603" lon="9.8671746"><ele>885.5</ele><time>2026-04-26T13:28:34.812Z</time></trkpt><trkpt lat="44.4366992" lon="9.8670741"><ele>890.25</ele><time>2026-04-26T13:28:36.813Z</time></trkpt><trkpt lat="44.4367836" lon="9.8669831"><ele>895.0</ele><time>2026-04-26T13:28:37.812Z</time></trkpt><trkpt lat="44.4369049" lon="9.8668991"><ele>895.0</ele><time>2026-04-26T13:28:39.812Z</time></trkpt><trkpt lat="44.4370218" lon="9.8669812"><ele>895.0</ele><time>2026-04-26T13:28:40.812Z</time></trkpt><trkpt lat="44.4371121" lon="9.8670318"><ele>895.0</ele><time>2026-04-26T13:28:41.812Z</time></trkpt><trkpt lat="44.4371946" lon="9.8670968"><ele>895.0</ele><time>2026-04-26T13:28:42.813Z</time></trkpt><trkpt lat="44.4372518" lon="9.8671623"><ele>895.0</ele><time>2026-04-26T13:28:43.813Z</time></trkpt><trkpt lat="44.4372837" lon="9.867344"><ele>901.0</ele><time>2026-04-26T13:28:45.813Z</time></trkpt><trkpt lat="44.4372868" lon="9.8675544"><ele>907.0</ele><time>2026-04-26T13:28:47.812Z</time></trkpt><trkpt lat="44.4372198" lon="9.8676908"><ele>913.0</ele><time>2026-04-26T13:28:48.812Z</time></trkpt><trkpt lat="44.437185" lon="9.8678218"><ele>919.0</ele><time>2026-04-26T13:28:49.812Z</time></trkpt><trkpt lat="44.4371541" lon="9.8679415"><ele>918.9999999999999</ele><time>2026-04-26T13:28:50.813Z</time></trkpt><trkpt lat="44.4371634" lon="9.8680734"><ele>919.0</ele><time>2026-04-26T13:28:52.814Z</time></trkpt><trkpt lat="44.4372284" lon="9.8680859"><ele>919.0</ele><time>2026-04-26T13:28:55.812Z</time></trkpt><trkpt lat="44.4372854" lon="9.8680447"><ele>919.0</ele><time>2026-04-26T13:28:56.812Z</time></trkpt><trkpt lat="44.4373353" lon="9.8679823"><ele>918.9999999999999</ele><time>2026-04-26T13:28:58.812Z</time></trkpt><trkpt lat="44.4374199" lon="9.8678669"><ele>919.0</ele><time>2026-04-26T13:29:10.812Z</time></trkpt><trkpt lat="44.437547" lon="9.8676956"><ele>919.0</ele><time>2026-04-26T13:29:12.812Z</time></trkpt><trkpt lat="44.437682" lon="9.8676134"><ele>919.0000000000001</ele><time>2026-04-26T13:29:13.812Z</time></trkpt><trkpt lat="44.4377594" lon="9.8675093"><ele>919.0000000000001</ele><time>2026-04-26T13:29:14.812Z</time></trkpt><trkpt lat="44.4378397" lon="9.8674282"><ele>919.0</ele><time>2026-04-26T13:29:15.813Z</time></trkpt><trkpt lat="44.4379171" lon="9.8673536"><ele>919.0</ele><time>2026-04-26T13:29:16.813Z</time></trkpt><trkpt lat="44.4380127" lon="9.86729"><ele>919.2</ele><time>2026-04-26T13:29:17.813Z</time></trkpt><trkpt lat="44.4381117" lon="9.8671963"><ele>919.4000000000001</ele><time>2026-04-26T13:29:19.812Z</time></trkpt><trkpt lat="44.438147" lon="9.8670702"><ele>919.6</ele><time>2026-04-26T13:29:21.812Z</time></trkpt><trkpt lat="44.4380616" lon="9.8669897"><ele>919.8</ele><time>2026-04-26T13:29:22.813Z</time></trkpt><trkpt lat="44.4380028" lon="9.8669139"><ele>920.0</ele><time>2026-04-26T13:29:23.813Z</time></trkpt><trkpt lat="44.4379081" lon="9.8667896"><ele>922.6</ele><time>2026-04-26T13:29:24.812Z</time></trkpt><trkpt lat="44.4378209" lon="9.8666958"><ele>925.2</ele><time>2026-04-26T13:29:25.812Z</time></trkpt><trkpt lat="44.4377601" lon="9.8666026"><ele>927.8</ele><time>2026-04-26T13:29:26.814Z</time></trkpt><trkpt lat="44.4376765" lon="9.8664924"><ele>930.4</ele><time>2026-04-26T13:29:27.812Z</time></trkpt><trkpt lat="44.4375966" lon="9.8663759"><ele>933.0</ele><time>2026-04-26T13:29:28.812Z</time></trkpt><trkpt lat="44.4375138" lon="9.866257"><ele>933.0</ele><time>2026-04-26T13:29:29.812Z</time></trkpt><trkpt lat="44.4374369" lon="9.8661358"><ele>933.0</ele><time>2026-04-26T13:29:30.812Z</time></trkpt><trkpt lat="44.4373335" lon="9.8660122"><ele>933.0</ele><time>2026-04-26T13:29:31.813Z</time></trkpt><trkpt lat="44.4372391" lon="9.8658923"><ele>933.0</ele><time>2026-04-26T13:29:32.813Z</time></trkpt><trkpt lat="44.4371807" lon="9.8657568"><ele>933.0</ele><time>2026-04-26T13:29:34.813Z</time></trkpt><trkpt lat="44.4371403" lon="9.8656501"><ele>933.0</ele><time>2026-04-26T13:29:35.813Z</time></trkpt><trkpt lat="44.4371274" lon="9.8655254"><ele>933.0</ele><time>2026-04-26T13:29:36.812Z</time></trkpt><trkpt lat="44.4371545" lon="9.8653539"><ele>933.0</ele><time>2026-04-26T13:29:37.812Z</time></trkpt><trkpt lat="44.4371947" lon="9.8651946"><ele>933.0</ele><time>2026-04-26T13:29:39.813Z</time></trkpt><trkpt lat="44.4371691" lon="9.865062"><ele>935.8</ele><time>2026-04-26T13:29:40.812Z</time></trkpt><trkpt lat="44.4371161" lon="9.8649363"><ele>938.5999999999999</ele><time>2026-04-26T13:29:41.813Z</time></trkpt><trkpt lat="44.4370422" lon="9.8647929"><ele>941.4000000000001</ele><time>2026-04-26T13:29:42.812Z</time></trkpt><trkpt lat="44.4369654" lon="9.8647269"><ele>944.2</ele><time>2026-04-26T13:29:43.812Z</time></trkpt><trkpt lat="44.4369241" lon="9.864609"><ele>947.0</ele><time>2026-04-26T13:29:44.812Z</time></trkpt><trkpt lat="44.4368607" lon="9.8645071"><ele>947.0</ele><time>2026-04-26T13:29:45.813Z</time></trkpt><trkpt lat="44.4368342" lon="9.8643816"><ele>947.0</ele><time>2026-04-26T13:29:46.812Z</time></trkpt><trkpt lat="44.4367939" lon="9.8642439"><ele>947.0</ele><time>2026-04-26T13:29:47.812Z</time></trkpt><trkpt lat="44.436761" lon="9.8641066"><ele>947.0</ele><time>2026-04-26T13:29:48.813Z</time></trkpt><trkpt lat="44.4366991" lon="9.8639863"><ele>947.0</ele><time>2026-04-26T13:29:49.812Z</time></trkpt><trkpt lat="44.436649" lon="9.8638826"><ele>946.5000000000001</ele><time>2026-04-26T13:29:50.812Z</time></trkpt><trkpt lat="44.4366018" lon="9.8637857"><ele>946.0</ele><time>2026-04-26T13:29:51.812Z</time></trkpt><trkpt lat="44.4365165" lon="9.8637777"><ele>945.5</ele><time>2026-04-26T13:30:24.812Z</time></trkpt><trkpt lat="44.436412" lon="9.8637745"><ele>945.0</ele><time>2026-04-26T13:30:27.812Z</time></trkpt><trkpt lat="44.4363304" lon="9.8637879"><ele>944.5000000000001</ele><time>2026-04-26T13:30:29.813Z</time></trkpt><trkpt lat="44.4362676" lon="9.8638061"><ele>944.0</ele><time>2026-04-26T13:30:31.813Z</time></trkpt><trkpt lat="44.4362035" lon="9.8638145"><ele>944.0</ele><time>2026-04-26T13:30:33.812Z</time></trkpt><trkpt lat="44.4361171" lon="9.8637987"><ele>944.0</ele><time>2026-04-26T13:31:28.812Z</time></trkpt><trkpt lat="44.4358776" lon="9.8637352"><ele>944.0</ele><time>2026-04-26T13:31:30.812Z</time></trkpt><trkpt lat="44.4357661" lon="9.8637073"><ele>944.0</ele><time>2026-04-26T13:31:31.812Z</time></trkpt><trkpt lat="44.4356692" lon="9.8636733"><ele>944.0000000000001</ele><time>2026-04-26T13:31:32.813Z</time></trkpt><trkpt lat="44.4355862" lon="9.8636362"><ele>944.0</ele><time>2026-04-26T13:31:33.813Z</time></trkpt><trkpt lat="44.4355216" lon="9.8636252"><ele>944.0</ele><time>2026-04-26T13:31:34.812Z</time></trkpt><trkpt lat="44.4354575" lon="9.8636111"><ele>944.0</ele><time>2026-04-26T13:31:35.812Z</time></trkpt><trkpt lat="44.4353889" lon="9.8636266"><ele>944.0000000000001</ele><time>2026-04-26T13:31:36.812Z</time></trkpt><trkpt lat="44.4352796" lon="9.863628"><ele>944.0</ele><time>2026-04-26T13:31:38.812Z</time></trkpt><trkpt lat="44.4351662" lon="9.8635448"><ele>944.2</ele><time>2026-04-26T13:31:40.812Z</time></trkpt><trkpt lat="44.4351284" lon="9.8634119"><ele>944.4000000000001</ele><time>2026-04-26T13:31:42.813Z</time></trkpt><trkpt lat="44.435082" lon="9.863278"><ele>944.6</ele><time>2026-04-26T13:31:44.814Z</time></trkpt><trkpt lat="44.435037" lon="9.8631382"><ele>944.8</ele><time>2026-04-26T13:31:46.812Z</time></trkpt><trkpt lat="44.4350205" lon="9.863003"><ele>945.0</ele><time>2026-04-26T13:31:48.813Z</time></trkpt><trkpt lat="44.4349784" lon="9.862906"><ele>945.0</ele><time>2026-04-26T13:31:50.813Z</time></trkpt><trkpt lat="44.4349173" lon="9.8627671"><ele>945.0</ele><time>2026-04-26T13:31:52.812Z</time></trkpt><trkpt lat="44.4349092" lon="9.8626211"><ele>945.0</ele><time>2026-04-26T13:31:55.812Z</time></trkpt><trkpt lat="44.4349377" lon="9.8625149"><ele>945.0</ele><time>2026-04-26T13:31:57.813Z</time></trkpt><trkpt lat="44.4349924" lon="9.8624459"><ele>945.0</ele><time>2026-04-26T13:31:59.813Z</time></trkpt><trkpt lat="44.4350801" lon="9.8623562"><ele>945.2</ele><time>2026-04-26T13:32:09.813Z</time></trkpt><trkpt lat="44.4351698" lon="9.8622561"><ele>945.4</ele><time>2026-04-26T13:32:10.812Z</time></trkpt><trkpt lat="44.4352783" lon="9.862173"><ele>945.5999999999999</ele><time>2026-04-26T13:32:12.812Z</time></trkpt><trkpt lat="44.4353996" lon="9.8621126"><ele>945.8</ele><time>2026-04-26T13:32:14.813Z</time></trkpt><trkpt lat="44.4354734" lon="9.8621076"><ele>946.0</ele><time>2026-04-26T13:32:15.813Z</time></trkpt><trkpt lat="44.4355373" lon="9.8620858"><ele>948.4999999999999</ele><time>2026-04-26T13:32:16.812Z</time></trkpt><trkpt lat="44.4356094" lon="9.8620754"><ele>951.0</ele><time>2026-04-26T13:32:17.812Z</time></trkpt><trkpt lat="44.4356724" lon="9.8620721"><ele>953.5</ele><time>2026-04-26T13:32:18.812Z</time></trkpt><trkpt lat="44.4357398" lon="9.8620596"><ele>956.0</ele><time>2026-04-26T13:32:19.812Z</time></trkpt><trkpt lat="44.4358103" lon="9.8619974"><ele>958.4999999999999</ele><time>2026-04-26T13:32:20.812Z</time></trkpt><trkpt lat="44.435923" lon="9.8619806"><ele>961.0</ele><time>2026-04-26T13:32:21.812Z</time></trkpt><trkpt lat="44.4359934" lon="9.8619544"><ele>960.9999999999999</ele><time>2026-04-26T13:32:22.812Z</time></trkpt><trkpt lat="44.4361311" lon="9.8619629"><ele>961.0</ele><time>2026-04-26T13:32:24.813Z</time></trkpt><trkpt lat="44.4362085" lon="9.8619583"><ele>961.0</ele><time>2026-04-26T13:32:25.813Z</time></trkpt><trkpt lat="44.4362711" lon="9.8619694"><ele>961.0</ele><time>2026-04-26T13:32:26.812Z</time></trkpt><trkpt lat="44.436343" lon="9.8620083"><ele>960.9999999999999</ele><time>2026-04-26T13:32:27.812Z</time></trkpt><trkpt lat="44.4364257" lon="9.8620628"><ele>961.0</ele><time>2026-04-26T13:32:28.813Z</time></trkpt><trkpt lat="44.4365151" lon="9.8621271"><ele>959.5999999999999</ele><time>2026-04-26T13:32:29.811Z</time></trkpt><trkpt lat="44.4366216" lon="9.8622582"><ele>958.1999999999999</ele><time>2026-04-26T13:32:31.811Z</time></trkpt><trkpt lat="44.4366826" lon="9.8623185"><ele>956.8000000000001</ele><time>2026-04-26T13:32:32.811Z</time></trkpt><trkpt lat="44.436754" lon="9.8623154"><ele>955.4000000000001</ele><time>2026-04-26T13:32:33.811Z</time></trkpt><trkpt lat="44.4368076" lon="9.8622654"><ele>954.0</ele><time>2026-04-26T13:32:34.811Z</time></trkpt><trkpt lat="44.4368882" lon="9.8621545"><ele>954.0</ele><time>2026-04-26T13:32:36.812Z</time></trkpt><trkpt lat="44.4369629" lon="9.862102"><ele>954.0000000000001</ele><time>2026-04-26T13:32:38.811Z</time></trkpt><trkpt lat="44.4370641" lon="9.8620975"><ele>954.0000000000001</ele><time>2026-04-26T13:32:40.811Z</time></trkpt><trkpt lat="44.4371462" lon="9.862141"><ele>954.0</ele><time>2026-04-26T13:32:41.812Z</time></trkpt><trkpt lat="44.4372259" lon="9.8621632"><ele>954.0</ele><time>2026-04-26T13:32:42.811Z</time></trkpt><trkpt lat="44.437341" lon="9.8622139"><ele>952.75</ele><time>2026-04-26T13:32:43.811Z</time></trkpt><trkpt lat="44.4374962" lon="9.8622794"><ele>951.5</ele><time>2026-04-26T13:32:44.812Z</time></trkpt><trkpt lat="44.4375964" lon="9.8622964"><ele>950.25</ele><time>2026-04-26T13:32:45.812Z</time></trkpt><trkpt lat="44.4377252" lon="9.8622811"><ele>949.0</ele><time>2026-04-26T13:32:47.811Z</time></trkpt><trkpt lat="44.4378019" lon="9.8622804"><ele>948.9999999999999</ele><time>2026-04-26T13:32:48.812Z</time></trkpt><trkpt lat="44.4378771" lon="9.8622752"><ele>949.0</ele><time>2026-04-26T13:32:49.812Z</time></trkpt><trkpt lat="44.4379682" lon="9.8622643"><ele>949.0</ele><time>2026-04-26T13:32:52.811Z</time></trkpt><trkpt lat="44.4380374" lon="9.8623234"><ele>949.0</ele><time>2026-04-26T13:32:53.812Z</time></trkpt><trkpt lat="44.4381589" lon="9.8623908"><ele>948.9999999999999</ele><time>2026-04-26T13:32:54.813Z</time></trkpt><trkpt lat="44.438219" lon="9.86243"><ele>949.0</ele><time>2026-04-26T13:32:55.812Z</time></trkpt><trkpt lat="44.438283" lon="9.8624511"><ele>948.0</ele><time>2026-04-26T13:32:56.812Z</time></trkpt><trkpt lat="44.4384424" lon="9.8625018"><ele>947.0000000000001</ele><time>2026-04-26T13:32:58.811Z</time></trkpt><trkpt lat="44.4385201" lon="9.862502"><ele>946.0000000000001</ele><time>2026-04-26T13:32:59.811Z</time></trkpt><trkpt lat="44.4385926" lon="9.8625012"><ele>945.0</ele><time>2026-04-26T13:33:00.811Z</time></trkpt><trkpt lat="44.4386648" lon="9.8624981"><ele>944.0</ele><time>2026-04-26T13:33:01.811Z</time></trkpt><trkpt lat="44.4387701" lon="9.8624655"><ele>943.3333333333334</ele><time>2026-04-26T13:33:03.811Z</time></trkpt><trkpt lat="44.4388372" lon="9.8624706"><ele>942.6666666666667</ele><time>2026-04-26T13:33:04.811Z</time></trkpt><trkpt lat="44.4389148" lon="9.8624365"><ele>942.0</ele><time>2026-04-26T13:33:05.812Z</time></trkpt><trkpt lat="44.4389963" lon="9.8623418"><ele>941.3333333333333</ele><time>2026-04-26T13:33:07.811Z</time></trkpt><trkpt lat="44.4390547" lon="9.8623064"><ele>940.6666666666666</ele><time>2026-04-26T13:33:08.811Z</time></trkpt><trkpt lat="44.4391576" lon="9.8622859"><ele>940.0</ele><time>2026-04-26T13:33:10.811Z</time></trkpt><trkpt lat="44.4392675" lon="9.8623064"><ele>940.0</ele><time>2026-04-26T13:33:12.811Z</time></trkpt><trkpt lat="44.4393798" lon="9.8623833"><ele>940.0</ele><time>2026-04-26T13:33:14.812Z</time></trkpt><trkpt lat="44.4394811" lon="9.862382"><ele>940.0</ele><time>2026-04-26T13:33:16.812Z</time></trkpt><trkpt lat="44.4395878" lon="9.8623792"><ele>940.0</ele><time>2026-04-26T13:33:18.812Z</time></trkpt><trkpt lat="44.4397057" lon="9.8623726"><ele>937.2</ele><time>2026-04-26T13:33:20.811Z</time></trkpt><trkpt lat="44.4397985" lon="9.8624439"><ele>934.4</ele><time>2026-04-26T13:33:21.812Z</time></trkpt><trkpt lat="44.4398599" lon="9.8624815"><ele>931.5999999999999</ele><time>2026-04-26T13:33:22.811Z</time></trkpt><trkpt lat="44.4399371" lon="9.8624451"><ele>928.8</ele><time>2026-04-26T13:33:25.812Z</time></trkpt><trkpt lat="44.4398877" lon="9.8623484"><ele>926.0</ele><time>2026-04-26T13:33:28.811Z</time></trkpt><trkpt lat="44.4397867" lon="9.8622802"><ele>926.0000000000001</ele><time>2026-04-26T13:33:30.812Z</time></trkpt><trkpt lat="44.4397236" lon="9.8622621"><ele>926.0</ele><time>2026-04-26T13:33:31.811Z</time></trkpt><trkpt lat="44.4396487" lon="9.8622419"><ele>926.0</ele><time>2026-04-26T13:33:32.812Z</time></trkpt><trkpt lat="44.4395193" lon="9.8622013"><ele>926.0</ele><time>2026-04-26T13:33:34.812Z</time></trkpt><trkpt lat="44.4394405" lon="9.8621716"><ele>926.0000000000001</ele><time>2026-04-26T13:33:35.812Z</time></trkpt><trkpt lat="44.4393841" lon="9.8621285"><ele>926.0</ele><time>2026-04-26T13:33:36.812Z</time></trkpt><trkpt lat="44.4393126" lon="9.861967"><ele>928.0</ele><time>2026-04-26T13:33:37.812Z</time></trkpt><trkpt lat="44.4392398" lon="9.8618563"><ele>929.9999999999999</ele><time>2026-04-26T13:33:38.811Z</time></trkpt><trkpt lat="44.4391847" lon="9.8617912"><ele>932.0</ele><time>2026-04-26T13:33:39.811Z</time></trkpt><trkpt lat="44.4392185" lon="9.8618714"><ele>934.0</ele><time>2026-04-26T13:34:37.812Z</time></trkpt><trkpt lat="44.4392665" lon="9.8619339"><ele>935.9999999999999</ele><time>2026-04-26T13:35:03.811Z</time></trkpt><trkpt lat="44.4393241" lon="9.861985"><ele>938.0</ele><time>2026-04-26T13:37:09.81Z</time></trkpt><trkpt lat="44.4393887" lon="9.8620162"><ele>940.0</ele><time>2026-04-26T13:37:11.81Z</time></trkpt><trkpt lat="44.4394652" lon="9.8620621"><ele>940.0</ele><time>2026-04-26T13:37:13.81Z</time></trkpt><trkpt lat="44.4395647" lon="9.8620968"><ele>940.0</ele><time>2026-04-26T13:37:14.81Z</time></trkpt><trkpt lat="44.4397344" lon="9.8622196"><ele>940.0</ele><time>2026-04-26T13:37:16.81Z</time></trkpt><trkpt lat="44.4398146" lon="9.8622736"><ele>940.0</ele><time>2026-04-26T13:37:17.811Z</time></trkpt><trkpt lat="44.4398731" lon="9.8623301"><ele>942.1666666666666</ele><time>2026-04-26T13:37:18.81Z</time></trkpt><trkpt lat="44.4398692" lon="9.8624324"><ele>944.3333333333333</ele><time>2026-04-26T13:37:19.811Z</time></trkpt><trkpt lat="44.4399327" lon="9.8625531"><ele>946.5</ele><time>2026-04-26T13:37:21.812Z</time></trkpt><trkpt lat="44.4398832" lon="9.8626148"><ele>948.6666666666667</ele><time>2026-04-26T13:37:24.81Z</time></trkpt><trkpt lat="44.4398077" lon="9.8625824"><ele>950.8333333333334</ele><time>2026-04-26T13:37:26.811Z</time></trkpt><trkpt lat="44.4397329" lon="9.8625617"><ele>953.0</ele><time>2026-04-26T13:37:41.811Z</time></trkpt><trkpt lat="44.4396433" lon="9.862534"><ele>950.4</ele><time>2026-04-26T13:37:56.81Z</time></trkpt><trkpt lat="44.4395566" lon="9.8625172"><ele>947.8</ele><time>2026-04-26T13:37:58.81Z</time></trkpt><trkpt lat="44.4394651" lon="9.8625176"><ele>945.2</ele><time>2026-04-26T13:38:00.81Z</time></trkpt><trkpt lat="44.4393521" lon="9.8624486"><ele>942.6</ele><time>2026-04-26T13:38:02.81Z</time></trkpt><trkpt lat="44.4392634" lon="9.8624244"><ele>940.0</ele><time>2026-04-26T13:38:04.81Z</time></trkpt><trkpt lat="44.4391592" lon="9.8624168"><ele>939.9999999999999</ele><time>2026-04-26T13:38:06.81Z</time></trkpt><trkpt lat="44.4390745" lon="9.8624725"><ele>940.0</ele><time>2026-04-26T13:38:08.811Z</time></trkpt><trkpt lat="44.4389963" lon="9.8625329"><ele>940.0</ele><time>2026-04-26T13:38:09.81Z</time></trkpt><trkpt lat="44.4389157" lon="9.8625278"><ele>940.0</ele><time>2026-04-26T13:38:10.81Z</time></trkpt><trkpt lat="44.4388505" lon="9.8625392"><ele>939.9999999999999</ele><time>2026-04-26T13:38:11.81Z</time></trkpt><trkpt lat="44.438743" lon="9.8625886"><ele>940.0</ele><time>2026-04-26T13:38:13.811Z</time></trkpt><trkpt lat="44.4386597" lon="9.8625744"><ele>940.8</ele><time>2026-04-26T13:38:14.811Z</time></trkpt><trkpt lat="44.438558" lon="9.862566"><ele>941.6</ele><time>2026-04-26T13:38:15.81Z</time></trkpt><trkpt lat="44.438459" lon="9.8625656"><ele>942.4000000000001</ele><time>2026-04-26T13:38:16.81Z</time></trkpt><trkpt lat="44.4383714" lon="9.8625351"><ele>943.2</ele><time>2026-04-26T13:38:17.81Z</time></trkpt><trkpt lat="44.4382822" lon="9.8625122"><ele>944.0</ele><time>2026-04-26T13:38:18.81Z</time></trkpt><trkpt lat="44.438223" lon="9.8624536"><ele>944.0</ele><time>2026-04-26T13:38:19.811Z</time></trkpt><trkpt lat="44.4381661" lon="9.8623993"><ele>944.0000000000001</ele><time>2026-04-26T13:38:20.81Z</time></trkpt><trkpt lat="44.4380469" lon="9.8623658"><ele>944.0000000000001</ele><time>2026-04-26T13:38:22.81Z</time></trkpt><trkpt lat="44.4379832" lon="9.8623522"><ele>944.0</ele><time>2026-04-26T13:38:23.81Z</time></trkpt><trkpt lat="44.4379161" lon="9.8623526"><ele>944.0</ele><time>2026-04-26T13:38:24.811Z</time></trkpt><trkpt lat="44.4377841" lon="9.8623528"><ele>944.8333333333334</ele><time>2026-04-26T13:38:26.811Z</time></trkpt><trkpt lat="44.4377068" lon="9.862354"><ele>945.6666666666667</ele><time>2026-04-26T13:38:27.81Z</time></trkpt><trkpt lat="44.4376169" lon="9.8623509"><ele>946.5</ele><time>2026-04-26T13:38:28.81Z</time></trkpt><trkpt lat="44.4375356" lon="9.8623315"><ele>947.3333333333333</ele><time>2026-04-26T13:38:29.81Z</time></trkpt><trkpt lat="44.4374479" lon="9.8623022"><ele>948.1666666666666</ele><time>2026-04-26T13:38:30.811Z</time></trkpt><trkpt lat="44.4373793" lon="9.8622884"><ele>949.0</ele><time>2026-04-26T13:38:31.811Z</time></trkpt><trkpt lat="44.4372974" lon="9.8622675"><ele>949.0</ele><time>2026-04-26T13:38:32.81Z</time></trkpt><trkpt lat="44.43718" lon="9.8622058"><ele>949.0</ele><time>2026-04-26T13:38:34.81Z</time></trkpt><trkpt lat="44.4370767" lon="9.8621814"><ele>949.0</ele><time>2026-04-26T13:38:36.811Z</time></trkpt><trkpt lat="44.437" lon="9.8622429"><ele>949.0</ele><time>2026-04-26T13:38:39.81Z</time></trkpt><trkpt lat="44.4368718" lon="9.8623349"><ele>949.8333333333333</ele><time>2026-04-26T13:38:41.811Z</time></trkpt><trkpt lat="44.4368063" lon="9.8622948"><ele>950.6666666666666</ele><time>2026-04-26T13:38:42.811Z</time></trkpt><trkpt lat="44.4367296" lon="9.8623008"><ele>951.5</ele><time>2026-04-26T13:38:43.811Z</time></trkpt><trkpt lat="44.4366404" lon="9.8622792"><ele>952.3333333333333</ele><time>2026-04-26T13:38:44.81Z</time></trkpt><trkpt lat="44.4365865" lon="9.8622238"><ele>953.1666666666666</ele><time>2026-04-26T13:38:45.81Z</time></trkpt><trkpt lat="44.436528" lon="9.8621776"><ele>954.0</ele><time>2026-04-26T13:38:46.811Z</time></trkpt><trkpt lat="44.4364167" lon="9.8621318"><ele>954.0</ele><time>2026-04-26T13:38:48.81Z</time></trkpt><trkpt lat="44.4363612" lon="9.8620859"><ele>954.0000000000001</ele><time>2026-04-26T13:38:49.81Z</time></trkpt><trkpt lat="44.4362971" lon="9.8620536"><ele>954.0000000000001</ele><time>2026-04-26T13:38:50.811Z</time></trkpt><trkpt lat="44.436136" lon="9.8620041"><ele>954.0</ele><time>2026-04-26T13:38:52.811Z</time></trkpt><trkpt lat="44.4360602" lon="9.8620024"><ele>954.0</ele><time>2026-04-26T13:38:53.811Z</time></trkpt><trkpt lat="44.4359723" lon="9.8620126"><ele>955.1666666666666</ele><time>2026-04-26T13:38:56.81Z</time></trkpt><trkpt lat="44.4358853" lon="9.8620232"><ele>956.3333333333333</ele><time>2026-04-26T13:38:58.81Z</time></trkpt><trkpt lat="44.4358137" lon="9.8620384"><ele>957.5</ele><time>2026-04-26T13:39:00.81Z</time></trkpt><trkpt lat="44.4357459" lon="9.8620528"><ele>958.6666666666666</ele><time>2026-04-26T13:39:01.81Z</time></trkpt><trkpt lat="44.4356298" lon="9.8620692"><ele>959.8333333333333</ele><time>2026-04-26T13:39:03.81Z</time></trkpt><trkpt lat="44.435539" lon="9.8620905"><ele>961.0</ele><time>2026-04-26T13:39:04.811Z</time></trkpt><trkpt lat="44.4354793" lon="9.8621318"><ele>957.25</ele><time>2026-04-26T13:39:05.81Z</time></trkpt><trkpt lat="44.4354063" lon="9.8622223"><ele>953.5</ele><time>2026-04-26T13:39:07.811Z</time></trkpt><trkpt lat="44.4352728" lon="9.862296"><ele>949.75</ele><time>2026-04-26T13:39:09.81Z</time></trkpt><trkpt lat="44.43517" lon="9.8623637"><ele>946.0</ele><time>2026-04-26T13:39:11.81Z</time></trkpt><trkpt lat="44.4350739" lon="9.8624178"><ele>945.9999999999999</ele><time>2026-04-26T13:39:13.81Z</time></trkpt><trkpt lat="44.4350095" lon="9.8624688"><ele>946.0</ele><time>2026-04-26T13:39:15.81Z</time></trkpt><trkpt lat="44.4349461" lon="9.8625702"><ele>946.0</ele><time>2026-04-26T13:39:18.81Z</time></trkpt><trkpt lat="44.4349061" lon="9.8626729"><ele>946.0</ele><time>2026-04-26T13:39:20.81Z</time></trkpt><trkpt lat="44.4349032" lon="9.8627892"><ele>945.9999999999999</ele><time>2026-04-26T13:39:23.809Z</time></trkpt><trkpt lat="44.4349605" lon="9.8628762"><ele>946.0</ele><time>2026-04-26T13:39:25.81Z</time></trkpt><trkpt lat="44.435017" lon="9.8630224"><ele>945.8</ele><time>2026-04-26T13:39:27.809Z</time></trkpt><trkpt lat="44.4350527" lon="9.8631144"><ele>945.5999999999999</ele><time>2026-04-26T13:39:29.809Z</time></trkpt><trkpt lat="44.435092" lon="9.863245"><ele>945.4</ele><time>2026-04-26T13:39:31.81Z</time></trkpt><trkpt lat="44.4351456" lon="9.8633493"><ele>945.2</ele><time>2026-04-26T13:39:33.809Z</time></trkpt><trkpt lat="44.435202" lon="9.8634509"><ele>945.0</ele><time>2026-04-26T13:39:35.81Z</time></trkpt><trkpt lat="44.4352815" lon="9.8635234"><ele>944.8333333333334</ele><time>2026-04-26T13:39:37.809Z</time></trkpt><trkpt lat="44.4353584" lon="9.8635173"><ele>944.6666666666667</ele><time>2026-04-26T13:39:39.81Z</time></trkpt><trkpt lat="44.4354379" lon="9.8634918"><ele>944.5</ele><time>2026-04-26T13:39:41.809Z</time></trkpt><trkpt lat="44.4355051" lon="9.8635143"><ele>944.3333333333334</ele><time>2026-04-26T13:39:42.809Z</time></trkpt><trkpt lat="44.4355703" lon="9.8635367"><ele>944.1666666666667</ele><time>2026-04-26T13:39:43.809Z</time></trkpt><trkpt lat="44.4356516" lon="9.8635492"><ele>944.0</ele><time>2026-04-26T13:39:44.809Z</time></trkpt><trkpt lat="44.4357547" lon="9.8636065"><ele>944.0</ele><time>2026-04-26T13:39:46.81Z</time></trkpt><trkpt lat="44.4358426" lon="9.8636446"><ele>944.0</ele><time>2026-04-26T13:39:48.809Z</time></trkpt><trkpt lat="44.4359514" lon="9.8637151"><ele>944.0</ele><time>2026-04-26T13:39:50.809Z</time></trkpt><trkpt lat="44.4360768" lon="9.8637546"><ele>944.0</ele><time>2026-04-26T13:39:52.81Z</time></trkpt><trkpt lat="44.4361857" lon="9.8637768"><ele>947.8000000000001</ele><time>2026-04-26T13:39:53.81Z</time></trkpt><trkpt lat="44.4363323" lon="9.863783"><ele>951.6000000000001</ele><time>2026-04-26T13:39:54.81Z</time></trkpt><trkpt lat="44.436403" lon="9.8637748"><ele>955.4</ele><time>2026-04-26T13:39:55.809Z</time></trkpt><trkpt lat="44.4364811" lon="9.8637863"><ele>959.2</ele><time>2026-04-26T13:39:56.809Z</time></trkpt><trkpt lat="44.4365306" lon="9.8637094"><ele>963.0</ele><time>2026-04-26T13:39:58.809Z</time></trkpt><trkpt lat="44.4365906" lon="9.8636353"><ele>963.0</ele><time>2026-04-26T13:40:02.809Z</time></trkpt><trkpt lat="44.4366508" lon="9.8635691"><ele>963.0</ele><time>2026-04-26T13:40:05.81Z</time></trkpt><trkpt lat="44.4366895" lon="9.8634884"><ele>963.0</ele><time>2026-04-26T13:40:10.809Z</time></trkpt><trkpt lat="44.4368271" lon="9.8634034"><ele>963.0</ele><time>2026-04-26T13:40:12.81Z</time></trkpt><trkpt lat="44.4369131" lon="9.8634163"><ele>963.0</ele><time>2026-04-26T13:40:13.809Z</time></trkpt><trkpt lat="44.4370257" lon="9.8633984"><ele>963.8</ele><time>2026-04-26T13:40:14.809Z</time></trkpt><trkpt lat="44.4371169" lon="9.863398"><ele>964.5999999999999</ele><time>2026-04-26T13:40:15.81Z</time></trkpt><trkpt lat="44.4372131" lon="9.8633911"><ele>965.4000000000001</ele><time>2026-04-26T13:40:16.81Z</time></trkpt><trkpt lat="44.4372883" lon="9.8633889"><ele>966.2</ele><time>2026-04-26T13:40:17.81Z</time></trkpt><trkpt lat="44.4373918" lon="9.8634211"><ele>967.0</ele><time>2026-04-26T13:40:18.81Z</time></trkpt><trkpt lat="44.4375147" lon="9.8634361"><ele>972.75</ele><time>2026-04-26T13:40:19.81Z</time></trkpt><trkpt lat="44.437637" lon="9.863486"><ele>978.5</ele><time>2026-04-26T13:40:20.809Z</time></trkpt><trkpt lat="44.4377695" lon="9.8635145"><ele>984.25</ele><time>2026-04-26T13:40:21.809Z</time></trkpt><trkpt lat="44.4378792" lon="9.8635397"><ele>990.0</ele><time>2026-04-26T13:40:22.809Z</time></trkpt><trkpt lat="44.4380199" lon="9.8635911"><ele>990.8</ele><time>2026-04-26T13:40:23.809Z</time></trkpt><trkpt lat="44.4381645" lon="9.8636403"><ele>991.6</ele><time>2026-04-26T13:40:24.809Z</time></trkpt><trkpt lat="44.4382427" lon="9.8637009"><ele>992.4000000000001</ele><time>2026-04-26T13:40:25.809Z</time></trkpt><trkpt lat="44.438323" lon="9.8637765"><ele>993.2</ele><time>2026-04-26T13:40:27.81Z</time></trkpt><trkpt lat="44.4383666" lon="9.8638709"><ele>994.0</ele><time>2026-04-26T13:40:28.81Z</time></trkpt><trkpt lat="44.4384137" lon="9.8639464"><ele>994.0</ele><time>2026-04-26T13:40:29.809Z</time></trkpt><trkpt lat="44.4384421" lon="9.8640631"><ele>994.0000000000001</ele><time>2026-04-26T13:40:30.81Z</time></trkpt><trkpt lat="44.4385374" lon="9.8642007"><ele>994.0000000000001</ele><time>2026-04-26T13:40:32.81Z</time></trkpt><trkpt lat="44.4386009" lon="9.8642623"><ele>994.0</ele><time>2026-04-26T13:40:33.81Z</time></trkpt><trkpt lat="44.4386903" lon="9.8642565"><ele>994.0</ele><time>2026-04-26T13:40:34.81Z</time></trkpt><trkpt lat="44.4387861" lon="9.8642465"><ele>993.0</ele><time>2026-04-26T13:40:35.81Z</time></trkpt><trkpt lat="44.4388737" lon="9.8642485"><ele>992.0</ele><time>2026-04-26T13:40:36.81Z</time></trkpt><trkpt lat="44.4389912" lon="9.8642735"><ele>991.0</ele><time>2026-04-26T13:40:38.81Z</time></trkpt><trkpt lat="44.4391292" lon="9.8642877"><ele>990.0</ele><time>2026-04-26T13:40:40.81Z</time></trkpt><trkpt lat="44.4392463" lon="9.864283"><ele>994.3333333333334</ele><time>2026-04-26T13:40:42.809Z</time></trkpt><trkpt lat="44.4393075" lon="9.8643601"><ele>998.6666666666667</ele><time>2026-04-26T13:40:44.809Z</time></trkpt><trkpt lat="44.439384" lon="9.8644084"><ele>1003.0</ele><time>2026-04-26T13:40:45.809Z</time></trkpt><trkpt lat="44.4394846" lon="9.864447"><ele>1007.3333333333334</ele><time>2026-04-26T13:40:47.809Z</time></trkpt><trkpt lat="44.4395495" lon="9.8644628"><ele>1011.6666666666667</ele><time>2026-04-26T13:40:48.809Z</time></trkpt><trkpt lat="44.4396513" lon="9.8644812"><ele>1016.0</ele><time>2026-04-26T13:40:49.809Z</time></trkpt><trkpt lat="44.4397653" lon="9.864475"><ele>1016.0000000000001</ele><time>2026-04-26T13:40:50.809Z</time></trkpt><trkpt lat="44.439865" lon="9.8644768"><ele>1016.0</ele><time>2026-04-26T13:40:51.809Z</time></trkpt><trkpt lat="44.4399486" lon="9.864481"><ele>1016.0</ele><time>2026-04-26T13:40:52.81Z</time></trkpt><trkpt lat="44.4400295" lon="9.8644864"><ele>1016.0</ele><time>2026-04-26T13:40:53.81Z</time></trkpt><trkpt lat="44.4401097" lon="9.8645328"><ele>1016.0000000000001</ele><time>2026-04-26T13:40:54.81Z</time></trkpt><trkpt lat="44.4401777" lon="9.8645621"><ele>1016.0</ele><time>2026-04-26T13:40:55.81Z</time></trkpt><trkpt lat="44.440282" lon="9.8646526"><ele>1016.0000000000001</ele><time>2026-04-26T13:40:56.809Z</time></trkpt><trkpt lat="44.4403595" lon="9.8646882"><ele>1016.0</ele><time>2026-04-26T13:40:57.81Z</time></trkpt><trkpt lat="44.4404326" lon="9.8647462"><ele>1016.0</ele><time>2026-04-26T13:40:58.81Z</time></trkpt><trkpt lat="44.440496" lon="9.8648453"><ele>1016.0</ele><time>2026-04-26T13:40:59.811Z</time></trkpt><trkpt lat="44.4405561" lon="9.8649157"><ele>1016.0000000000001</ele><time>2026-04-26T13:41:00.809Z</time></trkpt><trkpt lat="44.4406228" lon="9.8650257"><ele>1016.0</ele><time>2026-04-26T13:41:01.809Z</time></trkpt><trkpt lat="44.4407003" lon="9.8651469"><ele>1016.5999999999999</ele><time>2026-04-26T13:41:02.81Z</time></trkpt><trkpt lat="44.4407723" lon="9.8652481"><ele>1017.1999999999999</ele><time>2026-04-26T13:41:03.809Z</time></trkpt><trkpt lat="44.4408409" lon="9.8653534"><ele>1017.8000000000001</ele><time>2026-04-26T13:41:04.81Z</time></trkpt><trkpt lat="44.4409692" lon="9.8654335"><ele>1018.4000000000001</ele><time>2026-04-26T13:41:06.809Z</time></trkpt><trkpt lat="44.4410354" lon="9.8654917"><ele>1019.0</ele><time>2026-04-26T13:41:07.81Z</time></trkpt><trkpt lat="44.4411107" lon="9.8656203"><ele>1019.0</ele><time>2026-04-26T13:41:08.81Z</time></trkpt><trkpt lat="44.4412013" lon="9.865706"><ele>1019.0</ele><time>2026-04-26T13:41:09.81Z</time></trkpt><trkpt lat="44.4412807" lon="9.8657976"><ele>1019.0</ele><time>2026-04-26T13:41:10.81Z</time></trkpt><trkpt lat="44.4413912" lon="9.8658872"><ele>1019.0</ele><time>2026-04-26T13:41:11.81Z</time></trkpt><trkpt lat="44.4414895" lon="9.8659681"><ele>1023.0</ele><time>2026-04-26T13:41:12.81Z</time></trkpt><trkpt lat="44.4415905" lon="9.8660254"><ele>1027.0</ele><time>2026-04-26T13:41:13.81Z</time></trkpt><trkpt lat="44.4416747" lon="9.8660796"><ele>1031.0</ele><time>2026-04-26T13:41:14.81Z</time></trkpt><trkpt lat="44.441773" lon="9.8661382"><ele>1035.0</ele><time>2026-04-26T13:41:15.81Z</time></trkpt><trkpt lat="44.4419133" lon="9.8661201"><ele>1039.0</ele><time>2026-04-26T13:41:17.809Z</time></trkpt><trkpt lat="44.4420268" lon="9.8661641"><ele>1039.0</ele><time>2026-04-26T13:41:19.809Z</time></trkpt><trkpt lat="44.4420933" lon="9.8661658"><ele>1039.0</ele><time>2026-04-26T13:41:20.809Z</time></trkpt><trkpt lat="44.4421695" lon="9.8662114"><ele>1039.0</ele><time>2026-04-26T13:41:21.809Z</time></trkpt><trkpt lat="44.4422607" lon="9.8662917"><ele>1039.0</ele><time>2026-04-26T13:41:22.81Z</time></trkpt><trkpt lat="44.4422853" lon="9.8663828"><ele>1039.0</ele><time>2026-04-26T13:41:23.81Z</time></trkpt><trkpt lat="44.4423324" lon="9.8664903"><ele>1039.0</ele><time>2026-04-26T13:41:24.809Z</time></trkpt><trkpt lat="44.4423807" lon="9.866603"><ele>1038.6000000000001</ele><time>2026-04-26T13:41:25.809Z</time></trkpt><trkpt lat="44.4424267" lon="9.8667272"><ele>1038.2</ele><time>2026-04-26T13:41:26.809Z</time></trkpt><trkpt lat="44.4424504" lon="9.8668679"><ele>1037.8000000000002</ele><time>2026-04-26T13:41:27.809Z</time></trkpt><trkpt lat="44.4424781" lon="9.866971"><ele>1037.4</ele><time>2026-04-26T13:41:28.809Z</time></trkpt><trkpt lat="44.4425027" lon="9.8671023"><ele>1037.0</ele><time>2026-04-26T13:41:29.809Z</time></trkpt><trkpt lat="44.4425202" lon="9.86721"><ele>1037.0</ele><time>2026-04-26T13:41:30.809Z</time></trkpt><trkpt lat="44.4425388" lon="9.8673305"><ele>1037.0</ele><time>2026-04-26T13:41:31.81Z</time></trkpt><trkpt lat="44.4425966" lon="9.8674604"><ele>1037.0</ele><time>2026-04-26T13:41:32.81Z</time></trkpt><trkpt lat="44.4426374" lon="9.8676002"><ele>1037.0</ele><time>2026-04-26T13:41:33.81Z</time></trkpt><trkpt lat="44.4426806" lon="9.8677496"><ele>1037.0</ele><time>2026-04-26T13:41:34.81Z</time></trkpt><trkpt lat="44.4427478" lon="9.8678578"><ele>1037.0</ele><time>2026-04-26T13:41:35.81Z</time></trkpt><trkpt lat="44.4428333" lon="9.8679715"><ele>1037.0</ele><time>2026-04-26T13:41:36.811Z</time></trkpt><trkpt lat="44.4428971" lon="9.8680826"><ele>1037.0</ele><time>2026-04-26T13:41:37.81Z</time></trkpt><trkpt lat="44.4429802" lon="9.8681581"><ele>1037.0</ele><time>2026-04-26T13:41:38.81Z</time></trkpt><trkpt lat="44.4430496" lon="9.8682521"><ele>1037.0</ele><time>2026-04-26T13:41:39.81Z</time></trkpt><trkpt lat="44.4431428" lon="9.8683077"><ele>1037.0</ele><time>2026-04-26T13:41:40.809Z</time></trkpt><trkpt lat="44.4432367" lon="9.8683758"><ele>1037.0</ele><time>2026-04-26T13:41:41.809Z</time></trkpt><trkpt lat="44.4433167" lon="9.8684401"><ele>1037.0</ele><time>2026-04-26T13:41:42.809Z</time></trkpt><trkpt lat="44.443392" lon="9.8685012"><ele>1037.0</ele><time>2026-04-26T13:41:43.809Z</time></trkpt><trkpt lat="44.4434463" lon="9.8685759"><ele>1037.0</ele><time>2026-04-26T13:41:44.809Z</time></trkpt><trkpt lat="44.4435165" lon="9.8686612"><ele>1039.3333333333335</ele><time>2026-04-26T13:41:45.809Z</time></trkpt><trkpt lat="44.4435732" lon="9.8687513"><ele>1041.6666666666667</ele><time>2026-04-26T13:41:46.809Z</time></trkpt><trkpt lat="44.4436265" lon="9.8688272"><ele>1044.0</ele><time>2026-04-26T13:41:47.809Z</time></trkpt><trkpt lat="44.4436974" lon="9.868866"><ele>1046.3333333333333</ele><time>2026-04-26T13:41:48.81Z</time></trkpt><trkpt lat="44.4438029" lon="9.8688926"><ele>1048.6666666666665</ele><time>2026-04-26T13:41:50.81Z</time></trkpt><trkpt lat="44.4438761" lon="9.8688781"><ele>1051.0</ele><time>2026-04-26T13:41:51.81Z</time></trkpt><trkpt lat="44.4439645" lon="9.8688345"><ele>1051.0</ele><time>2026-04-26T13:41:52.809Z</time></trkpt><trkpt lat="44.4440841" lon="9.8688007"><ele>1051.0</ele><time>2026-04-26T13:41:54.809Z</time></trkpt><trkpt lat="44.4441518" lon="9.8688353"><ele>1051.0</ele><time>2026-04-26T13:41:55.809Z</time></trkpt><trkpt lat="44.4442122" lon="9.8688976"><ele>1051.0</ele><time>2026-04-26T13:41:56.809Z</time></trkpt><trkpt lat="44.4443601" lon="9.8689858"><ele>1051.0</ele><time>2026-04-26T13:41:58.809Z</time></trkpt><trkpt lat="44.4444599" lon="9.869039"><ele>1051.0</ele><time>2026-04-26T13:41:59.809Z</time></trkpt><trkpt lat="44.44453" lon="9.8691003"><ele>1051.0</ele><time>2026-04-26T13:42:00.809Z</time></trkpt><trkpt lat="44.4446073" lon="9.8691557"><ele>1051.0</ele><time>2026-04-26T13:42:01.809Z</time></trkpt><trkpt lat="44.4446924" lon="9.8692897"><ele>1051.0</ele><time>2026-04-26T13:42:03.811Z</time></trkpt><trkpt lat="44.4447469" lon="9.8693625"><ele>1051.0</ele><time>2026-04-26T13:42:05.811Z</time></trkpt><trkpt lat="44.4448263" lon="9.8695091"><ele>1053.0</ele><time>2026-04-26T13:42:07.809Z</time></trkpt><trkpt lat="44.4448603" lon="9.86962"><ele>1055.0</ele><time>2026-04-26T13:42:08.809Z</time></trkpt><trkpt lat="44.4449103" lon="9.8697006"><ele>1057.0</ele><time>2026-04-26T13:42:09.81Z</time></trkpt><trkpt lat="44.4449472" lon="9.869781"><ele>1059.0</ele><time>2026-04-26T13:42:10.81Z</time></trkpt><trkpt lat="44.4449968" lon="9.8698498"><ele>1061.0</ele><time>2026-04-26T13:42:11.81Z</time></trkpt><trkpt lat="44.4450633" lon="9.8699131"><ele>1063.0</ele><time>2026-04-26T13:42:13.809Z</time></trkpt><trkpt lat="44.4451312" lon="9.8699783"><ele>1063.0</ele><time>2026-04-26T13:42:15.809Z</time></trkpt><trkpt lat="44.4451471" lon="9.8700927"><ele>1063.0</ele><time>2026-04-26T13:42:17.809Z</time></trkpt><trkpt lat="44.4451464" lon="9.8702126"><ele>1063.0</ele><time>2026-04-26T13:42:19.809Z</time></trkpt><trkpt lat="44.4450142" lon="9.8701748"><ele>1063.0</ele><time>2026-04-26T13:42:21.809Z</time></trkpt><trkpt lat="44.4449481" lon="9.8701316"><ele>1063.0</ele><time>2026-04-26T13:42:22.809Z</time></trkpt><trkpt lat="44.4448335" lon="9.8700378"><ele>1063.0</ele><time>2026-04-26T13:42:24.809Z</time></trkpt><trkpt lat="44.4447551" lon="9.8699713"><ele>1063.0</ele><time>2026-04-26T13:42:26.81Z</time></trkpt><trkpt lat="44.4446629" lon="9.8700205"><ele>1063.0</ele><time>2026-04-26T13:42:28.81Z</time></trkpt><trkpt lat="44.4445717" lon="9.87014"><ele>1063.0</ele><time>2026-04-26T13:42:30.81Z</time></trkpt><trkpt lat="44.4445033" lon="9.8702525"><ele>1063.0</ele><time>2026-04-26T13:42:31.81Z</time></trkpt><trkpt lat="44.4444404" lon="9.8703315"><ele>1064.0</ele><time>2026-04-26T13:42:32.809Z</time></trkpt><trkpt lat="44.4443946" lon="9.8704343"><ele>1065.0</ele><time>2026-04-26T13:42:33.81Z</time></trkpt><trkpt lat="44.4443425" lon="9.8705268"><ele>1066.0</ele><time>2026-04-26T13:42:34.809Z</time></trkpt><trkpt lat="44.4443136" lon="9.8706089"><ele>1067.0</ele><time>2026-04-26T13:42:35.809Z</time></trkpt><trkpt lat="44.4442919" lon="9.8707219"><ele>1068.0</ele><time>2026-04-26T13:42:37.809Z</time></trkpt><trkpt lat="44.4443719" lon="9.8707111"><ele>1069.0</ele><time>2026-04-26T13:42:42.809Z</time></trkpt><trkpt lat="44.4444873" lon="9.8706995"><ele>1069.0</ele><time>2026-04-26T13:42:44.809Z</time></trkpt><trkpt lat="44.4445643" lon="9.8707741"><ele>1069.0</ele><time>2026-04-26T13:42:45.809Z</time></trkpt><trkpt lat="44.4446454" lon="9.8708414"><ele>1069.0</ele><time>2026-04-26T13:42:47.809Z</time></trkpt><trkpt lat="44.4446978" lon="9.8709144"><ele>1069.0</ele><time>2026-04-26T13:42:48.808Z</time></trkpt><trkpt lat="44.4447397" lon="9.8710132"><ele>1069.0</ele><time>2026-04-26T13:42:49.808Z</time></trkpt><trkpt lat="44.444813" lon="9.87111"><ele>1069.0</ele><time>2026-04-26T13:42:50.81Z</time></trkpt><trkpt lat="44.4448642" lon="9.8711848"><ele>1074.0</ele><time>2026-04-26T13:42:51.809Z</time></trkpt><trkpt lat="44.4449177" lon="9.871257"><ele>1079.0</ele><time>2026-04-26T13:42:52.809Z</time></trkpt><trkpt lat="44.4450152" lon="9.8713077"><ele>1084.0</ele><time>2026-04-26T13:42:53.809Z</time></trkpt><trkpt lat="44.4450875" lon="9.8713433"><ele>1089.0</ele><time>2026-04-26T13:42:54.809Z</time></trkpt><trkpt lat="44.4452164" lon="9.8713421"><ele>1094.0</ele><time>2026-04-26T13:42:56.808Z</time></trkpt><trkpt lat="44.4452788" lon="9.8712894"><ele>1094.0</ele><time>2026-04-26T13:42:57.809Z</time></trkpt><trkpt lat="44.4453752" lon="9.8712303"><ele>1094.0</ele><time>2026-04-26T13:42:58.808Z</time></trkpt><trkpt lat="44.4454365" lon="9.8711516"><ele>1094.0</ele><time>2026-04-26T13:42:59.808Z</time></trkpt><trkpt lat="44.4454967" lon="9.8710981"><ele>1094.0</ele><time>2026-04-26T13:43:00.808Z</time></trkpt><trkpt lat="44.4455954" lon="9.8709969"><ele>1094.0</ele><time>2026-04-26T13:43:02.81Z</time></trkpt><trkpt lat="44.4456694" lon="9.870993"><ele>1095.6666666666667</ele><time>2026-04-26T13:43:04.808Z</time></trkpt><trkpt lat="44.4457734" lon="9.8710307"><ele>1097.3333333333335</ele><time>2026-04-26T13:43:06.808Z</time></trkpt><trkpt lat="44.4458451" lon="9.871035"><ele>1099.0</ele><time>2026-04-26T13:43:07.81Z</time></trkpt><trkpt lat="44.4459084" lon="9.871055"><ele>1100.6666666666667</ele><time>2026-04-26T13:43:08.808Z</time></trkpt><trkpt lat="44.4459915" lon="9.8710807"><ele>1102.3333333333333</ele><time>2026-04-26T13:43:09.808Z</time></trkpt><trkpt lat="44.4460901" lon="9.8711092"><ele>1104.0</ele><time>2026-04-26T13:43:10.809Z</time></trkpt><trkpt lat="44.4461829" lon="9.8711322"><ele>1104.0</ele><time>2026-04-26T13:43:11.809Z</time></trkpt><trkpt lat="44.4462483" lon="9.8711061"><ele>1104.0</ele><time>2026-04-26T13:43:12.808Z</time></trkpt><trkpt lat="44.4463142" lon="9.8711005"><ele>1104.0</ele><time>2026-04-26T13:43:13.809Z</time></trkpt><trkpt lat="44.446443" lon="9.8710834"><ele>1104.0</ele><time>2026-04-26T13:43:14.809Z</time></trkpt><trkpt lat="44.4465291" lon="9.8711116"><ele>1104.0</ele><time>2026-04-26T13:43:15.808Z</time></trkpt><trkpt lat="44.4466408" lon="9.8711083"><ele>1105.0</ele><time>2026-04-26T13:43:17.808Z</time></trkpt><trkpt lat="44.4467573" lon="9.8711375"><ele>1106.0</ele><time>2026-04-26T13:43:19.809Z</time></trkpt><trkpt lat="44.4468489" lon="9.8712162"><ele>1107.0</ele><time>2026-04-26T13:43:21.808Z</time></trkpt><trkpt lat="44.446936" lon="9.8713266"><ele>1108.0</ele><time>2026-04-26T13:43:23.809Z</time></trkpt><trkpt lat="44.4470064" lon="9.8713679"><ele>1109.0</ele><time>2026-04-26T13:43:24.808Z</time></trkpt><trkpt lat="44.4470721" lon="9.8714246"><ele>1109.0</ele><time>2026-04-26T13:43:25.808Z</time></trkpt><trkpt lat="44.447151" lon="9.8714833"><ele>1109.0</ele><time>2026-04-26T13:43:26.809Z</time></trkpt><trkpt lat="44.4472416" lon="9.8715566"><ele>1109.0</ele><time>2026-04-26T13:43:27.808Z</time></trkpt><trkpt lat="44.4473322" lon="9.8716166"><ele>1109.0</ele><time>2026-04-26T13:43:28.808Z</time></trkpt><trkpt lat="44.4474163" lon="9.8716604"><ele>1109.0</ele><time>2026-04-26T13:43:29.809Z</time></trkpt><trkpt lat="44.4474866" lon="9.8717011"><ele>1109.0</ele><time>2026-04-26T13:43:30.81Z</time></trkpt><trkpt lat="44.4475595" lon="9.8717587"><ele>1109.0</ele><time>2026-04-26T13:43:31.808Z</time></trkpt><trkpt lat="44.447611" lon="9.8718539"><ele>1109.0</ele><time>2026-04-26T13:43:33.808Z</time></trkpt><trkpt lat="44.4476267" lon="9.8719871"><ele>1109.0</ele><time>2026-04-26T13:43:35.808Z</time></trkpt><trkpt lat="44.4476091" lon="9.8720806"><ele>1109.0</ele><time>2026-04-26T13:43:36.809Z</time></trkpt><trkpt lat="44.4475213" lon="9.8720901"><ele>1109.0</ele><time>2026-04-26T13:43:37.809Z</time></trkpt><trkpt lat="44.4474204" lon="9.8721805"><ele>1110.5</ele><time>2026-04-26T13:43:38.808Z</time></trkpt><trkpt lat="44.4473634" lon="9.8722675"><ele>1112.0</ele><time>2026-04-26T13:43:39.809Z</time></trkpt><trkpt lat="44.4473079" lon="9.8723421"><ele>1113.5</ele><time>2026-04-26T13:43:40.808Z</time></trkpt><trkpt lat="44.4472632" lon="9.8724278"><ele>1115.0</ele><time>2026-04-26T13:43:41.808Z</time></trkpt><trkpt lat="44.4472187" lon="9.8725078"><ele>1116.5</ele><time>2026-04-26T13:43:42.808Z</time></trkpt><trkpt lat="44.4471746" lon="9.8726354"><ele>1118.0</ele><time>2026-04-26T13:43:43.808Z</time></trkpt><trkpt lat="44.4471376" lon="9.8727738"><ele>1119.8</ele><time>2026-04-26T13:43:44.808Z</time></trkpt><trkpt lat="44.4470957" lon="9.8728848"><ele>1121.6</ele><time>2026-04-26T13:43:45.808Z</time></trkpt><trkpt lat="44.447035" lon="9.8730147"><ele>1123.4</ele><time>2026-04-26T13:43:46.808Z</time></trkpt><trkpt lat="44.4469898" lon="9.8731389"><ele>1125.2</ele><time>2026-04-26T13:43:47.808Z</time></trkpt><trkpt lat="44.4469491" lon="9.8732517"><ele>1127.0</ele><time>2026-04-26T13:43:48.808Z</time></trkpt><trkpt lat="44.4469108" lon="9.8733651"><ele>1129.8</ele><time>2026-04-26T13:43:50.808Z</time></trkpt><trkpt lat="44.4469488" lon="9.8734514"><ele>1132.6</ele><time>2026-04-26T13:43:53.808Z</time></trkpt><trkpt lat="44.4470222" lon="9.873478"><ele>1135.3999999999999</ele><time>2026-04-26T13:43:55.809Z</time></trkpt><trkpt lat="44.447099" lon="9.8735496"><ele>1138.2</ele><time>2026-04-26T13:43:56.81Z</time></trkpt><trkpt lat="44.4471961" lon="9.8736388"><ele>1141.0</ele><time>2026-04-26T13:43:58.808Z</time></trkpt><trkpt lat="44.4472986" lon="9.8737679"><ele>1141.6</ele><time>2026-04-26T13:44:00.808Z</time></trkpt><trkpt lat="44.4473609" lon="9.8738122"><ele>1142.1999999999998</ele><time>2026-04-26T13:44:01.808Z</time></trkpt><trkpt lat="44.4474313" lon="9.8738623"><ele>1142.8000000000002</ele><time>2026-04-26T13:44:02.808Z</time></trkpt><trkpt lat="44.4475059" lon="9.8739334"><ele>1143.4</ele><time>2026-04-26T13:44:03.808Z</time></trkpt><trkpt lat="44.4476013" lon="9.8740583"><ele>1144.0</ele><time>2026-04-26T13:44:04.808Z</time></trkpt><trkpt lat="44.4476855" lon="9.8741482"><ele>1144.0</ele><time>2026-04-26T13:44:05.808Z</time></trkpt><trkpt lat="44.4477916" lon="9.8742213"><ele>1144.0</ele><time>2026-04-26T13:44:07.808Z</time></trkpt><trkpt lat="44.4478569" lon="9.8743217"><ele>1144.0</ele><time>2026-04-26T13:44:09.808Z</time></trkpt><trkpt lat="44.4479114" lon="9.8744531"><ele>1144.0</ele><time>2026-04-26T13:44:11.808Z</time></trkpt><trkpt lat="44.4479387" lon="9.8745703"><ele>1144.0</ele><time>2026-04-26T13:44:12.808Z</time></trkpt><trkpt lat="44.4480021" lon="9.8746876"><ele>1145.5714285714284</ele><time>2026-04-26T13:44:13.808Z</time></trkpt><trkpt lat="44.4480477" lon="9.8747596"><ele>1147.142857142857</ele><time>2026-04-26T13:44:14.808Z</time></trkpt><trkpt lat="44.4481113" lon="9.8748177"><ele>1148.7142857142858</ele><time>2026-04-26T13:44:15.808Z</time></trkpt><trkpt lat="44.4481676" lon="9.8749035"><ele>1150.2857142857142</ele><time>2026-04-26T13:44:16.808Z</time></trkpt><trkpt lat="44.4482083" lon="9.8749748"><ele>1151.857142857143</ele><time>2026-04-26T13:44:17.808Z</time></trkpt><trkpt lat="44.4482534" lon="9.8750419"><ele>1153.4285714285713</ele><time>2026-04-26T13:44:18.808Z</time></trkpt><trkpt lat="44.4483042" lon="9.8751192"><ele>1155.0</ele><time>2026-04-26T13:44:19.808Z</time></trkpt><trkpt lat="44.4483598" lon="9.8751991"><ele>1157.8333333333333</ele><time>2026-04-26T13:44:20.809Z</time></trkpt><trkpt lat="44.448403" lon="9.875295"><ele>1160.6666666666667</ele><time>2026-04-26T13:44:21.808Z</time></trkpt><trkpt lat="44.4484561" lon="9.8753699"><ele>1163.5</ele><time>2026-04-26T13:44:22.809Z</time></trkpt><trkpt lat="44.4485283" lon="9.8754625"><ele>1166.3333333333335</ele><time>2026-04-26T13:44:23.808Z</time></trkpt><trkpt lat="44.4485743" lon="9.8755315"><ele>1169.1666666666667</ele><time>2026-04-26T13:44:24.809Z</time></trkpt><trkpt lat="44.4486529" lon="9.8756427"><ele>1172.0</ele><time>2026-04-26T13:44:25.808Z</time></trkpt><trkpt lat="44.4487211" lon="9.875724"><ele>1171.8</ele><time>2026-04-26T13:44:26.808Z</time></trkpt><trkpt lat="44.4487959" lon="9.8758021"><ele>1171.6</ele><time>2026-04-26T13:44:27.808Z</time></trkpt><trkpt lat="44.448869" lon="9.8758714"><ele>1171.3999999999999</ele><time>2026-04-26T13:44:28.808Z</time></trkpt><trkpt lat="44.4489855" lon="9.8759172"><ele>1171.2</ele><time>2026-04-26T13:44:30.809Z</time></trkpt><trkpt lat="44.4490531" lon="9.8759668"><ele>1171.0</ele><time>2026-04-26T13:44:31.808Z</time></trkpt><trkpt lat="44.4491226" lon="9.8760093"><ele>1173.3999999999999</ele><time>2026-04-26T13:44:32.808Z</time></trkpt><trkpt lat="44.4492386" lon="9.8760939"><ele>1175.8</ele><time>2026-04-26T13:44:34.808Z</time></trkpt><trkpt lat="44.4493218" lon="9.8762376"><ele>1178.1999999999998</ele><time>2026-04-26T13:44:36.809Z</time></trkpt><trkpt lat="44.4493589" lon="9.8763274"><ele>1180.6</ele><time>2026-04-26T13:44:37.809Z</time></trkpt><trkpt lat="44.4494174" lon="9.8764188"><ele>1183.0</ele><time>2026-04-26T13:44:38.808Z</time></trkpt><trkpt lat="44.4494468" lon="9.8765606"><ele>1183.0</ele><time>2026-04-26T13:44:40.809Z</time></trkpt><trkpt lat="44.4494373" lon="9.8766506"><ele>1183.0</ele><time>2026-04-26T13:44:42.808Z</time></trkpt><trkpt lat="44.4493554" lon="9.8766761"><ele>1183.0</ele><time>2026-04-26T13:44:43.808Z</time></trkpt><trkpt lat="44.4493176" lon="9.8768008"><ele>1183.0</ele><time>2026-04-26T13:44:45.808Z</time></trkpt><trkpt lat="44.4492866" lon="9.8768832"><ele>1183.0</ele><time>2026-04-26T13:44:47.809Z</time></trkpt><trkpt lat="44.4493201" lon="9.876979"><ele>1183.0</ele><time>2026-04-26T13:44:53.808Z</time></trkpt><trkpt lat="44.4493986" lon="9.8771601"><ele>1184.2</ele><time>2026-04-26T13:44:56.808Z</time></trkpt><trkpt lat="44.4494321" lon="9.8772394"><ele>1185.4</ele><time>2026-04-26T13:44:57.808Z</time></trkpt><trkpt lat="44.4494681" lon="9.8773135"><ele>1186.6000000000001</ele><time>2026-04-26T13:44:58.808Z</time></trkpt><trkpt lat="44.4495351" lon="9.8774713"><ele>1187.8</ele><time>2026-04-26T13:45:00.809Z</time></trkpt><trkpt lat="44.4496149" lon="9.8775844"><ele>1189.0</ele><time>2026-04-26T13:45:02.808Z</time></trkpt><trkpt lat="44.4497196" lon="9.8776827"><ele>1189.3333333333333</ele><time>2026-04-26T13:45:04.808Z</time></trkpt><trkpt lat="44.449778" lon="9.8777273"><ele>1189.6666666666665</ele><time>2026-04-26T13:45:05.808Z</time></trkpt><trkpt lat="44.4498525" lon="9.877797"><ele>1190.0</ele><time>2026-04-26T13:45:06.809Z</time></trkpt><trkpt lat="44.449919" lon="9.8778104"><ele>1190.3333333333333</ele><time>2026-04-26T13:45:08.808Z</time></trkpt><trkpt lat="44.4499968" lon="9.87781"><ele>1190.6666666666667</ele><time>2026-04-26T13:45:11.809Z</time></trkpt><trkpt lat="44.4500647" lon="9.8777715"><ele>1191.0</ele><time>2026-04-26T14:06:47.802Z</time></trkpt><trkpt lat="44.450155" lon="9.8777554"><ele>1191.0</ele><time>2026-04-26T14:06:50.803Z</time></trkpt><trkpt lat="44.4502268" lon="9.8777478"><ele>1191.0</ele><time>2026-04-26T14:06:52.803Z</time></trkpt><trkpt lat="44.4503103" lon="9.8777883"><ele>1191.0</ele><time>2026-04-26T14:06:54.803Z</time></trkpt><trkpt lat="44.4504152" lon="9.8778589"><ele>1191.0</ele><time>2026-04-26T14:06:56.803Z</time></trkpt><trkpt lat="44.4505251" lon="9.8779405"><ele>1191.0</ele><time>2026-04-26T14:06:58.803Z</time></trkpt><trkpt lat="44.4505844" lon="9.8779823"><ele>1194.3999999999999</ele><time>2026-04-26T14:06:59.802Z</time></trkpt><trkpt lat="44.4506596" lon="9.8780624"><ele>1197.8</ele><time>2026-04-26T14:07:00.802Z</time></trkpt><trkpt lat="44.4507276" lon="9.8780895"><ele>1201.1999999999998</ele><time>2026-04-26T14:07:01.803Z</time></trkpt><trkpt lat="44.4507874" lon="9.8781383"><ele>1204.6</ele><time>2026-04-26T14:07:02.802Z</time></trkpt><trkpt lat="44.4508812" lon="9.8781893"><ele>1208.0</ele><time>2026-04-26T14:07:04.802Z</time></trkpt><trkpt lat="44.4509744" lon="9.8783033"><ele>1208.0</ele><time>2026-04-26T14:07:06.803Z</time></trkpt><trkpt lat="44.451026" lon="9.8783724"><ele>1208.0</ele><time>2026-04-26T14:07:07.802Z</time></trkpt><trkpt lat="44.4510952" lon="9.8784474"><ele>1208.0</ele><time>2026-04-26T14:07:08.802Z</time></trkpt><trkpt lat="44.4511874" lon="9.8785172"><ele>1208.0</ele><time>2026-04-26T14:07:09.802Z</time></trkpt><trkpt lat="44.4512619" lon="9.8785866"><ele>1208.0</ele><time>2026-04-26T14:07:10.803Z</time></trkpt><trkpt lat="44.4513212" lon="9.8786548"><ele>1208.0</ele><time>2026-04-26T14:07:11.802Z</time></trkpt><trkpt lat="44.4513773" lon="9.8787288"><ele>1209.6666666666667</ele><time>2026-04-26T14:07:12.802Z</time></trkpt><trkpt lat="44.451435" lon="9.8788033"><ele>1211.3333333333335</ele><time>2026-04-26T14:07:13.802Z</time></trkpt><trkpt lat="44.4514857" lon="9.8788926"><ele>1213.0</ele><time>2026-04-26T14:07:14.802Z</time></trkpt><trkpt lat="44.4515487" lon="9.8789808"><ele>1214.6666666666667</ele><time>2026-04-26T14:07:15.802Z</time></trkpt><trkpt lat="44.4516062" lon="9.8790442"><ele>1216.3333333333333</ele><time>2026-04-26T14:07:16.802Z</time></trkpt><trkpt lat="44.4516662" lon="9.8791397"><ele>1218.0</ele><time>2026-04-26T14:07:17.802Z</time></trkpt><trkpt lat="44.4517154" lon="9.8792144"><ele>1216.0</ele><time>2026-04-26T14:07:18.803Z</time></trkpt><trkpt lat="44.4517795" lon="9.8792879"><ele>1214.0</ele><time>2026-04-26T14:07:19.803Z</time></trkpt><trkpt lat="44.45185" lon="9.8793619"><ele>1212.0</ele><time>2026-04-26T14:07:20.803Z</time></trkpt><trkpt lat="44.451905" lon="9.8794092"><ele>1210.0</ele><time>2026-04-26T14:07:21.803Z</time></trkpt><trkpt lat="44.4519591" lon="9.8795038"><ele>1208.0</ele><time>2026-04-26T14:07:23.802Z</time></trkpt><trkpt lat="44.4520263" lon="9.879591"><ele>1206.0</ele><time>2026-04-26T14:07:24.802Z</time></trkpt><trkpt lat="44.4520917" lon="9.8796779"><ele>1210.5</ele><time>2026-04-26T14:07:25.803Z</time></trkpt><trkpt lat="44.4521559" lon="9.8797982"><ele>1215.0</ele><time>2026-04-26T14:07:26.803Z</time></trkpt><trkpt lat="44.4522325" lon="9.8799447"><ele>1219.5</ele><time>2026-04-26T14:07:27.803Z</time></trkpt><trkpt lat="44.4523006" lon="9.8800802"><ele>1224.0</ele><time>2026-04-26T14:07:28.802Z</time></trkpt><trkpt lat="44.4523298" lon="9.8802063"><ele>1224.0</ele><time>2026-04-26T14:07:29.803Z</time></trkpt><trkpt lat="44.4523664" lon="9.8803123"><ele>1224.0</ele><time>2026-04-26T14:07:31.802Z</time></trkpt><trkpt lat="44.4524303" lon="9.8804418"><ele>1224.0</ele><time>2026-04-26T14:07:33.803Z</time></trkpt><trkpt lat="44.452477" lon="9.8805136"><ele>1224.0</ele><time>2026-04-26T14:07:34.802Z</time></trkpt><trkpt lat="44.4525175" lon="9.8805964"><ele>1224.0</ele><time>2026-04-26T14:07:35.802Z</time></trkpt><trkpt lat="44.4525497" lon="9.8806762"><ele>1224.0</ele><time>2026-04-26T14:07:36.802Z</time></trkpt><trkpt lat="44.4526196" lon="9.8808254"><ele>1224.0</ele><time>2026-04-26T14:07:38.803Z</time></trkpt><trkpt lat="44.4526934" lon="9.8809063"><ele>1224.0</ele><time>2026-04-26T14:07:40.802Z</time></trkpt><trkpt lat="44.4527957" lon="9.8809547"><ele>1224.0</ele><time>2026-04-26T14:07:42.802Z</time></trkpt><trkpt lat="44.4528867" lon="9.8809876"><ele>1224.0</ele><time>2026-04-26T14:07:43.803Z</time></trkpt><trkpt lat="44.4529581" lon="9.8809959"><ele>1224.0</ele><time>2026-04-26T14:07:44.803Z</time></trkpt><trkpt lat="44.4530231" lon="9.8809971"><ele>1224.0</ele><time>2026-04-26T14:07:45.803Z</time></trkpt><trkpt lat="44.4531089" lon="9.8810115"><ele>1225.4</ele><time>2026-04-26T14:07:46.803Z</time></trkpt><trkpt lat="44.4532356" lon="9.8810591"><ele>1226.8000000000002</ele><time>2026-04-26T14:07:48.802Z</time></trkpt><trkpt lat="44.4532963" lon="9.8811186"><ele>1228.1999999999998</ele><time>2026-04-26T14:07:49.802Z</time></trkpt><trkpt lat="44.453364" lon="9.8811641"><ele>1229.6</ele><time>2026-04-26T14:07:50.802Z</time></trkpt><trkpt lat="44.4534237" lon="9.8811983"><ele>1231.0</ele><time>2026-04-26T14:07:51.802Z</time></trkpt><trkpt lat="44.4535272" lon="9.8812418"><ele>1231.0</ele><time>2026-04-26T14:07:53.802Z</time></trkpt><trkpt lat="44.4536169" lon="9.881259"><ele>1231.0</ele><time>2026-04-26T14:07:55.802Z</time></trkpt><trkpt lat="44.4537064" lon="9.8812442"><ele>1231.0</ele><time>2026-04-26T14:07:57.802Z</time></trkpt><trkpt lat="44.4536873" lon="9.8811403"><ele>1231.0</ele><time>2026-04-26T14:08:05.802Z</time></trkpt><trkpt lat="44.4536575" lon="9.8810241"><ele>1231.0</ele><time>2026-04-26T14:08:07.802Z</time></trkpt><trkpt lat="44.4536146" lon="9.8809459"><ele>1231.0</ele><time>2026-04-26T14:08:08.802Z</time></trkpt><trkpt lat="44.4535527" lon="9.8808334"><ele>1234.2</ele><time>2026-04-26T14:08:10.803Z</time></trkpt><trkpt lat="44.4535205" lon="9.8807194"><ele>1237.3999999999999</ele><time>2026-04-26T14:08:12.802Z</time></trkpt><trkpt lat="44.4534813" lon="9.8805748"><ele>1240.6</ele><time>2026-04-26T14:08:14.802Z</time></trkpt><trkpt lat="44.4534595" lon="9.8804193"><ele>1243.8</ele><time>2026-04-26T14:08:16.802Z</time></trkpt><trkpt lat="44.4534449" lon="9.8802843"><ele>1247.0</ele><time>2026-04-26T14:08:18.802Z</time></trkpt><trkpt lat="44.4534328" lon="9.8801605"><ele>1248.5</ele><time>2026-04-26T14:08:20.803Z</time></trkpt><trkpt lat="44.4534324" lon="9.8799968"><ele>1250.0</ele><time>2026-04-26T14:08:22.803Z</time></trkpt><trkpt lat="44.453429" lon="9.8798751"><ele>1251.5</ele><time>2026-04-26T14:08:24.803Z</time></trkpt><trkpt lat="44.4534433" lon="9.8797342"><ele>1253.0</ele><time>2026-04-26T14:08:26.802Z</time></trkpt><trkpt lat="44.4534486" lon="9.8796342"><ele>1254.5</ele><time>2026-04-26T14:08:30.803Z</time></trkpt><trkpt lat="44.4534647" lon="9.8795447"><ele>1256.0</ele><time>2026-04-26T14:09:35.801Z</time></trkpt><trkpt lat="44.4535317" lon="9.8795086"><ele>1256.0</ele><time>2026-04-26T14:09:38.802Z</time></trkpt><trkpt lat="44.4536124" lon="9.8795465"><ele>1256.0</ele><time>2026-04-26T14:09:40.801Z</time></trkpt><trkpt lat="44.4537263" lon="9.8797435"><ele>1256.0</ele><time>2026-04-26T14:09:42.802Z</time></trkpt><trkpt lat="44.4537604" lon="9.8798951"><ele>1256.0</ele><time>2026-04-26T14:09:44.801Z</time></trkpt><trkpt lat="44.4538166" lon="9.8800482"><ele>1257.8</ele><time>2026-04-26T14:09:46.801Z</time></trkpt><trkpt lat="44.4539019" lon="9.8801484"><ele>1259.6</ele><time>2026-04-26T14:09:48.801Z</time></trkpt><trkpt lat="44.4539976" lon="9.8802452"><ele>1261.4</ele><time>2026-04-26T14:09:50.801Z</time></trkpt><trkpt lat="44.4541389" lon="9.880279"><ele>1263.2</ele><time>2026-04-26T14:09:52.801Z</time></trkpt><trkpt lat="44.4542066" lon="9.8802982"><ele>1265.0</ele><time>2026-04-26T14:09:53.801Z</time></trkpt><trkpt lat="44.4543088" lon="9.8803622"><ele>1265.0</ele><time>2026-04-26T14:09:54.801Z</time></trkpt><trkpt lat="44.4544069" lon="9.8804281"><ele>1265.0</ele><time>2026-04-26T14:09:55.802Z</time></trkpt><trkpt lat="44.4545063" lon="9.8804854"><ele>1265.0</ele><time>2026-04-26T14:09:56.803Z</time></trkpt><trkpt lat="44.4545731" lon="9.8805503"><ele>1265.0</ele><time>2026-04-26T14:09:57.801Z</time></trkpt><trkpt lat="44.4546401" lon="9.8805894"><ele>1265.0</ele><time>2026-04-26T14:09:58.801Z</time></trkpt><trkpt lat="44.4547011" lon="9.8806271"><ele>1265.0</ele><time>2026-04-26T14:09:59.801Z</time></trkpt><trkpt lat="44.4547921" lon="9.8806764"><ele>1267.6666666666667</ele><time>2026-04-26T14:10:01.801Z</time></trkpt><trkpt lat="44.4549166" lon="9.8806745"><ele>1270.3333333333335</ele><time>2026-04-26T14:10:03.801Z</time></trkpt><trkpt lat="44.4549821" lon="9.8806886"><ele>1273.0</ele><time>2026-04-26T14:10:04.802Z</time></trkpt><trkpt lat="44.4550516" lon="9.8806784"><ele>1275.6666666666667</ele><time>2026-04-26T14:10:05.802Z</time></trkpt><trkpt lat="44.4551345" lon="9.8806719"><ele>1278.3333333333333</ele><time>2026-04-26T14:10:06.802Z</time></trkpt><trkpt lat="44.4552249" lon="9.8806614"><ele>1281.0</ele><time>2026-04-26T14:10:07.801Z</time></trkpt><trkpt lat="44.4553094" lon="9.8806458"><ele>1281.0</ele><time>2026-04-26T14:10:08.801Z</time></trkpt><trkpt lat="44.4553694" lon="9.8806148"><ele>1281.0</ele><time>2026-04-26T14:10:09.802Z</time></trkpt><trkpt lat="44.4554345" lon="9.880593"><ele>1281.0</ele><time>2026-04-26T14:10:10.801Z</time></trkpt><trkpt lat="44.4555034" lon="9.8806043"><ele>1281.0</ele><time>2026-04-26T14:10:11.801Z</time></trkpt><trkpt lat="44.4555756" lon="9.8805929"><ele>1281.0</ele><time>2026-04-26T14:10:12.801Z</time></trkpt><trkpt lat="44.4556756" lon="9.8805499"><ele>1281.0</ele><time>2026-04-26T14:10:13.801Z</time></trkpt><trkpt lat="44.4557445" lon="9.8805468"><ele>1281.0</ele><time>2026-04-26T14:10:14.801Z</time></trkpt><trkpt lat="44.4558192" lon="9.8805034"><ele>1280.6666666666667</ele><time>2026-04-26T14:10:15.801Z</time></trkpt><trkpt lat="44.4558968" lon="9.8805143"><ele>1280.3333333333333</ele><time>2026-04-26T14:10:16.802Z</time></trkpt><trkpt lat="44.4559781" lon="9.8804758"><ele>1280.0</ele><time>2026-04-26T14:10:17.802Z</time></trkpt><trkpt lat="44.4560728" lon="9.8804583"><ele>1279.6666666666665</ele><time>2026-04-26T14:10:18.801Z</time></trkpt><trkpt lat="44.4561501" lon="9.8804256"><ele>1279.3333333333333</ele><time>2026-04-26T14:10:19.801Z</time></trkpt><trkpt lat="44.4562324" lon="9.880402"><ele>1279.0</ele><time>2026-04-26T14:10:20.801Z</time></trkpt><trkpt lat="44.4562999" lon="9.8803529"><ele>1277.3333333333333</ele><time>2026-04-26T14:10:21.801Z</time></trkpt><trkpt lat="44.4563846" lon="9.8803565"><ele>1275.6666666666665</ele><time>2026-04-26T14:10:22.801Z</time></trkpt><trkpt lat="44.456463" lon="9.8803041"><ele>1274.0</ele><time>2026-04-26T14:10:23.801Z</time></trkpt><trkpt lat="44.4565462" lon="9.8802903"><ele>1272.3333333333333</ele><time>2026-04-26T14:10:24.801Z</time></trkpt><trkpt lat="44.4566286" lon="9.8802353"><ele>1270.6666666666667</ele><time>2026-04-26T14:10:25.801Z</time></trkpt><trkpt lat="44.4566982" lon="9.8801997"><ele>1269.0</ele><time>2026-04-26T14:10:26.801Z</time></trkpt><trkpt lat="44.4567926" lon="9.8801594"><ele>1269.0</ele><time>2026-04-26T14:10:27.801Z</time></trkpt><trkpt lat="44.4568578" lon="9.8801298"><ele>1269.0</ele><time>2026-04-26T14:10:28.801Z</time></trkpt><trkpt lat="44.4569626" lon="9.8800871"><ele>1269.0</ele><time>2026-04-26T14:10:29.801Z</time></trkpt><trkpt lat="44.4570266" lon="9.8800411"><ele>1269.0</ele><time>2026-04-26T14:10:30.801Z</time></trkpt><trkpt lat="44.4570858" lon="9.8799388"><ele>1269.0</ele><time>2026-04-26T14:10:32.801Z</time></trkpt><trkpt lat="44.4571714" lon="9.8798263"><ele>1270.8</ele><time>2026-04-26T14:10:34.802Z</time></trkpt><trkpt lat="44.4572293" lon="9.8797204"><ele>1272.6000000000001</ele><time>2026-04-26T14:10:36.801Z</time></trkpt><trkpt lat="44.4573002" lon="9.8795897"><ele>1274.4</ele><time>2026-04-26T14:11:14.801Z</time></trkpt><trkpt lat="44.4573454" lon="9.8795175"><ele>1276.2</ele><time>2026-04-26T14:11:16.801Z</time></trkpt><trkpt lat="44.4573947" lon="9.8794111"><ele>1278.0</ele><time>2026-04-26T14:11:17.801Z</time></trkpt><trkpt lat="44.4574672" lon="9.8793124"><ele>1281.4</ele><time>2026-04-26T14:11:19.802Z</time></trkpt><trkpt lat="44.4576008" lon="9.8791028"><ele>1284.8</ele><time>2026-04-26T14:11:25.801Z</time></trkpt><trkpt lat="44.4576574" lon="9.8790196"><ele>1288.2</ele><time>2026-04-26T14:11:28.801Z</time></trkpt><trkpt lat="44.4576988" lon="9.8789494"><ele>1291.6</ele><time>2026-04-26T14:11:30.802Z</time></trkpt><trkpt lat="44.457743" lon="9.8788721"><ele>1295.0</ele><time>2026-04-26T14:11:32.801Z</time></trkpt><trkpt lat="44.4577917" lon="9.8787812"><ele>1295.0</ele><time>2026-04-26T14:11:34.801Z</time></trkpt><trkpt lat="44.4578356" lon="9.8786965"><ele>1295.0</ele><time>2026-04-26T14:11:35.801Z</time></trkpt><trkpt lat="44.4578844" lon="9.8786146"><ele>1295.0</ele><time>2026-04-26T14:11:37.801Z</time></trkpt><trkpt lat="44.4579284" lon="9.8785424"><ele>1295.0</ele><time>2026-04-26T14:11:39.801Z</time></trkpt><trkpt lat="44.4580233" lon="9.8784666"><ele>1295.0</ele><time>2026-04-26T14:11:41.801Z</time></trkpt><trkpt lat="44.4582251" lon="9.8784296"><ele>1292.8</ele><time>2026-04-26T14:11:46.801Z</time></trkpt><trkpt lat="44.4583184" lon="9.8784038"><ele>1290.6</ele><time>2026-04-26T14:11:48.802Z</time></trkpt><trkpt lat="44.4584081" lon="9.8783745"><ele>1288.4</ele><time>2026-04-26T14:11:50.801Z</time></trkpt><trkpt lat="44.4584877" lon="9.8783557"><ele>1286.2</ele><time>2026-04-26T14:11:52.801Z</time></trkpt><trkpt lat="44.4585695" lon="9.8783399"><ele>1284.0</ele><time>2026-04-26T14:11:55.801Z</time></trkpt><trkpt lat="44.4584546" lon="9.8783471"><ele>1284.0</ele><time>2026-04-26T14:13:15.801Z</time></trkpt><trkpt lat="44.4583907" lon="9.8783618"><ele>1284.0</ele><time>2026-04-26T14:13:16.801Z</time></trkpt><trkpt lat="44.4583192" lon="9.8783929"><ele>1284.0</ele><time>2026-04-26T14:13:17.801Z</time></trkpt><trkpt lat="44.4582545" lon="9.8784065"><ele>1284.0</ele><time>2026-04-26T14:13:18.801Z</time></trkpt><trkpt lat="44.4581337" lon="9.8784199"><ele>1284.0</ele><time>2026-04-26T14:13:20.801Z</time></trkpt><trkpt lat="44.458024" lon="9.8784597"><ele>1284.0</ele><time>2026-04-26T14:13:22.802Z</time></trkpt><trkpt lat="44.4579689" lon="9.8785276"><ele>1286.2</ele><time>2026-04-26T14:13:23.802Z</time></trkpt><trkpt lat="44.4579142" lon="9.8785851"><ele>1288.4</ele><time>2026-04-26T14:13:25.802Z</time></trkpt><trkpt lat="44.4578624" lon="9.8786927"><ele>1290.6</ele><time>2026-04-26T14:13:27.801Z</time></trkpt><trkpt lat="44.4578331" lon="9.878792"><ele>1292.8</ele><time>2026-04-26T14:13:28.801Z</time></trkpt><trkpt lat="44.4577523" lon="9.8789098"><ele>1295.0</ele><time>2026-04-26T14:13:30.801Z</time></trkpt><trkpt lat="44.4576424" lon="9.8790189"><ele>1295.0</ele><time>2026-04-26T14:13:32.802Z</time></trkpt><trkpt lat="44.4576107" lon="9.8791589"><ele>1295.0</ele><time>2026-04-26T14:13:34.801Z</time></trkpt><trkpt lat="44.4575555" lon="9.8792726"><ele>1295.0</ele><time>2026-04-26T14:13:36.801Z</time></trkpt><trkpt lat="44.4574847" lon="9.8793677"><ele>1295.0</ele><time>2026-04-26T14:13:37.801Z</time></trkpt><trkpt lat="44.4574362" lon="9.8794585"><ele>1295.0</ele><time>2026-04-26T14:13:38.801Z</time></trkpt><trkpt lat="44.4573936" lon="9.8795453"><ele>1296.1666666666667</ele><time>2026-04-26T14:13:39.801Z</time></trkpt><trkpt lat="44.4573231" lon="9.8796785"><ele>1297.3333333333335</ele><time>2026-04-26T14:13:41.802Z</time></trkpt><trkpt lat="44.4572554" lon="9.8796264"><ele>1298.5</ele><time>2026-04-26T14:17:20.801Z</time></trkpt><trkpt lat="44.4571839" lon="9.879597"><ele>1299.6666666666667</ele><time>2026-04-26T14:17:23.8Z</time></trkpt><trkpt lat="44.4571204" lon="9.8795809"><ele>1300.8333333333333</ele><time>2026-04-26T14:17:27.8Z</time></trkpt><trkpt lat="44.4570537" lon="9.8795676"><ele>1302.0</ele><time>2026-04-26T14:18:47.801Z</time></trkpt><trkpt lat="44.4569892" lon="9.8795911"><ele>1302.0</ele><time>2026-04-26T14:20:40.799Z</time></trkpt><trkpt lat="44.4569325" lon="9.8795487"><ele>1302.0</ele><time>2026-04-26T14:21:29.799Z</time></trkpt><trkpt lat="44.4568746" lon="9.8794516"><ele>1302.0</ele><time>2026-04-26T14:21:38.799Z</time></trkpt><trkpt lat="44.4568291" lon="9.8793697"><ele>1302.0</ele><time>2026-04-26T14:21:40.8Z</time></trkpt><trkpt lat="44.4567178" lon="9.8793655"><ele>1302.0</ele><time>2026-04-26T14:21:42.8Z</time></trkpt><trkpt lat="44.4566425" lon="9.8794079"><ele>1302.0</ele><time>2026-04-26T14:21:43.8Z</time></trkpt><trkpt lat="44.4565267" lon="9.8794264"><ele>1302.0</ele><time>2026-04-26T14:21:45.799Z</time></trkpt><trkpt lat="44.4564651" lon="9.8794455"><ele>1302.0</ele><time>2026-04-26T14:21:46.8Z</time></trkpt><trkpt lat="44.4563823" lon="9.8794471"><ele>1302.0</ele><time>2026-04-26T14:21:48.8Z</time></trkpt><trkpt lat="44.4562738" lon="9.8794816"><ele>1302.0</ele><time>2026-04-26T14:21:50.799Z</time></trkpt><trkpt lat="44.4561934" lon="9.8794996"><ele>1302.0</ele><time>2026-04-26T14:21:52.8Z</time></trkpt><trkpt lat="44.4560993" lon="9.8795147"><ele>1302.0</ele><time>2026-04-26T14:21:54.799Z</time></trkpt><trkpt lat="44.4559892" lon="9.8795185"><ele>1304.1999999999998</ele><time>2026-04-26T14:21:56.799Z</time></trkpt><trkpt lat="44.4558709" lon="9.8794955"><ele>1306.4</ele><time>2026-04-26T14:21:58.799Z</time></trkpt><trkpt lat="44.4557849" lon="9.879425"><ele>1308.6</ele><time>2026-04-26T14:22:00.8Z</time></trkpt><trkpt lat="44.4557176" lon="9.8793648"><ele>1310.8000000000002</ele><time>2026-04-26T14:22:02.799Z</time></trkpt><trkpt lat="44.4556789" lon="9.8792687"><ele>1313.0</ele><time>2026-04-26T14:23:02.8Z</time></trkpt><trkpt lat="44.4556654" lon="9.8791491"><ele>1316.6000000000001</ele><time>2026-04-26T14:23:21.8Z</time></trkpt><trkpt lat="44.4556618" lon="9.8790115"><ele>1320.2</ele><time>2026-04-26T14:39:36.796Z</time></trkpt><trkpt lat="44.4557038" lon="9.878943"><ele>1323.8</ele><time>2026-04-26T14:40:19.796Z</time></trkpt><trkpt lat="44.455714" lon="9.8788051"><ele>1327.4</ele><time>2026-04-26T14:40:22.796Z</time></trkpt><trkpt lat="44.4557298" lon="9.8786812"><ele>1331.0</ele><time>2026-04-26T14:40:24.797Z</time></trkpt><trkpt lat="44.455729" lon="9.878538"><ele>1334.1666666666667</ele><time>2026-04-26T14:40:26.796Z</time></trkpt><trkpt lat="44.4557198" lon="9.8784184"><ele>1337.3333333333335</ele><time>2026-04-26T14:40:28.797Z</time></trkpt><trkpt lat="44.4557116" lon="9.8782697"><ele>1340.5</ele><time>2026-04-26T14:40:30.796Z</time></trkpt><trkpt lat="44.4557202" lon="9.8781476"><ele>1343.6666666666667</ele><time>2026-04-26T14:40:32.797Z</time></trkpt><trkpt lat="44.4557362" lon="9.878044"><ele>1346.8333333333333</ele><time>2026-04-26T14:40:34.796Z</time></trkpt><trkpt lat="44.455779" lon="9.8779572"><ele>1350.0</ele><time>2026-04-26T14:40:37.796Z</time></trkpt><trkpt lat="44.4558247" lon="9.8778859"><ele>1350.0</ele><time>2026-04-26T14:40:39.797Z</time></trkpt><trkpt lat="44.4558895" lon="9.8777637"><ele>1350.0</ele><time>2026-04-26T14:40:41.796Z</time></trkpt><trkpt lat="44.4559471" lon="9.8776583"><ele>1350.0</ele><time>2026-04-26T14:40:43.796Z</time></trkpt><trkpt lat="44.4560064" lon="9.8775576"><ele>1350.0</ele><time>2026-04-26T14:40:45.796Z</time></trkpt><trkpt lat="44.4560534" lon="9.8774641"><ele>1350.0</ele><time>2026-04-26T14:40:47.796Z</time></trkpt><trkpt lat="44.4561053" lon="9.8773635"><ele>1350.5</ele><time>2026-04-26T14:40:49.797Z</time></trkpt><trkpt lat="44.4561426" lon="9.8772915"><ele>1351.0</ele><time>2026-04-26T14:40:51.796Z</time></trkpt><trkpt lat="44.456188" lon="9.8771814"><ele>1351.5</ele><time>2026-04-26T14:42:28.796Z</time></trkpt><trkpt lat="44.4562308" lon="9.8770381"><ele>1352.0</ele><time>2026-04-26T14:42:30.796Z</time></trkpt><trkpt lat="44.4562643" lon="9.8769422"><ele>1352.5</ele><time>2026-04-26T14:42:31.796Z</time></trkpt><trkpt lat="44.456305" lon="9.8768387"><ele>1353.0</ele><time>2026-04-26T14:42:32.796Z</time></trkpt><trkpt lat="44.456347" lon="9.8767357"><ele>1356.0</ele><time>2026-04-26T14:42:33.797Z</time></trkpt><trkpt lat="44.4563906" lon="9.876642"><ele>1359.0</ele><time>2026-04-26T14:42:34.796Z</time></trkpt><trkpt lat="44.4564333" lon="9.8765538"><ele>1362.0</ele><time>2026-04-26T14:42:35.796Z</time></trkpt><trkpt lat="44.4564744" lon="9.8764727"><ele>1365.0</ele><time>2026-04-26T14:42:36.797Z</time></trkpt><trkpt lat="44.4565451" lon="9.8763339"><ele>1368.0</ele><time>2026-04-26T14:42:38.796Z</time></trkpt><trkpt lat="44.4566118" lon="9.8762208"><ele>1368.0</ele><time>2026-04-26T14:42:40.796Z</time></trkpt><trkpt lat="44.456674" lon="9.8761154"><ele>1368.0</ele><time>2026-04-26T14:42:42.796Z</time></trkpt><trkpt lat="44.4567223" lon="9.8760083"><ele>1368.0</ele><time>2026-04-26T14:42:45.798Z</time></trkpt><trkpt lat="44.4567591" lon="9.8759029"><ele>1368.0</ele><time>2026-04-26T14:42:48.797Z</time></trkpt><trkpt lat="44.4567998" lon="9.8758091"><ele>1368.0</ele><time>2026-04-26T14:42:50.797Z</time></trkpt><trkpt lat="44.4568497" lon="9.8756853"><ele>1370.2</ele><time>2026-04-26T14:42:52.797Z</time></trkpt><trkpt lat="44.4568945" lon="9.8755276"><ele>1372.4</ele><time>2026-04-26T14:42:54.796Z</time></trkpt><trkpt lat="44.4569291" lon="9.8753566"><ele>1374.6000000000001</ele><time>2026-04-26T14:42:56.796Z</time></trkpt><trkpt lat="44.4569531" lon="9.8752193"><ele>1376.8000000000002</ele><time>2026-04-26T14:42:58.796Z</time></trkpt><trkpt lat="44.4569886" lon="9.8751162"><ele>1379.0</ele><time>2026-04-26T14:43:00.796Z</time></trkpt><trkpt lat="44.4569902" lon="9.8750191"><ele>1379.1666666666667</ele><time>2026-04-26T14:43:03.796Z</time></trkpt><trkpt lat="44.4569562" lon="9.8749434"><ele>1379.3333333333335</ele><time>2026-04-26T14:43:28.795Z</time></trkpt><trkpt lat="44.4569195" lon="9.8748293"><ele>1379.5</ele><time>2026-04-26T14:43:31.795Z</time></trkpt><trkpt lat="44.4569097" lon="9.8746904"><ele>1379.6666666666667</ele><time>2026-04-26T14:43:33.795Z</time></trkpt><trkpt lat="44.4569027" lon="9.8745674"><ele>1379.8333333333333</ele><time>2026-04-26T14:43:35.795Z</time></trkpt><trkpt lat="44.4569" lon="9.8744502"><ele>1380.0</ele><time>2026-04-26T14:43:37.795Z</time></trkpt><trkpt lat="44.4568904" lon="9.8743276"><ele>1381.0</ele><time>2026-04-26T14:43:39.795Z</time></trkpt><trkpt lat="44.4568915" lon="9.8742093"><ele>1382.0</ele><time>2026-04-26T14:43:41.795Z</time></trkpt><trkpt lat="44.4569185" lon="9.8741148"><ele>1383.0</ele><time>2026-04-26T14:43:43.795Z</time></trkpt><trkpt lat="44.4569745" lon="9.8740431"><ele>1384.0</ele><time>2026-04-26T14:43:46.795Z</time></trkpt><trkpt lat="44.4570366" lon="9.8740225"><ele>1385.0</ele><time>2026-04-26T14:43:49.795Z</time></trkpt><trkpt lat="44.4571165" lon="9.8740047"><ele>1386.0</ele><time>2026-04-26T14:43:54.795Z</time></trkpt><trkpt lat="44.4571949" lon="9.8739631"><ele>1386.0</ele><time>2026-04-26T14:43:58.796Z</time></trkpt><trkpt lat="44.4572624" lon="9.8739391"><ele>1386.0</ele><time>2026-04-26T14:44:02.796Z</time></trkpt><trkpt lat="44.4573596" lon="9.8738934"><ele>1386.0</ele><time>2026-04-26T14:44:06.795Z</time></trkpt><trkpt lat="44.4574479" lon="9.8738412"><ele>1386.0</ele><time>2026-04-26T14:44:08.796Z</time></trkpt><trkpt lat="44.4575123" lon="9.8738312"><ele>1386.0</ele><time>2026-04-26T14:44:09.796Z</time></trkpt><trkpt lat="44.4576047" lon="9.8737977"><ele>1386.0</ele><time>2026-04-26T14:44:11.795Z</time></trkpt><trkpt lat="44.4576668" lon="9.873772"><ele>1386.0</ele><time>2026-04-26T14:44:12.795Z</time></trkpt><trkpt lat="44.4577288" lon="9.8737321"><ele>1386.0</ele><time>2026-04-26T14:44:13.795Z</time></trkpt><trkpt lat="44.4577861" lon="9.8736824"><ele>1386.0</ele><time>2026-04-26T14:44:14.795Z</time></trkpt><trkpt lat="44.4578406" lon="9.8736251"><ele>1386.0</ele><time>2026-04-26T14:44:15.795Z</time></trkpt><trkpt lat="44.4578952" lon="9.8735683"><ele>1386.0</ele><time>2026-04-26T14:44:16.796Z</time></trkpt><trkpt lat="44.4579577" lon="9.8735253"><ele>1386.0</ele><time>2026-04-26T14:44:17.795Z</time></trkpt><trkpt lat="44.4580234" lon="9.8734843"><ele>1386.0</ele><time>2026-04-26T14:44:18.795Z</time></trkpt><trkpt lat="44.4580828" lon="9.8734367"><ele>1383.5</ele><time>2026-04-26T14:44:19.796Z</time></trkpt><trkpt lat="44.4581764" lon="9.8733442"><ele>1381.0</ele><time>2026-04-26T14:44:21.795Z</time></trkpt><trkpt lat="44.458248" lon="9.8732122"><ele>1378.5</ele><time>2026-04-26T14:44:23.795Z</time></trkpt><trkpt lat="44.4583348" lon="9.8731159"><ele>1376.0</ele><time>2026-04-26T14:44:25.796Z</time></trkpt><trkpt lat="44.4584344" lon="9.8730377"><ele>1376.0</ele><time>2026-04-26T14:44:27.795Z</time></trkpt><trkpt lat="44.4585116" lon="9.8729835"><ele>1376.0</ele><time>2026-04-26T14:44:29.795Z</time></trkpt><trkpt lat="44.4585832" lon="9.8729501"><ele>1376.0</ele><time>2026-04-26T14:44:31.795Z</time></trkpt><trkpt lat="44.4586744" lon="9.8729559"><ele>1376.0</ele><time>2026-04-26T14:44:34.796Z</time></trkpt><trkpt lat="44.4587402" lon="9.8729855"><ele>1376.0</ele><time>2026-04-26T14:44:36.796Z</time></trkpt><trkpt lat="44.4588123" lon="9.8730052"><ele>1376.0</ele><time>2026-04-26T14:44:38.795Z</time></trkpt><trkpt lat="44.4588753" lon="9.8729794"><ele>1376.0</ele><time>2026-04-26T14:44:55.796Z</time></trkpt><trkpt lat="44.4589585" lon="9.8729557"><ele>1376.0</ele><time>2026-04-26T14:44:57.796Z</time></trkpt><trkpt lat="44.4590396" lon="9.872902"><ele>1376.0</ele><time>2026-04-26T14:44:59.796Z</time></trkpt><trkpt lat="44.4591093" lon="9.8728428"><ele>1376.0</ele><time>2026-04-26T14:45:01.796Z</time></trkpt><trkpt lat="44.4591868" lon="9.8728067"><ele>1376.0</ele><time>2026-04-26T14:45:04.796Z</time></trkpt><trkpt lat="44.459249" lon="9.8727855"><ele>1376.0</ele><time>2026-04-26T14:45:06.796Z</time></trkpt><trkpt lat="44.4593283" lon="9.8727367"><ele>1376.0</ele><time>2026-04-26T14:45:08.795Z</time></trkpt><trkpt lat="44.4593892" lon="9.8726845"><ele>1376.0</ele><time>2026-04-26T14:45:09.795Z</time></trkpt><trkpt lat="44.4595074" lon="9.8726478"><ele>1376.0</ele><time>2026-04-26T14:45:11.795Z</time></trkpt><trkpt lat="44.4595796" lon="9.8726195"><ele>1376.0</ele><time>2026-04-26T14:45:14.796Z</time></trkpt><trkpt lat="44.4596685" lon="9.8725771"><ele>1376.0</ele><time>2026-04-26T14:45:17.795Z</time></trkpt><trkpt lat="44.459718" lon="9.8725149"><ele>1376.0</ele><time>2026-04-26T14:45:19.795Z</time></trkpt><trkpt lat="44.4597796" lon="9.8724654"><ele>1372.8</ele><time>2026-04-26T14:45:21.795Z</time></trkpt><trkpt lat="44.4598634" lon="9.8724085"><ele>1369.6</ele><time>2026-04-26T14:45:24.795Z</time></trkpt><trkpt lat="44.4599387" lon="9.8723616"><ele>1366.4</ele><time>2026-04-26T14:45:26.795Z</time></trkpt><trkpt lat="44.4600059" lon="9.8723148"><ele>1363.2</ele><time>2026-04-26T14:45:28.795Z</time></trkpt><trkpt lat="44.4600775" lon="9.8722371"><ele>1360.0</ele><time>2026-04-26T14:45:30.795Z</time></trkpt><trkpt lat="44.4602059" lon="9.8721784"><ele>1360.0</ele><time>2026-04-26T14:45:32.797Z</time></trkpt><trkpt lat="44.4603031" lon="9.8720988"><ele>1360.0</ele><time>2026-04-26T14:45:34.795Z</time></trkpt><trkpt lat="44.4604081" lon="9.8720107"><ele>1360.0</ele><time>2026-04-26T14:45:36.796Z</time></trkpt><trkpt lat="44.4604672" lon="9.8719709"><ele>1360.0</ele><time>2026-04-26T14:45:37.795Z</time></trkpt><trkpt lat="44.4605665" lon="9.8719274"><ele>1360.0</ele><time>2026-04-26T14:45:39.796Z</time></trkpt><trkpt lat="44.4606538" lon="9.871834"><ele>1360.25</ele><time>2026-04-26T14:45:41.795Z</time></trkpt><trkpt lat="44.4607567" lon="9.871764"><ele>1360.5</ele><time>2026-04-26T14:45:43.795Z</time></trkpt><trkpt lat="44.4608719" lon="9.8717285"><ele>1360.75</ele><time>2026-04-26T14:45:45.796Z</time></trkpt><trkpt lat="44.4609796" lon="9.8716627"><ele>1361.0</ele><time>2026-04-26T14:45:47.795Z</time></trkpt><trkpt lat="44.4610832" lon="9.8715838"><ele>1361.0</ele><time>2026-04-26T14:45:49.796Z</time></trkpt><trkpt lat="44.4611682" lon="9.8715264"><ele>1361.0</ele><time>2026-04-26T14:45:51.796Z</time></trkpt><trkpt lat="44.4612535" lon="9.8714592"><ele>1361.0</ele><time>2026-04-26T14:45:53.795Z</time></trkpt><trkpt lat="44.4613761" lon="9.8714083"><ele>1361.0</ele><time>2026-04-26T14:45:55.795Z</time></trkpt><trkpt lat="44.4614522" lon="9.8713838"><ele>1361.0</ele><time>2026-04-26T14:45:56.796Z</time></trkpt><trkpt lat="44.4615276" lon="9.87136"><ele>1362.9999999999998</ele><time>2026-04-26T14:45:57.795Z</time></trkpt><trkpt lat="44.4616078" lon="9.8713351"><ele>1365.0</ele><time>2026-04-26T14:45:58.795Z</time></trkpt><trkpt lat="44.4616868" lon="9.8713082"><ele>1367.0</ele><time>2026-04-26T14:45:59.795Z</time></trkpt><trkpt lat="44.4617525" lon="9.8712821"><ele>1369.0</ele><time>2026-04-26T14:46:00.795Z</time></trkpt><trkpt lat="44.4618186" lon="9.8712556"><ele>1371.0</ele><time>2026-04-26T14:46:01.795Z</time></trkpt><trkpt lat="44.4618853" lon="9.8712558"><ele>1372.9999999999998</ele><time>2026-04-26T14:46:02.795Z</time></trkpt><trkpt lat="44.4619489" lon="9.8712454"><ele>1375.0</ele><time>2026-04-26T14:46:03.795Z</time></trkpt><trkpt lat="44.4620842" lon="9.8712012"><ele>1375.8</ele><time>2026-04-26T14:46:05.795Z</time></trkpt><trkpt lat="44.4621502" lon="9.8711573"><ele>1376.6</ele><time>2026-04-26T14:46:06.796Z</time></trkpt><trkpt lat="44.4622121" lon="9.8711186"><ele>1377.4</ele><time>2026-04-26T14:46:07.795Z</time></trkpt><trkpt lat="44.4623357" lon="9.8710708"><ele>1378.2</ele><time>2026-04-26T14:46:09.795Z</time></trkpt><trkpt lat="44.4624487" lon="9.87107"><ele>1379.0</ele><time>2026-04-26T14:46:11.796Z</time></trkpt><trkpt lat="44.4625646" lon="9.8710197"><ele>1379.0</ele><time>2026-04-26T14:46:13.796Z</time></trkpt><trkpt lat="44.4626571" lon="9.8710026"><ele>1379.0</ele><time>2026-04-26T14:46:15.795Z</time></trkpt><trkpt lat="44.4627607" lon="9.8709834"><ele>1379.0</ele><time>2026-04-26T14:46:17.795Z</time></trkpt><trkpt lat="44.4628801" lon="9.870968"><ele>1379.0</ele><time>2026-04-26T14:46:19.795Z</time></trkpt><trkpt lat="44.4629432" lon="9.8709498"><ele>1379.0</ele><time>2026-04-26T14:46:20.795Z</time></trkpt><trkpt lat="44.4630054" lon="9.8709282"><ele>1379.0</ele><time>2026-04-26T14:46:21.795Z</time></trkpt><trkpt lat="44.4631261" lon="9.8708649"><ele>1381.3333333333335</ele><time>2026-04-26T14:46:23.795Z</time></trkpt><trkpt lat="44.463201" lon="9.8708362"><ele>1383.6666666666667</ele><time>2026-04-26T14:46:25.796Z</time></trkpt><trkpt lat="44.4632858" lon="9.8707972"><ele>1386.0</ele><time>2026-04-26T14:46:47.795Z</time></trkpt><trkpt lat="44.4633993" lon="9.8707489"><ele>1388.3333333333333</ele><time>2026-04-26T14:46:49.795Z</time></trkpt><trkpt lat="44.4634669" lon="9.8707135"><ele>1390.6666666666665</ele><time>2026-04-26T14:46:50.795Z</time></trkpt><trkpt lat="44.4635336" lon="9.8706686"><ele>1393.0</ele><time>2026-04-26T14:46:51.796Z</time></trkpt><trkpt lat="44.4635995" lon="9.8706115"><ele>1393.0</ele><time>2026-04-26T14:46:52.795Z</time></trkpt><trkpt lat="44.4636682" lon="9.8705397"><ele>1393.0</ele><time>2026-04-26T14:46:53.795Z</time></trkpt><trkpt lat="44.463732" lon="9.870485"><ele>1393.0</ele><time>2026-04-26T14:46:54.795Z</time></trkpt><trkpt lat="44.4638438" lon="9.8704297"><ele>1393.0</ele><time>2026-04-26T14:46:56.795Z</time></trkpt><trkpt lat="44.4639073" lon="9.8703941"><ele>1393.0</ele><time>2026-04-26T14:46:57.795Z</time></trkpt><trkpt lat="44.4639653" lon="9.8703434"><ele>1393.0</ele><time>2026-04-26T14:46:58.795Z</time></trkpt><trkpt lat="44.4640228" lon="9.8702881"><ele>1393.6666666666665</ele><time>2026-04-26T14:46:59.796Z</time></trkpt><trkpt lat="44.4640805" lon="9.8702305"><ele>1394.3333333333333</ele><time>2026-04-26T14:47:00.796Z</time></trkpt><trkpt lat="44.4641343" lon="9.8701759"><ele>1395.0</ele><time>2026-04-26T14:47:01.795Z</time></trkpt><trkpt lat="44.4642337" lon="9.8700717"><ele>1395.6666666666667</ele><time>2026-04-26T14:47:03.796Z</time></trkpt><trkpt lat="44.4642903" lon="9.8700207"><ele>1396.3333333333335</ele><time>2026-04-26T14:47:04.795Z</time></trkpt><trkpt lat="44.464346" lon="9.8699583"><ele>1397.0</ele><time>2026-04-26T14:47:05.795Z</time></trkpt><trkpt lat="44.4643898" lon="9.8698876"><ele>1398.0</ele><time>2026-04-26T14:47:06.795Z</time></trkpt><trkpt lat="44.4644609" lon="9.8697844"><ele>1399.0</ele><time>2026-04-26T14:47:08.795Z</time></trkpt><trkpt lat="44.4645378" lon="9.869663"><ele>1400.0</ele><time>2026-04-26T14:47:10.795Z</time></trkpt><trkpt lat="44.4646202" lon="9.869533"><ele>1401.0</ele><time>2026-04-26T14:47:12.795Z</time></trkpt><trkpt lat="44.4646956" lon="9.8694119"><ele>1404.6666666666667</ele><time>2026-04-26T14:47:14.795Z</time></trkpt><trkpt lat="44.4647631" lon="9.8692586"><ele>1408.3333333333333</ele><time>2026-04-26T14:47:16.795Z</time></trkpt><trkpt lat="44.4647954" lon="9.8691758"><ele>1412.0</ele><time>2026-04-26T14:47:17.795Z</time></trkpt><trkpt lat="44.4648446" lon="9.8690455"><ele>1415.6666666666665</ele><time>2026-04-26T14:47:19.795Z</time></trkpt><trkpt lat="44.4648822" lon="9.868955"><ele>1419.3333333333333</ele><time>2026-04-26T14:47:22.795Z</time></trkpt><trkpt lat="44.4649245" lon="9.868888"><ele>1423.0</ele><time>2026-04-26T14:47:24.795Z</time></trkpt><trkpt lat="44.465014" lon="9.8687755"><ele>1423.0</ele><time>2026-04-26T14:47:26.796Z</time></trkpt><trkpt lat="44.4651229" lon="9.8687019"><ele>1423.0</ele><time>2026-04-26T14:47:28.796Z</time></trkpt><trkpt lat="44.4651843" lon="9.8686693"><ele>1423.0</ele><time>2026-04-26T14:47:29.796Z</time></trkpt><trkpt lat="44.4653043" lon="9.8686235"><ele>1423.0</ele><time>2026-04-26T14:47:31.796Z</time></trkpt><trkpt lat="44.465369" lon="9.8686132"><ele>1423.0</ele><time>2026-04-26T14:47:32.795Z</time></trkpt><trkpt lat="44.4654449" lon="9.8686089"><ele>1425.6666666666665</ele><time>2026-04-26T14:47:33.795Z</time></trkpt><trkpt lat="44.4655245" lon="9.8686027"><ele>1428.3333333333333</ele><time>2026-04-26T14:47:34.796Z</time></trkpt><trkpt lat="44.4656082" lon="9.8686014"><ele>1431.0</ele><time>2026-04-26T14:47:35.796Z</time></trkpt><trkpt lat="44.4656844" lon="9.8685993"><ele>1433.6666666666667</ele><time>2026-04-26T14:47:36.795Z</time></trkpt><trkpt lat="44.4657594" lon="9.8685815"><ele>1436.3333333333335</ele><time>2026-04-26T14:47:37.796Z</time></trkpt><trkpt lat="44.4658286" lon="9.8685534"><ele>1439.0</ele><time>2026-04-26T14:47:38.796Z</time></trkpt><trkpt lat="44.4658866" lon="9.8685145"><ele>1439.5</ele><time>2026-04-26T14:47:39.797Z</time></trkpt><trkpt lat="44.4659671" lon="9.8684083"><ele>1440.0</ele><time>2026-04-26T14:47:41.795Z</time></trkpt><trkpt lat="44.4660195" lon="9.8682865"><ele>1440.5</ele><time>2026-04-26T14:47:43.795Z</time></trkpt><trkpt lat="44.4660614" lon="9.8681728"><ele>1441.0</ele><time>2026-04-26T14:47:45.795Z</time></trkpt><trkpt lat="44.466087" lon="9.868088"><ele>1441.5</ele><time>2026-04-26T14:47:47.795Z</time></trkpt><trkpt lat="44.4661078" lon="9.8679846"><ele>1442.0</ele><time>2026-04-26T14:48:12.795Z</time></trkpt><trkpt lat="44.4661503" lon="9.8678505"><ele>1442.0</ele><time>2026-04-26T14:48:14.795Z</time></trkpt><trkpt lat="44.4661681" lon="9.8677645"><ele>1442.0</ele><time>2026-04-26T14:48:15.795Z</time></trkpt><trkpt lat="44.466187" lon="9.8676794"><ele>1442.0</ele><time>2026-04-26T14:48:16.796Z</time></trkpt><trkpt lat="44.4662268" lon="9.867512"><ele>1442.0</ele><time>2026-04-26T14:48:18.796Z</time></trkpt><trkpt lat="44.4662555" lon="9.8674245"><ele>1442.0</ele><time>2026-04-26T14:48:19.795Z</time></trkpt><trkpt lat="44.4662822" lon="9.8673403"><ele>1442.0</ele><time>2026-04-26T14:48:20.795Z</time></trkpt><trkpt lat="44.4663242" lon="9.8671982"><ele>1442.3999999999999</ele><time>2026-04-26T14:48:22.796Z</time></trkpt><trkpt lat="44.4662747" lon="9.8670572"><ele>1442.8</ele><time>2026-04-26T14:48:24.795Z</time></trkpt><trkpt lat="44.4662218" lon="9.8668968"><ele>1443.2</ele><time>2026-04-26T14:48:26.796Z</time></trkpt><trkpt lat="44.4662015" lon="9.8668036"><ele>1443.6</ele><time>2026-04-26T14:48:27.796Z</time></trkpt><trkpt lat="44.4661816" lon="9.8667155"><ele>1444.0</ele><time>2026-04-26T14:48:28.796Z</time></trkpt><trkpt lat="44.46615" lon="9.8665484"><ele>1444.4</ele><time>2026-04-26T14:48:30.795Z</time></trkpt><trkpt lat="44.4661566" lon="9.8664185"><ele>1444.8000000000002</ele><time>2026-04-26T14:48:32.795Z</time></trkpt><trkpt lat="44.466096" lon="9.8663623"><ele>1445.1999999999998</ele><time>2026-04-26T14:48:37.796Z</time></trkpt><trkpt lat="44.4660138" lon="9.8662709"><ele>1445.6</ele><time>2026-04-26T14:50:17.794Z</time></trkpt><trkpt lat="44.4659298" lon="9.866176"><ele>1446.0</ele><time>2026-04-26T14:50:19.795Z</time></trkpt><trkpt lat="44.4658545" lon="9.8660913"><ele>1446.0</ele><time>2026-04-26T14:50:21.795Z</time></trkpt><trkpt lat="44.4657895" lon="9.865995"><ele>1446.0</ele><time>2026-04-26T14:50:23.794Z</time></trkpt><trkpt lat="44.465723" lon="9.8658558"><ele>1446.0</ele><time>2026-04-26T14:50:25.794Z</time></trkpt><trkpt lat="44.4657115" lon="9.8657041"><ele>1446.0</ele><time>2026-04-26T14:50:27.795Z</time></trkpt><trkpt lat="44.4657218" lon="9.8655489"><ele>1446.0</ele><time>2026-04-26T14:50:29.795Z</time></trkpt><trkpt lat="44.4657553" lon="9.865381"><ele>1446.1666666666667</ele><time>2026-04-26T14:50:31.794Z</time></trkpt><trkpt lat="44.4657944" lon="9.8652969"><ele>1446.3333333333333</ele><time>2026-04-26T14:50:32.795Z</time></trkpt><trkpt lat="44.4658631" lon="9.8652349"><ele>1446.5</ele><time>2026-04-26T14:50:33.794Z</time></trkpt><trkpt lat="44.4659396" lon="9.8651625"><ele>1446.6666666666665</ele><time>2026-04-26T14:50:34.795Z</time></trkpt><trkpt lat="44.4659977" lon="9.8651001"><ele>1446.8333333333333</ele><time>2026-04-26T14:50:35.795Z</time></trkpt><trkpt lat="44.4660728" lon="9.8650331"><ele>1447.0</ele><time>2026-04-26T14:50:36.794Z</time></trkpt><trkpt lat="44.4661426" lon="9.8649606"><ele>1444.3999999999999</ele><time>2026-04-26T14:50:37.795Z</time></trkpt><trkpt lat="44.4662149" lon="9.8648268"><ele>1441.8</ele><time>2026-04-26T14:50:39.794Z</time></trkpt><trkpt lat="44.4662293" lon="9.8646454"><ele>1439.2</ele><time>2026-04-26T14:50:41.794Z</time></trkpt><trkpt lat="44.466204" lon="9.8645438"><ele>1436.6</ele><time>2026-04-26T14:50:42.794Z</time></trkpt><trkpt lat="44.4661613" lon="9.8644509"><ele>1434.0</ele><time>2026-04-26T14:50:43.794Z</time></trkpt><trkpt lat="44.4661312" lon="9.8643633"><ele>1432.1666666666667</ele><time>2026-04-26T14:50:44.795Z</time></trkpt><trkpt lat="44.4661049" lon="9.8642615"><ele>1430.3333333333333</ele><time>2026-04-26T14:50:45.795Z</time></trkpt><trkpt lat="44.4660799" lon="9.8641608"><ele>1428.5</ele><time>2026-04-26T14:50:46.795Z</time></trkpt><trkpt lat="44.4660574" lon="9.8640585"><ele>1426.6666666666665</ele><time>2026-04-26T14:50:47.794Z</time></trkpt><trkpt lat="44.4660345" lon="9.86396"><ele>1424.8333333333333</ele><time>2026-04-26T14:50:48.794Z</time></trkpt><trkpt lat="44.4660124" lon="9.8638538"><ele>1423.0</ele><time>2026-04-26T14:50:49.794Z</time></trkpt><trkpt lat="44.4659891" lon="9.8637511"><ele>1423.0</ele><time>2026-04-26T14:50:50.795Z</time></trkpt><trkpt lat="44.4659917" lon="9.8636324"><ele>1423.0</ele><time>2026-04-26T14:50:51.795Z</time></trkpt><trkpt lat="44.4660046" lon="9.8635439"><ele>1423.0</ele><time>2026-04-26T14:50:52.794Z</time></trkpt><trkpt lat="44.4660001" lon="9.8633784"><ele>1423.0</ele><time>2026-04-26T14:50:54.794Z</time></trkpt><trkpt lat="44.4659353" lon="9.8632617"><ele>1423.0</ele><time>2026-04-26T14:50:56.795Z</time></trkpt><trkpt lat="44.4658693" lon="9.8632434"><ele>1423.0</ele><time>2026-04-26T14:50:57.795Z</time></trkpt><trkpt lat="44.4657982" lon="9.8632406"><ele>1422.3333333333333</ele><time>2026-04-26T14:50:58.794Z</time></trkpt><trkpt lat="44.4657266" lon="9.8632327"><ele>1421.6666666666665</ele><time>2026-04-26T14:50:59.794Z</time></trkpt><trkpt lat="44.4656545" lon="9.8631999"><ele>1421.0</ele><time>2026-04-26T14:51:00.794Z</time></trkpt><trkpt lat="44.4655949" lon="9.8631418"><ele>1420.3333333333333</ele><time>2026-04-26T14:51:01.795Z</time></trkpt><trkpt lat="44.4655553" lon="9.8630652"><ele>1419.6666666666667</ele><time>2026-04-26T14:51:02.794Z</time></trkpt><trkpt lat="44.4655156" lon="9.8628933"><ele>1419.0</ele><time>2026-04-26T14:51:04.794Z</time></trkpt><trkpt lat="44.4655105" lon="9.8627924"><ele>1419.0</ele><time>2026-04-26T14:51:05.794Z</time></trkpt><trkpt lat="44.4655172" lon="9.8626956"><ele>1419.0</ele><time>2026-04-26T14:51:06.794Z</time></trkpt><trkpt lat="44.4655356" lon="9.8626053"><ele>1419.0</ele><time>2026-04-26T14:51:07.794Z</time></trkpt><trkpt lat="44.4655788" lon="9.8624604"><ele>1419.0</ele><time>2026-04-26T14:51:09.794Z</time></trkpt><trkpt lat="44.4655779" lon="9.8623505"><ele>1419.0</ele><time>2026-04-26T14:51:11.794Z</time></trkpt><trkpt lat="44.4655299" lon="9.8622784"><ele>1419.0</ele><time>2026-04-26T14:51:14.794Z</time></trkpt><trkpt lat="44.4654766" lon="9.8622212"><ele>1415.6</ele><time>2026-04-26T14:51:16.794Z</time></trkpt><trkpt lat="44.4654241" lon="9.8621448"><ele>1412.2</ele><time>2026-04-26T14:51:18.794Z</time></trkpt><trkpt lat="44.4653734" lon="9.8620537"><ele>1408.8</ele><time>2026-04-26T14:51:21.795Z</time></trkpt><trkpt lat="44.4653043" lon="9.8619366"><ele>1405.3999999999999</ele><time>2026-04-26T14:51:24.795Z</time></trkpt><trkpt lat="44.4652164" lon="9.8618013"><ele>1402.0</ele><time>2026-04-26T14:51:26.794Z</time></trkpt><trkpt lat="44.4651519" lon="9.861725"><ele>1402.0</ele><time>2026-04-26T14:51:27.794Z</time></trkpt><trkpt lat="44.4650881" lon="9.8616524"><ele>1402.0</ele><time>2026-04-26T14:51:28.795Z</time></trkpt><trkpt lat="44.4650313" lon="9.8615733"><ele>1402.0</ele><time>2026-04-26T14:51:29.795Z</time></trkpt><trkpt lat="44.4649696" lon="9.8614992"><ele>1402.0</ele><time>2026-04-26T14:51:30.795Z</time></trkpt><trkpt lat="44.4649054" lon="9.8614305"><ele>1402.0</ele><time>2026-04-26T14:51:31.795Z</time></trkpt><trkpt lat="44.4648389" lon="9.8613699"><ele>1402.0</ele><time>2026-04-26T14:51:32.795Z</time></trkpt><trkpt lat="44.4647677" lon="9.861308"><ele>1402.0</ele><time>2026-04-26T14:51:33.795Z</time></trkpt><trkpt lat="44.4646931" lon="9.8612355"><ele>1402.0</ele><time>2026-04-26T14:51:34.796Z</time></trkpt><trkpt lat="44.4646292" lon="9.8611575"><ele>1402.0</ele><time>2026-04-26T14:51:35.794Z</time></trkpt><trkpt lat="44.464572" lon="9.861081"><ele>1402.0</ele><time>2026-04-26T14:51:36.795Z</time></trkpt><trkpt lat="44.4645367" lon="9.8609846"><ele>1402.0</ele><time>2026-04-26T14:51:37.794Z</time></trkpt><trkpt lat="44.4644836" lon="9.8608955"><ele>1402.0</ele><time>2026-04-26T14:51:38.794Z</time></trkpt><trkpt lat="44.4644388" lon="9.8608011"><ele>1399.3333333333333</ele><time>2026-04-26T14:51:39.794Z</time></trkpt><trkpt lat="44.4644009" lon="9.8607045"><ele>1396.6666666666665</ele><time>2026-04-26T14:51:40.794Z</time></trkpt><trkpt lat="44.4643741" lon="9.8606115"><ele>1394.0</ele><time>2026-04-26T14:51:41.794Z</time></trkpt><trkpt lat="44.4643464" lon="9.8605037"><ele>1391.3333333333333</ele><time>2026-04-26T14:51:42.795Z</time></trkpt><trkpt lat="44.4643188" lon="9.8603916"><ele>1388.6666666666667</ele><time>2026-04-26T14:51:43.794Z</time></trkpt><trkpt lat="44.4642914" lon="9.8602811"><ele>1386.0</ele><time>2026-04-26T14:51:44.794Z</time></trkpt><trkpt lat="44.464267" lon="9.8601729"><ele>1386.5</ele><time>2026-04-26T14:51:45.794Z</time></trkpt><trkpt lat="44.4642414" lon="9.8600606"><ele>1387.0</ele><time>2026-04-26T14:51:46.794Z</time></trkpt><trkpt lat="44.4642106" lon="9.8599376"><ele>1387.5</ele><time>2026-04-26T14:51:47.794Z</time></trkpt><trkpt lat="44.4641786" lon="9.8598171"><ele>1388.0</ele><time>2026-04-26T14:51:48.794Z</time></trkpt><trkpt lat="44.4641451" lon="9.8597016"><ele>1388.5</ele><time>2026-04-26T14:51:49.795Z</time></trkpt><trkpt lat="44.4641127" lon="9.8595945"><ele>1389.0</ele><time>2026-04-26T14:51:50.795Z</time></trkpt><trkpt lat="44.4640803" lon="9.8594888"><ele>1389.0</ele><time>2026-04-26T14:51:51.795Z</time></trkpt><trkpt lat="44.4640554" lon="9.8593926"><ele>1389.0</ele><time>2026-04-26T14:51:52.795Z</time></trkpt><trkpt lat="44.4640258" lon="9.8592869"><ele>1389.0</ele><time>2026-04-26T14:51:53.794Z</time></trkpt><trkpt lat="44.463997" lon="9.8591726"><ele>1389.0</ele><time>2026-04-26T14:51:54.794Z</time></trkpt><trkpt lat="44.4639732" lon="9.8590665"><ele>1389.0</ele><time>2026-04-26T14:51:55.794Z</time></trkpt><trkpt lat="44.4639513" lon="9.8589613"><ele>1389.0</ele><time>2026-04-26T14:51:56.794Z</time></trkpt><trkpt lat="44.4639299" lon="9.8588444"><ele>1388.8333333333333</ele><time>2026-04-26T14:51:57.795Z</time></trkpt><trkpt lat="44.4639162" lon="9.858734"><ele>1388.6666666666667</ele><time>2026-04-26T14:51:58.794Z</time></trkpt><trkpt lat="44.4639141" lon="9.8586157"><ele>1388.5</ele><time>2026-04-26T14:51:59.794Z</time></trkpt><trkpt lat="44.4639261" lon="9.8585006"><ele>1388.3333333333335</ele><time>2026-04-26T14:52:00.795Z</time></trkpt><trkpt lat="44.4639577" lon="9.8583965"><ele>1388.1666666666667</ele><time>2026-04-26T14:52:01.795Z</time></trkpt><trkpt lat="44.4639943" lon="9.8582916"><ele>1388.0</ele><time>2026-04-26T14:52:02.794Z</time></trkpt><trkpt lat="44.4640366" lon="9.858189"><ele>1388.0</ele><time>2026-04-26T14:52:03.794Z</time></trkpt><trkpt lat="44.464079" lon="9.8580866"><ele>1388.0</ele><time>2026-04-26T14:52:04.794Z</time></trkpt><trkpt lat="44.4641291" lon="9.8579814"><ele>1388.0</ele><time>2026-04-26T14:52:05.794Z</time></trkpt><trkpt lat="44.4641725" lon="9.8579145"><ele>1388.0</ele><time>2026-04-26T14:52:06.794Z</time></trkpt><trkpt lat="44.4642287" lon="9.8578436"><ele>1388.0</ele><time>2026-04-26T14:52:07.794Z</time></trkpt><trkpt lat="44.4642963" lon="9.8577655"><ele>1388.0</ele><time>2026-04-26T14:52:08.795Z</time></trkpt><trkpt lat="44.4643625" lon="9.8576954"><ele>1388.0</ele><time>2026-04-26T14:52:09.794Z</time></trkpt><trkpt lat="44.4644369" lon="9.8576376"><ele>1388.0</ele><time>2026-04-26T14:52:10.794Z</time></trkpt><trkpt lat="44.4644944" lon="9.8575735"><ele>1388.0</ele><time>2026-04-26T14:52:11.794Z</time></trkpt><trkpt lat="44.4645398" lon="9.857512"><ele>1388.0</ele><time>2026-04-26T14:52:12.794Z</time></trkpt><trkpt lat="44.4645702" lon="9.8573782"><ele>1388.0</ele><time>2026-04-26T14:52:14.794Z</time></trkpt><trkpt lat="44.4645222" lon="9.8572451"><ele>1388.0</ele><time>2026-04-26T14:52:16.794Z</time></trkpt><trkpt lat="44.4644605" lon="9.8571011"><ele>1385.1666666666667</ele><time>2026-04-26T14:52:18.795Z</time></trkpt><trkpt lat="44.4644347" lon="9.8569305"><ele>1382.3333333333335</ele><time>2026-04-26T14:52:20.794Z</time></trkpt><trkpt lat="44.464426" lon="9.8568366"><ele>1379.5</ele><time>2026-04-26T14:52:21.794Z</time></trkpt><trkpt lat="44.4644251" lon="9.8567378"><ele>1376.6666666666667</ele><time>2026-04-26T14:52:22.794Z</time></trkpt><trkpt lat="44.4644281" lon="9.8566391"><ele>1373.8333333333333</ele><time>2026-04-26T14:52:23.794Z</time></trkpt><trkpt lat="44.4644337" lon="9.856541"><ele>1371.0</ele><time>2026-04-26T14:52:24.794Z</time></trkpt><trkpt lat="44.4644492" lon="9.8564521"><ele>1370.0</ele><time>2026-04-26T14:52:25.794Z</time></trkpt><trkpt lat="44.4645092" lon="9.8562977"><ele>1369.0</ele><time>2026-04-26T14:52:27.794Z</time></trkpt><trkpt lat="44.4645504" lon="9.8562195"><ele>1368.0</ele><time>2026-04-26T14:52:28.794Z</time></trkpt><trkpt lat="44.4645857" lon="9.8561358"><ele>1367.0</ele><time>2026-04-26T14:52:29.794Z</time></trkpt><trkpt lat="44.4646204" lon="9.8560515"><ele>1366.0</ele><time>2026-04-26T14:52:30.794Z</time></trkpt><trkpt lat="44.4646606" lon="9.8559636"><ele>1365.0</ele><time>2026-04-26T14:52:31.794Z</time></trkpt><trkpt lat="44.4647021" lon="9.8558773"><ele>1363.3333333333333</ele><time>2026-04-26T14:52:32.794Z</time></trkpt><trkpt lat="44.4647441" lon="9.8557896"><ele>1361.6666666666667</ele><time>2026-04-26T14:52:33.794Z</time></trkpt><trkpt lat="44.4647799" lon="9.8556913"><ele>1360.0</ele><time>2026-04-26T14:52:34.794Z</time></trkpt><trkpt lat="44.464822" lon="9.8555952"><ele>1358.3333333333335</ele><time>2026-04-26T14:52:35.794Z</time></trkpt><trkpt lat="44.4648693" lon="9.8555104"><ele>1356.6666666666667</ele><time>2026-04-26T14:52:36.795Z</time></trkpt><trkpt lat="44.4649195" lon="9.8554197"><ele>1355.0</ele><time>2026-04-26T14:52:37.794Z</time></trkpt><trkpt lat="44.4649769" lon="9.855332"><ele>1355.0</ele><time>2026-04-26T14:52:38.794Z</time></trkpt><trkpt lat="44.4650354" lon="9.8552579"><ele>1355.0</ele><time>2026-04-26T14:52:39.794Z</time></trkpt><trkpt lat="44.4650893" lon="9.8551945"><ele>1355.0</ele><time>2026-04-26T14:52:40.795Z</time></trkpt><trkpt lat="44.4651697" lon="9.8550454"><ele>1355.0</ele><time>2026-04-26T14:52:42.794Z</time></trkpt><trkpt lat="44.4651939" lon="9.8549598"><ele>1355.0</ele><time>2026-04-26T14:52:43.794Z</time></trkpt><trkpt lat="44.4652004" lon="9.8548663"><ele>1355.0</ele><time>2026-04-26T14:52:44.794Z</time></trkpt><trkpt lat="44.4651972" lon="9.8547691"><ele>1352.1666666666667</ele><time>2026-04-26T14:52:45.794Z</time></trkpt><trkpt lat="44.4651867" lon="9.8546562"><ele>1349.3333333333335</ele><time>2026-04-26T14:52:46.794Z</time></trkpt><trkpt lat="44.465168" lon="9.8545454"><ele>1346.5</ele><time>2026-04-26T14:52:47.794Z</time></trkpt><trkpt lat="44.4651531" lon="9.8544318"><ele>1343.6666666666667</ele><time>2026-04-26T14:52:48.795Z</time></trkpt><trkpt lat="44.4651434" lon="9.8543141"><ele>1340.8333333333333</ele><time>2026-04-26T14:52:49.795Z</time></trkpt><trkpt lat="44.4651336" lon="9.8542034"><ele>1338.0</ele><time>2026-04-26T14:52:50.794Z</time></trkpt><trkpt lat="44.4651271" lon="9.8540945"><ele>1335.8000000000002</ele><time>2026-04-26T14:52:51.795Z</time></trkpt><trkpt lat="44.4651297" lon="9.8539966"><ele>1333.6</ele><time>2026-04-26T14:52:52.796Z</time></trkpt><trkpt lat="44.4651389" lon="9.8538257"><ele>1331.4</ele><time>2026-04-26T14:52:54.795Z</time></trkpt><trkpt lat="44.4651659" lon="9.8536492"><ele>1329.1999999999998</ele><time>2026-04-26T14:52:56.794Z</time></trkpt><trkpt lat="44.4651825" lon="9.8535538"><ele>1327.0</ele><time>2026-04-26T14:52:57.796Z</time></trkpt><trkpt lat="44.4652135" lon="9.8533865"><ele>1326.4285714285716</ele><time>2026-04-26T14:52:59.796Z</time></trkpt><trkpt lat="44.4652362" lon="9.8533035"><ele>1325.857142857143</ele><time>2026-04-26T14:53:00.795Z</time></trkpt><trkpt lat="44.4652569" lon="9.8532182"><ele>1325.2857142857142</ele><time>2026-04-26T14:53:01.795Z</time></trkpt><trkpt lat="44.4652774" lon="9.8531274"><ele>1324.7142857142858</ele><time>2026-04-26T14:53:02.796Z</time></trkpt><trkpt lat="44.4653076" lon="9.8530173"><ele>1324.142857142857</ele><time>2026-04-26T14:53:03.795Z</time></trkpt><trkpt lat="44.4653309" lon="9.8529157"><ele>1323.5714285714287</ele><time>2026-04-26T14:53:04.795Z</time></trkpt><trkpt lat="44.4653474" lon="9.8528123"><ele>1323.0</ele><time>2026-04-26T14:53:05.795Z</time></trkpt><trkpt lat="44.4653672" lon="9.852708"><ele>1323.142857142857</ele><time>2026-04-26T14:53:06.795Z</time></trkpt><trkpt lat="44.465404" lon="9.8526119"><ele>1323.2857142857142</ele><time>2026-04-26T14:53:07.794Z</time></trkpt><trkpt lat="44.4654326" lon="9.8525181"><ele>1323.4285714285716</ele><time>2026-04-26T14:53:08.794Z</time></trkpt><trkpt lat="44.4654772" lon="9.8524496"><ele>1323.5714285714284</ele><time>2026-04-26T14:53:09.794Z</time></trkpt><trkpt lat="44.4655242" lon="9.852375"><ele>1323.7142857142858</ele><time>2026-04-26T14:53:10.794Z</time></trkpt><trkpt lat="44.4655801" lon="9.8523073"><ele>1323.857142857143</ele><time>2026-04-26T14:53:11.794Z</time></trkpt><trkpt lat="44.4656415" lon="9.8522446"><ele>1324.0</ele><time>2026-04-26T14:53:12.794Z</time></trkpt><trkpt lat="44.465714" lon="9.8520748"><ele>1324.0</ele><time>2026-04-26T14:53:14.794Z</time></trkpt><trkpt lat="44.4657764" lon="9.8519797"><ele>1324.0</ele><time>2026-04-26T14:53:15.794Z</time></trkpt><trkpt lat="44.4658265" lon="9.8518775"><ele>1324.0</ele><time>2026-04-26T14:53:16.794Z</time></trkpt><trkpt lat="44.4658402" lon="9.8517709"><ele>1324.0</ele><time>2026-04-26T14:53:17.794Z</time></trkpt><trkpt lat="44.4658734" lon="9.8516055"><ele>1324.0</ele><time>2026-04-26T14:53:19.795Z</time></trkpt><trkpt lat="44.4658763" lon="9.85151"><ele>1324.0</ele><time>2026-04-26T14:53:20.795Z</time></trkpt><trkpt lat="44.4658762" lon="9.8514167"><ele>1321.6666666666665</ele><time>2026-04-26T14:53:21.794Z</time></trkpt><trkpt lat="44.4658858" lon="9.8513192"><ele>1319.3333333333333</ele><time>2026-04-26T14:53:22.796Z</time></trkpt><trkpt lat="44.4659136" lon="9.8512068"><ele>1317.0</ele><time>2026-04-26T14:53:23.795Z</time></trkpt><trkpt lat="44.4659363" lon="9.8510922"><ele>1314.6666666666667</ele><time>2026-04-26T14:53:24.795Z</time></trkpt><trkpt lat="44.4659702" lon="9.8509581"><ele>1312.3333333333335</ele><time>2026-04-26T14:53:25.796Z</time></trkpt><trkpt lat="44.4660091" lon="9.8508557"><ele>1310.0</ele><time>2026-04-26T14:53:26.794Z</time></trkpt><trkpt lat="44.4660431" lon="9.8507396"><ele>1308.1666666666667</ele><time>2026-04-26T14:53:27.795Z</time></trkpt><trkpt lat="44.4660783" lon="9.8506298"><ele>1306.3333333333335</ele><time>2026-04-26T14:53:28.794Z</time></trkpt><trkpt lat="44.4661196" lon="9.8505223"><ele>1304.5</ele><time>2026-04-26T14:53:29.795Z</time></trkpt><trkpt lat="44.4661479" lon="9.8504263"><ele>1302.6666666666667</ele><time>2026-04-26T14:53:30.794Z</time></trkpt><trkpt lat="44.4661929" lon="9.8503408"><ele>1300.8333333333333</ele><time>2026-04-26T14:53:31.794Z</time></trkpt><trkpt lat="44.4662307" lon="9.8502417"><ele>1299.0</ele><time>2026-04-26T14:53:32.794Z</time></trkpt><trkpt lat="44.4662725" lon="9.8501493"><ele>1297.1666666666667</ele><time>2026-04-26T14:53:33.794Z</time></trkpt><trkpt lat="44.4663111" lon="9.850047"><ele>1295.3333333333333</ele><time>2026-04-26T14:53:34.794Z</time></trkpt><trkpt lat="44.4663478" lon="9.8499239"><ele>1293.5</ele><time>2026-04-26T14:53:35.795Z</time></trkpt><trkpt lat="44.4663863" lon="9.8498015"><ele>1291.6666666666665</ele><time>2026-04-26T14:53:36.794Z</time></trkpt><trkpt lat="44.4664152" lon="9.8496847"><ele>1289.8333333333333</ele><time>2026-04-26T14:53:37.794Z</time></trkpt><trkpt lat="44.4664476" lon="9.8495707"><ele>1288.0</ele><time>2026-04-26T14:53:38.794Z</time></trkpt><trkpt lat="44.4664753" lon="9.849451"><ele>1288.0</ele><time>2026-04-26T14:53:39.794Z</time></trkpt><trkpt lat="44.466485" lon="9.8493378"><ele>1288.0</ele><time>2026-04-26T14:53:40.794Z</time></trkpt><trkpt lat="44.4664869" lon="9.8492359"><ele>1288.0</ele><time>2026-04-26T14:53:41.794Z</time></trkpt><trkpt lat="44.4664791" lon="9.8491287"><ele>1288.0</ele><time>2026-04-26T14:53:42.795Z</time></trkpt><trkpt lat="44.4664646" lon="9.849018"><ele>1288.0</ele><time>2026-04-26T14:53:43.794Z</time></trkpt><trkpt lat="44.4664449" lon="9.8489101"><ele>1288.0</ele><time>2026-04-26T14:53:44.794Z</time></trkpt><trkpt lat="44.4664218" lon="9.8488066"><ele>1288.2857142857142</ele><time>2026-04-26T14:53:45.794Z</time></trkpt><trkpt lat="44.4663899" lon="9.8487086"><ele>1288.5714285714284</ele><time>2026-04-26T14:53:46.794Z</time></trkpt><trkpt lat="44.4663646" lon="9.8486142"><ele>1288.857142857143</ele><time>2026-04-26T14:53:47.794Z</time></trkpt><trkpt lat="44.4663397" lon="9.8485236"><ele>1289.142857142857</ele><time>2026-04-26T14:53:48.794Z</time></trkpt><trkpt lat="44.4663225" lon="9.8484171"><ele>1289.4285714285713</ele><time>2026-04-26T14:53:49.794Z</time></trkpt><trkpt lat="44.4663128" lon="9.8483167"><ele>1289.7142857142858</ele><time>2026-04-26T14:53:50.795Z</time></trkpt><trkpt lat="44.4663075" lon="9.8482236"><ele>1290.0</ele><time>2026-04-26T14:53:51.795Z</time></trkpt><trkpt lat="44.4663068" lon="9.8480728"><ele>1290.5</ele><time>2026-04-26T14:53:53.795Z</time></trkpt><trkpt lat="44.4663617" lon="9.8479332"><ele>1291.0</ele><time>2026-04-26T14:53:55.794Z</time></trkpt><trkpt lat="44.466399" lon="9.8478543"><ele>1291.5</ele><time>2026-04-26T14:53:56.794Z</time></trkpt><trkpt lat="44.4664409" lon="9.8477766"><ele>1292.0</ele><time>2026-04-26T14:53:57.795Z</time></trkpt><trkpt lat="44.4665243" lon="9.8476461"><ele>1292.5</ele><time>2026-04-26T14:53:59.794Z</time></trkpt><trkpt lat="44.4665753" lon="9.8475888"><ele>1293.0</ele><time>2026-04-26T14:54:00.794Z</time></trkpt><trkpt lat="44.4666306" lon="9.8475314"><ele>1290.6666666666667</ele><time>2026-04-26T14:54:01.794Z</time></trkpt><trkpt lat="44.4666879" lon="9.847467"><ele>1288.3333333333333</ele><time>2026-04-26T14:54:02.794Z</time></trkpt><trkpt lat="44.4667531" lon="9.8474003"><ele>1286.0</ele><time>2026-04-26T14:54:03.794Z</time></trkpt><trkpt lat="44.4668202" lon="9.8473469"><ele>1283.6666666666665</ele><time>2026-04-26T14:54:04.794Z</time></trkpt><trkpt lat="44.4668852" lon="9.8472828"><ele>1281.3333333333333</ele><time>2026-04-26T14:54:05.794Z</time></trkpt><trkpt lat="44.4669458" lon="9.847221"><ele>1279.0</ele><time>2026-04-26T14:54:06.794Z</time></trkpt><trkpt lat="44.4669944" lon="9.8471555"><ele>1279.0</ele><time>2026-04-26T14:54:07.794Z</time></trkpt><trkpt lat="44.4670442" lon="9.8470924"><ele>1279.0</ele><time>2026-04-26T14:54:08.793Z</time></trkpt><trkpt lat="44.4670888" lon="9.8470249"><ele>1279.0</ele><time>2026-04-26T14:54:09.793Z</time></trkpt><trkpt lat="44.4671254" lon="9.846946"><ele>1279.0</ele><time>2026-04-26T14:54:10.793Z</time></trkpt><trkpt lat="44.4671723" lon="9.8468722"><ele>1279.0</ele><time>2026-04-26T14:54:11.794Z</time></trkpt><trkpt lat="44.4672166" lon="9.8467894"><ele>1279.0</ele><time>2026-04-26T14:54:12.793Z</time></trkpt><trkpt lat="44.4672589" lon="9.8467015"><ele>1279.0</ele><time>2026-04-26T14:54:13.793Z</time></trkpt><trkpt lat="44.4673122" lon="9.8466091"><ele>1277.1666666666665</ele><time>2026-04-26T14:54:14.793Z</time></trkpt><trkpt lat="44.4673647" lon="9.8465145"><ele>1275.3333333333333</ele><time>2026-04-26T14:54:15.793Z</time></trkpt><trkpt lat="44.4674216" lon="9.8464349"><ele>1273.5</ele><time>2026-04-26T14:54:16.793Z</time></trkpt><trkpt lat="44.4674885" lon="9.8463617"><ele>1271.6666666666667</ele><time>2026-04-26T14:54:17.793Z</time></trkpt><trkpt lat="44.4675688" lon="9.8462903"><ele>1269.8333333333335</ele><time>2026-04-26T14:54:18.793Z</time></trkpt><trkpt lat="44.467651" lon="9.8462216"><ele>1268.0</ele><time>2026-04-26T14:54:19.794Z</time></trkpt><trkpt lat="44.4677292" lon="9.8461631"><ele>1268.0</ele><time>2026-04-26T14:54:20.794Z</time></trkpt><trkpt lat="44.4678041" lon="9.8461067"><ele>1268.0</ele><time>2026-04-26T14:54:21.794Z</time></trkpt><trkpt lat="44.4678772" lon="9.8460482"><ele>1268.0</ele><time>2026-04-26T14:54:22.794Z</time></trkpt><trkpt lat="44.467942" lon="9.8459869"><ele>1268.0</ele><time>2026-04-26T14:54:23.794Z</time></trkpt><trkpt lat="44.4679962" lon="9.8459151"><ele>1268.0</ele><time>2026-04-26T14:54:24.794Z</time></trkpt><trkpt lat="44.4680372" lon="9.8458322"><ele>1268.0</ele><time>2026-04-26T14:54:25.794Z</time></trkpt><trkpt lat="44.4680719" lon="9.8457294"><ele>1267.6</ele><time>2026-04-26T14:54:26.793Z</time></trkpt><trkpt lat="44.468099" lon="9.845611"><ele>1267.1999999999998</ele><time>2026-04-26T14:54:27.793Z</time></trkpt><trkpt lat="44.4681278" lon="9.8454895"><ele>1266.8</ele><time>2026-04-26T14:54:28.793Z</time></trkpt><trkpt lat="44.4681562" lon="9.8453585"><ele>1266.3999999999999</ele><time>2026-04-26T14:54:29.793Z</time></trkpt><trkpt lat="44.4681704" lon="9.8452243"><ele>1266.0</ele><time>2026-04-26T14:54:30.793Z</time></trkpt><trkpt lat="44.4681759" lon="9.8450862"><ele>1267.0</ele><time>2026-04-26T14:54:31.795Z</time></trkpt><trkpt lat="44.4681895" lon="9.8449549"><ele>1268.0</ele><time>2026-04-26T14:54:32.793Z</time></trkpt><trkpt lat="44.4682076" lon="9.8448238"><ele>1269.0</ele><time>2026-04-26T14:54:33.793Z</time></trkpt><trkpt lat="44.4682254" lon="9.8446917"><ele>1270.0</ele><time>2026-04-26T14:54:34.794Z</time></trkpt><trkpt lat="44.4682485" lon="9.8445662"><ele>1271.0</ele><time>2026-04-26T14:54:35.793Z</time></trkpt><trkpt lat="44.4682684" lon="9.8444428"><ele>1271.0</ele><time>2026-04-26T14:54:36.793Z</time></trkpt><trkpt lat="44.468264" lon="9.8443212"><ele>1271.0</ele><time>2026-04-26T14:54:37.794Z</time></trkpt><trkpt lat="44.4682527" lon="9.8441986"><ele>1271.0</ele><time>2026-04-26T14:54:38.794Z</time></trkpt><trkpt lat="44.4682543" lon="9.8440745"><ele>1271.0</ele><time>2026-04-26T14:54:39.793Z</time></trkpt><trkpt lat="44.4682583" lon="9.8439533"><ele>1271.0</ele><time>2026-04-26T14:54:40.793Z</time></trkpt><trkpt lat="44.4682626" lon="9.8438289"><ele>1271.0</ele><time>2026-04-26T14:54:41.793Z</time></trkpt><trkpt lat="44.468262" lon="9.8437099"><ele>1271.0</ele><time>2026-04-26T14:54:42.794Z</time></trkpt><trkpt lat="44.4682386" lon="9.8435968"><ele>1271.0</ele><time>2026-04-26T14:54:43.793Z</time></trkpt><trkpt lat="44.4682121" lon="9.8434852"><ele>1271.0</ele><time>2026-04-26T14:54:44.793Z</time></trkpt><trkpt lat="44.4681915" lon="9.8433791"><ele>1271.0</ele><time>2026-04-26T14:54:45.793Z</time></trkpt><trkpt lat="44.468175" lon="9.843271"><ele>1271.0</ele><time>2026-04-26T14:54:46.793Z</time></trkpt><trkpt lat="44.4681684" lon="9.8431621"><ele>1271.0</ele><time>2026-04-26T14:54:47.793Z</time></trkpt><trkpt lat="44.4681693" lon="9.8430706"><ele>1271.0</ele><time>2026-04-26T14:54:48.793Z</time></trkpt><trkpt lat="44.4681896" lon="9.8429026"><ele>1271.0</ele><time>2026-04-26T14:54:50.793Z</time></trkpt><trkpt lat="44.4682138" lon="9.8428023"><ele>1271.0</ele><time>2026-04-26T14:54:51.793Z</time></trkpt><trkpt lat="44.4682442" lon="9.8426996"><ele>1271.0</ele><time>2026-04-26T14:54:52.793Z</time></trkpt><trkpt lat="44.4682749" lon="9.8426008"><ele>1271.0</ele><time>2026-04-26T14:54:53.793Z</time></trkpt><trkpt lat="44.4683056" lon="9.8425105"><ele>1271.0</ele><time>2026-04-26T14:54:54.793Z</time></trkpt><trkpt lat="44.4683255" lon="9.8424258"><ele>1269.7142857142858</ele><time>2026-04-26T14:54:55.793Z</time></trkpt><trkpt lat="44.4683244" lon="9.8423339"><ele>1268.4285714285716</ele><time>2026-04-26T14:54:56.793Z</time></trkpt><trkpt lat="44.468316" lon="9.8422342"><ele>1267.1428571428573</ele><time>2026-04-26T14:54:57.793Z</time></trkpt><trkpt lat="44.4682969" lon="9.8421332"><ele>1265.857142857143</ele><time>2026-04-26T14:54:58.793Z</time></trkpt><trkpt lat="44.4682722" lon="9.8420273"><ele>1264.5714285714284</ele><time>2026-04-26T14:54:59.793Z</time></trkpt><trkpt lat="44.4682497" lon="9.8419245"><ele>1263.2857142857144</ele><time>2026-04-26T14:55:00.793Z</time></trkpt><trkpt lat="44.468241" lon="9.8418224"><ele>1262.0</ele><time>2026-04-26T14:55:01.793Z</time></trkpt><trkpt lat="44.4682519" lon="9.8417241"><ele>1260.5</ele><time>2026-04-26T14:55:02.793Z</time></trkpt><trkpt lat="44.4682592" lon="9.8416258"><ele>1259.0</ele><time>2026-04-26T14:55:03.793Z</time></trkpt><trkpt lat="44.4683024" lon="9.8415078"><ele>1257.5</ele><time>2026-04-26T14:55:04.793Z</time></trkpt><trkpt lat="44.4683168" lon="9.8413838"><ele>1256.0</ele><time>2026-04-26T14:55:05.793Z</time></trkpt><trkpt lat="44.4683312" lon="9.8412705"><ele>1254.5</ele><time>2026-04-26T14:55:06.793Z</time></trkpt><trkpt lat="44.468349" lon="9.8411576"><ele>1253.0</ele><time>2026-04-26T14:55:07.794Z</time></trkpt><trkpt lat="44.468359" lon="9.8410686"><ele>1253.0</ele><time>2026-04-26T14:55:08.794Z</time></trkpt><trkpt lat="44.4683836" lon="9.8409763"><ele>1253.0</ele><time>2026-04-26T14:55:09.793Z</time></trkpt><trkpt lat="44.468416" lon="9.8408995"><ele>1253.0</ele><time>2026-04-26T14:55:10.793Z</time></trkpt><trkpt lat="44.4684697" lon="9.8407612"><ele>1253.0</ele><time>2026-04-26T14:55:12.793Z</time></trkpt><trkpt lat="44.4685299" lon="9.8406265"><ele>1253.0</ele><time>2026-04-26T14:55:14.794Z</time></trkpt><trkpt lat="44.4685849" lon="9.8404732"><ele>1252.0</ele><time>2026-04-26T14:55:16.795Z</time></trkpt><trkpt lat="44.4686214" lon="9.8403837"><ele>1251.0</ele><time>2026-04-26T14:55:17.793Z</time></trkpt><trkpt lat="44.4686592" lon="9.84028"><ele>1250.0</ele><time>2026-04-26T14:55:18.794Z</time></trkpt><trkpt lat="44.4686813" lon="9.840128"><ele>1249.0</ele><time>2026-04-26T14:55:19.794Z</time></trkpt><trkpt lat="44.4687049" lon="9.8400102"><ele>1248.0</ele><time>2026-04-26T14:55:20.794Z</time></trkpt><trkpt lat="44.4687281" lon="9.8398778"><ele>1247.0</ele><time>2026-04-26T14:55:21.793Z</time></trkpt><trkpt lat="44.468753" lon="9.8397529"><ele>1246.0</ele><time>2026-04-26T14:55:22.794Z</time></trkpt><trkpt lat="44.4687725" lon="9.8396288"><ele>1245.0</ele><time>2026-04-26T14:55:23.793Z</time></trkpt><trkpt lat="44.4687895" lon="9.8395286"><ele>1244.0</ele><time>2026-04-26T14:55:24.794Z</time></trkpt><trkpt lat="44.4687983" lon="9.8394274"><ele>1243.0</ele><time>2026-04-26T14:55:25.793Z</time></trkpt><trkpt lat="44.4688087" lon="9.8393179"><ele>1242.0</ele><time>2026-04-26T14:55:26.793Z</time></trkpt><trkpt lat="44.4688214" lon="9.8392234"><ele>1241.3333333333333</ele><time>2026-04-26T14:55:27.793Z</time></trkpt><trkpt lat="44.4688331" lon="9.839116"><ele>1240.6666666666667</ele><time>2026-04-26T14:55:28.793Z</time></trkpt><trkpt lat="44.4688305" lon="9.8390026"><ele>1240.0</ele><time>2026-04-26T14:55:29.793Z</time></trkpt><trkpt lat="44.468825" lon="9.8388771"><ele>1239.3333333333335</ele><time>2026-04-26T14:55:30.793Z</time></trkpt><trkpt lat="44.4688165" lon="9.8387453"><ele>1238.6666666666667</ele><time>2026-04-26T14:55:31.793Z</time></trkpt><trkpt lat="44.4688067" lon="9.838622"><ele>1238.0</ele><time>2026-04-26T14:55:32.793Z</time></trkpt><trkpt lat="44.468794" lon="9.8384911"><ele>1238.25</ele><time>2026-04-26T14:55:33.793Z</time></trkpt><trkpt lat="44.4687757" lon="9.8383155"><ele>1238.5</ele><time>2026-04-26T14:55:35.793Z</time></trkpt><trkpt lat="44.4687761" lon="9.8381503"><ele>1238.75</ele><time>2026-04-26T14:55:37.793Z</time></trkpt><trkpt lat="44.4687866" lon="9.8379908"><ele>1239.0</ele><time>2026-04-26T14:55:39.794Z</time></trkpt><trkpt lat="44.4688111" lon="9.8378274"><ele>1239.0</ele><time>2026-04-26T14:55:41.793Z</time></trkpt><trkpt lat="44.4688401" lon="9.8376438"><ele>1239.0</ele><time>2026-04-26T14:55:43.793Z</time></trkpt><trkpt lat="44.4688543" lon="9.8375277"><ele>1239.0</ele><time>2026-04-26T14:55:44.793Z</time></trkpt><trkpt lat="44.4688706" lon="9.8374094"><ele>1239.0</ele><time>2026-04-26T14:55:45.794Z</time></trkpt><trkpt lat="44.4688945" lon="9.8373033"><ele>1239.0</ele><time>2026-04-26T14:55:46.793Z</time></trkpt><trkpt lat="44.4689257" lon="9.8372064"><ele>1239.2</ele><time>2026-04-26T14:55:47.794Z</time></trkpt><trkpt lat="44.4689649" lon="9.8371203"><ele>1239.4</ele><time>2026-04-26T14:55:48.793Z</time></trkpt><trkpt lat="44.4690323" lon="9.8369775"><ele>1239.6</ele><time>2026-04-26T14:55:50.793Z</time></trkpt><trkpt lat="44.4690877" lon="9.8368257"><ele>1239.8</ele><time>2026-04-26T14:55:52.793Z</time></trkpt><trkpt lat="44.4691382" lon="9.8366552"><ele>1240.0</ele><time>2026-04-26T14:55:54.793Z</time></trkpt><trkpt lat="44.4691703" lon="9.8365457"><ele>1238.3333333333333</ele><time>2026-04-26T14:55:55.793Z</time></trkpt><trkpt lat="44.4692015" lon="9.8364398"><ele>1236.6666666666665</ele><time>2026-04-26T14:55:56.793Z</time></trkpt><trkpt lat="44.4692309" lon="9.8363318"><ele>1235.0</ele><time>2026-04-26T14:55:57.793Z</time></trkpt><trkpt lat="44.469261" lon="9.8362267"><ele>1233.3333333333333</ele><time>2026-04-26T14:55:58.793Z</time></trkpt><trkpt lat="44.469292" lon="9.8361206"><ele>1231.6666666666667</ele><time>2026-04-26T14:55:59.793Z</time></trkpt><trkpt lat="44.4693197" lon="9.8360139"><ele>1230.0</ele><time>2026-04-26T14:56:00.793Z</time></trkpt><trkpt lat="44.4693451" lon="9.8359103"><ele>1228.1666666666667</ele><time>2026-04-26T14:56:01.793Z</time></trkpt><trkpt lat="44.4693722" lon="9.8358106"><ele>1226.3333333333333</ele><time>2026-04-26T14:56:02.793Z</time></trkpt><trkpt lat="44.4694004" lon="9.8357208"><ele>1224.5</ele><time>2026-04-26T14:56:03.793Z</time></trkpt><trkpt lat="44.4694258" lon="9.8356362"><ele>1222.6666666666665</ele><time>2026-04-26T14:56:04.793Z</time></trkpt><trkpt lat="44.469449" lon="9.8355515"><ele>1220.8333333333333</ele><time>2026-04-26T14:56:05.794Z</time></trkpt><trkpt lat="44.4694941" lon="9.835393"><ele>1219.0</ele><time>2026-04-26T14:56:07.793Z</time></trkpt><trkpt lat="44.4695544" lon="9.8352739"><ele>1219.0</ele><time>2026-04-26T14:56:09.793Z</time></trkpt><trkpt lat="44.4696031" lon="9.8351804"><ele>1219.0</ele><time>2026-04-26T14:56:11.793Z</time></trkpt><trkpt lat="44.4696275" lon="9.8350868"><ele>1219.0</ele><time>2026-04-26T14:56:13.795Z</time></trkpt><trkpt lat="44.4695707" lon="9.8349926"><ele>1219.0</ele><time>2026-04-26T14:56:15.794Z</time></trkpt><trkpt lat="44.4694652" lon="9.8349482"><ele>1219.0</ele><time>2026-04-26T14:56:17.794Z</time></trkpt><trkpt lat="44.4693979" lon="9.8349354"><ele>1219.0</ele><time>2026-04-26T14:56:18.794Z</time></trkpt><trkpt lat="44.4693354" lon="9.8349204"><ele>1217.1666666666665</ele><time>2026-04-26T14:56:19.794Z</time></trkpt><trkpt lat="44.4692724" lon="9.8348904"><ele>1215.3333333333333</ele><time>2026-04-26T14:56:20.793Z</time></trkpt><trkpt lat="44.4692143" lon="9.8348472"><ele>1213.5</ele><time>2026-04-26T14:56:21.793Z</time></trkpt><trkpt lat="44.4691223" lon="9.8347254"><ele>1211.6666666666667</ele><time>2026-04-26T14:56:23.793Z</time></trkpt><trkpt lat="44.469086" lon="9.8346452"><ele>1209.8333333333335</ele><time>2026-04-26T14:56:24.793Z</time></trkpt><trkpt lat="44.4690526" lon="9.8344851"><ele>1208.0</ele><time>2026-04-26T14:56:26.793Z</time></trkpt><trkpt lat="44.4690236" lon="9.8343249"><ele>1207.0</ele><time>2026-04-26T14:56:28.793Z</time></trkpt><trkpt lat="44.4689683" lon="9.8342245"><ele>1206.0</ele><time>2026-04-26T14:56:30.793Z</time></trkpt><trkpt lat="44.4689291" lon="9.8341518"><ele>1205.0</ele><time>2026-04-26T14:56:31.793Z</time></trkpt><trkpt lat="44.4688868" lon="9.8340551"><ele>1204.0</ele><time>2026-04-26T14:56:32.793Z</time></trkpt><trkpt lat="44.4688343" lon="9.8338719"><ele>1203.0</ele><time>2026-04-26T14:56:34.794Z</time></trkpt><trkpt lat="44.4688122" lon="9.8337497"><ele>1203.0</ele><time>2026-04-26T14:56:35.794Z</time></trkpt><trkpt lat="44.4688017" lon="9.8336584"><ele>1203.0</ele><time>2026-04-26T14:56:36.794Z</time></trkpt><trkpt lat="44.4688107" lon="9.8335566"><ele>1203.0</ele><time>2026-04-26T14:56:37.794Z</time></trkpt><trkpt lat="44.4688008" lon="9.8334501"><ele>1203.0</ele><time>2026-04-26T14:56:38.794Z</time></trkpt><trkpt lat="44.4687995" lon="9.8333539"><ele>1203.0</ele><time>2026-04-26T14:56:39.793Z</time></trkpt><trkpt lat="44.4687958" lon="9.8332611"><ele>1203.0</ele><time>2026-04-26T14:56:40.793Z</time></trkpt><trkpt lat="44.4688357" lon="9.8330905"><ele>1202.6666666666667</ele><time>2026-04-26T14:56:42.794Z</time></trkpt><trkpt lat="44.4688474" lon="9.8330026"><ele>1202.3333333333333</ele><time>2026-04-26T14:56:43.795Z</time></trkpt><trkpt lat="44.4688746" lon="9.8329112"><ele>1202.0</ele><time>2026-04-26T14:56:44.794Z</time></trkpt><trkpt lat="44.4688847" lon="9.8328136"><ele>1201.6666666666665</ele><time>2026-04-26T14:56:45.793Z</time></trkpt><trkpt lat="44.4688851" lon="9.8327129"><ele>1201.3333333333333</ele><time>2026-04-26T14:56:46.793Z</time></trkpt><trkpt lat="44.468895" lon="9.8325454"><ele>1201.0</ele><time>2026-04-26T14:56:48.793Z</time></trkpt><trkpt lat="44.4688778" lon="9.8323963"><ele>1199.2</ele><time>2026-04-26T14:56:50.794Z</time></trkpt><trkpt lat="44.4688244" lon="9.8322979"><ele>1197.3999999999999</ele><time>2026-04-26T14:56:52.793Z</time></trkpt><trkpt lat="44.4687619" lon="9.8322228"><ele>1195.6</ele><time>2026-04-26T14:56:54.793Z</time></trkpt><trkpt lat="44.4687085" lon="9.8321252"><ele>1193.8</ele><time>2026-04-26T14:56:57.793Z</time></trkpt><trkpt lat="44.4686623" lon="9.832034"><ele>1192.0</ele><time>2026-04-26T14:56:59.794Z</time></trkpt><trkpt lat="44.4686167" lon="9.8318909"><ele>1188.0</ele><time>2026-04-26T14:57:01.793Z</time></trkpt><trkpt lat="44.4685662" lon="9.8317753"><ele>1184.0</ele><time>2026-04-26T14:57:03.793Z</time></trkpt><trkpt lat="44.4684965" lon="9.8316756"><ele>1180.0</ele><time>2026-04-26T14:57:05.793Z</time></trkpt><trkpt lat="44.4684272" lon="9.831596"><ele>1176.0</ele><time>2026-04-26T14:57:07.793Z</time></trkpt><trkpt lat="44.4683964" lon="9.8314452"><ele>1172.0</ele><time>2026-04-26T14:57:09.793Z</time></trkpt><trkpt lat="44.4683854" lon="9.8313347"><ele>1172.0</ele><time>2026-04-26T14:57:10.795Z</time></trkpt><trkpt lat="44.4683801" lon="9.8312435"><ele>1172.0</ele><time>2026-04-26T14:57:11.794Z</time></trkpt><trkpt lat="44.4683689" lon="9.8310981"><ele>1172.0</ele><time>2026-04-26T14:57:12.794Z</time></trkpt><trkpt lat="44.46837" lon="9.8309858"><ele>1172.0</ele><time>2026-04-26T14:57:13.793Z</time></trkpt><trkpt lat="44.4683763" lon="9.8308799"><ele>1172.0</ele><time>2026-04-26T14:57:14.793Z</time></trkpt><trkpt lat="44.4683874" lon="9.830783"><ele>1172.0</ele><time>2026-04-26T14:57:15.793Z</time></trkpt><trkpt lat="44.4684062" lon="9.8306767"><ele>1170.9999999999998</ele><time>2026-04-26T14:57:16.794Z</time></trkpt><trkpt lat="44.4684197" lon="9.8305787"><ele>1170.0</ele><time>2026-04-26T14:57:17.793Z</time></trkpt><trkpt lat="44.4684205" lon="9.8304763"><ele>1169.0</ele><time>2026-04-26T14:57:18.793Z</time></trkpt><trkpt lat="44.4684147" lon="9.8303825"><ele>1168.0</ele><time>2026-04-26T14:57:19.793Z</time></trkpt><trkpt lat="44.468398" lon="9.830294"><ele>1167.0</ele><time>2026-04-26T14:57:20.794Z</time></trkpt><trkpt lat="44.4684055" lon="9.8301951"><ele>1165.9999999999998</ele><time>2026-04-26T14:57:21.793Z</time></trkpt><trkpt lat="44.4683775" lon="9.830086"><ele>1165.0</ele><time>2026-04-26T14:57:22.794Z</time></trkpt><trkpt lat="44.468351" lon="9.8299535"><ele>1164.2</ele><time>2026-04-26T14:57:23.793Z</time></trkpt><trkpt lat="44.4682964" lon="9.8298024"><ele>1163.4</ele><time>2026-04-26T14:57:25.794Z</time></trkpt><trkpt lat="44.468276" lon="9.8295979"><ele>1162.6</ele><time>2026-04-26T14:57:27.794Z</time></trkpt><trkpt lat="44.4682635" lon="9.8295078"><ele>1161.8</ele><time>2026-04-26T14:57:28.794Z</time></trkpt><trkpt lat="44.4682694" lon="9.8293973"><ele>1161.0</ele><time>2026-04-26T14:57:30.794Z</time></trkpt><trkpt lat="44.4682605" lon="9.8292722"><ele>1159.1666666666667</ele><time>2026-04-26T14:57:31.794Z</time></trkpt><trkpt lat="44.4682381" lon="9.8291585"><ele>1157.3333333333333</ele><time>2026-04-26T14:57:32.794Z</time></trkpt><trkpt lat="44.4682156" lon="9.8290397"><ele>1155.5</ele><time>2026-04-26T14:57:33.794Z</time></trkpt><trkpt lat="44.4681937" lon="9.8289218"><ele>1153.6666666666665</ele><time>2026-04-26T14:57:34.795Z</time></trkpt><trkpt lat="44.4681778" lon="9.8288161"><ele>1151.8333333333333</ele><time>2026-04-26T14:57:35.794Z</time></trkpt><trkpt lat="44.468158" lon="9.8287112"><ele>1150.0</ele><time>2026-04-26T14:57:36.794Z</time></trkpt><trkpt lat="44.4681151" lon="9.8286247"><ele>1150.0</ele><time>2026-04-26T14:57:37.794Z</time></trkpt><trkpt lat="44.4680802" lon="9.828533"><ele>1150.0</ele><time>2026-04-26T14:57:38.793Z</time></trkpt><trkpt lat="44.46802" lon="9.8284312"><ele>1150.0</ele><time>2026-04-26T14:57:39.793Z</time></trkpt><trkpt lat="44.4679916" lon="9.8283304"><ele>1150.0</ele><time>2026-04-26T14:57:40.793Z</time></trkpt><trkpt lat="44.4679729" lon="9.8282211"><ele>1150.0</ele><time>2026-04-26T14:57:41.793Z</time></trkpt><trkpt lat="44.4679414" lon="9.8281081"><ele>1150.0</ele><time>2026-04-26T14:57:42.793Z</time></trkpt><trkpt lat="44.4679122" lon="9.8279985"><ele>1149.1666666666665</ele><time>2026-04-26T14:57:43.793Z</time></trkpt><trkpt lat="44.4678854" lon="9.827901"><ele>1148.3333333333333</ele><time>2026-04-26T14:57:44.793Z</time></trkpt><trkpt lat="44.4678567" lon="9.8278066"><ele>1147.5</ele><time>2026-04-26T14:57:45.793Z</time></trkpt><trkpt lat="44.4678317" lon="9.8277145"><ele>1146.6666666666667</ele><time>2026-04-26T14:57:46.793Z</time></trkpt><trkpt lat="44.4677493" lon="9.8275776"><ele>1145.8333333333335</ele><time>2026-04-26T14:57:48.793Z</time></trkpt><trkpt lat="44.4676855" lon="9.8275129"><ele>1145.0</ele><time>2026-04-26T14:57:49.793Z</time></trkpt><trkpt lat="44.467617" lon="9.8274645"><ele>1145.0</ele><time>2026-04-26T14:57:50.793Z</time></trkpt><trkpt lat="44.4675563" lon="9.8274304"><ele>1145.0</ele><time>2026-04-26T14:57:51.793Z</time></trkpt><trkpt lat="44.4674898" lon="9.8273942"><ele>1145.0</ele><time>2026-04-26T14:57:52.794Z</time></trkpt><trkpt lat="44.4674242" lon="9.8273481"><ele>1145.0</ele><time>2026-04-26T14:57:53.794Z</time></trkpt><trkpt lat="44.4673661" lon="9.8272936"><ele>1145.0</ele><time>2026-04-26T14:57:54.794Z</time></trkpt><trkpt lat="44.4672968" lon="9.82714"><ele>1145.0</ele><time>2026-04-26T14:57:56.793Z</time></trkpt><trkpt lat="44.4672662" lon="9.8270417"><ele>1145.0</ele><time>2026-04-26T14:57:57.793Z</time></trkpt><trkpt lat="44.4672374" lon="9.8269388"><ele>1145.0</ele><time>2026-04-26T14:57:58.794Z</time></trkpt><trkpt lat="44.4672599" lon="9.826842"><ele>1145.0</ele><time>2026-04-26T14:57:59.794Z</time></trkpt><trkpt lat="44.467269" lon="9.8267326"><ele>1145.0</ele><time>2026-04-26T14:58:00.793Z</time></trkpt><trkpt lat="44.4672774" lon="9.8266247"><ele>1145.0</ele><time>2026-04-26T14:58:01.793Z</time></trkpt><trkpt lat="44.4672916" lon="9.8265173"><ele>1145.0</ele><time>2026-04-26T14:58:02.793Z</time></trkpt><trkpt lat="44.467306" lon="9.8264118"><ele>1145.2857142857144</ele><time>2026-04-26T14:58:03.793Z</time></trkpt><trkpt lat="44.467323" lon="9.8263056"><ele>1145.5714285714287</ele><time>2026-04-26T14:58:04.793Z</time></trkpt><trkpt lat="44.4673414" lon="9.8261935"><ele>1145.857142857143</ele><time>2026-04-26T14:58:05.793Z</time></trkpt><trkpt lat="44.4673486" lon="9.8261025"><ele>1146.1428571428573</ele><time>2026-04-26T14:58:06.793Z</time></trkpt><trkpt lat="44.4673559" lon="9.8260101"><ele>1146.4285714285716</ele><time>2026-04-26T14:58:07.793Z</time></trkpt><trkpt lat="44.4673523" lon="9.8259124"><ele>1146.7142857142858</ele><time>2026-04-26T14:58:08.794Z</time></trkpt><trkpt lat="44.4673426" lon="9.825821"><ele>1147.0</ele><time>2026-04-26T14:58:09.793Z</time></trkpt><trkpt lat="44.4673396" lon="9.8257248"><ele>1147.0</ele><time>2026-04-26T14:58:10.793Z</time></trkpt><trkpt lat="44.4673624" lon="9.8255515"><ele>1147.0</ele><time>2026-04-26T14:58:12.793Z</time></trkpt><trkpt lat="44.4673778" lon="9.8254469"><ele>1147.0</ele><time>2026-04-26T14:58:13.793Z</time></trkpt><trkpt lat="44.4674192" lon="9.8253733"><ele>1147.0</ele><time>2026-04-26T14:58:14.793Z</time></trkpt><trkpt lat="44.4674674" lon="9.825302"><ele>1147.0</ele><time>2026-04-26T14:58:15.793Z</time></trkpt><trkpt lat="44.4675033" lon="9.8252275"><ele>1147.0</ele><time>2026-04-26T14:58:16.794Z</time></trkpt><trkpt lat="44.4675488" lon="9.8251446"><ele>1145.142857142857</ele><time>2026-04-26T14:58:17.793Z</time></trkpt><trkpt lat="44.4675955" lon="9.825073"><ele>1143.2857142857142</ele><time>2026-04-26T14:58:18.794Z</time></trkpt><trkpt lat="44.4676442" lon="9.8250001"><ele>1141.4285714285716</ele><time>2026-04-26T14:58:19.793Z</time></trkpt><trkpt lat="44.4676843" lon="9.8249229"><ele>1139.5714285714284</ele><time>2026-04-26T14:58:20.794Z</time></trkpt><trkpt lat="44.4677178" lon="9.8248402"><ele>1137.7142857142858</ele><time>2026-04-26T14:58:21.793Z</time></trkpt><trkpt lat="44.4677381" lon="9.8247536"><ele>1135.857142857143</ele><time>2026-04-26T14:58:22.793Z</time></trkpt><trkpt lat="44.4677498" lon="9.8246655"><ele>1134.0</ele><time>2026-04-26T14:58:23.793Z</time></trkpt><trkpt lat="44.467754" lon="9.8245651"><ele>1134.0</ele><time>2026-04-26T14:58:24.793Z</time></trkpt><trkpt lat="44.4677561" lon="9.8243338"><ele>1134.0</ele><time>2026-04-26T14:58:26.793Z</time></trkpt><trkpt lat="44.4677446" lon="9.8242298"><ele>1134.0</ele><time>2026-04-26T14:58:27.793Z</time></trkpt><trkpt lat="44.4677309" lon="9.8241387"><ele>1134.0</ele><time>2026-04-26T14:58:28.793Z</time></trkpt><trkpt lat="44.4677146" lon="9.8240016"><ele>1134.0</ele><time>2026-04-26T14:58:30.793Z</time></trkpt><trkpt lat="44.467714" lon="9.8239096"><ele>1133.1666666666667</ele><time>2026-04-26T14:58:50.793Z</time></trkpt><trkpt lat="44.4677958" lon="9.8238455"><ele>1132.3333333333333</ele><time>2026-04-26T14:58:53.793Z</time></trkpt><trkpt lat="44.4678732" lon="9.8237695"><ele>1131.5</ele><time>2026-04-26T14:58:56.794Z</time></trkpt><trkpt lat="44.4679247" lon="9.823629"><ele>1130.6666666666665</ele><time>2026-04-26T14:58:58.794Z</time></trkpt><trkpt lat="44.4679521" lon="9.823548"><ele>1129.8333333333333</ele><time>2026-04-26T14:58:59.794Z</time></trkpt><trkpt lat="44.467976" lon="9.8234539"><ele>1129.0</ele><time>2026-04-26T14:59:00.794Z</time></trkpt><trkpt lat="44.4680052" lon="9.8233432"><ele>1128.1666666666665</ele><time>2026-04-26T14:59:01.794Z</time></trkpt><trkpt lat="44.4680337" lon="9.8232277"><ele>1127.3333333333333</ele><time>2026-04-26T14:59:02.793Z</time></trkpt><trkpt lat="44.4680531" lon="9.8231404"><ele>1126.5</ele><time>2026-04-26T14:59:03.793Z</time></trkpt><trkpt lat="44.4680783" lon="9.8230137"><ele>1125.6666666666667</ele><time>2026-04-26T14:59:05.793Z</time></trkpt><trkpt lat="44.4680863" lon="9.822911"><ele>1124.8333333333335</ele><time>2026-04-26T14:59:08.794Z</time></trkpt><trkpt lat="44.4680758" lon="9.8228024"><ele>1124.0</ele><time>2026-04-26T14:59:13.793Z</time></trkpt><trkpt lat="44.4680273" lon="9.8226939"><ele>1126.2</ele><time>2026-04-26T14:59:15.794Z</time></trkpt><trkpt lat="44.4679332" lon="9.8225939"><ele>1128.4</ele><time>2026-04-26T14:59:17.793Z</time></trkpt><trkpt lat="44.4678783" lon="9.8225429"><ele>1130.6</ele><time>2026-04-26T14:59:18.794Z</time></trkpt><trkpt lat="44.4678202" lon="9.8224948"><ele>1132.8</ele><time>2026-04-26T14:59:19.793Z</time></trkpt><trkpt lat="44.4677312" lon="9.8223964"><ele>1135.0</ele><time>2026-04-26T14:59:21.794Z</time></trkpt><trkpt lat="44.4676677" lon="9.8223035"><ele>1135.0</ele><time>2026-04-26T14:59:22.793Z</time></trkpt><trkpt lat="44.4676138" lon="9.822232"><ele>1135.0</ele><time>2026-04-26T14:59:23.793Z</time></trkpt><trkpt lat="44.4675964" lon="9.822143"><ele>1135.0</ele><time>2026-04-26T14:59:24.793Z</time></trkpt><trkpt lat="44.4675603" lon="9.822045"><ele>1135.0</ele><time>2026-04-26T14:59:25.794Z</time></trkpt><trkpt lat="44.4675476" lon="9.8219299"><ele>1135.0</ele><time>2026-04-26T14:59:26.795Z</time></trkpt><trkpt lat="44.4675135" lon="9.8218103"><ele>1135.0</ele><time>2026-04-26T14:59:27.794Z</time></trkpt><trkpt lat="44.4674894" lon="9.8216781"><ele>1133.6666666666665</ele><time>2026-04-26T14:59:28.793Z</time></trkpt><trkpt lat="44.4674612" lon="9.821549"><ele>1132.3333333333333</ele><time>2026-04-26T14:59:29.793Z</time></trkpt><trkpt lat="44.4674165" lon="9.8214398"><ele>1131.0</ele><time>2026-04-26T14:59:30.794Z</time></trkpt><trkpt lat="44.4673899" lon="9.8213401"><ele>1129.6666666666667</ele><time>2026-04-26T14:59:31.794Z</time></trkpt><trkpt lat="44.4673733" lon="9.8212475"><ele>1128.3333333333335</ele><time>2026-04-26T14:59:32.794Z</time></trkpt><trkpt lat="44.4673707" lon="9.821152"><ele>1127.0</ele><time>2026-04-26T14:59:33.794Z</time></trkpt><trkpt lat="44.4674329" lon="9.8209901"><ele>1127.0</ele><time>2026-04-26T14:59:35.793Z</time></trkpt><trkpt lat="44.4675274" lon="9.8209381"><ele>1127.0</ele><time>2026-04-26T14:59:36.793Z</time></trkpt><trkpt lat="44.4676028" lon="9.8208692"><ele>1127.0</ele><time>2026-04-26T14:59:37.793Z</time></trkpt><trkpt lat="44.4676678" lon="9.8208106"><ele>1127.0</ele><time>2026-04-26T14:59:38.793Z</time></trkpt><trkpt lat="44.467717" lon="9.8207502"><ele>1127.0</ele><time>2026-04-26T14:59:39.793Z</time></trkpt><trkpt lat="44.4677646" lon="9.8206084"><ele>1127.0</ele><time>2026-04-26T14:59:41.793Z</time></trkpt><trkpt lat="44.46778" lon="9.8205026"><ele>1127.0</ele><time>2026-04-26T14:59:43.793Z</time></trkpt><trkpt lat="44.4678588" lon="9.8204314"><ele>1127.0</ele><time>2026-04-26T14:59:46.793Z</time></trkpt><trkpt lat="44.4679234" lon="9.8204652"><ele>1127.0</ele><time>2026-04-26T14:59:47.794Z</time></trkpt><trkpt lat="44.4679845" lon="9.8205081"><ele>1127.0</ele><time>2026-04-26T14:59:48.794Z</time></trkpt><trkpt lat="44.468092" lon="9.8205543"><ele>1127.0</ele><time>2026-04-26T14:59:50.794Z</time></trkpt><trkpt lat="44.468238" lon="9.8205671"><ele>1123.2</ele><time>2026-04-26T14:59:52.794Z</time></trkpt><trkpt lat="44.4683395" lon="9.8205543"><ele>1119.4</ele><time>2026-04-26T14:59:53.793Z</time></trkpt><trkpt lat="44.4684654" lon="9.8205278"><ele>1115.6</ele><time>2026-04-26T14:59:54.793Z</time></trkpt><trkpt lat="44.4685471" lon="9.8204778"><ele>1111.8</ele><time>2026-04-26T14:59:55.793Z</time></trkpt><trkpt lat="44.4686383" lon="9.8204608"><ele>1108.0</ele><time>2026-04-26T14:59:56.794Z</time></trkpt><trkpt lat="44.4687254" lon="9.8204104"><ele>1106.857142857143</ele><time>2026-04-26T14:59:57.793Z</time></trkpt><trkpt lat="44.468807" lon="9.8203895"><ele>1105.7142857142856</ele><time>2026-04-26T14:59:58.793Z</time></trkpt><trkpt lat="44.4688791" lon="9.8203677"><ele>1104.5714285714284</ele><time>2026-04-26T14:59:59.794Z</time></trkpt><trkpt lat="44.4689493" lon="9.8203162"><ele>1103.4285714285713</ele><time>2026-04-26T15:00:00.794Z</time></trkpt><trkpt lat="44.4690057" lon="9.8202629"><ele>1102.2857142857142</ele><time>2026-04-26T15:00:01.793Z</time></trkpt><trkpt lat="44.4690634" lon="9.8202048"><ele>1101.142857142857</ele><time>2026-04-26T15:00:02.793Z</time></trkpt><trkpt lat="44.4691186" lon="9.8201359"><ele>1100.0</ele><time>2026-04-26T15:00:03.793Z</time></trkpt><trkpt lat="44.4691713" lon="9.8200409"><ele>1100.0</ele><time>2026-04-26T15:00:04.793Z</time></trkpt><trkpt lat="44.4691958" lon="9.8199284"><ele>1100.0</ele><time>2026-04-26T15:00:05.793Z</time></trkpt><trkpt lat="44.4691849" lon="9.8197421"><ele>1100.0</ele><time>2026-04-26T15:00:07.793Z</time></trkpt><trkpt lat="44.4692075" lon="9.8196422"><ele>1100.0</ele><time>2026-04-26T15:00:08.793Z</time></trkpt><trkpt lat="44.469235" lon="9.8195341"><ele>1100.0</ele><time>2026-04-26T15:00:09.793Z</time></trkpt><trkpt lat="44.469314" lon="9.819511"><ele>1100.0</ele><time>2026-04-26T15:00:10.794Z</time></trkpt><trkpt lat="44.469365" lon="9.8194327"><ele>1100.0</ele><time>2026-04-26T15:00:11.794Z</time></trkpt><trkpt lat="44.4693855" lon="9.8193378"><ele>1100.0</ele><time>2026-04-26T15:00:12.793Z</time></trkpt><trkpt lat="44.4694216" lon="9.819217"><ele>1100.0</ele><time>2026-04-26T15:00:13.794Z</time></trkpt><trkpt lat="44.4694644" lon="9.8190925"><ele>1100.0</ele><time>2026-04-26T15:00:14.793Z</time></trkpt><trkpt lat="44.4695112" lon="9.8189922"><ele>1100.0</ele><time>2026-04-26T15:00:15.794Z</time></trkpt><trkpt lat="44.4695642" lon="9.8189079"><ele>1096.8333333333335</ele><time>2026-04-26T15:00:16.793Z</time></trkpt><trkpt lat="44.4696205" lon="9.8188259"><ele>1093.6666666666667</ele><time>2026-04-26T15:00:17.793Z</time></trkpt><trkpt lat="44.4696785" lon="9.8187468"><ele>1090.5</ele><time>2026-04-26T15:00:18.793Z</time></trkpt><trkpt lat="44.4697361" lon="9.8186708"><ele>1087.3333333333333</ele><time>2026-04-26T15:00:19.794Z</time></trkpt><trkpt lat="44.4697964" lon="9.8185822"><ele>1084.1666666666665</ele><time>2026-04-26T15:00:20.793Z</time></trkpt><trkpt lat="44.4698388" lon="9.8184912"><ele>1081.0</ele><time>2026-04-26T15:00:21.793Z</time></trkpt><trkpt lat="44.4698867" lon="9.8184009"><ele>1081.0</ele><time>2026-04-26T15:00:22.793Z</time></trkpt><trkpt lat="44.4699208" lon="9.8183033"><ele>1081.0</ele><time>2026-04-26T15:00:23.793Z</time></trkpt><trkpt lat="44.4699367" lon="9.8181925"><ele>1081.0</ele><time>2026-04-26T15:00:24.793Z</time></trkpt><trkpt lat="44.4699366" lon="9.8180089"><ele>1081.0</ele><time>2026-04-26T15:00:26.793Z</time></trkpt><trkpt lat="44.4699514" lon="9.817899"><ele>1081.0</ele><time>2026-04-26T15:00:27.793Z</time></trkpt><trkpt lat="44.4700183" lon="9.8178254"><ele>1080.9999999999998</ele><time>2026-04-26T15:00:28.793Z</time></trkpt><trkpt lat="44.4700677" lon="9.817726"><ele>1081.0</ele><time>2026-04-26T15:00:29.793Z</time></trkpt><trkpt lat="44.4700945" lon="9.8176442"><ele>1081.0</ele><time>2026-04-26T15:00:30.794Z</time></trkpt><trkpt lat="44.470114" lon="9.8175585"><ele>1081.0</ele><time>2026-04-26T15:00:31.793Z</time></trkpt><trkpt lat="44.4701415" lon="9.817463"><ele>1081.0</ele><time>2026-04-26T15:00:32.794Z</time></trkpt><trkpt lat="44.470153" lon="9.8173554"><ele>1080.9999999999998</ele><time>2026-04-26T15:00:33.794Z</time></trkpt><trkpt lat="44.4701611" lon="9.817252"><ele>1081.0</ele><time>2026-04-26T15:00:34.794Z</time></trkpt><trkpt lat="44.4701119" lon="9.8171013"><ele>1081.8</ele><time>2026-04-26T15:00:35.793Z</time></trkpt><trkpt lat="44.4700676" lon="9.8169547"><ele>1082.6</ele><time>2026-04-26T15:00:36.793Z</time></trkpt><trkpt lat="44.4700771" lon="9.8168563"><ele>1083.4</ele><time>2026-04-26T15:00:37.793Z</time></trkpt><trkpt lat="44.4700932" lon="9.8167706"><ele>1084.2</ele><time>2026-04-26T15:00:38.793Z</time></trkpt><trkpt lat="44.4701632" lon="9.8166131"><ele>1085.0</ele><time>2026-04-26T15:00:40.793Z</time></trkpt><trkpt lat="44.4702532" lon="9.8165678"><ele>1085.0</ele><time>2026-04-26T15:00:41.793Z</time></trkpt><trkpt lat="44.4703151" lon="9.8165039"><ele>1085.0</ele><time>2026-04-26T15:00:42.794Z</time></trkpt><trkpt lat="44.4703724" lon="9.81644"><ele>1085.0</ele><time>2026-04-26T15:00:43.794Z</time></trkpt><trkpt lat="44.4704515" lon="9.8163816"><ele>1085.0</ele><time>2026-04-26T15:00:44.794Z</time></trkpt><trkpt lat="44.4705141" lon="9.8163292"><ele>1085.0</ele><time>2026-04-26T15:00:45.793Z</time></trkpt><trkpt lat="44.4705347" lon="9.8162062"><ele>1085.0</ele><time>2026-04-26T15:00:46.793Z</time></trkpt><trkpt lat="44.4705614" lon="9.8161236"><ele>1081.3333333333335</ele><time>2026-04-26T15:00:47.793Z</time></trkpt><trkpt lat="44.4705926" lon="9.8160417"><ele>1077.6666666666667</ele><time>2026-04-26T15:00:48.793Z</time></trkpt><trkpt lat="44.4706228" lon="9.8159131"><ele>1074.0</ele><time>2026-04-26T15:00:49.794Z</time></trkpt><trkpt lat="44.4706329" lon="9.8157918"><ele>1070.3333333333333</ele><time>2026-04-26T15:00:50.794Z</time></trkpt><trkpt lat="44.4706538" lon="9.8156698"><ele>1066.6666666666665</ele><time>2026-04-26T15:00:51.793Z</time></trkpt><trkpt lat="44.470676" lon="9.8155597"><ele>1063.0</ele><time>2026-04-26T15:00:52.793Z</time></trkpt><trkpt lat="44.4707098" lon="9.8154621"><ele>1063.0</ele><time>2026-04-26T15:00:53.793Z</time></trkpt><trkpt lat="44.4707582" lon="9.81537"><ele>1063.0</ele><time>2026-04-26T15:00:54.793Z</time></trkpt><trkpt lat="44.4708229" lon="9.815242"><ele>1063.0</ele><time>2026-04-26T15:00:56.793Z</time></trkpt><trkpt lat="44.4708402" lon="9.8150789"><ele>1063.0</ele><time>2026-04-26T15:00:58.793Z</time></trkpt><trkpt lat="44.470851" lon="9.8149762"><ele>1063.0</ele><time>2026-04-26T15:00:59.793Z</time></trkpt><trkpt lat="44.4708579" lon="9.8148713"><ele>1062.3333333333333</ele><time>2026-04-26T15:01:00.793Z</time></trkpt><trkpt lat="44.4708907" lon="9.8147783"><ele>1061.6666666666665</ele><time>2026-04-26T15:01:01.793Z</time></trkpt><trkpt lat="44.4709234" lon="9.8146904"><ele>1061.0</ele><time>2026-04-26T15:01:02.793Z</time></trkpt><trkpt lat="44.4710112" lon="9.8146014"><ele>1060.3333333333333</ele><time>2026-04-26T15:01:04.793Z</time></trkpt><trkpt lat="44.4711054" lon="9.8146404"><ele>1059.6666666666667</ele><time>2026-04-26T15:01:06.793Z</time></trkpt><trkpt lat="44.471155" lon="9.8147049"><ele>1059.0</ele><time>2026-04-26T15:01:07.793Z</time></trkpt><trkpt lat="44.4712091" lon="9.8147888"><ele>1059.0</ele><time>2026-04-26T15:01:08.793Z</time></trkpt><trkpt lat="44.4712536" lon="9.8148745"><ele>1059.0</ele><time>2026-04-26T15:01:09.793Z</time></trkpt><trkpt lat="44.4712995" lon="9.8149636"><ele>1059.0</ele><time>2026-04-26T15:01:10.793Z</time></trkpt><trkpt lat="44.4713248" lon="9.8150489"><ele>1059.0</ele><time>2026-04-26T15:01:11.793Z</time></trkpt><trkpt lat="44.4713147" lon="9.8151499"><ele>1059.0</ele><time>2026-04-26T15:01:12.793Z</time></trkpt><trkpt lat="44.4713357" lon="9.815248"><ele>1059.0</ele><time>2026-04-26T15:01:13.793Z</time></trkpt><trkpt lat="44.4713664" lon="9.8153696"><ele>1055.0</ele><time>2026-04-26T15:01:14.794Z</time></trkpt><trkpt lat="44.4713901" lon="9.8154923"><ele>1051.0</ele><time>2026-04-26T15:01:15.795Z</time></trkpt><trkpt lat="44.4714204" lon="9.8156002"><ele>1047.0</ele><time>2026-04-26T15:01:16.793Z</time></trkpt><trkpt lat="44.4714562" lon="9.8156958"><ele>1043.0</ele><time>2026-04-26T15:01:17.793Z</time></trkpt><trkpt lat="44.4715099" lon="9.815783"><ele>1039.0</ele><time>2026-04-26T15:01:18.795Z</time></trkpt><trkpt lat="44.4715852" lon="9.8158546"><ele>1035.0</ele><time>2026-04-26T15:01:19.794Z</time></trkpt><trkpt lat="44.4716501" lon="9.8159193"><ele>1035.4</ele><time>2026-04-26T15:01:20.793Z</time></trkpt><trkpt lat="44.4717107" lon="9.8159984"><ele>1035.8</ele><time>2026-04-26T15:01:21.793Z</time></trkpt><trkpt lat="44.4717704" lon="9.816094"><ele>1036.2</ele><time>2026-04-26T15:01:22.793Z</time></trkpt><trkpt lat="44.4718298" lon="9.816202"><ele>1036.6</ele><time>2026-04-26T15:01:23.793Z</time></trkpt><trkpt lat="44.4718885" lon="9.816308"><ele>1037.0</ele><time>2026-04-26T15:01:24.793Z</time></trkpt><trkpt lat="44.4719114" lon="9.8164278"><ele>1037.0</ele><time>2026-04-26T15:01:25.793Z</time></trkpt><trkpt lat="44.4719395" lon="9.8165318"><ele>1037.0</ele><time>2026-04-26T15:01:26.793Z</time></trkpt><trkpt lat="44.4719674" lon="9.8166141"><ele>1037.0</ele><time>2026-04-26T15:01:27.794Z</time></trkpt><trkpt lat="44.4720103" lon="9.8166817"><ele>1037.0</ele><time>2026-04-26T15:01:28.794Z</time></trkpt><trkpt lat="44.4721242" lon="9.8167735"><ele>1037.0</ele><time>2026-04-26T15:01:30.793Z</time></trkpt><trkpt lat="44.4721883" lon="9.8168019"><ele>1037.0</ele><time>2026-04-26T15:01:31.793Z</time></trkpt><trkpt lat="44.472274" lon="9.8168196"><ele>1033.8333333333335</ele><time>2026-04-26T15:01:32.794Z</time></trkpt><trkpt lat="44.4723481" lon="9.8168157"><ele>1030.6666666666667</ele><time>2026-04-26T15:01:33.793Z</time></trkpt><trkpt lat="44.472429" lon="9.8168038"><ele>1027.5</ele><time>2026-04-26T15:01:34.793Z</time></trkpt><trkpt lat="44.4725042" lon="9.816786"><ele>1024.3333333333333</ele><time>2026-04-26T15:01:35.794Z</time></trkpt><trkpt lat="44.4725808" lon="9.8167578"><ele>1021.1666666666666</ele><time>2026-04-26T15:01:36.794Z</time></trkpt><trkpt lat="44.4726616" lon="9.8167179"><ele>1018.0</ele><time>2026-04-26T15:01:37.793Z</time></trkpt><trkpt lat="44.4727426" lon="9.8166691"><ele>1018.0</ele><time>2026-04-26T15:01:38.793Z</time></trkpt><trkpt lat="44.4728116" lon="9.8166143"><ele>1018.0</ele><time>2026-04-26T15:01:39.793Z</time></trkpt><trkpt lat="44.4728996" lon="9.8165019"><ele>1018.0</ele><time>2026-04-26T15:01:41.793Z</time></trkpt><trkpt lat="44.4729435" lon="9.8163757"><ele>1018.0</ele><time>2026-04-26T15:01:43.794Z</time></trkpt><trkpt lat="44.4729171" lon="9.8162174"><ele>1018.0</ele><time>2026-04-26T15:01:45.793Z</time></trkpt><trkpt lat="44.4728685" lon="9.8160653"><ele>1017.2</ele><time>2026-04-26T15:01:47.794Z</time></trkpt><trkpt lat="44.4728391" lon="9.8159407"><ele>1016.4</ele><time>2026-04-26T15:01:48.792Z</time></trkpt><trkpt lat="44.4727968" lon="9.8158355"><ele>1015.6000000000001</ele><time>2026-04-26T15:01:49.792Z</time></trkpt><trkpt lat="44.4727922" lon="9.8156973"><ele>1014.8000000000001</ele><time>2026-04-26T15:01:50.793Z</time></trkpt><trkpt lat="44.4727833" lon="9.81555"><ele>1014.0</ele><time>2026-04-26T15:01:51.794Z</time></trkpt><trkpt lat="44.4727638" lon="9.8153835"><ele>1014.0</ele><time>2026-04-26T15:01:52.792Z</time></trkpt><trkpt lat="44.4727337" lon="9.8152359"><ele>1014.0000000000001</ele><time>2026-04-26T15:01:53.793Z</time></trkpt><trkpt lat="44.4727064" lon="9.8150957"><ele>1014.0000000000001</ele><time>2026-04-26T15:01:54.793Z</time></trkpt><trkpt lat="44.4726752" lon="9.8149615"><ele>1014.0</ele><time>2026-04-26T15:01:55.793Z</time></trkpt><trkpt lat="44.4726508" lon="9.8148348"><ele>1014.0</ele><time>2026-04-26T15:01:56.792Z</time></trkpt><trkpt lat="44.4726457" lon="9.8147455"><ele>1012.8000000000001</ele><time>2026-04-26T15:01:57.793Z</time></trkpt><trkpt lat="44.4726209" lon="9.8146406"><ele>1011.6000000000001</ele><time>2026-04-26T15:01:58.792Z</time></trkpt><trkpt lat="44.4725854" lon="9.8145186"><ele>1010.4</ele><time>2026-04-26T15:01:59.793Z</time></trkpt><trkpt lat="44.4725395" lon="9.8143469"><ele>1009.2</ele><time>2026-04-26T15:02:00.792Z</time></trkpt><trkpt lat="44.4724893" lon="9.8142305"><ele>1008.0</ele><time>2026-04-26T15:02:01.792Z</time></trkpt><trkpt lat="44.4724533" lon="9.8140839"><ele>1006.5999999999999</ele><time>2026-04-26T15:02:02.792Z</time></trkpt><trkpt lat="44.4724238" lon="9.8139467"><ele>1005.1999999999999</ele><time>2026-04-26T15:02:03.792Z</time></trkpt><trkpt lat="44.4724283" lon="9.8137949"><ele>1003.8</ele><time>2026-04-26T15:02:04.793Z</time></trkpt><trkpt lat="44.472453" lon="9.8136644"><ele>1002.4</ele><time>2026-04-26T15:02:05.792Z</time></trkpt><trkpt lat="44.4724713" lon="9.8135143"><ele>1001.0</ele><time>2026-04-26T15:02:06.792Z</time></trkpt><trkpt lat="44.4724668" lon="9.8133756"><ele>999.1666666666667</ele><time>2026-04-26T15:02:07.793Z</time></trkpt><trkpt lat="44.4724713" lon="9.8132518"><ele>997.3333333333334</ele><time>2026-04-26T15:02:08.792Z</time></trkpt><trkpt lat="44.4724726" lon="9.8131556"><ele>995.5</ele><time>2026-04-26T15:02:09.793Z</time></trkpt><trkpt lat="44.4724765" lon="9.8130336"><ele>993.6666666666667</ele><time>2026-04-26T15:02:10.793Z</time></trkpt><trkpt lat="44.4724984" lon="9.812906"><ele>991.8333333333334</ele><time>2026-04-26T15:02:11.792Z</time></trkpt><trkpt lat="44.4725243" lon="9.8127588"><ele>990.0</ele><time>2026-04-26T15:02:12.792Z</time></trkpt><trkpt lat="44.4725558" lon="9.812628"><ele>989.2</ele><time>2026-04-26T15:02:13.792Z</time></trkpt><trkpt lat="44.4725999" lon="9.8125039"><ele>988.4</ele><time>2026-04-26T15:02:14.792Z</time></trkpt><trkpt lat="44.4726315" lon="9.8123773"><ele>987.5999999999999</ele><time>2026-04-26T15:02:15.792Z</time></trkpt><trkpt lat="44.4726627" lon="9.8122451"><ele>986.8</ele><time>2026-04-26T15:02:16.792Z</time></trkpt><trkpt lat="44.472753" lon="9.8121192"><ele>986.0</ele><time>2026-04-26T15:02:17.792Z</time></trkpt><trkpt lat="44.4727838" lon="9.8120234"><ele>986.0</ele><time>2026-04-26T15:02:18.792Z</time></trkpt><trkpt lat="44.472869" lon="9.8118817"><ele>985.9999999999999</ele><time>2026-04-26T15:02:20.793Z</time></trkpt><trkpt lat="44.4728941" lon="9.8117932"><ele>985.9999999999999</ele><time>2026-04-26T15:02:21.793Z</time></trkpt><trkpt lat="44.4728803" lon="9.8117064"><ele>986.0</ele><time>2026-04-26T15:02:22.793Z</time></trkpt><trkpt lat="44.4728307" lon="9.8114617"><ele>986.0</ele><time>2026-04-26T15:02:24.792Z</time></trkpt><trkpt lat="44.4727632" lon="9.8113501"><ele>985.4</ele><time>2026-04-26T15:02:25.792Z</time></trkpt><trkpt lat="44.4727231" lon="9.811215"><ele>984.8</ele><time>2026-04-26T15:02:26.792Z</time></trkpt><trkpt lat="44.4726829" lon="9.811101"><ele>984.1999999999999</ele><time>2026-04-26T15:02:27.793Z</time></trkpt><trkpt lat="44.4726136" lon="9.8109758"><ele>983.5999999999999</ele><time>2026-04-26T15:02:28.793Z</time></trkpt><trkpt lat="44.4725844" lon="9.8108777"><ele>983.0</ele><time>2026-04-26T15:02:29.792Z</time></trkpt><trkpt lat="44.4725113" lon="9.8108107"><ele>981.6666666666667</ele><time>2026-04-26T15:02:30.792Z</time></trkpt><trkpt lat="44.4724459" lon="9.8107717"><ele>980.3333333333334</ele><time>2026-04-26T15:02:31.792Z</time></trkpt><trkpt lat="44.4723902" lon="9.8107112"><ele>979.0</ele><time>2026-04-26T15:02:32.792Z</time></trkpt><trkpt lat="44.4722886" lon="9.8106045"><ele>977.6666666666667</ele><time>2026-04-26T15:02:34.793Z</time></trkpt><trkpt lat="44.4722298" lon="9.8105064"><ele>976.3333333333334</ele><time>2026-04-26T15:02:35.792Z</time></trkpt><trkpt lat="44.4721862" lon="9.8104115"><ele>975.0</ele><time>2026-04-26T15:02:36.792Z</time></trkpt><trkpt lat="44.4721175" lon="9.8103102"><ele>975.4</ele><time>2026-04-26T15:02:37.792Z</time></trkpt><trkpt lat="44.4720548" lon="9.8102101"><ele>975.8</ele><time>2026-04-26T15:02:38.792Z</time></trkpt><trkpt lat="44.4719888" lon="9.810099"><ele>976.2</ele><time>2026-04-26T15:02:39.792Z</time></trkpt><trkpt lat="44.4719157" lon="9.8099792"><ele>976.6</ele><time>2026-04-26T15:02:40.792Z</time></trkpt><trkpt lat="44.4718541" lon="9.8098378"><ele>977.0</ele><time>2026-04-26T15:02:41.792Z</time></trkpt><trkpt lat="44.4718338" lon="9.8097267"><ele>977.0000000000001</ele><time>2026-04-26T15:02:42.794Z</time></trkpt><trkpt lat="44.4717996" lon="9.8095962"><ele>977.0</ele><time>2026-04-26T15:02:43.793Z</time></trkpt><trkpt lat="44.4717809" lon="9.8094812"><ele>977.0</ele><time>2026-04-26T15:02:44.793Z</time></trkpt><trkpt lat="44.4717619" lon="9.8093662"><ele>977.0</ele><time>2026-04-26T15:02:45.792Z</time></trkpt><trkpt lat="44.4717574" lon="9.8092535"><ele>977.0000000000001</ele><time>2026-04-26T15:02:46.792Z</time></trkpt><trkpt lat="44.4717438" lon="9.8091189"><ele>977.0</ele><time>2026-04-26T15:02:48.793Z</time></trkpt><trkpt lat="44.471688" lon="9.8089769"><ele>975.1666666666667</ele><time>2026-04-26T15:02:50.793Z</time></trkpt><trkpt lat="44.4716519" lon="9.8088991"><ele>973.3333333333334</ele><time>2026-04-26T15:02:51.793Z</time></trkpt><trkpt lat="44.4716129" lon="9.8088081"><ele>971.5</ele><time>2026-04-26T15:02:52.792Z</time></trkpt><trkpt lat="44.47157" lon="9.8086644"><ele>969.6666666666667</ele><time>2026-04-26T15:02:53.793Z</time></trkpt><trkpt lat="44.4715661" lon="9.8085198"><ele>967.8333333333334</ele><time>2026-04-26T15:02:54.792Z</time></trkpt><trkpt lat="44.4715531" lon="9.808404"><ele>966.0</ele><time>2026-04-26T15:02:55.792Z</time></trkpt><trkpt lat="44.4715244" lon="9.8082775"><ele>963.1999999999999</ele><time>2026-04-26T15:02:56.792Z</time></trkpt><trkpt lat="44.4715018" lon="9.8081566"><ele>960.3999999999999</ele><time>2026-04-26T15:02:57.792Z</time></trkpt><trkpt lat="44.4715643" lon="9.8080755"><ele>957.6</ele><time>2026-04-26T15:02:59.792Z</time></trkpt><trkpt lat="44.4716532" lon="9.8080517"><ele>954.8</ele><time>2026-04-26T15:03:02.793Z</time></trkpt><trkpt lat="44.4717468" lon="9.8081646"><ele>952.0</ele><time>2026-04-26T15:03:04.792Z</time></trkpt><trkpt lat="44.4718679" lon="9.8082434"><ele>952.0</ele><time>2026-04-26T15:03:06.792Z</time></trkpt><trkpt lat="44.4719588" lon="9.8082792"><ele>952.0</ele><time>2026-04-26T15:03:07.793Z</time></trkpt><trkpt lat="44.4720222" lon="9.8083088"><ele>952.0</ele><time>2026-04-26T15:03:08.793Z</time></trkpt><trkpt lat="44.4720982" lon="9.8083484"><ele>952.0</ele><time>2026-04-26T15:03:09.792Z</time></trkpt><trkpt lat="44.4721762" lon="9.8083856"><ele>952.0</ele><time>2026-04-26T15:03:10.792Z</time></trkpt><trkpt lat="44.4722794" lon="9.8084981"><ele>949.6</ele><time>2026-04-26T15:03:11.794Z</time></trkpt><trkpt lat="44.472416" lon="9.8085319"><ele>947.2</ele><time>2026-04-26T15:03:13.793Z</time></trkpt><trkpt lat="44.4725249" lon="9.8085155"><ele>944.8</ele><time>2026-04-26T15:03:14.793Z</time></trkpt><trkpt lat="44.4726217" lon="9.8085437"><ele>942.4</ele><time>2026-04-26T15:03:15.792Z</time></trkpt><trkpt lat="44.4727062" lon="9.8085634"><ele>940.0</ele><time>2026-04-26T15:03:16.792Z</time></trkpt><trkpt lat="44.4727969" lon="9.8085879"><ele>940.0</ele><time>2026-04-26T15:03:17.793Z</time></trkpt><trkpt lat="44.4728715" lon="9.8086116"><ele>940.0</ele><time>2026-04-26T15:03:18.793Z</time></trkpt><trkpt lat="44.4729512" lon="9.808663"><ele>940.0</ele><time>2026-04-26T15:03:19.793Z</time></trkpt><trkpt lat="44.4730349" lon="9.8087153"><ele>940.0</ele><time>2026-04-26T15:03:20.793Z</time></trkpt><trkpt lat="44.4731171" lon="9.8087882"><ele>940.0</ele><time>2026-04-26T15:03:21.792Z</time></trkpt><trkpt lat="44.4731821" lon="9.8089062"><ele>938.8</ele><time>2026-04-26T15:03:22.792Z</time></trkpt><trkpt lat="44.4732208" lon="9.809007"><ele>937.6</ele><time>2026-04-26T15:03:23.793Z</time></trkpt><trkpt lat="44.4732972" lon="9.8091386"><ele>936.4000000000001</ele><time>2026-04-26T15:03:24.794Z</time></trkpt><trkpt lat="44.4733756" lon="9.8092489"><ele>935.2</ele><time>2026-04-26T15:03:25.793Z</time></trkpt><trkpt lat="44.4734583" lon="9.8093935"><ele>934.0</ele><time>2026-04-26T15:03:26.793Z</time></trkpt><trkpt lat="44.4735452" lon="9.8095208"><ele>934.0</ele><time>2026-04-26T15:03:27.793Z</time></trkpt><trkpt lat="44.4736104" lon="9.8096084"><ele>934.0000000000001</ele><time>2026-04-26T15:03:28.793Z</time></trkpt><trkpt lat="44.4736863" lon="9.8097122"><ele>934.0000000000001</ele><time>2026-04-26T15:03:29.792Z</time></trkpt><trkpt lat="44.4737562" lon="9.8098259"><ele>934.0</ele><time>2026-04-26T15:03:30.792Z</time></trkpt><trkpt lat="44.4738322" lon="9.8099458"><ele>934.0</ele><time>2026-04-26T15:03:31.793Z</time></trkpt><trkpt lat="44.4739046" lon="9.8100834"><ele>929.6666666666666</ele><time>2026-04-26T15:03:32.793Z</time></trkpt><trkpt lat="44.4739953" lon="9.8101824"><ele>925.3333333333333</ele><time>2026-04-26T15:03:33.792Z</time></trkpt><trkpt lat="44.4740726" lon="9.8102906"><ele>921.0</ele><time>2026-04-26T15:03:34.793Z</time></trkpt><trkpt lat="44.4740695" lon="9.8104003"><ele>916.6666666666667</ele><time>2026-04-26T15:03:35.793Z</time></trkpt><trkpt lat="44.4741315" lon="9.8104456"><ele>912.3333333333334</ele><time>2026-04-26T15:03:36.793Z</time></trkpt><trkpt lat="44.4741859" lon="9.8104967"><ele>908.0</ele><time>2026-04-26T15:03:37.794Z</time></trkpt><trkpt lat="44.4742615" lon="9.8106313"><ele>908.0</ele><time>2026-04-26T15:03:39.793Z</time></trkpt><trkpt lat="44.4743189" lon="9.8108152"><ele>908.0</ele><time>2026-04-26T15:03:41.793Z</time></trkpt><trkpt lat="44.4743423" lon="9.8109101"><ele>908.0</ele><time>2026-04-26T15:03:42.793Z</time></trkpt><trkpt lat="44.4743827" lon="9.8110597"><ele>908.0</ele><time>2026-04-26T15:03:43.792Z</time></trkpt><trkpt lat="44.4744258" lon="9.8111876"><ele>908.0</ele><time>2026-04-26T15:03:44.792Z</time></trkpt><trkpt lat="44.4744773" lon="9.8113335"><ele>908.8</ele><time>2026-04-26T15:03:45.792Z</time></trkpt><trkpt lat="44.4745023" lon="9.8114708"><ele>909.5999999999999</ele><time>2026-04-26T15:03:46.792Z</time></trkpt><trkpt lat="44.4745372" lon="9.8116095"><ele>910.4000000000001</ele><time>2026-04-26T15:03:47.792Z</time></trkpt><trkpt lat="44.4745779" lon="9.8117491"><ele>911.2</ele><time>2026-04-26T15:03:48.794Z</time></trkpt><trkpt lat="44.4746217" lon="9.8118799"><ele>912.0</ele><time>2026-04-26T15:03:49.792Z</time></trkpt><trkpt lat="44.474686" lon="9.8119658"><ele>905.6</ele><time>2026-04-26T15:03:50.792Z</time></trkpt><trkpt lat="44.4747415" lon="9.812068"><ele>899.2</ele><time>2026-04-26T15:03:51.792Z</time></trkpt><trkpt lat="44.4748108" lon="9.8121612"><ele>892.8</ele><time>2026-04-26T15:03:52.793Z</time></trkpt><trkpt lat="44.4748638" lon="9.8122368"><ele>886.4</ele><time>2026-04-26T15:03:53.792Z</time></trkpt><trkpt lat="44.4749249" lon="9.8124073"><ele>880.0</ele><time>2026-04-26T15:03:55.792Z</time></trkpt><trkpt lat="44.4749501" lon="9.8124898"><ele>880.0</ele><time>2026-04-26T15:03:56.792Z</time></trkpt><trkpt lat="44.474971" lon="9.8125744"><ele>880.0</ele><time>2026-04-26T15:03:57.792Z</time></trkpt><trkpt lat="44.4749639" lon="9.8127558"><ele>880.0</ele><time>2026-04-26T15:03:59.792Z</time></trkpt><trkpt lat="44.4749845" lon="9.8129145"><ele>880.0</ele><time>2026-04-26T15:04:01.792Z</time></trkpt><trkpt lat="44.4750569" lon="9.8130319"><ele>880.0</ele><time>2026-04-26T15:04:03.792Z</time></trkpt><trkpt lat="44.4751168" lon="9.8130946"><ele>882.3333333333333</ele><time>2026-04-26T15:04:04.792Z</time></trkpt><trkpt lat="44.4751706" lon="9.8131638"><ele>884.6666666666666</ele><time>2026-04-26T15:04:05.793Z</time></trkpt><trkpt lat="44.4752212" lon="9.8132433"><ele>887.0</ele><time>2026-04-26T15:04:06.792Z</time></trkpt><trkpt lat="44.4752436" lon="9.8133352"><ele>889.3333333333333</ele><time>2026-04-26T15:04:07.792Z</time></trkpt><trkpt lat="44.4752546" lon="9.8134367"><ele>891.6666666666666</ele><time>2026-04-26T15:04:08.794Z</time></trkpt><trkpt lat="44.475264" lon="9.8135528"><ele>894.0</ele><time>2026-04-26T15:04:09.793Z</time></trkpt><trkpt lat="44.4752689" lon="9.8136759"><ele>896.0</ele><time>2026-04-26T15:04:10.792Z</time></trkpt><trkpt lat="44.4752673" lon="9.8137966"><ele>898.0</ele><time>2026-04-26T15:04:11.792Z</time></trkpt><trkpt lat="44.4752704" lon="9.8139243"><ele>900.0</ele><time>2026-04-26T15:04:12.792Z</time></trkpt><trkpt lat="44.4752839" lon="9.8140452"><ele>902.0</ele><time>2026-04-26T15:04:13.792Z</time></trkpt><trkpt lat="44.4752918" lon="9.8141692"><ele>904.0</ele><time>2026-04-26T15:04:14.792Z</time></trkpt><trkpt lat="44.4752967" lon="9.8142922"><ele>906.0</ele><time>2026-04-26T15:04:15.792Z</time></trkpt><trkpt lat="44.4753071" lon="9.814408"><ele>908.8333333333334</ele><time>2026-04-26T15:04:16.792Z</time></trkpt><trkpt lat="44.4753486" lon="9.8145165"><ele>911.6666666666667</ele><time>2026-04-26T15:04:17.794Z</time></trkpt><trkpt lat="44.4753887" lon="9.8146189"><ele>914.5</ele><time>2026-04-26T15:04:18.794Z</time></trkpt><trkpt lat="44.4754294" lon="9.8147197"><ele>917.3333333333334</ele><time>2026-04-26T15:04:19.792Z</time></trkpt><trkpt lat="44.4754856" lon="9.814802"><ele>920.1666666666667</ele><time>2026-04-26T15:04:20.792Z</time></trkpt><trkpt lat="44.4755343" lon="9.8148683"><ele>923.0</ele><time>2026-04-26T15:04:21.792Z</time></trkpt><trkpt lat="44.4755888" lon="9.8149287"><ele>919.5000000000001</ele><time>2026-04-26T15:04:22.793Z</time></trkpt><trkpt lat="44.4756479" lon="9.8149785"><ele>916.0</ele><time>2026-04-26T15:04:23.793Z</time></trkpt><trkpt lat="44.4757162" lon="9.8150345"><ele>912.5</ele><time>2026-04-26T15:04:24.792Z</time></trkpt><trkpt lat="44.4757875" lon="9.8150826"><ele>909.0</ele><time>2026-04-26T15:04:25.792Z</time></trkpt><trkpt lat="44.4758562" lon="9.8151306"><ele>905.5000000000001</ele><time>2026-04-26T15:04:26.792Z</time></trkpt><trkpt lat="44.4759256" lon="9.8151745"><ele>902.0</ele><time>2026-04-26T15:04:27.793Z</time></trkpt><trkpt lat="44.4760004" lon="9.8152233"><ele>902.0</ele><time>2026-04-26T15:04:28.793Z</time></trkpt><trkpt lat="44.4760719" lon="9.8152804"><ele>902.0</ele><time>2026-04-26T15:04:29.792Z</time></trkpt><trkpt lat="44.4761427" lon="9.8153342"><ele>902.0</ele><time>2026-04-26T15:04:30.792Z</time></trkpt><trkpt lat="44.4762145" lon="9.8153992"><ele>902.0</ele><time>2026-04-26T15:04:31.792Z</time></trkpt><trkpt lat="44.4762861" lon="9.8154749"><ele>902.0</ele><time>2026-04-26T15:04:32.794Z</time></trkpt><trkpt lat="44.4763563" lon="9.8156"><ele>898.4000000000001</ele><time>2026-04-26T15:04:33.792Z</time></trkpt><trkpt lat="44.476411" lon="9.8157067"><ele>894.8000000000001</ele><time>2026-04-26T15:04:34.792Z</time></trkpt><trkpt lat="44.4764587" lon="9.8158179"><ele>891.2</ele><time>2026-04-26T15:04:35.792Z</time></trkpt><trkpt lat="44.4765022" lon="9.8159284"><ele>887.6</ele><time>2026-04-26T15:04:36.792Z</time></trkpt><trkpt lat="44.476554" lon="9.8160373"><ele>884.0</ele><time>2026-04-26T15:04:37.793Z</time></trkpt><trkpt lat="44.4765998" lon="9.8161504"><ele>884.0</ele><time>2026-04-26T15:04:38.792Z</time></trkpt><trkpt lat="44.4766547" lon="9.8162611"><ele>884.0000000000001</ele><time>2026-04-26T15:04:39.792Z</time></trkpt><trkpt lat="44.4767356" lon="9.8163524"><ele>884.0000000000001</ele><time>2026-04-26T15:04:40.792Z</time></trkpt><trkpt lat="44.4768218" lon="9.8164315"><ele>884.0</ele><time>2026-04-26T15:04:41.792Z</time></trkpt><trkpt lat="44.4769163" lon="9.8164932"><ele>884.0</ele><time>2026-04-26T15:04:42.792Z</time></trkpt><trkpt lat="44.4770199" lon="9.8165601"><ele>882.75</ele><time>2026-04-26T15:04:43.792Z</time></trkpt><trkpt lat="44.4771178" lon="9.8166485"><ele>881.5</ele><time>2026-04-26T15:04:44.793Z</time></trkpt><trkpt lat="44.4771852" lon="9.8167697"><ele>880.25</ele><time>2026-04-26T15:04:45.793Z</time></trkpt><trkpt lat="44.4772627" lon="9.81689"><ele>879.0</ele><time>2026-04-26T15:04:46.793Z</time></trkpt><trkpt lat="44.4773335" lon="9.8170102"><ele>878.0</ele><time>2026-04-26T15:04:47.792Z</time></trkpt><trkpt lat="44.4773976" lon="9.8171189"><ele>877.0000000000001</ele><time>2026-04-26T15:04:48.792Z</time></trkpt><trkpt lat="44.4774659" lon="9.8172164"><ele>876.0000000000001</ele><time>2026-04-26T15:04:49.792Z</time></trkpt><trkpt lat="44.4775461" lon="9.817304"><ele>875.0</ele><time>2026-04-26T15:04:50.792Z</time></trkpt><trkpt lat="44.4776312" lon="9.8173867"><ele>874.0</ele><time>2026-04-26T15:04:51.792Z</time></trkpt><trkpt lat="44.4777075" lon="9.8174652"><ele>874.0</ele><time>2026-04-26T15:04:52.792Z</time></trkpt><trkpt lat="44.4777796" lon="9.8175233"><ele>874.0</ele><time>2026-04-26T15:04:53.792Z</time></trkpt><trkpt lat="44.477899" lon="9.8174748"><ele>874.0</ele><time>2026-04-26T15:04:54.792Z</time></trkpt><trkpt lat="44.4780196" lon="9.8173215"><ele>874.0</ele><time>2026-04-26T15:04:55.792Z</time></trkpt><trkpt lat="44.4781504" lon="9.8171995"><ele>871.5</ele><time>2026-04-26T15:04:56.792Z</time></trkpt><trkpt lat="44.4782567" lon="9.8171151"><ele>869.0</ele><time>2026-04-26T15:04:57.792Z</time></trkpt><trkpt lat="44.4783612" lon="9.8170411"><ele>866.5</ele><time>2026-04-26T15:04:58.792Z</time></trkpt><trkpt lat="44.4784669" lon="9.8169942"><ele>864.0</ele><time>2026-04-26T15:04:59.792Z</time></trkpt><trkpt lat="44.4785691" lon="9.8169642"><ele>864.0</ele><time>2026-04-26T15:05:00.792Z</time></trkpt><trkpt lat="44.4786666" lon="9.8170352"><ele>864.0000000000001</ele><time>2026-04-26T15:05:01.792Z</time></trkpt><trkpt lat="44.4787578" lon="9.8171253"><ele>864.0000000000001</ele><time>2026-04-26T15:05:02.792Z</time></trkpt><trkpt lat="44.4788402" lon="9.8171983"><ele>864.0</ele><time>2026-04-26T15:05:03.792Z</time></trkpt><trkpt lat="44.4789266" lon="9.817226"><ele>864.0</ele><time>2026-04-26T15:05:04.792Z</time></trkpt><trkpt lat="44.4790252" lon="9.8172207"><ele>861.8000000000001</ele><time>2026-04-26T15:05:05.793Z</time></trkpt><trkpt lat="44.4791094" lon="9.8172268"><ele>859.6000000000001</ele><time>2026-04-26T15:05:06.792Z</time></trkpt><trkpt lat="44.4791717" lon="9.8170999"><ele>857.4</ele><time>2026-04-26T15:05:07.793Z</time></trkpt><trkpt lat="44.4792316" lon="9.8169954"><ele>855.2</ele><time>2026-04-26T15:05:08.793Z</time></trkpt><trkpt lat="44.4792747" lon="9.8168826"><ele>853.0</ele><time>2026-04-26T15:05:09.793Z</time></trkpt><trkpt lat="44.4792718" lon="9.8167688"><ele>853.0</ele><time>2026-04-26T15:05:10.792Z</time></trkpt><trkpt lat="44.4792615" lon="9.8166571"><ele>853.0</ele><time>2026-04-26T15:05:11.792Z</time></trkpt><trkpt lat="44.4792348" lon="9.8165222"><ele>853.0</ele><time>2026-04-26T15:05:12.792Z</time></trkpt><trkpt lat="44.4792016" lon="9.8163921"><ele>853.0</ele><time>2026-04-26T15:05:13.792Z</time></trkpt><trkpt lat="44.4791817" lon="9.8162135"><ele>853.0</ele><time>2026-04-26T15:05:14.793Z</time></trkpt><trkpt lat="44.4791774" lon="9.8160497"><ele>851.5999999999999</ele><time>2026-04-26T15:05:15.792Z</time></trkpt><trkpt lat="44.479119" lon="9.815905"><ele>850.1999999999999</ele><time>2026-04-26T15:05:16.792Z</time></trkpt><trkpt lat="44.4790816" lon="9.8157571"><ele>848.8</ele><time>2026-04-26T15:05:17.792Z</time></trkpt><trkpt lat="44.479049" lon="9.8156124"><ele>847.4</ele><time>2026-04-26T15:05:18.792Z</time></trkpt><trkpt lat="44.4790729" lon="9.815496"><ele>846.0</ele><time>2026-04-26T15:05:19.792Z</time></trkpt><trkpt lat="44.4791231" lon="9.8153988"><ele>846.0</ele><time>2026-04-26T15:05:20.792Z</time></trkpt><trkpt lat="44.4792083" lon="9.8153485"><ele>846.0</ele><time>2026-04-26T15:05:21.792Z</time></trkpt><trkpt lat="44.4793044" lon="9.815315"><ele>846.0</ele><time>2026-04-26T15:05:22.792Z</time></trkpt><trkpt lat="44.4794209" lon="9.8152835"><ele>846.0</ele><time>2026-04-26T15:05:23.793Z</time></trkpt><trkpt lat="44.4795102" lon="9.8152201"><ele>846.0</ele><time>2026-04-26T15:05:24.792Z</time></trkpt><trkpt lat="44.4795927" lon="9.8151558"><ele>844.4</ele><time>2026-04-26T15:05:25.792Z</time></trkpt><trkpt lat="44.4796102" lon="9.8149932"><ele>842.8</ele><time>2026-04-26T15:05:26.792Z</time></trkpt><trkpt lat="44.4796371" lon="9.8148559"><ele>841.1999999999999</ele><time>2026-04-26T15:05:27.792Z</time></trkpt><trkpt lat="44.4796316" lon="9.8147019"><ele>839.5999999999999</ele><time>2026-04-26T15:05:28.792Z</time></trkpt><trkpt lat="44.4796177" lon="9.8145523"><ele>838.0</ele><time>2026-04-26T15:05:29.792Z</time></trkpt><trkpt lat="44.4795868" lon="9.8144179"><ele>836.2</ele><time>2026-04-26T15:05:30.792Z</time></trkpt><trkpt lat="44.4795465" lon="9.8143033"><ele>834.4</ele><time>2026-04-26T15:05:31.792Z</time></trkpt><trkpt lat="44.4794999" lon="9.8141953"><ele>832.6</ele><time>2026-04-26T15:05:32.792Z</time></trkpt><trkpt lat="44.4794392" lon="9.8140904"><ele>830.8000000000001</ele><time>2026-04-26T15:05:33.792Z</time></trkpt><trkpt lat="44.4793316" lon="9.8140808"><ele>829.0</ele><time>2026-04-26T15:05:34.792Z</time></trkpt><trkpt lat="44.4792396" lon="9.8140386"><ele>829.0</ele><time>2026-04-26T15:05:35.792Z</time></trkpt><trkpt lat="44.4791049" lon="9.814119"><ele>829.0</ele><time>2026-04-26T15:05:36.793Z</time></trkpt><trkpt lat="44.4789941" lon="9.8141509"><ele>829.0</ele><time>2026-04-26T15:05:37.792Z</time></trkpt><trkpt lat="44.4788891" lon="9.8142089"><ele>829.0</ele><time>2026-04-26T15:05:38.792Z</time></trkpt><trkpt lat="44.4787679" lon="9.8142993"><ele>829.25</ele><time>2026-04-26T15:05:39.792Z</time></trkpt><trkpt lat="44.4786452" lon="9.8143861"><ele>829.5</ele><time>2026-04-26T15:05:40.792Z</time></trkpt><trkpt lat="44.4785216" lon="9.8144156"><ele>829.75</ele><time>2026-04-26T15:05:41.792Z</time></trkpt><trkpt lat="44.4784165" lon="9.8143822"><ele>830.0</ele><time>2026-04-26T15:05:42.792Z</time></trkpt><trkpt lat="44.4783516" lon="9.8142922"><ele>830.0</ele><time>2026-04-26T15:05:43.792Z</time></trkpt><trkpt lat="44.4783057" lon="9.814175"><ele>830.0</ele><time>2026-04-26T15:05:44.792Z</time></trkpt><trkpt lat="44.4782879" lon="9.8140239"><ele>830.0</ele><time>2026-04-26T15:05:45.792Z</time></trkpt><trkpt lat="44.4783113" lon="9.8138741"><ele>830.0</ele><time>2026-04-26T15:05:46.792Z</time></trkpt><trkpt lat="44.4783585" lon="9.8137292"><ele>830.0</ele><time>2026-04-26T15:05:47.792Z</time></trkpt><trkpt lat="44.4784121" lon="9.8135862"><ele>828.75</ele><time>2026-04-26T15:05:48.792Z</time></trkpt><trkpt lat="44.4784837" lon="9.8134387"><ele>827.5</ele><time>2026-04-26T15:05:49.792Z</time></trkpt><trkpt lat="44.4785608" lon="9.8132917"><ele>826.25</ele><time>2026-04-26T15:05:50.792Z</time></trkpt><trkpt lat="44.4786519" lon="9.8131482"><ele>825.0</ele><time>2026-04-26T15:05:51.794Z</time></trkpt><trkpt lat="44.4787528" lon="9.813023"><ele>822.5</ele><time>2026-04-26T15:05:52.792Z</time></trkpt><trkpt lat="44.4788734" lon="9.8129199"><ele>820.0</ele><time>2026-04-26T15:05:53.792Z</time></trkpt><trkpt lat="44.4790002" lon="9.8128443"><ele>817.5</ele><time>2026-04-26T15:05:54.793Z</time></trkpt><trkpt lat="44.479117" lon="9.8127905"><ele>815.0</ele><time>2026-04-26T15:05:55.792Z</time></trkpt><trkpt lat="44.4792119" lon="9.8127417"><ele>815.0000000000001</ele><time>2026-04-26T15:05:56.792Z</time></trkpt><trkpt lat="44.4792889" lon="9.8126827"><ele>815.0</ele><time>2026-04-26T15:05:57.792Z</time></trkpt><trkpt lat="44.479338" lon="9.8126137"><ele>815.0</ele><time>2026-04-26T15:05:58.792Z</time></trkpt><trkpt lat="44.4793375" lon="9.812517"><ele>815.0</ele><time>2026-04-26T15:05:59.793Z</time></trkpt><trkpt lat="44.479303" lon="9.8124267"><ele>815.0000000000001</ele><time>2026-04-26T15:06:00.792Z</time></trkpt><trkpt lat="44.4792295" lon="9.8123616"><ele>815.0</ele><time>2026-04-26T15:06:01.793Z</time></trkpt><trkpt lat="44.4791262" lon="9.812328"><ele>816.0</ele><time>2026-04-26T15:06:02.792Z</time></trkpt><trkpt lat="44.4789981" lon="9.812304"><ele>817.0</ele><time>2026-04-26T15:06:03.792Z</time></trkpt><trkpt lat="44.4788665" lon="9.8122707"><ele>818.0</ele><time>2026-04-26T15:06:04.792Z</time></trkpt><trkpt lat="44.4787437" lon="9.8122285"><ele>819.0</ele><time>2026-04-26T15:06:05.792Z</time></trkpt><trkpt lat="44.4786335" lon="9.8121742"><ele>819.0</ele><time>2026-04-26T15:06:06.792Z</time></trkpt><trkpt lat="44.4785569" lon="9.8120648"><ele>819.0</ele><time>2026-04-26T15:06:07.792Z</time></trkpt><trkpt lat="44.4785012" lon="9.8119397"><ele>819.0</ele><time>2026-04-26T15:06:08.792Z</time></trkpt><trkpt lat="44.4784756" lon="9.8117953"><ele>819.0</ele><time>2026-04-26T15:06:09.792Z</time></trkpt><trkpt lat="44.4784469" lon="9.8116532"><ele>819.0</ele><time>2026-04-26T15:06:10.792Z</time></trkpt><trkpt lat="44.4783871" lon="9.811522"><ele>815.25</ele><time>2026-04-26T15:06:11.792Z</time></trkpt><trkpt lat="44.4783121" lon="9.811401"><ele>811.5</ele><time>2026-04-26T15:06:12.792Z</time></trkpt><trkpt lat="44.4782298" lon="9.8112778"><ele>807.75</ele><time>2026-04-26T15:06:13.792Z</time></trkpt><trkpt lat="44.4781276" lon="9.8111392"><ele>804.0</ele><time>2026-04-26T15:06:14.792Z</time></trkpt><trkpt lat="44.4779931" lon="9.8110413"><ele>803.5</ele><time>2026-04-26T15:06:15.792Z</time></trkpt><trkpt lat="44.4778806" lon="9.8109246"><ele>803.0</ele><time>2026-04-26T15:06:16.792Z</time></trkpt><trkpt lat="44.4777617" lon="9.8108113"><ele>802.5</ele><time>2026-04-26T15:06:17.792Z</time></trkpt><trkpt lat="44.4776512" lon="9.8107113"><ele>802.0</ele><time>2026-04-26T15:06:18.792Z</time></trkpt><trkpt lat="44.4775544" lon="9.8106149"><ele>802.0</ele><time>2026-04-26T15:06:19.793Z</time></trkpt><trkpt lat="44.4774707" lon="9.8105151"><ele>802.0</ele><time>2026-04-26T15:06:20.792Z</time></trkpt><trkpt lat="44.4774116" lon="9.8104024"><ele>802.0</ele><time>2026-04-26T15:06:21.792Z</time></trkpt><trkpt lat="44.4773973" lon="9.8102812"><ele>802.0</ele><time>2026-04-26T15:06:22.793Z</time></trkpt><trkpt lat="44.4774234" lon="9.810176"><ele>802.0</ele><time>2026-04-26T15:06:23.792Z</time></trkpt><trkpt lat="44.4774817" lon="9.8100916"><ele>800.6</ele><time>2026-04-26T15:06:24.793Z</time></trkpt><trkpt lat="44.4775683" lon="9.8100248"><ele>799.2</ele><time>2026-04-26T15:06:25.792Z</time></trkpt><trkpt lat="44.4776621" lon="9.8099621"><ele>797.8</ele><time>2026-04-26T15:06:26.792Z</time></trkpt><trkpt lat="44.4777562" lon="9.8098974"><ele>796.4</ele><time>2026-04-26T15:06:27.793Z</time></trkpt><trkpt lat="44.4778196" lon="9.8097988"><ele>795.0</ele><time>2026-04-26T15:06:28.792Z</time></trkpt><trkpt lat="44.4778804" lon="9.8096934"><ele>795.0</ele><time>2026-04-26T15:06:29.792Z</time></trkpt><trkpt lat="44.4779193" lon="9.8095605"><ele>795.0</ele><time>2026-04-26T15:06:30.793Z</time></trkpt><trkpt lat="44.4779396" lon="9.8094118"><ele>795.0</ele><time>2026-04-26T15:06:31.793Z</time></trkpt><trkpt lat="44.4779434" lon="9.8092376"><ele>795.0</ele><time>2026-04-26T15:06:32.793Z</time></trkpt><trkpt lat="44.4779473" lon="9.8090501"><ele>787.0</ele><time>2026-04-26T15:06:33.792Z</time></trkpt><trkpt lat="44.4779569" lon="9.8088483"><ele>779.0</ele><time>2026-04-26T15:06:34.792Z</time></trkpt><trkpt lat="44.4779619" lon="9.8086527"><ele>771.0</ele><time>2026-04-26T15:06:35.792Z</time></trkpt><trkpt lat="44.4780221" lon="9.8084202"><ele>771.0</ele><time>2026-04-26T15:06:36.792Z</time></trkpt><trkpt lat="44.4780841" lon="9.8081914"><ele>771.0</ele><time>2026-04-26T15:06:37.792Z</time></trkpt><trkpt lat="44.47814" lon="9.8079683"><ele>771.0</ele><time>2026-04-26T15:06:38.792Z</time></trkpt><trkpt lat="44.4782158" lon="9.8077457"><ele>772.3333333333333</ele><time>2026-04-26T15:06:39.792Z</time></trkpt><trkpt lat="44.4782842" lon="9.8075274"><ele>773.6666666666666</ele><time>2026-04-26T15:06:40.792Z</time></trkpt><trkpt lat="44.4783498" lon="9.8073179"><ele>775.0</ele><time>2026-04-26T15:06:41.792Z</time></trkpt><trkpt lat="44.4784201" lon="9.8071196"><ele>775.0</ele><time>2026-04-26T15:06:42.792Z</time></trkpt><trkpt lat="44.4784581" lon="9.806929"><ele>775.0</ele><time>2026-04-26T15:06:43.792Z</time></trkpt><trkpt lat="44.4785062" lon="9.8067491"><ele>775.0</ele><time>2026-04-26T15:06:44.793Z</time></trkpt><trkpt lat="44.4785225" lon="9.8065995"><ele>775.0</ele><time>2026-04-26T15:06:45.793Z</time></trkpt><trkpt lat="44.4785328" lon="9.8064599"><ele>775.0</ele><time>2026-04-26T15:06:46.794Z</time></trkpt><trkpt lat="44.478522" lon="9.8062944"><ele>775.0</ele><time>2026-04-26T15:06:47.793Z</time></trkpt><trkpt lat="44.4783895" lon="9.806108"><ele>775.0</ele><time>2026-04-26T15:06:48.793Z</time></trkpt><trkpt lat="44.4783316" lon="9.8059213"><ele>772.0</ele><time>2026-04-26T15:06:49.792Z</time></trkpt><trkpt lat="44.4782645" lon="9.8057211"><ele>769.0</ele><time>2026-04-26T15:06:50.792Z</time></trkpt><trkpt lat="44.478195" lon="9.8055199"><ele>766.0</ele><time>2026-04-26T15:06:51.792Z</time></trkpt><trkpt lat="44.4781297" lon="9.805306"><ele>763.6666666666667</ele><time>2026-04-26T15:06:52.793Z</time></trkpt><trkpt lat="44.4780765" lon="9.8050871"><ele>761.3333333333334</ele><time>2026-04-26T15:06:53.792Z</time></trkpt><trkpt lat="44.4780224" lon="9.8048688"><ele>759.0</ele><time>2026-04-26T15:06:54.792Z</time></trkpt><trkpt lat="44.4779724" lon="9.8046511"><ele>764.3333333333333</ele><time>2026-04-26T15:06:55.792Z</time></trkpt><trkpt lat="44.4779097" lon="9.8044579"><ele>769.6666666666666</ele><time>2026-04-26T15:06:56.793Z</time></trkpt><trkpt lat="44.4778466" lon="9.8042663"><ele>775.0</ele><time>2026-04-26T15:06:57.792Z</time></trkpt><trkpt lat="44.4777789" lon="9.8040806"><ele>775.0</ele><time>2026-04-26T15:06:58.793Z</time></trkpt><trkpt lat="44.4777153" lon="9.8038939"><ele>775.0</ele><time>2026-04-26T15:06:59.793Z</time></trkpt><trkpt lat="44.4776498" lon="9.8036908"><ele>775.0</ele><time>2026-04-26T15:07:00.792Z</time></trkpt><trkpt lat="44.4775887" lon="9.8034886"><ele>770.75</ele><time>2026-04-26T15:07:01.792Z</time></trkpt><trkpt lat="44.4775328" lon="9.803288"><ele>766.5</ele><time>2026-04-26T15:07:02.794Z</time></trkpt><trkpt lat="44.4774797" lon="9.803088"><ele>762.25</ele><time>2026-04-26T15:07:03.792Z</time></trkpt><trkpt lat="44.4774301" lon="9.802914"><ele>758.0</ele><time>2026-04-26T15:07:04.792Z</time></trkpt><trkpt lat="44.4773825" lon="9.8027453"><ele>755.4</ele><time>2026-04-26T15:07:05.792Z</time></trkpt><trkpt lat="44.4773245" lon="9.8025965"><ele>752.8</ele><time>2026-04-26T15:07:06.792Z</time></trkpt><trkpt lat="44.4772552" lon="9.8024739"><ele>750.2</ele><time>2026-04-26T15:07:07.794Z</time></trkpt><trkpt lat="44.4771652" lon="9.8023788"><ele>747.6</ele><time>2026-04-26T15:07:08.792Z</time></trkpt><trkpt lat="44.4771167" lon="9.8022501"><ele>745.0</ele><time>2026-04-26T15:07:09.793Z</time></trkpt><trkpt lat="44.4771213" lon="9.8021034"><ele>745.0</ele><time>2026-04-26T15:07:10.793Z</time></trkpt><trkpt lat="44.4770994" lon="9.8019983"><ele>745.0</ele><time>2026-04-26T15:07:11.792Z</time></trkpt><trkpt lat="44.4772093" lon="9.8018928"><ele>745.0</ele><time>2026-04-26T15:07:12.792Z</time></trkpt><trkpt lat="44.4772618" lon="9.801796"><ele>745.0</ele><time>2026-04-26T15:07:13.793Z</time></trkpt><trkpt lat="44.4774166" lon="9.8017398"><ele>744.0</ele><time>2026-04-26T15:07:14.793Z</time></trkpt><trkpt lat="44.4775399" lon="9.8017176"><ele>743.0</ele><time>2026-04-26T15:07:15.792Z</time></trkpt><trkpt lat="44.4776546" lon="9.8017133"><ele>742.0</ele><time>2026-04-26T15:07:16.793Z</time></trkpt><trkpt lat="44.477749" lon="9.801689"><ele>741.0</ele><time>2026-04-26T15:07:17.793Z</time></trkpt><trkpt lat="44.4778277" lon="9.8016331"><ele>740.0</ele><time>2026-04-26T15:07:18.792Z</time></trkpt><trkpt lat="44.4778808" lon="9.8015429"><ele>740.0</ele><time>2026-04-26T15:07:19.792Z</time></trkpt><trkpt lat="44.47791" lon="9.801419"><ele>740.0</ele><time>2026-04-26T15:07:20.792Z</time></trkpt><trkpt lat="44.4779199" lon="9.8012619"><ele>740.0</ele><time>2026-04-26T15:07:21.792Z</time></trkpt><trkpt lat="44.4779374" lon="9.801095"><ele>740.0</ele><time>2026-04-26T15:07:22.793Z</time></trkpt><trkpt lat="44.4779835" lon="9.800935"><ele>740.0</ele><time>2026-04-26T15:07:23.793Z</time></trkpt><trkpt lat="44.4780582" lon="9.8007992"><ele>736.25</ele><time>2026-04-26T15:07:24.792Z</time></trkpt><trkpt lat="44.4781497" lon="9.8006788"><ele>732.5</ele><time>2026-04-26T15:07:25.794Z</time></trkpt><trkpt lat="44.478237" lon="9.8005597"><ele>728.75</ele><time>2026-04-26T15:07:26.792Z</time></trkpt><trkpt lat="44.4783115" lon="9.8004326"><ele>725.0</ele><time>2026-04-26T15:07:27.792Z</time></trkpt><trkpt lat="44.4783554" lon="9.8002995"><ele>725.0</ele><time>2026-04-26T15:07:28.793Z</time></trkpt><trkpt lat="44.4783801" lon="9.8001732"><ele>725.0</ele><time>2026-04-26T15:07:29.792Z</time></trkpt><trkpt lat="44.478328" lon="9.8000323"><ele>725.0</ele><time>2026-04-26T15:07:30.792Z</time></trkpt><trkpt lat="44.4782852" lon="9.7998975"><ele>725.0</ele><time>2026-04-26T15:07:31.793Z</time></trkpt><trkpt lat="44.4781887" lon="9.7997456"><ele>725.0</ele><time>2026-04-26T15:07:32.792Z</time></trkpt><trkpt lat="44.4780964" lon="9.7995948"><ele>725.0</ele><time>2026-04-26T15:07:33.792Z</time></trkpt><trkpt lat="44.4779993" lon="9.7994389"><ele>725.0</ele><time>2026-04-26T15:07:34.793Z</time></trkpt><trkpt lat="44.4779085" lon="9.7992834"><ele>725.0</ele><time>2026-04-26T15:07:35.792Z</time></trkpt><trkpt lat="44.4778214" lon="9.7991352"><ele>725.0</ele><time>2026-04-26T15:07:36.792Z</time></trkpt><trkpt lat="44.4777255" lon="9.7990031"><ele>725.0</ele><time>2026-04-26T15:07:37.793Z</time></trkpt><trkpt lat="44.4776199" lon="9.798901"><ele>725.0</ele><time>2026-04-26T15:07:38.793Z</time></trkpt><trkpt lat="44.4775152" lon="9.7988132"><ele>725.0</ele><time>2026-04-26T15:07:39.793Z</time></trkpt><trkpt lat="44.4774333" lon="9.7987027"><ele>725.0</ele><time>2026-04-26T15:07:40.792Z</time></trkpt><trkpt lat="44.4773804" lon="9.7985729"><ele>725.0</ele><time>2026-04-26T15:07:41.793Z</time></trkpt><trkpt lat="44.4773646" lon="9.7984245"><ele>725.0</ele><time>2026-04-26T15:07:42.792Z</time></trkpt><trkpt lat="44.4773716" lon="9.7982478"><ele>725.0</ele><time>2026-04-26T15:07:43.792Z</time></trkpt><trkpt lat="44.4773849" lon="9.7980653"><ele>723.0</ele><time>2026-04-26T15:07:44.792Z</time></trkpt><trkpt lat="44.4774148" lon="9.7978816"><ele>721.0</ele><time>2026-04-26T15:07:45.792Z</time></trkpt><trkpt lat="44.4774715" lon="9.7977007"><ele>719.0</ele><time>2026-04-26T15:07:46.792Z</time></trkpt><trkpt lat="44.4775435" lon="9.7975342"><ele>717.0</ele><time>2026-04-26T15:07:47.792Z</time></trkpt><trkpt lat="44.4776256" lon="9.7973808"><ele>716.25</ele><time>2026-04-26T15:07:48.792Z</time></trkpt><trkpt lat="44.4777055" lon="9.7972365"><ele>715.5</ele><time>2026-04-26T15:07:49.792Z</time></trkpt><trkpt lat="44.4777894" lon="9.7970876"><ele>714.75</ele><time>2026-04-26T15:07:50.792Z</time></trkpt><trkpt lat="44.4778811" lon="9.7969315"><ele>714.0</ele><time>2026-04-26T15:07:51.792Z</time></trkpt><trkpt lat="44.4779722" lon="9.7967698"><ele>709.25</ele><time>2026-04-26T15:07:52.792Z</time></trkpt><trkpt lat="44.4780588" lon="9.7966149"><ele>704.5</ele><time>2026-04-26T15:07:53.792Z</time></trkpt><trkpt lat="44.47814" lon="9.7964692"><ele>699.75</ele><time>2026-04-26T15:07:54.792Z</time></trkpt><trkpt lat="44.4782208" lon="9.7963253"><ele>695.0</ele><time>2026-04-26T15:07:55.792Z</time></trkpt><trkpt lat="44.4782974" lon="9.7961909"><ele>695.0</ele><time>2026-04-26T15:07:56.793Z</time></trkpt><trkpt lat="44.4783645" lon="9.7960784"><ele>695.0</ele><time>2026-04-26T15:07:57.792Z</time></trkpt><trkpt lat="44.4784278" lon="9.7959895"><ele>695.0</ele><time>2026-04-26T15:07:58.792Z</time></trkpt><trkpt lat="44.4785007" lon="9.7959497"><ele>695.0</ele><time>2026-04-26T15:07:59.792Z</time></trkpt><trkpt lat="44.4785738" lon="9.7959299"><ele>695.0</ele><time>2026-04-26T15:08:00.792Z</time></trkpt><trkpt lat="44.4786539" lon="9.7960268"><ele>695.0</ele><time>2026-04-26T15:08:01.793Z</time></trkpt><trkpt lat="44.4787113" lon="9.7961291"><ele>695.0</ele><time>2026-04-26T15:08:02.794Z</time></trkpt><trkpt lat="44.4787559" lon="9.7962671"><ele>695.0</ele><time>2026-04-26T15:08:03.792Z</time></trkpt><trkpt lat="44.4787807" lon="9.796423"><ele>695.0</ele><time>2026-04-26T15:08:04.792Z</time></trkpt><trkpt lat="44.4787902" lon="9.7965922"><ele>695.0</ele><time>2026-04-26T15:08:05.793Z</time></trkpt><trkpt lat="44.4788029" lon="9.7967798"><ele>693.75</ele><time>2026-04-26T15:08:06.792Z</time></trkpt><trkpt lat="44.478796" lon="9.796963"><ele>692.5</ele><time>2026-04-26T15:08:07.793Z</time></trkpt><trkpt lat="44.4787765" lon="9.7971476"><ele>691.25</ele><time>2026-04-26T15:08:08.793Z</time></trkpt><trkpt lat="44.4787502" lon="9.7973358"><ele>690.0</ele><time>2026-04-26T15:08:09.792Z</time></trkpt><trkpt lat="44.4787161" lon="9.797534"><ele>691.5</ele><time>2026-04-26T15:08:10.792Z</time></trkpt><trkpt lat="44.4786754" lon="9.7977212"><ele>693.0</ele><time>2026-04-26T15:08:11.792Z</time></trkpt><trkpt lat="44.4786481" lon="9.7979031"><ele>694.5</ele><time>2026-04-26T15:08:12.792Z</time></trkpt><trkpt lat="44.4786319" lon="9.7980545"><ele>696.0</ele><time>2026-04-26T15:08:13.792Z</time></trkpt><trkpt lat="44.4786333" lon="9.7981853"><ele>696.0</ele><time>2026-04-26T15:08:14.792Z</time></trkpt><trkpt lat="44.4786687" lon="9.7982963"><ele>696.0</ele><time>2026-04-26T15:08:15.792Z</time></trkpt><trkpt lat="44.4787064" lon="9.798396"><ele>696.0</ele><time>2026-04-26T15:08:16.792Z</time></trkpt><trkpt lat="44.4787883" lon="9.7984625"><ele>696.0</ele><time>2026-04-26T15:08:17.792Z</time></trkpt><trkpt lat="44.4789374" lon="9.7983397"><ele>696.0</ele><time>2026-04-26T15:08:19.792Z</time></trkpt><trkpt lat="44.4790398" lon="9.7982275"><ele>690.75</ele><time>2026-04-26T15:08:20.792Z</time></trkpt><trkpt lat="44.479122" lon="9.7981013"><ele>685.5</ele><time>2026-04-26T15:08:21.792Z</time></trkpt><trkpt lat="44.4792087" lon="9.7979816"><ele>680.25</ele><time>2026-04-26T15:08:22.792Z</time></trkpt><trkpt lat="44.4792978" lon="9.7978668"><ele>675.0</ele><time>2026-04-26T15:08:23.793Z</time></trkpt><trkpt lat="44.4793866" lon="9.7977602"><ele>675.0</ele><time>2026-04-26T15:08:24.792Z</time></trkpt><trkpt lat="44.479504" lon="9.7977039"><ele>675.0</ele><time>2026-04-26T15:08:25.792Z</time></trkpt><trkpt lat="44.4796161" lon="9.7976565"><ele>675.0</ele><time>2026-04-26T15:08:26.792Z</time></trkpt><trkpt lat="44.4797266" lon="9.7976325"><ele>675.0</ele><time>2026-04-26T15:08:27.792Z</time></trkpt><trkpt lat="44.4798298" lon="9.7975976"><ele>670.2</ele><time>2026-04-26T15:08:28.792Z</time></trkpt><trkpt lat="44.4798587" lon="9.7974838"><ele>665.4</ele><time>2026-04-26T15:08:29.793Z</time></trkpt><trkpt lat="44.4798972" lon="9.7973769"><ele>660.5999999999999</ele><time>2026-04-26T15:08:30.793Z</time></trkpt><trkpt lat="44.4799268" lon="9.7972548"><ele>655.8</ele><time>2026-04-26T15:08:31.792Z</time></trkpt><trkpt lat="44.4799164" lon="9.7971161"><ele>651.0</ele><time>2026-04-26T15:08:32.792Z</time></trkpt><trkpt lat="44.4798241" lon="9.7970004"><ele>651.0</ele><time>2026-04-26T15:08:33.794Z</time></trkpt><trkpt lat="44.4797689" lon="9.7968498"><ele>651.0</ele><time>2026-04-26T15:08:34.793Z</time></trkpt><trkpt lat="44.479728" lon="9.7966915"><ele>651.0</ele><time>2026-04-26T15:08:35.792Z</time></trkpt><trkpt lat="44.4796941" lon="9.7965338"><ele>651.0</ele><time>2026-04-26T15:08:36.792Z</time></trkpt><trkpt lat="44.4797455" lon="9.7963682"><ele>649.75</ele><time>2026-04-26T15:08:37.793Z</time></trkpt><trkpt lat="44.4797869" lon="9.7962137"><ele>648.5</ele><time>2026-04-26T15:08:38.793Z</time></trkpt><trkpt lat="44.4799076" lon="9.7960808"><ele>647.25</ele><time>2026-04-26T15:08:39.792Z</time></trkpt><trkpt lat="44.4799902" lon="9.7959557"><ele>646.0</ele><time>2026-04-26T15:08:40.792Z</time></trkpt><trkpt lat="44.4800526" lon="9.7957961"><ele>645.5</ele><time>2026-04-26T15:08:41.793Z</time></trkpt><trkpt lat="44.4800995" lon="9.7956363"><ele>645.0</ele><time>2026-04-26T15:08:42.793Z</time></trkpt><trkpt lat="44.4801476" lon="9.7954794"><ele>644.5</ele><time>2026-04-26T15:08:43.793Z</time></trkpt><trkpt lat="44.4801822" lon="9.7953339"><ele>644.0</ele><time>2026-04-26T15:08:44.792Z</time></trkpt><trkpt lat="44.4802057" lon="9.7951728"><ele>643.75</ele><time>2026-04-26T15:08:45.792Z</time></trkpt><trkpt lat="44.4801715" lon="9.7950014"><ele>643.5</ele><time>2026-04-26T15:08:46.793Z</time></trkpt><trkpt lat="44.4801496" lon="9.7948362"><ele>643.25</ele><time>2026-04-26T15:08:47.793Z</time></trkpt><trkpt lat="44.4801151" lon="9.7946704"><ele>643.0</ele><time>2026-04-26T15:08:48.793Z</time></trkpt><trkpt lat="44.4801025" lon="9.7944957"><ele>641.25</ele><time>2026-04-26T15:08:49.792Z</time></trkpt><trkpt lat="44.4801052" lon="9.7943128"><ele>639.5</ele><time>2026-04-26T15:08:50.793Z</time></trkpt><trkpt lat="44.4801205" lon="9.7941245"><ele>637.75</ele><time>2026-04-26T15:08:51.792Z</time></trkpt><trkpt lat="44.4801492" lon="9.7939392"><ele>636.0</ele><time>2026-04-26T15:08:52.793Z</time></trkpt><trkpt lat="44.4801902" lon="9.7937651"><ele>636.0</ele><time>2026-04-26T15:08:53.792Z</time></trkpt><trkpt lat="44.4802462" lon="9.793613"><ele>636.0</ele><time>2026-04-26T15:08:54.792Z</time></trkpt><trkpt lat="44.4803428" lon="9.7934904"><ele>636.0</ele><time>2026-04-26T15:08:55.792Z</time></trkpt><trkpt lat="44.4804272" lon="9.7933813"><ele>636.0</ele><time>2026-04-26T15:08:56.794Z</time></trkpt><trkpt lat="44.4805522" lon="9.793294"><ele>631.25</ele><time>2026-04-26T15:08:57.792Z</time></trkpt><trkpt lat="44.4806662" lon="9.7931926"><ele>626.5</ele><time>2026-04-26T15:08:58.792Z</time></trkpt><trkpt lat="44.4807848" lon="9.7930967"><ele>621.75</ele><time>2026-04-26T15:08:59.792Z</time></trkpt><trkpt lat="44.4809058" lon="9.792987"><ele>617.0</ele><time>2026-04-26T15:09:00.793Z</time></trkpt><trkpt lat="44.4810247" lon="9.792871"><ele>617.0</ele><time>2026-04-26T15:09:01.792Z</time></trkpt><trkpt lat="44.4811401" lon="9.7927708"><ele>617.0</ele><time>2026-04-26T15:09:02.792Z</time></trkpt><trkpt lat="44.4812329" lon="9.7926781"><ele>617.0</ele><time>2026-04-26T15:09:03.792Z</time></trkpt><trkpt lat="44.4813084" lon="9.7925929"><ele>617.0</ele><time>2026-04-26T15:09:04.793Z</time></trkpt><trkpt lat="44.4813736" lon="9.7925078"><ele>617.0</ele><time>2026-04-26T15:09:05.793Z</time></trkpt><trkpt lat="44.4813598" lon="9.7923801"><ele>616.4</ele><time>2026-04-26T15:09:06.792Z</time></trkpt><trkpt lat="44.4813585" lon="9.7922836"><ele>615.8000000000001</ele><time>2026-04-26T15:09:07.792Z</time></trkpt><trkpt lat="44.481329" lon="9.7921913"><ele>615.2</ele><time>2026-04-26T15:09:08.792Z</time></trkpt><trkpt lat="44.4812555" lon="9.7921121"><ele>614.6</ele><time>2026-04-26T15:09:09.793Z</time></trkpt><trkpt lat="44.4811003" lon="9.7921272"><ele>614.0</ele><time>2026-04-26T15:09:10.792Z</time></trkpt><trkpt lat="44.4809904" lon="9.7921484"><ele>614.0</ele><time>2026-04-26T15:09:11.792Z</time></trkpt><trkpt lat="44.4808838" lon="9.7921907"><ele>614.0</ele><time>2026-04-26T15:09:12.793Z</time></trkpt><trkpt lat="44.4807762" lon="9.7922481"><ele>614.0</ele><time>2026-04-26T15:09:13.792Z</time></trkpt><trkpt lat="44.4806756" lon="9.7923418"><ele>614.0</ele><time>2026-04-26T15:09:14.792Z</time></trkpt><trkpt lat="44.4805787" lon="9.792453"><ele>614.0</ele><time>2026-04-26T15:09:15.792Z</time></trkpt><trkpt lat="44.4804776" lon="9.7925465"><ele>614.0</ele><time>2026-04-26T15:09:16.793Z</time></trkpt><trkpt lat="44.4803723" lon="9.7926324"><ele>614.0</ele><time>2026-04-26T15:09:17.793Z</time></trkpt><trkpt lat="44.4802384" lon="9.7926137"><ele>614.0</ele><time>2026-04-26T15:09:18.792Z</time></trkpt><trkpt lat="44.4801242" lon="9.7926333"><ele>612.5</ele><time>2026-04-26T15:09:19.792Z</time></trkpt><trkpt lat="44.4799883" lon="9.7926245"><ele>611.0</ele><time>2026-04-26T15:09:20.793Z</time></trkpt><trkpt lat="44.4798721" lon="9.7926389"><ele>609.5</ele><time>2026-04-26T15:09:21.792Z</time></trkpt><trkpt lat="44.4797703" lon="9.7926478"><ele>608.0</ele><time>2026-04-26T15:09:22.793Z</time></trkpt><trkpt lat="44.4796734" lon="9.7926509"><ele>608.0</ele><time>2026-04-26T15:09:23.792Z</time></trkpt><trkpt lat="44.4795599" lon="9.7925958"><ele>608.0</ele><time>2026-04-26T15:09:25.792Z</time></trkpt><trkpt lat="44.4795642" lon="9.7924358"><ele>608.0</ele><time>2026-04-26T15:09:27.792Z</time></trkpt><trkpt lat="44.4796971" lon="9.7923807"><ele>608.0</ele><time>2026-04-26T15:09:29.793Z</time></trkpt><trkpt lat="44.4797957" lon="9.7923984"><ele>608.0</ele><time>2026-04-26T15:09:30.792Z</time></trkpt><trkpt lat="44.479905" lon="9.7923897"><ele>608.0</ele><time>2026-04-26T15:09:31.793Z</time></trkpt><trkpt lat="44.4800179" lon="9.792356"><ele>608.0</ele><time>2026-04-26T15:09:32.792Z</time></trkpt><trkpt lat="44.4801353" lon="9.7923159"><ele>608.0</ele><time>2026-04-26T15:09:33.792Z</time></trkpt><trkpt lat="44.4802642" lon="9.7922259"><ele>608.0</ele><time>2026-04-26T15:09:34.792Z</time></trkpt><trkpt lat="44.4803723" lon="9.7920888"><ele>608.0</ele><time>2026-04-26T15:09:35.792Z</time></trkpt><trkpt lat="44.4804357" lon="9.7918396"><ele>608.0</ele><time>2026-04-26T15:09:36.792Z</time></trkpt><trkpt lat="44.480542" lon="9.7916562"><ele>605.0</ele><time>2026-04-26T15:09:37.792Z</time></trkpt><trkpt lat="44.4806564" lon="9.7915122"><ele>602.0</ele><time>2026-04-26T15:09:38.792Z</time></trkpt><trkpt lat="44.480763" lon="9.7913566"><ele>599.0</ele><time>2026-04-26T15:09:39.792Z</time></trkpt><trkpt lat="44.4808754" lon="9.7912123"><ele>599.0</ele><time>2026-04-26T15:09:40.793Z</time></trkpt><trkpt lat="44.4809952" lon="9.7910877"><ele>599.0</ele><time>2026-04-26T15:09:41.793Z</time></trkpt><trkpt lat="44.4811112" lon="9.7909755"><ele>599.0</ele><time>2026-04-26T15:09:42.792Z</time></trkpt><trkpt lat="44.4812364" lon="9.7908745"><ele>599.0</ele><time>2026-04-26T15:09:43.791Z</time></trkpt><trkpt lat="44.4813539" lon="9.7907663"><ele>594.0</ele><time>2026-04-26T15:09:44.791Z</time></trkpt><trkpt lat="44.4814788" lon="9.790668"><ele>589.0</ele><time>2026-04-26T15:09:45.791Z</time></trkpt><trkpt lat="44.4815977" lon="9.7905711"><ele>584.0</ele><time>2026-04-26T15:09:46.791Z</time></trkpt><trkpt lat="44.4817007" lon="9.7904749"><ele>579.0</ele><time>2026-04-26T15:09:47.792Z</time></trkpt><trkpt lat="44.4817934" lon="9.7903866"><ele>579.0</ele><time>2026-04-26T15:09:48.791Z</time></trkpt><trkpt lat="44.4818799" lon="9.7902987"><ele>579.0</ele><time>2026-04-26T15:09:49.791Z</time></trkpt><trkpt lat="44.4819532" lon="9.7902035"><ele>579.0</ele><time>2026-04-26T15:09:50.792Z</time></trkpt><trkpt lat="44.4820023" lon="9.7900888"><ele>579.0</ele><time>2026-04-26T15:09:51.791Z</time></trkpt><trkpt lat="44.4820207" lon="9.7899489"><ele>579.0</ele><time>2026-04-26T15:09:52.791Z</time></trkpt><trkpt lat="44.4820061" lon="9.789827"><ele>577.2</ele><time>2026-04-26T15:09:53.791Z</time></trkpt><trkpt lat="44.4819513" lon="9.7897015"><ele>575.4</ele><time>2026-04-26T15:09:54.792Z</time></trkpt><trkpt lat="44.4818912" lon="9.7896045"><ele>573.6</ele><time>2026-04-26T15:09:55.792Z</time></trkpt><trkpt lat="44.4818018" lon="9.7895291"><ele>571.8</ele><time>2026-04-26T15:09:56.792Z</time></trkpt><trkpt lat="44.4817131" lon="9.7894746"><ele>570.0</ele><time>2026-04-26T15:09:57.791Z</time></trkpt><trkpt lat="44.48159" lon="9.7894289"><ele>570.0</ele><time>2026-04-26T15:09:58.791Z</time></trkpt><trkpt lat="44.4814328" lon="9.7893953"><ele>570.0</ele><time>2026-04-26T15:09:59.791Z</time></trkpt><trkpt lat="44.4813044" lon="9.7893573"><ele>570.0</ele><time>2026-04-26T15:10:00.791Z</time></trkpt><trkpt lat="44.4811784" lon="9.78931"><ele>570.0</ele><time>2026-04-26T15:10:01.792Z</time></trkpt><trkpt lat="44.4810577" lon="9.7892635"><ele>567.8</ele><time>2026-04-26T15:10:02.792Z</time></trkpt><trkpt lat="44.4809549" lon="9.789207"><ele>565.6</ele><time>2026-04-26T15:10:03.791Z</time></trkpt><trkpt lat="44.4808709" lon="9.7891453"><ele>563.4</ele><time>2026-04-26T15:10:04.791Z</time></trkpt><trkpt lat="44.4807975" lon="9.7890753"><ele>561.2</ele><time>2026-04-26T15:10:05.791Z</time></trkpt><trkpt lat="44.4807381" lon="9.7889884"><ele>559.0</ele><time>2026-04-26T15:10:06.792Z</time></trkpt><trkpt lat="44.4806938" lon="9.7888805"><ele>559.0</ele><time>2026-04-26T15:10:07.791Z</time></trkpt><trkpt lat="44.4806577" lon="9.788754"><ele>559.0</ele><time>2026-04-26T15:10:08.791Z</time></trkpt><trkpt lat="44.4806237" lon="9.788619"><ele>559.0</ele><time>2026-04-26T15:10:09.792Z</time></trkpt><trkpt lat="44.4805946" lon="9.7884685"><ele>559.0</ele><time>2026-04-26T15:10:10.792Z</time></trkpt><trkpt lat="44.4805661" lon="9.7883138"><ele>559.0</ele><time>2026-04-26T15:10:11.791Z</time></trkpt><trkpt lat="44.4805356" lon="9.7881636"><ele>557.4</ele><time>2026-04-26T15:10:12.791Z</time></trkpt><trkpt lat="44.4805163" lon="9.7880077"><ele>555.8</ele><time>2026-04-26T15:10:13.793Z</time></trkpt><trkpt lat="44.4805075" lon="9.7878565"><ele>554.2</ele><time>2026-04-26T15:10:14.791Z</time></trkpt><trkpt lat="44.4805042" lon="9.7877111"><ele>552.6</ele><time>2026-04-26T15:10:15.791Z</time></trkpt><trkpt lat="44.4805038" lon="9.7875778"><ele>551.0</ele><time>2026-04-26T15:10:16.791Z</time></trkpt><trkpt lat="44.4804945" lon="9.7874698"><ele>549.8333333333333</ele><time>2026-04-26T15:10:17.791Z</time></trkpt><trkpt lat="44.4804354" lon="9.7873362"><ele>548.6666666666666</ele><time>2026-04-26T15:10:19.791Z</time></trkpt><trkpt lat="44.4803337" lon="9.7873034"><ele>547.5</ele><time>2026-04-26T15:10:21.792Z</time></trkpt><trkpt lat="44.4802434" lon="9.7872819"><ele>546.3333333333334</ele><time>2026-04-26T15:10:23.791Z</time></trkpt><trkpt lat="44.4801734" lon="9.7872593"><ele>545.1666666666667</ele><time>2026-04-26T15:10:26.792Z</time></trkpt><trkpt lat="44.4801356" lon="9.7873402"><ele>544.0</ele><time>2026-04-26T15:10:29.791Z</time></trkpt><trkpt lat="44.4800902" lon="9.7874136"><ele>543.8333333333334</ele><time>2026-04-26T15:10:31.792Z</time></trkpt><trkpt lat="44.4800438" lon="9.7875027"><ele>543.6666666666667</ele><time>2026-04-26T15:10:33.792Z</time></trkpt><trkpt lat="44.4799917" lon="9.7875961"><ele>543.5</ele><time>2026-04-26T15:10:35.792Z</time></trkpt><trkpt lat="44.4799417" lon="9.7877031"><ele>543.3333333333334</ele><time>2026-04-26T15:10:37.792Z</time></trkpt><trkpt lat="44.4798953" lon="9.7877981"><ele>543.1666666666666</ele><time>2026-04-26T15:10:39.792Z</time></trkpt><trkpt lat="44.4798509" lon="9.7878846"><ele>543.0</ele><time>2026-04-26T15:10:41.791Z</time></trkpt><trkpt lat="44.479778" lon="9.7880339"><ele>542.5</ele><time>2026-04-26T15:10:43.791Z</time></trkpt><trkpt lat="44.4797385" lon="9.7881175"><ele>542.0</ele><time>2026-04-26T15:10:44.791Z</time></trkpt><trkpt lat="44.4796906" lon="9.788206"><ele>541.5</ele><time>2026-04-26T15:10:45.791Z</time></trkpt><trkpt lat="44.4796332" lon="9.7882897"><ele>541.0</ele><time>2026-04-26T15:10:46.792Z</time></trkpt><trkpt lat="44.4795714" lon="9.7883654"><ele>540.5</ele><time>2026-04-26T15:10:47.792Z</time></trkpt><trkpt lat="44.479501" lon="9.7884255"><ele>540.0</ele><time>2026-04-26T15:10:48.791Z</time></trkpt><trkpt lat="44.4794172" lon="9.7884636"><ele>540.0</ele><time>2026-04-26T15:10:49.791Z</time></trkpt><trkpt lat="44.4793218" lon="9.7884841"><ele>540.0</ele><time>2026-04-26T15:10:50.791Z</time></trkpt><trkpt lat="44.4792205" lon="9.7884808"><ele>540.0</ele><time>2026-04-26T15:10:51.792Z</time></trkpt><trkpt lat="44.4791127" lon="9.7884744"><ele>540.0</ele><time>2026-04-26T15:10:52.791Z</time></trkpt><trkpt lat="44.479004" lon="9.7884725"><ele>540.0</ele><time>2026-04-26T15:10:53.791Z</time></trkpt><trkpt lat="44.478899" lon="9.7884706"><ele>540.0</ele><time>2026-04-26T15:10:54.791Z</time></trkpt><trkpt lat="44.4787926" lon="9.7884713"><ele>540.0</ele><time>2026-04-26T15:10:55.792Z</time></trkpt><trkpt lat="44.4786841" lon="9.7884779"><ele>540.0</ele><time>2026-04-26T15:10:56.792Z</time></trkpt><trkpt lat="44.4785732" lon="9.7884888"><ele>540.0</ele><time>2026-04-26T15:10:57.791Z</time></trkpt><trkpt lat="44.4784572" lon="9.788523"><ele>540.0</ele><time>2026-04-26T15:10:58.791Z</time></trkpt><trkpt lat="44.4783468" lon="9.7885808"><ele>540.25</ele><time>2026-04-26T15:10:59.791Z</time></trkpt><trkpt lat="44.4782408" lon="9.7886405"><ele>540.5</ele><time>2026-04-26T15:11:00.792Z</time></trkpt><trkpt lat="44.478126" lon="9.7886598"><ele>540.75</ele><time>2026-04-26T15:11:01.792Z</time></trkpt><trkpt lat="44.478012" lon="9.7886653"><ele>541.0</ele><time>2026-04-26T15:11:02.792Z</time></trkpt><trkpt lat="44.4779013" lon="9.7886492"><ele>541.0</ele><time>2026-04-26T15:11:03.791Z</time></trkpt><trkpt lat="44.477797" lon="9.7886131"><ele>541.0</ele><time>2026-04-26T15:11:04.792Z</time></trkpt><trkpt lat="44.4776967" lon="9.7885692"><ele>541.0</ele><time>2026-04-26T15:11:05.792Z</time></trkpt><trkpt lat="44.4775976" lon="9.7885471"><ele>541.0</ele><time>2026-04-26T15:11:06.791Z</time></trkpt><trkpt lat="44.4774956" lon="9.7885712"><ele>541.0</ele><time>2026-04-26T15:11:07.791Z</time></trkpt><trkpt lat="44.4774102" lon="9.7886405"><ele>541.0</ele><time>2026-04-26T15:11:08.791Z</time></trkpt><trkpt lat="44.4773103" lon="9.7887216"><ele>541.0</ele><time>2026-04-26T15:11:09.791Z</time></trkpt><trkpt lat="44.4772151" lon="9.7887739"><ele>541.0</ele><time>2026-04-26T15:11:10.791Z</time></trkpt><trkpt lat="44.4771222" lon="9.788842"><ele>541.0</ele><time>2026-04-26T15:11:11.791Z</time></trkpt><trkpt lat="44.477051" lon="9.7889467"><ele>541.0</ele><time>2026-04-26T15:11:12.791Z</time></trkpt><trkpt lat="44.4770005" lon="9.7890708"><ele>540.6</ele><time>2026-04-26T15:11:13.791Z</time></trkpt><trkpt lat="44.4769523" lon="9.7891999"><ele>540.2</ele><time>2026-04-26T15:11:14.793Z</time></trkpt><trkpt lat="44.4768958" lon="9.7893116"><ele>539.8</ele><time>2026-04-26T15:11:15.792Z</time></trkpt><trkpt lat="44.4768161" lon="9.7893821"><ele>539.4</ele><time>2026-04-26T15:11:16.792Z</time></trkpt><trkpt lat="44.4767285" lon="9.7893929"><ele>539.0</ele><time>2026-04-26T15:11:17.791Z</time></trkpt><trkpt lat="44.4766488" lon="9.7893506"><ele>536.6</ele><time>2026-04-26T15:11:18.793Z</time></trkpt><trkpt lat="44.4765992" lon="9.7892602"><ele>534.2</ele><time>2026-04-26T15:11:19.792Z</time></trkpt><trkpt lat="44.4765686" lon="9.7891501"><ele>531.8000000000001</ele><time>2026-04-26T15:11:20.792Z</time></trkpt><trkpt lat="44.4765339" lon="9.7890207"><ele>529.4</ele><time>2026-04-26T15:11:21.792Z</time></trkpt><trkpt lat="44.4764931" lon="9.7888849"><ele>527.0</ele><time>2026-04-26T15:11:22.791Z</time></trkpt><trkpt lat="44.4764552" lon="9.7887478"><ele>527.0</ele><time>2026-04-26T15:11:23.791Z</time></trkpt><trkpt lat="44.4764173" lon="9.7886108"><ele>527.0</ele><time>2026-04-26T15:11:24.791Z</time></trkpt><trkpt lat="44.476373" lon="9.7884856"><ele>527.0</ele><time>2026-04-26T15:11:25.791Z</time></trkpt><trkpt lat="44.4763168" lon="9.7883711"><ele>527.0</ele><time>2026-04-26T15:11:26.791Z</time></trkpt><trkpt lat="44.4762412" lon="9.7882824"><ele>527.0</ele><time>2026-04-26T15:11:27.791Z</time></trkpt><trkpt lat="44.4761577" lon="9.7882053"><ele>524.4</ele><time>2026-04-26T15:11:28.791Z</time></trkpt><trkpt lat="44.4760713" lon="9.7881326"><ele>521.8000000000001</ele><time>2026-04-26T15:11:29.792Z</time></trkpt><trkpt lat="44.4759827" lon="9.7880631"><ele>519.2</ele><time>2026-04-26T15:11:30.791Z</time></trkpt><trkpt lat="44.4758993" lon="9.7880036"><ele>516.6</ele><time>2026-04-26T15:11:31.791Z</time></trkpt><trkpt lat="44.475808" lon="9.7879463"><ele>514.0</ele><time>2026-04-26T15:11:32.791Z</time></trkpt><trkpt lat="44.4757147" lon="9.7879095"><ele>514.0</ele><time>2026-04-26T15:11:33.792Z</time></trkpt><trkpt lat="44.4755858" lon="9.7878723"><ele>514.0</ele><time>2026-04-26T15:11:34.792Z</time></trkpt><trkpt lat="44.4754674" lon="9.7878461"><ele>514.0</ele><time>2026-04-26T15:11:35.791Z</time></trkpt><trkpt lat="44.4753495" lon="9.7878297"><ele>514.0</ele><time>2026-04-26T15:11:36.792Z</time></trkpt><trkpt lat="44.4752448" lon="9.7877821"><ele>512.4</ele><time>2026-04-26T15:11:37.791Z</time></trkpt><trkpt lat="44.4751526" lon="9.7877415"><ele>510.79999999999995</ele><time>2026-04-26T15:11:38.792Z</time></trkpt><trkpt lat="44.47506" lon="9.7877371"><ele>509.20000000000005</ele><time>2026-04-26T15:11:39.791Z</time></trkpt><trkpt lat="44.4749723" lon="9.7877744"><ele>507.6</ele><time>2026-04-26T15:11:40.791Z</time></trkpt><trkpt lat="44.4748955" lon="9.7878623"><ele>506.0</ele><time>2026-04-26T15:11:41.791Z</time></trkpt><trkpt lat="44.4748227" lon="9.787972"><ele>506.0</ele><time>2026-04-26T15:11:42.791Z</time></trkpt><trkpt lat="44.4747506" lon="9.788085"><ele>506.0</ele><time>2026-04-26T15:11:43.791Z</time></trkpt><trkpt lat="44.4746825" lon="9.7882068"><ele>506.0</ele><time>2026-04-26T15:11:44.791Z</time></trkpt><trkpt lat="44.4746194" lon="9.788338"><ele>506.0</ele><time>2026-04-26T15:11:45.791Z</time></trkpt><trkpt lat="44.4745634" lon="9.7884752"><ele>506.0</ele><time>2026-04-26T15:11:46.791Z</time></trkpt><trkpt lat="44.4745091" lon="9.7886192"><ele>505.0</ele><time>2026-04-26T15:11:47.791Z</time></trkpt><trkpt lat="44.4744524" lon="9.7887682"><ele>504.0</ele><time>2026-04-26T15:11:48.791Z</time></trkpt><trkpt lat="44.4743849" lon="9.788909"><ele>503.0</ele><time>2026-04-26T15:11:49.791Z</time></trkpt><trkpt lat="44.4743053" lon="9.7890248"><ele>502.0</ele><time>2026-04-26T15:11:50.792Z</time></trkpt><trkpt lat="44.4742116" lon="9.7891052"><ele>502.0</ele><time>2026-04-26T15:11:51.792Z</time></trkpt><trkpt lat="44.4741052" lon="9.7891563"><ele>502.0</ele><time>2026-04-26T15:11:52.791Z</time></trkpt><trkpt lat="44.4739878" lon="9.7891766"><ele>502.0</ele><time>2026-04-26T15:11:53.791Z</time></trkpt><trkpt lat="44.4738679" lon="9.7891604"><ele>502.0</ele><time>2026-04-26T15:11:54.792Z</time></trkpt><trkpt lat="44.4737481" lon="9.7891094"><ele>502.25</ele><time>2026-04-26T15:11:55.792Z</time></trkpt><trkpt lat="44.4736326" lon="9.7890261"><ele>502.5</ele><time>2026-04-26T15:11:56.791Z</time></trkpt><trkpt lat="44.4735127" lon="9.7889446"><ele>502.75</ele><time>2026-04-26T15:11:57.791Z</time></trkpt><trkpt lat="44.4733942" lon="9.7888689"><ele>503.0</ele><time>2026-04-26T15:11:58.791Z</time></trkpt><trkpt lat="44.4732885" lon="9.7888012"><ele>502.99999999999994</ele><time>2026-04-26T15:11:59.791Z</time></trkpt><trkpt lat="44.4731827" lon="9.7887608"><ele>503.0</ele><time>2026-04-26T15:12:00.791Z</time></trkpt><trkpt lat="44.4730966" lon="9.7887382"><ele>503.0</ele><time>2026-04-26T15:12:01.791Z</time></trkpt><trkpt lat="44.4730167" lon="9.7887332"><ele>503.0</ele><time>2026-04-26T15:12:02.791Z</time></trkpt><trkpt lat="44.4729684" lon="9.7886743"><ele>502.99999999999994</ele><time>2026-04-26T15:12:04.791Z</time></trkpt><trkpt lat="44.4729831" lon="9.7885752"><ele>503.0</ele><time>2026-04-26T15:12:06.791Z</time></trkpt><trkpt lat="44.4730417" lon="9.7884342"><ele>499.0</ele><time>2026-04-26T15:12:08.792Z</time></trkpt><trkpt lat="44.4730806" lon="9.7883535"><ele>494.99999999999994</ele><time>2026-04-26T15:12:09.791Z</time></trkpt><trkpt lat="44.4731277" lon="9.7882528"><ele>490.99999999999994</ele><time>2026-04-26T15:12:10.791Z</time></trkpt><trkpt lat="44.4731845" lon="9.7881365"><ele>487.0</ele><time>2026-04-26T15:12:11.792Z</time></trkpt><trkpt lat="44.4732434" lon="9.7880122"><ele>483.0</ele><time>2026-04-26T15:12:12.791Z</time></trkpt><trkpt lat="44.4733059" lon="9.7878778"><ele>483.0</ele><time>2026-04-26T15:12:13.791Z</time></trkpt><trkpt lat="44.4733712" lon="9.7877425"><ele>483.0</ele><time>2026-04-26T15:12:14.791Z</time></trkpt><trkpt lat="44.4734398" lon="9.787603"><ele>483.0</ele><time>2026-04-26T15:12:15.791Z</time></trkpt><trkpt lat="44.4735101" lon="9.7874527"><ele>483.0</ele><time>2026-04-26T15:12:16.791Z</time></trkpt><trkpt lat="44.4735845" lon="9.7873033"><ele>481.5</ele><time>2026-04-26T15:12:17.791Z</time></trkpt><trkpt lat="44.4736602" lon="9.7871505"><ele>480.0</ele><time>2026-04-26T15:12:18.791Z</time></trkpt><trkpt lat="44.4737386" lon="9.7869895"><ele>478.5</ele><time>2026-04-26T15:12:19.791Z</time></trkpt><trkpt lat="44.4738174" lon="9.7868291"><ele>477.0</ele><time>2026-04-26T15:12:20.791Z</time></trkpt><trkpt lat="44.4738945" lon="9.7866632"><ele>477.0</ele><time>2026-04-26T15:12:21.791Z</time></trkpt><trkpt lat="44.4739708" lon="9.7864924"><ele>477.0</ele><time>2026-04-26T15:12:22.792Z</time></trkpt><trkpt lat="44.4740508" lon="9.7863216"><ele>477.0</ele><time>2026-04-26T15:12:23.791Z</time></trkpt><trkpt lat="44.4741316" lon="9.7861535"><ele>477.0</ele><time>2026-04-26T15:12:24.792Z</time></trkpt><trkpt lat="44.4742125" lon="9.7859856"><ele>474.0</ele><time>2026-04-26T15:12:25.793Z</time></trkpt><trkpt lat="44.4742928" lon="9.7858195"><ele>471.0</ele><time>2026-04-26T15:12:26.791Z</time></trkpt><trkpt lat="44.4743723" lon="9.7856544"><ele>468.0</ele><time>2026-04-26T15:12:27.791Z</time></trkpt><trkpt lat="44.4744486" lon="9.7854953"><ele>465.0</ele><time>2026-04-26T15:12:28.791Z</time></trkpt><trkpt lat="44.4745358" lon="9.7853567"><ele>464.0</ele><time>2026-04-26T15:12:29.791Z</time></trkpt><trkpt lat="44.4746319" lon="9.785232"><ele>463.0</ele><time>2026-04-26T15:12:30.791Z</time></trkpt><trkpt lat="44.4747456" lon="9.7851569"><ele>462.0</ele><time>2026-04-26T15:12:31.792Z</time></trkpt><trkpt lat="44.474871" lon="9.7851262"><ele>461.0</ele><time>2026-04-26T15:12:32.791Z</time></trkpt><trkpt lat="44.4750047" lon="9.7851078"><ele>461.0</ele><time>2026-04-26T15:12:33.791Z</time></trkpt><trkpt lat="44.4751439" lon="9.7850922"><ele>461.0</ele><time>2026-04-26T15:12:34.792Z</time></trkpt><trkpt lat="44.4752882" lon="9.7850746"><ele>461.0</ele><time>2026-04-26T15:12:35.791Z</time></trkpt><trkpt lat="44.4754353" lon="9.7850573"><ele>461.0</ele><time>2026-04-26T15:12:36.791Z</time></trkpt><trkpt lat="44.4755838" lon="9.7850339"><ele>460.0</ele><time>2026-04-26T15:12:37.791Z</time></trkpt><trkpt lat="44.4757356" lon="9.7850138"><ele>459.0</ele><time>2026-04-26T15:12:38.791Z</time></trkpt><trkpt lat="44.4758867" lon="9.7849912"><ele>458.0</ele><time>2026-04-26T15:12:39.792Z</time></trkpt><trkpt lat="44.4760375" lon="9.7849685"><ele>458.0</ele><time>2026-04-26T15:12:40.792Z</time></trkpt><trkpt lat="44.4761911" lon="9.7849442"><ele>458.0</ele><time>2026-04-26T15:12:41.791Z</time></trkpt><trkpt lat="44.4763447" lon="9.784907"><ele>458.0</ele><time>2026-04-26T15:12:42.792Z</time></trkpt><trkpt lat="44.4764949" lon="9.784849"><ele>458.66666666666663</ele><time>2026-04-26T15:12:43.792Z</time></trkpt><trkpt lat="44.4766373" lon="9.7847522"><ele>459.33333333333337</ele><time>2026-04-26T15:12:44.792Z</time></trkpt><trkpt lat="44.4767764" lon="9.7846367"><ele>460.0</ele><time>2026-04-26T15:12:45.791Z</time></trkpt><trkpt lat="44.4769152" lon="9.7845174"><ele>460.0</ele><time>2026-04-26T15:12:46.791Z</time></trkpt><trkpt lat="44.4770466" lon="9.7844037"><ele>460.0</ele><time>2026-04-26T15:12:47.791Z</time></trkpt><trkpt lat="44.4771747" lon="9.7842899"><ele>460.0</ele><time>2026-04-26T15:12:48.791Z</time></trkpt><trkpt lat="44.477303" lon="9.7841768"><ele>460.0</ele><time>2026-04-26T15:12:49.791Z</time></trkpt><trkpt lat="44.4774321" lon="9.7840523"><ele>460.0</ele><time>2026-04-26T15:12:50.791Z</time></trkpt><trkpt lat="44.4775461" lon="9.783908"><ele>460.0</ele><time>2026-04-26T15:12:51.791Z</time></trkpt><trkpt lat="44.4776405" lon="9.783741"><ele>460.0</ele><time>2026-04-26T15:12:52.791Z</time></trkpt><trkpt lat="44.4777231" lon="9.7835785"><ele>460.0</ele><time>2026-04-26T15:12:53.792Z</time></trkpt><trkpt lat="44.4778086" lon="9.7834339"><ele>460.0</ele><time>2026-04-26T15:12:54.791Z</time></trkpt><trkpt lat="44.4779056" lon="9.7833251"><ele>460.0</ele><time>2026-04-26T15:12:55.791Z</time></trkpt><trkpt lat="44.4780142" lon="9.7832641"><ele>461.0</ele><time>2026-04-26T15:12:56.791Z</time></trkpt><trkpt lat="44.4781232" lon="9.7832641"><ele>462.0</ele><time>2026-04-26T15:12:57.792Z</time></trkpt><trkpt lat="44.4782326" lon="9.7833166"><ele>463.0</ele><time>2026-04-26T15:12:58.791Z</time></trkpt><trkpt lat="44.4783361" lon="9.7834248"><ele>464.0</ele><time>2026-04-26T15:12:59.791Z</time></trkpt><trkpt lat="44.478426" lon="9.7835817"><ele>464.0</ele><time>2026-04-26T15:13:00.791Z</time></trkpt><trkpt lat="44.4785209" lon="9.7837298"><ele>464.0</ele><time>2026-04-26T15:13:01.792Z</time></trkpt><trkpt lat="44.4786143" lon="9.7838418"><ele>464.0</ele><time>2026-04-26T15:13:02.792Z</time></trkpt><trkpt lat="44.4787237" lon="9.7839096"><ele>464.0</ele><time>2026-04-26T15:13:03.791Z</time></trkpt><trkpt lat="44.4788249" lon="9.7839744"><ele>461.66666666666663</ele><time>2026-04-26T15:13:04.791Z</time></trkpt><trkpt lat="44.4789797" lon="9.7839208"><ele>459.33333333333337</ele><time>2026-04-26T15:13:05.791Z</time></trkpt><trkpt lat="44.4791327" lon="9.7838895"><ele>457.0</ele><time>2026-04-26T15:13:06.791Z</time></trkpt><trkpt lat="44.4792843" lon="9.7838645"><ele>457.0</ele><time>2026-04-26T15:13:07.791Z</time></trkpt><trkpt lat="44.479437" lon="9.7838377"><ele>457.0</ele><time>2026-04-26T15:13:08.791Z</time></trkpt><trkpt lat="44.4796003" lon="9.7838014"><ele>457.0</ele><time>2026-04-26T15:13:09.791Z</time></trkpt><trkpt lat="44.479753" lon="9.7837463"><ele>456.33333333333337</ele><time>2026-04-26T15:13:10.791Z</time></trkpt><trkpt lat="44.4799011" lon="9.7836599"><ele>455.66666666666663</ele><time>2026-04-26T15:13:11.792Z</time></trkpt><trkpt lat="44.4800442" lon="9.7835562"><ele>455.0</ele><time>2026-04-26T15:13:12.791Z</time></trkpt><trkpt lat="44.4801903" lon="9.7834392"><ele>448.0</ele><time>2026-04-26T15:13:13.791Z</time></trkpt><trkpt lat="44.4803357" lon="9.7833152"><ele>441.0</ele><time>2026-04-26T15:13:14.792Z</time></trkpt><trkpt lat="44.4804825" lon="9.7831831"><ele>434.0</ele><time>2026-04-26T15:13:15.791Z</time></trkpt><trkpt lat="44.4806286" lon="9.7830586"><ele>434.0</ele><time>2026-04-26T15:13:16.791Z</time></trkpt><trkpt lat="44.4807798" lon="9.7829337"><ele>434.0</ele><time>2026-04-26T15:13:17.791Z</time></trkpt><trkpt lat="44.480932" lon="9.7828057"><ele>434.0</ele><time>2026-04-26T15:13:18.791Z</time></trkpt><trkpt lat="44.48109" lon="9.7826858"><ele>431.0</ele><time>2026-04-26T15:13:19.791Z</time></trkpt><trkpt lat="44.481245" lon="9.7825618"><ele>428.0</ele><time>2026-04-26T15:13:20.791Z</time></trkpt><trkpt lat="44.4814023" lon="9.7824335"><ele>425.0</ele><time>2026-04-26T15:13:21.791Z</time></trkpt><trkpt lat="44.481558" lon="9.7823012"><ele>425.0</ele><time>2026-04-26T15:13:22.791Z</time></trkpt><trkpt lat="44.4817162" lon="9.78217"><ele>425.0</ele><time>2026-04-26T15:13:23.791Z</time></trkpt><trkpt lat="44.4818749" lon="9.782036"><ele>425.0</ele><time>2026-04-26T15:13:24.791Z</time></trkpt><trkpt lat="44.4820353" lon="9.7819041"><ele>423.0</ele><time>2026-04-26T15:13:25.792Z</time></trkpt><trkpt lat="44.4821955" lon="9.7817711"><ele>421.0</ele><time>2026-04-26T15:13:26.791Z</time></trkpt><trkpt lat="44.4823572" lon="9.7816361"><ele>419.0</ele><time>2026-04-26T15:13:27.792Z</time></trkpt><trkpt lat="44.482523" lon="9.781504"><ele>419.0</ele><time>2026-04-26T15:13:28.792Z</time></trkpt><trkpt lat="44.4826849" lon="9.7813675"><ele>419.0</ele><time>2026-04-26T15:13:29.792Z</time></trkpt><trkpt lat="44.4828484" lon="9.7812283"><ele>419.0</ele><time>2026-04-26T15:13:30.792Z</time></trkpt><trkpt lat="44.4830106" lon="9.7810916"><ele>418.0</ele><time>2026-04-26T15:13:31.792Z</time></trkpt><trkpt lat="44.4831733" lon="9.7809581"><ele>417.0</ele><time>2026-04-26T15:13:32.792Z</time></trkpt><trkpt lat="44.4833341" lon="9.7808269"><ele>416.0</ele><time>2026-04-26T15:13:33.791Z</time></trkpt><trkpt lat="44.4834918" lon="9.7806934"><ele>416.0</ele><time>2026-04-26T15:13:34.791Z</time></trkpt><trkpt lat="44.4836491" lon="9.7805647"><ele>416.0</ele><time>2026-04-26T15:13:35.792Z</time></trkpt><trkpt lat="44.4838022" lon="9.7804364"><ele>416.0</ele><time>2026-04-26T15:13:36.791Z</time></trkpt><trkpt lat="44.4839559" lon="9.7803082"><ele>415.0</ele><time>2026-04-26T15:13:37.792Z</time></trkpt><trkpt lat="44.4841073" lon="9.7801842"><ele>414.0</ele><time>2026-04-26T15:13:38.792Z</time></trkpt><trkpt lat="44.4842574" lon="9.7800592"><ele>413.0</ele><time>2026-04-26T15:13:39.791Z</time></trkpt><trkpt lat="44.4844057" lon="9.7799375"><ele>412.3333333333333</ele><time>2026-04-26T15:13:40.791Z</time></trkpt><trkpt lat="44.4845537" lon="9.7798147"><ele>411.66666666666663</ele><time>2026-04-26T15:13:41.791Z</time></trkpt><trkpt lat="44.4847001" lon="9.7796886"><ele>411.0</ele><time>2026-04-26T15:13:42.792Z</time></trkpt><trkpt lat="44.4848388" lon="9.7795697"><ele>411.0</ele><time>2026-04-26T15:13:43.791Z</time></trkpt><trkpt lat="44.4849747" lon="9.7794558"><ele>411.0</ele><time>2026-04-26T15:13:44.791Z</time></trkpt><trkpt lat="44.485106" lon="9.7793464"><ele>411.0</ele><time>2026-04-26T15:13:45.792Z</time></trkpt><trkpt lat="44.4852351" lon="9.7792568"><ele>410.75</ele><time>2026-04-26T15:13:46.791Z</time></trkpt><trkpt lat="44.4853634" lon="9.7791911"><ele>410.5</ele><time>2026-04-26T15:13:47.792Z</time></trkpt><trkpt lat="44.4854839" lon="9.7791391"><ele>410.25</ele><time>2026-04-26T15:13:48.791Z</time></trkpt><trkpt lat="44.4855955" lon="9.7790993"><ele>410.0</ele><time>2026-04-26T15:13:49.791Z</time></trkpt><trkpt lat="44.4856888" lon="9.7790785"><ele>409.99999999999994</ele><time>2026-04-26T15:13:50.791Z</time></trkpt><trkpt lat="44.4857601" lon="9.779085"><ele>410.0</ele><time>2026-04-26T15:13:51.791Z</time></trkpt><trkpt lat="44.4858343" lon="9.779188"><ele>410.0</ele><time>2026-04-26T15:13:53.791Z</time></trkpt><trkpt lat="44.4858424" lon="9.7792758"><ele>410.0</ele><time>2026-04-26T15:13:54.791Z</time></trkpt><trkpt lat="44.4858474" lon="9.7793766"><ele>409.99999999999994</ele><time>2026-04-26T15:13:55.791Z</time></trkpt><trkpt lat="44.4858597" lon="9.7794656"><ele>410.0</ele><time>2026-04-26T15:13:56.791Z</time></trkpt><trkpt lat="44.4858815" lon="9.7796315"><ele>410.3333333333333</ele><time>2026-04-26T15:13:58.791Z</time></trkpt><trkpt lat="44.4859166" lon="9.7797723"><ele>410.66666666666663</ele><time>2026-04-26T15:14:00.792Z</time></trkpt><trkpt lat="44.4859466" lon="9.7798946"><ele>411.0</ele><time>2026-04-26T15:14:02.792Z</time></trkpt><trkpt lat="44.4859925" lon="9.779964"><ele>411.33333333333337</ele><time>2026-04-26T15:14:31.791Z</time></trkpt><trkpt lat="44.4860719" lon="9.7799312"><ele>411.6666666666667</ele><time>2026-04-26T15:14:34.791Z</time></trkpt><trkpt lat="44.4861408" lon="9.7798904"><ele>412.0</ele><time>2026-04-26T15:14:37.791Z</time></trkpt><trkpt lat="44.4862446" lon="9.7799366"><ele>411.83333333333337</ele><time>2026-04-26T15:14:39.791Z</time></trkpt><trkpt lat="44.4863083" lon="9.7799728"><ele>411.6666666666667</ele><time>2026-04-26T15:14:40.791Z</time></trkpt><trkpt lat="44.4863886" lon="9.7800146"><ele>411.5</ele><time>2026-04-26T15:14:41.791Z</time></trkpt><trkpt lat="44.4864699" lon="9.7800579"><ele>411.33333333333337</ele><time>2026-04-26T15:14:42.792Z</time></trkpt><trkpt lat="44.4865458" lon="9.7801072"><ele>411.1666666666667</ele><time>2026-04-26T15:14:43.791Z</time></trkpt><trkpt lat="44.4866137" lon="9.7801455"><ele>411.0</ele><time>2026-04-26T15:14:44.791Z</time></trkpt><trkpt lat="44.4867093" lon="9.7802162"><ele>411.0</ele><time>2026-04-26T15:14:46.792Z</time></trkpt><trkpt lat="44.486774" lon="9.7802684"><ele>411.0</ele><time>2026-04-26T15:14:48.792Z</time></trkpt><trkpt lat="44.4868427" lon="9.78028"><ele>411.0</ele><time>2026-04-26T15:14:50.79Z</time></trkpt><trkpt lat="44.486892" lon="9.7802144"><ele>411.0</ele><time>2026-04-26T15:14:52.791Z</time></trkpt><trkpt lat="44.4869114" lon="9.7801299"><ele>411.0</ele><time>2026-04-26T15:14:53.79Z</time></trkpt><trkpt lat="44.4869067" lon="9.7799565"><ele>411.0</ele><time>2026-04-26T15:14:55.791Z</time></trkpt><trkpt lat="44.4868994" lon="9.7797925"><ele>410.25</ele><time>2026-04-26T15:14:57.791Z</time></trkpt><trkpt lat="44.4868917" lon="9.779629"><ele>409.5</ele><time>2026-04-26T15:14:59.79Z</time></trkpt><trkpt lat="44.486894" lon="9.7794606"><ele>408.75</ele><time>2026-04-26T15:15:01.791Z</time></trkpt><trkpt lat="44.4869179" lon="9.7793125"><ele>408.0</ele><time>2026-04-26T15:15:03.79Z</time></trkpt><trkpt lat="44.4870014" lon="9.7791887"><ele>407.59999999999997</ele><time>2026-04-26T15:15:05.79Z</time></trkpt><trkpt lat="44.4870642" lon="9.7791631"><ele>407.2</ele><time>2026-04-26T15:15:06.791Z</time></trkpt><trkpt lat="44.4871415" lon="9.7791426"><ele>406.8</ele><time>2026-04-26T15:15:07.79Z</time></trkpt><trkpt lat="44.4872405" lon="9.7791298"><ele>406.4</ele><time>2026-04-26T15:15:08.79Z</time></trkpt><trkpt lat="44.4873574" lon="9.779117"><ele>406.0</ele><time>2026-04-26T15:15:09.791Z</time></trkpt><trkpt lat="44.4874927" lon="9.7791153"><ele>405.0</ele><time>2026-04-26T15:15:10.79Z</time></trkpt><trkpt lat="44.4876413" lon="9.7791193"><ele>404.0</ele><time>2026-04-26T15:15:11.79Z</time></trkpt><trkpt lat="44.4877987" lon="9.7791295"><ele>403.0</ele><time>2026-04-26T15:15:12.79Z</time></trkpt><trkpt lat="44.4879567" lon="9.779145"><ele>402.0</ele><time>2026-04-26T15:15:13.791Z</time></trkpt><trkpt lat="44.4881188" lon="9.7791536"><ele>401.0</ele><time>2026-04-26T15:15:14.79Z</time></trkpt><trkpt lat="44.4882909" lon="9.7791628"><ele>400.0</ele><time>2026-04-26T15:15:15.79Z</time></trkpt><trkpt lat="44.4884635" lon="9.7791654"><ele>400.0</ele><time>2026-04-26T15:15:16.791Z</time></trkpt><trkpt lat="44.4886394" lon="9.7791682"><ele>400.0</ele><time>2026-04-26T15:15:17.79Z</time></trkpt><trkpt lat="44.4888194" lon="9.7791697"><ele>400.0</ele><time>2026-04-26T15:15:18.79Z</time></trkpt><trkpt lat="44.4890011" lon="9.779173"><ele>399.6666666666667</ele><time>2026-04-26T15:15:19.79Z</time></trkpt><trkpt lat="44.4891772" lon="9.7791735"><ele>399.33333333333337</ele><time>2026-04-26T15:15:20.791Z</time></trkpt><trkpt lat="44.4893624" lon="9.7791743"><ele>399.0</ele><time>2026-04-26T15:15:21.79Z</time></trkpt><trkpt lat="44.48955" lon="9.7791714"><ele>398.0</ele><time>2026-04-26T15:15:22.79Z</time></trkpt><trkpt lat="44.4897349" lon="9.7791653"><ele>397.0</ele><time>2026-04-26T15:15:23.792Z</time></trkpt><trkpt lat="44.4899205" lon="9.7791631"><ele>396.0</ele><time>2026-04-26T15:15:24.791Z</time></trkpt><trkpt lat="44.4900933" lon="9.7791657"><ele>396.0</ele><time>2026-04-26T15:15:25.79Z</time></trkpt><trkpt lat="44.4902601" lon="9.7791667"><ele>396.0</ele><time>2026-04-26T15:15:26.79Z</time></trkpt><trkpt lat="44.4904205" lon="9.7791625"><ele>396.0</ele><time>2026-04-26T15:15:27.79Z</time></trkpt><trkpt lat="44.4905647" lon="9.7791591"><ele>395.4</ele><time>2026-04-26T15:15:28.791Z</time></trkpt><trkpt lat="44.4906994" lon="9.779153"><ele>394.8</ele><time>2026-04-26T15:15:29.79Z</time></trkpt><trkpt lat="44.490812" lon="9.7791648"><ele>394.2</ele><time>2026-04-26T15:15:30.79Z</time></trkpt><trkpt lat="44.490895" lon="9.7792075"><ele>393.59999999999997</ele><time>2026-04-26T15:15:31.79Z</time></trkpt><trkpt lat="44.4909517" lon="9.7792726"><ele>393.0</ele><time>2026-04-26T15:15:32.79Z</time></trkpt><trkpt lat="44.4909809" lon="9.7793598"><ele>393.0</ele><time>2026-04-26T15:15:33.79Z</time></trkpt><trkpt lat="44.4909971" lon="9.7794566"><ele>393.0</ele><time>2026-04-26T15:15:34.79Z</time></trkpt><trkpt lat="44.491032" lon="9.7795426"><ele>393.0</ele><time>2026-04-26T15:15:35.79Z</time></trkpt><trkpt lat="44.4910918" lon="9.7795954"><ele>393.0</ele><time>2026-04-26T15:15:36.79Z</time></trkpt><trkpt lat="44.4911703" lon="9.7796121"><ele>393.0</ele><time>2026-04-26T15:15:37.79Z</time></trkpt><trkpt lat="44.4912558" lon="9.7796189"><ele>393.0</ele><time>2026-04-26T15:15:38.79Z</time></trkpt><trkpt lat="44.491346" lon="9.7796222"><ele>392.8333333333333</ele><time>2026-04-26T15:15:39.79Z</time></trkpt><trkpt lat="44.4914313" lon="9.779623"><ele>392.66666666666663</ele><time>2026-04-26T15:15:40.791Z</time></trkpt><trkpt lat="44.4915036" lon="9.7796321"><ele>392.5</ele><time>2026-04-26T15:15:41.79Z</time></trkpt><trkpt lat="44.4915707" lon="9.779633"><ele>392.3333333333333</ele><time>2026-04-26T15:15:42.79Z</time></trkpt><trkpt lat="44.4916678" lon="9.779605"><ele>392.16666666666663</ele><time>2026-04-26T15:15:44.79Z</time></trkpt><trkpt lat="44.4916798" lon="9.7795129"><ele>392.0</ele><time>2026-04-26T15:15:46.791Z</time></trkpt><trkpt lat="44.4916292" lon="9.7794491"><ele>392.0</ele><time>2026-04-26T15:15:48.791Z</time></trkpt><trkpt lat="44.4915427" lon="9.7794344"><ele>392.0</ele><time>2026-04-26T15:15:50.791Z</time></trkpt><trkpt lat="44.4914753" lon="9.7794672"><ele>392.0</ele><time>2026-04-26T15:15:52.79Z</time></trkpt><trkpt lat="44.4914857" lon="9.779555"><ele>392.0</ele><time>2026-04-26T15:15:53.79Z</time></trkpt><trkpt lat="44.4914771" lon="9.7796488"><ele>392.0</ele><time>2026-04-26T15:15:54.791Z</time></trkpt><trkpt lat="44.4914801" lon="9.7797397"><ele>392.0</ele><time>2026-04-26T15:15:55.79Z</time></trkpt><trkpt lat="44.4914795" lon="9.779846"><ele>392.0</ele><time>2026-04-26T15:15:56.79Z</time></trkpt><trkpt lat="44.4914692" lon="9.7799697"><ele>391.99999999999994</ele><time>2026-04-26T15:15:57.791Z</time></trkpt><trkpt lat="44.4914723" lon="9.7800951"><ele>392.0</ele><time>2026-04-26T15:15:58.791Z</time></trkpt><trkpt lat="44.4914877" lon="9.7802097"><ele>392.0</ele><time>2026-04-26T15:15:59.791Z</time></trkpt><trkpt lat="44.4915276" lon="9.7803051"><ele>392.0</ele><time>2026-04-26T15:16:00.791Z</time></trkpt><trkpt lat="44.4915811" lon="9.7803556"><ele>391.99999999999994</ele><time>2026-04-26T15:16:01.791Z</time></trkpt><trkpt lat="44.4916571" lon="9.7804333"><ele>392.0</ele><time>2026-04-26T15:16:03.791Z</time></trkpt><trkpt lat="44.4916593" lon="9.7805387"><ele>392.2857142857143</ele><time>2026-04-26T15:16:06.79Z</time></trkpt><trkpt lat="44.491603" lon="9.7805887"><ele>392.57142857142856</ele><time>2026-04-26T15:18:02.79Z</time></trkpt><trkpt lat="44.4915586" lon="9.7806622"><ele>392.8571428571429</ele><time>2026-04-26T15:18:09.79Z</time></trkpt><trkpt lat="44.4915371" lon="9.780758"><ele>393.1428571428571</ele><time>2026-04-26T15:18:17.888Z</time></trkpt><trkpt lat="44.4915342" lon="9.7806696"><ele>393.42857142857144</ele><time>2026-04-26T15:18:45.798Z</time></trkpt><trkpt lat="44.4916044" lon="9.7806071"><ele>393.7142857142857</ele><time>2026-04-26T15:45:01.786Z</time></trkpt><trkpt lat="44.4916686" lon="9.7805486"><ele>394.0</ele><time>2026-04-26T15:54:42.784Z</time></trkpt><trkpt lat="44.4916635" lon="9.7804475"><ele>394.00000000000006</ele><time>2026-04-26T15:54:57.784Z</time></trkpt><trkpt lat="44.4915808" lon="9.7803529"><ele>394.0</ele><time>2026-04-26T15:54:58.784Z</time></trkpt><trkpt lat="44.4914928" lon="9.7802307"><ele>394.0</ele><time>2026-04-26T15:55:00.784Z</time></trkpt><trkpt lat="44.4914737" lon="9.7801404"><ele>394.0</ele><time>2026-04-26T15:55:01.784Z</time></trkpt><trkpt lat="44.4914723" lon="9.7800427"><ele>394.00000000000006</ele><time>2026-04-26T15:55:02.784Z</time></trkpt><trkpt lat="44.491479" lon="9.7799455"><ele>394.0</ele><time>2026-04-26T15:55:03.784Z</time></trkpt><trkpt lat="44.4914833" lon="9.7798574"><ele>393.79999999999995</ele><time>2026-04-26T15:55:04.785Z</time></trkpt><trkpt lat="44.49147" lon="9.7797128"><ele>393.59999999999997</ele><time>2026-04-26T15:55:06.785Z</time></trkpt><trkpt lat="44.491391" lon="9.7796115"><ele>393.4</ele><time>2026-04-26T15:55:08.785Z</time></trkpt><trkpt lat="44.4913245" lon="9.7795991"><ele>393.2</ele><time>2026-04-26T15:55:09.785Z</time></trkpt><trkpt lat="44.4912567" lon="9.7796075"><ele>393.0</ele><time>2026-04-26T15:55:10.785Z</time></trkpt><trkpt lat="44.4911384" lon="9.7796232"><ele>393.0</ele><time>2026-04-26T15:55:12.785Z</time></trkpt><trkpt lat="44.4910555" lon="9.7796029"><ele>393.0</ele><time>2026-04-26T15:55:14.785Z</time></trkpt><trkpt lat="44.4910094" lon="9.7794949"><ele>393.0</ele><time>2026-04-26T15:55:16.785Z</time></trkpt><trkpt lat="44.4910049" lon="9.7793474"><ele>393.0</ele><time>2026-04-26T15:55:18.785Z</time></trkpt><trkpt lat="44.4910417" lon="9.7792316"><ele>393.0</ele><time>2026-04-26T15:55:20.785Z</time></trkpt><trkpt lat="44.4911448" lon="9.779208"><ele>392.8333333333333</ele><time>2026-04-26T15:55:22.785Z</time></trkpt><trkpt lat="44.4912184" lon="9.7792082"><ele>392.66666666666663</ele><time>2026-04-26T15:55:23.784Z</time></trkpt><trkpt lat="44.4913031" lon="9.7792122"><ele>392.5</ele><time>2026-04-26T15:55:24.785Z</time></trkpt><trkpt lat="44.4913779" lon="9.7792126"><ele>392.3333333333333</ele><time>2026-04-26T15:55:25.783Z</time></trkpt><trkpt lat="44.4914625" lon="9.7792143"><ele>392.16666666666663</ele><time>2026-04-26T15:55:26.784Z</time></trkpt><trkpt lat="44.4915474" lon="9.779226"><ele>392.0</ele><time>2026-04-26T15:55:27.783Z</time></trkpt><trkpt lat="44.4916299" lon="9.77925"><ele>391.99999999999994</ele><time>2026-04-26T15:55:28.785Z</time></trkpt><trkpt lat="44.4917064" lon="9.7792955"><ele>392.0</ele><time>2026-04-26T15:55:29.783Z</time></trkpt><trkpt lat="44.4917586" lon="9.7793642"><ele>392.0</ele><time>2026-04-26T15:55:30.783Z</time></trkpt><trkpt lat="44.4917993" lon="9.7794519"><ele>392.0</ele><time>2026-04-26T15:55:31.783Z</time></trkpt><trkpt lat="44.4918306" lon="9.7795634"><ele>391.99999999999994</ele><time>2026-04-26T15:55:32.784Z</time></trkpt><trkpt lat="44.4918607" lon="9.7796949"><ele>392.0</ele><time>2026-04-26T15:55:33.783Z</time></trkpt><trkpt lat="44.4918912" lon="9.7798376"><ele>392.0</ele><time>2026-04-26T15:55:34.783Z</time></trkpt><trkpt lat="44.4919262" lon="9.7799984"><ele>392.0</ele><time>2026-04-26T15:55:35.783Z</time></trkpt><trkpt lat="44.4919628" lon="9.7801729"><ele>392.0</ele><time>2026-04-26T15:55:36.784Z</time></trkpt><trkpt lat="44.4920004" lon="9.7803445"><ele>392.0</ele><time>2026-04-26T15:55:37.783Z</time></trkpt><trkpt lat="44.4920363" lon="9.7805219"><ele>392.5</ele><time>2026-04-26T15:55:38.783Z</time></trkpt><trkpt lat="44.4920713" lon="9.7807145"><ele>393.0</ele><time>2026-04-26T15:55:39.784Z</time></trkpt><trkpt lat="44.4921046" lon="9.7809105"><ele>393.5</ele><time>2026-04-26T15:55:40.783Z</time></trkpt><trkpt lat="44.492138" lon="9.7811081"><ele>394.0</ele><time>2026-04-26T15:55:41.784Z</time></trkpt><trkpt lat="44.4921734" lon="9.7813111"><ele>394.0</ele><time>2026-04-26T15:55:42.783Z</time></trkpt><trkpt lat="44.4922108" lon="9.781517"><ele>394.0</ele><time>2026-04-26T15:55:43.783Z</time></trkpt><trkpt lat="44.492247" lon="9.7817277"><ele>394.0</ele><time>2026-04-26T15:55:44.784Z</time></trkpt><trkpt lat="44.4922823" lon="9.7819363"><ele>391.6666666666667</ele><time>2026-04-26T15:55:45.783Z</time></trkpt><trkpt lat="44.4923237" lon="9.7821444"><ele>389.33333333333337</ele><time>2026-04-26T15:55:46.784Z</time></trkpt><trkpt lat="44.4923686" lon="9.7823464"><ele>387.0</ele><time>2026-04-26T15:55:47.783Z</time></trkpt><trkpt lat="44.4924186" lon="9.7825451"><ele>386.33333333333337</ele><time>2026-04-26T15:55:48.784Z</time></trkpt><trkpt lat="44.4924747" lon="9.7827427"><ele>385.6666666666667</ele><time>2026-04-26T15:55:49.783Z</time></trkpt><trkpt lat="44.4925331" lon="9.7829448"><ele>385.0</ele><time>2026-04-26T15:55:50.783Z</time></trkpt><trkpt lat="44.4926006" lon="9.7831448"><ele>385.0</ele><time>2026-04-26T15:55:51.783Z</time></trkpt><trkpt lat="44.4926739" lon="9.7833421"><ele>385.0</ele><time>2026-04-26T15:55:52.783Z</time></trkpt><trkpt lat="44.4927476" lon="9.7835435"><ele>385.0</ele><time>2026-04-26T15:55:53.783Z</time></trkpt><trkpt lat="44.4928345" lon="9.7837392"><ele>383.6666666666667</ele><time>2026-04-26T15:55:54.785Z</time></trkpt><trkpt lat="44.4929293" lon="9.7839344"><ele>382.33333333333337</ele><time>2026-04-26T15:55:55.783Z</time></trkpt><trkpt lat="44.4930281" lon="9.7841293"><ele>381.0</ele><time>2026-04-26T15:55:56.784Z</time></trkpt><trkpt lat="44.4931342" lon="9.7843204"><ele>380.6666666666667</ele><time>2026-04-26T15:55:57.783Z</time></trkpt><trkpt lat="44.4932429" lon="9.7844956"><ele>380.33333333333337</ele><time>2026-04-26T15:55:58.783Z</time></trkpt><trkpt lat="44.4933443" lon="9.7846653"><ele>380.0</ele><time>2026-04-26T15:55:59.784Z</time></trkpt><trkpt lat="44.4934485" lon="9.7848418"><ele>380.0</ele><time>2026-04-26T15:56:00.783Z</time></trkpt><trkpt lat="44.4935589" lon="9.7850227"><ele>380.0</ele><time>2026-04-26T15:56:01.784Z</time></trkpt><trkpt lat="44.4936684" lon="9.785209"><ele>380.0</ele><time>2026-04-26T15:56:02.783Z</time></trkpt><trkpt lat="44.4937814" lon="9.7853994"><ele>381.6666666666667</ele><time>2026-04-26T15:56:03.785Z</time></trkpt><trkpt lat="44.4938918" lon="9.7855955"><ele>383.33333333333337</ele><time>2026-04-26T15:56:04.783Z</time></trkpt><trkpt lat="44.4940007" lon="9.7857942"><ele>385.0</ele><time>2026-04-26T15:56:05.784Z</time></trkpt><trkpt lat="44.4941078" lon="9.7859972"><ele>384.0</ele><time>2026-04-26T15:56:06.783Z</time></trkpt><trkpt lat="44.4942111" lon="9.7862056"><ele>383.0</ele><time>2026-04-26T15:56:07.784Z</time></trkpt><trkpt lat="44.4943049" lon="9.7864168"><ele>382.0</ele><time>2026-04-26T15:56:08.783Z</time></trkpt><trkpt lat="44.494389" lon="9.7866298"><ele>381.3333333333333</ele><time>2026-04-26T15:56:09.784Z</time></trkpt><trkpt lat="44.494467" lon="9.7868453"><ele>380.6666666666667</ele><time>2026-04-26T15:56:10.783Z</time></trkpt><trkpt lat="44.4945419" lon="9.7870617"><ele>380.0</ele><time>2026-04-26T15:56:11.784Z</time></trkpt><trkpt lat="44.4946077" lon="9.7872859"><ele>380.33333333333337</ele><time>2026-04-26T15:56:12.783Z</time></trkpt><trkpt lat="44.4946701" lon="9.7875127"><ele>380.6666666666667</ele><time>2026-04-26T15:56:13.783Z</time></trkpt><trkpt lat="44.4947275" lon="9.7877442"><ele>381.0</ele><time>2026-04-26T15:56:14.784Z</time></trkpt><trkpt lat="44.4947836" lon="9.7879698"><ele>381.0</ele><time>2026-04-26T15:56:15.783Z</time></trkpt><trkpt lat="44.4948382" lon="9.7881935"><ele>381.0</ele><time>2026-04-26T15:56:16.783Z</time></trkpt><trkpt lat="44.4948949" lon="9.7884168"><ele>381.0</ele><time>2026-04-26T15:56:17.783Z</time></trkpt><trkpt lat="44.49495" lon="9.7886372"><ele>381.6666666666667</ele><time>2026-04-26T15:56:18.783Z</time></trkpt><trkpt lat="44.4950054" lon="9.7888543"><ele>382.33333333333337</ele><time>2026-04-26T15:56:19.784Z</time></trkpt><trkpt lat="44.4950631" lon="9.789077"><ele>383.0</ele><time>2026-04-26T15:56:20.783Z</time></trkpt><trkpt lat="44.4951183" lon="9.7892971"><ele>382.0</ele><time>2026-04-26T15:56:21.785Z</time></trkpt><trkpt lat="44.4951725" lon="9.7895201"><ele>381.0</ele><time>2026-04-26T15:56:22.783Z</time></trkpt><trkpt lat="44.4952264" lon="9.7897431"><ele>380.0</ele><time>2026-04-26T15:56:23.784Z</time></trkpt><trkpt lat="44.4952818" lon="9.7899671"><ele>380.6666666666667</ele><time>2026-04-26T15:56:24.783Z</time></trkpt><trkpt lat="44.4953387" lon="9.7901904"><ele>381.3333333333333</ele><time>2026-04-26T15:56:25.784Z</time></trkpt><trkpt lat="44.4953921" lon="9.7904142"><ele>382.0</ele><time>2026-04-26T15:56:26.783Z</time></trkpt><trkpt lat="44.4954458" lon="9.7906369"><ele>382.3333333333333</ele><time>2026-04-26T15:56:27.783Z</time></trkpt><trkpt lat="44.4955009" lon="9.7908652"><ele>382.6666666666667</ele><time>2026-04-26T15:56:28.783Z</time></trkpt><trkpt lat="44.4955584" lon="9.7910927"><ele>383.0</ele><time>2026-04-26T15:56:29.784Z</time></trkpt><trkpt lat="44.4956174" lon="9.791324"><ele>383.0</ele><time>2026-04-26T15:56:30.783Z</time></trkpt><trkpt lat="44.4956752" lon="9.7915591"><ele>383.0</ele><time>2026-04-26T15:56:31.783Z</time></trkpt><trkpt lat="44.4957367" lon="9.7917953"><ele>383.0</ele><time>2026-04-26T15:56:32.783Z</time></trkpt><trkpt lat="44.4957949" lon="9.7920331"><ele>382.6666666666667</ele><time>2026-04-26T15:56:33.783Z</time></trkpt><trkpt lat="44.4958522" lon="9.7922708"><ele>382.3333333333333</ele><time>2026-04-26T15:56:34.783Z</time></trkpt><trkpt lat="44.4959137" lon="9.7925107"><ele>382.0</ele><time>2026-04-26T15:56:35.784Z</time></trkpt><trkpt lat="44.4959782" lon="9.7927514"><ele>381.0</ele><time>2026-04-26T15:56:36.783Z</time></trkpt><trkpt lat="44.4960387" lon="9.7929996"><ele>380.0</ele><time>2026-04-26T15:56:37.784Z</time></trkpt><trkpt lat="44.4960996" lon="9.7932516"><ele>379.0</ele><time>2026-04-26T15:56:38.784Z</time></trkpt><trkpt lat="44.496161" lon="9.7935085"><ele>378.66666666666663</ele><time>2026-04-26T15:56:39.784Z</time></trkpt><trkpt lat="44.496223" lon="9.7937629"><ele>378.3333333333333</ele><time>2026-04-26T15:56:40.783Z</time></trkpt><trkpt lat="44.496291" lon="9.79402"><ele>378.0</ele><time>2026-04-26T15:56:41.783Z</time></trkpt><trkpt lat="44.4963528" lon="9.7942819"><ele>380.66666666666663</ele><time>2026-04-26T15:56:42.783Z</time></trkpt><trkpt lat="44.4964164" lon="9.7945447"><ele>383.3333333333333</ele><time>2026-04-26T15:56:43.784Z</time></trkpt><trkpt lat="44.496482" lon="9.794811"><ele>386.0</ele><time>2026-04-26T15:56:44.784Z</time></trkpt><trkpt lat="44.4965467" lon="9.7950776"><ele>384.3333333333333</ele><time>2026-04-26T15:56:45.783Z</time></trkpt><trkpt lat="44.496613" lon="9.795345"><ele>382.66666666666663</ele><time>2026-04-26T15:56:46.783Z</time></trkpt><trkpt lat="44.4966802" lon="9.7956133"><ele>381.0</ele><time>2026-04-26T15:56:47.785Z</time></trkpt><trkpt lat="44.4967464" lon="9.7958816"><ele>380.6666666666667</ele><time>2026-04-26T15:56:48.784Z</time></trkpt><trkpt lat="44.4968109" lon="9.7961519"><ele>380.33333333333337</ele><time>2026-04-26T15:56:49.783Z</time></trkpt><trkpt lat="44.4968765" lon="9.7964198"><ele>380.0</ele><time>2026-04-26T15:56:50.783Z</time></trkpt><trkpt lat="44.4969413" lon="9.7966817"><ele>379.33333333333337</ele><time>2026-04-26T15:56:51.783Z</time></trkpt><trkpt lat="44.4970068" lon="9.7969413"><ele>378.6666666666667</ele><time>2026-04-26T15:56:52.784Z</time></trkpt><trkpt lat="44.4970696" lon="9.7971957"><ele>378.0</ele><time>2026-04-26T15:56:53.783Z</time></trkpt><trkpt lat="44.4971297" lon="9.797446"><ele>378.6666666666667</ele><time>2026-04-26T15:56:54.784Z</time></trkpt><trkpt lat="44.4971921" lon="9.7976886"><ele>379.33333333333337</ele><time>2026-04-26T15:56:55.783Z</time></trkpt><trkpt lat="44.4972525" lon="9.7979334"><ele>380.0</ele><time>2026-04-26T15:56:56.784Z</time></trkpt><trkpt lat="44.4973174" lon="9.7981777"><ele>380.0</ele><time>2026-04-26T15:56:57.783Z</time></trkpt><trkpt lat="44.4973897" lon="9.7984221"><ele>380.0</ele><time>2026-04-26T15:56:58.784Z</time></trkpt><trkpt lat="44.4974626" lon="9.7986639"><ele>380.0</ele><time>2026-04-26T15:56:59.783Z</time></trkpt><trkpt lat="44.4975408" lon="9.7989001"><ele>380.0</ele><time>2026-04-26T15:57:00.783Z</time></trkpt><trkpt lat="44.497625" lon="9.7991305"><ele>380.0</ele><time>2026-04-26T15:57:01.783Z</time></trkpt><trkpt lat="44.497718" lon="9.7993569"><ele>380.0</ele><time>2026-04-26T15:57:02.783Z</time></trkpt><trkpt lat="44.4978144" lon="9.7995829"><ele>380.33333333333337</ele><time>2026-04-26T15:57:03.785Z</time></trkpt><trkpt lat="44.4979122" lon="9.7998058"><ele>380.6666666666667</ele><time>2026-04-26T15:57:04.783Z</time></trkpt><trkpt lat="44.4980087" lon="9.8000303"><ele>381.0</ele><time>2026-04-26T15:57:05.784Z</time></trkpt><trkpt lat="44.4981041" lon="9.8002536"><ele>381.0</ele><time>2026-04-26T15:57:06.784Z</time></trkpt><trkpt lat="44.4982012" lon="9.8004749"><ele>381.0</ele><time>2026-04-26T15:57:07.783Z</time></trkpt><trkpt lat="44.4982973" lon="9.8006938"><ele>381.0</ele><time>2026-04-26T15:57:08.783Z</time></trkpt><trkpt lat="44.4983944" lon="9.8009157"><ele>379.3333333333333</ele><time>2026-04-26T15:57:09.783Z</time></trkpt><trkpt lat="44.498494" lon="9.8011357"><ele>377.66666666666663</ele><time>2026-04-26T15:57:10.783Z</time></trkpt><trkpt lat="44.4985925" lon="9.8013543"><ele>376.0</ele><time>2026-04-26T15:57:11.784Z</time></trkpt><trkpt lat="44.4986896" lon="9.8015767"><ele>378.0</ele><time>2026-04-26T15:57:12.783Z</time></trkpt><trkpt lat="44.498787" lon="9.8017985"><ele>380.0</ele><time>2026-04-26T15:57:13.784Z</time></trkpt><trkpt lat="44.498885" lon="9.8020162"><ele>382.0</ele><time>2026-04-26T15:57:14.783Z</time></trkpt><trkpt lat="44.4989819" lon="9.8022351"><ele>382.0</ele><time>2026-04-26T15:57:15.785Z</time></trkpt><trkpt lat="44.4990794" lon="9.8024512"><ele>382.0</ele><time>2026-04-26T15:57:16.783Z</time></trkpt><trkpt lat="44.4991742" lon="9.8026697"><ele>382.0</ele><time>2026-04-26T15:57:17.784Z</time></trkpt><trkpt lat="44.499268" lon="9.8028882"><ele>380.3333333333333</ele><time>2026-04-26T15:57:18.783Z</time></trkpt><trkpt lat="44.4993547" lon="9.8031158"><ele>378.6666666666667</ele><time>2026-04-26T15:57:19.783Z</time></trkpt><trkpt lat="44.499437" lon="9.8033484"><ele>377.0</ele><time>2026-04-26T15:57:20.784Z</time></trkpt><trkpt lat="44.4995128" lon="9.8035847"><ele>376.0</ele><time>2026-04-26T15:57:21.783Z</time></trkpt><trkpt lat="44.4995799" lon="9.8038248"><ele>375.0</ele><time>2026-04-26T15:57:22.785Z</time></trkpt><trkpt lat="44.4996425" lon="9.8040729"><ele>374.0</ele><time>2026-04-26T15:57:23.783Z</time></trkpt><trkpt lat="44.499703" lon="9.8043242"><ele>378.0</ele><time>2026-04-26T15:57:24.784Z</time></trkpt><trkpt lat="44.4997624" lon="9.8045764"><ele>382.0</ele><time>2026-04-26T15:57:25.784Z</time></trkpt><trkpt lat="44.4998204" lon="9.8048329"><ele>386.0</ele><time>2026-04-26T15:57:26.784Z</time></trkpt><trkpt lat="44.4998829" lon="9.8050883"><ele>382.66666666666663</ele><time>2026-04-26T15:57:27.783Z</time></trkpt><trkpt lat="44.4999459" lon="9.8053453"><ele>379.3333333333333</ele><time>2026-04-26T15:57:28.783Z</time></trkpt><trkpt lat="44.5000089" lon="9.805608"><ele>376.0</ele><time>2026-04-26T15:57:29.784Z</time></trkpt><trkpt lat="44.5000717" lon="9.8058729"><ele>374.0</ele><time>2026-04-26T15:57:30.783Z</time></trkpt><trkpt lat="44.5001342" lon="9.8061417"><ele>372.0</ele><time>2026-04-26T15:57:31.783Z</time></trkpt><trkpt lat="44.5001951" lon="9.8064153"><ele>370.0</ele><time>2026-04-26T15:57:32.783Z</time></trkpt><trkpt lat="44.5002573" lon="9.8066908"><ele>369.66666666666663</ele><time>2026-04-26T15:57:33.784Z</time></trkpt><trkpt lat="44.500321" lon="9.8069638"><ele>369.3333333333333</ele><time>2026-04-26T15:57:34.783Z</time></trkpt><trkpt lat="44.500385" lon="9.8072336"><ele>369.0</ele><time>2026-04-26T15:57:35.783Z</time></trkpt><trkpt lat="44.5004496" lon="9.8075036"><ele>371.0</ele><time>2026-04-26T15:57:36.784Z</time></trkpt><trkpt lat="44.5005105" lon="9.8077702"><ele>373.0</ele><time>2026-04-26T15:57:37.783Z</time></trkpt><trkpt lat="44.5005728" lon="9.8080326"><ele>375.0</ele><time>2026-04-26T15:57:38.783Z</time></trkpt><trkpt lat="44.5006299" lon="9.8082935"><ele>374.6666666666667</ele><time>2026-04-26T15:57:39.783Z</time></trkpt><trkpt lat="44.5006883" lon="9.8085492"><ele>374.33333333333337</ele><time>2026-04-26T15:57:40.783Z</time></trkpt><trkpt lat="44.5007416" lon="9.8088005"><ele>374.0</ele><time>2026-04-26T15:57:41.783Z</time></trkpt><trkpt lat="44.5007901" lon="9.8090521"><ele>374.0</ele><time>2026-04-26T15:57:42.784Z</time></trkpt><trkpt lat="44.5008367" lon="9.8092996"><ele>374.0</ele><time>2026-04-26T15:57:43.784Z</time></trkpt><trkpt lat="44.5008805" lon="9.8095483"><ele>374.0</ele><time>2026-04-26T15:57:44.783Z</time></trkpt><trkpt lat="44.5009199" lon="9.8097961"><ele>373.0</ele><time>2026-04-26T15:57:45.783Z</time></trkpt><trkpt lat="44.5009541" lon="9.8100418"><ele>372.0</ele><time>2026-04-26T15:57:46.784Z</time></trkpt><trkpt lat="44.5009842" lon="9.8102898"><ele>371.0</ele><time>2026-04-26T15:57:47.783Z</time></trkpt><trkpt lat="44.5010105" lon="9.8105384"><ele>371.0</ele><time>2026-04-26T15:57:48.784Z</time></trkpt><trkpt lat="44.5010343" lon="9.8107894"><ele>371.0</ele><time>2026-04-26T15:57:49.783Z</time></trkpt><trkpt lat="44.5010543" lon="9.8110404"><ele>371.0</ele><time>2026-04-26T15:57:50.784Z</time></trkpt><trkpt lat="44.5010758" lon="9.8112915"><ele>370.33333333333337</ele><time>2026-04-26T15:57:51.783Z</time></trkpt><trkpt lat="44.5010985" lon="9.8115464"><ele>369.6666666666667</ele><time>2026-04-26T15:57:52.784Z</time></trkpt><trkpt lat="44.50112" lon="9.8117964"><ele>369.0</ele><time>2026-04-26T15:57:53.783Z</time></trkpt><trkpt lat="44.5011396" lon="9.8120431"><ele>368.3333333333333</ele><time>2026-04-26T15:57:54.783Z</time></trkpt><trkpt lat="44.5011606" lon="9.8122811"><ele>367.66666666666663</ele><time>2026-04-26T15:57:55.783Z</time></trkpt><trkpt lat="44.5011807" lon="9.8125137"><ele>367.0</ele><time>2026-04-26T15:57:56.783Z</time></trkpt><trkpt lat="44.5012012" lon="9.8127413"><ele>366.66666666666663</ele><time>2026-04-26T15:57:57.783Z</time></trkpt><trkpt lat="44.5012196" lon="9.812972"><ele>366.3333333333333</ele><time>2026-04-26T15:57:58.783Z</time></trkpt><trkpt lat="44.501238" lon="9.8132005"><ele>366.0</ele><time>2026-04-26T15:57:59.784Z</time></trkpt><trkpt lat="44.5012564" lon="9.8134316"><ele>368.6666666666667</ele><time>2026-04-26T15:58:00.783Z</time></trkpt><trkpt lat="44.5012746" lon="9.8136623"><ele>371.33333333333337</ele><time>2026-04-26T15:58:01.784Z</time></trkpt><trkpt lat="44.5012954" lon="9.8138936"><ele>374.0</ele><time>2026-04-26T15:58:02.783Z</time></trkpt><trkpt lat="44.5013131" lon="9.8141268"><ele>374.0</ele><time>2026-04-26T15:58:03.784Z</time></trkpt><trkpt lat="44.5013345" lon="9.814363"><ele>374.0</ele><time>2026-04-26T15:58:04.783Z</time></trkpt><trkpt lat="44.5013578" lon="9.814603"><ele>374.0</ele><time>2026-04-26T15:58:05.784Z</time></trkpt><trkpt lat="44.5013824" lon="9.8148473"><ele>374.0</ele><time>2026-04-26T15:58:06.783Z</time></trkpt><trkpt lat="44.5014059" lon="9.8150953"><ele>374.0</ele><time>2026-04-26T15:58:07.784Z</time></trkpt><trkpt lat="44.5014255" lon="9.8153432"><ele>374.0</ele><time>2026-04-26T15:58:08.783Z</time></trkpt><trkpt lat="44.5014495" lon="9.815594"><ele>373.6666666666667</ele><time>2026-04-26T15:58:09.784Z</time></trkpt><trkpt lat="44.5014685" lon="9.8158472"><ele>373.3333333333333</ele><time>2026-04-26T15:58:10.783Z</time></trkpt><trkpt lat="44.5014929" lon="9.8161002"><ele>373.0</ele><time>2026-04-26T15:58:11.783Z</time></trkpt><trkpt lat="44.50152" lon="9.8163501"><ele>371.66666666666663</ele><time>2026-04-26T15:58:12.783Z</time></trkpt><trkpt lat="44.5015482" lon="9.8165919"><ele>370.3333333333333</ele><time>2026-04-26T15:58:13.784Z</time></trkpt><trkpt lat="44.5015843" lon="9.8168236"><ele>369.0</ele><time>2026-04-26T15:58:14.783Z</time></trkpt><trkpt lat="44.5016253" lon="9.8170607"><ele>367.3333333333333</ele><time>2026-04-26T15:58:15.783Z</time></trkpt><trkpt lat="44.5016735" lon="9.8172993"><ele>365.66666666666663</ele><time>2026-04-26T15:58:16.783Z</time></trkpt><trkpt lat="44.5017201" lon="9.8175409"><ele>364.0</ele><time>2026-04-26T15:58:17.784Z</time></trkpt><trkpt lat="44.501778" lon="9.8177787"><ele>364.0</ele><time>2026-04-26T15:58:18.783Z</time></trkpt><trkpt lat="44.5018433" lon="9.8180102"><ele>364.0</ele><time>2026-04-26T15:58:19.784Z</time></trkpt><trkpt lat="44.5019162" lon="9.818242"><ele>364.0</ele><time>2026-04-26T15:58:20.784Z</time></trkpt><trkpt lat="44.5019936" lon="9.8184726"><ele>364.0</ele><time>2026-04-26T15:58:21.783Z</time></trkpt><trkpt lat="44.5020781" lon="9.8187042"><ele>364.0</ele><time>2026-04-26T15:58:22.783Z</time></trkpt><trkpt lat="44.502166" lon="9.8189359"><ele>364.0</ele><time>2026-04-26T15:58:23.784Z</time></trkpt><trkpt lat="44.5022636" lon="9.8191641"><ele>363.3333333333333</ele><time>2026-04-26T15:58:24.783Z</time></trkpt><trkpt lat="44.5023703" lon="9.8193923"><ele>362.6666666666667</ele><time>2026-04-26T15:58:25.783Z</time></trkpt><trkpt lat="44.5024865" lon="9.8196175"><ele>362.0</ele><time>2026-04-26T15:58:26.784Z</time></trkpt><trkpt lat="44.5026071" lon="9.8198433"><ele>362.0</ele><time>2026-04-26T15:58:27.784Z</time></trkpt><trkpt lat="44.502739" lon="9.8200629"><ele>362.0</ele><time>2026-04-26T15:58:28.784Z</time></trkpt><trkpt lat="44.5028763" lon="9.8202747"><ele>362.0</ele><time>2026-04-26T15:58:29.784Z</time></trkpt><trkpt lat="44.5030181" lon="9.820482"><ele>362.0</ele><time>2026-04-26T15:58:30.783Z</time></trkpt><trkpt lat="44.5031623" lon="9.8206836"><ele>362.0</ele><time>2026-04-26T15:58:31.784Z</time></trkpt><trkpt lat="44.5033135" lon="9.8208742"><ele>362.0</ele><time>2026-04-26T15:58:32.783Z</time></trkpt><trkpt lat="44.5034685" lon="9.8210563"><ele>362.0</ele><time>2026-04-26T15:58:33.784Z</time></trkpt><trkpt lat="44.5036269" lon="9.8212306"><ele>362.0</ele><time>2026-04-26T15:58:34.783Z</time></trkpt><trkpt lat="44.5037902" lon="9.8213942"><ele>362.0</ele><time>2026-04-26T15:58:35.784Z</time></trkpt><trkpt lat="44.5039582" lon="9.8215507"><ele>361.6666666666667</ele><time>2026-04-26T15:58:36.783Z</time></trkpt><trkpt lat="44.504129" lon="9.8216979"><ele>361.3333333333333</ele><time>2026-04-26T15:58:37.784Z</time></trkpt><trkpt lat="44.504304" lon="9.821833"><ele>361.0</ele><time>2026-04-26T15:58:38.783Z</time></trkpt><trkpt lat="44.5044779" lon="9.8219659"><ele>360.66666666666663</ele><time>2026-04-26T15:58:39.784Z</time></trkpt><trkpt lat="44.5046586" lon="9.8220928"><ele>360.3333333333333</ele><time>2026-04-26T15:58:40.783Z</time></trkpt><trkpt lat="44.5048437" lon="9.8222237"><ele>360.0</ele><time>2026-04-26T15:58:41.784Z</time></trkpt><trkpt lat="44.5050352" lon="9.8223517"><ele>360.0</ele><time>2026-04-26T15:58:42.783Z</time></trkpt><trkpt lat="44.5052305" lon="9.822484"><ele>360.0</ele><time>2026-04-26T15:58:43.784Z</time></trkpt><trkpt lat="44.5054246" lon="9.8226244"><ele>360.0</ele><time>2026-04-26T15:58:44.783Z</time></trkpt><trkpt lat="44.5056201" lon="9.8227636"><ele>359.6666666666667</ele><time>2026-04-26T15:58:45.783Z</time></trkpt><trkpt lat="44.5058187" lon="9.8229034"><ele>359.33333333333337</ele><time>2026-04-26T15:58:46.783Z</time></trkpt><trkpt lat="44.50602" lon="9.8230446"><ele>359.0</ele><time>2026-04-26T15:58:47.785Z</time></trkpt><trkpt lat="44.5062219" lon="9.8231875"><ele>362.0</ele><time>2026-04-26T15:58:48.783Z</time></trkpt><trkpt lat="44.5064257" lon="9.8233253"><ele>365.0</ele><time>2026-04-26T15:58:49.785Z</time></trkpt><trkpt lat="44.5066256" lon="9.8234655"><ele>364.6666666666667</ele><time>2026-04-26T15:58:50.783Z</time></trkpt><trkpt lat="44.5068246" lon="9.8236015"><ele>364.3333333333333</ele><time>2026-04-26T15:58:51.784Z</time></trkpt><trkpt lat="44.5070183" lon="9.8237393"><ele>364.0</ele><time>2026-04-26T15:58:52.783Z</time></trkpt><trkpt lat="44.5072097" lon="9.8238697"><ele>364.0</ele><time>2026-04-26T15:58:53.783Z</time></trkpt><trkpt lat="44.5074008" lon="9.8240053"><ele>364.0</ele><time>2026-04-26T15:58:54.783Z</time></trkpt><trkpt lat="44.5075918" lon="9.8241367"><ele>364.0</ele><time>2026-04-26T15:58:55.785Z</time></trkpt><trkpt lat="44.507796" lon="9.8242676"><ele>362.5</ele><time>2026-04-26T15:58:56.783Z</time></trkpt><trkpt lat="44.5080121" lon="9.8244073"><ele>361.0</ele><time>2026-04-26T15:58:57.784Z</time></trkpt><trkpt lat="44.5082556" lon="9.8245628"><ele>361.0</ele><time>2026-04-26T15:58:58.784Z</time></trkpt><trkpt lat="44.5085157" lon="9.8247345"><ele>361.0</ele><time>2026-04-26T15:58:59.783Z</time></trkpt><trkpt lat="44.5087571" lon="9.8249112"><ele>361.0</ele><time>2026-04-26T15:59:00.783Z</time></trkpt><trkpt lat="44.5089741" lon="9.8250797"><ele>361.0</ele><time>2026-04-26T15:59:01.783Z</time></trkpt><trkpt lat="44.5091764" lon="9.8252464"><ele>361.3333333333333</ele><time>2026-04-26T15:59:02.784Z</time></trkpt><trkpt lat="44.5093555" lon="9.825421"><ele>361.6666666666667</ele><time>2026-04-26T15:59:03.784Z</time></trkpt><trkpt lat="44.5095099" lon="9.8256016"><ele>362.0</ele><time>2026-04-26T15:59:04.783Z</time></trkpt><trkpt lat="44.5096531" lon="9.8257942"><ele>360.6666666666667</ele><time>2026-04-26T15:59:05.784Z</time></trkpt><trkpt lat="44.5097857" lon="9.8259943"><ele>359.3333333333333</ele><time>2026-04-26T15:59:06.783Z</time></trkpt><trkpt lat="44.5099012" lon="9.8261931"><ele>358.0</ele><time>2026-04-26T15:59:07.784Z</time></trkpt><trkpt lat="44.5100023" lon="9.8263931"><ele>358.0</ele><time>2026-04-26T15:59:08.783Z</time></trkpt><trkpt lat="44.5100952" lon="9.8266034"><ele>358.0</ele><time>2026-04-26T15:59:09.783Z</time></trkpt><trkpt lat="44.5101712" lon="9.8268156"><ele>358.0</ele><time>2026-04-26T15:59:10.783Z</time></trkpt><trkpt lat="44.5102383" lon="9.8270276"><ele>358.0</ele><time>2026-04-26T15:59:11.784Z</time></trkpt><trkpt lat="44.5102975" lon="9.8272408"><ele>358.0</ele><time>2026-04-26T15:59:12.783Z</time></trkpt><trkpt lat="44.5103459" lon="9.8274526"><ele>358.0</ele><time>2026-04-26T15:59:13.783Z</time></trkpt><trkpt lat="44.5103877" lon="9.8276845"><ele>363.66666666666663</ele><time>2026-04-26T15:59:14.783Z</time></trkpt><trkpt lat="44.5104207" lon="9.827916"><ele>369.3333333333333</ele><time>2026-04-26T15:59:15.784Z</time></trkpt><trkpt lat="44.5104487" lon="9.8281475"><ele>375.0</ele><time>2026-04-26T15:59:16.784Z</time></trkpt><trkpt lat="44.5104734" lon="9.8283832"><ele>374.6666666666667</ele><time>2026-04-26T15:59:17.783Z</time></trkpt><trkpt lat="44.5104997" lon="9.8286293"><ele>374.33333333333337</ele><time>2026-04-26T15:59:18.783Z</time></trkpt><trkpt lat="44.5105337" lon="9.8288918"><ele>374.0</ele><time>2026-04-26T15:59:19.783Z</time></trkpt><trkpt lat="44.5105732" lon="9.8291765"><ele>373.0</ele><time>2026-04-26T15:59:20.783Z</time></trkpt><trkpt lat="44.5106187" lon="9.8294943"><ele>372.0</ele><time>2026-04-26T15:59:21.783Z</time></trkpt><trkpt lat="44.5106557" lon="9.829843"><ele>371.0</ele><time>2026-04-26T15:59:22.783Z</time></trkpt><trkpt lat="44.5106826" lon="9.8302189"><ele>370.0</ele><time>2026-04-26T15:59:23.783Z</time></trkpt><trkpt lat="44.5107103" lon="9.8306126"><ele>367.0</ele><time>2026-04-26T15:59:24.784Z</time></trkpt><trkpt lat="44.510745" lon="9.831"><ele>364.0</ele><time>2026-04-26T15:59:25.783Z</time></trkpt><trkpt lat="44.5107808" lon="9.8313756"><ele>364.0</ele><time>2026-04-26T15:59:26.784Z</time></trkpt><trkpt lat="44.5108182" lon="9.8317402"><ele>364.0</ele><time>2026-04-26T15:59:27.783Z</time></trkpt><trkpt lat="44.5108567" lon="9.8320966"><ele>360.5</ele><time>2026-04-26T15:59:28.784Z</time></trkpt><trkpt lat="44.5108946" lon="9.8324435"><ele>357.0</ele><time>2026-04-26T15:59:29.783Z</time></trkpt><trkpt lat="44.5109294" lon="9.8327926"><ele>354.5</ele><time>2026-04-26T15:59:30.784Z</time></trkpt><trkpt lat="44.5109639" lon="9.8331423"><ele>352.0</ele><time>2026-04-26T15:59:31.783Z</time></trkpt><trkpt lat="44.5109997" lon="9.8334915"><ele>351.5</ele><time>2026-04-26T15:59:32.784Z</time></trkpt><trkpt lat="44.5110383" lon="9.8338379"><ele>351.0</ele><time>2026-04-26T15:59:33.783Z</time></trkpt><trkpt lat="44.5110864" lon="9.8341828"><ele>350.5</ele><time>2026-04-26T15:59:34.784Z</time></trkpt><trkpt lat="44.5111475" lon="9.8345219"><ele>350.0</ele><time>2026-04-26T15:59:35.783Z</time></trkpt><trkpt lat="44.5112184" lon="9.8348558"><ele>353.0</ele><time>2026-04-26T15:59:36.784Z</time></trkpt><trkpt lat="44.5112991" lon="9.8351882"><ele>356.0</ele><time>2026-04-26T15:59:37.783Z</time></trkpt><trkpt lat="44.5113903" lon="9.8355127"><ele>356.0</ele><time>2026-04-26T15:59:38.783Z</time></trkpt><trkpt lat="44.5114898" lon="9.8358283"><ele>356.0</ele><time>2026-04-26T15:59:39.784Z</time></trkpt><trkpt lat="44.5116007" lon="9.8361406"><ele>353.5</ele><time>2026-04-26T15:59:40.783Z</time></trkpt><trkpt lat="44.5117221" lon="9.8364507"><ele>351.0</ele><time>2026-04-26T15:59:41.784Z</time></trkpt><trkpt lat="44.5118601" lon="9.8367506"><ele>351.5</ele><time>2026-04-26T15:59:42.783Z</time></trkpt><trkpt lat="44.5120029" lon="9.8370444"><ele>352.0</ele><time>2026-04-26T15:59:43.784Z</time></trkpt><trkpt lat="44.5121583" lon="9.837332"><ele>352.0</ele><time>2026-04-26T15:59:44.783Z</time></trkpt><trkpt lat="44.5123217" lon="9.8376088"><ele>352.0</ele><time>2026-04-26T15:59:45.784Z</time></trkpt><trkpt lat="44.5124877" lon="9.8378873"><ele>351.0</ele><time>2026-04-26T15:59:46.783Z</time></trkpt><trkpt lat="44.5126502" lon="9.8381588"><ele>350.0</ele><time>2026-04-26T15:59:47.785Z</time></trkpt><trkpt lat="44.5128094" lon="9.8384232"><ele>350.5</ele><time>2026-04-26T15:59:48.783Z</time></trkpt><trkpt lat="44.5129685" lon="9.8386759"><ele>351.0</ele><time>2026-04-26T15:59:49.783Z</time></trkpt><trkpt lat="44.5131283" lon="9.8389101"><ele>351.0</ele><time>2026-04-26T15:59:50.783Z</time></trkpt><trkpt lat="44.513294" lon="9.8391203"><ele>351.0</ele><time>2026-04-26T15:59:51.784Z</time></trkpt><trkpt lat="44.5134673" lon="9.8393194"><ele>351.0</ele><time>2026-04-26T15:59:52.783Z</time></trkpt><trkpt lat="44.5136503" lon="9.8395124"><ele>353.5</ele><time>2026-04-26T15:59:53.784Z</time></trkpt><trkpt lat="44.5138397" lon="9.8397003"><ele>356.0</ele><time>2026-04-26T15:59:54.783Z</time></trkpt><trkpt lat="44.5140364" lon="9.8398858"><ele>356.0</ele><time>2026-04-26T15:59:55.784Z</time></trkpt><trkpt lat="44.5142413" lon="9.8400655"><ele>356.0</ele><time>2026-04-26T15:59:56.783Z</time></trkpt><trkpt lat="44.5144479" lon="9.8402484"><ele>364.5</ele><time>2026-04-26T15:59:57.784Z</time></trkpt><trkpt lat="44.5146541" lon="9.84043"><ele>373.0</ele><time>2026-04-26T15:59:58.783Z</time></trkpt><trkpt lat="44.51486" lon="9.8406111"><ele>351.0</ele><time>2026-04-26T15:59:59.784Z</time></trkpt><trkpt lat="44.5164023" lon="9.8419763"><ele>351.0</ele><time>2026-04-26T16:00:07.784Z</time></trkpt><trkpt lat="44.5166013" lon="9.8421447"><ele>351.0</ele><time>2026-04-26T16:00:08.784Z</time></trkpt><trkpt lat="44.5167659" lon="9.8423333"><ele>351.0</ele><time>2026-04-26T16:00:09.783Z</time></trkpt><trkpt lat="44.516935" lon="9.8425287"><ele>350.0</ele><time>2026-04-26T16:00:10.784Z</time></trkpt><trkpt lat="44.5170955" lon="9.8427409"><ele>349.0</ele><time>2026-04-26T16:00:11.783Z</time></trkpt><trkpt lat="44.5172516" lon="9.8429536"><ele>348.0</ele><time>2026-04-26T16:00:12.783Z</time></trkpt><trkpt lat="44.517406" lon="9.8431732"><ele>348.0</ele><time>2026-04-26T16:00:13.784Z</time></trkpt><trkpt lat="44.5175636" lon="9.8433923"><ele>348.0</ele><time>2026-04-26T16:00:14.783Z</time></trkpt><trkpt lat="44.5177194" lon="9.8436104"><ele>348.0</ele><time>2026-04-26T16:00:15.784Z</time></trkpt><trkpt lat="44.517875" lon="9.8438218"><ele>347.0</ele><time>2026-04-26T16:00:16.783Z</time></trkpt><trkpt lat="44.5180322" lon="9.8440322"><ele>346.0</ele><time>2026-04-26T16:00:17.784Z</time></trkpt><trkpt lat="44.5181894" lon="9.8442439"><ele>345.0</ele><time>2026-04-26T16:00:18.783Z</time></trkpt><trkpt lat="44.5183485" lon="9.8444524"><ele>347.6666666666667</ele><time>2026-04-26T16:00:19.784Z</time></trkpt><trkpt lat="44.5185117" lon="9.84466"><ele>350.33333333333337</ele><time>2026-04-26T16:00:20.783Z</time></trkpt><trkpt lat="44.5186789" lon="9.8448643"><ele>353.0</ele><time>2026-04-26T16:00:21.784Z</time></trkpt><trkpt lat="44.518842" lon="9.8450625"><ele>346.5</ele><time>2026-04-26T16:00:22.783Z</time></trkpt><trkpt lat="44.519011" lon="9.8452641"><ele>340.0</ele><time>2026-04-26T16:00:23.784Z</time></trkpt><trkpt lat="44.5206479" lon="9.8471744"><ele>340.0</ele><time>2026-04-26T16:00:32.785Z</time></trkpt><trkpt lat="44.5208247" lon="9.8473893"><ele>340.0</ele><time>2026-04-26T16:00:33.783Z</time></trkpt><trkpt lat="44.5210208" lon="9.8476068"><ele>339.0</ele><time>2026-04-26T16:00:34.784Z</time></trkpt><trkpt lat="44.5212156" lon="9.8478267"><ele>338.0</ele><time>2026-04-26T16:00:35.783Z</time></trkpt><trkpt lat="44.5214092" lon="9.8480476"><ele>336.5</ele><time>2026-04-26T16:00:36.783Z</time></trkpt><trkpt lat="44.5216037" lon="9.8482691"><ele>335.0</ele><time>2026-04-26T16:00:37.783Z</time></trkpt><trkpt lat="44.5217899" lon="9.8484818"><ele>334.33333333333337</ele><time>2026-04-26T16:00:38.783Z</time></trkpt><trkpt lat="44.5219667" lon="9.8486886"><ele>333.6666666666667</ele><time>2026-04-26T16:00:39.783Z</time></trkpt><trkpt lat="44.5221307" lon="9.8488813"><ele>333.0</ele><time>2026-04-26T16:00:40.783Z</time></trkpt><trkpt lat="44.5222938" lon="9.8490676"><ele>334.6666666666667</ele><time>2026-04-26T16:00:41.783Z</time></trkpt><trkpt lat="44.5224527" lon="9.8492505"><ele>336.33333333333337</ele><time>2026-04-26T16:00:42.783Z</time></trkpt><trkpt lat="44.5226094" lon="9.8494335"><ele>338.0</ele><time>2026-04-26T16:00:43.783Z</time></trkpt><trkpt lat="44.5227631" lon="9.8496205"><ele>338.33333333333337</ele><time>2026-04-26T16:00:44.784Z</time></trkpt><trkpt lat="44.5229129" lon="9.8498094"><ele>338.6666666666667</ele><time>2026-04-26T16:00:45.782Z</time></trkpt><trkpt lat="44.5230522" lon="9.8499975"><ele>339.0</ele><time>2026-04-26T16:00:46.782Z</time></trkpt><trkpt lat="44.5231891" lon="9.8501948"><ele>339.0</ele><time>2026-04-26T16:00:47.782Z</time></trkpt><trkpt lat="44.523322" lon="9.8504114"><ele>339.0</ele><time>2026-04-26T16:00:48.783Z</time></trkpt><trkpt lat="44.5234506" lon="9.8506234"><ele>339.0</ele><time>2026-04-26T16:00:49.783Z</time></trkpt><trkpt lat="44.5235768" lon="9.8508467"><ele>339.0</ele><time>2026-04-26T16:00:50.783Z</time></trkpt><trkpt lat="44.523689" lon="9.8510761"><ele>339.0</ele><time>2026-04-26T16:00:51.782Z</time></trkpt><trkpt lat="44.5239909" lon="9.8521859"><ele>340.0</ele><time>2026-04-26T16:00:55.782Z</time></trkpt><trkpt lat="44.5240462" lon="9.8524677"><ele>341.0</ele><time>2026-04-26T16:00:56.782Z</time></trkpt><trkpt lat="44.524086" lon="9.852766"><ele>342.0</ele><time>2026-04-26T16:00:57.783Z</time></trkpt><trkpt lat="44.5241271" lon="9.8530769"><ele>342.0</ele><time>2026-04-26T16:00:58.782Z</time></trkpt><trkpt lat="44.5241599" lon="9.8533913"><ele>342.0</ele><time>2026-04-26T16:00:59.783Z</time></trkpt><trkpt lat="44.5241901" lon="9.8537106"><ele>341.0</ele><time>2026-04-26T16:01:00.782Z</time></trkpt><trkpt lat="44.5242174" lon="9.8540409"><ele>340.0</ele><time>2026-04-26T16:01:01.783Z</time></trkpt><trkpt lat="44.524244" lon="9.8543614"><ele>339.66666666666663</ele><time>2026-04-26T16:01:02.782Z</time></trkpt><trkpt lat="44.5242705" lon="9.8546714"><ele>339.3333333333333</ele><time>2026-04-26T16:01:03.784Z</time></trkpt><trkpt lat="44.524296" lon="9.8549674"><ele>339.0</ele><time>2026-04-26T16:01:04.782Z</time></trkpt><trkpt lat="44.5243175" lon="9.8552498"><ele>338.6666666666667</ele><time>2026-04-26T16:01:05.783Z</time></trkpt><trkpt lat="44.5243448" lon="9.8555277"><ele>338.33333333333337</ele><time>2026-04-26T16:01:06.782Z</time></trkpt><trkpt lat="44.5243691" lon="9.8558008"><ele>338.0</ele><time>2026-04-26T16:01:07.783Z</time></trkpt><trkpt lat="44.5243914" lon="9.8560738"><ele>339.33333333333337</ele><time>2026-04-26T16:01:08.782Z</time></trkpt><trkpt lat="44.5244234" lon="9.8563448"><ele>340.6666666666667</ele><time>2026-04-26T16:01:09.783Z</time></trkpt><trkpt lat="44.5244645" lon="9.8566168"><ele>342.0</ele><time>2026-04-26T16:01:10.782Z</time></trkpt><trkpt lat="44.5245143" lon="9.8568876"><ele>359.0</ele><time>2026-04-26T16:01:11.782Z</time></trkpt><trkpt lat="44.5245633" lon="9.8571587"><ele>376.0</ele><time>2026-04-26T16:01:12.783Z</time></trkpt><trkpt lat="44.5246203" lon="9.8574359"><ele>393.0</ele><time>2026-04-26T16:01:13.783Z</time></trkpt><trkpt lat="44.5246741" lon="9.857711"><ele>324.0</ele><time>2026-04-26T16:01:14.784Z</time></trkpt><trkpt lat="44.5262925" lon="9.8621189"><ele>324.0</ele><time>2026-04-26T16:01:29.783Z</time></trkpt><trkpt lat="44.5263866" lon="9.8624155"><ele>324.0</ele><time>2026-04-26T16:01:30.782Z</time></trkpt><trkpt lat="44.5265001" lon="9.8627275"><ele>327.0</ele><time>2026-04-26T16:01:31.782Z</time></trkpt><trkpt lat="44.5266098" lon="9.8630242"><ele>330.0</ele><time>2026-04-26T16:01:32.783Z</time></trkpt><trkpt lat="44.5267245" lon="9.8633127"><ele>332.0</ele><time>2026-04-26T16:01:33.782Z</time></trkpt><trkpt lat="44.5268354" lon="9.8635766"><ele>334.0</ele><time>2026-04-26T16:01:34.783Z</time></trkpt><trkpt lat="44.5269508" lon="9.8638341"><ele>336.0</ele><time>2026-04-26T16:01:35.783Z</time></trkpt><trkpt lat="44.527066" lon="9.864074"><ele>341.3333333333333</ele><time>2026-04-26T16:01:36.783Z</time></trkpt><trkpt lat="44.5271958" lon="9.8643057"><ele>346.66666666666663</ele><time>2026-04-26T16:01:37.782Z</time></trkpt><trkpt lat="44.5273196" lon="9.8645358"><ele>352.0</ele><time>2026-04-26T16:01:38.782Z</time></trkpt><trkpt lat="44.5274472" lon="9.864772"><ele>352.0</ele><time>2026-04-26T16:01:39.783Z</time></trkpt><trkpt lat="44.5275731" lon="9.8650056"><ele>352.0</ele><time>2026-04-26T16:01:40.782Z</time></trkpt><trkpt lat="44.5300513" lon="9.8689207"><ele>346.0</ele><time>2026-04-26T16:01:57.783Z</time></trkpt><trkpt lat="44.5301533" lon="9.8692068"><ele>340.0</ele><time>2026-04-26T16:01:58.782Z</time></trkpt><trkpt lat="44.530255" lon="9.8694946"><ele>340.0</ele><time>2026-04-26T16:01:59.782Z</time></trkpt><trkpt lat="44.5303568" lon="9.869783"><ele>340.0</ele><time>2026-04-26T16:02:00.783Z</time></trkpt><trkpt lat="44.5304589" lon="9.8700578"><ele>335.3333333333333</ele><time>2026-04-26T16:02:01.782Z</time></trkpt><trkpt lat="44.5305602" lon="9.8703188"><ele>330.6666666666667</ele><time>2026-04-26T16:02:02.783Z</time></trkpt><trkpt lat="44.5306565" lon="9.8705784"><ele>326.0</ele><time>2026-04-26T16:02:03.782Z</time></trkpt><trkpt lat="44.5307553" lon="9.870842"><ele>327.33333333333337</ele><time>2026-04-26T16:02:04.782Z</time></trkpt><trkpt lat="44.5308547" lon="9.8711099"><ele>328.6666666666667</ele><time>2026-04-26T16:02:05.782Z</time></trkpt><trkpt lat="44.5309541" lon="9.8713839"><ele>330.0</ele><time>2026-04-26T16:02:06.783Z</time></trkpt><trkpt lat="44.5310538" lon="9.8716597"><ele>331.6666666666667</ele><time>2026-04-26T16:02:07.782Z</time></trkpt><trkpt lat="44.5311548" lon="9.8719351"><ele>333.33333333333337</ele><time>2026-04-26T16:02:08.783Z</time></trkpt><trkpt lat="44.5312546" lon="9.872208"><ele>335.0</ele><time>2026-04-26T16:02:09.783Z</time></trkpt><trkpt lat="44.5313537" lon="9.8724806"><ele>331.6666666666667</ele><time>2026-04-26T16:02:10.782Z</time></trkpt><trkpt lat="44.5314545" lon="9.8727519"><ele>328.3333333333333</ele><time>2026-04-26T16:02:11.783Z</time></trkpt><trkpt lat="44.5315604" lon="9.8730236"><ele>325.0</ele><time>2026-04-26T16:02:12.782Z</time></trkpt><trkpt lat="44.5316704" lon="9.8732974"><ele>327.3333333333333</ele><time>2026-04-26T16:02:13.783Z</time></trkpt><trkpt lat="44.5317839" lon="9.87357"><ele>329.6666666666667</ele><time>2026-04-26T16:02:14.782Z</time></trkpt><trkpt lat="44.5319021" lon="9.8738315"><ele>332.0</ele><time>2026-04-26T16:02:15.783Z</time></trkpt><trkpt lat="44.532028" lon="9.8740857"><ele>329.33333333333337</ele><time>2026-04-26T16:02:16.782Z</time></trkpt><trkpt lat="44.5321578" lon="9.8743294"><ele>326.6666666666667</ele><time>2026-04-26T16:02:17.783Z</time></trkpt><trkpt lat="44.5322882" lon="9.8745672"><ele>324.0</ele><time>2026-04-26T16:02:18.782Z</time></trkpt><trkpt lat="44.5324104" lon="9.8747869"><ele>324.0</ele><time>2026-04-26T16:02:19.782Z</time></trkpt><trkpt lat="44.5325256" lon="9.8749956"><ele>324.0</ele><time>2026-04-26T16:02:20.782Z</time></trkpt><trkpt lat="44.5326324" lon="9.8752141"><ele>324.0</ele><time>2026-04-26T16:02:21.783Z</time></trkpt><trkpt lat="44.5327268" lon="9.8754339"><ele>324.3333333333333</ele><time>2026-04-26T16:02:22.782Z</time></trkpt><trkpt lat="44.5328148" lon="9.8756579"><ele>324.66666666666663</ele><time>2026-04-26T16:02:23.782Z</time></trkpt><trkpt lat="44.5328945" lon="9.8758957"><ele>325.0</ele><time>2026-04-26T16:02:24.782Z</time></trkpt><trkpt lat="44.5329723" lon="9.8761419"><ele>325.0</ele><time>2026-04-26T16:02:25.782Z</time></trkpt><trkpt lat="44.5330456" lon="9.8763858"><ele>325.0</ele><time>2026-04-26T16:02:26.783Z</time></trkpt><trkpt lat="44.5331222" lon="9.8766322"><ele>325.0</ele><time>2026-04-26T16:02:27.782Z</time></trkpt><trkpt lat="44.5331998" lon="9.8768784"><ele>328.0</ele><time>2026-04-26T16:02:28.783Z</time></trkpt><trkpt lat="44.5332775" lon="9.8771263"><ele>331.0</ele><time>2026-04-26T16:02:29.782Z</time></trkpt><trkpt lat="44.5333562" lon="9.8773681"><ele>334.0</ele><time>2026-04-26T16:02:30.783Z</time></trkpt><trkpt lat="44.5334357" lon="9.8776121"><ele>337.66666666666663</ele><time>2026-04-26T16:02:31.782Z</time></trkpt><trkpt lat="44.5335147" lon="9.8778461"><ele>341.3333333333333</ele><time>2026-04-26T16:02:32.782Z</time></trkpt><trkpt lat="44.5335971" lon="9.8780717"><ele>345.0</ele><time>2026-04-26T16:02:33.783Z</time></trkpt><trkpt lat="44.5336956" lon="9.878278"><ele>343.6666666666667</ele><time>2026-04-26T16:02:34.782Z</time></trkpt><trkpt lat="44.5338059" lon="9.8784683"><ele>342.33333333333337</ele><time>2026-04-26T16:02:35.783Z</time></trkpt><trkpt lat="44.5339267" lon="9.8786459"><ele>341.0</ele><time>2026-04-26T16:02:36.783Z</time></trkpt><trkpt lat="44.5340582" lon="9.8788161"><ele>341.0</ele><time>2026-04-26T16:02:37.783Z</time></trkpt><trkpt lat="44.5341986" lon="9.878981"><ele>341.0</ele><time>2026-04-26T16:02:38.782Z</time></trkpt><trkpt lat="44.5343459" lon="9.8791379"><ele>341.0</ele><time>2026-04-26T16:02:39.783Z</time></trkpt><trkpt lat="44.534501" lon="9.8792862"><ele>338.33333333333337</ele><time>2026-04-26T16:02:40.782Z</time></trkpt><trkpt lat="44.5346548" lon="9.8794681"><ele>335.6666666666667</ele><time>2026-04-26T16:02:41.783Z</time></trkpt><trkpt lat="44.5348038" lon="9.8796414"><ele>333.0</ele><time>2026-04-26T16:02:42.782Z</time></trkpt><trkpt lat="44.5349457" lon="9.8798241"><ele>333.0</ele><time>2026-04-26T16:02:43.782Z</time></trkpt><trkpt lat="44.5350822" lon="9.8800141"><ele>333.0</ele><time>2026-04-26T16:02:44.782Z</time></trkpt><trkpt lat="44.5352183" lon="9.8802061"><ele>333.0</ele><time>2026-04-26T16:02:45.783Z</time></trkpt><trkpt lat="44.5353511" lon="9.8803945"><ele>328.6666666666667</ele><time>2026-04-26T16:02:46.782Z</time></trkpt><trkpt lat="44.5354788" lon="9.8805755"><ele>324.33333333333337</ele><time>2026-04-26T16:02:47.782Z</time></trkpt><trkpt lat="44.5356015" lon="9.8807425"><ele>320.0</ele><time>2026-04-26T16:02:48.782Z</time></trkpt><trkpt lat="44.5357207" lon="9.8809058"><ele>327.6666666666667</ele><time>2026-04-26T16:02:49.782Z</time></trkpt><trkpt lat="44.535838" lon="9.8810697"><ele>335.3333333333333</ele><time>2026-04-26T16:02:50.782Z</time></trkpt><trkpt lat="44.5359523" lon="9.8812289"><ele>343.0</ele><time>2026-04-26T16:02:51.783Z</time></trkpt><trkpt lat="44.5360628" lon="9.8813774"><ele>343.0</ele><time>2026-04-26T16:02:52.782Z</time></trkpt><trkpt lat="44.5361665" lon="9.8815222"><ele>343.0</ele><time>2026-04-26T16:02:53.783Z</time></trkpt><trkpt lat="44.5362595" lon="9.8816613"><ele>343.0</ele><time>2026-04-26T16:02:54.782Z</time></trkpt><trkpt lat="44.5363464" lon="9.8818009"><ele>343.0</ele><time>2026-04-26T16:02:55.784Z</time></trkpt><trkpt lat="44.5364288" lon="9.8819542"><ele>337.25</ele><time>2026-04-26T16:02:56.782Z</time></trkpt><trkpt lat="44.5364954" lon="9.8821207"><ele>331.5</ele><time>2026-04-26T16:02:57.782Z</time></trkpt><trkpt lat="44.5365473" lon="9.8823001"><ele>325.75</ele><time>2026-04-26T16:02:58.782Z</time></trkpt><trkpt lat="44.5365849" lon="9.8824909"><ele>320.0</ele><time>2026-04-26T16:02:59.782Z</time></trkpt><trkpt lat="44.5366068" lon="9.8826751"><ele>320.0</ele><time>2026-04-26T16:03:00.782Z</time></trkpt><trkpt lat="44.536608" lon="9.8828576"><ele>320.0</ele><time>2026-04-26T16:03:01.783Z</time></trkpt><trkpt lat="44.5365912" lon="9.8830368"><ele>320.0</ele><time>2026-04-26T16:03:02.782Z</time></trkpt><trkpt lat="44.5365603" lon="9.8832143"><ele>320.0</ele><time>2026-04-26T16:03:03.783Z</time></trkpt><trkpt lat="44.5365298" lon="9.8833937"><ele>318.25</ele><time>2026-04-26T16:03:04.782Z</time></trkpt><trkpt lat="44.5364953" lon="9.8835576"><ele>316.5</ele><time>2026-04-26T16:03:05.782Z</time></trkpt><trkpt lat="44.536458" lon="9.8837221"><ele>314.75</ele><time>2026-04-26T16:03:06.782Z</time></trkpt><trkpt lat="44.536413" lon="9.8839089"><ele>313.0</ele><time>2026-04-26T16:03:07.782Z</time></trkpt><trkpt lat="44.5363725" lon="9.8840579"><ele>313.0</ele><time>2026-04-26T16:03:08.782Z</time></trkpt><trkpt lat="44.5363284" lon="9.884202"><ele>313.0</ele><time>2026-04-26T16:03:09.784Z</time></trkpt><trkpt lat="44.5362517" lon="9.8844467"><ele>313.0</ele><time>2026-04-26T16:03:10.782Z</time></trkpt><trkpt lat="44.5361938" lon="9.8846316"><ele>313.0</ele><time>2026-04-26T16:03:11.783Z</time></trkpt><trkpt lat="44.536148" lon="9.8848978"><ele>318.25</ele><time>2026-04-26T16:03:12.782Z</time></trkpt><trkpt lat="44.536163" lon="9.8851202"><ele>323.5</ele><time>2026-04-26T16:03:13.783Z</time></trkpt><trkpt lat="44.5361599" lon="9.8853126"><ele>328.75</ele><time>2026-04-26T16:03:14.783Z</time></trkpt><trkpt lat="44.5361776" lon="9.8855141"><ele>334.0</ele><time>2026-04-26T16:03:15.782Z</time></trkpt><trkpt lat="44.5362125" lon="9.8857063"><ele>329.66666666666663</ele><time>2026-04-26T16:03:16.782Z</time></trkpt><trkpt lat="44.5362715" lon="9.8859005"><ele>325.3333333333333</ele><time>2026-04-26T16:03:17.782Z</time></trkpt><trkpt lat="44.5363521" lon="9.8860805"><ele>321.0</ele><time>2026-04-26T16:03:18.783Z</time></trkpt><trkpt lat="44.5364487" lon="9.8862399"><ele>321.0</ele><time>2026-04-26T16:03:19.783Z</time></trkpt><trkpt lat="44.5365611" lon="9.8863796"><ele>321.0</ele><time>2026-04-26T16:03:20.782Z</time></trkpt><trkpt lat="44.5366874" lon="9.8865088"><ele>321.0</ele><time>2026-04-26T16:03:21.783Z</time></trkpt><trkpt lat="44.5368311" lon="9.8866341"><ele>321.0</ele><time>2026-04-26T16:03:22.782Z</time></trkpt><trkpt lat="44.5369864" lon="9.886753"><ele>321.0</ele><time>2026-04-26T16:03:23.782Z</time></trkpt><trkpt lat="44.5371475" lon="9.88687"><ele>321.0</ele><time>2026-04-26T16:03:24.783Z</time></trkpt><trkpt lat="44.5373115" lon="9.8869863"><ele>322.6666666666667</ele><time>2026-04-26T16:03:25.782Z</time></trkpt><trkpt lat="44.5374678" lon="9.8871079"><ele>324.33333333333337</ele><time>2026-04-26T16:03:26.782Z</time></trkpt><trkpt lat="44.5376278" lon="9.8872278"><ele>326.0</ele><time>2026-04-26T16:03:27.782Z</time></trkpt><trkpt lat="44.5377804" lon="9.887344"><ele>327.0</ele><time>2026-04-26T16:03:28.783Z</time></trkpt><trkpt lat="44.5379312" lon="9.8874563"><ele>328.0</ele><time>2026-04-26T16:03:29.782Z</time></trkpt><trkpt lat="44.5380725" lon="9.8875604"><ele>329.0</ele><time>2026-04-26T16:03:30.783Z</time></trkpt><trkpt lat="44.5382069" lon="9.8876631"><ele>329.0</ele><time>2026-04-26T16:03:31.782Z</time></trkpt><trkpt lat="44.5383355" lon="9.8877622"><ele>329.0</ele><time>2026-04-26T16:03:32.782Z</time></trkpt><trkpt lat="44.5384634" lon="9.8878671"><ele>329.0</ele><time>2026-04-26T16:03:33.783Z</time></trkpt><trkpt lat="44.5385839" lon="9.8879852"><ele>329.0</ele><time>2026-04-26T16:03:34.782Z</time></trkpt><trkpt lat="44.5386946" lon="9.8881217"><ele>325.6666666666667</ele><time>2026-04-26T16:03:35.783Z</time></trkpt><trkpt lat="44.5387982" lon="9.8882814"><ele>322.3333333333333</ele><time>2026-04-26T16:03:36.782Z</time></trkpt><trkpt lat="44.538888" lon="9.8884642"><ele>319.0</ele><time>2026-04-26T16:03:37.783Z</time></trkpt><trkpt lat="44.5389678" lon="9.8886675"><ele>319.0</ele><time>2026-04-26T16:03:38.782Z</time></trkpt><trkpt lat="44.5390387" lon="9.8888873"><ele>319.0</ele><time>2026-04-26T16:03:39.782Z</time></trkpt><trkpt lat="44.5391088" lon="9.8891169"><ele>319.0</ele><time>2026-04-26T16:03:40.782Z</time></trkpt><trkpt lat="44.5391804" lon="9.8893532"><ele>320.3333333333333</ele><time>2026-04-26T16:03:41.782Z</time></trkpt><trkpt lat="44.539252" lon="9.8895918"><ele>321.6666666666667</ele><time>2026-04-26T16:03:42.782Z</time></trkpt><trkpt lat="44.5393215" lon="9.8898297"><ele>323.0</ele><time>2026-04-26T16:03:43.782Z</time></trkpt><trkpt lat="44.5393905" lon="9.8900658"><ele>324.33333333333337</ele><time>2026-04-26T16:03:44.783Z</time></trkpt><trkpt lat="44.5394592" lon="9.8902962"><ele>325.6666666666667</ele><time>2026-04-26T16:03:45.782Z</time></trkpt><trkpt lat="44.5395301" lon="9.8905175"><ele>327.0</ele><time>2026-04-26T16:03:46.783Z</time></trkpt><trkpt lat="44.5396042" lon="9.890724"><ele>322.6666666666667</ele><time>2026-04-26T16:03:47.782Z</time></trkpt><trkpt lat="44.5396772" lon="9.8909297"><ele>318.33333333333337</ele><time>2026-04-26T16:03:48.783Z</time></trkpt><trkpt lat="44.5397516" lon="9.8911302"><ele>314.0</ele><time>2026-04-26T16:03:49.782Z</time></trkpt><trkpt lat="44.539828" lon="9.8913306"><ele>314.0</ele><time>2026-04-26T16:03:50.783Z</time></trkpt><trkpt lat="44.5399" lon="9.8915394"><ele>314.0</ele><time>2026-04-26T16:03:51.782Z</time></trkpt><trkpt lat="44.5399584" lon="9.8917569"><ele>314.0</ele><time>2026-04-26T16:03:52.783Z</time></trkpt><trkpt lat="44.539991" lon="9.8919739"><ele>314.0</ele><time>2026-04-26T16:03:53.782Z</time></trkpt><trkpt lat="44.540007" lon="9.8921924"><ele>314.0</ele><time>2026-04-26T16:03:54.783Z</time></trkpt><trkpt lat="44.5400032" lon="9.8924179"><ele>314.0</ele><time>2026-04-26T16:03:55.782Z</time></trkpt><trkpt lat="44.5399771" lon="9.8926531"><ele>313.0</ele><time>2026-04-26T16:03:56.782Z</time></trkpt><trkpt lat="44.5399393" lon="9.8928975"><ele>312.0</ele><time>2026-04-26T16:03:57.782Z</time></trkpt><trkpt lat="44.5398979" lon="9.8931437"><ele>311.0</ele><time>2026-04-26T16:03:58.782Z</time></trkpt><trkpt lat="44.5398573" lon="9.8933951"><ele>309.6666666666667</ele><time>2026-04-26T16:03:59.782Z</time></trkpt><trkpt lat="44.539819" lon="9.8936443"><ele>308.3333333333333</ele><time>2026-04-26T16:04:00.782Z</time></trkpt><trkpt lat="44.5397807" lon="9.8938924"><ele>307.0</ele><time>2026-04-26T16:04:01.782Z</time></trkpt><trkpt lat="44.5397403" lon="9.8941312"><ele>306.0</ele><time>2026-04-26T16:04:02.782Z</time></trkpt><trkpt lat="44.5397069" lon="9.8943575"><ele>305.0</ele><time>2026-04-26T16:04:03.782Z</time></trkpt><trkpt lat="44.5396765" lon="9.8945828"><ele>304.0</ele><time>2026-04-26T16:04:04.783Z</time></trkpt><trkpt lat="44.5396592" lon="9.8948109"><ele>304.0</ele><time>2026-04-26T16:04:05.782Z</time></trkpt><trkpt lat="44.5396617" lon="9.8950457"><ele>304.0</ele><time>2026-04-26T16:04:06.782Z</time></trkpt><trkpt lat="44.5396901" lon="9.8952905"><ele>304.0</ele><time>2026-04-26T16:04:07.782Z</time></trkpt><trkpt lat="44.5397422" lon="9.8955326"><ele>303.0</ele><time>2026-04-26T16:04:08.782Z</time></trkpt><trkpt lat="44.5398207" lon="9.8957681"><ele>302.0</ele><time>2026-04-26T16:04:09.783Z</time></trkpt><trkpt lat="44.5399272" lon="9.8960035"><ele>301.0</ele><time>2026-04-26T16:04:10.782Z</time></trkpt><trkpt lat="44.5400584" lon="9.8962459"><ele>301.0</ele><time>2026-04-26T16:04:11.782Z</time></trkpt><trkpt lat="44.5401999" lon="9.8965044"><ele>301.0</ele><time>2026-04-26T16:04:12.782Z</time></trkpt><trkpt lat="44.5403461" lon="9.8967888"><ele>305.0</ele><time>2026-04-26T16:04:13.782Z</time></trkpt><trkpt lat="44.5404929" lon="9.8970853"><ele>309.0</ele><time>2026-04-26T16:04:14.782Z</time></trkpt><trkpt lat="44.5406413" lon="9.8973896"><ele>307.0</ele><time>2026-04-26T16:04:15.782Z</time></trkpt><trkpt lat="44.5407964" lon="9.8977024"><ele>305.0</ele><time>2026-04-26T16:04:16.783Z</time></trkpt><trkpt lat="44.5409581" lon="9.89802"><ele>305.0</ele><time>2026-04-26T16:04:17.782Z</time></trkpt><trkpt lat="44.5411216" lon="9.8983459"><ele>305.0</ele><time>2026-04-26T16:04:18.783Z</time></trkpt><trkpt lat="44.5412902" lon="9.8986689"><ele>302.5</ele><time>2026-04-26T16:04:19.782Z</time></trkpt><trkpt lat="44.5414615" lon="9.8989906"><ele>300.0</ele><time>2026-04-26T16:04:20.783Z</time></trkpt><trkpt lat="44.5416333" lon="9.8993203"><ele>299.0</ele><time>2026-04-26T16:04:21.782Z</time></trkpt><trkpt lat="44.5417932" lon="9.8996538"><ele>298.0</ele><time>2026-04-26T16:04:22.782Z</time></trkpt><trkpt lat="44.5419452" lon="9.8999824"><ele>300.5</ele><time>2026-04-26T16:04:23.782Z</time></trkpt><trkpt lat="44.5420958" lon="9.9002948"><ele>303.0</ele><time>2026-04-26T16:04:24.783Z</time></trkpt><trkpt lat="44.5422448" lon="9.9005846"><ele>303.0</ele><time>2026-04-26T16:04:25.782Z</time></trkpt><trkpt lat="44.5424011" lon="9.9008466"><ele>303.0</ele><time>2026-04-26T16:04:26.782Z</time></trkpt><trkpt lat="44.5425719" lon="9.9010813"><ele>306.0</ele><time>2026-04-26T16:04:27.782Z</time></trkpt><trkpt lat="44.5427648" lon="9.901286"><ele>309.0</ele><time>2026-04-26T16:04:28.782Z</time></trkpt><trkpt lat="44.5429756" lon="9.9014598"><ele>303.0</ele><time>2026-04-26T16:04:29.783Z</time></trkpt><trkpt lat="44.5432051" lon="9.9016249"><ele>297.0</ele><time>2026-04-26T16:04:30.782Z</time></trkpt><trkpt lat="44.5434501" lon="9.901786"><ele>296.0</ele><time>2026-04-26T16:04:31.782Z</time></trkpt><trkpt lat="44.5436856" lon="9.9019461"><ele>295.0</ele><time>2026-04-26T16:04:32.782Z</time></trkpt><trkpt lat="44.5439099" lon="9.9020996"><ele>295.0</ele><time>2026-04-26T16:04:33.783Z</time></trkpt><trkpt lat="44.544131" lon="9.9022526"><ele>295.0</ele><time>2026-04-26T16:04:34.782Z</time></trkpt><trkpt lat="44.5443397" lon="9.9024101"><ele>295.0</ele><time>2026-04-26T16:04:35.782Z</time></trkpt><trkpt lat="44.5445353" lon="9.902577"><ele>295.0</ele><time>2026-04-26T16:04:36.782Z</time></trkpt><trkpt lat="44.5447232" lon="9.9027742"><ele>297.0</ele><time>2026-04-26T16:04:37.782Z</time></trkpt><trkpt lat="44.544896" lon="9.9029927"><ele>299.0</ele><time>2026-04-26T16:04:38.782Z</time></trkpt><trkpt lat="44.5450642" lon="9.9032266"><ele>299.5</ele><time>2026-04-26T16:04:39.782Z</time></trkpt><trkpt lat="44.5452276" lon="9.9034736"><ele>300.0</ele><time>2026-04-26T16:04:40.784Z</time></trkpt><trkpt lat="44.5453931" lon="9.9037221"><ele>300.0</ele><time>2026-04-26T16:04:41.782Z</time></trkpt><trkpt lat="44.545554" lon="9.9039712"><ele>300.0</ele><time>2026-04-26T16:04:42.782Z</time></trkpt><trkpt lat="44.5457092" lon="9.9042055"><ele>297.6666666666667</ele><time>2026-04-26T16:04:43.784Z</time></trkpt><trkpt lat="44.5458577" lon="9.9044336"><ele>295.33333333333337</ele><time>2026-04-26T16:04:44.782Z</time></trkpt><trkpt lat="44.5460047" lon="9.9046606"><ele>293.0</ele><time>2026-04-26T16:04:45.783Z</time></trkpt><trkpt lat="44.546149" lon="9.9048864"><ele>295.33333333333337</ele><time>2026-04-26T16:04:46.782Z</time></trkpt><trkpt lat="44.5462843" lon="9.9050945"><ele>297.6666666666667</ele><time>2026-04-26T16:04:47.782Z</time></trkpt><trkpt lat="44.5464154" lon="9.9052992"><ele>300.0</ele><time>2026-04-26T16:04:48.782Z</time></trkpt><trkpt lat="44.5465416" lon="9.9055034"><ele>300.0</ele><time>2026-04-26T16:04:49.783Z</time></trkpt><trkpt lat="44.5466707" lon="9.9057003"><ele>300.0</ele><time>2026-04-26T16:04:50.783Z</time></trkpt><trkpt lat="44.546796" lon="9.9058948"><ele>300.0</ele><time>2026-04-26T16:04:51.782Z</time></trkpt><trkpt lat="44.546916" lon="9.9060795"><ele>298.3333333333333</ele><time>2026-04-26T16:04:52.782Z</time></trkpt><trkpt lat="44.5470239" lon="9.906263"><ele>296.66666666666663</ele><time>2026-04-26T16:04:53.782Z</time></trkpt><trkpt lat="44.5471259" lon="9.9064642"><ele>295.0</ele><time>2026-04-26T16:04:54.782Z</time></trkpt><trkpt lat="44.5472209" lon="9.9066852"><ele>297.0</ele><time>2026-04-26T16:04:55.782Z</time></trkpt><trkpt lat="44.5473035" lon="9.9069255"><ele>299.0</ele><time>2026-04-26T16:04:56.783Z</time></trkpt><trkpt lat="44.5473728" lon="9.907176"><ele>301.0</ele><time>2026-04-26T16:04:57.783Z</time></trkpt><trkpt lat="44.5474247" lon="9.9074265"><ele>298.3333333333333</ele><time>2026-04-26T16:04:58.782Z</time></trkpt><trkpt lat="44.5474666" lon="9.9076822"><ele>295.6666666666667</ele><time>2026-04-26T16:04:59.782Z</time></trkpt><trkpt lat="44.5475047" lon="9.9079436"><ele>293.0</ele><time>2026-04-26T16:05:00.782Z</time></trkpt><trkpt lat="44.5475421" lon="9.9081985"><ele>295.6666666666667</ele><time>2026-04-26T16:05:01.782Z</time></trkpt><trkpt lat="44.5475836" lon="9.9084577"><ele>298.3333333333333</ele><time>2026-04-26T16:05:02.782Z</time></trkpt><trkpt lat="44.5476255" lon="9.9087213"><ele>301.0</ele><time>2026-04-26T16:05:03.783Z</time></trkpt><trkpt lat="44.5476671" lon="9.908985"><ele>304.3333333333333</ele><time>2026-04-26T16:05:04.782Z</time></trkpt><trkpt lat="44.5477083" lon="9.9092452"><ele>307.6666666666667</ele><time>2026-04-26T16:05:05.782Z</time></trkpt><trkpt lat="44.5477488" lon="9.9095098"><ele>311.0</ele><time>2026-04-26T16:05:06.782Z</time></trkpt><trkpt lat="44.5477885" lon="9.9097731"><ele>311.0</ele><time>2026-04-26T16:05:07.782Z</time></trkpt><trkpt lat="44.5478265" lon="9.9100371"><ele>311.0</ele><time>2026-04-26T16:05:08.782Z</time></trkpt><trkpt lat="44.5478657" lon="9.9103021"><ele>311.0</ele><time>2026-04-26T16:05:09.782Z</time></trkpt><trkpt lat="44.5479074" lon="9.9105614"><ele>305.33333333333337</ele><time>2026-04-26T16:05:10.783Z</time></trkpt><trkpt lat="44.5479495" lon="9.9108199"><ele>299.6666666666667</ele><time>2026-04-26T16:05:11.782Z</time></trkpt><trkpt lat="44.5479928" lon="9.9110811"><ele>294.0</ele><time>2026-04-26T16:05:12.783Z</time></trkpt><trkpt lat="44.5480352" lon="9.9113396"><ele>294.0</ele><time>2026-04-26T16:05:13.782Z</time></trkpt><trkpt lat="44.5480756" lon="9.9116056"><ele>294.0</ele><time>2026-04-26T16:05:14.783Z</time></trkpt><trkpt lat="44.5481132" lon="9.9118732"><ele>294.0</ele><time>2026-04-26T16:05:15.782Z</time></trkpt><trkpt lat="44.5481556" lon="9.9121404"><ele>294.0</ele><time>2026-04-26T16:05:16.783Z</time></trkpt><trkpt lat="44.5481967" lon="9.9124063"><ele>294.0</ele><time>2026-04-26T16:05:17.782Z</time></trkpt><trkpt lat="44.5482415" lon="9.9126758"><ele>294.0</ele><time>2026-04-26T16:05:18.782Z</time></trkpt><trkpt lat="44.5482824" lon="9.9129477"><ele>293.6666666666667</ele><time>2026-04-26T16:05:19.782Z</time></trkpt><trkpt lat="44.5483277" lon="9.9132172"><ele>293.33333333333337</ele><time>2026-04-26T16:05:20.782Z</time></trkpt><trkpt lat="44.5483702" lon="9.9134855"><ele>293.0</ele><time>2026-04-26T16:05:21.782Z</time></trkpt><trkpt lat="44.5484119" lon="9.9137566"><ele>292.6666666666667</ele><time>2026-04-26T16:05:22.782Z</time></trkpt><trkpt lat="44.5484534" lon="9.9140286"><ele>292.3333333333333</ele><time>2026-04-26T16:05:23.782Z</time></trkpt><trkpt lat="44.5484957" lon="9.9143027"><ele>292.0</ele><time>2026-04-26T16:05:24.782Z</time></trkpt><trkpt lat="44.5485384" lon="9.914577"><ele>292.0</ele><time>2026-04-26T16:05:25.782Z</time></trkpt><trkpt lat="44.5485929" lon="9.914852"><ele>292.0</ele><time>2026-04-26T16:05:26.782Z</time></trkpt><trkpt lat="44.5486609" lon="9.9151233"><ele>292.0</ele><time>2026-04-26T16:05:27.782Z</time></trkpt><trkpt lat="44.5487407" lon="9.915387"><ele>290.3333333333333</ele><time>2026-04-26T16:05:28.782Z</time></trkpt><trkpt lat="44.5488251" lon="9.9156413"><ele>288.6666666666667</ele><time>2026-04-26T16:05:29.783Z</time></trkpt><trkpt lat="44.548915" lon="9.9158909"><ele>287.0</ele><time>2026-04-26T16:05:30.782Z</time></trkpt><trkpt lat="44.5490038" lon="9.9161395"><ele>286.33333333333337</ele><time>2026-04-26T16:05:31.783Z</time></trkpt><trkpt lat="44.5490944" lon="9.9163931"><ele>285.6666666666667</ele><time>2026-04-26T16:05:32.782Z</time></trkpt><trkpt lat="44.5491853" lon="9.9166541"><ele>285.0</ele><time>2026-04-26T16:05:33.783Z</time></trkpt><trkpt lat="44.5492766" lon="9.9169161"><ele>284.0</ele><time>2026-04-26T16:05:34.783Z</time></trkpt><trkpt lat="44.5493663" lon="9.9171779"><ele>283.0</ele><time>2026-04-26T16:05:35.782Z</time></trkpt><trkpt lat="44.5494575" lon="9.9174317"><ele>282.0</ele><time>2026-04-26T16:05:36.782Z</time></trkpt><trkpt lat="44.5495488" lon="9.9176867"><ele>284.6666666666667</ele><time>2026-04-26T16:05:37.782Z</time></trkpt><trkpt lat="44.5496364" lon="9.9179382"><ele>287.33333333333337</ele><time>2026-04-26T16:05:38.782Z</time></trkpt><trkpt lat="44.5497242" lon="9.9181891"><ele>290.0</ele><time>2026-04-26T16:05:39.783Z</time></trkpt><trkpt lat="44.5498162" lon="9.9184425"><ele>290.0</ele><time>2026-04-26T16:05:40.783Z</time></trkpt><trkpt lat="44.5499053" lon="9.9186941"><ele>290.0</ele><time>2026-04-26T16:05:41.782Z</time></trkpt><trkpt lat="44.5499929" lon="9.9189488"><ele>290.0</ele><time>2026-04-26T16:05:42.783Z</time></trkpt><trkpt lat="44.5500801" lon="9.9192073"><ele>288.0</ele><time>2026-04-26T16:05:43.782Z</time></trkpt><trkpt lat="44.5501699" lon="9.9194708"><ele>286.0</ele><time>2026-04-26T16:05:44.782Z</time></trkpt><trkpt lat="44.5502631" lon="9.9197416"><ele>284.0</ele><time>2026-04-26T16:05:45.782Z</time></trkpt><trkpt lat="44.5503562" lon="9.9200127"><ele>285.33333333333337</ele><time>2026-04-26T16:05:46.783Z</time></trkpt><trkpt lat="44.5504512" lon="9.920289"><ele>286.6666666666667</ele><time>2026-04-26T16:05:47.782Z</time></trkpt><trkpt lat="44.5505459" lon="9.9205615"><ele>288.0</ele><time>2026-04-26T16:05:48.783Z</time></trkpt><trkpt lat="44.5506392" lon="9.9208318"><ele>287.0</ele><time>2026-04-26T16:05:49.782Z</time></trkpt><trkpt lat="44.5507324" lon="9.9211023"><ele>286.0</ele><time>2026-04-26T16:05:50.783Z</time></trkpt><trkpt lat="44.5508279" lon="9.9213708"><ele>285.0</ele><time>2026-04-26T16:05:51.782Z</time></trkpt><trkpt lat="44.5509192" lon="9.9216388"><ele>283.3333333333333</ele><time>2026-04-26T16:05:52.783Z</time></trkpt><trkpt lat="44.5510108" lon="9.9219094"><ele>281.66666666666663</ele><time>2026-04-26T16:05:53.782Z</time></trkpt><trkpt lat="44.5510974" lon="9.9221846"><ele>280.0</ele><time>2026-04-26T16:05:54.783Z</time></trkpt><trkpt lat="44.5511692" lon="9.922466"><ele>281.0</ele><time>2026-04-26T16:05:55.782Z</time></trkpt><trkpt lat="44.5512282" lon="9.9227575"><ele>282.0</ele><time>2026-04-26T16:05:56.782Z</time></trkpt><trkpt lat="44.5512764" lon="9.9230486"><ele>283.0</ele><time>2026-04-26T16:05:57.782Z</time></trkpt><trkpt lat="44.5513174" lon="9.9233425"><ele>282.3333333333333</ele><time>2026-04-26T16:05:58.782Z</time></trkpt><trkpt lat="44.5513583" lon="9.9236379"><ele>281.6666666666667</ele><time>2026-04-26T16:05:59.782Z</time></trkpt><trkpt lat="44.5514033" lon="9.9239352"><ele>281.0</ele><time>2026-04-26T16:06:00.782Z</time></trkpt><trkpt lat="44.5514455" lon="9.9242311"><ele>281.0</ele><time>2026-04-26T16:06:01.782Z</time></trkpt><trkpt lat="44.5514909" lon="9.9245286"><ele>281.0</ele><time>2026-04-26T16:06:02.782Z</time></trkpt><trkpt lat="44.5515394" lon="9.9248272"><ele>281.0</ele><time>2026-04-26T16:06:03.783Z</time></trkpt><trkpt lat="44.5515896" lon="9.9251261"><ele>280.6666666666667</ele><time>2026-04-26T16:06:04.782Z</time></trkpt><trkpt lat="44.5516425" lon="9.9254188"><ele>280.3333333333333</ele><time>2026-04-26T16:06:05.784Z</time></trkpt><trkpt lat="44.551701" lon="9.9256991"><ele>280.0</ele><time>2026-04-26T16:06:06.783Z</time></trkpt><trkpt lat="44.5517601" lon="9.9259745"><ele>282.0</ele><time>2026-04-26T16:06:07.783Z</time></trkpt><trkpt lat="44.5518201" lon="9.9262397"><ele>284.0</ele><time>2026-04-26T16:06:08.783Z</time></trkpt><trkpt lat="44.5518935" lon="9.9265054"><ele>286.0</ele><time>2026-04-26T16:06:09.782Z</time></trkpt><trkpt lat="44.5519768" lon="9.9267664"><ele>284.3333333333333</ele><time>2026-04-26T16:06:10.782Z</time></trkpt><trkpt lat="44.5520706" lon="9.9270225"><ele>282.6666666666667</ele><time>2026-04-26T16:06:11.782Z</time></trkpt><trkpt lat="44.5521777" lon="9.9272748"><ele>281.0</ele><time>2026-04-26T16:06:12.782Z</time></trkpt><trkpt lat="44.5522912" lon="9.9275261"><ele>282.6666666666667</ele><time>2026-04-26T16:06:13.783Z</time></trkpt><trkpt lat="44.5524191" lon="9.9277665"><ele>284.3333333333333</ele><time>2026-04-26T16:06:14.781Z</time></trkpt><trkpt lat="44.5525539" lon="9.9280035"><ele>286.0</ele><time>2026-04-26T16:06:15.782Z</time></trkpt><trkpt lat="44.5526973" lon="9.9282311"><ele>285.66666666666663</ele><time>2026-04-26T16:06:16.781Z</time></trkpt><trkpt lat="44.55285" lon="9.9284481"><ele>285.3333333333333</ele><time>2026-04-26T16:06:17.782Z</time></trkpt><trkpt lat="44.55301" lon="9.9286586"><ele>285.0</ele><time>2026-04-26T16:06:18.781Z</time></trkpt><trkpt lat="44.5531767" lon="9.9288576"><ele>284.0</ele><time>2026-04-26T16:06:19.782Z</time></trkpt><trkpt lat="44.5533523" lon="9.9290445"><ele>283.0</ele><time>2026-04-26T16:06:20.781Z</time></trkpt><trkpt lat="44.5535372" lon="9.9292201"><ele>282.0</ele><time>2026-04-26T16:06:21.782Z</time></trkpt><trkpt lat="44.5537301" lon="9.9293842"><ele>282.0</ele><time>2026-04-26T16:06:22.782Z</time></trkpt><trkpt lat="44.5539269" lon="9.9295405"><ele>282.0</ele><time>2026-04-26T16:06:23.781Z</time></trkpt><trkpt lat="44.5541286" lon="9.9296918"><ele>282.0</ele><time>2026-04-26T16:06:24.781Z</time></trkpt><trkpt lat="44.5543319" lon="9.9298418"><ele>282.0</ele><time>2026-04-26T16:06:25.782Z</time></trkpt><trkpt lat="44.5545376" lon="9.92999"><ele>283.0</ele><time>2026-04-26T16:06:26.781Z</time></trkpt><trkpt lat="44.5547446" lon="9.9301386"><ele>284.0</ele><time>2026-04-26T16:06:27.781Z</time></trkpt><trkpt lat="44.5549513" lon="9.9302822"><ele>284.0</ele><time>2026-04-26T16:06:28.781Z</time></trkpt><trkpt lat="44.5551552" lon="9.9304292"><ele>284.0</ele><time>2026-04-26T16:06:29.782Z</time></trkpt><trkpt lat="44.5553569" lon="9.9305743"><ele>284.6666666666667</ele><time>2026-04-26T16:06:30.781Z</time></trkpt><trkpt lat="44.5555542" lon="9.9307156"><ele>285.3333333333333</ele><time>2026-04-26T16:06:31.782Z</time></trkpt><trkpt lat="44.5557506" lon="9.9308576"><ele>286.0</ele><time>2026-04-26T16:06:32.781Z</time></trkpt><trkpt lat="44.5559523" lon="9.9309955"><ele>286.0</ele><time>2026-04-26T16:06:33.781Z</time></trkpt><trkpt lat="44.5561513" lon="9.931134"><ele>286.0</ele><time>2026-04-26T16:06:34.781Z</time></trkpt><trkpt lat="44.5563534" lon="9.9312711"><ele>286.0</ele><time>2026-04-26T16:06:35.783Z</time></trkpt><trkpt lat="44.5565544" lon="9.9314093"><ele>284.0</ele><time>2026-04-26T16:06:36.781Z</time></trkpt><trkpt lat="44.5567563" lon="9.9315517"><ele>282.0</ele><time>2026-04-26T16:06:37.782Z</time></trkpt><trkpt lat="44.5569596" lon="9.9316915"><ele>283.5</ele><time>2026-04-26T16:06:38.781Z</time></trkpt><trkpt lat="44.5571651" lon="9.9318342"><ele>285.0</ele><time>2026-04-26T16:06:39.783Z</time></trkpt><trkpt lat="44.55737" lon="9.931977"><ele>285.0</ele><time>2026-04-26T16:06:40.782Z</time></trkpt><trkpt lat="44.5575763" lon="9.9321208"><ele>285.0</ele><time>2026-04-26T16:06:41.781Z</time></trkpt><trkpt lat="44.5577822" lon="9.9322642"><ele>281.5</ele><time>2026-04-26T16:06:42.781Z</time></trkpt><trkpt lat="44.5579881" lon="9.9324085"><ele>278.0</ele><time>2026-04-26T16:06:43.782Z</time></trkpt><trkpt lat="44.5581935" lon="9.9325508"><ele>283.0</ele><time>2026-04-26T16:06:44.781Z</time></trkpt><trkpt lat="44.5583971" lon="9.9326956"><ele>288.0</ele><time>2026-04-26T16:06:45.781Z</time></trkpt><trkpt lat="44.5585991" lon="9.9328375"><ele>284.6666666666667</ele><time>2026-04-26T16:06:46.782Z</time></trkpt><trkpt lat="44.5588004" lon="9.9329767"><ele>281.33333333333337</ele><time>2026-04-26T16:06:47.782Z</time></trkpt><trkpt lat="44.5589955" lon="9.9331181"><ele>278.0</ele><time>2026-04-26T16:06:48.781Z</time></trkpt><trkpt lat="44.5591887" lon="9.9332634"><ele>278.0</ele><time>2026-04-26T16:06:49.782Z</time></trkpt><trkpt lat="44.5593765" lon="9.9334151"><ele>278.0</ele><time>2026-04-26T16:06:50.782Z</time></trkpt><trkpt lat="44.5595597" lon="9.9335762"><ele>278.0</ele><time>2026-04-26T16:06:51.781Z</time></trkpt><trkpt lat="44.5597371" lon="9.9337444"><ele>278.0</ele><time>2026-04-26T16:06:52.782Z</time></trkpt><trkpt lat="44.5599096" lon="9.933917"><ele>278.0</ele><time>2026-04-26T16:06:53.781Z</time></trkpt><trkpt lat="44.560082" lon="9.9340889"><ele>278.0</ele><time>2026-04-26T16:06:54.782Z</time></trkpt><trkpt lat="44.5602626" lon="9.9342538"><ele>278.0</ele><time>2026-04-26T16:06:55.781Z</time></trkpt><trkpt lat="44.5604523" lon="9.9344009"><ele>278.0</ele><time>2026-04-26T16:06:56.781Z</time></trkpt><trkpt lat="44.5606532" lon="9.93453"><ele>278.0</ele><time>2026-04-26T16:06:57.782Z</time></trkpt><trkpt lat="44.5608616" lon="9.934654"><ele>278.0</ele><time>2026-04-26T16:06:58.781Z</time></trkpt><trkpt lat="44.5610753" lon="9.9347773"><ele>278.0</ele><time>2026-04-26T16:06:59.781Z</time></trkpt><trkpt lat="44.5612899" lon="9.9349102"><ele>276.0</ele><time>2026-04-26T16:07:00.782Z</time></trkpt><trkpt lat="44.561495" lon="9.9350508"><ele>274.0</ele><time>2026-04-26T16:07:01.781Z</time></trkpt><trkpt lat="44.5616918" lon="9.9352047"><ele>274.0</ele><time>2026-04-26T16:07:02.781Z</time></trkpt><trkpt lat="44.5618697" lon="9.9353775"><ele>274.0</ele><time>2026-04-26T16:07:03.781Z</time></trkpt><trkpt lat="44.562029" lon="9.9355658"><ele>274.0</ele><time>2026-04-26T16:07:04.781Z</time></trkpt><trkpt lat="44.5621726" lon="9.9357755"><ele>273.0</ele><time>2026-04-26T16:07:05.782Z</time></trkpt><trkpt lat="44.5623016" lon="9.936"><ele>272.0</ele><time>2026-04-26T16:07:06.781Z</time></trkpt><trkpt lat="44.5624175" lon="9.9362438"><ele>271.0</ele><time>2026-04-26T16:07:07.782Z</time></trkpt><trkpt lat="44.5625271" lon="9.9364968"><ele>271.66666666666663</ele><time>2026-04-26T16:07:08.781Z</time></trkpt><trkpt lat="44.5626263" lon="9.9367556"><ele>272.3333333333333</ele><time>2026-04-26T16:07:09.781Z</time></trkpt><trkpt lat="44.5627071" lon="9.937027"><ele>273.0</ele><time>2026-04-26T16:07:10.781Z</time></trkpt><trkpt lat="44.5627894" lon="9.9372891"><ele>273.0</ele><time>2026-04-26T16:07:11.782Z</time></trkpt><trkpt lat="44.562875" lon="9.9375417"><ele>273.0</ele><time>2026-04-26T16:07:12.781Z</time></trkpt><trkpt lat="44.5629743" lon="9.93778"><ele>273.0</ele><time>2026-04-26T16:07:13.781Z</time></trkpt><trkpt lat="44.5630952" lon="9.9379943"><ele>273.0</ele><time>2026-04-26T16:07:14.782Z</time></trkpt><trkpt lat="44.5632303" lon="9.9381959"><ele>273.0</ele><time>2026-04-26T16:07:15.781Z</time></trkpt><trkpt lat="44.5633785" lon="9.938376"><ele>273.0</ele><time>2026-04-26T16:07:16.781Z</time></trkpt><trkpt lat="44.5635401" lon="9.9385366"><ele>274.3333333333333</ele><time>2026-04-26T16:07:17.781Z</time></trkpt><trkpt lat="44.5637022" lon="9.9386932"><ele>275.66666666666663</ele><time>2026-04-26T16:07:18.781Z</time></trkpt><trkpt lat="44.5638676" lon="9.93885"><ele>277.0</ele><time>2026-04-26T16:07:19.782Z</time></trkpt><trkpt lat="44.5640324" lon="9.93901"><ele>277.0</ele><time>2026-04-26T16:07:20.781Z</time></trkpt><trkpt lat="44.5641968" lon="9.9391692"><ele>277.0</ele><time>2026-04-26T16:07:21.781Z</time></trkpt><trkpt lat="44.56436" lon="9.9393346"><ele>277.0</ele><time>2026-04-26T16:07:22.781Z</time></trkpt><trkpt lat="44.5645232" lon="9.9395043"><ele>276.0</ele><time>2026-04-26T16:07:23.782Z</time></trkpt><trkpt lat="44.5646784" lon="9.9396819"><ele>275.0</ele><time>2026-04-26T16:07:24.781Z</time></trkpt><trkpt lat="44.5648114" lon="9.9398476"><ele>274.0</ele><time>2026-04-26T16:07:25.782Z</time></trkpt><trkpt lat="44.5649331" lon="9.9399984"><ele>275.25</ele><time>2026-04-26T16:07:26.781Z</time></trkpt><trkpt lat="44.5650447" lon="9.940138"><ele>276.5</ele><time>2026-04-26T16:07:27.781Z</time></trkpt><trkpt lat="44.5651492" lon="9.94027"><ele>277.75</ele><time>2026-04-26T16:07:28.782Z</time></trkpt><trkpt lat="44.5652444" lon="9.940399"><ele>279.0</ele><time>2026-04-26T16:07:29.781Z</time></trkpt><trkpt lat="44.5653337" lon="9.9405448"><ele>278.3333333333333</ele><time>2026-04-26T16:07:30.782Z</time></trkpt><trkpt lat="44.5654266" lon="9.9407035"><ele>277.66666666666663</ele><time>2026-04-26T16:07:31.781Z</time></trkpt><trkpt lat="44.5655252" lon="9.9408903"><ele>277.0</ele><time>2026-04-26T16:07:32.781Z</time></trkpt><trkpt lat="44.5656154" lon="9.9411065"><ele>277.0</ele><time>2026-04-26T16:07:33.782Z</time></trkpt><trkpt lat="44.5657" lon="9.9413444"><ele>277.0</ele><time>2026-04-26T16:07:34.781Z</time></trkpt><trkpt lat="44.5657777" lon="9.94158"><ele>277.0</ele><time>2026-04-26T16:07:35.782Z</time></trkpt><trkpt lat="44.5658485" lon="9.9418044"><ele>278.0</ele><time>2026-04-26T16:07:36.782Z</time></trkpt><trkpt lat="44.565912" lon="9.9420133"><ele>279.0</ele><time>2026-04-26T16:07:37.781Z</time></trkpt><trkpt lat="44.5659533" lon="9.9422283"><ele>280.0</ele><time>2026-04-26T16:07:38.781Z</time></trkpt><trkpt lat="44.5659656" lon="9.9424553"><ele>281.0</ele><time>2026-04-26T16:07:39.781Z</time></trkpt><trkpt lat="44.5659708" lon="9.9426783"><ele>282.0</ele><time>2026-04-26T16:07:40.781Z</time></trkpt><trkpt lat="44.5659758" lon="9.9428759"><ele>283.0</ele><time>2026-04-26T16:07:41.781Z</time></trkpt><trkpt lat="44.5659976" lon="9.9430519"><ele>284.0</ele><time>2026-04-26T16:07:42.782Z</time></trkpt><trkpt lat="44.5660464" lon="9.943205"><ele>284.0</ele><time>2026-04-26T16:07:43.782Z</time></trkpt><trkpt lat="44.5661193" lon="9.9433368"><ele>284.0</ele><time>2026-04-26T16:07:44.781Z</time></trkpt><trkpt lat="44.5662288" lon="9.9434338"><ele>284.0</ele><time>2026-04-26T16:07:45.781Z</time></trkpt><trkpt lat="44.5663911" lon="9.9434636"><ele>284.0</ele><time>2026-04-26T16:07:46.781Z</time></trkpt><trkpt lat="44.5665719" lon="9.9434935"><ele>278.0</ele><time>2026-04-26T16:07:47.781Z</time></trkpt><trkpt lat="44.5667943" lon="9.9435222"><ele>272.0</ele><time>2026-04-26T16:07:48.781Z</time></trkpt><trkpt lat="44.5670469" lon="9.9435534"><ele>267.5</ele><time>2026-04-26T16:07:49.781Z</time></trkpt><trkpt lat="44.567281" lon="9.9435683"><ele>263.0</ele><time>2026-04-26T16:07:50.781Z</time></trkpt><trkpt lat="44.5674978" lon="9.9435877"><ele>263.0</ele><time>2026-04-26T16:07:51.781Z</time></trkpt><trkpt lat="44.5676992" lon="9.9436086"><ele>263.0</ele><time>2026-04-26T16:07:52.781Z</time></trkpt><trkpt lat="44.5678666" lon="9.9436249"><ele>263.0</ele><time>2026-04-26T16:07:53.781Z</time></trkpt><trkpt lat="44.5680089" lon="9.9436483"><ele>265.25</ele><time>2026-04-26T16:07:54.783Z</time></trkpt><trkpt lat="44.5681282" lon="9.9436964"><ele>267.5</ele><time>2026-04-26T16:07:55.782Z</time></trkpt><trkpt lat="44.5682239" lon="9.9438066"><ele>269.75</ele><time>2026-04-26T16:07:56.782Z</time></trkpt><trkpt lat="44.5683059" lon="9.9439757"><ele>272.0</ele><time>2026-04-26T16:07:57.781Z</time></trkpt><trkpt lat="44.5684" lon="9.9441426"><ele>270.0</ele><time>2026-04-26T16:07:58.781Z</time></trkpt><trkpt lat="44.5685184" lon="9.9442664"><ele>268.0</ele><time>2026-04-26T16:07:59.782Z</time></trkpt><trkpt lat="44.5686416" lon="9.9443988"><ele>266.0</ele><time>2026-04-26T16:08:00.782Z</time></trkpt><trkpt lat="44.5688068" lon="9.9444918"><ele>266.0</ele><time>2026-04-26T16:08:01.781Z</time></trkpt><trkpt lat="44.5689858" lon="9.9445533"><ele>266.0</ele><time>2026-04-26T16:08:02.781Z</time></trkpt><trkpt lat="44.5691813" lon="9.9445589"><ele>266.0</ele><time>2026-04-26T16:08:03.781Z</time></trkpt><trkpt lat="44.5693441" lon="9.9445425"><ele>266.0</ele><time>2026-04-26T16:08:04.782Z</time></trkpt><trkpt lat="44.5695175" lon="9.9444555"><ele>266.0</ele><time>2026-04-26T16:08:05.781Z</time></trkpt><trkpt lat="44.5696352" lon="9.9443249"><ele>266.0</ele><time>2026-04-26T16:08:06.781Z</time></trkpt><trkpt lat="44.5697846" lon="9.9443128"><ele>267.0</ele><time>2026-04-26T16:08:07.782Z</time></trkpt><trkpt lat="44.5699281" lon="9.944358"><ele>268.0</ele><time>2026-04-26T16:08:08.781Z</time></trkpt><trkpt lat="44.5700713" lon="9.9444645"><ele>269.0</ele><time>2026-04-26T16:08:09.781Z</time></trkpt><trkpt lat="44.5702148" lon="9.9445774"><ele>270.33333333333337</ele><time>2026-04-26T16:08:10.781Z</time></trkpt><trkpt lat="44.5703749" lon="9.9446674"><ele>271.6666666666667</ele><time>2026-04-26T16:08:11.781Z</time></trkpt><trkpt lat="44.5705472" lon="9.9447224"><ele>273.0</ele><time>2026-04-26T16:08:12.782Z</time></trkpt><trkpt lat="44.5707231" lon="9.9447453"><ele>273.0</ele><time>2026-04-26T16:08:13.782Z</time></trkpt><trkpt lat="44.5709071" lon="9.9447425"><ele>273.0</ele><time>2026-04-26T16:08:14.782Z</time></trkpt><trkpt lat="44.5710995" lon="9.9447388"><ele>273.0</ele><time>2026-04-26T16:08:15.781Z</time></trkpt><trkpt lat="44.5712923" lon="9.9447467"><ele>272.0</ele><time>2026-04-26T16:08:16.781Z</time></trkpt><trkpt lat="44.5714886" lon="9.9447865"><ele>271.0</ele><time>2026-04-26T16:08:17.782Z</time></trkpt><trkpt lat="44.5716878" lon="9.9448504"><ele>270.0</ele><time>2026-04-26T16:08:18.782Z</time></trkpt><trkpt lat="44.5718859" lon="9.9449217"><ele>271.3333333333333</ele><time>2026-04-26T16:08:19.782Z</time></trkpt><trkpt lat="44.5720806" lon="9.9449956"><ele>272.66666666666663</ele><time>2026-04-26T16:08:20.781Z</time></trkpt><trkpt lat="44.5722718" lon="9.9450696"><ele>274.0</ele><time>2026-04-26T16:08:21.782Z</time></trkpt><trkpt lat="44.5724642" lon="9.9451388"><ele>270.0</ele><time>2026-04-26T16:08:22.781Z</time></trkpt><trkpt lat="44.5726526" lon="9.9452095"><ele>266.0</ele><time>2026-04-26T16:08:23.781Z</time></trkpt><trkpt lat="44.5728465" lon="9.9452519"><ele>262.0</ele><time>2026-04-26T16:08:24.782Z</time></trkpt><trkpt lat="44.5730507" lon="9.9452651"><ele>262.0</ele><time>2026-04-26T16:08:25.781Z</time></trkpt><trkpt lat="44.5732557" lon="9.9452597"><ele>262.0</ele><time>2026-04-26T16:08:26.783Z</time></trkpt><trkpt lat="44.5734564" lon="9.945238"><ele>262.0</ele><time>2026-04-26T16:08:27.782Z</time></trkpt><trkpt lat="44.5736446" lon="9.9452113"><ele>261.3333333333333</ele><time>2026-04-26T16:08:28.781Z</time></trkpt><trkpt lat="44.5738201" lon="9.9451875"><ele>260.6666666666667</ele><time>2026-04-26T16:08:29.781Z</time></trkpt><trkpt lat="44.573986" lon="9.9451548"><ele>260.0</ele><time>2026-04-26T16:08:30.781Z</time></trkpt><trkpt lat="44.5741354" lon="9.9451007"><ele>261.0</ele><time>2026-04-26T16:08:31.782Z</time></trkpt><trkpt lat="44.5742803" lon="9.9450223"><ele>262.0</ele><time>2026-04-26T16:08:32.782Z</time></trkpt><trkpt lat="44.5744231" lon="9.9449031"><ele>263.0</ele><time>2026-04-26T16:08:33.781Z</time></trkpt><trkpt lat="44.5745945" lon="9.9446976"><ele>263.0</ele><time>2026-04-26T16:08:34.781Z</time></trkpt><trkpt lat="44.5747497" lon="9.9445212"><ele>263.0</ele><time>2026-04-26T16:08:35.781Z</time></trkpt><trkpt lat="44.5749059" lon="9.9443742"><ele>263.0</ele><time>2026-04-26T16:08:36.781Z</time></trkpt><trkpt lat="44.5750712" lon="9.9442712"><ele>264.0</ele><time>2026-04-26T16:08:37.781Z</time></trkpt><trkpt lat="44.5752482" lon="9.9441941"><ele>265.0</ele><time>2026-04-26T16:08:38.781Z</time></trkpt><trkpt lat="44.5754424" lon="9.9441372"><ele>266.0</ele><time>2026-04-26T16:08:39.782Z</time></trkpt><trkpt lat="44.5756428" lon="9.9440889"><ele>266.0</ele><time>2026-04-26T16:08:40.782Z</time></trkpt><trkpt lat="44.5758495" lon="9.9440535"><ele>266.0</ele><time>2026-04-26T16:08:41.782Z</time></trkpt><trkpt lat="44.5760541" lon="9.944033"><ele>266.0</ele><time>2026-04-26T16:08:42.781Z</time></trkpt><trkpt lat="44.5762531" lon="9.9440299"><ele>264.33333333333337</ele><time>2026-04-26T16:08:43.782Z</time></trkpt><trkpt lat="44.5764439" lon="9.9440237"><ele>262.6666666666667</ele><time>2026-04-26T16:08:44.781Z</time></trkpt><trkpt lat="44.5766219" lon="9.944005"><ele>261.0</ele><time>2026-04-26T16:08:45.782Z</time></trkpt><trkpt lat="44.5767911" lon="9.9439561"><ele>261.0</ele><time>2026-04-26T16:08:46.781Z</time></trkpt><trkpt lat="44.5769596" lon="9.9438864"><ele>261.0</ele><time>2026-04-26T16:08:47.781Z</time></trkpt><trkpt lat="44.5771318" lon="9.9437925"><ele>261.0</ele><time>2026-04-26T16:08:48.781Z</time></trkpt><trkpt lat="44.5773061" lon="9.943676"><ele>259.6666666666667</ele><time>2026-04-26T16:08:49.782Z</time></trkpt><trkpt lat="44.5774879" lon="9.9435427"><ele>258.33333333333337</ele><time>2026-04-26T16:08:50.781Z</time></trkpt><trkpt lat="44.5776637" lon="9.9434115"><ele>257.0</ele><time>2026-04-26T16:08:51.782Z</time></trkpt><trkpt lat="44.5778364" lon="9.9432992"><ele>258.6666666666667</ele><time>2026-04-26T16:08:52.781Z</time></trkpt><trkpt lat="44.578015" lon="9.9432096"><ele>260.3333333333333</ele><time>2026-04-26T16:08:53.783Z</time></trkpt><trkpt lat="44.5782" lon="9.9431317"><ele>262.0</ele><time>2026-04-26T16:08:54.781Z</time></trkpt><trkpt lat="44.5783919" lon="9.9430814"><ele>262.0</ele><time>2026-04-26T16:08:55.782Z</time></trkpt><trkpt lat="44.5785891" lon="9.943049"><ele>262.0</ele><time>2026-04-26T16:08:56.781Z</time></trkpt><trkpt lat="44.5787898" lon="9.9430056"><ele>262.0</ele><time>2026-04-26T16:08:57.781Z</time></trkpt><trkpt lat="44.5789795" lon="9.942951"><ele>261.3333333333333</ele><time>2026-04-26T16:08:58.781Z</time></trkpt><trkpt lat="44.5791612" lon="9.9428743"><ele>260.6666666666667</ele><time>2026-04-26T16:08:59.781Z</time></trkpt><trkpt lat="44.5793312" lon="9.9427656"><ele>260.0</ele><time>2026-04-26T16:09:00.782Z</time></trkpt><trkpt lat="44.5794936" lon="9.942627"><ele>261.33333333333337</ele><time>2026-04-26T16:09:01.781Z</time></trkpt><trkpt lat="44.579656" lon="9.9424784"><ele>262.6666666666667</ele><time>2026-04-26T16:09:02.782Z</time></trkpt><trkpt lat="44.5798272" lon="9.9423455"><ele>264.0</ele><time>2026-04-26T16:09:03.781Z</time></trkpt><trkpt lat="44.5800047" lon="9.9422305"><ele>264.0</ele><time>2026-04-26T16:09:04.782Z</time></trkpt><trkpt lat="44.5801886" lon="9.9421477"><ele>264.0</ele><time>2026-04-26T16:09:05.782Z</time></trkpt><trkpt lat="44.5803768" lon="9.942096"><ele>264.0</ele><time>2026-04-26T16:09:06.781Z</time></trkpt><trkpt lat="44.5805581" lon="9.9420429"><ele>262.0</ele><time>2026-04-26T16:09:07.781Z</time></trkpt><trkpt lat="44.5807294" lon="9.9419884"><ele>260.0</ele><time>2026-04-26T16:09:08.781Z</time></trkpt><trkpt lat="44.5808912" lon="9.9419504"><ele>258.0</ele><time>2026-04-26T16:09:09.781Z</time></trkpt><trkpt lat="44.5810473" lon="9.9419398"><ele>256.6666666666667</ele><time>2026-04-26T16:09:10.783Z</time></trkpt><trkpt lat="44.5812038" lon="9.9419546"><ele>255.33333333333334</ele><time>2026-04-26T16:09:11.782Z</time></trkpt><trkpt lat="44.5813596" lon="9.9419978"><ele>254.0</ele><time>2026-04-26T16:09:12.783Z</time></trkpt><trkpt lat="44.5815138" lon="9.9420399"><ele>254.0</ele><time>2026-04-26T16:09:13.781Z</time></trkpt><trkpt lat="44.5816768" lon="9.9420598"><ele>254.0</ele><time>2026-04-26T16:09:14.781Z</time></trkpt><trkpt lat="44.5818427" lon="9.9420775"><ele>254.0</ele><time>2026-04-26T16:09:15.781Z</time></trkpt><trkpt lat="44.582025" lon="9.9420737"><ele>254.0</ele><time>2026-04-26T16:09:16.782Z</time></trkpt><trkpt lat="44.5822015" lon="9.9420815"><ele>254.0</ele><time>2026-04-26T16:09:17.782Z</time></trkpt><trkpt lat="44.582379" lon="9.9420985"><ele>254.0</ele><time>2026-04-26T16:09:18.782Z</time></trkpt><trkpt lat="44.5825614" lon="9.9421301"><ele>254.0</ele><time>2026-04-26T16:09:19.781Z</time></trkpt><trkpt lat="44.5827417" lon="9.9421649"><ele>254.0</ele><time>2026-04-26T16:09:20.781Z</time></trkpt><trkpt lat="44.5829148" lon="9.9422102"><ele>254.0</ele><time>2026-04-26T16:09:21.781Z</time></trkpt><trkpt lat="44.5830708" lon="9.9422688"><ele>254.25</ele><time>2026-04-26T16:09:22.781Z</time></trkpt><trkpt lat="44.5832217" lon="9.9423122"><ele>254.5</ele><time>2026-04-26T16:09:23.782Z</time></trkpt><trkpt lat="44.583364" lon="9.9423241"><ele>254.75</ele><time>2026-04-26T16:09:24.781Z</time></trkpt><trkpt lat="44.5835048" lon="9.9423292"><ele>255.0</ele><time>2026-04-26T16:09:25.782Z</time></trkpt><trkpt lat="44.5836479" lon="9.9423721"><ele>254.0</ele><time>2026-04-26T16:09:26.781Z</time></trkpt><trkpt lat="44.5837884" lon="9.9424499"><ele>253.0</ele><time>2026-04-26T16:09:27.781Z</time></trkpt><trkpt lat="44.5839412" lon="9.942541"><ele>252.0</ele><time>2026-04-26T16:09:28.782Z</time></trkpt><trkpt lat="44.5840969" lon="9.9426333"><ele>252.0</ele><time>2026-04-26T16:09:29.782Z</time></trkpt><trkpt lat="44.584257" lon="9.9427354"><ele>252.0</ele><time>2026-04-26T16:09:30.781Z</time></trkpt><trkpt lat="44.584419" lon="9.9428563"><ele>252.0</ele><time>2026-04-26T16:09:31.781Z</time></trkpt><trkpt lat="44.5845763" lon="9.9429983"><ele>252.0</ele><time>2026-04-26T16:09:32.782Z</time></trkpt><trkpt lat="44.5847338" lon="9.9431634"><ele>252.0</ele><time>2026-04-26T16:09:33.781Z</time></trkpt><trkpt lat="44.5848933" lon="9.9433451"><ele>252.0</ele><time>2026-04-26T16:09:34.782Z</time></trkpt><trkpt lat="44.5850601" lon="9.9435292"><ele>252.0</ele><time>2026-04-26T16:09:35.781Z</time></trkpt><trkpt lat="44.5852254" lon="9.9437133"><ele>252.0</ele><time>2026-04-26T16:09:36.782Z</time></trkpt><trkpt lat="44.585391" lon="9.9438989"><ele>252.0</ele><time>2026-04-26T16:09:37.781Z</time></trkpt><trkpt lat="44.5855621" lon="9.9440865"><ele>252.66666666666669</ele><time>2026-04-26T16:09:38.781Z</time></trkpt><trkpt lat="44.5857301" lon="9.9442771"><ele>253.33333333333334</ele><time>2026-04-26T16:09:39.781Z</time></trkpt><trkpt lat="44.5858989" lon="9.9444713"><ele>254.0</ele><time>2026-04-26T16:09:40.781Z</time></trkpt><trkpt lat="44.5860658" lon="9.9446635"><ele>253.33333333333334</ele><time>2026-04-26T16:09:41.781Z</time></trkpt><trkpt lat="44.5862356" lon="9.9448497"><ele>252.66666666666669</ele><time>2026-04-26T16:09:42.781Z</time></trkpt><trkpt lat="44.5864049" lon="9.945039"><ele>252.0</ele><time>2026-04-26T16:09:43.782Z</time></trkpt><trkpt lat="44.5865727" lon="9.9452241"><ele>252.0</ele><time>2026-04-26T16:09:44.781Z</time></trkpt><trkpt lat="44.5867407" lon="9.9454051"><ele>252.0</ele><time>2026-04-26T16:09:45.781Z</time></trkpt><trkpt lat="44.5869094" lon="9.9455856"><ele>252.0</ele><time>2026-04-26T16:09:46.781Z</time></trkpt><trkpt lat="44.587081" lon="9.9457662"><ele>251.66666666666669</ele><time>2026-04-26T16:09:47.782Z</time></trkpt><trkpt lat="44.5872561" lon="9.9459448"><ele>251.33333333333334</ele><time>2026-04-26T16:09:48.781Z</time></trkpt><trkpt lat="44.5874326" lon="9.9461215"><ele>251.0</ele><time>2026-04-26T16:09:49.781Z</time></trkpt><trkpt lat="44.5876104" lon="9.9462964"><ele>251.0</ele><time>2026-04-26T16:09:50.781Z</time></trkpt><trkpt lat="44.5877929" lon="9.9464698"><ele>251.0</ele><time>2026-04-26T16:09:51.782Z</time></trkpt><trkpt lat="44.5879774" lon="9.9466325"><ele>251.0</ele><time>2026-04-26T16:09:52.782Z</time></trkpt><trkpt lat="44.5881711" lon="9.9467741"><ele>251.66666666666669</ele><time>2026-04-26T16:09:53.781Z</time></trkpt><trkpt lat="44.5883707" lon="9.9468835"><ele>252.33333333333331</ele><time>2026-04-26T16:09:54.782Z</time></trkpt><trkpt lat="44.5885748" lon="9.9469735"><ele>253.0</ele><time>2026-04-26T16:09:55.781Z</time></trkpt><trkpt lat="44.5887746" lon="9.9470692"><ele>253.0</ele><time>2026-04-26T16:09:56.782Z</time></trkpt><trkpt lat="44.5889678" lon="9.9471887"><ele>253.0</ele><time>2026-04-26T16:09:57.781Z</time></trkpt><trkpt lat="44.5891477" lon="9.9473385"><ele>253.0</ele><time>2026-04-26T16:09:58.781Z</time></trkpt><trkpt lat="44.589317" lon="9.9475169"><ele>252.66666666666666</ele><time>2026-04-26T16:09:59.781Z</time></trkpt><trkpt lat="44.5894761" lon="9.9477082"><ele>252.33333333333331</ele><time>2026-04-26T16:10:00.781Z</time></trkpt><trkpt lat="44.5896378" lon="9.9478967"><ele>252.0</ele><time>2026-04-26T16:10:01.782Z</time></trkpt><trkpt lat="44.5897972" lon="9.9480895"><ele>252.0</ele><time>2026-04-26T16:10:02.781Z</time></trkpt><trkpt lat="44.5899605" lon="9.9482836"><ele>252.0</ele><time>2026-04-26T16:10:03.782Z</time></trkpt><trkpt lat="44.590125" lon="9.9484859"><ele>252.0</ele><time>2026-04-26T16:10:04.781Z</time></trkpt><trkpt lat="44.5902914" lon="9.9486874"><ele>252.66666666666669</ele><time>2026-04-26T16:10:05.782Z</time></trkpt><trkpt lat="44.5904584" lon="9.9488919"><ele>253.33333333333334</ele><time>2026-04-26T16:10:06.782Z</time></trkpt><trkpt lat="44.5906273" lon="9.9490974"><ele>254.0</ele><time>2026-04-26T16:10:07.781Z</time></trkpt><trkpt lat="44.5907965" lon="9.9492994"><ele>254.33333333333334</ele><time>2026-04-26T16:10:08.781Z</time></trkpt><trkpt lat="44.5909608" lon="9.9494999"><ele>254.66666666666669</ele><time>2026-04-26T16:10:09.781Z</time></trkpt><trkpt lat="44.5911215" lon="9.9496964"><ele>255.0</ele><time>2026-04-26T16:10:10.782Z</time></trkpt><trkpt lat="44.5912803" lon="9.9498908"><ele>252.0</ele><time>2026-04-26T16:10:11.781Z</time></trkpt><trkpt lat="44.5914326" lon="9.9500907"><ele>249.0</ele><time>2026-04-26T16:10:12.782Z</time></trkpt><trkpt lat="44.5915767" lon="9.9503083"><ele>246.0</ele><time>2026-04-26T16:10:13.781Z</time></trkpt><trkpt lat="44.5917104" lon="9.9505405"><ele>246.0</ele><time>2026-04-26T16:10:14.782Z</time></trkpt><trkpt lat="44.5918302" lon="9.9507872"><ele>246.0</ele><time>2026-04-26T16:10:15.781Z</time></trkpt><trkpt lat="44.5919428" lon="9.951043"><ele>246.0</ele><time>2026-04-26T16:10:16.782Z</time></trkpt><trkpt lat="44.5920589" lon="9.9513022"><ele>245.66666666666669</ele><time>2026-04-26T16:10:17.782Z</time></trkpt><trkpt lat="44.5921761" lon="9.951564"><ele>245.33333333333334</ele><time>2026-04-26T16:10:18.783Z</time></trkpt><trkpt lat="44.5922924" lon="9.9518305"><ele>245.0</ele><time>2026-04-26T16:10:19.781Z</time></trkpt><trkpt lat="44.5924109" lon="9.9520968"><ele>245.0</ele><time>2026-04-26T16:10:20.782Z</time></trkpt><trkpt lat="44.5925285" lon="9.9523621"><ele>245.0</ele><time>2026-04-26T16:10:21.781Z</time></trkpt><trkpt lat="44.5926473" lon="9.9526293"><ele>245.0</ele><time>2026-04-26T16:10:22.781Z</time></trkpt><trkpt lat="44.5927642" lon="9.9528965"><ele>245.33333333333334</ele><time>2026-04-26T16:10:23.781Z</time></trkpt><trkpt lat="44.5928819" lon="9.9531611"><ele>245.66666666666669</ele><time>2026-04-26T16:10:24.781Z</time></trkpt><trkpt lat="44.592999" lon="9.9534259"><ele>246.0</ele><time>2026-04-26T16:10:25.781Z</time></trkpt><trkpt lat="44.5931184" lon="9.9536896"><ele>246.0</ele><time>2026-04-26T16:10:26.781Z</time></trkpt><trkpt lat="44.5932376" lon="9.9539573"><ele>246.0</ele><time>2026-04-26T16:10:27.781Z</time></trkpt><trkpt lat="44.5933584" lon="9.9542231"><ele>246.0</ele><time>2026-04-26T16:10:28.781Z</time></trkpt><trkpt lat="44.5934791" lon="9.9544958"><ele>243.5</ele><time>2026-04-26T16:10:29.781Z</time></trkpt><trkpt lat="44.593599" lon="9.9547629"><ele>241.0</ele><time>2026-04-26T16:10:30.781Z</time></trkpt><trkpt lat="44.5937208" lon="9.9550338"><ele>244.5</ele><time>2026-04-26T16:10:31.781Z</time></trkpt><trkpt lat="44.593843" lon="9.9553072"><ele>248.0</ele><time>2026-04-26T16:10:32.781Z</time></trkpt><trkpt lat="44.5939655" lon="9.9555842"><ele>248.0</ele><time>2026-04-26T16:10:33.782Z</time></trkpt><trkpt lat="44.5940902" lon="9.9558647"><ele>248.0</ele><time>2026-04-26T16:10:34.781Z</time></trkpt><trkpt lat="44.5942199" lon="9.9561413"><ele>245.5</ele><time>2026-04-26T16:10:35.781Z</time></trkpt><trkpt lat="44.5943443" lon="9.9564211"><ele>243.0</ele><time>2026-04-26T16:10:36.781Z</time></trkpt><trkpt lat="44.5944638" lon="9.9566994"><ele>247.0</ele><time>2026-04-26T16:10:37.783Z</time></trkpt><trkpt lat="44.5945699" lon="9.9569895"><ele>251.0</ele><time>2026-04-26T16:10:38.781Z</time></trkpt><trkpt lat="44.5946576" lon="9.9572887"><ele>248.5</ele><time>2026-04-26T16:10:39.782Z</time></trkpt><trkpt lat="44.5947361" lon="9.9575916"><ele>246.0</ele><time>2026-04-26T16:10:40.781Z</time></trkpt><trkpt lat="44.5948143" lon="9.9579013"><ele>246.0</ele><time>2026-04-26T16:10:41.782Z</time></trkpt><trkpt lat="44.5948924" lon="9.9582067"><ele>246.0</ele><time>2026-04-26T16:10:42.781Z</time></trkpt><trkpt lat="44.5949712" lon="9.9585157"><ele>243.0</ele><time>2026-04-26T16:10:43.781Z</time></trkpt><trkpt lat="44.5950553" lon="9.9588202"><ele>240.0</ele><time>2026-04-26T16:10:44.782Z</time></trkpt><trkpt lat="44.5951356" lon="9.9591203"><ele>239.0</ele><time>2026-04-26T16:10:45.781Z</time></trkpt><trkpt lat="44.5952178" lon="9.959417"><ele>238.0</ele><time>2026-04-26T16:10:46.782Z</time></trkpt><trkpt lat="44.5953012" lon="9.9597084"><ele>241.33333333333331</ele><time>2026-04-26T16:10:47.781Z</time></trkpt><trkpt lat="44.5953848" lon="9.96"><ele>244.66666666666669</ele><time>2026-04-26T16:10:48.782Z</time></trkpt><trkpt lat="44.595472" lon="9.9602899"><ele>248.0</ele><time>2026-04-26T16:10:49.781Z</time></trkpt><trkpt lat="44.5955673" lon="9.9605727"><ele>248.0</ele><time>2026-04-26T16:10:50.781Z</time></trkpt><trkpt lat="44.5956755" lon="9.9608497"><ele>248.0</ele><time>2026-04-26T16:10:51.781Z</time></trkpt><trkpt lat="44.595799" lon="9.9611166"><ele>244.5</ele><time>2026-04-26T16:10:52.782Z</time></trkpt><trkpt lat="44.5959344" lon="9.9613696"><ele>241.0</ele><time>2026-04-26T16:10:53.782Z</time></trkpt><trkpt lat="44.5960803" lon="9.9616192"><ele>241.0</ele><time>2026-04-26T16:10:54.782Z</time></trkpt><trkpt lat="44.5962349" lon="9.9618561"><ele>241.0</ele><time>2026-04-26T16:10:55.782Z</time></trkpt><trkpt lat="44.596401" lon="9.9620798"><ele>241.0</ele><time>2026-04-26T16:10:56.781Z</time></trkpt><trkpt lat="44.5965739" lon="9.9622944"><ele>241.0</ele><time>2026-04-26T16:10:57.781Z</time></trkpt><trkpt lat="44.5967496" lon="9.9624997"><ele>241.5</ele><time>2026-04-26T16:10:58.781Z</time></trkpt><trkpt lat="44.5969274" lon="9.9627012"><ele>242.0</ele><time>2026-04-26T16:10:59.781Z</time></trkpt><trkpt lat="44.5971076" lon="9.9629014"><ele>242.0</ele><time>2026-04-26T16:11:00.781Z</time></trkpt><trkpt lat="44.5972879" lon="9.9631064"><ele>242.0</ele><time>2026-04-26T16:11:01.781Z</time></trkpt><trkpt lat="44.5974672" lon="9.9633125"><ele>239.5</ele><time>2026-04-26T16:11:02.781Z</time></trkpt><trkpt lat="44.597647" lon="9.9635191"><ele>237.0</ele><time>2026-04-26T16:11:03.781Z</time></trkpt><trkpt lat="44.5978286" lon="9.9637254"><ele>240.5</ele><time>2026-04-26T16:11:04.782Z</time></trkpt><trkpt lat="44.5980091" lon="9.9639296"><ele>244.0</ele><time>2026-04-26T16:11:05.781Z</time></trkpt><trkpt lat="44.5981867" lon="9.9641362"><ele>239.5</ele><time>2026-04-26T16:11:06.781Z</time></trkpt><trkpt lat="44.598362" lon="9.9643471"><ele>235.0</ele><time>2026-04-26T16:11:07.782Z</time></trkpt><trkpt lat="44.5985337" lon="9.9645592"><ele>238.5</ele><time>2026-04-26T16:11:08.781Z</time></trkpt><trkpt lat="44.5987009" lon="9.9647744"><ele>242.0</ele><time>2026-04-26T16:11:09.782Z</time></trkpt><trkpt lat="44.5988607" lon="9.9649953"><ele>240.0</ele><time>2026-04-26T16:11:10.782Z</time></trkpt><trkpt lat="44.5990183" lon="9.9652222"><ele>238.0</ele><time>2026-04-26T16:11:11.781Z</time></trkpt><trkpt lat="44.5991744" lon="9.9654515"><ele>238.0</ele><time>2026-04-26T16:11:12.781Z</time></trkpt><trkpt lat="44.5993293" lon="9.9656817"><ele>238.0</ele><time>2026-04-26T16:11:13.782Z</time></trkpt><trkpt lat="44.5994823" lon="9.965914"><ele>237.0</ele><time>2026-04-26T16:11:14.781Z</time></trkpt><trkpt lat="44.5996348" lon="9.9661467"><ele>236.0</ele><time>2026-04-26T16:11:15.781Z</time></trkpt><trkpt lat="44.5997891" lon="9.9663801"><ele>236.0</ele><time>2026-04-26T16:11:16.782Z</time></trkpt><trkpt lat="44.5999453" lon="9.9666119"><ele>236.0</ele><time>2026-04-26T16:11:17.781Z</time></trkpt><trkpt lat="44.6000999" lon="9.9668464"><ele>235.5</ele><time>2026-04-26T16:11:18.782Z</time></trkpt><trkpt lat="44.6002584" lon="9.9670808"><ele>235.0</ele><time>2026-04-26T16:11:19.781Z</time></trkpt><trkpt lat="44.6004185" lon="9.9673151"><ele>234.0</ele><time>2026-04-26T16:11:20.781Z</time></trkpt><trkpt lat="44.6005812" lon="9.9675482"><ele>233.0</ele><time>2026-04-26T16:11:21.781Z</time></trkpt><trkpt lat="44.6007458" lon="9.9677831"><ele>233.0</ele><time>2026-04-26T16:11:22.781Z</time></trkpt><trkpt lat="44.6009103" lon="9.9680215"><ele>233.0</ele><time>2026-04-26T16:11:23.781Z</time></trkpt><trkpt lat="44.601072" lon="9.9682625"><ele>234.5</ele><time>2026-04-26T16:11:24.781Z</time></trkpt><trkpt lat="44.6012395" lon="9.9685079"><ele>236.0</ele><time>2026-04-26T16:11:25.781Z</time></trkpt><trkpt lat="44.6014073" lon="9.9687572"><ele>236.0</ele><time>2026-04-26T16:11:26.781Z</time></trkpt><trkpt lat="44.6015755" lon="9.9690051"><ele>236.0</ele><time>2026-04-26T16:11:27.781Z</time></trkpt><trkpt lat="44.6017446" lon="9.9692537"><ele>236.0</ele><time>2026-04-26T16:11:28.781Z</time></trkpt><trkpt lat="44.6019132" lon="9.9694962"><ele>236.0</ele><time>2026-04-26T16:11:29.781Z</time></trkpt><trkpt lat="44.6020853" lon="9.9697443"><ele>236.0</ele><time>2026-04-26T16:11:30.782Z</time></trkpt><trkpt lat="44.6022614" lon="9.9699893"><ele>236.0</ele><time>2026-04-26T16:11:31.78Z</time></trkpt><trkpt lat="44.6024319" lon="9.9702427"><ele>234.0</ele><time>2026-04-26T16:11:32.78Z</time></trkpt><trkpt lat="44.6026162" lon="9.9705105"><ele>232.0</ele><time>2026-04-26T16:11:33.781Z</time></trkpt><trkpt lat="44.602814" lon="9.9707919"><ele>232.5</ele><time>2026-04-26T16:11:34.78Z</time></trkpt><trkpt lat="44.6030082" lon="9.9710826"><ele>233.0</ele><time>2026-04-26T16:11:35.781Z</time></trkpt><trkpt lat="44.6031973" lon="9.9713823"><ele>233.0</ele><time>2026-04-26T16:11:36.78Z</time></trkpt><trkpt lat="44.6033844" lon="9.9716717"><ele>233.0</ele><time>2026-04-26T16:11:37.781Z</time></trkpt><trkpt lat="44.6035712" lon="9.9719522"><ele>233.0</ele><time>2026-04-26T16:11:38.78Z</time></trkpt><trkpt lat="44.6037543" lon="9.9722191"><ele>233.0</ele><time>2026-04-26T16:11:39.78Z</time></trkpt><trkpt lat="44.6039374" lon="9.9724829"><ele>231.0</ele><time>2026-04-26T16:11:40.78Z</time></trkpt><trkpt lat="44.604117" lon="9.9727395"><ele>229.0</ele><time>2026-04-26T16:11:41.781Z</time></trkpt><trkpt lat="44.6042965" lon="9.9729941"><ele>229.0</ele><time>2026-04-26T16:11:42.78Z</time></trkpt><trkpt lat="44.60448" lon="9.973246"><ele>229.0</ele><time>2026-04-26T16:11:43.781Z</time></trkpt><trkpt lat="44.6046635" lon="9.9734893"><ele>231.0</ele><time>2026-04-26T16:11:44.78Z</time></trkpt><trkpt lat="44.6048444" lon="9.9737286"><ele>233.0</ele><time>2026-04-26T16:11:45.78Z</time></trkpt><trkpt lat="44.6050258" lon="9.973958"><ele>233.0</ele><time>2026-04-26T16:11:46.781Z</time></trkpt><trkpt lat="44.6052017" lon="9.9741872"><ele>233.0</ele><time>2026-04-26T16:11:47.781Z</time></trkpt><trkpt lat="44.6053737" lon="9.9744147"><ele>233.0</ele><time>2026-04-26T16:11:48.781Z</time></trkpt><trkpt lat="44.6055417" lon="9.9746321"><ele>233.0</ele><time>2026-04-26T16:11:49.78Z</time></trkpt><trkpt lat="44.6056945" lon="9.9748313"><ele>233.0</ele><time>2026-04-26T16:11:50.781Z</time></trkpt><trkpt lat="44.6058427" lon="9.9750236"><ele>232.66666666666669</ele><time>2026-04-26T16:11:51.78Z</time></trkpt><trkpt lat="44.6059879" lon="9.9752063"><ele>232.33333333333331</ele><time>2026-04-26T16:11:52.781Z</time></trkpt><trkpt lat="44.6061558" lon="9.9753807"><ele>232.0</ele><time>2026-04-26T16:11:53.78Z</time></trkpt><trkpt lat="44.606345" lon="9.9755434"><ele>232.0</ele><time>2026-04-26T16:11:54.782Z</time></trkpt><trkpt lat="44.6065475" lon="9.9756896"><ele>232.0</ele><time>2026-04-26T16:11:55.78Z</time></trkpt><trkpt lat="44.6067663" lon="9.9758144"><ele>230.0</ele><time>2026-04-26T16:11:56.781Z</time></trkpt><trkpt lat="44.6070002" lon="9.9759022"><ele>228.0</ele><time>2026-04-26T16:11:57.78Z</time></trkpt><trkpt lat="44.607237" lon="9.9759526"><ele>228.0</ele><time>2026-04-26T16:11:58.78Z</time></trkpt><trkpt lat="44.6074703" lon="9.9759711"><ele>228.0</ele><time>2026-04-26T16:11:59.78Z</time></trkpt><trkpt lat="44.6076844" lon="9.9759811"><ele>228.0</ele><time>2026-04-26T16:12:00.781Z</time></trkpt><trkpt lat="44.6078892" lon="9.9759917"><ele>229.66666666666669</ele><time>2026-04-26T16:12:01.78Z</time></trkpt><trkpt lat="44.6080811" lon="9.9760094"><ele>231.33333333333334</ele><time>2026-04-26T16:12:02.78Z</time></trkpt><trkpt lat="44.6082656" lon="9.9760403"><ele>233.0</ele><time>2026-04-26T16:12:03.781Z</time></trkpt><trkpt lat="44.6084477" lon="9.9760827"><ele>233.0</ele><time>2026-04-26T16:12:04.78Z</time></trkpt><trkpt lat="44.6086257" lon="9.9761358"><ele>233.0</ele><time>2026-04-26T16:12:05.781Z</time></trkpt><trkpt lat="44.608795" lon="9.9761866"><ele>233.0</ele><time>2026-04-26T16:12:06.78Z</time></trkpt><trkpt lat="44.6089545" lon="9.9762361"><ele>232.66666666666669</ele><time>2026-04-26T16:12:07.781Z</time></trkpt><trkpt lat="44.6091055" lon="9.9762806"><ele>232.33333333333331</ele><time>2026-04-26T16:12:08.78Z</time></trkpt><trkpt lat="44.6092606" lon="9.9763284"><ele>232.0</ele><time>2026-04-26T16:12:09.78Z</time></trkpt><trkpt lat="44.6094096" lon="9.9763825"><ele>233.0</ele><time>2026-04-26T16:12:10.78Z</time></trkpt><trkpt lat="44.6095613" lon="9.9764308"><ele>234.0</ele><time>2026-04-26T16:12:11.78Z</time></trkpt><trkpt lat="44.6097163" lon="9.9764848"><ele>235.0</ele><time>2026-04-26T16:12:12.78Z</time></trkpt><trkpt lat="44.609872" lon="9.9765337"><ele>235.0</ele><time>2026-04-26T16:12:13.78Z</time></trkpt><trkpt lat="44.6100316" lon="9.9765855"><ele>235.0</ele><time>2026-04-26T16:12:14.781Z</time></trkpt><trkpt lat="44.6101915" lon="9.9766371"><ele>235.0</ele><time>2026-04-26T16:12:15.78Z</time></trkpt><trkpt lat="44.6103499" lon="9.9766852"><ele>234.0</ele><time>2026-04-26T16:12:16.781Z</time></trkpt><trkpt lat="44.6105076" lon="9.9767284"><ele>233.0</ele><time>2026-04-26T16:12:17.78Z</time></trkpt><trkpt lat="44.6106621" lon="9.9767754"><ele>232.0</ele><time>2026-04-26T16:12:18.781Z</time></trkpt><trkpt lat="44.6108176" lon="9.9768231"><ele>232.0</ele><time>2026-04-26T16:12:19.78Z</time></trkpt><trkpt lat="44.6109663" lon="9.9768715"><ele>232.0</ele><time>2026-04-26T16:12:20.781Z</time></trkpt><trkpt lat="44.6111123" lon="9.9769153"><ele>232.0</ele><time>2026-04-26T16:12:21.78Z</time></trkpt><trkpt lat="44.6112542" lon="9.9769621"><ele>232.0</ele><time>2026-04-26T16:12:22.781Z</time></trkpt><trkpt lat="44.6113943" lon="9.9770055"><ele>232.5</ele><time>2026-04-26T16:12:23.78Z</time></trkpt><trkpt lat="44.61153" lon="9.9770543"><ele>233.0</ele><time>2026-04-26T16:12:24.781Z</time></trkpt><trkpt lat="44.6116645" lon="9.9770991"><ele>233.5</ele><time>2026-04-26T16:12:25.78Z</time></trkpt><trkpt lat="44.6117978" lon="9.9771423"><ele>234.0</ele><time>2026-04-26T16:12:26.781Z</time></trkpt><trkpt lat="44.6119329" lon="9.9771819"><ele>234.5</ele><time>2026-04-26T16:12:27.78Z</time></trkpt><trkpt lat="44.6120703" lon="9.9772225"><ele>235.0</ele><time>2026-04-26T16:12:28.781Z</time></trkpt><trkpt lat="44.6122068" lon="9.9772677"><ele>235.5</ele><time>2026-04-26T16:12:29.78Z</time></trkpt><trkpt lat="44.6123463" lon="9.9773111"><ele>236.0</ele><time>2026-04-26T16:12:30.781Z</time></trkpt><trkpt lat="44.6124897" lon="9.9773557"><ele>236.0</ele><time>2026-04-26T16:12:31.78Z</time></trkpt><trkpt lat="44.6126255" lon="9.9773982"><ele>236.0</ele><time>2026-04-26T16:12:32.78Z</time></trkpt><trkpt lat="44.6127596" lon="9.9774493"><ele>236.0</ele><time>2026-04-26T16:12:33.78Z</time></trkpt><trkpt lat="44.6129111" lon="9.9775087"><ele>236.0</ele><time>2026-04-26T16:12:34.781Z</time></trkpt><trkpt lat="44.6130503" lon="9.9775764"><ele>235.25</ele><time>2026-04-26T16:12:35.781Z</time></trkpt><trkpt lat="44.6131764" lon="9.9776505"><ele>234.5</ele><time>2026-04-26T16:12:36.78Z</time></trkpt><trkpt lat="44.6132957" lon="9.9777257"><ele>233.75</ele><time>2026-04-26T16:12:37.78Z</time></trkpt><trkpt lat="44.6134061" lon="9.9777959"><ele>233.0</ele><time>2026-04-26T16:12:38.78Z</time></trkpt><trkpt lat="44.613511" lon="9.977864"><ele>233.0</ele><time>2026-04-26T16:12:39.781Z</time></trkpt><trkpt lat="44.6136107" lon="9.977926"><ele>233.0</ele><time>2026-04-26T16:12:40.78Z</time></trkpt><trkpt lat="44.613709" lon="9.9779855"><ele>233.0</ele><time>2026-04-26T16:12:41.781Z</time></trkpt><trkpt lat="44.6138023" lon="9.9780432"><ele>233.0</ele><time>2026-04-26T16:12:42.78Z</time></trkpt><trkpt lat="44.613894" lon="9.9780965"><ele>233.0</ele><time>2026-04-26T16:12:43.781Z</time></trkpt><trkpt lat="44.613996" lon="9.9781577"><ele>233.5</ele><time>2026-04-26T16:12:44.78Z</time></trkpt><trkpt lat="44.6141107" lon="9.9782186"><ele>234.0</ele><time>2026-04-26T16:12:45.781Z</time></trkpt><trkpt lat="44.614228" lon="9.9782899"><ele>234.5</ele><time>2026-04-26T16:12:46.78Z</time></trkpt><trkpt lat="44.6143484" lon="9.9783562"><ele>235.0</ele><time>2026-04-26T16:12:47.78Z</time></trkpt><trkpt lat="44.6144695" lon="9.9784278"><ele>235.5</ele><time>2026-04-26T16:12:48.781Z</time></trkpt><trkpt lat="44.6145892" lon="9.9784981"><ele>236.0</ele><time>2026-04-26T16:12:49.78Z</time></trkpt><trkpt lat="44.61471" lon="9.9785641"><ele>236.5</ele><time>2026-04-26T16:12:50.781Z</time></trkpt><trkpt lat="44.6148301" lon="9.9786318"><ele>237.0</ele><time>2026-04-26T16:12:51.781Z</time></trkpt><trkpt lat="44.614948" lon="9.9787018"><ele>237.0</ele><time>2026-04-26T16:12:52.781Z</time></trkpt><trkpt lat="44.6150597" lon="9.9787853"><ele>237.0</ele><time>2026-04-26T16:12:53.78Z</time></trkpt><trkpt lat="44.6151653" lon="9.9789019"><ele>237.0</ele><time>2026-04-26T16:12:54.78Z</time></trkpt><trkpt lat="44.6152673" lon="9.9790547"><ele>237.0</ele><time>2026-04-26T16:12:55.78Z</time></trkpt><trkpt lat="44.6153718" lon="9.9792323"><ele>240.66666666666669</ele><time>2026-04-26T16:12:56.78Z</time></trkpt><trkpt lat="44.6154721" lon="9.979419"><ele>244.33333333333334</ele><time>2026-04-26T16:12:57.78Z</time></trkpt><trkpt lat="44.6155614" lon="9.9796053"><ele>248.0</ele><time>2026-04-26T16:12:58.781Z</time></trkpt><trkpt lat="44.6156401" lon="9.9797874"><ele>248.0</ele><time>2026-04-26T16:12:59.78Z</time></trkpt><trkpt lat="44.6157111" lon="9.9799603"><ele>248.0</ele><time>2026-04-26T16:13:00.781Z</time></trkpt><trkpt lat="44.6157804" lon="9.9801326"><ele>248.0</ele><time>2026-04-26T16:13:01.78Z</time></trkpt><trkpt lat="44.6158488" lon="9.9803069"><ele>248.0</ele><time>2026-04-26T16:13:02.781Z</time></trkpt><trkpt lat="44.6159199" lon="9.9804814"><ele>246.0</ele><time>2026-04-26T16:13:03.781Z</time></trkpt><trkpt lat="44.6159878" lon="9.9806543"><ele>244.0</ele><time>2026-04-26T16:13:04.78Z</time></trkpt><trkpt lat="44.6160561" lon="9.9808273"><ele>242.0</ele><time>2026-04-26T16:13:05.78Z</time></trkpt><trkpt lat="44.6161236" lon="9.9810009"><ele>240.0</ele><time>2026-04-26T16:13:06.78Z</time></trkpt><trkpt lat="44.6161852" lon="9.9811783"><ele>243.0</ele><time>2026-04-26T16:13:07.78Z</time></trkpt><trkpt lat="44.6162431" lon="9.9813551"><ele>246.0</ele><time>2026-04-26T16:13:08.78Z</time></trkpt><trkpt lat="44.6162929" lon="9.9815296"><ele>249.0</ele><time>2026-04-26T16:13:09.78Z</time></trkpt><trkpt lat="44.6163314" lon="9.9817097"><ele>252.0</ele><time>2026-04-26T16:13:10.781Z</time></trkpt><trkpt lat="44.6163651" lon="9.981887"><ele>252.0</ele><time>2026-04-26T16:13:11.78Z</time></trkpt><trkpt lat="44.6164045" lon="9.9820646"><ele>252.0</ele><time>2026-04-26T16:13:12.78Z</time></trkpt><trkpt lat="44.6164442" lon="9.9822365"><ele>252.0</ele><time>2026-04-26T16:13:13.781Z</time></trkpt><trkpt lat="44.6164801" lon="9.9824141"><ele>252.0</ele><time>2026-04-26T16:13:14.78Z</time></trkpt><trkpt lat="44.6165154" lon="9.9825949"><ele>251.5</ele><time>2026-04-26T16:13:15.781Z</time></trkpt><trkpt lat="44.6165398" lon="9.9827823"><ele>251.0</ele><time>2026-04-26T16:13:16.78Z</time></trkpt><trkpt lat="44.6165374" lon="9.9829794"><ele>250.5</ele><time>2026-04-26T16:13:17.78Z</time></trkpt><trkpt lat="44.6165038" lon="9.9831836"><ele>250.0</ele><time>2026-04-26T16:13:18.78Z</time></trkpt><trkpt lat="44.6164621" lon="9.9833972"><ele>252.66666666666666</ele><time>2026-04-26T16:13:19.78Z</time></trkpt><trkpt lat="44.6164317" lon="9.9836248"><ele>255.33333333333331</ele><time>2026-04-26T16:13:20.78Z</time></trkpt><trkpt lat="44.616417" lon="9.9838571"><ele>258.0</ele><time>2026-04-26T16:13:21.78Z</time></trkpt><trkpt lat="44.6164192" lon="9.9840934"><ele>258.6666666666667</ele><time>2026-04-26T16:13:22.781Z</time></trkpt><trkpt lat="44.6164242" lon="9.9843327"><ele>259.33333333333337</ele><time>2026-04-26T16:13:23.78Z</time></trkpt><trkpt lat="44.616431" lon="9.9845711"><ele>260.0</ele><time>2026-04-26T16:13:24.78Z</time></trkpt><trkpt lat="44.6164231" lon="9.9847957"><ele>260.0</ele><time>2026-04-26T16:13:25.78Z</time></trkpt><trkpt lat="44.6163924" lon="9.9850064"><ele>260.0</ele><time>2026-04-26T16:13:26.781Z</time></trkpt><trkpt lat="44.6163342" lon="9.9851897"><ele>260.0</ele><time>2026-04-26T16:13:27.78Z</time></trkpt><trkpt lat="44.6162531" lon="9.9853466"><ele>260.0</ele><time>2026-04-26T16:13:28.78Z</time></trkpt><trkpt lat="44.6161372" lon="9.9854786"><ele>248.0</ele><time>2026-04-26T16:13:29.78Z</time></trkpt><trkpt lat="44.6159962" lon="9.9855901"><ele>236.0</ele><time>2026-04-26T16:13:30.78Z</time></trkpt><trkpt lat="44.6158449" lon="9.9857058"><ele>224.0</ele><time>2026-04-26T16:13:31.781Z</time></trkpt><trkpt lat="44.6156851" lon="9.9858304"><ele>224.33333333333334</ele><time>2026-04-26T16:13:32.782Z</time></trkpt><trkpt lat="44.6155219" lon="9.9859563"><ele>224.66666666666669</ele><time>2026-04-26T16:13:33.781Z</time></trkpt><trkpt lat="44.6153598" lon="9.9860829"><ele>225.0</ele><time>2026-04-26T16:13:34.78Z</time></trkpt><trkpt lat="44.6151997" lon="9.9862071"><ele>223.66666666666669</ele><time>2026-04-26T16:13:35.781Z</time></trkpt><trkpt lat="44.6150398" lon="9.9863343"><ele>222.33333333333334</ele><time>2026-04-26T16:13:36.78Z</time></trkpt><trkpt lat="44.6148891" lon="9.9864505"><ele>221.0</ele><time>2026-04-26T16:13:37.78Z</time></trkpt><trkpt lat="44.6147377" lon="9.9865703"><ele>221.33333333333334</ele><time>2026-04-26T16:13:38.78Z</time></trkpt><trkpt lat="44.6145877" lon="9.9866915"><ele>221.66666666666669</ele><time>2026-04-26T16:13:39.781Z</time></trkpt><trkpt lat="44.6144417" lon="9.9868089"><ele>222.0</ele><time>2026-04-26T16:13:40.78Z</time></trkpt><trkpt lat="44.6143008" lon="9.9869218"><ele>223.0</ele><time>2026-04-26T16:13:41.78Z</time></trkpt><trkpt lat="44.6141669" lon="9.9870296"><ele>224.0</ele><time>2026-04-26T16:13:42.782Z</time></trkpt><trkpt lat="44.614039" lon="9.9871321"><ele>225.0</ele><time>2026-04-26T16:13:43.78Z</time></trkpt><trkpt lat="44.6139127" lon="9.9872322"><ele>226.0</ele><time>2026-04-26T16:13:44.78Z</time></trkpt><trkpt lat="44.6137904" lon="9.9873257"><ele>226.0</ele><time>2026-04-26T16:13:45.781Z</time></trkpt><trkpt lat="44.613678" lon="9.9874153"><ele>226.0</ele><time>2026-04-26T16:13:46.781Z</time></trkpt><trkpt lat="44.6135826" lon="9.9875111"><ele>226.0</ele><time>2026-04-26T16:13:47.781Z</time></trkpt><trkpt lat="44.6135131" lon="9.987627"><ele>226.0</ele><time>2026-04-26T16:13:48.78Z</time></trkpt><trkpt lat="44.6134662" lon="9.9877655"><ele>228.75</ele><time>2026-04-26T16:13:49.78Z</time></trkpt><trkpt lat="44.6134633" lon="9.9879183"><ele>231.5</ele><time>2026-04-26T16:13:50.781Z</time></trkpt><trkpt lat="44.6134648" lon="9.988069"><ele>234.25</ele><time>2026-04-26T16:13:51.78Z</time></trkpt><trkpt lat="44.6134732" lon="9.988232"><ele>237.0</ele><time>2026-04-26T16:13:52.78Z</time></trkpt><trkpt lat="44.613657" lon="9.9883621"><ele>237.0</ele><time>2026-04-26T16:13:53.781Z</time></trkpt><trkpt lat="44.6137267" lon="9.9885141"><ele>237.0</ele><time>2026-04-26T16:13:54.78Z</time></trkpt><trkpt lat="44.6137947" lon="9.9887051"><ele>237.0</ele><time>2026-04-26T16:13:55.78Z</time></trkpt><trkpt lat="44.6138321" lon="9.9889169"><ele>237.0</ele><time>2026-04-26T16:13:56.78Z</time></trkpt><trkpt lat="44.6138644" lon="9.9891402"><ele>239.0</ele><time>2026-04-26T16:13:57.781Z</time></trkpt><trkpt lat="44.6138932" lon="9.9893653"><ele>241.0</ele><time>2026-04-26T16:13:58.781Z</time></trkpt><trkpt lat="44.6139211" lon="9.9895868"><ele>243.0</ele><time>2026-04-26T16:13:59.78Z</time></trkpt><trkpt lat="44.6139524" lon="9.9898129"><ele>246.66666666666669</ele><time>2026-04-26T16:14:00.781Z</time></trkpt><trkpt lat="44.6139913" lon="9.9900372"><ele>250.33333333333334</ele><time>2026-04-26T16:14:01.78Z</time></trkpt><trkpt lat="44.6140324" lon="9.9902564"><ele>254.0</ele><time>2026-04-26T16:14:02.781Z</time></trkpt><trkpt lat="44.6140693" lon="9.9904692"><ele>254.0</ele><time>2026-04-26T16:14:03.78Z</time></trkpt><trkpt lat="44.6141054" lon="9.9906822"><ele>254.0</ele><time>2026-04-26T16:14:04.78Z</time></trkpt><trkpt lat="44.6141387" lon="9.9908992"><ele>254.0</ele><time>2026-04-26T16:14:05.78Z</time></trkpt><trkpt lat="44.614167" lon="9.9911203"><ele>256.0</ele><time>2026-04-26T16:14:06.78Z</time></trkpt><trkpt lat="44.6141955" lon="9.9913393"><ele>258.0</ele><time>2026-04-26T16:14:07.78Z</time></trkpt><trkpt lat="44.6142241" lon="9.991559"><ele>260.0</ele><time>2026-04-26T16:14:08.781Z</time></trkpt><trkpt lat="44.6142535" lon="9.9917814"><ele>261.33333333333337</ele><time>2026-04-26T16:14:09.78Z</time></trkpt><trkpt lat="44.6142876" lon="9.9919986"><ele>262.6666666666667</ele><time>2026-04-26T16:14:10.781Z</time></trkpt><trkpt lat="44.6143204" lon="9.9922163"><ele>264.0</ele><time>2026-04-26T16:14:11.781Z</time></trkpt><trkpt lat="44.614358" lon="9.9924336"><ele>266.3333333333333</ele><time>2026-04-26T16:14:12.781Z</time></trkpt><trkpt lat="44.6143958" lon="9.9926567"><ele>268.66666666666663</ele><time>2026-04-26T16:14:13.781Z</time></trkpt><trkpt lat="44.6144348" lon="9.9928797"><ele>271.0</ele><time>2026-04-26T16:14:14.781Z</time></trkpt><trkpt lat="44.6144742" lon="9.9931065"><ele>269.0</ele><time>2026-04-26T16:14:15.78Z</time></trkpt><trkpt lat="44.6145185" lon="9.9933338"><ele>267.0</ele><time>2026-04-26T16:14:16.781Z</time></trkpt><trkpt lat="44.614565" lon="9.9935612"><ele>265.0</ele><time>2026-04-26T16:14:17.78Z</time></trkpt><trkpt lat="44.6146231" lon="9.9937837"><ele>265.0</ele><time>2026-04-26T16:14:18.78Z</time></trkpt><trkpt lat="44.6147066" lon="9.9940043"><ele>265.0</ele><time>2026-04-26T16:14:19.78Z</time></trkpt><trkpt lat="44.6147883" lon="9.9942179"><ele>265.0</ele><time>2026-04-26T16:14:20.78Z</time></trkpt><trkpt lat="44.6148751" lon="9.9944329"><ele>270.0</ele><time>2026-04-26T16:14:21.781Z</time></trkpt><trkpt lat="44.6149644" lon="9.9946541"><ele>275.0</ele><time>2026-04-26T16:14:22.78Z</time></trkpt><trkpt lat="44.6150476" lon="9.9948714"><ele>280.0</ele><time>2026-04-26T16:14:23.781Z</time></trkpt><trkpt lat="44.6151226" lon="9.995091"><ele>283.0</ele><time>2026-04-26T16:14:24.78Z</time></trkpt><trkpt lat="44.6151938" lon="9.9953171"><ele>286.0</ele><time>2026-04-26T16:14:25.782Z</time></trkpt><trkpt lat="44.6152557" lon="9.9955424"><ele>289.0</ele><time>2026-04-26T16:14:26.78Z</time></trkpt><trkpt lat="44.6153174" lon="9.9957689"><ele>284.0</ele><time>2026-04-26T16:14:27.781Z</time></trkpt><trkpt lat="44.6153862" lon="9.9959933"><ele>279.0</ele><time>2026-04-26T16:14:28.78Z</time></trkpt><trkpt lat="44.6154677" lon="9.9962113"><ele>274.0</ele><time>2026-04-26T16:14:29.781Z</time></trkpt><trkpt lat="44.6155612" lon="9.9964183"><ele>274.0</ele><time>2026-04-26T16:14:30.781Z</time></trkpt><trkpt lat="44.6156479" lon="9.9966264"><ele>274.0</ele><time>2026-04-26T16:14:31.78Z</time></trkpt><trkpt lat="44.6157198" lon="9.996849"><ele>274.0</ele><time>2026-04-26T16:14:32.78Z</time></trkpt><trkpt lat="44.6157807" lon="9.9970808"><ele>277.0</ele><time>2026-04-26T16:14:33.781Z</time></trkpt><trkpt lat="44.6158462" lon="9.9973063"><ele>280.0</ele><time>2026-04-26T16:14:34.78Z</time></trkpt><trkpt lat="44.6159318" lon="9.9975166"><ele>283.0</ele><time>2026-04-26T16:14:35.78Z</time></trkpt><trkpt lat="44.6160346" lon="9.9977077"><ele>283.3333333333333</ele><time>2026-04-26T16:14:36.781Z</time></trkpt><trkpt lat="44.6161591" lon="9.9978812"><ele>283.6666666666667</ele><time>2026-04-26T16:14:37.78Z</time></trkpt><trkpt lat="44.6163078" lon="9.9980289"><ele>284.0</ele><time>2026-04-26T16:14:38.781Z</time></trkpt><trkpt lat="44.6164634" lon="9.9981437"><ele>284.0</ele><time>2026-04-26T16:14:39.78Z</time></trkpt><trkpt lat="44.6166275" lon="9.9982242"><ele>284.0</ele><time>2026-04-26T16:14:40.78Z</time></trkpt><trkpt lat="44.6167953" lon="9.9982835"><ele>284.0</ele><time>2026-04-26T16:14:41.78Z</time></trkpt><trkpt lat="44.6169646" lon="9.9983468"><ele>288.33333333333337</ele><time>2026-04-26T16:14:42.781Z</time></trkpt><trkpt lat="44.6171261" lon="9.9984279"><ele>292.6666666666667</ele><time>2026-04-26T16:14:43.781Z</time></trkpt><trkpt lat="44.6172858" lon="9.9985344"><ele>297.0</ele><time>2026-04-26T16:14:44.78Z</time></trkpt><trkpt lat="44.6174399" lon="9.9986517"><ele>297.0</ele><time>2026-04-26T16:14:45.78Z</time></trkpt><trkpt lat="44.6175912" lon="9.9987756"><ele>297.0</ele><time>2026-04-26T16:14:46.781Z</time></trkpt><trkpt lat="44.6177374" lon="9.998916"><ele>297.0</ele><time>2026-04-26T16:14:47.781Z</time></trkpt><trkpt lat="44.6178707" lon="9.9990787"><ele>293.6666666666667</ele><time>2026-04-26T16:14:48.78Z</time></trkpt><trkpt lat="44.6179948" lon="9.9992446"><ele>290.33333333333337</ele><time>2026-04-26T16:14:49.781Z</time></trkpt><trkpt lat="44.6181124" lon="9.9994066"><ele>287.0</ele><time>2026-04-26T16:14:50.78Z</time></trkpt><trkpt lat="44.6182451" lon="9.999533"><ele>287.0</ele><time>2026-04-26T16:14:51.781Z</time></trkpt><trkpt lat="44.618398" lon="9.9996377"><ele>287.0</ele><time>2026-04-26T16:14:52.78Z</time></trkpt><trkpt lat="44.6185619" lon="9.999708"><ele>287.0</ele><time>2026-04-26T16:14:53.78Z</time></trkpt><trkpt lat="44.6187214" lon="9.9997694"><ele>279.6666666666667</ele><time>2026-04-26T16:14:54.78Z</time></trkpt><trkpt lat="44.6188705" lon="9.9998497"><ele>272.3333333333333</ele><time>2026-04-26T16:14:55.781Z</time></trkpt><trkpt lat="44.6190177" lon="9.9999657"><ele>265.0</ele><time>2026-04-26T16:14:56.78Z</time></trkpt><trkpt lat="44.6191595" lon="10.0001142"><ele>265.0</ele><time>2026-04-26T16:14:57.78Z</time></trkpt><trkpt lat="44.6192864" lon="10.0002749"><ele>265.0</ele><time>2026-04-26T16:14:58.78Z</time></trkpt><trkpt lat="44.6193985" lon="10.0004432"><ele>265.0</ele><time>2026-04-26T16:14:59.781Z</time></trkpt><trkpt lat="44.6194921" lon="10.0006104"><ele>261.25</ele><time>2026-04-26T16:15:00.78Z</time></trkpt><trkpt lat="44.6195693" lon="10.0007869"><ele>257.5</ele><time>2026-04-26T16:15:01.78Z</time></trkpt><trkpt lat="44.6196306" lon="10.0009678"><ele>253.75</ele><time>2026-04-26T16:15:02.78Z</time></trkpt><trkpt lat="44.6197064" lon="10.0011401"><ele>250.0</ele><time>2026-04-26T16:15:03.781Z</time></trkpt><trkpt lat="44.6198212" lon="10.0012802"><ele>250.0</ele><time>2026-04-26T16:15:04.78Z</time></trkpt><trkpt lat="44.6199622" lon="10.0013812"><ele>250.0</ele><time>2026-04-26T16:15:05.78Z</time></trkpt><trkpt lat="44.6200914" lon="10.0014671"><ele>250.0</ele><time>2026-04-26T16:15:06.782Z</time></trkpt><trkpt lat="44.6202156" lon="10.0015496"><ele>250.0</ele><time>2026-04-26T16:15:07.78Z</time></trkpt><trkpt lat="44.620339" lon="10.0016306"><ele>251.25</ele><time>2026-04-26T16:15:08.78Z</time></trkpt><trkpt lat="44.6204624" lon="10.0017139"><ele>252.5</ele><time>2026-04-26T16:15:09.78Z</time></trkpt><trkpt lat="44.6205953" lon="10.0017786"><ele>253.75</ele><time>2026-04-26T16:15:10.781Z</time></trkpt><trkpt lat="44.6207239" lon="10.0018139"><ele>255.0</ele><time>2026-04-26T16:15:11.781Z</time></trkpt><trkpt lat="44.6208495" lon="10.0018341"><ele>255.0</ele><time>2026-04-26T16:15:12.78Z</time></trkpt><trkpt lat="44.6209679" lon="10.0018913"><ele>255.0</ele><time>2026-04-26T16:15:13.78Z</time></trkpt><trkpt lat="44.6210782" lon="10.0020006"><ele>255.0</ele><time>2026-04-26T16:15:14.78Z</time></trkpt><trkpt lat="44.6211642" lon="10.0021583"><ele>255.0</ele><time>2026-04-26T16:15:15.781Z</time></trkpt><trkpt lat="44.6212455" lon="10.0023102"><ele>254.75</ele><time>2026-04-26T16:15:16.78Z</time></trkpt><trkpt lat="44.6213398" lon="10.0024508"><ele>254.5</ele><time>2026-04-26T16:15:17.78Z</time></trkpt><trkpt lat="44.6214497" lon="10.0025761"><ele>254.25</ele><time>2026-04-26T16:15:18.78Z</time></trkpt><trkpt lat="44.6215738" lon="10.0026894"><ele>254.0</ele><time>2026-04-26T16:15:19.781Z</time></trkpt><trkpt lat="44.6216941" lon="10.0027931"><ele>254.0</ele><time>2026-04-26T16:15:20.781Z</time></trkpt><trkpt lat="44.6218174" lon="10.0028839"><ele>254.0</ele><time>2026-04-26T16:15:21.78Z</time></trkpt><trkpt lat="44.6219366" lon="10.0029734"><ele>254.0</ele><time>2026-04-26T16:15:22.78Z</time></trkpt><trkpt lat="44.6220545" lon="10.0030615"><ele>254.0</ele><time>2026-04-26T16:15:23.78Z</time></trkpt><trkpt lat="44.6221493" lon="10.0031747"><ele>253.0</ele><time>2026-04-26T16:15:24.78Z</time></trkpt><trkpt lat="44.6222183" lon="10.0033245"><ele>252.0</ele><time>2026-04-26T16:15:25.781Z</time></trkpt><trkpt lat="44.6222639" lon="10.0035282"><ele>251.0</ele><time>2026-04-26T16:15:26.781Z</time></trkpt><trkpt lat="44.622307" lon="10.0037443"><ele>250.0</ele><time>2026-04-26T16:15:27.78Z</time></trkpt><trkpt lat="44.6223681" lon="10.0039598"><ele>250.33333333333331</ele><time>2026-04-26T16:15:28.78Z</time></trkpt><trkpt lat="44.6224412" lon="10.0041665"><ele>250.66666666666669</ele><time>2026-04-26T16:15:29.78Z</time></trkpt><trkpt lat="44.6225218" lon="10.0043637"><ele>251.0</ele><time>2026-04-26T16:15:30.781Z</time></trkpt><trkpt lat="44.6226034" lon="10.0045539"><ele>251.0</ele><time>2026-04-26T16:15:31.782Z</time></trkpt><trkpt lat="44.6226847" lon="10.0047429"><ele>251.0</ele><time>2026-04-26T16:15:32.78Z</time></trkpt><trkpt lat="44.6227665" lon="10.0049321"><ele>251.0</ele><time>2026-04-26T16:15:33.78Z</time></trkpt><trkpt lat="44.6228498" lon="10.0051322"><ele>247.0</ele><time>2026-04-26T16:15:34.78Z</time></trkpt><trkpt lat="44.6229394" lon="10.0053388"><ele>243.0</ele><time>2026-04-26T16:15:35.781Z</time></trkpt><trkpt lat="44.6230333" lon="10.0055497"><ele>239.0</ele><time>2026-04-26T16:15:36.78Z</time></trkpt><trkpt lat="44.6231269" lon="10.0057575"><ele>239.0</ele><time>2026-04-26T16:15:37.78Z</time></trkpt><trkpt lat="44.6232213" lon="10.0059625"><ele>239.0</ele><time>2026-04-26T16:15:38.78Z</time></trkpt><trkpt lat="44.6233151" lon="10.0061711"><ele>239.0</ele><time>2026-04-26T16:15:39.781Z</time></trkpt><trkpt lat="44.6234146" lon="10.0063802"><ele>239.0</ele><time>2026-04-26T16:15:40.781Z</time></trkpt><trkpt lat="44.623527" lon="10.0065839"><ele>239.0</ele><time>2026-04-26T16:15:41.78Z</time></trkpt><trkpt lat="44.6236632" lon="10.0067708"><ele>239.0</ele><time>2026-04-26T16:15:42.78Z</time></trkpt><trkpt lat="44.6238139" lon="10.0069404"><ele>236.66666666666669</ele><time>2026-04-26T16:15:43.781Z</time></trkpt><trkpt lat="44.6239784" lon="10.0071054"><ele>234.33333333333331</ele><time>2026-04-26T16:15:44.781Z</time></trkpt><trkpt lat="44.6241463" lon="10.0072695"><ele>232.0</ele><time>2026-04-26T16:15:45.78Z</time></trkpt><trkpt lat="44.6243161" lon="10.0074346"><ele>231.33333333333331</ele><time>2026-04-26T16:15:46.78Z</time></trkpt><trkpt lat="44.6244783" lon="10.0075929"><ele>230.66666666666669</ele><time>2026-04-26T16:15:47.782Z</time></trkpt><trkpt lat="44.6246394" lon="10.0077494"><ele>230.0</ele><time>2026-04-26T16:15:48.78Z</time></trkpt><trkpt lat="44.6247987" lon="10.0079085"><ele>230.0</ele><time>2026-04-26T16:15:49.78Z</time></trkpt><trkpt lat="44.6249584" lon="10.0080686"><ele>230.0</ele><time>2026-04-26T16:15:50.78Z</time></trkpt><trkpt lat="44.6251168" lon="10.0082246"><ele>230.0</ele><time>2026-04-26T16:15:51.78Z</time></trkpt><trkpt lat="44.625275" lon="10.0083795"><ele>227.66666666666669</ele><time>2026-04-26T16:15:52.781Z</time></trkpt><trkpt lat="44.6254288" lon="10.0085299"><ele>225.33333333333331</ele><time>2026-04-26T16:15:53.78Z</time></trkpt><trkpt lat="44.6255796" lon="10.0086749"><ele>223.0</ele><time>2026-04-26T16:15:54.78Z</time></trkpt><trkpt lat="44.6257255" lon="10.0088176"><ele>223.0</ele><time>2026-04-26T16:15:55.78Z</time></trkpt><trkpt lat="44.625866" lon="10.0089721"><ele>223.0</ele><time>2026-04-26T16:15:56.781Z</time></trkpt><trkpt lat="44.626001" lon="10.0091481"><ele>223.0</ele><time>2026-04-26T16:15:57.78Z</time></trkpt><trkpt lat="44.6261323" lon="10.0093426"><ele>221.33333333333331</ele><time>2026-04-26T16:15:58.781Z</time></trkpt><trkpt lat="44.6262582" lon="10.0095507"><ele>219.66666666666669</ele><time>2026-04-26T16:15:59.78Z</time></trkpt><trkpt lat="44.6263835" lon="10.0097644"><ele>218.0</ele><time>2026-04-26T16:16:00.78Z</time></trkpt><trkpt lat="44.6265058" lon="10.0099878"><ele>218.33333333333334</ele><time>2026-04-26T16:16:01.78Z</time></trkpt><trkpt lat="44.6266209" lon="10.0102138"><ele>218.66666666666669</ele><time>2026-04-26T16:16:02.781Z</time></trkpt><trkpt lat="44.6267324" lon="10.0104493"><ele>219.0</ele><time>2026-04-26T16:16:03.78Z</time></trkpt><trkpt lat="44.626849" lon="10.010686"><ele>218.0</ele><time>2026-04-26T16:16:04.78Z</time></trkpt><trkpt lat="44.6269696" lon="10.0109191"><ele>217.0</ele><time>2026-04-26T16:16:05.781Z</time></trkpt><trkpt lat="44.627093" lon="10.011137"><ele>216.0</ele><time>2026-04-26T16:16:06.78Z</time></trkpt><trkpt lat="44.6272161" lon="10.0113427"><ele>216.0</ele><time>2026-04-26T16:16:07.781Z</time></trkpt><trkpt lat="44.6273408" lon="10.0115339"><ele>216.0</ele><time>2026-04-26T16:16:08.78Z</time></trkpt><trkpt lat="44.6274609" lon="10.0117144"><ele>216.0</ele><time>2026-04-26T16:16:09.781Z</time></trkpt><trkpt lat="44.6275744" lon="10.0118873"><ele>218.66666666666669</ele><time>2026-04-26T16:16:10.78Z</time></trkpt><trkpt lat="44.6276877" lon="10.012056"><ele>221.33333333333334</ele><time>2026-04-26T16:16:11.781Z</time></trkpt><trkpt lat="44.6277989" lon="10.0122196"><ele>224.0</ele><time>2026-04-26T16:16:12.78Z</time></trkpt><trkpt lat="44.6279047" lon="10.0123847"><ele>222.75</ele><time>2026-04-26T16:16:13.78Z</time></trkpt><trkpt lat="44.6280064" lon="10.0125365"><ele>221.5</ele><time>2026-04-26T16:16:14.781Z</time></trkpt><trkpt lat="44.6281049" lon="10.0126848"><ele>220.25</ele><time>2026-04-26T16:16:15.78Z</time></trkpt><trkpt lat="44.6282024" lon="10.0128263"><ele>219.0</ele><time>2026-04-26T16:16:16.781Z</time></trkpt><trkpt lat="44.6283101" lon="10.0129453"><ele>219.0</ele><time>2026-04-26T16:16:17.78Z</time></trkpt><trkpt lat="44.6284596" lon="10.0130387"><ele>219.0</ele><time>2026-04-26T16:16:18.78Z</time></trkpt><trkpt lat="44.6286143" lon="10.0130987"><ele>219.0</ele><time>2026-04-26T16:16:19.781Z</time></trkpt><trkpt lat="44.6287469" lon="10.0131622"><ele>218.25</ele><time>2026-04-26T16:16:20.78Z</time></trkpt><trkpt lat="44.6288655" lon="10.0132383"><ele>217.5</ele><time>2026-04-26T16:16:21.78Z</time></trkpt><trkpt lat="44.6289637" lon="10.0133521"><ele>216.75</ele><time>2026-04-26T16:16:22.781Z</time></trkpt><trkpt lat="44.6290381" lon="10.0135102"><ele>216.0</ele><time>2026-04-26T16:16:23.781Z</time></trkpt><trkpt lat="44.6290721" lon="10.0137039"><ele>216.0</ele><time>2026-04-26T16:16:24.78Z</time></trkpt><trkpt lat="44.6290648" lon="10.0139208"><ele>216.0</ele><time>2026-04-26T16:16:25.78Z</time></trkpt><trkpt lat="44.6290464" lon="10.0141532"><ele>216.0</ele><time>2026-04-26T16:16:26.781Z</time></trkpt><trkpt lat="44.6290265" lon="10.0143869"><ele>215.0</ele><time>2026-04-26T16:16:27.781Z</time></trkpt><trkpt lat="44.6290059" lon="10.0146303"><ele>214.0</ele><time>2026-04-26T16:16:28.78Z</time></trkpt><trkpt lat="44.6289849" lon="10.0148661"><ele>213.0</ele><time>2026-04-26T16:16:29.78Z</time></trkpt><trkpt lat="44.628962" lon="10.0151054"><ele>213.0</ele><time>2026-04-26T16:16:30.781Z</time></trkpt><trkpt lat="44.6289394" lon="10.0153516"><ele>213.0</ele><time>2026-04-26T16:16:31.78Z</time></trkpt><trkpt lat="44.6289175" lon="10.0156"><ele>213.0</ele><time>2026-04-26T16:16:32.78Z</time></trkpt><trkpt lat="44.6288925" lon="10.0158517"><ele>212.33333333333331</ele><time>2026-04-26T16:16:33.78Z</time></trkpt><trkpt lat="44.628867" lon="10.01611"><ele>211.66666666666666</ele><time>2026-04-26T16:16:34.78Z</time></trkpt><trkpt lat="44.6288408" lon="10.016368"><ele>211.0</ele><time>2026-04-26T16:16:35.781Z</time></trkpt><trkpt lat="44.6288162" lon="10.0166323"><ele>210.33333333333331</ele><time>2026-04-26T16:16:36.78Z</time></trkpt><trkpt lat="44.6287911" lon="10.0168994"><ele>209.66666666666669</ele><time>2026-04-26T16:16:37.78Z</time></trkpt><trkpt lat="44.6287638" lon="10.017164"><ele>209.0</ele><time>2026-04-26T16:16:38.781Z</time></trkpt><trkpt lat="44.6287372" lon="10.0174308"><ele>208.66666666666669</ele><time>2026-04-26T16:16:39.78Z</time></trkpt><trkpt lat="44.6287106" lon="10.0176961"><ele>208.33333333333331</ele><time>2026-04-26T16:16:40.781Z</time></trkpt><trkpt lat="44.6286864" lon="10.0179555"><ele>208.0</ele><time>2026-04-26T16:16:41.78Z</time></trkpt><trkpt lat="44.6286671" lon="10.0182137"><ele>207.66666666666666</ele><time>2026-04-26T16:16:42.782Z</time></trkpt><trkpt lat="44.6286546" lon="10.0184691"><ele>207.33333333333331</ele><time>2026-04-26T16:16:43.781Z</time></trkpt><trkpt lat="44.6286539" lon="10.0187224"><ele>207.0</ele><time>2026-04-26T16:16:44.781Z</time></trkpt><trkpt lat="44.6286717" lon="10.0189724"><ele>205.66666666666669</ele><time>2026-04-26T16:16:45.78Z</time></trkpt><trkpt lat="44.628703" lon="10.0192272"><ele>204.33333333333334</ele><time>2026-04-26T16:16:46.781Z</time></trkpt><trkpt lat="44.6287439" lon="10.0194917"><ele>203.0</ele><time>2026-04-26T16:16:47.78Z</time></trkpt><trkpt lat="44.6287914" lon="10.0197553"><ele>202.66666666666669</ele><time>2026-04-26T16:16:48.781Z</time></trkpt><trkpt lat="44.6288401" lon="10.0200204"><ele>202.33333333333331</ele><time>2026-04-26T16:16:49.78Z</time></trkpt><trkpt lat="44.6288856" lon="10.0202815"><ele>202.0</ele><time>2026-04-26T16:16:50.78Z</time></trkpt><trkpt lat="44.6289344" lon="10.0205347"><ele>202.0</ele><time>2026-04-26T16:16:51.78Z</time></trkpt><trkpt lat="44.6290027" lon="10.0207709"><ele>202.0</ele><time>2026-04-26T16:16:52.78Z</time></trkpt><trkpt lat="44.6290896" lon="10.0209841"><ele>202.0</ele><time>2026-04-26T16:16:53.78Z</time></trkpt><trkpt lat="44.6291877" lon="10.0211926"><ele>203.33333333333331</ele><time>2026-04-26T16:16:54.78Z</time></trkpt><trkpt lat="44.629282" lon="10.0213752"><ele>204.66666666666669</ele><time>2026-04-26T16:16:55.782Z</time></trkpt><trkpt lat="44.6293693" lon="10.0215754"><ele>206.0</ele><time>2026-04-26T16:16:56.781Z</time></trkpt><trkpt lat="44.6294462" lon="10.0217833"><ele>202.66666666666669</ele><time>2026-04-26T16:16:57.781Z</time></trkpt><trkpt lat="44.6295165" lon="10.0219755"><ele>199.33333333333331</ele><time>2026-04-26T16:16:58.78Z</time></trkpt><trkpt lat="44.62958" lon="10.0221608"><ele>196.0</ele><time>2026-04-26T16:16:59.781Z</time></trkpt><trkpt lat="44.6296486" lon="10.0223655"><ele>198.25</ele><time>2026-04-26T16:17:00.78Z</time></trkpt><trkpt lat="44.6297158" lon="10.0225072"><ele>200.5</ele><time>2026-04-26T16:17:01.78Z</time></trkpt><trkpt lat="44.6297911" lon="10.0226359"><ele>202.75</ele><time>2026-04-26T16:17:02.78Z</time></trkpt><trkpt lat="44.6298667" lon="10.0227441"><ele>205.0</ele><time>2026-04-26T16:17:03.781Z</time></trkpt><trkpt lat="44.6299232" lon="10.0228667"><ele>205.0</ele><time>2026-04-26T16:17:04.781Z</time></trkpt><trkpt lat="44.6299469" lon="10.0230323"><ele>205.0</ele><time>2026-04-26T16:17:05.781Z</time></trkpt><trkpt lat="44.6299916" lon="10.023208"><ele>205.0</ele><time>2026-04-26T16:17:06.78Z</time></trkpt><trkpt lat="44.6300519" lon="10.0233918"><ele>205.0</ele><time>2026-04-26T16:17:07.78Z</time></trkpt><trkpt lat="44.6301289" lon="10.0235611"><ele>203.5</ele><time>2026-04-26T16:17:08.781Z</time></trkpt><trkpt lat="44.6302224" lon="10.0237078"><ele>202.0</ele><time>2026-04-26T16:17:09.78Z</time></trkpt><trkpt lat="44.630319" lon="10.0238516"><ele>200.5</ele><time>2026-04-26T16:17:10.781Z</time></trkpt><trkpt lat="44.6304215" lon="10.0239908"><ele>199.0</ele><time>2026-04-26T16:17:11.781Z</time></trkpt><trkpt lat="44.6305292" lon="10.0241296"><ele>201.25</ele><time>2026-04-26T16:17:12.78Z</time></trkpt><trkpt lat="44.630631" lon="10.0242681"><ele>203.5</ele><time>2026-04-26T16:17:13.78Z</time></trkpt><trkpt lat="44.6307314" lon="10.0244002"><ele>205.75</ele><time>2026-04-26T16:17:14.78Z</time></trkpt><trkpt lat="44.6308367" lon="10.0245325"><ele>208.0</ele><time>2026-04-26T16:17:15.78Z</time></trkpt><trkpt lat="44.63094" lon="10.024669"><ele>208.0</ele><time>2026-04-26T16:17:16.78Z</time></trkpt><trkpt lat="44.6310402" lon="10.0248111"><ele>208.0</ele><time>2026-04-26T16:17:17.781Z</time></trkpt><trkpt lat="44.6311413" lon="10.024961"><ele>208.0</ele><time>2026-04-26T16:17:18.781Z</time></trkpt><trkpt lat="44.6312392" lon="10.0251229"><ele>208.0</ele><time>2026-04-26T16:17:19.78Z</time></trkpt><trkpt lat="44.6313354" lon="10.0252922"><ele>208.33333333333331</ele><time>2026-04-26T16:17:20.78Z</time></trkpt><trkpt lat="44.6314291" lon="10.0254692"><ele>208.66666666666669</ele><time>2026-04-26T16:17:21.781Z</time></trkpt><trkpt lat="44.6315262" lon="10.0256533"><ele>209.0</ele><time>2026-04-26T16:17:22.78Z</time></trkpt><trkpt lat="44.6316291" lon="10.0258438"><ele>209.0</ele><time>2026-04-26T16:17:23.781Z</time></trkpt><trkpt lat="44.6317345" lon="10.0260426"><ele>209.0</ele><time>2026-04-26T16:17:24.781Z</time></trkpt><trkpt lat="44.6318429" lon="10.0262403"><ele>209.0</ele><time>2026-04-26T16:17:25.78Z</time></trkpt><trkpt lat="44.631946" lon="10.0264427"><ele>206.0</ele><time>2026-04-26T16:17:26.78Z</time></trkpt><trkpt lat="44.6320535" lon="10.0266404"><ele>203.0</ele><time>2026-04-26T16:17:27.781Z</time></trkpt><trkpt lat="44.63216" lon="10.0268358"><ele>200.0</ele><time>2026-04-26T16:17:28.781Z</time></trkpt><trkpt lat="44.6322674" lon="10.0270278"><ele>200.0</ele><time>2026-04-26T16:17:29.78Z</time></trkpt><trkpt lat="44.6323757" lon="10.0272211"><ele>200.0</ele><time>2026-04-26T16:17:30.781Z</time></trkpt><trkpt lat="44.6324801" lon="10.0274197"><ele>200.0</ele><time>2026-04-26T16:17:31.78Z</time></trkpt><trkpt lat="44.6325888" lon="10.0276238"><ele>202.0</ele><time>2026-04-26T16:17:32.781Z</time></trkpt><trkpt lat="44.6326954" lon="10.0278225"><ele>204.0</ele><time>2026-04-26T16:17:33.78Z</time></trkpt><trkpt lat="44.632797" lon="10.0280136"><ele>206.0</ele><time>2026-04-26T16:17:34.78Z</time></trkpt><trkpt lat="44.632899" lon="10.0282039"><ele>203.33333333333334</ele><time>2026-04-26T16:17:35.78Z</time></trkpt><trkpt lat="44.6330033" lon="10.0283942"><ele>200.66666666666669</ele><time>2026-04-26T16:17:36.78Z</time></trkpt><trkpt lat="44.6331043" lon="10.0285898"><ele>198.0</ele><time>2026-04-26T16:17:37.781Z</time></trkpt><trkpt lat="44.6332001" lon="10.0287919"><ele>198.0</ele><time>2026-04-26T16:17:38.78Z</time></trkpt><trkpt lat="44.6332946" lon="10.0289999"><ele>198.0</ele><time>2026-04-26T16:17:39.78Z</time></trkpt><trkpt lat="44.6333857" lon="10.0292136"><ele>198.0</ele><time>2026-04-26T16:17:40.78Z</time></trkpt><trkpt lat="44.6334757" lon="10.0294258"><ele>197.66666666666669</ele><time>2026-04-26T16:17:41.782Z</time></trkpt><trkpt lat="44.6335658" lon="10.0296378"><ele>197.33333333333334</ele><time>2026-04-26T16:17:42.781Z</time></trkpt><trkpt lat="44.633655" lon="10.029843"><ele>197.0</ele><time>2026-04-26T16:17:43.78Z</time></trkpt><trkpt lat="44.6337438" lon="10.0300475"><ele>197.0</ele><time>2026-04-26T16:17:44.78Z</time></trkpt><trkpt lat="44.6338263" lon="10.0302532"><ele>197.0</ele><time>2026-04-26T16:17:45.78Z</time></trkpt><trkpt lat="44.6339027" lon="10.0304667"><ele>197.0</ele><time>2026-04-26T16:17:46.78Z</time></trkpt><trkpt lat="44.6339795" lon="10.0306832"><ele>199.0</ele><time>2026-04-26T16:17:47.78Z</time></trkpt><trkpt lat="44.6340492" lon="10.0309183"><ele>201.0</ele><time>2026-04-26T16:17:48.78Z</time></trkpt><trkpt lat="44.6341149" lon="10.0311539"><ele>203.0</ele><time>2026-04-26T16:17:49.78Z</time></trkpt><trkpt lat="44.6341771" lon="10.0313948"><ele>203.0</ele><time>2026-04-26T16:17:50.78Z</time></trkpt><trkpt lat="44.6342357" lon="10.0316188"><ele>203.0</ele><time>2026-04-26T16:17:51.779Z</time></trkpt><trkpt lat="44.6342934" lon="10.0318397"><ele>203.0</ele><time>2026-04-26T16:17:52.78Z</time></trkpt><trkpt lat="44.6343484" lon="10.0320647"><ele>204.33333333333334</ele><time>2026-04-26T16:17:53.779Z</time></trkpt><trkpt lat="44.6344074" lon="10.0322871"><ele>205.66666666666669</ele><time>2026-04-26T16:17:54.78Z</time></trkpt><trkpt lat="44.6344692" lon="10.0325125"><ele>207.0</ele><time>2026-04-26T16:17:55.779Z</time></trkpt><trkpt lat="44.6345367" lon="10.0327334"><ele>205.0</ele><time>2026-04-26T16:17:56.78Z</time></trkpt><trkpt lat="44.6346173" lon="10.0329457"><ele>203.0</ele><time>2026-04-26T16:17:57.779Z</time></trkpt><trkpt lat="44.6347072" lon="10.0331535"><ele>201.0</ele><time>2026-04-26T16:17:58.78Z</time></trkpt><trkpt lat="44.6348005" lon="10.0333513"><ele>201.0</ele><time>2026-04-26T16:17:59.779Z</time></trkpt><trkpt lat="44.6348943" lon="10.0335326"><ele>201.0</ele><time>2026-04-26T16:18:00.779Z</time></trkpt><trkpt lat="44.634983" lon="10.0337086"><ele>201.0</ele><time>2026-04-26T16:18:01.78Z</time></trkpt><trkpt lat="44.6350712" lon="10.033882"><ele>201.0</ele><time>2026-04-26T16:18:02.78Z</time></trkpt><trkpt lat="44.6351663" lon="10.0340499"><ele>201.0</ele><time>2026-04-26T16:18:03.78Z</time></trkpt><trkpt lat="44.6352578" lon="10.0342178"><ele>201.0</ele><time>2026-04-26T16:18:04.78Z</time></trkpt><trkpt lat="44.6353506" lon="10.0343797"><ele>200.0</ele><time>2026-04-26T16:18:05.779Z</time></trkpt><trkpt lat="44.6354456" lon="10.0345318"><ele>199.0</ele><time>2026-04-26T16:18:06.779Z</time></trkpt><trkpt lat="44.6355515" lon="10.0346647"><ele>198.0</ele><time>2026-04-26T16:18:07.779Z</time></trkpt><trkpt lat="44.6356667" lon="10.0347847"><ele>197.0</ele><time>2026-04-26T16:18:08.779Z</time></trkpt><trkpt lat="44.635789" lon="10.0348916"><ele>196.75</ele><time>2026-04-26T16:18:09.779Z</time></trkpt><trkpt lat="44.6359189" lon="10.0349858"><ele>196.5</ele><time>2026-04-26T16:18:10.779Z</time></trkpt><trkpt lat="44.6360496" lon="10.0350739"><ele>196.25</ele><time>2026-04-26T16:18:11.78Z</time></trkpt><trkpt lat="44.6361812" lon="10.035165"><ele>196.0</ele><time>2026-04-26T16:18:12.78Z</time></trkpt><trkpt lat="44.6363058" lon="10.0352515"><ele>196.0</ele><time>2026-04-26T16:18:13.78Z</time></trkpt><trkpt lat="44.6364266" lon="10.0353404"><ele>196.0</ele><time>2026-04-26T16:18:14.779Z</time></trkpt><trkpt lat="44.6365479" lon="10.0354352"><ele>196.0</ele><time>2026-04-26T16:18:15.78Z</time></trkpt><trkpt lat="44.6366648" lon="10.0355449"><ele>196.0</ele><time>2026-04-26T16:18:16.779Z</time></trkpt><trkpt lat="44.6367764" lon="10.0356762"><ele>197.33333333333331</ele><time>2026-04-26T16:18:17.779Z</time></trkpt><trkpt lat="44.6368826" lon="10.0358245"><ele>198.66666666666669</ele><time>2026-04-26T16:18:18.779Z</time></trkpt><trkpt lat="44.6369825" lon="10.0359896"><ele>200.0</ele><time>2026-04-26T16:18:19.78Z</time></trkpt><trkpt lat="44.6370834" lon="10.0361598"><ele>199.33333333333334</ele><time>2026-04-26T16:18:20.779Z</time></trkpt><trkpt lat="44.6371802" lon="10.0363298"><ele>198.66666666666669</ele><time>2026-04-26T16:18:21.779Z</time></trkpt><trkpt lat="44.6372816" lon="10.0365082"><ele>198.0</ele><time>2026-04-26T16:18:22.78Z</time></trkpt><trkpt lat="44.6373872" lon="10.0366925"><ele>198.0</ele><time>2026-04-26T16:18:23.779Z</time></trkpt><trkpt lat="44.6374933" lon="10.0368843"><ele>198.0</ele><time>2026-04-26T16:18:24.78Z</time></trkpt><trkpt lat="44.6376048" lon="10.0370769"><ele>198.0</ele><time>2026-04-26T16:18:25.779Z</time></trkpt><trkpt lat="44.6377178" lon="10.0372733"><ele>196.33333333333331</ele><time>2026-04-26T16:18:26.779Z</time></trkpt><trkpt lat="44.637837" lon="10.0374745"><ele>194.66666666666666</ele><time>2026-04-26T16:18:27.78Z</time></trkpt><trkpt lat="44.637956" lon="10.0376759"><ele>193.0</ele><time>2026-04-26T16:18:28.78Z</time></trkpt><trkpt lat="44.6380755" lon="10.0378769"><ele>193.0</ele><time>2026-04-26T16:18:29.781Z</time></trkpt><trkpt lat="44.6381973" lon="10.0380813"><ele>193.0</ele><time>2026-04-26T16:18:30.779Z</time></trkpt><trkpt lat="44.6383183" lon="10.0382857"><ele>193.0</ele><time>2026-04-26T16:18:31.779Z</time></trkpt><trkpt lat="44.6384396" lon="10.0384943"><ele>192.0</ele><time>2026-04-26T16:18:32.78Z</time></trkpt><trkpt lat="44.6385644" lon="10.0387019"><ele>191.0</ele><time>2026-04-26T16:18:33.779Z</time></trkpt><trkpt lat="44.6386924" lon="10.0389147"><ele>190.0</ele><time>2026-04-26T16:18:34.78Z</time></trkpt><trkpt lat="44.6388199" lon="10.0391212"><ele>191.66666666666669</ele><time>2026-04-26T16:18:35.779Z</time></trkpt><trkpt lat="44.6389485" lon="10.0393327"><ele>193.33333333333334</ele><time>2026-04-26T16:18:36.779Z</time></trkpt><trkpt lat="44.6390787" lon="10.0395491"><ele>195.0</ele><time>2026-04-26T16:18:37.779Z</time></trkpt><trkpt lat="44.6392099" lon="10.0397757"><ele>196.33333333333331</ele><time>2026-04-26T16:18:38.78Z</time></trkpt><trkpt lat="44.6393498" lon="10.0400145"><ele>197.66666666666666</ele><time>2026-04-26T16:18:39.779Z</time></trkpt><trkpt lat="44.6394977" lon="10.0402504"><ele>199.0</ele><time>2026-04-26T16:18:40.779Z</time></trkpt><trkpt lat="44.6396329" lon="10.0404878"><ele>195.5</ele><time>2026-04-26T16:18:41.78Z</time></trkpt><trkpt lat="44.6397757" lon="10.0407291"><ele>192.0</ele><time>2026-04-26T16:18:42.779Z</time></trkpt><trkpt lat="44.6399235" lon="10.0409843"><ele>192.0</ele><time>2026-04-26T16:18:43.779Z</time></trkpt><trkpt lat="44.6400663" lon="10.0412513"><ele>192.0</ele><time>2026-04-26T16:18:44.78Z</time></trkpt><trkpt lat="44.6402101" lon="10.0415271"><ele>190.5</ele><time>2026-04-26T16:18:45.779Z</time></trkpt><trkpt lat="44.6403577" lon="10.0417951"><ele>189.0</ele><time>2026-04-26T16:18:46.78Z</time></trkpt><trkpt lat="44.6405083" lon="10.0420611"><ele>189.0</ele><time>2026-04-26T16:18:47.779Z</time></trkpt><trkpt lat="44.6406598" lon="10.0423177"><ele>189.0</ele><time>2026-04-26T16:18:48.779Z</time></trkpt><trkpt lat="44.6408108" lon="10.042557"><ele>190.5</ele><time>2026-04-26T16:18:49.779Z</time></trkpt><trkpt lat="44.6409641" lon="10.0427919"><ele>192.0</ele><time>2026-04-26T16:18:50.78Z</time></trkpt><trkpt lat="44.6411228" lon="10.0430211"><ele>191.5</ele><time>2026-04-26T16:18:51.779Z</time></trkpt><trkpt lat="44.6412863" lon="10.043249"><ele>191.0</ele><time>2026-04-26T16:18:52.78Z</time></trkpt><trkpt lat="44.6414509" lon="10.043476"><ele>191.0</ele><time>2026-04-26T16:18:53.779Z</time></trkpt><trkpt lat="44.6416198" lon="10.043699"><ele>191.0</ele><time>2026-04-26T16:18:54.78Z</time></trkpt><trkpt lat="44.6417879" lon="10.0439186"><ele>190.5</ele><time>2026-04-26T16:18:55.779Z</time></trkpt><trkpt lat="44.641955" lon="10.0441349"><ele>190.0</ele><time>2026-04-26T16:18:56.779Z</time></trkpt><trkpt lat="44.6421213" lon="10.0443475"><ele>190.0</ele><time>2026-04-26T16:18:57.779Z</time></trkpt><trkpt lat="44.6422833" lon="10.0445566"><ele>190.0</ele><time>2026-04-26T16:18:58.779Z</time></trkpt><trkpt lat="44.6424439" lon="10.0447652"><ele>190.0</ele><time>2026-04-26T16:18:59.78Z</time></trkpt><trkpt lat="44.6426095" lon="10.0449643"><ele>189.66666666666669</ele><time>2026-04-26T16:19:00.78Z</time></trkpt><trkpt lat="44.6427787" lon="10.045151"><ele>189.33333333333334</ele><time>2026-04-26T16:19:01.78Z</time></trkpt><trkpt lat="44.6429627" lon="10.0453223"><ele>189.0</ele><time>2026-04-26T16:19:02.779Z</time></trkpt><trkpt lat="44.6431652" lon="10.0454755"><ele>189.0</ele><time>2026-04-26T16:19:03.779Z</time></trkpt><trkpt lat="44.6433683" lon="10.0456187"><ele>189.0</ele><time>2026-04-26T16:19:04.779Z</time></trkpt><trkpt lat="44.64356" lon="10.0457505"><ele>189.0</ele><time>2026-04-26T16:19:05.779Z</time></trkpt><trkpt lat="44.6437405" lon="10.0458808"><ele>189.66666666666666</ele><time>2026-04-26T16:19:06.779Z</time></trkpt><trkpt lat="44.6439281" lon="10.0460071"><ele>190.33333333333331</ele><time>2026-04-26T16:19:07.78Z</time></trkpt><trkpt lat="44.6441245" lon="10.0460924"><ele>191.0</ele><time>2026-04-26T16:19:08.779Z</time></trkpt><trkpt lat="44.6443366" lon="10.0461449"><ele>190.33333333333331</ele><time>2026-04-26T16:19:09.78Z</time></trkpt><trkpt lat="44.6445559" lon="10.0461666"><ele>189.66666666666666</ele><time>2026-04-26T16:19:10.779Z</time></trkpt><trkpt lat="44.6447725" lon="10.046172"><ele>189.0</ele><time>2026-04-26T16:19:11.779Z</time></trkpt><trkpt lat="44.6449828" lon="10.0461828"><ele>189.0</ele><time>2026-04-26T16:19:12.779Z</time></trkpt><trkpt lat="44.6451928" lon="10.0462119"><ele>189.0</ele><time>2026-04-26T16:19:13.779Z</time></trkpt><trkpt lat="44.6453976" lon="10.0462629"><ele>189.0</ele><time>2026-04-26T16:19:14.78Z</time></trkpt><trkpt lat="44.6456005" lon="10.0463306"><ele>188.0</ele><time>2026-04-26T16:19:15.779Z</time></trkpt><trkpt lat="44.6457984" lon="10.0464057"><ele>187.0</ele><time>2026-04-26T16:19:16.779Z</time></trkpt><trkpt lat="44.6459998" lon="10.0464825"><ele>186.0</ele><time>2026-04-26T16:19:17.78Z</time></trkpt><trkpt lat="44.646196" lon="10.0465673"><ele>187.0</ele><time>2026-04-26T16:19:18.779Z</time></trkpt><trkpt lat="44.646388" lon="10.0466594"><ele>188.0</ele><time>2026-04-26T16:19:19.779Z</time></trkpt><trkpt lat="44.6465757" lon="10.0467635"><ele>189.0</ele><time>2026-04-26T16:19:20.78Z</time></trkpt><trkpt lat="44.6467714" lon="10.046872"><ele>187.33333333333334</ele><time>2026-04-26T16:19:21.779Z</time></trkpt><trkpt lat="44.6469656" lon="10.0469684"><ele>185.66666666666669</ele><time>2026-04-26T16:19:22.779Z</time></trkpt><trkpt lat="44.6471663" lon="10.0470596"><ele>184.0</ele><time>2026-04-26T16:19:23.78Z</time></trkpt><trkpt lat="44.6473675" lon="10.0471359"><ele>184.0</ele><time>2026-04-26T16:19:24.78Z</time></trkpt><trkpt lat="44.6475681" lon="10.0472005"><ele>184.0</ele><time>2026-04-26T16:19:25.779Z</time></trkpt><trkpt lat="44.6477747" lon="10.0472552"><ele>184.0</ele><time>2026-04-26T16:19:26.78Z</time></trkpt><trkpt lat="44.6479825" lon="10.0473106"><ele>185.0</ele><time>2026-04-26T16:19:27.779Z</time></trkpt><trkpt lat="44.6481873" lon="10.0473656"><ele>186.0</ele><time>2026-04-26T16:19:28.779Z</time></trkpt><trkpt lat="44.6483884" lon="10.0474212"><ele>187.0</ele><time>2026-04-26T16:19:29.78Z</time></trkpt><trkpt lat="44.6485855" lon="10.047483"><ele>186.33333333333334</ele><time>2026-04-26T16:19:30.779Z</time></trkpt><trkpt lat="44.6487866" lon="10.0475522"><ele>185.66666666666666</ele><time>2026-04-26T16:19:31.779Z</time></trkpt><trkpt lat="44.6489909" lon="10.0476252"><ele>185.0</ele><time>2026-04-26T16:19:32.78Z</time></trkpt><trkpt lat="44.6491946" lon="10.0477042"><ele>185.0</ele><time>2026-04-26T16:19:33.779Z</time></trkpt><trkpt lat="44.6493942" lon="10.047789"><ele>185.0</ele><time>2026-04-26T16:19:34.78Z</time></trkpt><trkpt lat="44.6495915" lon="10.0478789"><ele>185.0</ele><time>2026-04-26T16:19:35.779Z</time></trkpt><trkpt lat="44.6497863" lon="10.0479758"><ele>184.66666666666666</ele><time>2026-04-26T16:19:36.78Z</time></trkpt><trkpt lat="44.6499789" lon="10.0480802"><ele>184.33333333333334</ele><time>2026-04-26T16:19:37.779Z</time></trkpt><trkpt lat="44.6501714" lon="10.0481885"><ele>184.0</ele><time>2026-04-26T16:19:38.78Z</time></trkpt><trkpt lat="44.6503629" lon="10.0483054"><ele>184.0</ele><time>2026-04-26T16:19:39.779Z</time></trkpt><trkpt lat="44.6505533" lon="10.0484294"><ele>184.0</ele><time>2026-04-26T16:19:40.779Z</time></trkpt><trkpt lat="44.6507398" lon="10.0485599"><ele>184.0</ele><time>2026-04-26T16:19:41.779Z</time></trkpt><trkpt lat="44.6509252" lon="10.0486976"><ele>184.0</ele><time>2026-04-26T16:19:42.779Z</time></trkpt><trkpt lat="44.6511089" lon="10.0488439"><ele>184.0</ele><time>2026-04-26T16:19:43.78Z</time></trkpt><trkpt lat="44.6512936" lon="10.0489842"><ele>184.0</ele><time>2026-04-26T16:19:44.779Z</time></trkpt><trkpt lat="44.6514837" lon="10.0491327"><ele>183.66666666666669</ele><time>2026-04-26T16:19:45.78Z</time></trkpt><trkpt lat="44.6516818" lon="10.0492705"><ele>183.33333333333334</ele><time>2026-04-26T16:19:46.779Z</time></trkpt><trkpt lat="44.6518765" lon="10.049416"><ele>183.0</ele><time>2026-04-26T16:19:47.78Z</time></trkpt><trkpt lat="44.6520641" lon="10.0495544"><ele>183.0</ele><time>2026-04-26T16:19:48.779Z</time></trkpt><trkpt lat="44.6522582" lon="10.0496971"><ele>183.0</ele><time>2026-04-26T16:19:49.78Z</time></trkpt><trkpt lat="44.6524499" lon="10.0498384"><ele>183.0</ele><time>2026-04-26T16:19:50.779Z</time></trkpt><trkpt lat="44.6526529" lon="10.0499956"><ele>182.5</ele><time>2026-04-26T16:19:51.779Z</time></trkpt><trkpt lat="44.6528309" lon="10.0501224"><ele>182.0</ele><time>2026-04-26T16:19:52.779Z</time></trkpt><trkpt lat="44.6528551" lon="10.0507566"><ele>182.0</ele><time>2026-04-26T16:19:53.78Z</time></trkpt><trkpt lat="44.6530116" lon="10.0508762"><ele>182.0</ele><time>2026-04-26T16:19:54.779Z</time></trkpt><trkpt lat="44.6531411" lon="10.051136"><ele>182.0</ele><time>2026-04-26T16:19:55.779Z</time></trkpt><trkpt lat="44.6532858" lon="10.0513892"><ele>182.5</ele><time>2026-04-26T16:19:56.779Z</time></trkpt><trkpt lat="44.6534164" lon="10.051645"><ele>183.0</ele><time>2026-04-26T16:19:57.781Z</time></trkpt><trkpt lat="44.6535459" lon="10.0519065"><ele>180.0</ele><time>2026-04-26T16:19:58.779Z</time></trkpt><trkpt lat="44.6536811" lon="10.0521732"><ele>177.0</ele><time>2026-04-26T16:19:59.779Z</time></trkpt><trkpt lat="44.6538165" lon="10.0524398"><ele>178.0</ele><time>2026-04-26T16:20:00.78Z</time></trkpt><trkpt lat="44.6539477" lon="10.0527094"><ele>179.0</ele><time>2026-04-26T16:20:01.779Z</time></trkpt><trkpt lat="44.654078" lon="10.0529802"><ele>179.0</ele><time>2026-04-26T16:20:02.779Z</time></trkpt><trkpt lat="44.6542078" lon="10.0532474"><ele>179.0</ele><time>2026-04-26T16:20:03.78Z</time></trkpt><trkpt lat="44.654333" lon="10.0535131"><ele>177.0</ele><time>2026-04-26T16:20:04.779Z</time></trkpt><trkpt lat="44.6544619" lon="10.0537782"><ele>175.0</ele><time>2026-04-26T16:20:05.779Z</time></trkpt><trkpt lat="44.6545913" lon="10.0540452"><ele>175.0</ele><time>2026-04-26T16:20:06.779Z</time></trkpt><trkpt lat="44.6547207" lon="10.0543093"><ele>175.0</ele><time>2026-04-26T16:20:07.779Z</time></trkpt><trkpt lat="44.6548515" lon="10.054569"><ele>175.0</ele><time>2026-04-26T16:20:08.779Z</time></trkpt><trkpt lat="44.6549837" lon="10.0548282"><ele>175.0</ele><time>2026-04-26T16:20:09.779Z</time></trkpt><trkpt lat="44.6551203" lon="10.0550858"><ele>176.0</ele><time>2026-04-26T16:20:10.779Z</time></trkpt><trkpt lat="44.6552646" lon="10.0553367"><ele>177.0</ele><time>2026-04-26T16:20:11.78Z</time></trkpt><trkpt lat="44.6554212" lon="10.0555748"><ele>176.5</ele><time>2026-04-26T16:20:12.779Z</time></trkpt><trkpt lat="44.6555889" lon="10.0558"><ele>176.0</ele><time>2026-04-26T16:20:13.78Z</time></trkpt><trkpt lat="44.6557599" lon="10.0560248"><ele>176.0</ele><time>2026-04-26T16:20:14.779Z</time></trkpt><trkpt lat="44.6559315" lon="10.0562504"><ele>176.0</ele><time>2026-04-26T16:20:15.78Z</time></trkpt><trkpt lat="44.6561041" lon="10.056481"><ele>174.0</ele><time>2026-04-26T16:20:16.779Z</time></trkpt><trkpt lat="44.6562757" lon="10.0567123"><ele>172.0</ele><time>2026-04-26T16:20:17.78Z</time></trkpt><trkpt lat="44.6564472" lon="10.0569457"><ele>172.0</ele><time>2026-04-26T16:20:18.779Z</time></trkpt><trkpt lat="44.6566199" lon="10.0571745"><ele>172.0</ele><time>2026-04-26T16:20:19.779Z</time></trkpt><trkpt lat="44.6567928" lon="10.0574041"><ele>171.5</ele><time>2026-04-26T16:20:20.779Z</time></trkpt><trkpt lat="44.6569647" lon="10.0576352"><ele>171.0</ele><time>2026-04-26T16:20:21.779Z</time></trkpt><trkpt lat="44.6571378" lon="10.0578625"><ele>171.0</ele><time>2026-04-26T16:20:22.781Z</time></trkpt><trkpt lat="44.6573108" lon="10.0580881"><ele>171.0</ele><time>2026-04-26T16:20:23.779Z</time></trkpt><trkpt lat="44.6574831" lon="10.0583168"><ele>169.5</ele><time>2026-04-26T16:20:24.779Z</time></trkpt><trkpt lat="44.6576477" lon="10.0585585"><ele>168.0</ele><time>2026-04-26T16:20:25.779Z</time></trkpt><trkpt lat="44.6578007" lon="10.0588123"><ele>168.0</ele><time>2026-04-26T16:20:26.78Z</time></trkpt><trkpt lat="44.657947" lon="10.0590713"><ele>168.0</ele><time>2026-04-26T16:20:27.779Z</time></trkpt><trkpt lat="44.6580937" lon="10.059324"><ele>170.0</ele><time>2026-04-26T16:20:28.781Z</time></trkpt><trkpt lat="44.6582362" lon="10.0595791"><ele>172.0</ele><time>2026-04-26T16:20:29.779Z</time></trkpt><trkpt lat="44.6583782" lon="10.059834"><ele>171.0</ele><time>2026-04-26T16:20:30.78Z</time></trkpt><trkpt lat="44.6585263" lon="10.0600969"><ele>170.0</ele><time>2026-04-26T16:20:31.78Z</time></trkpt><trkpt lat="44.6586783" lon="10.0603676"><ele>170.0</ele><time>2026-04-26T16:20:32.78Z</time></trkpt><trkpt lat="44.6588332" lon="10.060645"><ele>170.0</ele><time>2026-04-26T16:20:33.779Z</time></trkpt><trkpt lat="44.6589935" lon="10.0609322"><ele>171.5</ele><time>2026-04-26T16:20:34.78Z</time></trkpt><trkpt lat="44.6591561" lon="10.0612249"><ele>173.0</ele><time>2026-04-26T16:20:35.779Z</time></trkpt><trkpt lat="44.6593201" lon="10.0615161"><ele>170.5</ele><time>2026-04-26T16:20:36.779Z</time></trkpt><trkpt lat="44.6594884" lon="10.0618108"><ele>168.0</ele><time>2026-04-26T16:20:37.78Z</time></trkpt><trkpt lat="44.6596548" lon="10.0621116"><ele>168.0</ele><time>2026-04-26T16:20:38.779Z</time></trkpt><trkpt lat="44.6598248" lon="10.0624103"><ele>168.0</ele><time>2026-04-26T16:20:39.78Z</time></trkpt><trkpt lat="44.6599934" lon="10.0627029"><ele>167.0</ele><time>2026-04-26T16:20:40.78Z</time></trkpt><trkpt lat="44.660157" lon="10.062989"><ele>166.0</ele><time>2026-04-26T16:20:41.779Z</time></trkpt><trkpt lat="44.6603187" lon="10.0632679"><ele>167.0</ele><time>2026-04-26T16:20:42.78Z</time></trkpt><trkpt lat="44.6604753" lon="10.0635427"><ele>168.0</ele><time>2026-04-26T16:20:43.779Z</time></trkpt><trkpt lat="44.6606318" lon="10.0638165"><ele>168.0</ele><time>2026-04-26T16:20:44.78Z</time></trkpt><trkpt lat="44.6607859" lon="10.0640878"><ele>168.0</ele><time>2026-04-26T16:20:45.78Z</time></trkpt><trkpt lat="44.6609333" lon="10.0643635"><ele>165.5</ele><time>2026-04-26T16:20:46.78Z</time></trkpt><trkpt lat="44.6610764" lon="10.064637"><ele>163.0</ele><time>2026-04-26T16:20:47.779Z</time></trkpt><trkpt lat="44.6612167" lon="10.0649091"><ele>165.0</ele><time>2026-04-26T16:20:48.78Z</time></trkpt><trkpt lat="44.661352" lon="10.0651845"><ele>167.0</ele><time>2026-04-26T16:20:49.779Z</time></trkpt><trkpt lat="44.6614813" lon="10.0654625"><ele>167.0</ele><time>2026-04-26T16:20:50.78Z</time></trkpt><trkpt lat="44.6616151" lon="10.0657278"><ele>167.0</ele><time>2026-04-26T16:20:51.779Z</time></trkpt><trkpt lat="44.6617479" lon="10.0659851"><ele>167.33333333333331</ele><time>2026-04-26T16:20:52.779Z</time></trkpt><trkpt lat="44.6618811" lon="10.066239"><ele>167.66666666666666</ele><time>2026-04-26T16:20:53.78Z</time></trkpt><trkpt lat="44.6620185" lon="10.0664826"><ele>168.0</ele><time>2026-04-26T16:20:54.779Z</time></trkpt><trkpt lat="44.6621478" lon="10.0667107"><ele>168.0</ele><time>2026-04-26T16:20:55.78Z</time></trkpt><trkpt lat="44.6622759" lon="10.0669261"><ele>168.0</ele><time>2026-04-26T16:20:56.779Z</time></trkpt><trkpt lat="44.6623983" lon="10.0671309"><ele>168.0</ele><time>2026-04-26T16:20:57.78Z</time></trkpt><trkpt lat="44.6625206" lon="10.0673279"><ele>167.66666666666666</ele><time>2026-04-26T16:20:58.779Z</time></trkpt><trkpt lat="44.6626428" lon="10.0675208"><ele>167.33333333333331</ele><time>2026-04-26T16:20:59.78Z</time></trkpt><trkpt lat="44.6627681" lon="10.0677172"><ele>167.0</ele><time>2026-04-26T16:21:00.779Z</time></trkpt><trkpt lat="44.6628895" lon="10.067921"><ele>167.0</ele><time>2026-04-26T16:21:01.78Z</time></trkpt><trkpt lat="44.6630149" lon="10.0681342"><ele>167.0</ele><time>2026-04-26T16:21:02.78Z</time></trkpt><trkpt lat="44.6631381" lon="10.0683351"><ele>167.0</ele><time>2026-04-26T16:21:03.78Z</time></trkpt><trkpt lat="44.6632678" lon="10.0685246"><ele>166.66666666666666</ele><time>2026-04-26T16:21:04.779Z</time></trkpt><trkpt lat="44.6634085" lon="10.0687124"><ele>166.33333333333334</ele><time>2026-04-26T16:21:05.779Z</time></trkpt><trkpt lat="44.6635666" lon="10.0688902"><ele>166.0</ele><time>2026-04-26T16:21:06.78Z</time></trkpt><trkpt lat="44.6637349" lon="10.0690655"><ele>166.33333333333334</ele><time>2026-04-26T16:21:07.78Z</time></trkpt><trkpt lat="44.6639047" lon="10.0692417"><ele>166.66666666666666</ele><time>2026-04-26T16:21:08.78Z</time></trkpt><trkpt lat="44.6640784" lon="10.0694166"><ele>167.0</ele><time>2026-04-26T16:21:09.779Z</time></trkpt><trkpt lat="44.6642573" lon="10.0695975"><ele>167.0</ele><time>2026-04-26T16:21:10.78Z</time></trkpt><trkpt lat="44.6644383" lon="10.0697819"><ele>167.0</ele><time>2026-04-26T16:21:11.78Z</time></trkpt><trkpt lat="44.6646185" lon="10.0699742"><ele>166.5</ele><time>2026-04-26T16:21:12.78Z</time></trkpt><trkpt lat="44.6648022" lon="10.0701655"><ele>166.0</ele><time>2026-04-26T16:21:13.78Z</time></trkpt><trkpt lat="44.6649889" lon="10.0703595"><ele>166.0</ele><time>2026-04-26T16:21:14.78Z</time></trkpt><trkpt lat="44.6651783" lon="10.0705521"><ele>166.0</ele><time>2026-04-26T16:21:15.779Z</time></trkpt><trkpt lat="44.6653697" lon="10.0707468"><ele>165.0</ele><time>2026-04-26T16:21:16.78Z</time></trkpt><trkpt lat="44.6655588" lon="10.070946"><ele>164.0</ele><time>2026-04-26T16:21:17.78Z</time></trkpt><trkpt lat="44.6657419" lon="10.0711392"><ele>164.0</ele><time>2026-04-26T16:21:18.78Z</time></trkpt><trkpt lat="44.6659202" lon="10.0713262"><ele>164.0</ele><time>2026-04-26T16:21:19.779Z</time></trkpt><trkpt lat="44.6660995" lon="10.0715154"><ele>164.0</ele><time>2026-04-26T16:21:20.779Z</time></trkpt><trkpt lat="44.6662773" lon="10.0716984"><ele>164.0</ele><time>2026-04-26T16:21:21.779Z</time></trkpt><trkpt lat="44.6664548" lon="10.0718817"><ele>164.0</ele><time>2026-04-26T16:21:22.779Z</time></trkpt><trkpt lat="44.6666328" lon="10.0720613"><ele>164.0</ele><time>2026-04-26T16:21:23.779Z</time></trkpt><trkpt lat="44.6668065" lon="10.0722399"><ele>164.0</ele><time>2026-04-26T16:21:24.779Z</time></trkpt><trkpt lat="44.6669802" lon="10.072421"><ele>164.0</ele><time>2026-04-26T16:21:25.779Z</time></trkpt><trkpt lat="44.6671532" lon="10.0726079"><ele>164.0</ele><time>2026-04-26T16:21:26.78Z</time></trkpt><trkpt lat="44.6673186" lon="10.0728133"><ele>164.0</ele><time>2026-04-26T16:21:27.779Z</time></trkpt><trkpt lat="44.6674776" lon="10.0730327"><ele>164.0</ele><time>2026-04-26T16:21:28.78Z</time></trkpt><trkpt lat="44.6676301" lon="10.0732565"><ele>164.0</ele><time>2026-04-26T16:21:29.78Z</time></trkpt><trkpt lat="44.6677803" lon="10.07347"><ele>163.0</ele><time>2026-04-26T16:21:30.78Z</time></trkpt><trkpt lat="44.6679383" lon="10.0736729"><ele>162.0</ele><time>2026-04-26T16:21:31.779Z</time></trkpt><trkpt lat="44.66811" lon="10.0738638"><ele>161.0</ele><time>2026-04-26T16:21:32.779Z</time></trkpt><trkpt lat="44.6682941" lon="10.0740425"><ele>160.66666666666666</ele><time>2026-04-26T16:21:33.779Z</time></trkpt><trkpt lat="44.6684753" lon="10.0742258"><ele>160.33333333333334</ele><time>2026-04-26T16:21:34.779Z</time></trkpt><trkpt lat="44.6686494" lon="10.0744026"><ele>160.0</ele><time>2026-04-26T16:21:35.78Z</time></trkpt><trkpt lat="44.6688148" lon="10.074573"><ele>160.0</ele><time>2026-04-26T16:21:36.779Z</time></trkpt><trkpt lat="44.6689809" lon="10.074749"><ele>160.0</ele><time>2026-04-26T16:21:37.78Z</time></trkpt><trkpt lat="44.6691443" lon="10.0749286"><ele>160.0</ele><time>2026-04-26T16:21:38.779Z</time></trkpt><trkpt lat="44.6693068" lon="10.0750982"><ele>159.33333333333334</ele><time>2026-04-26T16:21:39.779Z</time></trkpt><trkpt lat="44.6694725" lon="10.0752755"><ele>158.66666666666666</ele><time>2026-04-26T16:21:40.779Z</time></trkpt><trkpt lat="44.6696463" lon="10.0754566"><ele>158.0</ele><time>2026-04-26T16:21:41.779Z</time></trkpt><trkpt lat="44.6698267" lon="10.0756473"><ele>159.0</ele><time>2026-04-26T16:21:42.78Z</time></trkpt><trkpt lat="44.6700168" lon="10.0758493"><ele>160.0</ele><time>2026-04-26T16:21:43.779Z</time></trkpt><trkpt lat="44.670213" lon="10.0760602"><ele>158.0</ele><time>2026-04-26T16:21:44.78Z</time></trkpt><trkpt lat="44.6704263" lon="10.076295"><ele>156.0</ele><time>2026-04-26T16:21:45.779Z</time></trkpt><trkpt lat="44.6706613" lon="10.076544"><ele>156.0</ele><time>2026-04-26T16:21:46.78Z</time></trkpt><trkpt lat="44.6708922" lon="10.076792"><ele>156.0</ele><time>2026-04-26T16:21:47.779Z</time></trkpt><trkpt lat="44.6711172" lon="10.0770428"><ele>156.0</ele><time>2026-04-26T16:21:48.78Z</time></trkpt><trkpt lat="44.6713566" lon="10.0773066"><ele>156.0</ele><time>2026-04-26T16:21:49.779Z</time></trkpt><trkpt lat="44.6716024" lon="10.0775882"><ele>156.0</ele><time>2026-04-26T16:21:50.78Z</time></trkpt><trkpt lat="44.6718354" lon="10.0778536"><ele>156.0</ele><time>2026-04-26T16:21:51.779Z</time></trkpt><trkpt lat="44.6720635" lon="10.0781161"><ele>157.0</ele><time>2026-04-26T16:21:52.78Z</time></trkpt><trkpt lat="44.6722893" lon="10.0783829"><ele>158.0</ele><time>2026-04-26T16:21:53.779Z</time></trkpt><trkpt lat="44.6725168" lon="10.0786602"><ele>158.0</ele><time>2026-04-26T16:21:54.779Z</time></trkpt><trkpt lat="44.6727387" lon="10.0789419"><ele>158.0</ele><time>2026-04-26T16:21:55.78Z</time></trkpt><trkpt lat="44.6729597" lon="10.079227"><ele>158.0</ele><time>2026-04-26T16:21:56.779Z</time></trkpt><trkpt lat="44.6731759" lon="10.0795159"><ele>158.0</ele><time>2026-04-26T16:21:57.78Z</time></trkpt><trkpt lat="44.6733865" lon="10.0798124"><ele>160.0</ele><time>2026-04-26T16:21:58.779Z</time></trkpt><trkpt lat="44.6735929" lon="10.080113"><ele>162.0</ele><time>2026-04-26T16:21:59.781Z</time></trkpt><trkpt lat="44.6737984" lon="10.0804214"><ele>160.0</ele><time>2026-04-26T16:22:00.779Z</time></trkpt><trkpt lat="44.6739976" lon="10.0807389"><ele>158.0</ele><time>2026-04-26T16:22:01.78Z</time></trkpt><trkpt lat="44.6741921" lon="10.0810704"><ele>158.0</ele><time>2026-04-26T16:22:02.779Z</time></trkpt><trkpt lat="44.6743865" lon="10.0814238"><ele>158.0</ele><time>2026-04-26T16:22:03.78Z</time></trkpt><trkpt lat="44.6745838" lon="10.0818053"><ele>157.0</ele><time>2026-04-26T16:22:04.778Z</time></trkpt><trkpt lat="44.6747861" lon="10.0822071"><ele>156.0</ele><time>2026-04-26T16:22:05.78Z</time></trkpt><trkpt lat="44.6749839" lon="10.082615"><ele>158.0</ele><time>2026-04-26T16:22:06.781Z</time></trkpt><trkpt lat="44.6751659" lon="10.0830227"><ele>160.0</ele><time>2026-04-26T16:22:07.779Z</time></trkpt><trkpt lat="44.6753397" lon="10.0834272"><ele>157.0</ele><time>2026-04-26T16:22:08.78Z</time></trkpt><trkpt lat="44.6755056" lon="10.0838375"><ele>154.0</ele><time>2026-04-26T16:22:09.779Z</time></trkpt><trkpt lat="44.6756587" lon="10.0842337"><ele>154.0</ele><time>2026-04-26T16:22:10.78Z</time></trkpt><trkpt lat="44.6758017" lon="10.0846159"><ele>154.0</ele><time>2026-04-26T16:22:11.779Z</time></trkpt><trkpt lat="44.6759378" lon="10.0849897"><ele>155.0</ele><time>2026-04-26T16:22:12.78Z</time></trkpt><trkpt lat="44.6760673" lon="10.0853524"><ele>156.0</ele><time>2026-04-26T16:22:13.779Z</time></trkpt><trkpt lat="44.6761917" lon="10.0856947"><ele>151.5</ele><time>2026-04-26T16:22:14.781Z</time></trkpt><trkpt lat="44.6763128" lon="10.0860167"><ele>147.0</ele><time>2026-04-26T16:22:15.779Z</time></trkpt><trkpt lat="44.6764259" lon="10.0863226"><ele>148.0</ele><time>2026-04-26T16:22:16.781Z</time></trkpt><trkpt lat="44.6765359" lon="10.0866148"><ele>149.0</ele><time>2026-04-26T16:22:17.779Z</time></trkpt><trkpt lat="44.6766398" lon="10.0868964"><ele>149.0</ele><time>2026-04-26T16:22:18.779Z</time></trkpt><trkpt lat="44.6767418" lon="10.0871708"><ele>149.0</ele><time>2026-04-26T16:22:19.779Z</time></trkpt><trkpt lat="44.6768399" lon="10.087443"><ele>149.0</ele><time>2026-04-26T16:22:20.779Z</time></trkpt><trkpt lat="44.6769353" lon="10.087712"><ele>149.33333333333331</ele><time>2026-04-26T16:22:21.78Z</time></trkpt><trkpt lat="44.6770322" lon="10.0879761"><ele>149.66666666666666</ele><time>2026-04-26T16:22:22.779Z</time></trkpt><trkpt lat="44.6771284" lon="10.0882336"><ele>150.0</ele><time>2026-04-26T16:22:23.78Z</time></trkpt><trkpt lat="44.6772249" lon="10.0884937"><ele>150.0</ele><time>2026-04-26T16:22:24.779Z</time></trkpt><trkpt lat="44.6773184" lon="10.0887541"><ele>150.0</ele><time>2026-04-26T16:22:25.779Z</time></trkpt><trkpt lat="44.67741" lon="10.0890079"><ele>150.0</ele><time>2026-04-26T16:22:26.78Z</time></trkpt><trkpt lat="44.677498" lon="10.0892491"><ele>151.0</ele><time>2026-04-26T16:22:27.779Z</time></trkpt><trkpt lat="44.6775882" lon="10.0894888"><ele>152.0</ele><time>2026-04-26T16:22:28.78Z</time></trkpt><trkpt lat="44.6776767" lon="10.0897342"><ele>153.0</ele><time>2026-04-26T16:22:29.779Z</time></trkpt><trkpt lat="44.6777662" lon="10.0899725"><ele>150.66666666666666</ele><time>2026-04-26T16:22:30.779Z</time></trkpt><trkpt lat="44.6778531" lon="10.0902087"><ele>148.33333333333331</ele><time>2026-04-26T16:22:31.779Z</time></trkpt><trkpt lat="44.677936" lon="10.0904324"><ele>146.0</ele><time>2026-04-26T16:22:32.779Z</time></trkpt><trkpt lat="44.6780129" lon="10.0906462"><ele>147.0</ele><time>2026-04-26T16:22:33.78Z</time></trkpt><trkpt lat="44.6780838" lon="10.0908508"><ele>148.0</ele><time>2026-04-26T16:22:34.779Z</time></trkpt><trkpt lat="44.6781554" lon="10.0910413"><ele>149.0</ele><time>2026-04-26T16:22:35.779Z</time></trkpt><trkpt lat="44.6782221" lon="10.0912236"><ele>149.0</ele><time>2026-04-26T16:22:36.779Z</time></trkpt><trkpt lat="44.6782885" lon="10.0913986"><ele>149.0</ele><time>2026-04-26T16:22:37.779Z</time></trkpt><trkpt lat="44.6783548" lon="10.0915802"><ele>149.0</ele><time>2026-04-26T16:22:38.78Z</time></trkpt><trkpt lat="44.678425" lon="10.0917629"><ele>149.0</ele><time>2026-04-26T16:22:39.779Z</time></trkpt><trkpt lat="44.6784947" lon="10.0919432"><ele>149.0</ele><time>2026-04-26T16:22:40.78Z</time></trkpt><trkpt lat="44.6785581" lon="10.0921128"><ele>149.0</ele><time>2026-04-26T16:22:41.779Z</time></trkpt><trkpt lat="44.6786174" lon="10.0922703"><ele>149.0</ele><time>2026-04-26T16:22:42.779Z</time></trkpt><trkpt lat="44.6786792" lon="10.0924236"><ele>149.0</ele><time>2026-04-26T16:22:43.779Z</time></trkpt><trkpt lat="44.6787363" lon="10.0925726"><ele>148.6</ele><time>2026-04-26T16:22:44.78Z</time></trkpt><trkpt lat="44.6787918" lon="10.092715"><ele>148.2</ele><time>2026-04-26T16:22:45.779Z</time></trkpt><trkpt lat="44.6788404" lon="10.0928561"><ele>147.79999999999998</ele><time>2026-04-26T16:22:46.78Z</time></trkpt><trkpt lat="44.6788844" lon="10.0929832"><ele>147.4</ele><time>2026-04-26T16:22:47.779Z</time></trkpt><trkpt lat="44.6789318" lon="10.0930977"><ele>147.0</ele><time>2026-04-26T16:22:48.78Z</time></trkpt><trkpt lat="44.6789698" lon="10.0932061"><ele>147.16666666666666</ele><time>2026-04-26T16:22:49.779Z</time></trkpt><trkpt lat="44.6790086" lon="10.0933068"><ele>147.33333333333334</ele><time>2026-04-26T16:22:50.78Z</time></trkpt><trkpt lat="44.6790459" lon="10.0934134"><ele>147.5</ele><time>2026-04-26T16:22:51.779Z</time></trkpt><trkpt lat="44.6790839" lon="10.0935142"><ele>147.66666666666669</ele><time>2026-04-26T16:22:52.78Z</time></trkpt><trkpt lat="44.6791081" lon="10.0936135"><ele>147.83333333333334</ele><time>2026-04-26T16:22:53.779Z</time></trkpt><trkpt lat="44.6791308" lon="10.0937079"><ele>148.0</ele><time>2026-04-26T16:22:54.779Z</time></trkpt><trkpt lat="44.6791427" lon="10.0938759"><ele>148.0</ele><time>2026-04-26T16:22:56.779Z</time></trkpt><trkpt lat="44.6791384" lon="10.0940213"><ele>148.0</ele><time>2026-04-26T16:22:58.779Z</time></trkpt><trkpt lat="44.6791121" lon="10.0941655"><ele>148.0</ele><time>2026-04-26T16:23:00.779Z</time></trkpt><trkpt lat="44.6790946" lon="10.0942551"><ele>148.0</ele><time>2026-04-26T16:23:01.78Z</time></trkpt><trkpt lat="44.679092" lon="10.094344"><ele>148.0</ele><time>2026-04-26T16:23:02.779Z</time></trkpt><trkpt lat="44.679165" lon="10.0944701"><ele>148.0</ele><time>2026-04-26T16:23:04.779Z</time></trkpt><trkpt lat="44.6793012" lon="10.0944941"><ele>148.0</ele><time>2026-04-26T16:23:06.779Z</time></trkpt><trkpt lat="44.679388" lon="10.0945172"><ele>148.0</ele><time>2026-04-26T16:23:07.78Z</time></trkpt><trkpt lat="44.6794929" lon="10.0945581"><ele>148.0</ele><time>2026-04-26T16:23:08.779Z</time></trkpt><trkpt lat="44.6796114" lon="10.0946188"><ele>148.0</ele><time>2026-04-26T16:23:09.78Z</time></trkpt><trkpt lat="44.6797504" lon="10.0947067"><ele>148.0</ele><time>2026-04-26T16:23:10.78Z</time></trkpt><trkpt lat="44.6798928" lon="10.094805"><ele>148.0</ele><time>2026-04-26T16:23:11.779Z</time></trkpt><trkpt lat="44.6800443" lon="10.0949089"><ele>147.66666666666669</ele><time>2026-04-26T16:23:12.78Z</time></trkpt><trkpt lat="44.6802014" lon="10.0950066"><ele>147.33333333333334</ele><time>2026-04-26T16:23:13.779Z</time></trkpt><trkpt lat="44.6803657" lon="10.0951076"><ele>147.0</ele><time>2026-04-26T16:23:14.78Z</time></trkpt><trkpt lat="44.6805357" lon="10.0952038"><ele>146.33333333333334</ele><time>2026-04-26T16:23:15.779Z</time></trkpt><trkpt lat="44.6806962" lon="10.0952931"><ele>145.66666666666669</ele><time>2026-04-26T16:23:16.779Z</time></trkpt><trkpt lat="44.6808467" lon="10.0953731"><ele>145.0</ele><time>2026-04-26T16:23:17.78Z</time></trkpt><trkpt lat="44.6809953" lon="10.0954487"><ele>145.33333333333334</ele><time>2026-04-26T16:23:18.779Z</time></trkpt><trkpt lat="44.6811388" lon="10.0955134"><ele>145.66666666666666</ele><time>2026-04-26T16:23:19.78Z</time></trkpt><trkpt lat="44.6812847" lon="10.095579"><ele>146.0</ele><time>2026-04-26T16:23:20.779Z</time></trkpt><trkpt lat="44.6814265" lon="10.0956388"><ele>146.0</ele><time>2026-04-26T16:23:21.779Z</time></trkpt><trkpt lat="44.6815744" lon="10.095692"><ele>146.0</ele><time>2026-04-26T16:23:22.78Z</time></trkpt><trkpt lat="44.6817304" lon="10.0957435"><ele>146.0</ele><time>2026-04-26T16:23:23.779Z</time></trkpt><trkpt lat="44.6818831" lon="10.0957884"><ele>146.75</ele><time>2026-04-26T16:23:24.78Z</time></trkpt><trkpt lat="44.682027" lon="10.0958213"><ele>147.5</ele><time>2026-04-26T16:23:25.78Z</time></trkpt><trkpt lat="44.6821615" lon="10.0958572"><ele>148.25</ele><time>2026-04-26T16:23:26.779Z</time></trkpt><trkpt lat="44.6822989" lon="10.0958836"><ele>149.0</ele><time>2026-04-26T16:23:27.78Z</time></trkpt><trkpt lat="44.6824342" lon="10.0959152"><ele>149.0</ele><time>2026-04-26T16:23:28.779Z</time></trkpt><trkpt lat="44.6825667" lon="10.0959432"><ele>149.0</ele><time>2026-04-26T16:23:29.78Z</time></trkpt><trkpt lat="44.6827123" lon="10.0959726"><ele>149.0</ele><time>2026-04-26T16:23:30.779Z</time></trkpt><trkpt lat="44.6828763" lon="10.0960047"><ele>149.0</ele><time>2026-04-26T16:23:31.78Z</time></trkpt><trkpt lat="44.683065" lon="10.0960425"><ele>148.0</ele><time>2026-04-26T16:23:32.779Z</time></trkpt><trkpt lat="44.6832686" lon="10.0960908"><ele>147.0</ele><time>2026-04-26T16:23:33.78Z</time></trkpt><trkpt lat="44.6834756" lon="10.0961356"><ele>146.0</ele><time>2026-04-26T16:23:34.779Z</time></trkpt><trkpt lat="44.6836732" lon="10.0961807"><ele>146.0</ele><time>2026-04-26T16:23:35.78Z</time></trkpt><trkpt lat="44.6838603" lon="10.0962277"><ele>146.0</ele><time>2026-04-26T16:23:36.78Z</time></trkpt><trkpt lat="44.6840339" lon="10.0962689"><ele>146.0</ele><time>2026-04-26T16:23:37.779Z</time></trkpt><trkpt lat="44.6842007" lon="10.0963126"><ele>146.0</ele><time>2026-04-26T16:23:38.78Z</time></trkpt><trkpt lat="44.6843572" lon="10.0963535"><ele>146.0</ele><time>2026-04-26T16:23:39.779Z</time></trkpt><trkpt lat="44.6845072" lon="10.0963817"><ele>146.0</ele><time>2026-04-26T16:23:40.78Z</time></trkpt><trkpt lat="44.6846448" lon="10.0964131"><ele>145.75</ele><time>2026-04-26T16:23:41.779Z</time></trkpt><trkpt lat="44.6847843" lon="10.0964408"><ele>145.5</ele><time>2026-04-26T16:23:42.78Z</time></trkpt><trkpt lat="44.6849268" lon="10.0964748"><ele>145.25</ele><time>2026-04-26T16:23:43.779Z</time></trkpt><trkpt lat="44.6850765" lon="10.0965047"><ele>145.0</ele><time>2026-04-26T16:23:44.779Z</time></trkpt><trkpt lat="44.6852288" lon="10.0965337"><ele>144.66666666666669</ele><time>2026-04-26T16:23:45.78Z</time></trkpt><trkpt lat="44.6853983" lon="10.0965618"><ele>144.33333333333334</ele><time>2026-04-26T16:23:46.779Z</time></trkpt><trkpt lat="44.6855867" lon="10.0966008"><ele>144.0</ele><time>2026-04-26T16:23:47.779Z</time></trkpt><trkpt lat="44.6857876" lon="10.0966522"><ele>144.33333333333334</ele><time>2026-04-26T16:23:48.778Z</time></trkpt><trkpt lat="44.685991" lon="10.0967095"><ele>144.66666666666669</ele><time>2026-04-26T16:23:49.778Z</time></trkpt><trkpt lat="44.6861866" lon="10.0967564"><ele>145.0</ele><time>2026-04-26T16:23:50.779Z</time></trkpt><trkpt lat="44.6863753" lon="10.0967988"><ele>145.0</ele><time>2026-04-26T16:23:51.778Z</time></trkpt><trkpt lat="44.6865544" lon="10.096839"><ele>145.0</ele><time>2026-04-26T16:23:52.779Z</time></trkpt><trkpt lat="44.6867331" lon="10.0968835"><ele>145.0</ele><time>2026-04-26T16:23:53.778Z</time></trkpt><trkpt lat="44.6869192" lon="10.0969212"><ele>144.0</ele><time>2026-04-26T16:23:54.779Z</time></trkpt><trkpt lat="44.6871155" lon="10.0969531"><ele>143.0</ele><time>2026-04-26T16:23:55.778Z</time></trkpt><trkpt lat="44.687331" lon="10.0969841"><ele>142.0</ele><time>2026-04-26T16:23:56.779Z</time></trkpt><trkpt lat="44.6875606" lon="10.0970351"><ele>141.5</ele><time>2026-04-26T16:23:57.778Z</time></trkpt><trkpt lat="44.6877917" lon="10.0971001"><ele>141.0</ele><time>2026-04-26T16:23:58.778Z</time></trkpt><trkpt lat="44.6880206" lon="10.0971568"><ele>141.0</ele><time>2026-04-26T16:23:59.778Z</time></trkpt><trkpt lat="44.6882332" lon="10.0972031"><ele>141.0</ele><time>2026-04-26T16:24:00.78Z</time></trkpt><trkpt lat="44.688423" lon="10.0972472"><ele>141.0</ele><time>2026-04-26T16:24:01.778Z</time></trkpt><trkpt lat="44.6886016" lon="10.0972911"><ele>141.0</ele><time>2026-04-26T16:24:02.779Z</time></trkpt><trkpt lat="44.6887633" lon="10.0973304"><ele>141.0</ele><time>2026-04-26T16:24:03.778Z</time></trkpt><trkpt lat="44.6889131" lon="10.0973681"><ele>141.0</ele><time>2026-04-26T16:24:04.779Z</time></trkpt><trkpt lat="44.6890508" lon="10.0974062"><ele>143.0</ele><time>2026-04-26T16:24:05.778Z</time></trkpt><trkpt lat="44.6891758" lon="10.0974432"><ele>145.0</ele><time>2026-04-26T16:24:06.779Z</time></trkpt><trkpt lat="44.6892887" lon="10.0974687"><ele>147.0</ele><time>2026-04-26T16:24:07.778Z</time></trkpt><trkpt lat="44.6893879" lon="10.0974968"><ele>149.0</ele><time>2026-04-26T16:24:08.778Z</time></trkpt><trkpt lat="44.6894737" lon="10.0975218"><ele>151.0</ele><time>2026-04-26T16:24:09.779Z</time></trkpt><trkpt lat="44.6895608" lon="10.0975559"><ele>151.66666666666669</ele><time>2026-04-26T16:24:10.778Z</time></trkpt><trkpt lat="44.6896499" lon="10.0975986"><ele>152.33333333333334</ele><time>2026-04-26T16:24:11.78Z</time></trkpt><trkpt lat="44.689727" lon="10.0976466"><ele>153.0</ele><time>2026-04-26T16:24:12.778Z</time></trkpt><trkpt lat="44.6897926" lon="10.0977064"><ele>153.66666666666666</ele><time>2026-04-26T16:24:13.78Z</time></trkpt><trkpt lat="44.6898563" lon="10.0977746"><ele>154.33333333333331</ele><time>2026-04-26T16:24:14.778Z</time></trkpt><trkpt lat="44.6899154" lon="10.0978597"><ele>155.0</ele><time>2026-04-26T16:24:15.779Z</time></trkpt><trkpt lat="44.6899687" lon="10.0979455"><ele>155.0</ele><time>2026-04-26T16:24:16.778Z</time></trkpt><trkpt lat="44.6900177" lon="10.098028"><ele>155.0</ele><time>2026-04-26T16:24:17.779Z</time></trkpt><trkpt lat="44.6900609" lon="10.0981066"><ele>155.0</ele><time>2026-04-26T16:24:18.778Z</time></trkpt><trkpt lat="44.6901" lon="10.0981943"><ele>155.0</ele><time>2026-04-26T16:24:19.778Z</time></trkpt><trkpt lat="44.6901307" lon="10.0982881"><ele>155.0</ele><time>2026-04-26T16:24:20.778Z</time></trkpt><trkpt lat="44.6901486" lon="10.098433"><ele>155.0</ele><time>2026-04-26T16:24:22.778Z</time></trkpt><trkpt lat="44.6900759" lon="10.0985281"><ele>155.66666666666666</ele><time>2026-04-26T16:24:24.778Z</time></trkpt><trkpt lat="44.6900029" lon="10.0986009"><ele>156.33333333333331</ele><time>2026-04-26T16:24:25.778Z</time></trkpt><trkpt lat="44.6899298" lon="10.0986876"><ele>157.0</ele><time>2026-04-26T16:24:26.779Z</time></trkpt><trkpt lat="44.6898476" lon="10.0987697"><ele>157.66666666666666</ele><time>2026-04-26T16:24:27.778Z</time></trkpt><trkpt lat="44.6897839" lon="10.0988388"><ele>158.33333333333334</ele><time>2026-04-26T16:24:28.778Z</time></trkpt><trkpt lat="44.68974" lon="10.0989024"><ele>159.0</ele><time>2026-04-26T16:24:29.779Z</time></trkpt><trkpt lat="44.6897015" lon="10.0989904"><ele>159.5</ele><time>2026-04-26T16:24:31.778Z</time></trkpt><trkpt lat="44.6897177" lon="10.0990912"><ele>160.0</ele><time>2026-04-26T16:24:38.779Z</time></trkpt><trkpt lat="44.6897527" lon="10.0991732"><ele>160.5</ele><time>2026-04-26T16:24:39.778Z</time></trkpt><trkpt lat="44.6898088" lon="10.0992837"><ele>161.0</ele><time>2026-04-26T16:24:40.779Z</time></trkpt><trkpt lat="44.689866" lon="10.099376"><ele>161.5</ele><time>2026-04-26T16:24:41.778Z</time></trkpt><trkpt lat="44.6899049" lon="10.0994546"><ele>162.0</ele><time>2026-04-26T16:24:42.778Z</time></trkpt><trkpt lat="44.6899401" lon="10.0995312"><ele>162.0</ele><time>2026-04-26T16:24:44.778Z</time></trkpt><trkpt lat="44.6899944" lon="10.0996112"><ele>162.0</ele><time>2026-04-26T16:25:02.778Z</time></trkpt><trkpt lat="44.6900705" lon="10.0997446"><ele>162.0</ele><time>2026-04-26T16:25:04.78Z</time></trkpt><trkpt lat="44.6901105" lon="10.0998251"><ele>162.0</ele><time>2026-04-26T16:25:05.778Z</time></trkpt><trkpt lat="44.6901785" lon="10.0999815"><ele>162.0</ele><time>2026-04-26T16:25:07.779Z</time></trkpt><trkpt lat="44.6902328" lon="10.1001239"><ele>161.2</ele><time>2026-04-26T16:25:08.779Z</time></trkpt><trkpt lat="44.6902809" lon="10.1002493"><ele>160.39999999999998</ele><time>2026-04-26T16:25:09.779Z</time></trkpt><trkpt lat="44.6903278" lon="10.1003589"><ele>159.60000000000002</ele><time>2026-04-26T16:25:10.778Z</time></trkpt><trkpt lat="44.6903727" lon="10.1004617"><ele>158.8</ele><time>2026-04-26T16:25:11.779Z</time></trkpt><trkpt lat="44.6904219" lon="10.1005826"><ele>158.0</ele><time>2026-04-26T16:25:12.778Z</time></trkpt><trkpt lat="44.6904993" lon="10.100724"><ele>158.5</ele><time>2026-04-26T16:25:14.778Z</time></trkpt><trkpt lat="44.6905715" lon="10.1008542"><ele>159.0</ele><time>2026-04-26T16:25:16.778Z</time></trkpt><trkpt lat="44.6906139" lon="10.1009565"><ele>159.5</ele><time>2026-04-26T16:25:18.778Z</time></trkpt><trkpt lat="44.6906689" lon="10.1010375"><ele>160.0</ele><time>2026-04-26T16:26:33.778Z</time></trkpt><trkpt lat="44.6907279" lon="10.1010912"><ele>160.5</ele><time>2026-04-26T16:26:35.779Z</time></trkpt><trkpt lat="44.690799" lon="10.1010415"><ele>161.0</ele><time>2026-04-26T16:26:38.779Z</time></trkpt><trkpt lat="44.6907672" lon="10.100859"><ele>161.0</ele><time>2026-04-26T16:26:40.778Z</time></trkpt><trkpt lat="44.690741" lon="10.1007669"><ele>161.0</ele><time>2026-04-26T16:26:41.779Z</time></trkpt><trkpt lat="44.6907172" lon="10.1006479"><ele>161.0</ele><time>2026-04-26T16:26:42.778Z</time></trkpt><trkpt lat="44.6906781" lon="10.1005063"><ele>161.0</ele><time>2026-04-26T16:26:43.778Z</time></trkpt><trkpt lat="44.690644" lon="10.1003606"><ele>161.0</ele><time>2026-04-26T16:26:44.779Z</time></trkpt><trkpt lat="44.6906054" lon="10.1001977"><ele>160.25</ele><time>2026-04-26T16:26:45.778Z</time></trkpt><trkpt lat="44.6905651" lon="10.1000217"><ele>159.5</ele><time>2026-04-26T16:26:46.779Z</time></trkpt><trkpt lat="44.6905243" lon="10.0998488"><ele>158.75</ele><time>2026-04-26T16:26:47.778Z</time></trkpt><trkpt lat="44.6904872" lon="10.0996935"><ele>158.0</ele><time>2026-04-26T16:26:48.778Z</time></trkpt><trkpt lat="44.6904559" lon="10.0995576"><ele>157.4</ele><time>2026-04-26T16:26:49.779Z</time></trkpt><trkpt lat="44.6904294" lon="10.0994408"><ele>156.8</ele><time>2026-04-26T16:26:50.778Z</time></trkpt><trkpt lat="44.6904062" lon="10.0993385"><ele>156.2</ele><time>2026-04-26T16:26:51.778Z</time></trkpt><trkpt lat="44.690348" lon="10.0992083"><ele>155.6</ele><time>2026-04-26T16:26:53.779Z</time></trkpt><trkpt lat="44.6902768" lon="10.0992166"><ele>155.0</ele><time>2026-04-26T16:26:55.778Z</time></trkpt><trkpt lat="44.6901868" lon="10.0993319"><ele>156.75</ele><time>2026-04-26T16:26:56.779Z</time></trkpt><trkpt lat="44.6901" lon="10.09941"><ele>158.5</ele><time>2026-04-26T16:26:57.778Z</time></trkpt><trkpt lat="44.6900037" lon="10.0995059"><ele>160.25</ele><time>2026-04-26T16:26:58.778Z</time></trkpt><trkpt lat="44.6899062" lon="10.0995961"><ele>162.0</ele><time>2026-04-26T16:26:59.779Z</time></trkpt><trkpt lat="44.6898003" lon="10.0996861"><ele>162.0</ele><time>2026-04-26T16:27:00.778Z</time></trkpt><trkpt lat="44.6896908" lon="10.0997821"><ele>162.0</ele><time>2026-04-26T16:27:01.778Z</time></trkpt><trkpt lat="44.689579" lon="10.0998783"><ele>162.0</ele><time>2026-04-26T16:27:02.779Z</time></trkpt><trkpt lat="44.6894641" lon="10.0999791"><ele>162.0</ele><time>2026-04-26T16:27:03.778Z</time></trkpt><trkpt lat="44.6893485" lon="10.100086"><ele>163.75</ele><time>2026-04-26T16:27:04.779Z</time></trkpt><trkpt lat="44.6892401" lon="10.100206"><ele>165.5</ele><time>2026-04-26T16:27:05.778Z</time></trkpt><trkpt lat="44.6891409" lon="10.1003443"><ele>167.25</ele><time>2026-04-26T16:27:06.779Z</time></trkpt><trkpt lat="44.6890623" lon="10.1005005"><ele>169.0</ele><time>2026-04-26T16:27:07.778Z</time></trkpt><trkpt lat="44.6889987" lon="10.1006437"><ele>170.0</ele><time>2026-04-26T16:27:08.779Z</time></trkpt><trkpt lat="44.689033" lon="10.1008034"><ele>171.0</ele><time>2026-04-26T16:27:09.778Z</time></trkpt><trkpt lat="44.6890655" lon="10.1009448"><ele>172.0</ele><time>2026-04-26T16:27:10.779Z</time></trkpt><trkpt lat="44.6891047" lon="10.1011"><ele>173.0</ele><time>2026-04-26T16:27:11.778Z</time></trkpt><trkpt lat="44.689143" lon="10.1012361"><ele>174.0</ele><time>2026-04-26T16:27:12.778Z</time></trkpt><trkpt lat="44.6891924" lon="10.1013585"><ele>174.0</ele><time>2026-04-26T16:27:13.778Z</time></trkpt><trkpt lat="44.6892548" lon="10.101462"><ele>174.0</ele><time>2026-04-26T16:27:14.778Z</time></trkpt><trkpt lat="44.689321" lon="10.1015602"><ele>174.0</ele><time>2026-04-26T16:27:15.779Z</time></trkpt><trkpt lat="44.6893665" lon="10.1016667"><ele>174.0</ele><time>2026-04-26T16:27:16.778Z</time></trkpt><trkpt lat="44.6893763" lon="10.1017666"><ele>174.0</ele><time>2026-04-26T16:27:17.778Z</time></trkpt><trkpt lat="44.6893085" lon="10.1018421"><ele>174.0</ele><time>2026-04-26T16:27:19.778Z</time></trkpt><trkpt lat="44.6892432" lon="10.1018462"><ele>176.0</ele><time>2026-04-26T16:27:20.78Z</time></trkpt><trkpt lat="44.6891618" lon="10.1018349"><ele>178.0</ele><time>2026-04-26T16:27:21.778Z</time></trkpt><trkpt lat="44.689055" lon="10.1018368"><ele>180.0</ele><time>2026-04-26T16:27:22.779Z</time></trkpt><trkpt lat="44.6889516" lon="10.1018543"><ele>182.0</ele><time>2026-04-26T16:27:23.778Z</time></trkpt><trkpt lat="44.6888437" lon="10.1018821"><ele>184.0</ele><time>2026-04-26T16:27:24.779Z</time></trkpt><trkpt lat="44.6887301" lon="10.1019185"><ele>184.0</ele><time>2026-04-26T16:27:25.778Z</time></trkpt><trkpt lat="44.6886089" lon="10.1019682"><ele>184.0</ele><time>2026-04-26T16:27:26.779Z</time></trkpt><trkpt lat="44.6884836" lon="10.1020263"><ele>184.0</ele><time>2026-04-26T16:27:27.779Z</time></trkpt><trkpt lat="44.6883585" lon="10.102095"><ele>184.0</ele><time>2026-04-26T16:27:28.778Z</time></trkpt><trkpt lat="44.6882209" lon="10.1021493"><ele>184.33333333333334</ele><time>2026-04-26T16:27:29.778Z</time></trkpt><trkpt lat="44.6880987" lon="10.1022249"><ele>184.66666666666669</ele><time>2026-04-26T16:27:30.778Z</time></trkpt><trkpt lat="44.6880249" lon="10.1022668"><ele>185.0</ele><time>2026-04-26T16:27:31.779Z</time></trkpt><trkpt lat="44.6879712" lon="10.1023298"><ele>185.33333333333334</ele><time>2026-04-26T16:27:32.778Z</time></trkpt><trkpt lat="44.6879375" lon="10.1024279"><ele>185.66666666666666</ele><time>2026-04-26T16:27:33.779Z</time></trkpt><trkpt lat="44.6878972" lon="10.1025261"><ele>186.0</ele><time>2026-04-26T16:27:34.778Z</time></trkpt><trkpt lat="44.6879875" lon="10.1026305"><ele>191.5</ele><time>2026-04-26T16:27:36.779Z</time></trkpt><trkpt lat="44.688314" lon="10.1026172"><ele>197.0</ele><time>2026-04-26T16:27:37.778Z</time></trkpt><trkpt lat="44.6884387" lon="10.1026365"><ele>197.0</ele><time>2026-04-26T16:27:38.778Z</time></trkpt><trkpt lat="44.688554" lon="10.1026494"><ele>197.0</ele><time>2026-04-26T16:27:39.778Z</time></trkpt><trkpt lat="44.6886749" lon="10.1026661"><ele>197.0</ele><time>2026-04-26T16:27:40.778Z</time></trkpt><trkpt lat="44.6887757" lon="10.1026297"><ele>197.0</ele><time>2026-04-26T16:27:41.778Z</time></trkpt><trkpt lat="44.6888599" lon="10.1025721"><ele>197.0</ele><time>2026-04-26T16:27:42.779Z</time></trkpt><trkpt lat="44.6889396" lon="10.102563"><ele>197.0</ele><time>2026-04-26T16:27:43.778Z</time></trkpt><trkpt lat="44.6889846" lon="10.1026622"><ele>197.0</ele><time>2026-04-26T16:27:45.779Z</time></trkpt><trkpt lat="44.6888948" lon="10.1027829"><ele>197.0</ele><time>2026-04-26T16:27:47.779Z</time></trkpt><trkpt lat="44.6888089" lon="10.1028441"><ele>197.0</ele><time>2026-04-26T16:27:48.778Z</time></trkpt><trkpt lat="44.6886982" lon="10.102908"><ele>197.0</ele><time>2026-04-26T16:27:49.778Z</time></trkpt><trkpt lat="44.6885907" lon="10.102976"><ele>197.0</ele><time>2026-04-26T16:27:50.78Z</time></trkpt><trkpt lat="44.6884676" lon="10.1030559"><ele>197.0</ele><time>2026-04-26T16:27:51.778Z</time></trkpt><trkpt lat="44.6883477" lon="10.1031488"><ele>197.0</ele><time>2026-04-26T16:27:52.779Z</time></trkpt><trkpt lat="44.6882384" lon="10.1032732"><ele>197.0</ele><time>2026-04-26T16:27:53.778Z</time></trkpt><trkpt lat="44.6881591" lon="10.1033949"><ele>199.2</ele><time>2026-04-26T16:27:54.779Z</time></trkpt><trkpt lat="44.6880965" lon="10.1035169"><ele>201.39999999999998</ele><time>2026-04-26T16:27:55.778Z</time></trkpt><trkpt lat="44.6880405" lon="10.1036143"><ele>203.60000000000002</ele><time>2026-04-26T16:27:56.779Z</time></trkpt><trkpt lat="44.6879632" lon="10.1036892"><ele>205.8</ele><time>2026-04-26T16:27:57.778Z</time></trkpt><trkpt lat="44.6878741" lon="10.1037547"><ele>208.0</ele><time>2026-04-26T16:27:58.779Z</time></trkpt><trkpt lat="44.6877743" lon="10.1038163"><ele>208.2</ele><time>2026-04-26T16:27:59.778Z</time></trkpt><trkpt lat="44.6876736" lon="10.1038852"><ele>208.4</ele><time>2026-04-26T16:28:00.778Z</time></trkpt><trkpt lat="44.6875667" lon="10.1039465"><ele>208.6</ele><time>2026-04-26T16:28:01.779Z</time></trkpt><trkpt lat="44.6874644" lon="10.1040067"><ele>208.79999999999998</ele><time>2026-04-26T16:28:02.778Z</time></trkpt><trkpt lat="44.6873653" lon="10.1040548"><ele>209.0</ele><time>2026-04-26T16:28:03.779Z</time></trkpt><trkpt lat="44.6872852" lon="10.1041129"><ele>211.6</ele><time>2026-04-26T16:28:04.778Z</time></trkpt><trkpt lat="44.6872146" lon="10.1041537"><ele>214.2</ele><time>2026-04-26T16:28:05.778Z</time></trkpt><trkpt lat="44.6871687" lon="10.1042832"><ele>216.79999999999998</ele><time>2026-04-26T16:28:07.778Z</time></trkpt><trkpt lat="44.6872625" lon="10.1043974"><ele>219.39999999999998</ele><time>2026-04-26T16:28:09.778Z</time></trkpt><trkpt lat="44.6873475" lon="10.1044146"><ele>222.0</ele><time>2026-04-26T16:28:10.778Z</time></trkpt><trkpt lat="44.6874594" lon="10.1044274"><ele>222.0</ele><time>2026-04-26T16:28:11.779Z</time></trkpt><trkpt lat="44.6875728" lon="10.1044393"><ele>222.0</ele><time>2026-04-26T16:28:12.777Z</time></trkpt><trkpt lat="44.6876937" lon="10.1044501"><ele>222.0</ele><time>2026-04-26T16:28:13.778Z</time></trkpt><trkpt lat="44.6878184" lon="10.1044605"><ele>222.0</ele><time>2026-04-26T16:28:14.777Z</time></trkpt><trkpt lat="44.6879504" lon="10.1044665"><ele>222.25</ele><time>2026-04-26T16:28:15.778Z</time></trkpt><trkpt lat="44.6880825" lon="10.1044694"><ele>222.5</ele><time>2026-04-26T16:28:16.777Z</time></trkpt><trkpt lat="44.6882078" lon="10.1044637"><ele>222.75</ele><time>2026-04-26T16:28:17.777Z</time></trkpt><trkpt lat="44.6883278" lon="10.1044674"><ele>223.0</ele><time>2026-04-26T16:28:18.778Z</time></trkpt><trkpt lat="44.6884385" lon="10.1044914"><ele>223.0</ele><time>2026-04-26T16:28:19.777Z</time></trkpt><trkpt lat="44.6885366" lon="10.1045429"><ele>223.0</ele><time>2026-04-26T16:28:20.777Z</time></trkpt><trkpt lat="44.68863" lon="10.1046023"><ele>223.0</ele><time>2026-04-26T16:28:21.778Z</time></trkpt><trkpt lat="44.6887226" lon="10.1046436"><ele>223.0</ele><time>2026-04-26T16:28:22.777Z</time></trkpt><trkpt lat="44.6888118" lon="10.1046636"><ele>223.0</ele><time>2026-04-26T16:28:23.778Z</time></trkpt><trkpt lat="44.6888823" lon="10.1046938"><ele>223.0</ele><time>2026-04-26T16:28:24.777Z</time></trkpt><trkpt lat="44.6889207" lon="10.1048301"><ele>223.0</ele><time>2026-04-26T16:28:26.777Z</time></trkpt><trkpt lat="44.6888195" lon="10.1048974"><ele>223.0</ele><time>2026-04-26T16:28:28.777Z</time></trkpt><trkpt lat="44.6887377" lon="10.1048765"><ele>223.0</ele><time>2026-04-26T16:28:29.777Z</time></trkpt><trkpt lat="44.6886553" lon="10.1048539"><ele>223.0</ele><time>2026-04-26T16:28:30.778Z</time></trkpt><trkpt lat="44.6885719" lon="10.1048456"><ele>222.99999999999997</ele><time>2026-04-26T16:28:31.777Z</time></trkpt><trkpt lat="44.6884946" lon="10.1048564"><ele>223.0</ele><time>2026-04-26T16:28:32.777Z</time></trkpt><trkpt lat="44.688415" lon="10.1049113"><ele>223.0</ele><time>2026-04-26T16:28:33.778Z</time></trkpt><trkpt lat="44.6883524" lon="10.1049986"><ele>223.0</ele><time>2026-04-26T16:28:34.777Z</time></trkpt><trkpt lat="44.6882913" lon="10.10509"><ele>222.99999999999997</ele><time>2026-04-26T16:28:35.778Z</time></trkpt><trkpt lat="44.6882438" lon="10.1052135"><ele>223.0</ele><time>2026-04-26T16:28:36.777Z</time></trkpt><trkpt lat="44.6881848" lon="10.1053107"><ele>225.99999999999997</ele><time>2026-04-26T16:28:37.779Z</time></trkpt><trkpt lat="44.6881238" lon="10.1053833"><ele>229.0</ele><time>2026-04-26T16:28:38.777Z</time></trkpt><trkpt lat="44.6880659" lon="10.1054395"><ele>232.0</ele><time>2026-04-26T16:28:39.778Z</time></trkpt><trkpt lat="44.6879545" lon="10.1054998"><ele>235.0</ele><time>2026-04-26T16:28:41.778Z</time></trkpt><trkpt lat="44.6878871" lon="10.1055233"><ele>237.99999999999997</ele><time>2026-04-26T16:28:42.777Z</time></trkpt><trkpt lat="44.6878063" lon="10.1055469"><ele>241.0</ele><time>2026-04-26T16:28:43.777Z</time></trkpt><trkpt lat="44.6877169" lon="10.105572"><ele>240.99999999999997</ele><time>2026-04-26T16:28:44.778Z</time></trkpt><trkpt lat="44.6876165" lon="10.105592"><ele>241.0</ele><time>2026-04-26T16:28:45.777Z</time></trkpt><trkpt lat="44.6875182" lon="10.1056088"><ele>241.0</ele><time>2026-04-26T16:28:46.777Z</time></trkpt><trkpt lat="44.6874338" lon="10.1056171"><ele>241.0</ele><time>2026-04-26T16:28:47.778Z</time></trkpt><trkpt lat="44.6873538" lon="10.1056363"><ele>240.99999999999997</ele><time>2026-04-26T16:28:48.777Z</time></trkpt><trkpt lat="44.6872876" lon="10.1056596"><ele>241.0</ele><time>2026-04-26T16:28:49.778Z</time></trkpt><trkpt lat="44.687294" lon="10.1057678"><ele>244.8</ele><time>2026-04-26T16:28:51.777Z</time></trkpt><trkpt lat="44.6873343" lon="10.1058383"><ele>248.60000000000002</ele><time>2026-04-26T16:28:53.777Z</time></trkpt><trkpt lat="44.6874336" lon="10.105874"><ele>252.4</ele><time>2026-04-26T16:28:54.777Z</time></trkpt><trkpt lat="44.6875845" lon="10.1058708"><ele>256.2</ele><time>2026-04-26T16:28:55.778Z</time></trkpt><trkpt lat="44.687662" lon="10.1059513"><ele>260.0</ele><time>2026-04-26T16:28:57.778Z</time></trkpt><trkpt lat="44.6876086" lon="10.1060153"><ele>260.0</ele><time>2026-04-26T16:28:59.777Z</time></trkpt><trkpt lat="44.6875307" lon="10.1060063"><ele>260.0</ele><time>2026-04-26T16:29:00.777Z</time></trkpt><trkpt lat="44.6874536" lon="10.1060242"><ele>260.0</ele><time>2026-04-26T16:29:01.778Z</time></trkpt><trkpt lat="44.6873832" lon="10.1060735"><ele>260.0</ele><time>2026-04-26T16:29:02.777Z</time></trkpt><trkpt lat="44.6873282" lon="10.1061638"><ele>260.0</ele><time>2026-04-26T16:29:03.777Z</time></trkpt><trkpt lat="44.6872674" lon="10.1062708"><ele>260.0</ele><time>2026-04-26T16:29:04.777Z</time></trkpt><trkpt lat="44.6872152" lon="10.106421"><ele>262.0</ele><time>2026-04-26T16:29:05.778Z</time></trkpt><trkpt lat="44.687157" lon="10.1066464"><ele>264.0</ele><time>2026-04-26T16:29:06.778Z</time></trkpt><trkpt lat="44.6871034" lon="10.1068207"><ele>266.0</ele><time>2026-04-26T16:29:07.777Z</time></trkpt><trkpt lat="44.6870485" lon="10.1069891"><ele>268.0</ele><time>2026-04-26T16:29:08.777Z</time></trkpt><trkpt lat="44.6869935" lon="10.107171"><ele>268.0</ele><time>2026-04-26T16:29:09.778Z</time></trkpt><trkpt lat="44.6869335" lon="10.1073513"><ele>268.0</ele><time>2026-04-26T16:29:10.777Z</time></trkpt><trkpt lat="44.6868714" lon="10.107507"><ele>268.0</ele><time>2026-04-26T16:29:11.779Z</time></trkpt><trkpt lat="44.6867897" lon="10.107649"><ele>268.0</ele><time>2026-04-26T16:29:12.777Z</time></trkpt><trkpt lat="44.6866785" lon="10.1077764"><ele>269.0</ele><time>2026-04-26T16:29:13.778Z</time></trkpt><trkpt lat="44.6865436" lon="10.107876"><ele>270.0</ele><time>2026-04-26T16:29:14.778Z</time></trkpt><trkpt lat="44.686389" lon="10.1079686"><ele>271.0</ele><time>2026-04-26T16:29:15.777Z</time></trkpt><trkpt lat="44.6862395" lon="10.1080615"><ele>271.3333333333333</ele><time>2026-04-26T16:29:16.779Z</time></trkpt><trkpt lat="44.6860846" lon="10.1081568"><ele>271.6666666666667</ele><time>2026-04-26T16:29:17.777Z</time></trkpt><trkpt lat="44.6859223" lon="10.1082538"><ele>272.0</ele><time>2026-04-26T16:29:18.777Z</time></trkpt><trkpt lat="44.685766" lon="10.1083504"><ele>274.33333333333337</ele><time>2026-04-26T16:29:19.778Z</time></trkpt><trkpt lat="44.6856115" lon="10.1084473"><ele>276.6666666666667</ele><time>2026-04-26T16:29:20.777Z</time></trkpt><trkpt lat="44.6854573" lon="10.1085404"><ele>279.0</ele><time>2026-04-26T16:29:21.777Z</time></trkpt><trkpt lat="44.6853048" lon="10.1086347"><ele>280.6666666666667</ele><time>2026-04-26T16:29:22.777Z</time></trkpt><trkpt lat="44.6851503" lon="10.1087276"><ele>282.33333333333337</ele><time>2026-04-26T16:29:23.777Z</time></trkpt><trkpt lat="44.6849922" lon="10.1088177"><ele>284.0</ele><time>2026-04-26T16:29:24.778Z</time></trkpt><trkpt lat="44.6848328" lon="10.1089177"><ele>284.0</ele><time>2026-04-26T16:29:25.777Z</time></trkpt><trkpt lat="44.6846696" lon="10.1090158"><ele>284.0</ele><time>2026-04-26T16:29:26.777Z</time></trkpt><trkpt lat="44.6845049" lon="10.1091156"><ele>284.0</ele><time>2026-04-26T16:29:27.777Z</time></trkpt><trkpt lat="44.6843433" lon="10.109218"><ele>286.33333333333337</ele><time>2026-04-26T16:29:28.777Z</time></trkpt><trkpt lat="44.6841834" lon="10.1093164"><ele>288.6666666666667</ele><time>2026-04-26T16:29:29.777Z</time></trkpt><trkpt lat="44.6840286" lon="10.109416"><ele>291.0</ele><time>2026-04-26T16:29:30.779Z</time></trkpt><trkpt lat="44.6838764" lon="10.1095103"><ele>291.0</ele><time>2026-04-26T16:29:31.777Z</time></trkpt><trkpt lat="44.6837255" lon="10.1096018"><ele>291.0</ele><time>2026-04-26T16:29:32.777Z</time></trkpt><trkpt lat="44.6835738" lon="10.109695"><ele>291.0</ele><time>2026-04-26T16:29:33.778Z</time></trkpt><trkpt lat="44.6834198" lon="10.1097959"><ele>293.6666666666667</ele><time>2026-04-26T16:29:34.778Z</time></trkpt><trkpt lat="44.6832681" lon="10.1098945"><ele>296.33333333333337</ele><time>2026-04-26T16:29:35.777Z</time></trkpt><trkpt lat="44.6831125" lon="10.1099885"><ele>299.0</ele><time>2026-04-26T16:29:36.778Z</time></trkpt><trkpt lat="44.6829562" lon="10.1100733"><ele>299.0</ele><time>2026-04-26T16:29:37.777Z</time></trkpt><trkpt lat="44.6828022" lon="10.1101614"><ele>299.0</ele><time>2026-04-26T16:29:38.778Z</time></trkpt><trkpt lat="44.6826548" lon="10.1102554"><ele>299.0</ele><time>2026-04-26T16:29:39.777Z</time></trkpt><trkpt lat="44.6825093" lon="10.1103414"><ele>301.0</ele><time>2026-04-26T16:29:40.778Z</time></trkpt><trkpt lat="44.6823719" lon="10.110413"><ele>303.0</ele><time>2026-04-26T16:29:41.777Z</time></trkpt><trkpt lat="44.6822407" lon="10.1104627"><ele>305.0</ele><time>2026-04-26T16:29:42.777Z</time></trkpt><trkpt lat="44.6821227" lon="10.1104907"><ele>307.0</ele><time>2026-04-26T16:29:43.777Z</time></trkpt><trkpt lat="44.6820153" lon="10.1105159"><ele>308.6</ele><time>2026-04-26T16:29:44.778Z</time></trkpt><trkpt lat="44.6819211" lon="10.1105625"><ele>310.2</ele><time>2026-04-26T16:29:45.777Z</time></trkpt><trkpt lat="44.6818277" lon="10.1106352"><ele>311.8</ele><time>2026-04-26T16:29:46.778Z</time></trkpt><trkpt lat="44.6817379" lon="10.1107455"><ele>313.4</ele><time>2026-04-26T16:29:47.777Z</time></trkpt><trkpt lat="44.6816634" lon="10.1108794"><ele>315.0</ele><time>2026-04-26T16:29:48.778Z</time></trkpt><trkpt lat="44.6816244" lon="10.1110262"><ele>315.0</ele><time>2026-04-26T16:29:49.778Z</time></trkpt><trkpt lat="44.6816108" lon="10.1111942"><ele>315.0</ele><time>2026-04-26T16:29:50.777Z</time></trkpt><trkpt lat="44.6815973" lon="10.1113567"><ele>315.0</ele><time>2026-04-26T16:29:51.778Z</time></trkpt><trkpt lat="44.6815881" lon="10.1115116"><ele>315.0</ele><time>2026-04-26T16:29:52.777Z</time></trkpt><trkpt lat="44.6815879" lon="10.111667"><ele>315.75</ele><time>2026-04-26T16:29:53.777Z</time></trkpt><trkpt lat="44.6816011" lon="10.111828"><ele>316.5</ele><time>2026-04-26T16:29:54.777Z</time></trkpt><trkpt lat="44.6816192" lon="10.1119899"><ele>317.25</ele><time>2026-04-26T16:29:55.778Z</time></trkpt><trkpt lat="44.6816425" lon="10.1121529"><ele>318.0</ele><time>2026-04-26T16:29:56.777Z</time></trkpt><trkpt lat="44.6816682" lon="10.1123278"><ele>318.6</ele><time>2026-04-26T16:29:57.777Z</time></trkpt><trkpt lat="44.6816902" lon="10.1124939"><ele>319.20000000000005</ele><time>2026-04-26T16:29:58.777Z</time></trkpt><trkpt lat="44.6817009" lon="10.1126534"><ele>319.8</ele><time>2026-04-26T16:29:59.778Z</time></trkpt><trkpt lat="44.6816926" lon="10.1128042"><ele>320.40000000000003</ele><time>2026-04-26T16:30:00.777Z</time></trkpt><trkpt lat="44.6816749" lon="10.1129418"><ele>321.0</ele><time>2026-04-26T16:30:01.778Z</time></trkpt><trkpt lat="44.6816858" lon="10.1130735"><ele>321.0</ele><time>2026-04-26T16:30:02.777Z</time></trkpt><trkpt lat="44.6817181" lon="10.1131936"><ele>321.0</ele><time>2026-04-26T16:30:03.778Z</time></trkpt><trkpt lat="44.6817795" lon="10.1133039"><ele>321.0</ele><time>2026-04-26T16:30:04.777Z</time></trkpt><trkpt lat="44.6818523" lon="10.1134"><ele>321.0</ele><time>2026-04-26T16:30:05.777Z</time></trkpt><trkpt lat="44.6819217" lon="10.1134877"><ele>321.0</ele><time>2026-04-26T16:30:06.778Z</time></trkpt><trkpt lat="44.6819836" lon="10.1135824"><ele>321.20000000000005</ele><time>2026-04-26T16:30:07.777Z</time></trkpt><trkpt lat="44.6820413" lon="10.1136804"><ele>321.40000000000003</ele><time>2026-04-26T16:30:08.777Z</time></trkpt><trkpt lat="44.6820976" lon="10.1137838"><ele>321.6</ele><time>2026-04-26T16:30:09.777Z</time></trkpt><trkpt lat="44.6821517" lon="10.1138908"><ele>321.8</ele><time>2026-04-26T16:30:10.777Z</time></trkpt><trkpt lat="44.6822044" lon="10.1139975"><ele>322.0</ele><time>2026-04-26T16:30:11.778Z</time></trkpt><trkpt lat="44.682258" lon="10.114104"><ele>322.0</ele><time>2026-04-26T16:30:12.778Z</time></trkpt><trkpt lat="44.6823086" lon="10.114216"><ele>322.0</ele><time>2026-04-26T16:30:13.777Z</time></trkpt><trkpt lat="44.6823561" lon="10.114331"><ele>322.0</ele><time>2026-04-26T16:30:14.777Z</time></trkpt><trkpt lat="44.6823947" lon="10.1144443"><ele>322.0</ele><time>2026-04-26T16:30:15.778Z</time></trkpt><trkpt lat="44.6824304" lon="10.1145697"><ele>322.0</ele><time>2026-04-26T16:30:16.777Z</time></trkpt><trkpt lat="44.6824604" lon="10.1146916"><ele>322.0</ele><time>2026-04-26T16:30:17.778Z</time></trkpt><trkpt lat="44.6824985" lon="10.1148078"><ele>322.0</ele><time>2026-04-26T16:30:18.777Z</time></trkpt><trkpt lat="44.6825276" lon="10.1149157"><ele>322.0</ele><time>2026-04-26T16:30:19.778Z</time></trkpt><trkpt lat="44.6825508" lon="10.1150039"><ele>322.0</ele><time>2026-04-26T16:30:20.777Z</time></trkpt><trkpt lat="44.6825446" lon="10.115154"><ele>322.0</ele><time>2026-04-26T16:30:22.778Z</time></trkpt><trkpt lat="44.6824706" lon="10.1152543"><ele>321.16666666666663</ele><time>2026-04-26T16:30:24.777Z</time></trkpt><trkpt lat="44.6824108" lon="10.115303"><ele>320.3333333333333</ele><time>2026-04-26T16:30:25.777Z</time></trkpt><trkpt lat="44.6823432" lon="10.1153445"><ele>319.5</ele><time>2026-04-26T16:30:26.777Z</time></trkpt><trkpt lat="44.6822714" lon="10.1153913"><ele>318.6666666666667</ele><time>2026-04-26T16:30:27.779Z</time></trkpt><trkpt lat="44.6821978" lon="10.1154464"><ele>317.83333333333337</ele><time>2026-04-26T16:30:28.777Z</time></trkpt><trkpt lat="44.6821202" lon="10.1155081"><ele>317.0</ele><time>2026-04-26T16:30:29.778Z</time></trkpt><trkpt lat="44.6820503" lon="10.1155698"><ele>317.0</ele><time>2026-04-26T16:30:30.778Z</time></trkpt><trkpt lat="44.6819986" lon="10.1156419"><ele>317.0</ele><time>2026-04-26T16:30:31.777Z</time></trkpt><trkpt lat="44.6819567" lon="10.1157409"><ele>317.0</ele><time>2026-04-26T16:30:32.778Z</time></trkpt><trkpt lat="44.6819282" lon="10.1158408"><ele>317.0</ele><time>2026-04-26T16:30:33.777Z</time></trkpt><trkpt lat="44.6819069" lon="10.1159424"><ele>317.0</ele><time>2026-04-26T16:30:34.777Z</time></trkpt><trkpt lat="44.6818751" lon="10.1160459"><ele>317.0</ele><time>2026-04-26T16:30:35.777Z</time></trkpt><trkpt lat="44.6818347" lon="10.1161331"><ele>315.1666666666667</ele><time>2026-04-26T16:30:36.778Z</time></trkpt><trkpt lat="44.6817706" lon="10.116194"><ele>313.33333333333337</ele><time>2026-04-26T16:30:37.778Z</time></trkpt><trkpt lat="44.6817113" lon="10.1162483"><ele>311.5</ele><time>2026-04-26T16:30:38.779Z</time></trkpt><trkpt lat="44.6816417" lon="10.1163105"><ele>309.6666666666667</ele><time>2026-04-26T16:30:39.777Z</time></trkpt><trkpt lat="44.681579" lon="10.1163799"><ele>307.8333333333333</ele><time>2026-04-26T16:30:40.777Z</time></trkpt><trkpt lat="44.6815174" lon="10.116457"><ele>306.0</ele><time>2026-04-26T16:30:41.778Z</time></trkpt><trkpt lat="44.6814665" lon="10.1165413"><ele>306.0</ele><time>2026-04-26T16:30:42.777Z</time></trkpt><trkpt lat="44.6814261" lon="10.1166355"><ele>306.0</ele><time>2026-04-26T16:30:43.778Z</time></trkpt><trkpt lat="44.681393" lon="10.1167302"><ele>306.0</ele><time>2026-04-26T16:30:44.777Z</time></trkpt><trkpt lat="44.6813629" lon="10.1168299"><ele>306.0</ele><time>2026-04-26T16:30:45.777Z</time></trkpt><trkpt lat="44.6813383" lon="10.1169304"><ele>306.0</ele><time>2026-04-26T16:30:46.777Z</time></trkpt><trkpt lat="44.6813036" lon="10.1170258"><ele>306.0</ele><time>2026-04-26T16:30:47.778Z</time></trkpt><trkpt lat="44.6812554" lon="10.1171061"><ele>306.0</ele><time>2026-04-26T16:30:48.778Z</time></trkpt><trkpt lat="44.6811957" lon="10.1171698"><ele>306.0</ele><time>2026-04-26T16:30:49.778Z</time></trkpt><trkpt lat="44.6811219" lon="10.117225"><ele>306.0</ele><time>2026-04-26T16:30:50.777Z</time></trkpt><trkpt lat="44.6810463" lon="10.1172586"><ele>306.0</ele><time>2026-04-26T16:30:51.779Z</time></trkpt><trkpt lat="44.680967" lon="10.1172833"><ele>306.0</ele><time>2026-04-26T16:30:52.778Z</time></trkpt><trkpt lat="44.6808845" lon="10.117307"><ele>306.0</ele><time>2026-04-26T16:30:53.778Z</time></trkpt><trkpt lat="44.6808044" lon="10.1173366"><ele>303.5</ele><time>2026-04-26T16:30:54.778Z</time></trkpt><trkpt lat="44.6807308" lon="10.1173794"><ele>301.0</ele><time>2026-04-26T16:30:55.777Z</time></trkpt><trkpt lat="44.6806452" lon="10.1174307"><ele>298.5</ele><time>2026-04-26T16:30:56.778Z</time></trkpt><trkpt lat="44.6805668" lon="10.1174889"><ele>296.0</ele><time>2026-04-26T16:30:57.777Z</time></trkpt><trkpt lat="44.6804889" lon="10.1175619"><ele>293.5</ele><time>2026-04-26T16:30:58.777Z</time></trkpt><trkpt lat="44.6804165" lon="10.1176435"><ele>291.0</ele><time>2026-04-26T16:30:59.778Z</time></trkpt><trkpt lat="44.6803515" lon="10.1177335"><ele>291.0</ele><time>2026-04-26T16:31:00.777Z</time></trkpt><trkpt lat="44.680293" lon="10.1178254"><ele>291.0</ele><time>2026-04-26T16:31:01.778Z</time></trkpt><trkpt lat="44.6802407" lon="10.117919"><ele>291.0</ele><time>2026-04-26T16:31:02.777Z</time></trkpt><trkpt lat="44.6801908" lon="10.1180089"><ele>291.0</ele><time>2026-04-26T16:31:03.778Z</time></trkpt><trkpt lat="44.680138" lon="10.118094"><ele>291.0</ele><time>2026-04-26T16:31:04.777Z</time></trkpt><trkpt lat="44.680083" lon="10.1181723"><ele>291.0</ele><time>2026-04-26T16:31:05.778Z</time></trkpt><trkpt lat="44.6800274" lon="10.1182491"><ele>289.85714285714283</ele><time>2026-04-26T16:31:06.778Z</time></trkpt><trkpt lat="44.6799731" lon="10.1183248"><ele>288.71428571428567</ele><time>2026-04-26T16:31:07.777Z</time></trkpt><trkpt lat="44.6799169" lon="10.1183963"><ele>287.57142857142856</ele><time>2026-04-26T16:31:08.778Z</time></trkpt><trkpt lat="44.6798654" lon="10.1184692"><ele>286.42857142857144</ele><time>2026-04-26T16:31:09.777Z</time></trkpt><trkpt lat="44.6798077" lon="10.1185308"><ele>285.28571428571433</ele><time>2026-04-26T16:31:10.777Z</time></trkpt><trkpt lat="44.6797532" lon="10.1185936"><ele>284.14285714285717</ele><time>2026-04-26T16:31:11.777Z</time></trkpt><trkpt lat="44.679702" lon="10.1186632"><ele>283.0</ele><time>2026-04-26T16:31:12.778Z</time></trkpt><trkpt lat="44.6796518" lon="10.1187219"><ele>283.0</ele><time>2026-04-26T16:31:13.777Z</time></trkpt><trkpt lat="44.6795734" lon="10.1188467"><ele>283.0</ele><time>2026-04-26T16:31:15.777Z</time></trkpt><trkpt lat="44.6795269" lon="10.1189963"><ele>283.0</ele><time>2026-04-26T16:31:17.778Z</time></trkpt><trkpt lat="44.6795072" lon="10.1190862"><ele>283.0</ele><time>2026-04-26T16:31:18.777Z</time></trkpt><trkpt lat="44.6794907" lon="10.1191853"><ele>283.0</ele><time>2026-04-26T16:31:19.777Z</time></trkpt><trkpt lat="44.6794642" lon="10.11929"><ele>282.16666666666663</ele><time>2026-04-26T16:31:20.778Z</time></trkpt><trkpt lat="44.6794319" lon="10.1193932"><ele>281.3333333333333</ele><time>2026-04-26T16:31:21.777Z</time></trkpt><trkpt lat="44.679392" lon="10.1195064"><ele>280.5</ele><time>2026-04-26T16:31:22.777Z</time></trkpt><trkpt lat="44.679358" lon="10.1196251"><ele>279.6666666666667</ele><time>2026-04-26T16:31:23.778Z</time></trkpt><trkpt lat="44.6793267" lon="10.1197482"><ele>278.83333333333337</ele><time>2026-04-26T16:31:24.779Z</time></trkpt><trkpt lat="44.6792957" lon="10.1198711"><ele>278.0</ele><time>2026-04-26T16:31:25.777Z</time></trkpt><trkpt lat="44.6792461" lon="10.1199884"><ele>278.0</ele><time>2026-04-26T16:31:26.777Z</time></trkpt><trkpt lat="44.6791837" lon="10.1201123"><ele>278.0</ele><time>2026-04-26T16:31:27.777Z</time></trkpt><trkpt lat="44.6791092" lon="10.1202635"><ele>278.0</ele><time>2026-04-26T16:31:28.778Z</time></trkpt><trkpt lat="44.6790415" lon="10.1204037"><ele>278.0</ele><time>2026-04-26T16:31:29.777Z</time></trkpt><trkpt lat="44.6789771" lon="10.1205267"><ele>278.0</ele><time>2026-04-26T16:31:30.778Z</time></trkpt><trkpt lat="44.6789069" lon="10.1206491"><ele>278.0</ele><time>2026-04-26T16:31:31.777Z</time></trkpt><trkpt lat="44.6788438" lon="10.1207381"><ele>278.0</ele><time>2026-04-26T16:31:32.778Z</time></trkpt><trkpt lat="44.6787935" lon="10.1207965"><ele>278.0</ele><time>2026-04-26T16:31:33.778Z</time></trkpt><trkpt lat="44.6787397" lon="10.1208495"><ele>278.0</ele><time>2026-04-26T16:31:34.778Z</time></trkpt><trkpt lat="44.6786754" lon="10.1209116"><ele>278.0</ele><time>2026-04-26T16:31:35.778Z</time></trkpt><trkpt lat="44.6786031" lon="10.1209826"><ele>280.0</ele><time>2026-04-26T16:31:36.777Z</time></trkpt><trkpt lat="44.6785195" lon="10.1210667"><ele>282.0</ele><time>2026-04-26T16:31:37.777Z</time></trkpt><trkpt lat="44.6784285" lon="10.1211599"><ele>284.0</ele><time>2026-04-26T16:31:38.778Z</time></trkpt><trkpt lat="44.6783382" lon="10.1212512"><ele>286.0</ele><time>2026-04-26T16:31:39.777Z</time></trkpt><trkpt lat="44.6782544" lon="10.1213404"><ele>288.0</ele><time>2026-04-26T16:31:40.777Z</time></trkpt><trkpt lat="44.6781708" lon="10.1214387"><ele>288.0</ele><time>2026-04-26T16:31:41.777Z</time></trkpt><trkpt lat="44.6780915" lon="10.1215227"><ele>288.0</ele><time>2026-04-26T16:31:42.777Z</time></trkpt><trkpt lat="44.678023" lon="10.1216049"><ele>288.0</ele><time>2026-04-26T16:31:43.777Z</time></trkpt><trkpt lat="44.6779642" lon="10.1216854"><ele>288.0</ele><time>2026-04-26T16:31:44.778Z</time></trkpt><trkpt lat="44.6778967" lon="10.1217709"><ele>288.0</ele><time>2026-04-26T16:31:45.777Z</time></trkpt><trkpt lat="44.6778305" lon="10.1218595"><ele>286.5</ele><time>2026-04-26T16:31:46.777Z</time></trkpt><trkpt lat="44.6777698" lon="10.1219393"><ele>285.0</ele><time>2026-04-26T16:31:47.777Z</time></trkpt><trkpt lat="44.6777109" lon="10.1220157"><ele>283.5</ele><time>2026-04-26T16:31:48.777Z</time></trkpt><trkpt lat="44.6776431" lon="10.1221005"><ele>282.0</ele><time>2026-04-26T16:31:49.777Z</time></trkpt><trkpt lat="44.6775936" lon="10.1221692"><ele>280.5</ele><time>2026-04-26T16:31:50.778Z</time></trkpt><trkpt lat="44.6775148" lon="10.1222627"><ele>279.0</ele><time>2026-04-26T16:31:52.778Z</time></trkpt><trkpt lat="44.6774407" lon="10.1223679"><ele>278.8</ele><time>2026-04-26T16:31:54.777Z</time></trkpt><trkpt lat="44.6773889" lon="10.1224427"><ele>278.59999999999997</ele><time>2026-04-26T16:31:55.777Z</time></trkpt><trkpt lat="44.677328" lon="10.1225365"><ele>278.4</ele><time>2026-04-26T16:31:56.778Z</time></trkpt><trkpt lat="44.6772582" lon="10.1226533"><ele>278.2</ele><time>2026-04-26T16:31:57.777Z</time></trkpt><trkpt lat="44.6771943" lon="10.1227731"><ele>278.0</ele><time>2026-04-26T16:31:58.777Z</time></trkpt><trkpt lat="44.6771214" lon="10.1229124"><ele>278.0</ele><time>2026-04-26T16:31:59.778Z</time></trkpt><trkpt lat="44.6770474" lon="10.123048"><ele>278.0</ele><time>2026-04-26T16:32:00.778Z</time></trkpt><trkpt lat="44.6769712" lon="10.1231892"><ele>278.0</ele><time>2026-04-26T16:32:01.777Z</time></trkpt><trkpt lat="44.6768944" lon="10.1233263"><ele>278.0</ele><time>2026-04-26T16:32:02.777Z</time></trkpt><trkpt lat="44.6768187" lon="10.123467"><ele>280.25</ele><time>2026-04-26T16:32:03.778Z</time></trkpt><trkpt lat="44.6767436" lon="10.1236077"><ele>282.5</ele><time>2026-04-26T16:32:04.777Z</time></trkpt><trkpt lat="44.6766656" lon="10.1237526"><ele>284.75</ele><time>2026-04-26T16:32:05.778Z</time></trkpt><trkpt lat="44.6765836" lon="10.1239038"><ele>287.0</ele><time>2026-04-26T16:32:06.777Z</time></trkpt><trkpt lat="44.6765002" lon="10.1240596"><ele>289.25</ele><time>2026-04-26T16:32:07.777Z</time></trkpt><trkpt lat="44.6764225" lon="10.1242042"><ele>291.5</ele><time>2026-04-26T16:32:08.778Z</time></trkpt><trkpt lat="44.6763394" lon="10.1243496"><ele>293.75</ele><time>2026-04-26T16:32:09.777Z</time></trkpt><trkpt lat="44.6762567" lon="10.1244862"><ele>296.0</ele><time>2026-04-26T16:32:10.778Z</time></trkpt><trkpt lat="44.6761778" lon="10.1246215"><ele>295.8</ele><time>2026-04-26T16:32:11.778Z</time></trkpt><trkpt lat="44.6760895" lon="10.1247642"><ele>295.6</ele><time>2026-04-26T16:32:12.778Z</time></trkpt><trkpt lat="44.6760347" lon="10.1249031"><ele>295.4</ele><time>2026-04-26T16:32:13.778Z</time></trkpt><trkpt lat="44.676029" lon="10.1249963"><ele>295.2</ele><time>2026-04-26T16:32:15.777Z</time></trkpt><trkpt lat="44.6760844" lon="10.1250596"><ele>295.0</ele><time>2026-04-26T16:32:16.777Z</time></trkpt><trkpt lat="44.6761939" lon="10.1250911"><ele>295.2</ele><time>2026-04-26T16:32:18.777Z</time></trkpt><trkpt lat="44.6762735" lon="10.1250643"><ele>295.4</ele><time>2026-04-26T16:32:19.777Z</time></trkpt><trkpt lat="44.6763792" lon="10.1250296"><ele>295.6</ele><time>2026-04-26T16:32:20.778Z</time></trkpt><trkpt lat="44.6764946" lon="10.1249882"><ele>295.8</ele><time>2026-04-26T16:32:21.777Z</time></trkpt><trkpt lat="44.6766197" lon="10.1249415"><ele>296.0</ele><time>2026-04-26T16:32:22.777Z</time></trkpt><trkpt lat="44.676733" lon="10.1248935"><ele>296.0</ele><time>2026-04-26T16:32:23.777Z</time></trkpt><trkpt lat="44.6768364" lon="10.1248516"><ele>296.0</ele><time>2026-04-26T16:32:24.778Z</time></trkpt><trkpt lat="44.6769242" lon="10.1248301"><ele>296.0</ele><time>2026-04-26T16:32:25.777Z</time></trkpt><trkpt lat="44.6770013" lon="10.1248317"><ele>296.0</ele><time>2026-04-26T16:32:26.777Z</time></trkpt><trkpt lat="44.6770686" lon="10.1248587"><ele>296.0</ele><time>2026-04-26T16:32:27.778Z</time></trkpt><trkpt lat="44.677158" lon="10.1249552"><ele>296.40000000000003</ele><time>2026-04-26T16:32:29.778Z</time></trkpt><trkpt lat="44.6771705" lon="10.1251136"><ele>296.8</ele><time>2026-04-26T16:32:31.777Z</time></trkpt><trkpt lat="44.6771433" lon="10.1252014"><ele>297.20000000000005</ele><time>2026-04-26T16:32:32.777Z</time></trkpt><trkpt lat="44.6770944" lon="10.1252855"><ele>297.6</ele><time>2026-04-26T16:32:33.778Z</time></trkpt><trkpt lat="44.6770306" lon="10.1253796"><ele>298.0</ele><time>2026-04-26T16:32:34.777Z</time></trkpt><trkpt lat="44.6769558" lon="10.1254775"><ele>300.0</ele><time>2026-04-26T16:32:35.778Z</time></trkpt><trkpt lat="44.6768736" lon="10.125588"><ele>302.0</ele><time>2026-04-26T16:32:36.777Z</time></trkpt><trkpt lat="44.6767922" lon="10.1257019"><ele>304.0</ele><time>2026-04-26T16:32:37.777Z</time></trkpt><trkpt lat="44.6767195" lon="10.1258167"><ele>306.0</ele><time>2026-04-26T16:32:38.778Z</time></trkpt><trkpt lat="44.6766561" lon="10.1259261"><ele>308.0</ele><time>2026-04-26T16:32:39.777Z</time></trkpt><trkpt lat="44.6765868" lon="10.1260604"><ele>308.5</ele><time>2026-04-26T16:32:40.779Z</time></trkpt><trkpt lat="44.6765201" lon="10.1261896"><ele>309.0</ele><time>2026-04-26T16:32:41.778Z</time></trkpt><trkpt lat="44.6764476" lon="10.1263298"><ele>309.5</ele><time>2026-04-26T16:32:42.778Z</time></trkpt><trkpt lat="44.6763794" lon="10.1264653"><ele>310.0</ele><time>2026-04-26T16:32:43.777Z</time></trkpt><trkpt lat="44.676315" lon="10.1265843"><ele>307.6</ele><time>2026-04-26T16:32:44.778Z</time></trkpt><trkpt lat="44.6762565" lon="10.1267012"><ele>305.2</ele><time>2026-04-26T16:32:45.778Z</time></trkpt><trkpt lat="44.6761999" lon="10.126818"><ele>302.8</ele><time>2026-04-26T16:32:46.778Z</time></trkpt><trkpt lat="44.6761425" lon="10.1269362"><ele>300.4</ele><time>2026-04-26T16:32:47.777Z</time></trkpt><trkpt lat="44.6760822" lon="10.1270382"><ele>298.0</ele><time>2026-04-26T16:32:48.777Z</time></trkpt><trkpt lat="44.6760125" lon="10.1271345"><ele>297.16666666666663</ele><time>2026-04-26T16:32:49.778Z</time></trkpt><trkpt lat="44.6759389" lon="10.1272272"><ele>296.3333333333333</ele><time>2026-04-26T16:32:50.777Z</time></trkpt><trkpt lat="44.6758656" lon="10.1273193"><ele>295.5</ele><time>2026-04-26T16:32:51.778Z</time></trkpt><trkpt lat="44.6758016" lon="10.1274055"><ele>294.6666666666667</ele><time>2026-04-26T16:32:52.777Z</time></trkpt><trkpt lat="44.6757478" lon="10.1274926"><ele>293.83333333333337</ele><time>2026-04-26T16:32:53.777Z</time></trkpt><trkpt lat="44.6756929" lon="10.1275659"><ele>293.0</ele><time>2026-04-26T16:32:54.778Z</time></trkpt><trkpt lat="44.6756284" lon="10.1276531"><ele>293.0</ele><time>2026-04-26T16:32:55.777Z</time></trkpt><trkpt lat="44.6755796" lon="10.1277363"><ele>293.0</ele><time>2026-04-26T16:32:56.778Z</time></trkpt><trkpt lat="44.6755434" lon="10.1278291"><ele>293.0</ele><time>2026-04-26T16:32:57.777Z</time></trkpt><trkpt lat="44.6755189" lon="10.1279364"><ele>293.0</ele><time>2026-04-26T16:32:58.777Z</time></trkpt><trkpt lat="44.6755185" lon="10.1280654"><ele>293.0</ele><time>2026-04-26T16:32:59.778Z</time></trkpt><trkpt lat="44.6755196" lon="10.1282188"><ele>293.0</ele><time>2026-04-26T16:33:00.777Z</time></trkpt><trkpt lat="44.6755141" lon="10.1283801"><ele>293.4</ele><time>2026-04-26T16:33:01.778Z</time></trkpt><trkpt lat="44.6754927" lon="10.1285265"><ele>293.8</ele><time>2026-04-26T16:33:02.777Z</time></trkpt><trkpt lat="44.6754602" lon="10.1286768"><ele>294.2</ele><time>2026-04-26T16:33:03.778Z</time></trkpt><trkpt lat="44.6754158" lon="10.1288149"><ele>294.6</ele><time>2026-04-26T16:33:04.777Z</time></trkpt><trkpt lat="44.6753789" lon="10.128923"><ele>295.0</ele><time>2026-04-26T16:33:05.778Z</time></trkpt><trkpt lat="44.675357" lon="10.129029"><ele>296.5</ele><time>2026-04-26T16:33:06.777Z</time></trkpt><trkpt lat="44.675339" lon="10.1291188"><ele>298.0</ele><time>2026-04-26T16:33:07.778Z</time></trkpt><trkpt lat="44.675381" lon="10.1292453"><ele>299.5</ele><time>2026-04-26T16:33:08.777Z</time></trkpt><trkpt lat="44.6754211" lon="10.129343"><ele>301.0</ele><time>2026-04-26T16:33:09.778Z</time></trkpt><trkpt lat="44.675497" lon="10.1294042"><ele>302.5</ele><time>2026-04-26T16:33:10.778Z</time></trkpt><trkpt lat="44.6755639" lon="10.1294786"><ele>304.0</ele><time>2026-04-26T16:33:11.777Z</time></trkpt><trkpt lat="44.6756786" lon="10.1294921"><ele>304.0</ele><time>2026-04-26T16:33:12.778Z</time></trkpt><trkpt lat="44.6757682" lon="10.1295027"><ele>304.0</ele><time>2026-04-26T16:33:13.777Z</time></trkpt><trkpt lat="44.6758332" lon="10.1295056"><ele>304.0</ele><time>2026-04-26T16:33:14.777Z</time></trkpt><trkpt lat="44.6759256" lon="10.1295201"><ele>304.0</ele><time>2026-04-26T16:33:16.777Z</time></trkpt><trkpt lat="44.6760019" lon="10.1295729"><ele>304.0</ele><time>2026-04-26T16:33:19.777Z</time></trkpt><trkpt lat="44.6760143" lon="10.1296751"><ele>304.0</ele><time>2026-04-26T16:33:21.777Z</time></trkpt><trkpt lat="44.675972" lon="10.1297596"><ele>304.0</ele><time>2026-04-26T16:33:23.777Z</time></trkpt><trkpt lat="44.6758921" lon="10.1297846"><ele>304.0</ele><time>2026-04-26T16:33:26.777Z</time></trkpt><trkpt lat="44.6758274" lon="10.1297868"><ele>304.0</ele><time>2026-04-26T16:34:20.777Z</time></trkpt><trkpt lat="44.6756934" lon="10.129791"><ele>304.0</ele><time>2026-04-26T16:34:22.778Z</time></trkpt><trkpt lat="44.675614" lon="10.1297927"><ele>304.0</ele><time>2026-04-26T16:34:23.778Z</time></trkpt><trkpt lat="44.6755323" lon="10.129784"><ele>304.0</ele><time>2026-04-26T16:34:24.776Z</time></trkpt><trkpt lat="44.6754486" lon="10.1297722"><ele>304.0</ele><time>2026-04-26T16:34:25.777Z</time></trkpt><trkpt lat="44.6753639" lon="10.1297609"><ele>304.0</ele><time>2026-04-26T16:34:26.776Z</time></trkpt><trkpt lat="44.6752753" lon="10.1297405"><ele>304.0</ele><time>2026-04-26T16:34:27.777Z</time></trkpt><trkpt lat="44.6751927" lon="10.1297055"><ele>304.0</ele><time>2026-04-26T16:34:28.776Z</time></trkpt><trkpt lat="44.6751214" lon="10.1296528"><ele>304.0</ele><time>2026-04-26T16:34:29.776Z</time></trkpt><trkpt lat="44.6750509" lon="10.129586"><ele>304.0</ele><time>2026-04-26T16:34:30.777Z</time></trkpt><trkpt lat="44.6749838" lon="10.1295253"><ele>304.3333333333333</ele><time>2026-04-26T16:34:31.776Z</time></trkpt><trkpt lat="44.6749214" lon="10.1294761"><ele>304.66666666666663</ele><time>2026-04-26T16:34:32.777Z</time></trkpt><trkpt lat="44.6748602" lon="10.1294398"><ele>305.0</ele><time>2026-04-26T16:34:33.776Z</time></trkpt><trkpt lat="44.6747454" lon="10.1294286"><ele>305.3333333333333</ele><time>2026-04-26T16:34:35.777Z</time></trkpt><trkpt lat="44.6746756" lon="10.1294557"><ele>305.6666666666667</ele><time>2026-04-26T16:34:36.777Z</time></trkpt><trkpt lat="44.6745911" lon="10.1294916"><ele>306.0</ele><time>2026-04-26T16:34:37.776Z</time></trkpt><trkpt lat="44.6745085" lon="10.1295139"><ele>305.40000000000003</ele><time>2026-04-26T16:34:38.777Z</time></trkpt><trkpt lat="44.6744357" lon="10.1295246"><ele>304.8</ele><time>2026-04-26T16:34:39.776Z</time></trkpt><trkpt lat="44.6743711" lon="10.1295308"><ele>304.20000000000005</ele><time>2026-04-26T16:34:40.777Z</time></trkpt><trkpt lat="44.6742573" lon="10.1295788"><ele>303.6</ele><time>2026-04-26T16:34:42.777Z</time></trkpt><trkpt lat="44.6741534" lon="10.1296605"><ele>303.0</ele><time>2026-04-26T16:34:44.776Z</time></trkpt><trkpt lat="44.6740687" lon="10.1297695"><ele>304.0</ele><time>2026-04-26T16:34:46.776Z</time></trkpt><trkpt lat="44.6740115" lon="10.1298933"><ele>305.0</ele><time>2026-04-26T16:34:48.777Z</time></trkpt><trkpt lat="44.6739591" lon="10.130047"><ele>306.0</ele><time>2026-04-26T16:34:50.776Z</time></trkpt><trkpt lat="44.6739343" lon="10.1301358"><ele>307.0</ele><time>2026-04-26T16:34:51.777Z</time></trkpt><trkpt lat="44.6738982" lon="10.1302977"><ele>308.0</ele><time>2026-04-26T16:34:53.776Z</time></trkpt><trkpt lat="44.6738638" lon="10.1304797"><ele>308.0</ele><time>2026-04-26T16:34:55.777Z</time></trkpt><trkpt lat="44.6738457" lon="10.1305781"><ele>308.0</ele><time>2026-04-26T16:34:56.777Z</time></trkpt><trkpt lat="44.6738223" lon="10.1306799"><ele>308.0</ele><time>2026-04-26T16:34:57.777Z</time></trkpt><trkpt lat="44.6737956" lon="10.130777"><ele>308.0</ele><time>2026-04-26T16:34:58.777Z</time></trkpt><trkpt lat="44.6737678" lon="10.1308625"><ele>308.0</ele><time>2026-04-26T16:34:59.776Z</time></trkpt><trkpt lat="44.6737365" lon="10.1309411"><ele>308.0</ele><time>2026-04-26T16:35:00.776Z</time></trkpt><trkpt lat="44.6736535" lon="10.1310564"><ele>306.7142857142857</ele><time>2026-04-26T16:35:02.776Z</time></trkpt><trkpt lat="44.6735999" lon="10.131103"><ele>305.42857142857144</ele><time>2026-04-26T16:35:03.776Z</time></trkpt><trkpt lat="44.6735361" lon="10.1311446"><ele>304.1428571428571</ele><time>2026-04-26T16:35:04.777Z</time></trkpt><trkpt lat="44.6734766" lon="10.1311831"><ele>302.8571428571429</ele><time>2026-04-26T16:35:05.777Z</time></trkpt><trkpt lat="44.6734141" lon="10.1312376"><ele>301.57142857142856</ele><time>2026-04-26T16:35:06.776Z</time></trkpt><trkpt lat="44.6733553" lon="10.1313131"><ele>300.2857142857143</ele><time>2026-04-26T16:35:07.777Z</time></trkpt><trkpt lat="44.6733025" lon="10.1313864"><ele>299.0</ele><time>2026-04-26T16:35:08.776Z</time></trkpt><trkpt lat="44.6732439" lon="10.1314485"><ele>299.0</ele><time>2026-04-26T16:35:09.777Z</time></trkpt><trkpt lat="44.6731764" lon="10.1315035"><ele>299.0</ele><time>2026-04-26T16:35:10.777Z</time></trkpt><trkpt lat="44.6730968" lon="10.1315414"><ele>299.0</ele><time>2026-04-26T16:35:11.776Z</time></trkpt><trkpt lat="44.6730091" lon="10.1315669"><ele>299.0</ele><time>2026-04-26T16:35:12.776Z</time></trkpt><trkpt lat="44.6729209" lon="10.1315839"><ele>299.0</ele><time>2026-04-26T16:35:13.777Z</time></trkpt><trkpt lat="44.672834" lon="10.1316045"><ele>299.0</ele><time>2026-04-26T16:35:14.777Z</time></trkpt><trkpt lat="44.672753" lon="10.1316445"><ele>297.4</ele><time>2026-04-26T16:35:15.777Z</time></trkpt><trkpt lat="44.6726652" lon="10.1317099"><ele>295.79999999999995</ele><time>2026-04-26T16:35:16.777Z</time></trkpt><trkpt lat="44.6725888" lon="10.1317848"><ele>294.20000000000005</ele><time>2026-04-26T16:35:17.777Z</time></trkpt><trkpt lat="44.6725182" lon="10.131868"><ele>292.6</ele><time>2026-04-26T16:35:18.776Z</time></trkpt><trkpt lat="44.6724496" lon="10.1319722"><ele>291.0</ele><time>2026-04-26T16:35:19.776Z</time></trkpt><trkpt lat="44.6723701" lon="10.1320931"><ele>291.0</ele><time>2026-04-26T16:35:20.776Z</time></trkpt><trkpt lat="44.6722934" lon="10.1322232"><ele>291.0</ele><time>2026-04-26T16:35:21.776Z</time></trkpt><trkpt lat="44.6722189" lon="10.1323543"><ele>291.0</ele><time>2026-04-26T16:35:22.776Z</time></trkpt><trkpt lat="44.6721336" lon="10.1324885"><ele>291.0</ele><time>2026-04-26T16:35:23.776Z</time></trkpt><trkpt lat="44.6720489" lon="10.1326039"><ele>291.25</ele><time>2026-04-26T16:35:24.776Z</time></trkpt><trkpt lat="44.6719606" lon="10.1327054"><ele>291.5</ele><time>2026-04-26T16:35:25.778Z</time></trkpt><trkpt lat="44.6718696" lon="10.1327996"><ele>291.75</ele><time>2026-04-26T16:35:26.776Z</time></trkpt><trkpt lat="44.6717685" lon="10.1328943"><ele>292.0</ele><time>2026-04-26T16:35:27.777Z</time></trkpt><trkpt lat="44.6716758" lon="10.1329844"><ele>292.0</ele><time>2026-04-26T16:35:28.776Z</time></trkpt><trkpt lat="44.6715906" lon="10.1330692"><ele>292.0</ele><time>2026-04-26T16:35:29.777Z</time></trkpt><trkpt lat="44.6714997" lon="10.1331591"><ele>292.0</ele><time>2026-04-26T16:35:30.776Z</time></trkpt><trkpt lat="44.6714129" lon="10.1332416"><ele>292.0</ele><time>2026-04-26T16:35:31.777Z</time></trkpt><trkpt lat="44.6713397" lon="10.1333206"><ele>292.0</ele><time>2026-04-26T16:35:32.777Z</time></trkpt><trkpt lat="44.6712686" lon="10.1334068"><ele>291.8</ele><time>2026-04-26T16:35:33.776Z</time></trkpt><trkpt lat="44.6712107" lon="10.1334907"><ele>291.6</ele><time>2026-04-26T16:35:34.776Z</time></trkpt><trkpt lat="44.6711603" lon="10.1335855"><ele>291.40000000000003</ele><time>2026-04-26T16:35:35.777Z</time></trkpt><trkpt lat="44.6711099" lon="10.1336897"><ele>291.2</ele><time>2026-04-26T16:35:36.776Z</time></trkpt><trkpt lat="44.6710388" lon="10.1337885"><ele>291.0</ele><time>2026-04-26T16:35:37.777Z</time></trkpt><trkpt lat="44.6709576" lon="10.1338784"><ele>291.5</ele><time>2026-04-26T16:35:38.777Z</time></trkpt><trkpt lat="44.6708733" lon="10.133945"><ele>292.0</ele><time>2026-04-26T16:35:39.776Z</time></trkpt><trkpt lat="44.6707764" lon="10.1340187"><ele>292.5</ele><time>2026-04-26T16:35:40.777Z</time></trkpt><trkpt lat="44.670677" lon="10.1341155"><ele>293.0</ele><time>2026-04-26T16:35:41.776Z</time></trkpt><trkpt lat="44.6705767" lon="10.1342234"><ele>293.0</ele><time>2026-04-26T16:35:42.776Z</time></trkpt><trkpt lat="44.6704788" lon="10.1343406"><ele>293.0</ele><time>2026-04-26T16:35:43.777Z</time></trkpt><trkpt lat="44.6703836" lon="10.1344681"><ele>293.0</ele><time>2026-04-26T16:35:44.776Z</time></trkpt><trkpt lat="44.6703057" lon="10.1345882"><ele>293.0</ele><time>2026-04-26T16:35:45.776Z</time></trkpt><trkpt lat="44.6702436" lon="10.1347053"><ele>293.2</ele><time>2026-04-26T16:35:46.776Z</time></trkpt><trkpt lat="44.6701938" lon="10.1348194"><ele>293.4</ele><time>2026-04-26T16:35:47.776Z</time></trkpt><trkpt lat="44.6701444" lon="10.1349502"><ele>293.59999999999997</ele><time>2026-04-26T16:35:48.777Z</time></trkpt><trkpt lat="44.670104" lon="10.1350901"><ele>293.8</ele><time>2026-04-26T16:35:49.776Z</time></trkpt><trkpt lat="44.6700665" lon="10.1352447"><ele>294.0</ele><time>2026-04-26T16:35:50.777Z</time></trkpt><trkpt lat="44.670033" lon="10.135413"><ele>294.0</ele><time>2026-04-26T16:35:51.777Z</time></trkpt><trkpt lat="44.6700041" lon="10.1355958"><ele>294.0</ele><time>2026-04-26T16:35:52.776Z</time></trkpt><trkpt lat="44.6699776" lon="10.1357679"><ele>294.0</ele><time>2026-04-26T16:35:53.777Z</time></trkpt><trkpt lat="44.6699498" lon="10.1359324"><ele>294.0</ele><time>2026-04-26T16:35:54.776Z</time></trkpt><trkpt lat="44.6699224" lon="10.1360796"><ele>295.0</ele><time>2026-04-26T16:35:55.776Z</time></trkpt><trkpt lat="44.6699021" lon="10.1362114"><ele>296.0</ele><time>2026-04-26T16:35:56.778Z</time></trkpt><trkpt lat="44.6698784" lon="10.1363529"><ele>297.0</ele><time>2026-04-26T16:35:57.776Z</time></trkpt><trkpt lat="44.6698521" lon="10.1364973"><ele>298.0</ele><time>2026-04-26T16:35:58.777Z</time></trkpt><trkpt lat="44.6698256" lon="10.1366479"><ele>299.0</ele><time>2026-04-26T16:35:59.776Z</time></trkpt><trkpt lat="44.6698029" lon="10.1367994"><ele>301.0</ele><time>2026-04-26T16:36:00.776Z</time></trkpt><trkpt lat="44.6697816" lon="10.1369545"><ele>303.0</ele><time>2026-04-26T16:36:01.777Z</time></trkpt><trkpt lat="44.6697562" lon="10.1371063"><ele>305.0</ele><time>2026-04-26T16:36:02.777Z</time></trkpt><trkpt lat="44.6697279" lon="10.1372693"><ele>307.0</ele><time>2026-04-26T16:36:03.777Z</time></trkpt><trkpt lat="44.6696961" lon="10.1374224"><ele>308.0</ele><time>2026-04-26T16:36:04.776Z</time></trkpt><trkpt lat="44.6696584" lon="10.1375755"><ele>309.0</ele><time>2026-04-26T16:36:05.776Z</time></trkpt><trkpt lat="44.6696096" lon="10.1377099"><ele>310.0</ele><time>2026-04-26T16:36:06.776Z</time></trkpt><trkpt lat="44.6695553" lon="10.1378507"><ele>311.0</ele><time>2026-04-26T16:36:07.776Z</time></trkpt><trkpt lat="44.669493" lon="10.1379932"><ele>311.25</ele><time>2026-04-26T16:36:08.777Z</time></trkpt><trkpt lat="44.6694242" lon="10.1381407"><ele>311.5</ele><time>2026-04-26T16:36:09.776Z</time></trkpt><trkpt lat="44.6693533" lon="10.1382845"><ele>311.75</ele><time>2026-04-26T16:36:10.777Z</time></trkpt><trkpt lat="44.669288" lon="10.1384135"><ele>312.0</ele><time>2026-04-26T16:36:11.776Z</time></trkpt><trkpt lat="44.6692255" lon="10.1385446"><ele>312.0</ele><time>2026-04-26T16:36:12.776Z</time></trkpt><trkpt lat="44.6691638" lon="10.1386736"><ele>312.0</ele><time>2026-04-26T16:36:13.776Z</time></trkpt><trkpt lat="44.6691255" lon="10.1387892"><ele>312.0</ele><time>2026-04-26T16:36:14.776Z</time></trkpt><trkpt lat="44.6690964" lon="10.1389072"><ele>312.0</ele><time>2026-04-26T16:36:15.777Z</time></trkpt><trkpt lat="44.6690832" lon="10.139025"><ele>312.0</ele><time>2026-04-26T16:36:16.776Z</time></trkpt><trkpt lat="44.6690861" lon="10.1391408"><ele>313.8</ele><time>2026-04-26T16:36:17.776Z</time></trkpt><trkpt lat="44.6691047" lon="10.1392695"><ele>315.6</ele><time>2026-04-26T16:36:18.777Z</time></trkpt><trkpt lat="44.6691229" lon="10.1394076"><ele>317.40000000000003</ele><time>2026-04-26T16:36:19.777Z</time></trkpt><trkpt lat="44.669171" lon="10.1395739"><ele>319.2</ele><time>2026-04-26T16:36:20.777Z</time></trkpt><trkpt lat="44.6692131" lon="10.1397339"><ele>321.0</ele><time>2026-04-26T16:36:21.776Z</time></trkpt><trkpt lat="44.669281" lon="10.1399108"><ele>321.5</ele><time>2026-04-26T16:36:22.776Z</time></trkpt><trkpt lat="44.66936" lon="10.1400564"><ele>322.0</ele><time>2026-04-26T16:36:23.776Z</time></trkpt><trkpt lat="44.6694083" lon="10.1402045"><ele>322.5</ele><time>2026-04-26T16:36:24.777Z</time></trkpt><trkpt lat="44.6694503" lon="10.1403411"><ele>323.0</ele><time>2026-04-26T16:36:25.776Z</time></trkpt><trkpt lat="44.6694388" lon="10.1405291"><ele>321.75</ele><time>2026-04-26T16:36:26.776Z</time></trkpt><trkpt lat="44.6694545" lon="10.1407034"><ele>320.5</ele><time>2026-04-26T16:36:27.776Z</time></trkpt><trkpt lat="44.6694526" lon="10.1408899"><ele>319.25</ele><time>2026-04-26T16:36:28.778Z</time></trkpt><trkpt lat="44.6694544" lon="10.1410749"><ele>318.0</ele><time>2026-04-26T16:36:29.776Z</time></trkpt><trkpt lat="44.669445" lon="10.1412644"><ele>319.0</ele><time>2026-04-26T16:36:30.776Z</time></trkpt><trkpt lat="44.6694409" lon="10.1414328"><ele>320.0</ele><time>2026-04-26T16:36:31.777Z</time></trkpt><trkpt lat="44.669438" lon="10.141598"><ele>321.0</ele><time>2026-04-26T16:36:32.776Z</time></trkpt><trkpt lat="44.6694324" lon="10.1417461"><ele>322.0</ele><time>2026-04-26T16:36:33.777Z</time></trkpt><trkpt lat="44.6694278" lon="10.1419001"><ele>323.6</ele><time>2026-04-26T16:36:34.777Z</time></trkpt><trkpt lat="44.6694125" lon="10.1420222"><ele>325.20000000000005</ele><time>2026-04-26T16:36:35.776Z</time></trkpt><trkpt lat="44.6693792" lon="10.1421292"><ele>326.8</ele><time>2026-04-26T16:36:36.778Z</time></trkpt><trkpt lat="44.6693211" lon="10.1422261"><ele>328.4</ele><time>2026-04-26T16:36:37.776Z</time></trkpt><trkpt lat="44.669233" lon="10.1423254"><ele>330.0</ele><time>2026-04-26T16:36:39.776Z</time></trkpt><trkpt lat="44.6691242" lon="10.1424214"><ele>332.0</ele><time>2026-04-26T16:36:41.776Z</time></trkpt><trkpt lat="44.6690621" lon="10.1424688"><ele>334.0</ele><time>2026-04-26T16:36:42.776Z</time></trkpt><trkpt lat="44.6690077" lon="10.1425224"><ele>336.0</ele><time>2026-04-26T16:36:43.777Z</time></trkpt><trkpt lat="44.66893" lon="10.142613"><ele>338.0</ele><time>2026-04-26T16:36:45.776Z</time></trkpt><trkpt lat="44.6688628" lon="10.1427221"><ele>340.0</ele><time>2026-04-26T16:36:47.776Z</time></trkpt><trkpt lat="44.6688186" lon="10.1428377"><ele>342.0</ele><time>2026-04-26T16:36:49.776Z</time></trkpt><trkpt lat="44.6688202" lon="10.1429492"><ele>342.0</ele><time>2026-04-26T16:36:53.776Z</time></trkpt><trkpt lat="44.6688186" lon="10.1430596"><ele>342.0</ele><time>2026-04-26T16:36:55.777Z</time></trkpt><trkpt lat="44.6688531" lon="10.1431623"><ele>342.0</ele><time>2026-04-26T16:36:57.776Z</time></trkpt><trkpt lat="44.6688747" lon="10.1432508"><ele>342.0</ele><time>2026-04-26T16:36:59.778Z</time></trkpt><trkpt lat="44.6688709" lon="10.1433667"><ele>342.0</ele><time>2026-04-26T16:37:04.776Z</time></trkpt><trkpt lat="44.6688085" lon="10.1434825"><ele>342.0</ele><time>2026-04-26T16:37:06.777Z</time></trkpt><trkpt lat="44.6687662" lon="10.1435509"><ele>344.8</ele><time>2026-04-26T16:37:07.776Z</time></trkpt><trkpt lat="44.6687093" lon="10.1436663"><ele>347.6</ele><time>2026-04-26T16:37:08.777Z</time></trkpt><trkpt lat="44.6686676" lon="10.1437993"><ele>350.40000000000003</ele><time>2026-04-26T16:37:09.776Z</time></trkpt><trkpt lat="44.6686858" lon="10.1439689"><ele>353.20000000000005</ele><time>2026-04-26T16:37:10.778Z</time></trkpt><trkpt lat="44.6687042" lon="10.1441082"><ele>356.0</ele><time>2026-04-26T16:37:11.776Z</time></trkpt><trkpt lat="44.6687475" lon="10.1442411"><ele>358.0</ele><time>2026-04-26T16:37:12.776Z</time></trkpt><trkpt lat="44.668766" lon="10.144379"><ele>360.0</ele><time>2026-04-26T16:37:13.776Z</time></trkpt><trkpt lat="44.6687804" lon="10.1445314"><ele>362.0</ele><time>2026-04-26T16:37:14.776Z</time></trkpt><trkpt lat="44.6687259" lon="10.1446663"><ele>364.0</ele><time>2026-04-26T16:37:15.776Z</time></trkpt><trkpt lat="44.6686907" lon="10.1447972"><ele>366.0</ele><time>2026-04-26T16:37:16.776Z</time></trkpt><trkpt lat="44.6686554" lon="10.1449364"><ele>366.4</ele><time>2026-04-26T16:37:17.776Z</time></trkpt><trkpt lat="44.6686961" lon="10.1450382"><ele>366.8</ele><time>2026-04-26T16:37:18.777Z</time></trkpt><trkpt lat="44.6687314" lon="10.1451426"><ele>367.2</ele><time>2026-04-26T16:37:19.777Z</time></trkpt><trkpt lat="44.6687882" lon="10.1452584"><ele>367.59999999999997</ele><time>2026-04-26T16:37:20.776Z</time></trkpt><trkpt lat="44.6688152" lon="10.1454097"><ele>368.0</ele><time>2026-04-26T16:37:21.777Z</time></trkpt><trkpt lat="44.6688305" lon="10.1455914"><ele>368.0</ele><time>2026-04-26T16:37:22.776Z</time></trkpt><trkpt lat="44.6688185" lon="10.1457852"><ele>368.0</ele><time>2026-04-26T16:37:23.776Z</time></trkpt><trkpt lat="44.6687827" lon="10.1459795"><ele>368.0</ele><time>2026-04-26T16:37:24.777Z</time></trkpt><trkpt lat="44.6687369" lon="10.1461958"><ele>368.0</ele><time>2026-04-26T16:37:25.776Z</time></trkpt><trkpt lat="44.6686975" lon="10.1463948"><ele>366.59999999999997</ele><time>2026-04-26T16:37:26.778Z</time></trkpt><trkpt lat="44.6686518" lon="10.1465574"><ele>365.2</ele><time>2026-04-26T16:37:27.776Z</time></trkpt><trkpt lat="44.6685915" lon="10.1466759"><ele>363.8</ele><time>2026-04-26T16:37:28.776Z</time></trkpt><trkpt lat="44.6685153" lon="10.1467602"><ele>362.4</ele><time>2026-04-26T16:37:29.776Z</time></trkpt><trkpt lat="44.6684198" lon="10.1468176"><ele>361.0</ele><time>2026-04-26T16:37:30.776Z</time></trkpt><trkpt lat="44.6682929" lon="10.1468458"><ele>361.0</ele><time>2026-04-26T16:37:31.777Z</time></trkpt><trkpt lat="44.6681467" lon="10.1468867"><ele>361.0</ele><time>2026-04-26T16:37:32.776Z</time></trkpt><trkpt lat="44.6679832" lon="10.146972"><ele>361.0</ele><time>2026-04-26T16:37:33.777Z</time></trkpt><trkpt lat="44.6678123" lon="10.1470913"><ele>359.0</ele><time>2026-04-26T16:37:34.776Z</time></trkpt><trkpt lat="44.6676611" lon="10.1472042"><ele>357.0</ele><time>2026-04-26T16:37:35.776Z</time></trkpt><trkpt lat="44.6675292" lon="10.1473034"><ele>355.0</ele><time>2026-04-26T16:37:36.776Z</time></trkpt><trkpt lat="44.6674145" lon="10.147366"><ele>353.0</ele><time>2026-04-26T16:37:37.777Z</time></trkpt><trkpt lat="44.6673069" lon="10.1473762"><ele>353.0</ele><time>2026-04-26T16:37:38.776Z</time></trkpt><trkpt lat="44.6671875" lon="10.1473427"><ele>353.0</ele><time>2026-04-26T16:37:39.777Z</time></trkpt><trkpt lat="44.6670844" lon="10.1472612"><ele>353.0</ele><time>2026-04-26T16:37:40.776Z</time></trkpt><trkpt lat="44.667008" lon="10.1471686"><ele>353.0</ele><time>2026-04-26T16:37:41.777Z</time></trkpt><trkpt lat="44.6669215" lon="10.1470793"><ele>353.0</ele><time>2026-04-26T16:37:42.776Z</time></trkpt><trkpt lat="44.6668366" lon="10.1470244"><ele>354.25</ele><time>2026-04-26T16:37:43.776Z</time></trkpt><trkpt lat="44.6667775" lon="10.1470822"><ele>355.5</ele><time>2026-04-26T16:37:44.777Z</time></trkpt><trkpt lat="44.6666879" lon="10.1470744"><ele>356.75</ele><time>2026-04-26T16:37:45.776Z</time></trkpt><trkpt lat="44.6665609" lon="10.1471953"><ele>358.0</ele><time>2026-04-26T16:37:46.776Z</time></trkpt><trkpt lat="44.6664255" lon="10.1472224"><ele>358.0</ele><time>2026-04-26T16:37:47.776Z</time></trkpt><trkpt lat="44.6663169" lon="10.1472337"><ele>358.0</ele><time>2026-04-26T16:37:48.776Z</time></trkpt><trkpt lat="44.6661961" lon="10.1472461"><ele>358.0</ele><time>2026-04-26T16:37:49.777Z</time></trkpt><trkpt lat="44.666094" lon="10.1472191"><ele>358.0</ele><time>2026-04-26T16:37:50.776Z</time></trkpt><trkpt lat="44.6660226" lon="10.1473017"><ele>358.0</ele><time>2026-04-26T16:37:59.776Z</time></trkpt><trkpt lat="44.6659133" lon="10.147317"><ele>357.4</ele><time>2026-04-26T16:38:01.776Z</time></trkpt><trkpt lat="44.6658357" lon="10.1473329"><ele>356.79999999999995</ele><time>2026-04-26T16:38:02.776Z</time></trkpt><trkpt lat="44.6657349" lon="10.1473591"><ele>356.2</ele><time>2026-04-26T16:38:03.776Z</time></trkpt><trkpt lat="44.6656281" lon="10.1474036"><ele>355.6</ele><time>2026-04-26T16:38:04.777Z</time></trkpt><trkpt lat="44.6655144" lon="10.1474473"><ele>355.0</ele><time>2026-04-26T16:38:05.776Z</time></trkpt><trkpt lat="44.6654116" lon="10.1474837"><ele>354.8333333333333</ele><time>2026-04-26T16:38:06.777Z</time></trkpt><trkpt lat="44.6653326" lon="10.1474933"><ele>354.66666666666663</ele><time>2026-04-26T16:38:07.777Z</time></trkpt><trkpt lat="44.6652495" lon="10.147471"><ele>354.5</ele><time>2026-04-26T16:38:08.777Z</time></trkpt><trkpt lat="44.6651831" lon="10.1474037"><ele>354.3333333333333</ele><time>2026-04-26T16:38:09.777Z</time></trkpt><trkpt lat="44.6651419" lon="10.1472989"><ele>354.1666666666667</ele><time>2026-04-26T16:38:10.777Z</time></trkpt><trkpt lat="44.6650995" lon="10.1471573"><ele>354.0</ele><time>2026-04-26T16:38:11.776Z</time></trkpt><trkpt lat="44.6650478" lon="10.1469778"><ele>352.3333333333333</ele><time>2026-04-26T16:38:12.776Z</time></trkpt><trkpt lat="44.6649908" lon="10.1467857"><ele>350.66666666666663</ele><time>2026-04-26T16:38:13.776Z</time></trkpt><trkpt lat="44.6649241" lon="10.1465743"><ele>349.0</ele><time>2026-04-26T16:38:14.776Z</time></trkpt><trkpt lat="44.6648533" lon="10.1463457"><ele>347.0</ele><time>2026-04-26T16:38:15.776Z</time></trkpt><trkpt lat="44.664768" lon="10.1461"><ele>345.0</ele><time>2026-04-26T16:38:16.776Z</time></trkpt><trkpt lat="44.664684" lon="10.1458475"><ele>343.0</ele><time>2026-04-26T16:38:17.776Z</time></trkpt><trkpt lat="44.6646094" lon="10.1456128"><ele>343.0</ele><time>2026-04-26T16:38:18.777Z</time></trkpt><trkpt lat="44.6645334" lon="10.145383"><ele>343.0</ele><time>2026-04-26T16:38:19.777Z</time></trkpt><trkpt lat="44.6644658" lon="10.1451652"><ele>343.0</ele><time>2026-04-26T16:38:20.776Z</time></trkpt><trkpt lat="44.6644055" lon="10.1449683"><ele>340.75</ele><time>2026-04-26T16:38:21.776Z</time></trkpt><trkpt lat="44.6643485" lon="10.1447888"><ele>338.5</ele><time>2026-04-26T16:38:22.776Z</time></trkpt><trkpt lat="44.6642988" lon="10.1446127"><ele>336.25</ele><time>2026-04-26T16:38:23.776Z</time></trkpt><trkpt lat="44.6642649" lon="10.1444324"><ele>334.0</ele><time>2026-04-26T16:38:24.778Z</time></trkpt><trkpt lat="44.6642546" lon="10.1442502"><ele>334.0</ele><time>2026-04-26T16:38:25.777Z</time></trkpt><trkpt lat="44.6642621" lon="10.14407"><ele>334.0</ele><time>2026-04-26T16:38:26.776Z</time></trkpt><trkpt lat="44.6642821" lon="10.1439102"><ele>334.0</ele><time>2026-04-26T16:38:27.776Z</time></trkpt><trkpt lat="44.6643311" lon="10.1437698"><ele>334.0</ele><time>2026-04-26T16:38:28.777Z</time></trkpt><trkpt lat="44.6644064" lon="10.1436453"><ele>331.5</ele><time>2026-04-26T16:38:29.777Z</time></trkpt><trkpt lat="44.6645056" lon="10.1435348"><ele>329.0</ele><time>2026-04-26T16:38:30.776Z</time></trkpt><trkpt lat="44.6646115" lon="10.1434186"><ele>326.5</ele><time>2026-04-26T16:38:31.777Z</time></trkpt><trkpt lat="44.6647194" lon="10.1432898"><ele>324.0</ele><time>2026-04-26T16:38:32.777Z</time></trkpt><trkpt lat="44.6648166" lon="10.1431453"><ele>324.0</ele><time>2026-04-26T16:38:33.776Z</time></trkpt><trkpt lat="44.6648942" lon="10.1429823"><ele>324.0</ele><time>2026-04-26T16:38:34.776Z</time></trkpt><trkpt lat="44.6649565" lon="10.1428148"><ele>324.0</ele><time>2026-04-26T16:38:35.776Z</time></trkpt><trkpt lat="44.6649949" lon="10.1426655"><ele>324.0</ele><time>2026-04-26T16:38:36.777Z</time></trkpt><trkpt lat="44.6650186" lon="10.142533"><ele>324.0</ele><time>2026-04-26T16:38:37.776Z</time></trkpt><trkpt lat="44.6650159" lon="10.1424092"><ele>324.0</ele><time>2026-04-26T16:38:38.777Z</time></trkpt><trkpt lat="44.6649787" lon="10.1423005"><ele>324.0</ele><time>2026-04-26T16:38:39.776Z</time></trkpt><trkpt lat="44.6649081" lon="10.1421998"><ele>324.0</ele><time>2026-04-26T16:38:40.776Z</time></trkpt><trkpt lat="44.6648188" lon="10.1420928"><ele>324.0</ele><time>2026-04-26T16:38:41.777Z</time></trkpt><trkpt lat="44.6647404" lon="10.1419744"><ele>325.25</ele><time>2026-04-26T16:38:42.776Z</time></trkpt><trkpt lat="44.6646401" lon="10.1418508"><ele>326.5</ele><time>2026-04-26T16:38:43.777Z</time></trkpt><trkpt lat="44.6645705" lon="10.1417099"><ele>327.75</ele><time>2026-04-26T16:38:44.776Z</time></trkpt><trkpt lat="44.6645103" lon="10.1415515"><ele>329.0</ele><time>2026-04-26T16:38:45.777Z</time></trkpt><trkpt lat="44.6644524" lon="10.1413778"><ele>325.6666666666667</ele><time>2026-04-26T16:38:46.776Z</time></trkpt><trkpt lat="44.6643903" lon="10.1411848"><ele>322.3333333333333</ele><time>2026-04-26T16:38:47.776Z</time></trkpt><trkpt lat="44.6643331" lon="10.1409828"><ele>319.0</ele><time>2026-04-26T16:38:48.776Z</time></trkpt><trkpt lat="44.6642835" lon="10.1407757"><ele>320.5</ele><time>2026-04-26T16:38:49.776Z</time></trkpt><trkpt lat="44.6642343" lon="10.1405846"><ele>322.0</ele><time>2026-04-26T16:38:50.776Z</time></trkpt><trkpt lat="44.6641775" lon="10.1404031"><ele>323.5</ele><time>2026-04-26T16:38:51.777Z</time></trkpt><trkpt lat="44.6640984" lon="10.1402412"><ele>325.0</ele><time>2026-04-26T16:38:52.776Z</time></trkpt><trkpt lat="44.6639903" lon="10.1401086"><ele>325.0</ele><time>2026-04-26T16:38:53.777Z</time></trkpt><trkpt lat="44.6638749" lon="10.1399924"><ele>325.0</ele><time>2026-04-26T16:38:54.777Z</time></trkpt><trkpt lat="44.6637758" lon="10.1399046"><ele>325.0</ele><time>2026-04-26T16:38:55.776Z</time></trkpt><trkpt lat="44.6636938" lon="10.1398097"><ele>325.0</ele><time>2026-04-26T16:38:56.777Z</time></trkpt><trkpt lat="44.6636381" lon="10.1397029"><ele>325.4</ele><time>2026-04-26T16:38:57.776Z</time></trkpt><trkpt lat="44.6636182" lon="10.1395966"><ele>325.8</ele><time>2026-04-26T16:38:58.777Z</time></trkpt><trkpt lat="44.6636409" lon="10.1394811"><ele>326.20000000000005</ele><time>2026-04-26T16:38:59.777Z</time></trkpt><trkpt lat="44.6636933" lon="10.1393668"><ele>326.6</ele><time>2026-04-26T16:39:00.777Z</time></trkpt><trkpt lat="44.6637381" lon="10.1392173"><ele>327.0</ele><time>2026-04-26T16:39:01.776Z</time></trkpt><trkpt lat="44.6637451" lon="10.1390398"><ele>325.25</ele><time>2026-04-26T16:39:02.776Z</time></trkpt><trkpt lat="44.663729" lon="10.138855"><ele>323.5</ele><time>2026-04-26T16:39:03.778Z</time></trkpt><trkpt lat="44.663705" lon="10.1386859"><ele>321.75</ele><time>2026-04-26T16:39:04.777Z</time></trkpt><trkpt lat="44.6636934" lon="10.138526"><ele>320.0</ele><time>2026-04-26T16:39:05.776Z</time></trkpt><trkpt lat="44.6637107" lon="10.138376"><ele>320.0</ele><time>2026-04-26T16:39:06.776Z</time></trkpt><trkpt lat="44.6637563" lon="10.1382375"><ele>320.0</ele><time>2026-04-26T16:39:07.777Z</time></trkpt><trkpt lat="44.6638267" lon="10.1380916"><ele>320.0</ele><time>2026-04-26T16:39:08.776Z</time></trkpt><trkpt lat="44.6639166" lon="10.1379396"><ele>320.0</ele><time>2026-04-26T16:39:09.777Z</time></trkpt><trkpt lat="44.6640101" lon="10.1377923"><ele>317.25</ele><time>2026-04-26T16:39:10.776Z</time></trkpt><trkpt lat="44.6640861" lon="10.1376368"><ele>314.5</ele><time>2026-04-26T16:39:11.776Z</time></trkpt><trkpt lat="44.6641413" lon="10.1374697"><ele>311.75</ele><time>2026-04-26T16:39:12.777Z</time></trkpt><trkpt lat="44.6641628" lon="10.1372966"><ele>309.0</ele><time>2026-04-26T16:39:13.776Z</time></trkpt><trkpt lat="44.664161" lon="10.137107"><ele>308.0</ele><time>2026-04-26T16:39:14.776Z</time></trkpt><trkpt lat="44.6641276" lon="10.1369179"><ele>307.0</ele><time>2026-04-26T16:39:15.777Z</time></trkpt><trkpt lat="44.6640774" lon="10.1367204"><ele>306.0</ele><time>2026-04-26T16:39:16.776Z</time></trkpt><trkpt lat="44.6640194" lon="10.1365327"><ele>305.0</ele><time>2026-04-26T16:39:17.777Z</time></trkpt><trkpt lat="44.6639654" lon="10.1363529"><ele>304.5</ele><time>2026-04-26T16:39:18.776Z</time></trkpt><trkpt lat="44.6639225" lon="10.136183"><ele>304.0</ele><time>2026-04-26T16:39:19.777Z</time></trkpt><trkpt lat="44.6638915" lon="10.1360191"><ele>303.5</ele><time>2026-04-26T16:39:20.776Z</time></trkpt><trkpt lat="44.6639216" lon="10.1358343"><ele>303.0</ele><time>2026-04-26T16:39:21.776Z</time></trkpt><trkpt lat="44.6639577" lon="10.1356518"><ele>303.0</ele><time>2026-04-26T16:39:22.777Z</time></trkpt><trkpt lat="44.6639947" lon="10.135477"><ele>303.0</ele><time>2026-04-26T16:39:23.777Z</time></trkpt><trkpt lat="44.663989" lon="10.1353176"><ele>303.0</ele><time>2026-04-26T16:39:24.776Z</time></trkpt><trkpt lat="44.6639543" lon="10.1351741"><ele>303.0</ele><time>2026-04-26T16:39:25.776Z</time></trkpt><trkpt lat="44.6638778" lon="10.1350375"><ele>303.0</ele><time>2026-04-26T16:39:26.777Z</time></trkpt><trkpt lat="44.6637789" lon="10.1349159"><ele>303.0</ele><time>2026-04-26T16:39:27.777Z</time></trkpt><trkpt lat="44.6636814" lon="10.1348002"><ele>303.0</ele><time>2026-04-26T16:39:28.777Z</time></trkpt><trkpt lat="44.6635999" lon="10.1346781"><ele>303.0</ele><time>2026-04-26T16:39:29.776Z</time></trkpt><trkpt lat="44.6635462" lon="10.1345571"><ele>300.5</ele><time>2026-04-26T16:39:30.776Z</time></trkpt><trkpt lat="44.6635137" lon="10.1344443"><ele>298.0</ele><time>2026-04-26T16:39:31.777Z</time></trkpt><trkpt lat="44.6634873" lon="10.1343559"><ele>295.5</ele><time>2026-04-26T16:39:32.776Z</time></trkpt><trkpt lat="44.6633824" lon="10.1343007"><ele>293.0</ele><time>2026-04-26T16:39:34.776Z</time></trkpt><trkpt lat="44.6633251" lon="10.1344206"><ele>290.5</ele><time>2026-04-26T16:39:36.776Z</time></trkpt><trkpt lat="44.663333" lon="10.1345172"><ele>288.0</ele><time>2026-04-26T16:39:37.776Z</time></trkpt><trkpt lat="44.6633688" lon="10.1346207"><ele>288.0</ele><time>2026-04-26T16:39:38.777Z</time></trkpt><trkpt lat="44.6634323" lon="10.1347267"><ele>288.0</ele><time>2026-04-26T16:39:39.776Z</time></trkpt><trkpt lat="44.6635086" lon="10.1348497"><ele>288.0</ele><time>2026-04-26T16:39:40.776Z</time></trkpt><trkpt lat="44.6635802" lon="10.1349951"><ele>288.0</ele><time>2026-04-26T16:39:41.776Z</time></trkpt><trkpt lat="44.6636216" lon="10.1351443"><ele>287.0</ele><time>2026-04-26T16:39:42.776Z</time></trkpt><trkpt lat="44.6636542" lon="10.1353001"><ele>286.0</ele><time>2026-04-26T16:39:43.776Z</time></trkpt><trkpt lat="44.6635913" lon="10.1354303"><ele>285.0</ele><time>2026-04-26T16:39:44.776Z</time></trkpt><trkpt lat="44.6635298" lon="10.1355498"><ele>284.0</ele><time>2026-04-26T16:39:45.778Z</time></trkpt><trkpt lat="44.6634435" lon="10.1356483"><ele>283.0</ele><time>2026-04-26T16:39:46.777Z</time></trkpt><trkpt lat="44.6633574" lon="10.1357571"><ele>282.6</ele><time>2026-04-26T16:39:47.777Z</time></trkpt><trkpt lat="44.6632871" lon="10.1358815"><ele>282.20000000000005</ele><time>2026-04-26T16:39:48.776Z</time></trkpt><trkpt lat="44.6632357" lon="10.1360196"><ele>281.8</ele><time>2026-04-26T16:39:49.776Z</time></trkpt><trkpt lat="44.6632117" lon="10.1361654"><ele>281.40000000000003</ele><time>2026-04-26T16:39:50.777Z</time></trkpt><trkpt lat="44.6631902" lon="10.1363099"><ele>281.0</ele><time>2026-04-26T16:39:51.777Z</time></trkpt><trkpt lat="44.6632024" lon="10.1364835"><ele>281.40000000000003</ele><time>2026-04-26T16:39:52.776Z</time></trkpt><trkpt lat="44.663311" lon="10.1366094"><ele>281.8</ele><time>2026-04-26T16:39:53.777Z</time></trkpt><trkpt lat="44.6633243" lon="10.1367582"><ele>282.20000000000005</ele><time>2026-04-26T16:39:54.776Z</time></trkpt><trkpt lat="44.6633094" lon="10.1368921"><ele>282.6</ele><time>2026-04-26T16:39:55.776Z</time></trkpt><trkpt lat="44.6632626" lon="10.1369975"><ele>283.0</ele><time>2026-04-26T16:39:56.776Z</time></trkpt><trkpt lat="44.6631808" lon="10.1370896"><ele>283.0</ele><time>2026-04-26T16:39:57.776Z</time></trkpt><trkpt lat="44.6630884" lon="10.1371929"><ele>283.0</ele><time>2026-04-26T16:39:58.777Z</time></trkpt><trkpt lat="44.662999" lon="10.1373362"><ele>283.0</ele><time>2026-04-26T16:39:59.777Z</time></trkpt><trkpt lat="44.6628989" lon="10.1374527"><ele>283.0</ele><time>2026-04-26T16:40:00.776Z</time></trkpt><trkpt lat="44.6627853" lon="10.1375352"><ele>279.0</ele><time>2026-04-26T16:40:01.776Z</time></trkpt><trkpt lat="44.6626492" lon="10.1376022"><ele>275.0</ele><time>2026-04-26T16:40:02.776Z</time></trkpt><trkpt lat="44.6625322" lon="10.1376653"><ele>271.0</ele><time>2026-04-26T16:40:03.776Z</time></trkpt><trkpt lat="44.6624199" lon="10.1377668"><ele>267.0</ele><time>2026-04-26T16:40:04.776Z</time></trkpt><trkpt lat="44.6623065" lon="10.1378999"><ele>267.0</ele><time>2026-04-26T16:40:05.777Z</time></trkpt><trkpt lat="44.6621956" lon="10.1380193"><ele>267.0</ele><time>2026-04-26T16:40:06.776Z</time></trkpt><trkpt lat="44.6620997" lon="10.1381322"><ele>267.0</ele><time>2026-04-26T16:40:07.777Z</time></trkpt><trkpt lat="44.662023" lon="10.1382445"><ele>267.0</ele><time>2026-04-26T16:40:08.776Z</time></trkpt><trkpt lat="44.6619774" lon="10.1383768"><ele>264.6</ele><time>2026-04-26T16:40:09.776Z</time></trkpt><trkpt lat="44.6619483" lon="10.1385244"><ele>262.2</ele><time>2026-04-26T16:40:10.777Z</time></trkpt><trkpt lat="44.6619216" lon="10.1386962"><ele>259.8</ele><time>2026-04-26T16:40:11.776Z</time></trkpt><trkpt lat="44.661882" lon="10.1388337"><ele>257.4</ele><time>2026-04-26T16:40:12.777Z</time></trkpt><trkpt lat="44.6618233" lon="10.1389176"><ele>255.0</ele><time>2026-04-26T16:40:13.776Z</time></trkpt><trkpt lat="44.6617616" lon="10.1389464"><ele>255.0</ele><time>2026-04-26T16:40:14.777Z</time></trkpt><trkpt lat="44.6616952" lon="10.1388259"><ele>255.0</ele><time>2026-04-26T16:40:16.776Z</time></trkpt><trkpt lat="44.661707" lon="10.1387005"><ele>255.0</ele><time>2026-04-26T16:40:17.776Z</time></trkpt><trkpt lat="44.6617354" lon="10.1385464"><ele>255.0</ele><time>2026-04-26T16:40:18.776Z</time></trkpt><trkpt lat="44.6617528" lon="10.1383831"><ele>255.0</ele><time>2026-04-26T16:40:19.778Z</time></trkpt><trkpt lat="44.6617624" lon="10.1382003"><ele>253.5</ele><time>2026-04-26T16:40:20.776Z</time></trkpt><trkpt lat="44.6617859" lon="10.1380294"><ele>252.0</ele><time>2026-04-26T16:40:21.777Z</time></trkpt><trkpt lat="44.6618266" lon="10.1378657"><ele>250.5</ele><time>2026-04-26T16:40:22.776Z</time></trkpt><trkpt lat="44.6618816" lon="10.1377135"><ele>249.0</ele><time>2026-04-26T16:40:23.777Z</time></trkpt><trkpt lat="44.6619325" lon="10.1375665"><ele>251.25</ele><time>2026-04-26T16:40:24.777Z</time></trkpt><trkpt lat="44.6619797" lon="10.1374157"><ele>253.5</ele><time>2026-04-26T16:40:25.777Z</time></trkpt><trkpt lat="44.6620123" lon="10.1372577"><ele>255.75</ele><time>2026-04-26T16:40:26.777Z</time></trkpt><trkpt lat="44.6620359" lon="10.1370915"><ele>258.0</ele><time>2026-04-26T16:40:27.778Z</time></trkpt><trkpt lat="44.6620413" lon="10.1369136"><ele>258.0</ele><time>2026-04-26T16:40:28.776Z</time></trkpt><trkpt lat="44.6620295" lon="10.1367307"><ele>258.0</ele><time>2026-04-26T16:40:29.776Z</time></trkpt><trkpt lat="44.6619855" lon="10.1365586"><ele>258.0</ele><time>2026-04-26T16:40:30.776Z</time></trkpt><trkpt lat="44.6619166" lon="10.1364129"><ele>258.0</ele><time>2026-04-26T16:40:31.777Z</time></trkpt><trkpt lat="44.6618248" lon="10.1363032"><ele>254.60000000000002</ele><time>2026-04-26T16:40:32.776Z</time></trkpt><trkpt lat="44.661738" lon="10.1362015"><ele>251.20000000000002</ele><time>2026-04-26T16:40:33.776Z</time></trkpt><trkpt lat="44.6616811" lon="10.1360912"><ele>247.8</ele><time>2026-04-26T16:40:34.777Z</time></trkpt><trkpt lat="44.6616634" lon="10.1359764"><ele>244.4</ele><time>2026-04-26T16:40:35.777Z</time></trkpt><trkpt lat="44.6616787" lon="10.1358553"><ele>241.0</ele><time>2026-04-26T16:40:36.776Z</time></trkpt><trkpt lat="44.6617138" lon="10.1357227"><ele>239.75</ele><time>2026-04-26T16:40:37.778Z</time></trkpt><trkpt lat="44.661747" lon="10.1355655"><ele>238.5</ele><time>2026-04-26T16:40:38.777Z</time></trkpt><trkpt lat="44.6617748" lon="10.1353836"><ele>237.25</ele><time>2026-04-26T16:40:39.776Z</time></trkpt><trkpt lat="44.661785" lon="10.1352045"><ele>236.0</ele><time>2026-04-26T16:40:40.777Z</time></trkpt><trkpt lat="44.6617834" lon="10.1350077"><ele>235.0</ele><time>2026-04-26T16:40:41.776Z</time></trkpt><trkpt lat="44.6617827" lon="10.1348031"><ele>234.0</ele><time>2026-04-26T16:40:42.776Z</time></trkpt><trkpt lat="44.6617937" lon="10.1345925"><ele>233.0</ele><time>2026-04-26T16:40:43.777Z</time></trkpt><trkpt lat="44.6618047" lon="10.134383"><ele>232.0</ele><time>2026-04-26T16:40:44.776Z</time></trkpt><trkpt lat="44.6618052" lon="10.1341707"><ele>231.0</ele><time>2026-04-26T16:40:45.776Z</time></trkpt><trkpt lat="44.6617954" lon="10.13396"><ele>230.0</ele><time>2026-04-26T16:40:46.776Z</time></trkpt><trkpt lat="44.6617722" lon="10.1337436"><ele>229.0</ele><time>2026-04-26T16:40:47.776Z</time></trkpt><trkpt lat="44.6617441" lon="10.1335173"><ele>229.0</ele><time>2026-04-26T16:40:48.776Z</time></trkpt><trkpt lat="44.6617166" lon="10.1332856"><ele>229.0</ele><time>2026-04-26T16:40:49.777Z</time></trkpt><trkpt lat="44.6616936" lon="10.1330652"><ele>229.0</ele><time>2026-04-26T16:40:50.776Z</time></trkpt><trkpt lat="44.6616794" lon="10.132854"><ele>228.75</ele><time>2026-04-26T16:40:51.776Z</time></trkpt><trkpt lat="44.6616812" lon="10.1326513"><ele>228.5</ele><time>2026-04-26T16:40:52.776Z</time></trkpt><trkpt lat="44.6616987" lon="10.1324491"><ele>228.25</ele><time>2026-04-26T16:40:53.776Z</time></trkpt><trkpt lat="44.6617294" lon="10.1322395"><ele>228.0</ele><time>2026-04-26T16:40:54.776Z</time></trkpt><trkpt lat="44.6617661" lon="10.132038"><ele>226.5</ele><time>2026-04-26T16:40:55.777Z</time></trkpt><trkpt lat="44.6618078" lon="10.1318315"><ele>225.0</ele><time>2026-04-26T16:40:56.776Z</time></trkpt><trkpt lat="44.6618553" lon="10.1316306"><ele>223.5</ele><time>2026-04-26T16:40:57.776Z</time></trkpt><trkpt lat="44.6619062" lon="10.1314387"><ele>222.0</ele><time>2026-04-26T16:40:58.777Z</time></trkpt><trkpt lat="44.6619513" lon="10.1312585"><ele>222.0</ele><time>2026-04-26T16:40:59.776Z</time></trkpt><trkpt lat="44.6619861" lon="10.1310859"><ele>222.0</ele><time>2026-04-26T16:41:00.777Z</time></trkpt><trkpt lat="44.6620064" lon="10.1309234"><ele>222.0</ele><time>2026-04-26T16:41:01.776Z</time></trkpt><trkpt lat="44.6620001" lon="10.1307607"><ele>222.0</ele><time>2026-04-26T16:41:02.776Z</time></trkpt><trkpt lat="44.6619718" lon="10.1306087"><ele>221.83333333333334</ele><time>2026-04-26T16:41:03.777Z</time></trkpt><trkpt lat="44.6619303" lon="10.1304888"><ele>221.66666666666669</ele><time>2026-04-26T16:41:04.776Z</time></trkpt><trkpt lat="44.6618853" lon="10.1303963"><ele>221.5</ele><time>2026-04-26T16:41:05.777Z</time></trkpt><trkpt lat="44.6618388" lon="10.1303309"><ele>221.33333333333334</ele><time>2026-04-26T16:41:06.777Z</time></trkpt><trkpt lat="44.6617367" lon="10.1302752"><ele>221.16666666666669</ele><time>2026-04-26T16:41:08.776Z</time></trkpt><trkpt lat="44.6616742" lon="10.1303504"><ele>221.0</ele><time>2026-04-26T16:41:09.777Z</time></trkpt><trkpt lat="44.6616138" lon="10.1304123"><ele>221.0</ele><time>2026-04-26T16:41:10.777Z</time></trkpt><trkpt lat="44.6615499" lon="10.130497"><ele>221.0</ele><time>2026-04-26T16:41:11.777Z</time></trkpt><trkpt lat="44.6614862" lon="10.1306158"><ele>221.0</ele><time>2026-04-26T16:41:12.776Z</time></trkpt><trkpt lat="44.6614279" lon="10.1307848"><ele>221.0</ele><time>2026-04-26T16:41:13.776Z</time></trkpt><trkpt lat="44.6613797" lon="10.1309741"><ele>221.33333333333334</ele><time>2026-04-26T16:41:14.776Z</time></trkpt><trkpt lat="44.6613329" lon="10.1311625"><ele>221.66666666666669</ele><time>2026-04-26T16:41:15.777Z</time></trkpt><trkpt lat="44.6612866" lon="10.1313666"><ele>222.0</ele><time>2026-04-26T16:41:16.776Z</time></trkpt><trkpt lat="44.6612435" lon="10.1315838"><ele>222.0</ele><time>2026-04-26T16:41:17.777Z</time></trkpt><trkpt lat="44.6612042" lon="10.131806"><ele>222.0</ele><time>2026-04-26T16:41:18.776Z</time></trkpt><trkpt lat="44.6611691" lon="10.1320196"><ele>222.0</ele><time>2026-04-26T16:41:19.777Z</time></trkpt><trkpt lat="44.6611388" lon="10.1322402"><ele>223.33333333333331</ele><time>2026-04-26T16:41:20.776Z</time></trkpt><trkpt lat="44.661119" lon="10.1324692"><ele>224.66666666666666</ele><time>2026-04-26T16:41:21.776Z</time></trkpt><trkpt lat="44.6611131" lon="10.1327"><ele>226.0</ele><time>2026-04-26T16:41:22.776Z</time></trkpt><trkpt lat="44.6611202" lon="10.1329304"><ele>226.66666666666666</ele><time>2026-04-26T16:41:23.776Z</time></trkpt><trkpt lat="44.6611329" lon="10.1331659"><ele>227.33333333333331</ele><time>2026-04-26T16:41:24.777Z</time></trkpt><trkpt lat="44.6611476" lon="10.1334049"><ele>228.0</ele><time>2026-04-26T16:41:25.776Z</time></trkpt><trkpt lat="44.6611628" lon="10.1336444"><ele>228.33333333333331</ele><time>2026-04-26T16:41:26.777Z</time></trkpt><trkpt lat="44.6611736" lon="10.1338811"><ele>228.66666666666666</ele><time>2026-04-26T16:41:27.776Z</time></trkpt><trkpt lat="44.6611787" lon="10.1341146"><ele>229.0</ele><time>2026-04-26T16:41:28.776Z</time></trkpt><trkpt lat="44.6611661" lon="10.1343402"><ele>230.0</ele><time>2026-04-26T16:41:29.776Z</time></trkpt><trkpt lat="44.6611329" lon="10.1345497"><ele>231.0</ele><time>2026-04-26T16:41:30.776Z</time></trkpt><trkpt lat="44.6610766" lon="10.134748"><ele>232.0</ele><time>2026-04-26T16:41:31.776Z</time></trkpt><trkpt lat="44.6610186" lon="10.1349468"><ele>232.66666666666666</ele><time>2026-04-26T16:41:32.777Z</time></trkpt><trkpt lat="44.6609765" lon="10.1351555"><ele>233.33333333333331</ele><time>2026-04-26T16:41:33.776Z</time></trkpt><trkpt lat="44.6609395" lon="10.1353707"><ele>234.0</ele><time>2026-04-26T16:41:34.777Z</time></trkpt><trkpt lat="44.660911" lon="10.1355884"><ele>233.33333333333331</ele><time>2026-04-26T16:41:35.776Z</time></trkpt><trkpt lat="44.6608779" lon="10.1358112"><ele>232.66666666666666</ele><time>2026-04-26T16:41:36.777Z</time></trkpt><trkpt lat="44.6608384" lon="10.1360187"><ele>232.0</ele><time>2026-04-26T16:41:37.776Z</time></trkpt><trkpt lat="44.6607855" lon="10.1362122"><ele>232.0</ele><time>2026-04-26T16:41:38.777Z</time></trkpt><trkpt lat="44.6607172" lon="10.1363945"><ele>232.0</ele><time>2026-04-26T16:41:39.776Z</time></trkpt><trkpt lat="44.6606383" lon="10.1365668"><ele>232.0</ele><time>2026-04-26T16:41:40.776Z</time></trkpt><trkpt lat="44.6605633" lon="10.1367249"><ele>232.0</ele><time>2026-04-26T16:41:41.776Z</time></trkpt><trkpt lat="44.6604926" lon="10.1368695"><ele>231.6</ele><time>2026-04-26T16:41:42.776Z</time></trkpt><trkpt lat="44.6604288" lon="10.1370037"><ele>231.2</ele><time>2026-04-26T16:41:43.777Z</time></trkpt><trkpt lat="44.6603783" lon="10.1371343"><ele>230.8</ele><time>2026-04-26T16:41:44.776Z</time></trkpt><trkpt lat="44.6603474" lon="10.1372621"><ele>230.4</ele><time>2026-04-26T16:41:45.776Z</time></trkpt><trkpt lat="44.6603265" lon="10.1373945"><ele>230.0</ele><time>2026-04-26T16:41:46.776Z</time></trkpt><trkpt lat="44.6603133" lon="10.1375312"><ele>231.2</ele><time>2026-04-26T16:41:47.777Z</time></trkpt><trkpt lat="44.6603025" lon="10.1376803"><ele>232.4</ele><time>2026-04-26T16:41:48.776Z</time></trkpt><trkpt lat="44.6603019" lon="10.137822"><ele>233.60000000000002</ele><time>2026-04-26T16:41:49.776Z</time></trkpt><trkpt lat="44.6602999" lon="10.1379468"><ele>234.8</ele><time>2026-04-26T16:41:50.777Z</time></trkpt><trkpt lat="44.6602681" lon="10.1380908"><ele>236.0</ele><time>2026-04-26T16:41:52.776Z</time></trkpt><trkpt lat="44.6601963" lon="10.1381361"><ele>236.16666666666669</ele><time>2026-04-26T16:41:54.776Z</time></trkpt><trkpt lat="44.6600953" lon="10.1381241"><ele>236.33333333333334</ele><time>2026-04-26T16:41:56.777Z</time></trkpt><trkpt lat="44.6600233" lon="10.1380956"><ele>236.5</ele><time>2026-04-26T16:41:57.776Z</time></trkpt><trkpt lat="44.6599415" lon="10.1380582"><ele>236.66666666666669</ele><time>2026-04-26T16:41:58.777Z</time></trkpt><trkpt lat="44.6598572" lon="10.1380333"><ele>236.83333333333334</ele><time>2026-04-26T16:41:59.777Z</time></trkpt><trkpt lat="44.6597749" lon="10.1380315"><ele>237.0</ele><time>2026-04-26T16:42:00.777Z</time></trkpt><trkpt lat="44.6596949" lon="10.1380572"><ele>237.0</ele><time>2026-04-26T16:42:01.776Z</time></trkpt><trkpt lat="44.6596147" lon="10.1381036"><ele>237.0</ele><time>2026-04-26T16:42:02.777Z</time></trkpt><trkpt lat="44.6595304" lon="10.1381704"><ele>237.0</ele><time>2026-04-26T16:42:03.776Z</time></trkpt><trkpt lat="44.6594348" lon="10.1382434"><ele>237.0</ele><time>2026-04-26T16:42:04.776Z</time></trkpt><trkpt lat="44.6593315" lon="10.1383207"><ele>237.0</ele><time>2026-04-26T16:42:05.776Z</time></trkpt><trkpt lat="44.6592246" lon="10.1384114"><ele>239.5</ele><time>2026-04-26T16:42:06.777Z</time></trkpt><trkpt lat="44.6591079" lon="10.1385114"><ele>242.0</ele><time>2026-04-26T16:42:07.776Z</time></trkpt><trkpt lat="44.6589938" lon="10.1386128"><ele>244.5</ele><time>2026-04-26T16:42:08.777Z</time></trkpt><trkpt lat="44.6588916" lon="10.1387052"><ele>247.0</ele><time>2026-04-26T16:42:09.777Z</time></trkpt><trkpt lat="44.6587972" lon="10.1387862"><ele>246.99999999999997</ele><time>2026-04-26T16:42:10.777Z</time></trkpt><trkpt lat="44.6587129" lon="10.1388561"><ele>247.0</ele><time>2026-04-26T16:42:11.776Z</time></trkpt><trkpt lat="44.6586441" lon="10.1388855"><ele>247.0</ele><time>2026-04-26T16:42:12.776Z</time></trkpt><trkpt lat="44.6585519" lon="10.1389524"><ele>247.0</ele><time>2026-04-26T16:42:14.777Z</time></trkpt><trkpt lat="44.6585312" lon="10.1390492"><ele>246.99999999999997</ele><time>2026-04-26T16:42:16.777Z</time></trkpt><trkpt lat="44.6586036" lon="10.1391457"><ele>247.0</ele><time>2026-04-26T16:42:18.776Z</time></trkpt><trkpt lat="44.6586651" lon="10.1391653"><ele>249.6</ele><time>2026-04-26T16:42:19.776Z</time></trkpt><trkpt lat="44.658749" lon="10.1391683"><ele>252.2</ele><time>2026-04-26T16:42:20.777Z</time></trkpt><trkpt lat="44.6588478" lon="10.1391746"><ele>254.8</ele><time>2026-04-26T16:42:21.776Z</time></trkpt><trkpt lat="44.6589463" lon="10.1391935"><ele>257.4</ele><time>2026-04-26T16:42:22.776Z</time></trkpt><trkpt lat="44.6590538" lon="10.1392176"><ele>260.0</ele><time>2026-04-26T16:42:23.777Z</time></trkpt><trkpt lat="44.6591666" lon="10.1392559"><ele>260.0</ele><time>2026-04-26T16:42:24.776Z</time></trkpt><trkpt lat="44.659261" lon="10.1392981"><ele>260.0</ele><time>2026-04-26T16:42:25.776Z</time></trkpt><trkpt lat="44.6593366" lon="10.13935"><ele>260.0</ele><time>2026-04-26T16:42:26.776Z</time></trkpt><trkpt lat="44.6593916" lon="10.1394029"><ele>260.0</ele><time>2026-04-26T16:42:27.776Z</time></trkpt><trkpt lat="44.6594454" lon="10.1395409"><ele>260.0</ele><time>2026-04-26T16:42:29.777Z</time></trkpt><trkpt lat="44.6594557" lon="10.1396407"><ele>260.0</ele><time>2026-04-26T16:42:30.777Z</time></trkpt><trkpt lat="44.6594596" lon="10.1397548"><ele>260.0</ele><time>2026-04-26T16:42:31.776Z</time></trkpt><trkpt lat="44.6594453" lon="10.139855"><ele>260.0</ele><time>2026-04-26T16:42:32.777Z</time></trkpt><trkpt lat="44.6593973" lon="10.1399705"><ele>260.0</ele><time>2026-04-26T16:42:34.776Z</time></trkpt><trkpt lat="44.6593051" lon="10.1399964"><ele>260.0</ele><time>2026-04-26T16:42:36.776Z</time></trkpt><trkpt lat="44.65919" lon="10.1400032"><ele>260.0</ele><time>2026-04-26T16:42:38.776Z</time></trkpt><trkpt lat="44.6591285" lon="10.1400274"><ele>260.0</ele><time>2026-04-26T16:42:39.778Z</time></trkpt><trkpt lat="44.6590714" lon="10.1400702"><ele>261.83333333333337</ele><time>2026-04-26T16:42:40.776Z</time></trkpt><trkpt lat="44.6590216" lon="10.1401359"><ele>263.6666666666667</ele><time>2026-04-26T16:42:41.777Z</time></trkpt><trkpt lat="44.6589723" lon="10.14021"><ele>265.5</ele><time>2026-04-26T16:42:42.777Z</time></trkpt><trkpt lat="44.658949" lon="10.1403328"><ele>267.3333333333333</ele><time>2026-04-26T16:42:43.776Z</time></trkpt><trkpt lat="44.6589242" lon="10.1404458"><ele>269.16666666666663</ele><time>2026-04-26T16:42:44.777Z</time></trkpt><trkpt lat="44.6588988" lon="10.140556"><ele>271.0</ele><time>2026-04-26T16:42:45.776Z</time></trkpt><trkpt lat="44.658885" lon="10.1406891"><ele>272.16666666666663</ele><time>2026-04-26T16:42:46.777Z</time></trkpt><trkpt lat="44.6588639" lon="10.140797"><ele>273.3333333333333</ele><time>2026-04-26T16:42:47.776Z</time></trkpt><trkpt lat="44.6588408" lon="10.1408912"><ele>274.5</ele><time>2026-04-26T16:42:48.778Z</time></trkpt><trkpt lat="44.6587657" lon="10.1410165"><ele>275.6666666666667</ele><time>2026-04-26T16:42:50.777Z</time></trkpt><trkpt lat="44.6587053" lon="10.1410531"><ele>276.83333333333337</ele><time>2026-04-26T16:42:51.776Z</time></trkpt><trkpt lat="44.6586266" lon="10.1410759"><ele>278.0</ele><time>2026-04-26T16:42:52.777Z</time></trkpt><trkpt lat="44.6585333" lon="10.1410841"><ele>279.33333333333337</ele><time>2026-04-26T16:42:53.776Z</time></trkpt><trkpt lat="44.6584417" lon="10.1411058"><ele>280.6666666666667</ele><time>2026-04-26T16:42:54.777Z</time></trkpt><trkpt lat="44.6583477" lon="10.141145"><ele>282.0</ele><time>2026-04-26T16:42:55.777Z</time></trkpt><trkpt lat="44.6582738" lon="10.1411882"><ele>283.3333333333333</ele><time>2026-04-26T16:42:56.776Z</time></trkpt><trkpt lat="44.6582084" lon="10.1412506"><ele>284.66666666666663</ele><time>2026-04-26T16:42:57.777Z</time></trkpt><trkpt lat="44.6581498" lon="10.1413388"><ele>286.0</ele><time>2026-04-26T16:42:58.777Z</time></trkpt><trkpt lat="44.6580953" lon="10.1414524"><ele>287.6</ele><time>2026-04-26T16:42:59.776Z</time></trkpt><trkpt lat="44.6580311" lon="10.1415588"><ele>289.20000000000005</ele><time>2026-04-26T16:43:00.778Z</time></trkpt><trkpt lat="44.6579527" lon="10.1416355"><ele>290.79999999999995</ele><time>2026-04-26T16:43:01.776Z</time></trkpt><trkpt lat="44.6578607" lon="10.141712"><ele>292.4</ele><time>2026-04-26T16:43:02.776Z</time></trkpt><trkpt lat="44.6577594" lon="10.1417879"><ele>294.0</ele><time>2026-04-26T16:43:03.777Z</time></trkpt><trkpt lat="44.6576502" lon="10.1418654"><ele>296.75</ele><time>2026-04-26T16:43:04.776Z</time></trkpt><trkpt lat="44.657545" lon="10.14194"><ele>299.5</ele><time>2026-04-26T16:43:05.776Z</time></trkpt><trkpt lat="44.6574224" lon="10.1420192"><ele>302.25</ele><time>2026-04-26T16:43:06.777Z</time></trkpt><trkpt lat="44.6572989" lon="10.1420951"><ele>305.0</ele><time>2026-04-26T16:43:07.776Z</time></trkpt><trkpt lat="44.657175" lon="10.1421824"><ele>305.0</ele><time>2026-04-26T16:43:08.777Z</time></trkpt><trkpt lat="44.6570473" lon="10.1422669"><ele>305.0</ele><time>2026-04-26T16:43:09.777Z</time></trkpt><trkpt lat="44.6569247" lon="10.1423435"><ele>305.0</ele><time>2026-04-26T16:43:10.776Z</time></trkpt><trkpt lat="44.6568212" lon="10.1424014"><ele>305.0</ele><time>2026-04-26T16:43:11.777Z</time></trkpt><trkpt lat="44.656735" lon="10.1424524"><ele>306.33333333333337</ele><time>2026-04-26T16:43:12.776Z</time></trkpt><trkpt lat="44.6566679" lon="10.1425001"><ele>307.6666666666667</ele><time>2026-04-26T16:43:13.777Z</time></trkpt><trkpt lat="44.656579" lon="10.1426155"><ele>309.0</ele><time>2026-04-26T16:43:15.776Z</time></trkpt><trkpt lat="44.6565373" lon="10.1426939"><ele>310.3333333333333</ele><time>2026-04-26T16:43:16.777Z</time></trkpt><trkpt lat="44.6565093" lon="10.1427884"><ele>311.66666666666663</ele><time>2026-04-26T16:43:17.776Z</time></trkpt><trkpt lat="44.6564764" lon="10.1429136"><ele>313.0</ele><time>2026-04-26T16:43:18.777Z</time></trkpt><trkpt lat="44.6564319" lon="10.1430516"><ele>313.0</ele><time>2026-04-26T16:43:19.776Z</time></trkpt><trkpt lat="44.6563824" lon="10.1432101"><ele>313.0</ele><time>2026-04-26T16:43:20.776Z</time></trkpt><trkpt lat="44.6563304" lon="10.1433746"><ele>313.0</ele><time>2026-04-26T16:43:21.776Z</time></trkpt><trkpt lat="44.6562898" lon="10.1435165"><ele>313.0</ele><time>2026-04-26T16:43:22.775Z</time></trkpt><trkpt lat="44.656253" lon="10.1436642"><ele>313.0</ele><time>2026-04-26T16:43:23.775Z</time></trkpt><trkpt lat="44.6562219" lon="10.1438233"><ele>313.0</ele><time>2026-04-26T16:43:24.775Z</time></trkpt><trkpt lat="44.6562005" lon="10.1439798"><ele>313.0</ele><time>2026-04-26T16:43:25.775Z</time></trkpt><trkpt lat="44.6561703" lon="10.1441087"><ele>313.0</ele><time>2026-04-26T16:43:26.775Z</time></trkpt><trkpt lat="44.6561235" lon="10.1442317"><ele>313.0</ele><time>2026-04-26T16:43:27.775Z</time></trkpt><trkpt lat="44.6560621" lon="10.1443513"><ele>313.66666666666663</ele><time>2026-04-26T16:43:28.776Z</time></trkpt><trkpt lat="44.6560011" lon="10.1444609"><ele>314.3333333333333</ele><time>2026-04-26T16:43:29.775Z</time></trkpt><trkpt lat="44.6559537" lon="10.1445588"><ele>315.0</ele><time>2026-04-26T16:43:30.775Z</time></trkpt><trkpt lat="44.6559114" lon="10.1446672"><ele>315.6666666666667</ele><time>2026-04-26T16:43:31.776Z</time></trkpt><trkpt lat="44.6558797" lon="10.1447788"><ele>316.33333333333337</ele><time>2026-04-26T16:43:32.775Z</time></trkpt><trkpt lat="44.6558534" lon="10.1448974"><ele>317.0</ele><time>2026-04-26T16:43:33.777Z</time></trkpt><trkpt lat="44.655818" lon="10.1450114"><ele>320.0</ele><time>2026-04-26T16:43:34.775Z</time></trkpt><trkpt lat="44.6557731" lon="10.1450924"><ele>323.0</ele><time>2026-04-26T16:43:35.775Z</time></trkpt><trkpt lat="44.6557175" lon="10.1451687"><ele>326.0</ele><time>2026-04-26T16:43:36.775Z</time></trkpt><trkpt lat="44.655657" lon="10.1452577"><ele>329.0</ele><time>2026-04-26T16:43:37.775Z</time></trkpt><trkpt lat="44.6555877" lon="10.1453414"><ele>332.0</ele><time>2026-04-26T16:43:38.776Z</time></trkpt><trkpt lat="44.655519" lon="10.1454426"><ele>335.0</ele><time>2026-04-26T16:43:39.775Z</time></trkpt><trkpt lat="44.6554529" lon="10.1455395"><ele>335.0</ele><time>2026-04-26T16:43:40.776Z</time></trkpt><trkpt lat="44.6554139" lon="10.1456337"><ele>335.0</ele><time>2026-04-26T16:43:41.775Z</time></trkpt><trkpt lat="44.6553882" lon="10.1457805"><ele>335.0</ele><time>2026-04-26T16:43:42.776Z</time></trkpt><trkpt lat="44.6553642" lon="10.1458959"><ele>335.0</ele><time>2026-04-26T16:43:43.775Z</time></trkpt><trkpt lat="44.6553424" lon="10.1460317"><ele>335.0</ele><time>2026-04-26T16:43:44.777Z</time></trkpt><trkpt lat="44.6553138" lon="10.1461675"><ele>336.0</ele><time>2026-04-26T16:43:45.775Z</time></trkpt><trkpt lat="44.655272" lon="10.1463044"><ele>337.0</ele><time>2026-04-26T16:43:46.775Z</time></trkpt><trkpt lat="44.6552169" lon="10.1464323"><ele>338.0</ele><time>2026-04-26T16:43:47.776Z</time></trkpt><trkpt lat="44.6551454" lon="10.1465556"><ele>339.0</ele><time>2026-04-26T16:43:48.775Z</time></trkpt><trkpt lat="44.6550601" lon="10.1466842"><ele>340.25</ele><time>2026-04-26T16:43:49.776Z</time></trkpt><trkpt lat="44.6549636" lon="10.1468239"><ele>341.5</ele><time>2026-04-26T16:43:50.775Z</time></trkpt><trkpt lat="44.6548609" lon="10.1469721"><ele>342.75</ele><time>2026-04-26T16:43:51.775Z</time></trkpt><trkpt lat="44.6547465" lon="10.1471046"><ele>344.0</ele><time>2026-04-26T16:43:52.776Z</time></trkpt><trkpt lat="44.6546223" lon="10.1472296"><ele>344.0</ele><time>2026-04-26T16:43:53.775Z</time></trkpt><trkpt lat="44.6545074" lon="10.1473364"><ele>344.0</ele><time>2026-04-26T16:43:54.775Z</time></trkpt><trkpt lat="44.6544125" lon="10.1474244"><ele>344.0</ele><time>2026-04-26T16:43:55.776Z</time></trkpt><trkpt lat="44.6543393" lon="10.1475139"><ele>344.0</ele><time>2026-04-26T16:43:56.775Z</time></trkpt><trkpt lat="44.654278" lon="10.1476159"><ele>344.0</ele><time>2026-04-26T16:43:57.776Z</time></trkpt><trkpt lat="44.6542185" lon="10.1477368"><ele>345.2</ele><time>2026-04-26T16:43:58.775Z</time></trkpt><trkpt lat="44.6541522" lon="10.1478533"><ele>346.4</ele><time>2026-04-26T16:43:59.776Z</time></trkpt><trkpt lat="44.6540786" lon="10.1479651"><ele>347.6</ele><time>2026-04-26T16:44:00.775Z</time></trkpt><trkpt lat="44.6540075" lon="10.1480734"><ele>348.8</ele><time>2026-04-26T16:44:01.775Z</time></trkpt><trkpt lat="44.6539533" lon="10.1481686"><ele>350.0</ele><time>2026-04-26T16:44:02.776Z</time></trkpt><trkpt lat="44.6539205" lon="10.1482558"><ele>351.1666666666667</ele><time>2026-04-26T16:44:03.776Z</time></trkpt><trkpt lat="44.6538906" lon="10.1484195"><ele>352.33333333333337</ele><time>2026-04-26T16:44:05.775Z</time></trkpt><trkpt lat="44.6538732" lon="10.1485088"><ele>353.5</ele><time>2026-04-26T16:44:06.775Z</time></trkpt><trkpt lat="44.6538562" lon="10.1485988"><ele>354.6666666666667</ele><time>2026-04-26T16:44:07.776Z</time></trkpt><trkpt lat="44.6538311" lon="10.1486825"><ele>355.8333333333333</ele><time>2026-04-26T16:44:08.775Z</time></trkpt><trkpt lat="44.6537887" lon="10.1487555"><ele>357.0</ele><time>2026-04-26T16:44:09.776Z</time></trkpt><trkpt lat="44.6537262" lon="10.1488513"><ele>357.0</ele><time>2026-04-26T16:44:10.776Z</time></trkpt><trkpt lat="44.6536689" lon="10.1489395"><ele>357.0</ele><time>2026-04-26T16:44:11.775Z</time></trkpt><trkpt lat="44.6536165" lon="10.1489951"><ele>357.0</ele><time>2026-04-26T16:44:12.776Z</time></trkpt><trkpt lat="44.6535584" lon="10.1490321"><ele>357.0</ele><time>2026-04-26T16:44:13.775Z</time></trkpt><trkpt lat="44.6534789" lon="10.1490372"><ele>357.0</ele><time>2026-04-26T16:44:14.775Z</time></trkpt><trkpt lat="44.6533823" lon="10.1490277"><ele>357.0</ele><time>2026-04-26T16:44:15.776Z</time></trkpt><trkpt lat="44.6532713" lon="10.1490104"><ele>359.6</ele><time>2026-04-26T16:44:16.776Z</time></trkpt><trkpt lat="44.6531733" lon="10.1489828"><ele>362.20000000000005</ele><time>2026-04-26T16:44:17.775Z</time></trkpt><trkpt lat="44.6530914" lon="10.1489655"><ele>364.8</ele><time>2026-04-26T16:44:18.775Z</time></trkpt><trkpt lat="44.6530194" lon="10.1489634"><ele>367.4</ele><time>2026-04-26T16:44:19.777Z</time></trkpt><trkpt lat="44.6529182" lon="10.1490204"><ele>370.0</ele><time>2026-04-26T16:44:21.775Z</time></trkpt><trkpt lat="44.652834" lon="10.1491839"><ele>370.25</ele><time>2026-04-26T16:44:23.775Z</time></trkpt><trkpt lat="44.6527802" lon="10.1493059"><ele>370.5</ele><time>2026-04-26T16:44:24.775Z</time></trkpt><trkpt lat="44.6527218" lon="10.1494305"><ele>370.75</ele><time>2026-04-26T16:44:25.776Z</time></trkpt><trkpt lat="44.6526575" lon="10.1495735"><ele>371.0</ele><time>2026-04-26T16:44:26.775Z</time></trkpt><trkpt lat="44.6525908" lon="10.1497171"><ele>371.0</ele><time>2026-04-26T16:44:27.775Z</time></trkpt><trkpt lat="44.6525237" lon="10.1498556"><ele>371.0</ele><time>2026-04-26T16:44:28.775Z</time></trkpt><trkpt lat="44.6524578" lon="10.1499908"><ele>371.0</ele><time>2026-04-26T16:44:29.776Z</time></trkpt><trkpt lat="44.6523996" lon="10.1501082"><ele>371.0</ele><time>2026-04-26T16:44:30.776Z</time></trkpt><trkpt lat="44.6523494" lon="10.1502134"><ele>371.0</ele><time>2026-04-26T16:44:31.775Z</time></trkpt><trkpt lat="44.6522946" lon="10.1503163"><ele>371.33333333333337</ele><time>2026-04-26T16:44:32.777Z</time></trkpt><trkpt lat="44.6522422" lon="10.1504165"><ele>371.6666666666667</ele><time>2026-04-26T16:44:33.775Z</time></trkpt><trkpt lat="44.6521998" lon="10.1505044"><ele>372.0</ele><time>2026-04-26T16:44:34.775Z</time></trkpt><trkpt lat="44.6521565" lon="10.1505783"><ele>372.3333333333333</ele><time>2026-04-26T16:44:35.776Z</time></trkpt><trkpt lat="44.6520924" lon="10.1506997"><ele>372.66666666666663</ele><time>2026-04-26T16:44:37.776Z</time></trkpt><trkpt lat="44.6520405" lon="10.1508355"><ele>373.0</ele><time>2026-04-26T16:44:39.775Z</time></trkpt><trkpt lat="44.6520047" lon="10.1509721"><ele>373.0</ele><time>2026-04-26T16:44:41.776Z</time></trkpt><trkpt lat="44.6520008" lon="10.1510625"><ele>373.0</ele><time>2026-04-26T16:44:43.775Z</time></trkpt><trkpt lat="44.6519996" lon="10.1511527"><ele>373.0</ele><time>2026-04-26T16:44:47.775Z</time></trkpt><trkpt lat="44.6520165" lon="10.1512403"><ele>373.0</ele><time>2026-04-26T16:45:24.776Z</time></trkpt><trkpt lat="44.652023" lon="10.151429"><ele>373.0</ele><time>2026-04-26T16:45:26.775Z</time></trkpt><trkpt lat="44.6520185" lon="10.1515215"><ele>373.0</ele><time>2026-04-26T16:45:27.775Z</time></trkpt><trkpt lat="44.6519911" lon="10.1516385"><ele>373.3333333333333</ele><time>2026-04-26T16:45:29.775Z</time></trkpt><trkpt lat="44.6519627" lon="10.1517185"><ele>373.66666666666663</ele><time>2026-04-26T16:45:31.776Z</time></trkpt><trkpt lat="44.6519432" lon="10.1518276"><ele>374.0</ele><time>2026-04-26T16:45:34.776Z</time></trkpt><trkpt lat="44.651936" lon="10.1519235"><ele>374.3333333333333</ele><time>2026-04-26T16:45:36.775Z</time></trkpt><trkpt lat="44.6519163" lon="10.1520549"><ele>374.6666666666667</ele><time>2026-04-26T16:45:38.776Z</time></trkpt><trkpt lat="44.6519569" lon="10.1522155"><ele>375.0</ele><time>2026-04-26T16:45:40.775Z</time></trkpt><trkpt lat="44.6519858" lon="10.1523632"><ele>376.1666666666667</ele><time>2026-04-26T16:45:42.776Z</time></trkpt><trkpt lat="44.6519723" lon="10.1524538"><ele>377.3333333333333</ele><time>2026-04-26T16:45:44.775Z</time></trkpt><trkpt lat="44.6519388" lon="10.1525288"><ele>378.5</ele><time>2026-04-26T16:45:46.776Z</time></trkpt><trkpt lat="44.6519013" lon="10.1526278"><ele>379.66666666666663</ele><time>2026-04-26T16:46:12.775Z</time></trkpt><trkpt lat="44.65182" lon="10.1527457"><ele>380.8333333333333</ele><time>2026-04-26T16:46:14.775Z</time></trkpt><trkpt lat="44.6517608" lon="10.1528935"><ele>382.0</ele><time>2026-04-26T16:46:16.775Z</time></trkpt><trkpt lat="44.6517182" lon="10.1530207"><ele>386.20000000000005</ele><time>2026-04-26T16:46:18.775Z</time></trkpt><trkpt lat="44.6516534" lon="10.1531768"><ele>390.4</ele><time>2026-04-26T16:46:20.775Z</time></trkpt><trkpt lat="44.6516055" lon="10.1532567"><ele>394.6</ele><time>2026-04-26T16:46:21.776Z</time></trkpt><trkpt lat="44.6515461" lon="10.153327"><ele>398.79999999999995</ele><time>2026-04-26T16:46:22.775Z</time></trkpt><trkpt lat="44.651467" lon="10.1533779"><ele>403.0</ele><time>2026-04-26T16:46:23.776Z</time></trkpt><trkpt lat="44.6513869" lon="10.1534266"><ele>403.0</ele><time>2026-04-26T16:46:24.775Z</time></trkpt><trkpt lat="44.6513081" lon="10.1534869"><ele>403.0</ele><time>2026-04-26T16:46:25.776Z</time></trkpt><trkpt lat="44.6512321" lon="10.1535427"><ele>403.0</ele><time>2026-04-26T16:46:26.775Z</time></trkpt><trkpt lat="44.6511564" lon="10.1536401"><ele>403.0</ele><time>2026-04-26T16:46:27.776Z</time></trkpt><trkpt lat="44.6510893" lon="10.1537304"><ele>403.0</ele><time>2026-04-26T16:46:28.775Z</time></trkpt><trkpt lat="44.6510207" lon="10.1538226"><ele>405.2</ele><time>2026-04-26T16:46:29.776Z</time></trkpt><trkpt lat="44.6509548" lon="10.1539274"><ele>407.4</ele><time>2026-04-26T16:46:30.775Z</time></trkpt><trkpt lat="44.650889" lon="10.1540396"><ele>409.59999999999997</ele><time>2026-04-26T16:46:31.775Z</time></trkpt><trkpt lat="44.65082" lon="10.1541524"><ele>411.79999999999995</ele><time>2026-04-26T16:46:32.775Z</time></trkpt><trkpt lat="44.6507476" lon="10.1542609"><ele>414.0</ele><time>2026-04-26T16:46:33.775Z</time></trkpt><trkpt lat="44.650671" lon="10.1543665"><ele>414.0</ele><time>2026-04-26T16:46:34.776Z</time></trkpt><trkpt lat="44.6506035" lon="10.1544751"><ele>414.0</ele><time>2026-04-26T16:46:35.775Z</time></trkpt><trkpt lat="44.6505406" lon="10.1545993"><ele>414.0</ele><time>2026-04-26T16:46:36.775Z</time></trkpt><trkpt lat="44.6504864" lon="10.1547339"><ele>414.0</ele><time>2026-04-26T16:46:37.776Z</time></trkpt><trkpt lat="44.6504501" lon="10.154872"><ele>414.0</ele><time>2026-04-26T16:46:38.775Z</time></trkpt><trkpt lat="44.6504172" lon="10.1550038"><ele>412.79999999999995</ele><time>2026-04-26T16:46:39.775Z</time></trkpt><trkpt lat="44.6503796" lon="10.1551266"><ele>411.59999999999997</ele><time>2026-04-26T16:46:40.776Z</time></trkpt><trkpt lat="44.6503262" lon="10.1552258"><ele>410.4</ele><time>2026-04-26T16:46:41.775Z</time></trkpt><trkpt lat="44.6502518" lon="10.155313"><ele>409.2</ele><time>2026-04-26T16:46:42.775Z</time></trkpt><trkpt lat="44.6501614" lon="10.1554009"><ele>408.0</ele><time>2026-04-26T16:46:43.775Z</time></trkpt><trkpt lat="44.6500565" lon="10.1554859"><ele>411.5</ele><time>2026-04-26T16:46:44.776Z</time></trkpt><trkpt lat="44.6499372" lon="10.1555576"><ele>415.0</ele><time>2026-04-26T16:46:45.775Z</time></trkpt><trkpt lat="44.6498177" lon="10.1556017"><ele>418.5</ele><time>2026-04-26T16:46:46.775Z</time></trkpt><trkpt lat="44.6497024" lon="10.1556403"><ele>422.0</ele><time>2026-04-26T16:46:47.776Z</time></trkpt><trkpt lat="44.6496045" lon="10.1556916"><ele>422.20000000000005</ele><time>2026-04-26T16:46:48.776Z</time></trkpt><trkpt lat="44.6495167" lon="10.1557716"><ele>422.4</ele><time>2026-04-26T16:46:49.775Z</time></trkpt><trkpt lat="44.6494284" lon="10.1558564"><ele>422.6</ele><time>2026-04-26T16:46:50.775Z</time></trkpt><trkpt lat="44.6493756" lon="10.1559669"><ele>422.79999999999995</ele><time>2026-04-26T16:46:51.775Z</time></trkpt><trkpt lat="44.6493318" lon="10.1560934"><ele>423.0</ele><time>2026-04-26T16:46:52.775Z</time></trkpt><trkpt lat="44.6493116" lon="10.1562301"><ele>423.0</ele><time>2026-04-26T16:46:53.775Z</time></trkpt><trkpt lat="44.6492938" lon="10.1563657"><ele>423.0</ele><time>2026-04-26T16:46:54.776Z</time></trkpt><trkpt lat="44.6492644" lon="10.1564778"><ele>423.0</ele><time>2026-04-26T16:46:55.776Z</time></trkpt><trkpt lat="44.6492199" lon="10.1565772"><ele>423.0</ele><time>2026-04-26T16:46:56.776Z</time></trkpt><trkpt lat="44.6491696" lon="10.1566432"><ele>423.0</ele><time>2026-04-26T16:46:57.775Z</time></trkpt><trkpt lat="44.6491082" lon="10.1567047"><ele>423.0</ele><time>2026-04-26T16:46:58.775Z</time></trkpt><trkpt lat="44.6490369" lon="10.1567706"><ele>423.5</ele><time>2026-04-26T16:46:59.775Z</time></trkpt><trkpt lat="44.6489757" lon="10.1568477"><ele>424.0</ele><time>2026-04-26T16:47:00.775Z</time></trkpt><trkpt lat="44.6489386" lon="10.1569315"><ele>424.5</ele><time>2026-04-26T16:47:01.775Z</time></trkpt><trkpt lat="44.6489194" lon="10.1570338"><ele>425.0</ele><time>2026-04-26T16:47:02.776Z</time></trkpt><trkpt lat="44.6489285" lon="10.1571412"><ele>425.5</ele><time>2026-04-26T16:47:03.776Z</time></trkpt><trkpt lat="44.6489364" lon="10.1572575"><ele>426.0</ele><time>2026-04-26T16:47:04.776Z</time></trkpt><trkpt lat="44.6489773" lon="10.1573594"><ele>426.5</ele><time>2026-04-26T16:47:05.775Z</time></trkpt><trkpt lat="44.649034" lon="10.1574675"><ele>427.0</ele><time>2026-04-26T16:47:06.776Z</time></trkpt><trkpt lat="44.6490573" lon="10.1575813"><ele>427.5</ele><time>2026-04-26T16:47:07.775Z</time></trkpt><trkpt lat="44.6490679" lon="10.1576874"><ele>428.0</ele><time>2026-04-26T16:47:08.776Z</time></trkpt><trkpt lat="44.6490747" lon="10.157777"><ele>428.5</ele><time>2026-04-26T16:47:09.775Z</time></trkpt><trkpt lat="44.6491361" lon="10.1579332"><ele>429.0</ele><time>2026-04-26T16:47:11.776Z</time></trkpt><trkpt lat="44.6491889" lon="10.1580358"><ele>429.0</ele><time>2026-04-26T16:47:12.776Z</time></trkpt><trkpt lat="44.6492421" lon="10.1581408"><ele>429.0</ele><time>2026-04-26T16:47:13.775Z</time></trkpt><trkpt lat="44.6492933" lon="10.158253"><ele>429.0</ele><time>2026-04-26T16:47:14.775Z</time></trkpt><trkpt lat="44.6493494" lon="10.1583666"><ele>429.0</ele><time>2026-04-26T16:47:15.775Z</time></trkpt><trkpt lat="44.6494044" lon="10.1584743"><ele>429.0</ele><time>2026-04-26T16:47:16.776Z</time></trkpt><trkpt lat="44.6494632" lon="10.1585847"><ele>427.2</ele><time>2026-04-26T16:47:17.775Z</time></trkpt><trkpt lat="44.6495225" lon="10.1586904"><ele>425.4</ele><time>2026-04-26T16:47:18.775Z</time></trkpt><trkpt lat="44.649581" lon="10.1587945"><ele>423.6</ele><time>2026-04-26T16:47:19.775Z</time></trkpt><trkpt lat="44.6496441" lon="10.1588895"><ele>421.8</ele><time>2026-04-26T16:47:20.775Z</time></trkpt><trkpt lat="44.6497134" lon="10.1589645"><ele>420.0</ele><time>2026-04-26T16:47:21.776Z</time></trkpt><trkpt lat="44.6497926" lon="10.1590246"><ele>419.8</ele><time>2026-04-26T16:47:22.775Z</time></trkpt><trkpt lat="44.6498812" lon="10.1590686"><ele>419.6</ele><time>2026-04-26T16:47:23.775Z</time></trkpt><trkpt lat="44.6499799" lon="10.1590997"><ele>419.4</ele><time>2026-04-26T16:47:24.776Z</time></trkpt><trkpt lat="44.6500789" lon="10.1591318"><ele>419.2</ele><time>2026-04-26T16:47:25.775Z</time></trkpt><trkpt lat="44.6501857" lon="10.1591707"><ele>419.0</ele><time>2026-04-26T16:47:26.775Z</time></trkpt><trkpt lat="44.6502932" lon="10.1592121"><ele>419.0</ele><time>2026-04-26T16:47:27.776Z</time></trkpt><trkpt lat="44.6503912" lon="10.1592676"><ele>419.0</ele><time>2026-04-26T16:47:28.775Z</time></trkpt><trkpt lat="44.6504749" lon="10.1593345"><ele>419.0</ele><time>2026-04-26T16:47:29.776Z</time></trkpt><trkpt lat="44.6505524" lon="10.15942"><ele>419.0</ele><time>2026-04-26T16:47:30.777Z</time></trkpt><trkpt lat="44.650615" lon="10.1595262"><ele>419.0</ele><time>2026-04-26T16:47:31.776Z</time></trkpt><trkpt lat="44.6506585" lon="10.1596486"><ele>419.0</ele><time>2026-04-26T16:47:32.775Z</time></trkpt><trkpt lat="44.6506773" lon="10.1597782"><ele>419.0</ele><time>2026-04-26T16:47:33.775Z</time></trkpt><trkpt lat="44.6506725" lon="10.1599206"><ele>419.0</ele><time>2026-04-26T16:47:34.775Z</time></trkpt><trkpt lat="44.6506566" lon="10.1600738"><ele>419.0</ele><time>2026-04-26T16:47:35.776Z</time></trkpt><trkpt lat="44.6506421" lon="10.160228"><ele>419.0</ele><time>2026-04-26T16:47:36.775Z</time></trkpt><trkpt lat="44.6506364" lon="10.1603711"><ele>419.79999999999995</ele><time>2026-04-26T16:47:37.776Z</time></trkpt><trkpt lat="44.6506399" lon="10.160509"><ele>420.59999999999997</ele><time>2026-04-26T16:47:38.775Z</time></trkpt><trkpt lat="44.6506647" lon="10.1606493"><ele>421.4</ele><time>2026-04-26T16:47:39.775Z</time></trkpt><trkpt lat="44.6507101" lon="10.1607927"><ele>422.2</ele><time>2026-04-26T16:47:40.775Z</time></trkpt><trkpt lat="44.650764" lon="10.160944"><ele>423.0</ele><time>2026-04-26T16:47:41.776Z</time></trkpt><trkpt lat="44.6508107" lon="10.1610921"><ele>423.0</ele><time>2026-04-26T16:47:42.775Z</time></trkpt><trkpt lat="44.6508519" lon="10.1612552"><ele>423.0</ele><time>2026-04-26T16:47:43.776Z</time></trkpt><trkpt lat="44.6508689" lon="10.1614008"><ele>423.0</ele><time>2026-04-26T16:47:44.776Z</time></trkpt><trkpt lat="44.650872" lon="10.1615439"><ele>423.0</ele><time>2026-04-26T16:47:45.775Z</time></trkpt><trkpt lat="44.6508694" lon="10.1617005"><ele>423.0</ele><time>2026-04-26T16:47:46.775Z</time></trkpt><trkpt lat="44.6508638" lon="10.1618622"><ele>423.2</ele><time>2026-04-26T16:47:47.776Z</time></trkpt><trkpt lat="44.6508687" lon="10.1620036"><ele>423.4</ele><time>2026-04-26T16:47:48.776Z</time></trkpt><trkpt lat="44.6508833" lon="10.1621461"><ele>423.59999999999997</ele><time>2026-04-26T16:47:49.775Z</time></trkpt><trkpt lat="44.6509188" lon="10.1622649"><ele>423.79999999999995</ele><time>2026-04-26T16:47:50.777Z</time></trkpt><trkpt lat="44.6509587" lon="10.1623774"><ele>424.0</ele><time>2026-04-26T16:47:51.775Z</time></trkpt><trkpt lat="44.6510114" lon="10.1624855"><ele>424.0</ele><time>2026-04-26T16:47:52.776Z</time></trkpt><trkpt lat="44.6510856" lon="10.1625731"><ele>424.0</ele><time>2026-04-26T16:47:53.776Z</time></trkpt><trkpt lat="44.6511692" lon="10.1626605"><ele>424.0</ele><time>2026-04-26T16:47:54.776Z</time></trkpt><trkpt lat="44.6512632" lon="10.1627455"><ele>424.0</ele><time>2026-04-26T16:47:55.775Z</time></trkpt><trkpt lat="44.6513683" lon="10.1628214"><ele>424.0</ele><time>2026-04-26T16:47:56.775Z</time></trkpt><trkpt lat="44.6514767" lon="10.162878"><ele>424.0</ele><time>2026-04-26T16:47:57.775Z</time></trkpt><trkpt lat="44.6515861" lon="10.1629256"><ele>424.0</ele><time>2026-04-26T16:47:58.775Z</time></trkpt><trkpt lat="44.6516878" lon="10.1629721"><ele>424.0</ele><time>2026-04-26T16:47:59.775Z</time></trkpt><trkpt lat="44.6517721" lon="10.1630238"><ele>424.0</ele><time>2026-04-26T16:48:00.776Z</time></trkpt><trkpt lat="44.651842" lon="10.1630872"><ele>424.0</ele><time>2026-04-26T16:48:01.776Z</time></trkpt><trkpt lat="44.6519069" lon="10.1631712"><ele>426.6</ele><time>2026-04-26T16:48:02.776Z</time></trkpt><trkpt lat="44.6519704" lon="10.1632777"><ele>429.2</ele><time>2026-04-26T16:48:03.776Z</time></trkpt><trkpt lat="44.6520364" lon="10.1633906"><ele>431.80000000000007</ele><time>2026-04-26T16:48:04.776Z</time></trkpt><trkpt lat="44.6521162" lon="10.1634902"><ele>434.40000000000003</ele><time>2026-04-26T16:48:05.776Z</time></trkpt><trkpt lat="44.6522043" lon="10.1635837"><ele>437.0</ele><time>2026-04-26T16:48:06.775Z</time></trkpt><trkpt lat="44.6522943" lon="10.1636797"><ele>437.0</ele><time>2026-04-26T16:48:07.775Z</time></trkpt><trkpt lat="44.6523834" lon="10.1637802"><ele>437.00000000000006</ele><time>2026-04-26T16:48:08.776Z</time></trkpt><trkpt lat="44.6524762" lon="10.1638926"><ele>437.00000000000006</ele><time>2026-04-26T16:48:09.775Z</time></trkpt><trkpt lat="44.6525558" lon="10.1640058"><ele>437.0</ele><time>2026-04-26T16:48:10.776Z</time></trkpt><trkpt lat="44.6526165" lon="10.1641156"><ele>437.0</ele><time>2026-04-26T16:48:11.775Z</time></trkpt><trkpt lat="44.6526737" lon="10.164207"><ele>436.6</ele><time>2026-04-26T16:48:12.775Z</time></trkpt><trkpt lat="44.6527277" lon="10.1642826"><ele>436.20000000000005</ele><time>2026-04-26T16:48:13.775Z</time></trkpt><trkpt lat="44.6527979" lon="10.1643532"><ele>435.8</ele><time>2026-04-26T16:48:14.775Z</time></trkpt><trkpt lat="44.6528736" lon="10.1644234"><ele>435.4</ele><time>2026-04-26T16:48:15.776Z</time></trkpt><trkpt lat="44.6529617" lon="10.1645068"><ele>435.0</ele><time>2026-04-26T16:48:16.775Z</time></trkpt><trkpt lat="44.6530421" lon="10.1646099"><ele>435.0</ele><time>2026-04-26T16:48:17.775Z</time></trkpt><trkpt lat="44.6531275" lon="10.1647099"><ele>435.0</ele><time>2026-04-26T16:48:18.775Z</time></trkpt><trkpt lat="44.6532114" lon="10.1648015"><ele>435.0</ele><time>2026-04-26T16:48:19.776Z</time></trkpt><trkpt lat="44.6532845" lon="10.1648888"><ele>435.0</ele><time>2026-04-26T16:48:20.775Z</time></trkpt><trkpt lat="44.653343" lon="10.1649735"><ele>435.0</ele><time>2026-04-26T16:48:21.775Z</time></trkpt><trkpt lat="44.65338" lon="10.1650543"><ele>435.8571428571429</ele><time>2026-04-26T16:48:22.775Z</time></trkpt><trkpt lat="44.6534045" lon="10.1651459"><ele>436.7142857142857</ele><time>2026-04-26T16:48:23.776Z</time></trkpt><trkpt lat="44.6534124" lon="10.165242"><ele>437.57142857142856</ele><time>2026-04-26T16:48:24.776Z</time></trkpt><trkpt lat="44.6534031" lon="10.1653381"><ele>438.42857142857144</ele><time>2026-04-26T16:48:25.775Z</time></trkpt><trkpt lat="44.6533755" lon="10.1654319"><ele>439.2857142857143</ele><time>2026-04-26T16:48:26.775Z</time></trkpt><trkpt lat="44.6533262" lon="10.1655102"><ele>440.14285714285717</ele><time>2026-04-26T16:48:27.775Z</time></trkpt><trkpt lat="44.6532568" lon="10.1655844"><ele>441.0</ele><time>2026-04-26T16:48:28.775Z</time></trkpt><trkpt lat="44.6531698" lon="10.1656326"><ele>441.0</ele><time>2026-04-26T16:48:29.776Z</time></trkpt><trkpt lat="44.6530935" lon="10.1656809"><ele>441.0</ele><time>2026-04-26T16:48:30.777Z</time></trkpt><trkpt lat="44.6530309" lon="10.1657299"><ele>441.0</ele><time>2026-04-26T16:48:31.775Z</time></trkpt><trkpt lat="44.6529843" lon="10.1657899"><ele>441.0</ele><time>2026-04-26T16:48:32.775Z</time></trkpt><trkpt lat="44.6529448" lon="10.1659508"><ele>441.0</ele><time>2026-04-26T16:48:34.776Z</time></trkpt><trkpt lat="44.6529395" lon="10.1660567"><ele>441.0</ele><time>2026-04-26T16:48:35.775Z</time></trkpt><trkpt lat="44.6529418" lon="10.1661853"><ele>441.4</ele><time>2026-04-26T16:48:36.775Z</time></trkpt><trkpt lat="44.6529511" lon="10.1663359"><ele>441.8</ele><time>2026-04-26T16:48:37.776Z</time></trkpt><trkpt lat="44.6529569" lon="10.1664996"><ele>442.19999999999993</ele><time>2026-04-26T16:48:38.775Z</time></trkpt><trkpt lat="44.6529649" lon="10.1666502"><ele>442.59999999999997</ele><time>2026-04-26T16:48:39.775Z</time></trkpt><trkpt lat="44.6529709" lon="10.1667925"><ele>443.0</ele><time>2026-04-26T16:48:40.776Z</time></trkpt><trkpt lat="44.6529772" lon="10.166931"><ele>442.16666666666663</ele><time>2026-04-26T16:48:41.776Z</time></trkpt><trkpt lat="44.6529789" lon="10.1670631"><ele>441.3333333333333</ele><time>2026-04-26T16:48:42.775Z</time></trkpt><trkpt lat="44.6529776" lon="10.1671913"><ele>440.5</ele><time>2026-04-26T16:48:43.775Z</time></trkpt><trkpt lat="44.6529661" lon="10.1673151"><ele>439.66666666666663</ele><time>2026-04-26T16:48:44.775Z</time></trkpt><trkpt lat="44.6529515" lon="10.1674271"><ele>438.8333333333333</ele><time>2026-04-26T16:48:45.776Z</time></trkpt><trkpt lat="44.6529233" lon="10.1675224"><ele>438.0</ele><time>2026-04-26T16:48:46.775Z</time></trkpt><trkpt lat="44.6528718" lon="10.1675977"><ele>436.5</ele><time>2026-04-26T16:48:47.775Z</time></trkpt><trkpt lat="44.6528085" lon="10.1676552"><ele>435.0</ele><time>2026-04-26T16:48:48.777Z</time></trkpt><trkpt lat="44.6527453" lon="10.1677144"><ele>433.5</ele><time>2026-04-26T16:48:49.775Z</time></trkpt><trkpt lat="44.6526765" lon="10.1677766"><ele>432.0</ele><time>2026-04-26T16:48:50.776Z</time></trkpt><trkpt lat="44.6526087" lon="10.1678491"><ele>430.5</ele><time>2026-04-26T16:48:51.776Z</time></trkpt><trkpt lat="44.6525473" lon="10.1679248"><ele>429.0</ele><time>2026-04-26T16:48:52.775Z</time></trkpt><trkpt lat="44.6524903" lon="10.1679944"><ele>426.8333333333333</ele><time>2026-04-26T16:48:53.775Z</time></trkpt><trkpt lat="44.652435" lon="10.1680508"><ele>424.66666666666663</ele><time>2026-04-26T16:48:54.776Z</time></trkpt><trkpt lat="44.6523745" lon="10.1680951"><ele>422.5</ele><time>2026-04-26T16:48:55.775Z</time></trkpt><trkpt lat="44.6522953" lon="10.1681427"><ele>420.3333333333333</ele><time>2026-04-26T16:48:56.775Z</time></trkpt><trkpt lat="44.6521965" lon="10.168198"><ele>418.16666666666663</ele><time>2026-04-26T16:48:57.775Z</time></trkpt><trkpt lat="44.6521018" lon="10.1682484"><ele>416.0</ele><time>2026-04-26T16:48:58.776Z</time></trkpt><trkpt lat="44.6520095" lon="10.1682906"><ele>413.99999999999994</ele><time>2026-04-26T16:48:59.775Z</time></trkpt><trkpt lat="44.6519168" lon="10.1683246"><ele>412.0</ele><time>2026-04-26T16:49:00.776Z</time></trkpt><trkpt lat="44.6518285" lon="10.1683457"><ele>410.0</ele><time>2026-04-26T16:49:01.775Z</time></trkpt><trkpt lat="44.651755" lon="10.1683676"><ele>408.0</ele><time>2026-04-26T16:49:02.775Z</time></trkpt><trkpt lat="44.6516853" lon="10.1683932"><ele>405.99999999999994</ele><time>2026-04-26T16:49:03.775Z</time></trkpt><trkpt lat="44.6516187" lon="10.1684355"><ele>404.0</ele><time>2026-04-26T16:49:04.776Z</time></trkpt><trkpt lat="44.6515528" lon="10.1684952"><ele>404.0</ele><time>2026-04-26T16:49:05.775Z</time></trkpt><trkpt lat="44.651491" lon="10.168553"><ele>404.0</ele><time>2026-04-26T16:49:06.776Z</time></trkpt><trkpt lat="44.6514288" lon="10.1686087"><ele>404.0</ele><time>2026-04-26T16:49:07.776Z</time></trkpt><trkpt lat="44.6513594" lon="10.1686295"><ele>404.0</ele><time>2026-04-26T16:49:08.775Z</time></trkpt><trkpt lat="44.6512907" lon="10.1686228"><ele>404.0</ele><time>2026-04-26T16:49:09.776Z</time></trkpt><trkpt lat="44.6512338" lon="10.1685819"><ele>404.0</ele><time>2026-04-26T16:49:10.775Z</time></trkpt><trkpt lat="44.6511765" lon="10.1685268"><ele>404.0</ele><time>2026-04-26T16:49:11.775Z</time></trkpt><trkpt lat="44.6510728" lon="10.1684635"><ele>401.4</ele><time>2026-04-26T16:49:13.775Z</time></trkpt><trkpt lat="44.6509833" lon="10.1685061"><ele>398.79999999999995</ele><time>2026-04-26T16:49:15.776Z</time></trkpt><trkpt lat="44.6509502" lon="10.1686515"><ele>396.20000000000005</ele><time>2026-04-26T16:49:17.775Z</time></trkpt><trkpt lat="44.6509714" lon="10.1688419"><ele>393.6</ele><time>2026-04-26T16:49:19.775Z</time></trkpt><trkpt lat="44.6509927" lon="10.1689756"><ele>391.0</ele><time>2026-04-26T16:49:20.776Z</time></trkpt><trkpt lat="44.6510041" lon="10.1690918"><ele>389.6666666666667</ele><time>2026-04-26T16:49:21.775Z</time></trkpt><trkpt lat="44.6510056" lon="10.1692025"><ele>388.33333333333337</ele><time>2026-04-26T16:49:22.775Z</time></trkpt><trkpt lat="44.6509887" lon="10.1693106"><ele>387.0</ele><time>2026-04-26T16:49:23.775Z</time></trkpt><trkpt lat="44.6509557" lon="10.1694166"><ele>385.6666666666667</ele><time>2026-04-26T16:49:24.775Z</time></trkpt><trkpt lat="44.6509194" lon="10.1695285"><ele>384.33333333333337</ele><time>2026-04-26T16:49:25.775Z</time></trkpt><trkpt lat="44.6508816" lon="10.1696396"><ele>383.0</ele><time>2026-04-26T16:49:26.775Z</time></trkpt><trkpt lat="44.6508479" lon="10.1697544"><ele>381.2</ele><time>2026-04-26T16:49:27.776Z</time></trkpt><trkpt lat="44.6508101" lon="10.169869"><ele>379.4</ele><time>2026-04-26T16:49:28.776Z</time></trkpt><trkpt lat="44.6507652" lon="10.1699773"><ele>377.59999999999997</ele><time>2026-04-26T16:49:29.775Z</time></trkpt><trkpt lat="44.6507128" lon="10.1700805"><ele>375.79999999999995</ele><time>2026-04-26T16:49:30.775Z</time></trkpt><trkpt lat="44.6506552" lon="10.1701748"><ele>374.0</ele><time>2026-04-26T16:49:31.775Z</time></trkpt><trkpt lat="44.6505867" lon="10.1702637"><ele>374.0</ele><time>2026-04-26T16:49:32.775Z</time></trkpt><trkpt lat="44.6505125" lon="10.1703454"><ele>374.0</ele><time>2026-04-26T16:49:33.777Z</time></trkpt><trkpt lat="44.6504358" lon="10.1704128"><ele>374.0</ele><time>2026-04-26T16:49:34.775Z</time></trkpt><trkpt lat="44.6503488" lon="10.1704724"><ele>374.0</ele><time>2026-04-26T16:49:35.775Z</time></trkpt><trkpt lat="44.650241" lon="10.1705396"><ele>374.0</ele><time>2026-04-26T16:49:36.775Z</time></trkpt><trkpt lat="44.6501273" lon="10.1706033"><ele>371.0</ele><time>2026-04-26T16:49:37.776Z</time></trkpt><trkpt lat="44.6500174" lon="10.1706669"><ele>368.0</ele><time>2026-04-26T16:49:38.775Z</time></trkpt><trkpt lat="44.6499054" lon="10.1707229"><ele>365.0</ele><time>2026-04-26T16:49:39.775Z</time></trkpt><trkpt lat="44.6497997" lon="10.1707721"><ele>362.0</ele><time>2026-04-26T16:49:40.776Z</time></trkpt><trkpt lat="44.6497029" lon="10.1708177"><ele>360.75</ele><time>2026-04-26T16:49:41.775Z</time></trkpt><trkpt lat="44.6496133" lon="10.170881"><ele>359.5</ele><time>2026-04-26T16:49:42.775Z</time></trkpt><trkpt lat="44.64952" lon="10.170969"><ele>358.25</ele><time>2026-04-26T16:49:43.775Z</time></trkpt><trkpt lat="44.649432" lon="10.1710805"><ele>357.0</ele><time>2026-04-26T16:49:44.775Z</time></trkpt><trkpt lat="44.6493582" lon="10.1712132"><ele>356.20000000000005</ele><time>2026-04-26T16:49:45.776Z</time></trkpt><trkpt lat="44.649296" lon="10.1713564"><ele>355.4</ele><time>2026-04-26T16:49:46.775Z</time></trkpt><trkpt lat="44.649229" lon="10.1714996"><ele>354.6</ele><time>2026-04-26T16:49:47.775Z</time></trkpt><trkpt lat="44.6491695" lon="10.1716116"><ele>353.79999999999995</ele><time>2026-04-26T16:49:48.775Z</time></trkpt><trkpt lat="44.6491202" lon="10.1716944"><ele>353.0</ele><time>2026-04-26T16:49:49.775Z</time></trkpt><trkpt lat="44.6490069" lon="10.1717465"><ele>352.0</ele><time>2026-04-26T16:49:51.775Z</time></trkpt><trkpt lat="44.6488683" lon="10.1717841"><ele>351.0</ele><time>2026-04-26T16:49:53.775Z</time></trkpt><trkpt lat="44.6487922" lon="10.1718238"><ele>350.0</ele><time>2026-04-26T16:49:54.775Z</time></trkpt><trkpt lat="44.6487199" lon="10.171862"><ele>349.0</ele><time>2026-04-26T16:49:55.775Z</time></trkpt><trkpt lat="44.6486083" lon="10.1719713"><ele>348.0</ele><time>2026-04-26T16:49:56.776Z</time></trkpt><trkpt lat="44.648502" lon="10.1720645"><ele>346.0</ele><time>2026-04-26T16:49:57.776Z</time></trkpt><trkpt lat="44.6483918" lon="10.1721747"><ele>344.0</ele><time>2026-04-26T16:49:58.776Z</time></trkpt><trkpt lat="44.6482808" lon="10.1722799"><ele>342.0</ele><time>2026-04-26T16:49:59.776Z</time></trkpt><trkpt lat="44.6481644" lon="10.1723719"><ele>340.0</ele><time>2026-04-26T16:50:00.775Z</time></trkpt><trkpt lat="44.6480421" lon="10.1724529"><ele>340.0</ele><time>2026-04-26T16:50:01.775Z</time></trkpt><trkpt lat="44.6479223" lon="10.1725371"><ele>340.0</ele><time>2026-04-26T16:50:02.776Z</time></trkpt><trkpt lat="44.6478108" lon="10.1726293"><ele>340.0</ele><time>2026-04-26T16:50:03.776Z</time></trkpt><trkpt lat="44.6477066" lon="10.1727229"><ele>340.0</ele><time>2026-04-26T16:50:04.775Z</time></trkpt><trkpt lat="44.6476053" lon="10.1728148"><ele>335.0</ele><time>2026-04-26T16:50:05.775Z</time></trkpt><trkpt lat="44.6475094" lon="10.1729116"><ele>330.0</ele><time>2026-04-26T16:50:06.775Z</time></trkpt><trkpt lat="44.6474096" lon="10.1730013"><ele>325.0</ele><time>2026-04-26T16:50:07.775Z</time></trkpt><trkpt lat="44.6473302" lon="10.1731017"><ele>320.0</ele><time>2026-04-26T16:50:08.775Z</time></trkpt><trkpt lat="44.6472744" lon="10.1732659"><ele>319.5</ele><time>2026-04-26T16:50:09.776Z</time></trkpt><trkpt lat="44.6472012" lon="10.1734357"><ele>319.0</ele><time>2026-04-26T16:50:10.776Z</time></trkpt><trkpt lat="44.6471253" lon="10.1736293"><ele>318.5</ele><time>2026-04-26T16:50:11.775Z</time></trkpt><trkpt lat="44.6470511" lon="10.1738073"><ele>318.0</ele><time>2026-04-26T16:50:12.775Z</time></trkpt><trkpt lat="44.6469735" lon="10.1739923"><ele>313.75</ele><time>2026-04-26T16:50:13.775Z</time></trkpt><trkpt lat="44.6469016" lon="10.1741611"><ele>309.5</ele><time>2026-04-26T16:50:14.775Z</time></trkpt><trkpt lat="44.6468415" lon="10.1743089"><ele>305.25</ele><time>2026-04-26T16:50:15.776Z</time></trkpt><trkpt lat="44.6467945" lon="10.174441"><ele>301.0</ele><time>2026-04-26T16:50:16.775Z</time></trkpt><trkpt lat="44.6467551" lon="10.1745444"><ele>301.0</ele><time>2026-04-26T16:50:17.775Z</time></trkpt><trkpt lat="44.6467102" lon="10.1746289"><ele>301.0</ele><time>2026-04-26T16:50:18.776Z</time></trkpt><trkpt lat="44.6466415" lon="10.1746892"><ele>301.0</ele><time>2026-04-26T16:50:19.776Z</time></trkpt><trkpt lat="44.6465544" lon="10.1747429"><ele>301.0</ele><time>2026-04-26T16:50:20.775Z</time></trkpt><trkpt lat="44.6464568" lon="10.1748064"><ele>301.0</ele><time>2026-04-26T16:50:21.775Z</time></trkpt><trkpt lat="44.6463556" lon="10.1748788"><ele>299.5</ele><time>2026-04-26T16:50:22.775Z</time></trkpt><trkpt lat="44.646254" lon="10.1749631"><ele>298.0</ele><time>2026-04-26T16:50:23.776Z</time></trkpt><trkpt lat="44.6461612" lon="10.175063"><ele>296.5</ele><time>2026-04-26T16:50:24.775Z</time></trkpt><trkpt lat="44.6460778" lon="10.1751931"><ele>295.0</ele><time>2026-04-26T16:50:25.776Z</time></trkpt><trkpt lat="44.645998" lon="10.1753323"><ele>294.2</ele><time>2026-04-26T16:50:26.775Z</time></trkpt><trkpt lat="44.6459176" lon="10.1754607"><ele>293.4</ele><time>2026-04-26T16:50:27.775Z</time></trkpt><trkpt lat="44.6458448" lon="10.1755655"><ele>292.6</ele><time>2026-04-26T16:50:28.775Z</time></trkpt><trkpt lat="44.6457749" lon="10.175637"><ele>291.8</ele><time>2026-04-26T16:50:29.775Z</time></trkpt><trkpt lat="44.6457139" lon="10.1756887"><ele>291.0</ele><time>2026-04-26T16:50:30.775Z</time></trkpt><trkpt lat="44.6456441" lon="10.1757899"><ele>290.5</ele><time>2026-04-26T16:50:32.775Z</time></trkpt><trkpt lat="44.645631" lon="10.1758884"><ele>290.0</ele><time>2026-04-26T16:50:35.776Z</time></trkpt><trkpt lat="44.6456439" lon="10.1759919"><ele>289.5</ele><time>2026-04-26T16:51:06.775Z</time></trkpt><trkpt lat="44.6455724" lon="10.1760784"><ele>289.0</ele><time>2026-04-26T16:51:09.775Z</time></trkpt><trkpt lat="44.6454966" lon="10.1760658"><ele>288.5</ele><time>2026-04-26T16:51:10.776Z</time></trkpt><trkpt lat="44.6454199" lon="10.1760429"><ele>288.0</ele><time>2026-04-26T16:51:11.775Z</time></trkpt><trkpt lat="44.6453278" lon="10.1760107"><ele>288.5</ele><time>2026-04-26T16:51:12.776Z</time></trkpt><trkpt lat="44.645229" lon="10.1759683"><ele>289.0</ele><time>2026-04-26T16:51:13.775Z</time></trkpt><trkpt lat="44.6451167" lon="10.1759184"><ele>289.5</ele><time>2026-04-26T16:51:14.776Z</time></trkpt><trkpt lat="44.6449893" lon="10.1758559"><ele>290.0</ele><time>2026-04-26T16:51:15.775Z</time></trkpt><trkpt lat="44.6448531" lon="10.1757802"><ele>290.0</ele><time>2026-04-26T16:51:16.776Z</time></trkpt><trkpt lat="44.64472" lon="10.1757"><ele>290.0</ele><time>2026-04-26T16:51:17.777Z</time></trkpt><trkpt lat="44.6445822" lon="10.1756158"><ele>290.0</ele><time>2026-04-26T16:51:18.775Z</time></trkpt><trkpt lat="44.6444417" lon="10.1755276"><ele>290.0</ele><time>2026-04-26T16:51:19.776Z</time></trkpt><trkpt lat="44.6442977" lon="10.1754381"><ele>290.33333333333337</ele><time>2026-04-26T16:51:20.775Z</time></trkpt><trkpt lat="44.6441476" lon="10.1753435"><ele>290.6666666666667</ele><time>2026-04-26T16:51:21.775Z</time></trkpt><trkpt lat="44.6439937" lon="10.1752494"><ele>291.0</ele><time>2026-04-26T16:51:22.775Z</time></trkpt><trkpt lat="44.6438352" lon="10.1751514"><ele>291.0</ele><time>2026-04-26T16:51:23.775Z</time></trkpt><trkpt lat="44.6436778" lon="10.1750498"><ele>291.0</ele><time>2026-04-26T16:51:24.775Z</time></trkpt><trkpt lat="44.6435114" lon="10.1749505"><ele>291.0</ele><time>2026-04-26T16:51:25.775Z</time></trkpt><trkpt lat="44.6433403" lon="10.1748473"><ele>292.3333333333333</ele><time>2026-04-26T16:51:26.776Z</time></trkpt><trkpt lat="44.6431664" lon="10.1747403"><ele>293.66666666666663</ele><time>2026-04-26T16:51:27.775Z</time></trkpt><trkpt lat="44.6429868" lon="10.1746284"><ele>295.0</ele><time>2026-04-26T16:51:28.775Z</time></trkpt><trkpt lat="44.6428158" lon="10.1744917"><ele>294.0</ele><time>2026-04-26T16:51:29.776Z</time></trkpt><trkpt lat="44.6426539" lon="10.1743283"><ele>293.0</ele><time>2026-04-26T16:51:30.775Z</time></trkpt><trkpt lat="44.6425039" lon="10.1741596"><ele>292.0</ele><time>2026-04-26T16:51:31.776Z</time></trkpt><trkpt lat="44.6423542" lon="10.1739867"><ele>292.3333333333333</ele><time>2026-04-26T16:51:32.775Z</time></trkpt><trkpt lat="44.6422033" lon="10.1738089"><ele>292.6666666666667</ele><time>2026-04-26T16:51:33.775Z</time></trkpt><trkpt lat="44.6420493" lon="10.1736281"><ele>293.0</ele><time>2026-04-26T16:51:34.776Z</time></trkpt><trkpt lat="44.6418947" lon="10.1734537"><ele>293.0</ele><time>2026-04-26T16:51:35.775Z</time></trkpt><trkpt lat="44.6417406" lon="10.1732809"><ele>293.0</ele><time>2026-04-26T16:51:36.775Z</time></trkpt><trkpt lat="44.6415883" lon="10.1731059"><ele>293.0</ele><time>2026-04-26T16:51:37.776Z</time></trkpt><trkpt lat="44.6414353" lon="10.1729359"><ele>294.6666666666667</ele><time>2026-04-26T16:51:38.776Z</time></trkpt><trkpt lat="44.6412847" lon="10.172767"><ele>296.3333333333333</ele><time>2026-04-26T16:51:39.775Z</time></trkpt><trkpt lat="44.6411459" lon="10.1726059"><ele>298.0</ele><time>2026-04-26T16:51:40.776Z</time></trkpt><trkpt lat="44.6410163" lon="10.172454"><ele>301.25</ele><time>2026-04-26T16:51:41.775Z</time></trkpt><trkpt lat="44.640894" lon="10.1723133"><ele>304.5</ele><time>2026-04-26T16:51:42.776Z</time></trkpt><trkpt lat="44.6407765" lon="10.1721912"><ele>307.75</ele><time>2026-04-26T16:51:43.775Z</time></trkpt><trkpt lat="44.6406558" lon="10.1720947"><ele>311.0</ele><time>2026-04-26T16:51:44.776Z</time></trkpt><trkpt lat="44.6405359" lon="10.1720194"><ele>311.0</ele><time>2026-04-26T16:51:45.775Z</time></trkpt><trkpt lat="44.6404201" lon="10.1719606"><ele>311.0</ele><time>2026-04-26T16:51:46.775Z</time></trkpt><trkpt lat="44.6402961" lon="10.1719097"><ele>311.0</ele><time>2026-04-26T16:51:47.775Z</time></trkpt><trkpt lat="44.6401631" lon="10.1718586"><ele>311.0</ele><time>2026-04-26T16:51:48.776Z</time></trkpt><trkpt lat="44.6400213" lon="10.1718053"><ele>308.6666666666667</ele><time>2026-04-26T16:51:49.776Z</time></trkpt><trkpt lat="44.6398739" lon="10.1717508"><ele>306.3333333333333</ele><time>2026-04-26T16:51:50.775Z</time></trkpt><trkpt lat="44.6397236" lon="10.1716856"><ele>304.0</ele><time>2026-04-26T16:51:51.775Z</time></trkpt><trkpt lat="44.6395706" lon="10.1716065"><ele>306.3333333333333</ele><time>2026-04-26T16:51:52.775Z</time></trkpt><trkpt lat="44.639414" lon="10.1715196"><ele>308.6666666666667</ele><time>2026-04-26T16:51:53.775Z</time></trkpt><trkpt lat="44.6392541" lon="10.1714261"><ele>311.0</ele><time>2026-04-26T16:51:54.775Z</time></trkpt><trkpt lat="44.6390893" lon="10.1713316"><ele>311.0</ele><time>2026-04-26T16:51:55.777Z</time></trkpt><trkpt lat="44.6389222" lon="10.1712341"><ele>311.0</ele><time>2026-04-26T16:51:56.775Z</time></trkpt><trkpt lat="44.6387516" lon="10.1711352"><ele>311.0</ele><time>2026-04-26T16:51:57.776Z</time></trkpt><trkpt lat="44.6385804" lon="10.1710427"><ele>309.0</ele><time>2026-04-26T16:51:58.776Z</time></trkpt><trkpt lat="44.6384094" lon="10.1709661"><ele>307.0</ele><time>2026-04-26T16:51:59.775Z</time></trkpt><trkpt lat="44.6382327" lon="10.1709173"><ele>305.0</ele><time>2026-04-26T16:52:00.776Z</time></trkpt><trkpt lat="44.6380539" lon="10.1708987"><ele>305.0</ele><time>2026-04-26T16:52:01.775Z</time></trkpt><trkpt lat="44.6378736" lon="10.1708954"><ele>305.0</ele><time>2026-04-26T16:52:02.776Z</time></trkpt><trkpt lat="44.6376944" lon="10.1708857"><ele>305.0</ele><time>2026-04-26T16:52:03.775Z</time></trkpt><trkpt lat="44.6375146" lon="10.1708661"><ele>303.6666666666667</ele><time>2026-04-26T16:52:04.775Z</time></trkpt><trkpt lat="44.6373375" lon="10.1708304"><ele>302.3333333333333</ele><time>2026-04-26T16:52:05.775Z</time></trkpt><trkpt lat="44.6371643" lon="10.170781"><ele>301.0</ele><time>2026-04-26T16:52:06.775Z</time></trkpt><trkpt lat="44.6369938" lon="10.1707181"><ele>304.0</ele><time>2026-04-26T16:52:07.776Z</time></trkpt><trkpt lat="44.6368266" lon="10.1706525"><ele>307.0</ele><time>2026-04-26T16:52:08.776Z</time></trkpt><trkpt lat="44.6366671" lon="10.1705804"><ele>310.0</ele><time>2026-04-26T16:52:09.775Z</time></trkpt><trkpt lat="44.6365216" lon="10.1705106"><ele>310.0</ele><time>2026-04-26T16:52:10.775Z</time></trkpt><trkpt lat="44.6363886" lon="10.1704537"><ele>310.0</ele><time>2026-04-26T16:52:11.777Z</time></trkpt><trkpt lat="44.6362602" lon="10.1703961"><ele>310.0</ele><time>2026-04-26T16:52:12.775Z</time></trkpt><trkpt lat="44.6361325" lon="10.170352"><ele>310.0</ele><time>2026-04-26T16:52:13.775Z</time></trkpt><trkpt lat="44.636016" lon="10.1703157"><ele>309.6</ele><time>2026-04-26T16:52:14.776Z</time></trkpt><trkpt lat="44.6359048" lon="10.1702706"><ele>309.2</ele><time>2026-04-26T16:52:15.775Z</time></trkpt><trkpt lat="44.6357997" lon="10.1702171"><ele>308.8</ele><time>2026-04-26T16:52:16.775Z</time></trkpt><trkpt lat="44.6357035" lon="10.1701469"><ele>308.4</ele><time>2026-04-26T16:52:17.775Z</time></trkpt><trkpt lat="44.6356068" lon="10.1700734"><ele>308.0</ele><time>2026-04-26T16:52:18.775Z</time></trkpt><trkpt lat="44.6355118" lon="10.1700001"><ele>308.0</ele><time>2026-04-26T16:52:19.775Z</time></trkpt><trkpt lat="44.6354076" lon="10.1699471"><ele>308.0</ele><time>2026-04-26T16:52:20.776Z</time></trkpt><trkpt lat="44.6352957" lon="10.1699309"><ele>308.0</ele><time>2026-04-26T16:52:21.776Z</time></trkpt><trkpt lat="44.6351901" lon="10.1699324"><ele>308.0</ele><time>2026-04-26T16:52:22.775Z</time></trkpt><trkpt lat="44.635098" lon="10.1699743"><ele>308.0</ele><time>2026-04-26T16:52:23.777Z</time></trkpt><trkpt lat="44.6350226" lon="10.1700477"><ele>307.8</ele><time>2026-04-26T16:52:24.776Z</time></trkpt><trkpt lat="44.63497" lon="10.1701496"><ele>307.6</ele><time>2026-04-26T16:52:25.775Z</time></trkpt><trkpt lat="44.6349365" lon="10.1702755"><ele>307.4</ele><time>2026-04-26T16:52:26.776Z</time></trkpt><trkpt lat="44.6349138" lon="10.1704116"><ele>307.2</ele><time>2026-04-26T16:52:27.775Z</time></trkpt><trkpt lat="44.6349003" lon="10.1705574"><ele>307.0</ele><time>2026-04-26T16:52:28.776Z</time></trkpt><trkpt lat="44.6348873" lon="10.1707164"><ele>306.5</ele><time>2026-04-26T16:52:29.775Z</time></trkpt><trkpt lat="44.6348741" lon="10.1708762"><ele>306.0</ele><time>2026-04-26T16:52:30.775Z</time></trkpt><trkpt lat="44.6348576" lon="10.1710463"><ele>305.5</ele><time>2026-04-26T16:52:31.776Z</time></trkpt><trkpt lat="44.6348403" lon="10.1712297"><ele>305.0</ele><time>2026-04-26T16:52:32.775Z</time></trkpt><trkpt lat="44.6348224" lon="10.1714181"><ele>304.8</ele><time>2026-04-26T16:52:33.775Z</time></trkpt><trkpt lat="44.6348058" lon="10.1715905"><ele>304.6</ele><time>2026-04-26T16:52:34.776Z</time></trkpt><trkpt lat="44.6347887" lon="10.1717522"><ele>304.4</ele><time>2026-04-26T16:52:35.775Z</time></trkpt><trkpt lat="44.6347722" lon="10.1718972"><ele>304.2</ele><time>2026-04-26T16:52:36.776Z</time></trkpt><trkpt lat="44.6347571" lon="10.1720191"><ele>304.0</ele><time>2026-04-26T16:52:37.776Z</time></trkpt><trkpt lat="44.6347537" lon="10.1721647"><ele>304.0</ele><time>2026-04-26T16:52:39.775Z</time></trkpt><trkpt lat="44.6348185" lon="10.1723095"><ele>304.0</ele><time>2026-04-26T16:52:41.776Z</time></trkpt><trkpt lat="44.634897" lon="10.172392"><ele>304.0</ele><time>2026-04-26T16:52:42.775Z</time></trkpt><trkpt lat="44.6349997" lon="10.1724824"><ele>304.0</ele><time>2026-04-26T16:52:43.775Z</time></trkpt><trkpt lat="44.6351027" lon="10.1725947"><ele>303.75</ele><time>2026-04-26T16:52:44.775Z</time></trkpt><trkpt lat="44.6352072" lon="10.1727135"><ele>303.5</ele><time>2026-04-26T16:52:45.775Z</time></trkpt><trkpt lat="44.6353179" lon="10.1728449"><ele>303.25</ele><time>2026-04-26T16:52:46.775Z</time></trkpt><trkpt lat="44.6354261" lon="10.1729775"><ele>303.0</ele><time>2026-04-26T16:52:47.775Z</time></trkpt><trkpt lat="44.6355414" lon="10.1731153"><ele>303.0</ele><time>2026-04-26T16:52:48.775Z</time></trkpt><trkpt lat="44.6356589" lon="10.1732599"><ele>303.0</ele><time>2026-04-26T16:52:49.775Z</time></trkpt><trkpt lat="44.6357845" lon="10.1734051"><ele>303.0</ele><time>2026-04-26T16:52:50.776Z</time></trkpt><trkpt lat="44.6359143" lon="10.1735557"><ele>303.0</ele><time>2026-04-26T16:52:51.775Z</time></trkpt><trkpt lat="44.6360465" lon="10.1737148"><ele>303.0</ele><time>2026-04-26T16:52:52.775Z</time></trkpt><trkpt lat="44.636175" lon="10.1738715"><ele>303.0</ele><time>2026-04-26T16:52:53.776Z</time></trkpt><trkpt lat="44.6363023" lon="10.1740282"><ele>302.3333333333333</ele><time>2026-04-26T16:52:54.775Z</time></trkpt><trkpt lat="44.636427" lon="10.1741798"><ele>301.66666666666663</ele><time>2026-04-26T16:52:55.776Z</time></trkpt><trkpt lat="44.6365431" lon="10.1743211"><ele>301.0</ele><time>2026-04-26T16:52:56.775Z</time></trkpt><trkpt lat="44.6366528" lon="10.1744517"><ele>301.0</ele><time>2026-04-26T16:52:57.775Z</time></trkpt><trkpt lat="44.636755" lon="10.1745754"><ele>301.0</ele><time>2026-04-26T16:52:58.777Z</time></trkpt><trkpt lat="44.6368534" lon="10.1746969"><ele>301.0</ele><time>2026-04-26T16:52:59.775Z</time></trkpt><trkpt lat="44.6369472" lon="10.1748103"><ele>301.0</ele><time>2026-04-26T16:53:00.776Z</time></trkpt><trkpt lat="44.6370322" lon="10.1749126"><ele>300.6</ele><time>2026-04-26T16:53:01.775Z</time></trkpt><trkpt lat="44.6371103" lon="10.1750089"><ele>300.20000000000005</ele><time>2026-04-26T16:53:02.777Z</time></trkpt><trkpt lat="44.6371832" lon="10.1750988"><ele>299.79999999999995</ele><time>2026-04-26T16:53:03.775Z</time></trkpt><trkpt lat="44.6372453" lon="10.1751773"><ele>299.4</ele><time>2026-04-26T16:53:04.776Z</time></trkpt><trkpt lat="44.637323" lon="10.175277"><ele>299.0</ele><time>2026-04-26T16:53:06.776Z</time></trkpt><trkpt lat="44.6373197" lon="10.1753923"><ele>299.0</ele><time>2026-04-26T16:53:09.777Z</time></trkpt><trkpt lat="44.6372611" lon="10.1755077"><ele>299.0</ele><time>2026-04-26T16:53:11.775Z</time></trkpt><trkpt lat="44.6372142" lon="10.1755824"><ele>299.0</ele><time>2026-04-26T16:53:12.775Z</time></trkpt><trkpt lat="44.6371685" lon="10.1756659"><ele>299.0</ele><time>2026-04-26T16:53:13.776Z</time></trkpt><trkpt lat="44.6371189" lon="10.1757635"><ele>299.0</ele><time>2026-04-26T16:53:14.776Z</time></trkpt><trkpt lat="44.6370618" lon="10.1758746"><ele>299.0</ele><time>2026-04-26T16:53:15.775Z</time></trkpt><trkpt lat="44.6369963" lon="10.1759878"><ele>299.5</ele><time>2026-04-26T16:53:16.776Z</time></trkpt><trkpt lat="44.6369299" lon="10.1761072"><ele>300.0</ele><time>2026-04-26T16:53:17.776Z</time></trkpt><trkpt lat="44.6368581" lon="10.1762323"><ele>300.5</ele><time>2026-04-26T16:53:18.776Z</time></trkpt><trkpt lat="44.6367846" lon="10.1763659"><ele>301.0</ele><time>2026-04-26T16:53:19.776Z</time></trkpt><trkpt lat="44.6367113" lon="10.1764927"><ele>302.16666666666663</ele><time>2026-04-26T16:53:20.775Z</time></trkpt><trkpt lat="44.6366533" lon="10.1766054"><ele>303.3333333333333</ele><time>2026-04-26T16:53:21.776Z</time></trkpt><trkpt lat="44.6366268" lon="10.1767068"><ele>304.5</ele><time>2026-04-26T16:53:22.776Z</time></trkpt><trkpt lat="44.6366218" lon="10.1768272"><ele>305.6666666666667</ele><time>2026-04-26T16:53:23.776Z</time></trkpt><trkpt lat="44.6366424" lon="10.176963"><ele>306.83333333333337</ele><time>2026-04-26T16:53:24.775Z</time></trkpt><trkpt lat="44.6366527" lon="10.1770821"><ele>308.0</ele><time>2026-04-26T16:53:25.776Z</time></trkpt><trkpt lat="44.636641" lon="10.1771803"><ele>308.0</ele><time>2026-04-26T16:53:26.775Z</time></trkpt><trkpt lat="44.6365777" lon="10.1773072"><ele>308.0</ele><time>2026-04-26T16:53:28.776Z</time></trkpt><trkpt lat="44.6364739" lon="10.1773053"><ele>308.0</ele><time>2026-04-26T16:53:30.776Z</time></trkpt><trkpt lat="44.6363907" lon="10.177166"><ele>308.0</ele><time>2026-04-26T16:53:32.775Z</time></trkpt><trkpt lat="44.6363329" lon="10.1771012"><ele>308.0</ele><time>2026-04-26T16:53:33.776Z</time></trkpt><trkpt lat="44.6362689" lon="10.1770423"><ele>308.0</ele><time>2026-04-26T16:53:34.775Z</time></trkpt><trkpt lat="44.6361912" lon="10.1770132"><ele>308.0</ele><time>2026-04-26T16:53:35.776Z</time></trkpt><trkpt lat="44.6361066" lon="10.1769906"><ele>308.0</ele><time>2026-04-26T16:53:36.775Z</time></trkpt><trkpt lat="44.6360183" lon="10.1769626"><ele>308.0</ele><time>2026-04-26T16:53:37.775Z</time></trkpt><trkpt lat="44.6359311" lon="10.1769195"><ele>308.0</ele><time>2026-04-26T16:53:38.776Z</time></trkpt><trkpt lat="44.6358557" lon="10.176866"><ele>308.0</ele><time>2026-04-26T16:53:39.775Z</time></trkpt><trkpt lat="44.6357793" lon="10.1767999"><ele>308.6</ele><time>2026-04-26T16:53:40.775Z</time></trkpt><trkpt lat="44.6356972" lon="10.176716"><ele>309.20000000000005</ele><time>2026-04-26T16:53:41.775Z</time></trkpt><trkpt lat="44.635604" lon="10.1766216"><ele>309.8</ele><time>2026-04-26T16:53:42.776Z</time></trkpt><trkpt lat="44.6355103" lon="10.1765272"><ele>310.40000000000003</ele><time>2026-04-26T16:53:43.775Z</time></trkpt><trkpt lat="44.6354192" lon="10.1764297"><ele>311.0</ele><time>2026-04-26T16:53:44.775Z</time></trkpt><trkpt lat="44.635327" lon="10.1763446"><ele>315.0</ele><time>2026-04-26T16:53:45.776Z</time></trkpt><trkpt lat="44.6352335" lon="10.1762672"><ele>319.0</ele><time>2026-04-26T16:53:46.775Z</time></trkpt><trkpt lat="44.6351382" lon="10.1761985"><ele>323.0</ele><time>2026-04-26T16:53:47.776Z</time></trkpt><trkpt lat="44.6350448" lon="10.1761228"><ele>327.0</ele><time>2026-04-26T16:53:48.775Z</time></trkpt><trkpt lat="44.6349484" lon="10.1760501"><ele>331.0</ele><time>2026-04-26T16:53:49.776Z</time></trkpt><trkpt lat="44.6348557" lon="10.1760197"><ele>331.0</ele><time>2026-04-26T16:53:50.777Z</time></trkpt><trkpt lat="44.6347634" lon="10.175995"><ele>331.0</ele><time>2026-04-26T16:53:51.776Z</time></trkpt><trkpt lat="44.6346665" lon="10.1759589"><ele>331.0</ele><time>2026-04-26T16:53:52.776Z</time></trkpt><trkpt lat="44.6345615" lon="10.1758979"><ele>331.0</ele><time>2026-04-26T16:53:53.775Z</time></trkpt><trkpt lat="44.6344693" lon="10.1758417"><ele>331.0</ele><time>2026-04-26T16:53:54.776Z</time></trkpt><trkpt lat="44.6343888" lon="10.1757482"><ele>331.6</ele><time>2026-04-26T16:53:55.775Z</time></trkpt><trkpt lat="44.6342943" lon="10.1756793"><ele>332.20000000000005</ele><time>2026-04-26T16:53:56.776Z</time></trkpt><trkpt lat="44.6342034" lon="10.1756144"><ele>332.79999999999995</ele><time>2026-04-26T16:53:57.776Z</time></trkpt><trkpt lat="44.6341108" lon="10.1755529"><ele>333.4</ele><time>2026-04-26T16:53:58.775Z</time></trkpt><trkpt lat="44.6340221" lon="10.1754863"><ele>334.0</ele><time>2026-04-26T16:53:59.776Z</time></trkpt><trkpt lat="44.6339312" lon="10.1754187"><ele>334.0</ele><time>2026-04-26T16:54:00.775Z</time></trkpt><trkpt lat="44.6338423" lon="10.1753438"><ele>334.0</ele><time>2026-04-26T16:54:01.775Z</time></trkpt><trkpt lat="44.6337779" lon="10.1752609"><ele>334.0</ele><time>2026-04-26T16:54:02.775Z</time></trkpt><trkpt lat="44.633733" lon="10.1751858"><ele>334.0</ele><time>2026-04-26T16:54:03.775Z</time></trkpt><trkpt lat="44.6336952" lon="10.1751052"><ele>334.0</ele><time>2026-04-26T16:54:04.775Z</time></trkpt><trkpt lat="44.6336586" lon="10.1750308"><ele>334.0</ele><time>2026-04-26T16:54:05.775Z</time></trkpt><trkpt lat="44.6335756" lon="10.1749092"><ele>334.5</ele><time>2026-04-26T16:54:07.775Z</time></trkpt><trkpt lat="44.633518" lon="10.1748537"><ele>335.0</ele><time>2026-04-26T16:54:08.775Z</time></trkpt><trkpt lat="44.6334505" lon="10.1747932"><ele>335.5</ele><time>2026-04-26T16:54:09.776Z</time></trkpt><trkpt lat="44.6333871" lon="10.1747402"><ele>336.0</ele><time>2026-04-26T16:54:10.775Z</time></trkpt><trkpt lat="44.6333172" lon="10.1747005"><ele>336.5</ele><time>2026-04-26T16:54:11.777Z</time></trkpt><trkpt lat="44.6332449" lon="10.1746602"><ele>337.0</ele><time>2026-04-26T16:54:12.775Z</time></trkpt><trkpt lat="44.6331617" lon="10.1746396"><ele>337.0</ele><time>2026-04-26T16:54:13.776Z</time></trkpt><trkpt lat="44.6330944" lon="10.1746111"><ele>337.0</ele><time>2026-04-26T16:54:14.775Z</time></trkpt><trkpt lat="44.6330254" lon="10.1745871"><ele>337.0</ele><time>2026-04-26T16:54:15.775Z</time></trkpt><trkpt lat="44.632965" lon="10.1745583"><ele>337.0</ele><time>2026-04-26T16:54:16.776Z</time></trkpt><trkpt lat="44.6328438" lon="10.1744948"><ele>337.0</ele><time>2026-04-26T16:54:18.777Z</time></trkpt><trkpt lat="44.6327768" lon="10.1744672"><ele>337.0</ele><time>2026-04-26T16:54:19.775Z</time></trkpt><trkpt lat="44.6326865" lon="10.1744334"><ele>338.66666666666663</ele><time>2026-04-26T16:54:20.776Z</time></trkpt><trkpt lat="44.6325888" lon="10.1743886"><ele>340.3333333333333</ele><time>2026-04-26T16:54:21.776Z</time></trkpt><trkpt lat="44.6325032" lon="10.1743392"><ele>342.0</ele><time>2026-04-26T16:54:22.775Z</time></trkpt><trkpt lat="44.6324238" lon="10.1742918"><ele>343.6666666666667</ele><time>2026-04-26T16:54:23.776Z</time></trkpt><trkpt lat="44.6323518" lon="10.1742452"><ele>345.33333333333337</ele><time>2026-04-26T16:54:24.776Z</time></trkpt><trkpt lat="44.6322902" lon="10.1742257"><ele>347.0</ele><time>2026-04-26T16:54:25.775Z</time></trkpt><trkpt lat="44.6322219" lon="10.1742014"><ele>347.0</ele><time>2026-04-26T16:54:26.776Z</time></trkpt><trkpt lat="44.6321441" lon="10.1741853"><ele>347.0</ele><time>2026-04-26T16:54:27.775Z</time></trkpt><trkpt lat="44.6320781" lon="10.1741731"><ele>347.0</ele><time>2026-04-26T16:54:28.776Z</time></trkpt><trkpt lat="44.632015" lon="10.1741554"><ele>347.0</ele><time>2026-04-26T16:54:29.775Z</time></trkpt><trkpt lat="44.6319215" lon="10.1741775"><ele>347.0</ele><time>2026-04-26T16:54:31.776Z</time></trkpt><trkpt lat="44.6318508" lon="10.174246"><ele>347.0</ele><time>2026-04-26T16:54:33.776Z</time></trkpt><trkpt lat="44.6318241" lon="10.1743769"><ele>348.20000000000005</ele><time>2026-04-26T16:54:35.776Z</time></trkpt><trkpt lat="44.631782" lon="10.1745413"><ele>349.4</ele><time>2026-04-26T16:54:37.775Z</time></trkpt><trkpt lat="44.6317414" lon="10.1746573"><ele>350.6</ele><time>2026-04-26T16:54:39.777Z</time></trkpt><trkpt lat="44.6317303" lon="10.1747917"><ele>351.79999999999995</ele><time>2026-04-26T16:54:41.776Z</time></trkpt><trkpt lat="44.6317403" lon="10.1749401"><ele>353.0</ele><time>2026-04-26T16:54:43.776Z</time></trkpt><trkpt lat="44.6317445" lon="10.1750869"><ele>354.6666666666667</ele><time>2026-04-26T16:54:45.775Z</time></trkpt><trkpt lat="44.6317354" lon="10.175216"><ele>356.33333333333337</ele><time>2026-04-26T16:54:47.775Z</time></trkpt><trkpt lat="44.6317109" lon="10.1753116"><ele>358.0</ele><time>2026-04-26T16:54:49.776Z</time></trkpt><trkpt lat="44.6316781" lon="10.1753997"><ele>359.6666666666667</ele><time>2026-04-26T16:54:51.775Z</time></trkpt><trkpt lat="44.6316337" lon="10.175513"><ele>361.3333333333333</ele><time>2026-04-26T16:54:53.775Z</time></trkpt><trkpt lat="44.6315935" lon="10.1756463"><ele>363.0</ele><time>2026-04-26T16:54:55.776Z</time></trkpt><trkpt lat="44.6315419" lon="10.1757504"><ele>365.6666666666667</ele><time>2026-04-26T16:54:57.776Z</time></trkpt><trkpt lat="44.6314908" lon="10.1758412"><ele>368.3333333333333</ele><time>2026-04-26T16:54:59.775Z</time></trkpt><trkpt lat="44.6314275" lon="10.1759478"><ele>371.0</ele><time>2026-04-26T16:55:02.776Z</time></trkpt><trkpt lat="44.6313866" lon="10.1760275"><ele>373.66666666666663</ele><time>2026-04-26T16:55:04.775Z</time></trkpt><trkpt lat="44.63136" lon="10.1761441"><ele>376.3333333333333</ele><time>2026-04-26T16:55:06.775Z</time></trkpt><trkpt lat="44.6313617" lon="10.1762904"><ele>379.0</ele><time>2026-04-26T16:55:08.775Z</time></trkpt><trkpt lat="44.6313887" lon="10.1764188"><ele>379.0</ele><time>2026-04-26T16:55:10.776Z</time></trkpt><trkpt lat="44.6314006" lon="10.1765063"><ele>379.0</ele><time>2026-04-26T16:55:12.775Z</time></trkpt><trkpt lat="44.6313064" lon="10.1765311"><ele>379.0</ele><time>2026-04-26T16:55:15.775Z</time></trkpt><trkpt lat="44.6312165" lon="10.1765966"><ele>379.0</ele><time>2026-04-26T16:55:17.776Z</time></trkpt><trkpt lat="44.6311191" lon="10.1766529"><ele>379.0</ele><time>2026-04-26T16:55:19.775Z</time></trkpt><trkpt lat="44.6310079" lon="10.1766423"><ele>380.8571428571429</ele><time>2026-04-26T16:55:21.775Z</time></trkpt><trkpt lat="44.6309383" lon="10.1766107"><ele>382.7142857142857</ele><time>2026-04-26T16:55:22.775Z</time></trkpt><trkpt lat="44.6308761" lon="10.1765657"><ele>384.57142857142856</ele><time>2026-04-26T16:55:23.776Z</time></trkpt><trkpt lat="44.6308176" lon="10.176519"><ele>386.42857142857144</ele><time>2026-04-26T16:55:24.776Z</time></trkpt><trkpt lat="44.6307519" lon="10.1764685"><ele>388.2857142857143</ele><time>2026-04-26T16:55:25.776Z</time></trkpt><trkpt lat="44.6306999" lon="10.1764154"><ele>390.14285714285717</ele><time>2026-04-26T16:55:26.775Z</time></trkpt><trkpt lat="44.630653" lon="10.176353"><ele>392.0</ele><time>2026-04-26T16:55:27.776Z</time></trkpt><trkpt lat="44.6306043" lon="10.1762965"><ele>391.99999999999994</ele><time>2026-04-26T16:55:28.775Z</time></trkpt><trkpt lat="44.6305139" lon="10.1762334"><ele>392.0</ele><time>2026-04-26T16:55:30.776Z</time></trkpt><trkpt lat="44.6304323" lon="10.1762006"><ele>392.0</ele><time>2026-04-26T16:55:32.775Z</time></trkpt><trkpt lat="44.6303526" lon="10.1761661"><ele>392.0</ele><time>2026-04-26T16:55:35.776Z</time></trkpt><trkpt lat="44.6302896" lon="10.176184"><ele>391.99999999999994</ele><time>2026-04-26T16:55:38.775Z</time></trkpt><trkpt lat="44.6303222" lon="10.1762626"><ele>392.0</ele><time>2026-04-26T16:55:41.775Z</time></trkpt><trkpt lat="44.6303958" lon="10.1762308"><ele>391.99999999999994</ele><time>2026-04-26T16:55:43.801Z</time></trkpt><trkpt lat="44.6304558" lon="10.176304"><ele>392.0</ele><time>2026-04-26T16:55:45.775Z</time></trkpt><trkpt lat="44.6305114" lon="10.1764176"><ele>392.0</ele><time>2026-04-26T16:56:55.774Z</time></trkpt><trkpt lat="44.6305466" lon="10.1765025"><ele>392.0</ele><time>2026-04-26T16:56:57.774Z</time></trkpt><trkpt lat="44.6305986" lon="10.1766118"><ele>391.99999999999994</ele><time>2026-04-26T17:05:43.774Z</time></trkpt><trkpt lat="44.6306271" lon="10.1766996"><ele>392.0</ele><time>2026-04-26T17:05:44.773Z</time></trkpt><trkpt lat="44.6306602" lon="10.1767916"><ele>394.8333333333333</ele><time>2026-04-26T17:05:45.774Z</time></trkpt><trkpt lat="44.6306894" lon="10.1768931"><ele>397.66666666666663</ele><time>2026-04-26T17:05:46.773Z</time></trkpt><trkpt lat="44.6307233" lon="10.1770045"><ele>400.5</ele><time>2026-04-26T17:05:47.774Z</time></trkpt><trkpt lat="44.6307582" lon="10.1771125"><ele>403.33333333333337</ele><time>2026-04-26T17:05:48.773Z</time></trkpt><trkpt lat="44.6307939" lon="10.1772286"><ele>406.1666666666667</ele><time>2026-04-26T17:05:49.773Z</time></trkpt><trkpt lat="44.6308369" lon="10.1773345"><ele>409.0</ele><time>2026-04-26T17:05:50.773Z</time></trkpt><trkpt lat="44.6308908" lon="10.177424"><ele>409.6666666666667</ele><time>2026-04-26T17:05:51.773Z</time></trkpt><trkpt lat="44.630955" lon="10.1774922"><ele>410.33333333333337</ele><time>2026-04-26T17:05:52.773Z</time></trkpt><trkpt lat="44.631027" lon="10.1775383"><ele>411.0</ele><time>2026-04-26T17:05:53.773Z</time></trkpt><trkpt lat="44.631104" lon="10.1775693"><ele>411.66666666666663</ele><time>2026-04-26T17:05:54.774Z</time></trkpt><trkpt lat="44.6311853" lon="10.1775962"><ele>412.3333333333333</ele><time>2026-04-26T17:05:55.773Z</time></trkpt><trkpt lat="44.6312664" lon="10.1776348"><ele>413.0</ele><time>2026-04-26T17:05:56.774Z</time></trkpt><trkpt lat="44.6313427" lon="10.1776969"><ele>412.99999999999994</ele><time>2026-04-26T17:05:57.773Z</time></trkpt><trkpt lat="44.6314089" lon="10.1777795"><ele>413.0</ele><time>2026-04-26T17:05:58.774Z</time></trkpt><trkpt lat="44.6314772" lon="10.1778679"><ele>413.0</ele><time>2026-04-26T17:05:59.773Z</time></trkpt><trkpt lat="44.6315541" lon="10.177937"><ele>413.0</ele><time>2026-04-26T17:06:00.773Z</time></trkpt><trkpt lat="44.6316292" lon="10.1779847"><ele>412.99999999999994</ele><time>2026-04-26T17:06:01.774Z</time></trkpt><trkpt lat="44.6317117" lon="10.1780082"><ele>413.0</ele><time>2026-04-26T17:06:02.773Z</time></trkpt><trkpt lat="44.6317945" lon="10.1780051"><ele>412.99999999999994</ele><time>2026-04-26T17:06:03.773Z</time></trkpt><trkpt lat="44.6318771" lon="10.1779859"><ele>413.0</ele><time>2026-04-26T17:06:04.774Z</time></trkpt><trkpt lat="44.6319606" lon="10.1779519"><ele>413.0</ele><time>2026-04-26T17:06:05.773Z</time></trkpt><trkpt lat="44.6320454" lon="10.177912"><ele>413.0</ele><time>2026-04-26T17:06:06.773Z</time></trkpt><trkpt lat="44.6321339" lon="10.1778772"><ele>412.99999999999994</ele><time>2026-04-26T17:06:07.774Z</time></trkpt><trkpt lat="44.6322247" lon="10.1778596"><ele>413.0</ele><time>2026-04-26T17:06:08.773Z</time></trkpt><trkpt lat="44.6323159" lon="10.1778702"><ele>413.2</ele><time>2026-04-26T17:06:09.774Z</time></trkpt><trkpt lat="44.6324007" lon="10.1779032"><ele>413.4</ele><time>2026-04-26T17:06:10.773Z</time></trkpt><trkpt lat="44.6324755" lon="10.1779561"><ele>413.59999999999997</ele><time>2026-04-26T17:06:11.775Z</time></trkpt><trkpt lat="44.6325669" lon="10.1780529"><ele>413.79999999999995</ele><time>2026-04-26T17:06:13.774Z</time></trkpt><trkpt lat="44.6326593" lon="10.1781759"><ele>414.0</ele><time>2026-04-26T17:06:15.773Z</time></trkpt><trkpt lat="44.6327079" lon="10.1782621"><ele>414.0</ele><time>2026-04-26T17:06:16.774Z</time></trkpt><trkpt lat="44.6327635" lon="10.1783543"><ele>414.0</ele><time>2026-04-26T17:06:17.773Z</time></trkpt><trkpt lat="44.6328208" lon="10.1784582"><ele>414.0</ele><time>2026-04-26T17:06:18.774Z</time></trkpt><trkpt lat="44.6328739" lon="10.1785605"><ele>414.0</ele><time>2026-04-26T17:06:19.773Z</time></trkpt><trkpt lat="44.6329179" lon="10.1786701"><ele>414.0</ele><time>2026-04-26T17:06:20.773Z</time></trkpt><trkpt lat="44.6329581" lon="10.1787802"><ele>414.0</ele><time>2026-04-26T17:06:21.774Z</time></trkpt><trkpt lat="44.6329931" lon="10.1788869"><ele>414.0</ele><time>2026-04-26T17:06:22.774Z</time></trkpt><trkpt lat="44.6330222" lon="10.1789868"><ele>414.0</ele><time>2026-04-26T17:06:23.774Z</time></trkpt><trkpt lat="44.6330464" lon="10.179081"><ele>414.0</ele><time>2026-04-26T17:06:24.773Z</time></trkpt><trkpt lat="44.6330668" lon="10.1791716"><ele>414.0</ele><time>2026-04-26T17:06:25.773Z</time></trkpt><trkpt lat="44.6330998" lon="10.1793321"><ele>414.0</ele><time>2026-04-26T17:06:27.773Z</time></trkpt><trkpt lat="44.6331219" lon="10.1795013"><ele>414.3333333333333</ele><time>2026-04-26T17:06:29.775Z</time></trkpt><trkpt lat="44.6331271" lon="10.1796839"><ele>414.66666666666663</ele><time>2026-04-26T17:06:31.774Z</time></trkpt><trkpt lat="44.6331297" lon="10.1797861"><ele>415.0</ele><time>2026-04-26T17:06:32.773Z</time></trkpt><trkpt lat="44.6331264" lon="10.1798922"><ele>415.3333333333333</ele><time>2026-04-26T17:06:33.774Z</time></trkpt><trkpt lat="44.6331183" lon="10.1800048"><ele>415.66666666666663</ele><time>2026-04-26T17:06:34.773Z</time></trkpt><trkpt lat="44.6331145" lon="10.1801177"><ele>416.0</ele><time>2026-04-26T17:06:35.773Z</time></trkpt><trkpt lat="44.6331162" lon="10.1802378"><ele>417.4</ele><time>2026-04-26T17:06:36.774Z</time></trkpt><trkpt lat="44.6331256" lon="10.1803665"><ele>418.8</ele><time>2026-04-26T17:06:37.773Z</time></trkpt><trkpt lat="44.6331371" lon="10.1804943"><ele>420.2</ele><time>2026-04-26T17:06:38.774Z</time></trkpt><trkpt lat="44.6331513" lon="10.1806273"><ele>421.59999999999997</ele><time>2026-04-26T17:06:39.773Z</time></trkpt><trkpt lat="44.6331617" lon="10.1807654"><ele>423.0</ele><time>2026-04-26T17:06:40.774Z</time></trkpt><trkpt lat="44.63318" lon="10.1809065"><ele>424.2</ele><time>2026-04-26T17:06:41.773Z</time></trkpt><trkpt lat="44.6332058" lon="10.1810439"><ele>425.4</ele><time>2026-04-26T17:06:42.774Z</time></trkpt><trkpt lat="44.6332403" lon="10.1811766"><ele>426.59999999999997</ele><time>2026-04-26T17:06:43.773Z</time></trkpt><trkpt lat="44.6332814" lon="10.1813139"><ele>427.79999999999995</ele><time>2026-04-26T17:06:44.773Z</time></trkpt><trkpt lat="44.6333244" lon="10.1814321"><ele>429.0</ele><time>2026-04-26T17:06:45.774Z</time></trkpt><trkpt lat="44.6333681" lon="10.1815479"><ele>431.1666666666667</ele><time>2026-04-26T17:06:46.773Z</time></trkpt><trkpt lat="44.6333982" lon="10.1816619"><ele>433.33333333333337</ele><time>2026-04-26T17:06:47.774Z</time></trkpt><trkpt lat="44.6334116" lon="10.1817635"><ele>435.5</ele><time>2026-04-26T17:06:48.773Z</time></trkpt><trkpt lat="44.633409" lon="10.1819106"><ele>437.6666666666667</ele><time>2026-04-26T17:06:50.773Z</time></trkpt><trkpt lat="44.6333867" lon="10.1820272"><ele>439.83333333333337</ele><time>2026-04-26T17:06:52.774Z</time></trkpt><trkpt lat="44.6333621" lon="10.1821482"><ele>442.0</ele><time>2026-04-26T17:06:54.773Z</time></trkpt><trkpt lat="44.6333414" lon="10.1822572"><ele>443.0</ele><time>2026-04-26T17:07:34.774Z</time></trkpt><trkpt lat="44.6332887" lon="10.1824227"><ele>444.00000000000006</ele><time>2026-04-26T17:07:36.773Z</time></trkpt><trkpt lat="44.6332347" lon="10.1825386"><ele>445.00000000000006</ele><time>2026-04-26T17:07:37.773Z</time></trkpt><trkpt lat="44.6331762" lon="10.182655"><ele>446.0</ele><time>2026-04-26T17:07:38.774Z</time></trkpt><trkpt lat="44.6331191" lon="10.1827786"><ele>447.0</ele><time>2026-04-26T17:07:39.773Z</time></trkpt><trkpt lat="44.6330753" lon="10.1829045"><ele>447.0</ele><time>2026-04-26T17:07:40.774Z</time></trkpt><trkpt lat="44.6330398" lon="10.1830505"><ele>447.00000000000006</ele><time>2026-04-26T17:07:41.773Z</time></trkpt><trkpt lat="44.6330143" lon="10.1832038"><ele>447.00000000000006</ele><time>2026-04-26T17:07:42.774Z</time></trkpt><trkpt lat="44.6329883" lon="10.1833412"><ele>447.0</ele><time>2026-04-26T17:07:43.773Z</time></trkpt><trkpt lat="44.6329583" lon="10.1834733"><ele>447.0</ele><time>2026-04-26T17:07:44.774Z</time></trkpt><trkpt lat="44.6329077" lon="10.1835952"><ele>446.5</ele><time>2026-04-26T17:07:45.774Z</time></trkpt><trkpt lat="44.632868" lon="10.183707"><ele>446.0</ele><time>2026-04-26T17:07:46.774Z</time></trkpt><trkpt lat="44.6328415" lon="10.1838079"><ele>445.5</ele><time>2026-04-26T17:07:47.773Z</time></trkpt><trkpt lat="44.6328253" lon="10.1839254"><ele>445.0</ele><time>2026-04-26T17:07:48.773Z</time></trkpt><trkpt lat="44.632822" lon="10.1840504"><ele>444.5</ele><time>2026-04-26T17:07:49.773Z</time></trkpt><trkpt lat="44.6328366" lon="10.1841967"><ele>444.0</ele><time>2026-04-26T17:07:50.773Z</time></trkpt><trkpt lat="44.6328445" lon="10.1843628"><ele>443.5</ele><time>2026-04-26T17:07:51.774Z</time></trkpt><trkpt lat="44.6328462" lon="10.1845177"><ele>443.0</ele><time>2026-04-26T17:07:52.773Z</time></trkpt><trkpt lat="44.6328463" lon="10.184697"><ele>442.5</ele><time>2026-04-26T17:07:53.773Z</time></trkpt><trkpt lat="44.6328465" lon="10.1848928"><ele>442.0</ele><time>2026-04-26T17:07:54.773Z</time></trkpt><trkpt lat="44.632843" lon="10.18508"><ele>443.5</ele><time>2026-04-26T17:07:55.774Z</time></trkpt><trkpt lat="44.6328338" lon="10.1852794"><ele>445.0</ele><time>2026-04-26T17:07:56.774Z</time></trkpt><trkpt lat="44.6328283" lon="10.1854847"><ele>446.5</ele><time>2026-04-26T17:07:57.774Z</time></trkpt><trkpt lat="44.6328295" lon="10.1856845"><ele>448.0</ele><time>2026-04-26T17:07:58.773Z</time></trkpt><trkpt lat="44.6328298" lon="10.1858682"><ele>449.0</ele><time>2026-04-26T17:07:59.774Z</time></trkpt><trkpt lat="44.6328404" lon="10.1860424"><ele>450.0</ele><time>2026-04-26T17:08:00.773Z</time></trkpt><trkpt lat="44.6328629" lon="10.1862058"><ele>451.0</ele><time>2026-04-26T17:08:01.773Z</time></trkpt><trkpt lat="44.6328744" lon="10.1863631"><ele>452.0</ele><time>2026-04-26T17:08:02.773Z</time></trkpt><trkpt lat="44.6328951" lon="10.1864993"><ele>452.40000000000003</ele><time>2026-04-26T17:08:03.774Z</time></trkpt><trkpt lat="44.632928" lon="10.1866105"><ele>452.80000000000007</ele><time>2026-04-26T17:08:04.773Z</time></trkpt><trkpt lat="44.6329403" lon="10.1867136"><ele>453.2</ele><time>2026-04-26T17:08:05.773Z</time></trkpt><trkpt lat="44.6329313" lon="10.1868123"><ele>453.6</ele><time>2026-04-26T17:08:06.774Z</time></trkpt><trkpt lat="44.6328603" lon="10.1869299"><ele>454.0</ele><time>2026-04-26T17:08:08.773Z</time></trkpt><trkpt lat="44.6327313" lon="10.1869462"><ele>456.33333333333337</ele><time>2026-04-26T17:08:10.773Z</time></trkpt><trkpt lat="44.6326486" lon="10.186944"><ele>458.6666666666667</ele><time>2026-04-26T17:08:11.773Z</time></trkpt><trkpt lat="44.6325663" lon="10.1869544"><ele>461.0</ele><time>2026-04-26T17:08:12.773Z</time></trkpt><trkpt lat="44.6324793" lon="10.1869846"><ele>463.33333333333337</ele><time>2026-04-26T17:08:13.773Z</time></trkpt><trkpt lat="44.6323992" lon="10.1870355"><ele>465.6666666666667</ele><time>2026-04-26T17:08:14.774Z</time></trkpt><trkpt lat="44.6323177" lon="10.1871124"><ele>468.0</ele><time>2026-04-26T17:08:15.773Z</time></trkpt><trkpt lat="44.6322373" lon="10.1872027"><ele>468.0</ele><time>2026-04-26T17:08:16.774Z</time></trkpt><trkpt lat="44.6321612" lon="10.1872954"><ele>467.99999999999994</ele><time>2026-04-26T17:08:17.773Z</time></trkpt><trkpt lat="44.6320895" lon="10.1873961"><ele>467.99999999999994</ele><time>2026-04-26T17:08:18.773Z</time></trkpt><trkpt lat="44.6320296" lon="10.1875005"><ele>468.0</ele><time>2026-04-26T17:08:19.774Z</time></trkpt><trkpt lat="44.6319873" lon="10.1876206"><ele>468.0</ele><time>2026-04-26T17:08:20.774Z</time></trkpt><trkpt lat="44.6319547" lon="10.1877584"><ele>469.75</ele><time>2026-04-26T17:08:21.773Z</time></trkpt><trkpt lat="44.6319369" lon="10.1879233"><ele>471.5</ele><time>2026-04-26T17:08:22.773Z</time></trkpt><trkpt lat="44.6319336" lon="10.1880725"><ele>473.25</ele><time>2026-04-26T17:08:23.773Z</time></trkpt><trkpt lat="44.6319443" lon="10.1882394"><ele>475.0</ele><time>2026-04-26T17:08:24.773Z</time></trkpt><trkpt lat="44.631957" lon="10.1883911"><ele>468.25</ele><time>2026-04-26T17:08:25.774Z</time></trkpt><trkpt lat="44.6320201" lon="10.1885579"><ele>461.5</ele><time>2026-04-26T17:08:26.773Z</time></trkpt><trkpt lat="44.6320679" lon="10.1887011"><ele>454.75</ele><time>2026-04-26T17:08:27.774Z</time></trkpt><trkpt lat="44.6321074" lon="10.1888465"><ele>448.0</ele><time>2026-04-26T17:08:28.773Z</time></trkpt><trkpt lat="44.632131" lon="10.1890001"><ele>447.4</ele><time>2026-04-26T17:08:29.773Z</time></trkpt><trkpt lat="44.6321512" lon="10.1891575"><ele>446.79999999999995</ele><time>2026-04-26T17:08:30.773Z</time></trkpt><trkpt lat="44.6321588" lon="10.1892943"><ele>446.2</ele><time>2026-04-26T17:08:31.774Z</time></trkpt><trkpt lat="44.6321535" lon="10.1894174"><ele>445.6</ele><time>2026-04-26T17:08:32.774Z</time></trkpt><trkpt lat="44.6321281" lon="10.189533"><ele>445.0</ele><time>2026-04-26T17:08:33.773Z</time></trkpt><trkpt lat="44.6320883" lon="10.1896472"><ele>445.0</ele><time>2026-04-26T17:08:34.773Z</time></trkpt><trkpt lat="44.6320276" lon="10.1897589"><ele>445.0</ele><time>2026-04-26T17:08:35.774Z</time></trkpt><trkpt lat="44.6319538" lon="10.1898737"><ele>445.0</ele><time>2026-04-26T17:08:36.773Z</time></trkpt><trkpt lat="44.6318663" lon="10.1899923"><ele>445.0</ele><time>2026-04-26T17:08:37.774Z</time></trkpt><trkpt lat="44.6317668" lon="10.1901153"><ele>447.75</ele><time>2026-04-26T17:08:38.773Z</time></trkpt><trkpt lat="44.631667" lon="10.1902392"><ele>450.5</ele><time>2026-04-26T17:08:39.774Z</time></trkpt><trkpt lat="44.6315685" lon="10.1903636"><ele>453.25</ele><time>2026-04-26T17:08:40.773Z</time></trkpt><trkpt lat="44.6314793" lon="10.1904817"><ele>456.0</ele><time>2026-04-26T17:08:41.773Z</time></trkpt><trkpt lat="44.6314109" lon="10.1905868"><ele>455.0</ele><time>2026-04-26T17:08:42.774Z</time></trkpt><trkpt lat="44.6313491" lon="10.1907008"><ele>454.0</ele><time>2026-04-26T17:08:43.773Z</time></trkpt><trkpt lat="44.6312908" lon="10.1908376"><ele>453.0</ele><time>2026-04-26T17:08:44.774Z</time></trkpt><trkpt lat="44.6312298" lon="10.1909878"><ele>452.0</ele><time>2026-04-26T17:08:45.773Z</time></trkpt><trkpt lat="44.6311756" lon="10.1911506"><ele>455.5</ele><time>2026-04-26T17:08:46.774Z</time></trkpt><trkpt lat="44.6311199" lon="10.1913121"><ele>459.0</ele><time>2026-04-26T17:08:47.774Z</time></trkpt><trkpt lat="44.631062" lon="10.1914591"><ele>462.5</ele><time>2026-04-26T17:08:48.774Z</time></trkpt><trkpt lat="44.6310106" lon="10.1915961"><ele>466.0</ele><time>2026-04-26T17:08:49.773Z</time></trkpt><trkpt lat="44.6309574" lon="10.1917176"><ele>466.0</ele><time>2026-04-26T17:08:50.774Z</time></trkpt><trkpt lat="44.6308867" lon="10.1918327"><ele>466.0</ele><time>2026-04-26T17:08:51.773Z</time></trkpt><trkpt lat="44.6308088" lon="10.1919364"><ele>466.0</ele><time>2026-04-26T17:08:52.774Z</time></trkpt><trkpt lat="44.6307367" lon="10.1920576"><ele>466.0</ele><time>2026-04-26T17:08:53.774Z</time></trkpt><trkpt lat="44.6306487" lon="10.1921753"><ele>466.0</ele><time>2026-04-26T17:08:54.774Z</time></trkpt><trkpt lat="44.6305668" lon="10.19229"><ele>466.0</ele><time>2026-04-26T17:08:55.774Z</time></trkpt><trkpt lat="44.6305016" lon="10.1923965"><ele>466.0</ele><time>2026-04-26T17:08:56.773Z</time></trkpt><trkpt lat="44.6304594" lon="10.1925155"><ele>466.0</ele><time>2026-04-26T17:08:57.773Z</time></trkpt><trkpt lat="44.6304183" lon="10.192638"><ele>466.0</ele><time>2026-04-26T17:08:58.774Z</time></trkpt><trkpt lat="44.6303908" lon="10.1927807"><ele>466.0</ele><time>2026-04-26T17:08:59.773Z</time></trkpt><trkpt lat="44.6303745" lon="10.192917"><ele>466.0</ele><time>2026-04-26T17:09:00.773Z</time></trkpt><trkpt lat="44.6303677" lon="10.1930617"><ele>466.0</ele><time>2026-04-26T17:09:01.774Z</time></trkpt><trkpt lat="44.6303605" lon="10.1932163"><ele>466.0</ele><time>2026-04-26T17:09:02.773Z</time></trkpt><trkpt lat="44.6303589" lon="10.1933777"><ele>466.0</ele><time>2026-04-26T17:09:03.774Z</time></trkpt><trkpt lat="44.6303627" lon="10.193551"><ele>466.5</ele><time>2026-04-26T17:09:04.773Z</time></trkpt><trkpt lat="44.6303668" lon="10.1937262"><ele>467.0</ele><time>2026-04-26T17:09:05.774Z</time></trkpt><trkpt lat="44.6303699" lon="10.1939033"><ele>467.5</ele><time>2026-04-26T17:09:06.773Z</time></trkpt><trkpt lat="44.6303595" lon="10.1940671"><ele>468.0</ele><time>2026-04-26T17:09:07.774Z</time></trkpt><trkpt lat="44.6303419" lon="10.1942156"><ele>470.75</ele><time>2026-04-26T17:09:08.773Z</time></trkpt><trkpt lat="44.6303013" lon="10.1943546"><ele>473.5</ele><time>2026-04-26T17:09:09.773Z</time></trkpt><trkpt lat="44.6302347" lon="10.1944934"><ele>476.25</ele><time>2026-04-26T17:09:10.773Z</time></trkpt><trkpt lat="44.6301446" lon="10.1946292"><ele>479.0</ele><time>2026-04-26T17:09:11.773Z</time></trkpt><trkpt lat="44.630043" lon="10.1947583"><ele>479.6</ele><time>2026-04-26T17:09:12.773Z</time></trkpt><trkpt lat="44.6299503" lon="10.1948804"><ele>480.2</ele><time>2026-04-26T17:09:13.775Z</time></trkpt><trkpt lat="44.6298723" lon="10.1950041"><ele>480.80000000000007</ele><time>2026-04-26T17:09:14.773Z</time></trkpt><trkpt lat="44.6298173" lon="10.1951258"><ele>481.40000000000003</ele><time>2026-04-26T17:09:15.774Z</time></trkpt><trkpt lat="44.6297825" lon="10.1952561"><ele>482.0</ele><time>2026-04-26T17:09:16.773Z</time></trkpt><trkpt lat="44.6297745" lon="10.1953693"><ele>482.0</ele><time>2026-04-26T17:09:17.774Z</time></trkpt><trkpt lat="44.6297629" lon="10.1955229"><ele>482.00000000000006</ele><time>2026-04-26T17:09:19.774Z</time></trkpt><trkpt lat="44.6296827" lon="10.1955488"><ele>482.00000000000006</ele><time>2026-04-26T17:09:22.774Z</time></trkpt><trkpt lat="44.629562" lon="10.1954613"><ele>482.0</ele><time>2026-04-26T17:09:24.774Z</time></trkpt><trkpt lat="44.6294929" lon="10.1953751"><ele>482.0</ele><time>2026-04-26T17:09:25.773Z</time></trkpt><trkpt lat="44.6294127" lon="10.195258"><ele>485.75</ele><time>2026-04-26T17:09:26.773Z</time></trkpt><trkpt lat="44.6293319" lon="10.195135"><ele>489.5</ele><time>2026-04-26T17:09:27.773Z</time></trkpt><trkpt lat="44.629249" lon="10.194996"><ele>493.25</ele><time>2026-04-26T17:09:28.774Z</time></trkpt><trkpt lat="44.6291684" lon="10.1948557"><ele>497.0</ele><time>2026-04-26T17:09:29.774Z</time></trkpt><trkpt lat="44.6291118" lon="10.1947231"><ele>498.25</ele><time>2026-04-26T17:09:30.773Z</time></trkpt><trkpt lat="44.6290693" lon="10.1945679"><ele>499.5</ele><time>2026-04-26T17:09:31.773Z</time></trkpt><trkpt lat="44.6290398" lon="10.1943981"><ele>500.75</ele><time>2026-04-26T17:09:32.774Z</time></trkpt><trkpt lat="44.6290288" lon="10.1942155"><ele>502.0</ele><time>2026-04-26T17:09:33.774Z</time></trkpt><trkpt lat="44.6290341" lon="10.1940329"><ele>502.8</ele><time>2026-04-26T17:09:34.773Z</time></trkpt><trkpt lat="44.629061" lon="10.1938722"><ele>503.6</ele><time>2026-04-26T17:09:35.773Z</time></trkpt><trkpt lat="44.6290755" lon="10.193739"><ele>504.40000000000003</ele><time>2026-04-26T17:09:36.774Z</time></trkpt><trkpt lat="44.6290746" lon="10.1936189"><ele>505.20000000000005</ele><time>2026-04-26T17:09:37.773Z</time></trkpt><trkpt lat="44.6290572" lon="10.1934873"><ele>506.0</ele><time>2026-04-26T17:09:38.773Z</time></trkpt><trkpt lat="44.6290159" lon="10.1933537"><ele>506.0</ele><time>2026-04-26T17:09:39.773Z</time></trkpt><trkpt lat="44.6289602" lon="10.1932421"><ele>506.0</ele><time>2026-04-26T17:09:40.774Z</time></trkpt><trkpt lat="44.6288898" lon="10.193154"><ele>506.0</ele><time>2026-04-26T17:09:41.773Z</time></trkpt><trkpt lat="44.6287969" lon="10.193072"><ele>506.0</ele><time>2026-04-26T17:09:42.774Z</time></trkpt><trkpt lat="44.6286907" lon="10.1930026"><ele>506.0</ele><time>2026-04-26T17:09:43.773Z</time></trkpt><trkpt lat="44.6285871" lon="10.1929421"><ele>506.66666666666663</ele><time>2026-04-26T17:09:44.773Z</time></trkpt><trkpt lat="44.6285056" lon="10.1928946"><ele>507.3333333333333</ele><time>2026-04-26T17:09:45.774Z</time></trkpt><trkpt lat="44.6284183" lon="10.1928438"><ele>508.0</ele><time>2026-04-26T17:09:47.774Z</time></trkpt><trkpt lat="44.6283439" lon="10.192828"><ele>508.66666666666663</ele><time>2026-04-26T17:09:51.774Z</time></trkpt><trkpt lat="44.6282769" lon="10.1929432"><ele>509.3333333333333</ele><time>2026-04-26T17:09:54.774Z</time></trkpt><trkpt lat="44.6282491" lon="10.1930239"><ele>510.0</ele><time>2026-04-26T17:09:55.773Z</time></trkpt><trkpt lat="44.6282199" lon="10.1931286"><ele>512.6</ele><time>2026-04-26T17:09:56.774Z</time></trkpt><trkpt lat="44.628183" lon="10.193255"><ele>515.2</ele><time>2026-04-26T17:09:57.773Z</time></trkpt><trkpt lat="44.6281497" lon="10.1933865"><ele>517.8</ele><time>2026-04-26T17:09:58.773Z</time></trkpt><trkpt lat="44.6281178" lon="10.1935075"><ele>520.4</ele><time>2026-04-26T17:09:59.773Z</time></trkpt><trkpt lat="44.6280819" lon="10.1936232"><ele>523.0</ele><time>2026-04-26T17:10:00.773Z</time></trkpt><trkpt lat="44.6280456" lon="10.1937421"><ele>523.0</ele><time>2026-04-26T17:10:01.773Z</time></trkpt><trkpt lat="44.6280119" lon="10.1938549"><ele>523.0</ele><time>2026-04-26T17:10:02.773Z</time></trkpt><trkpt lat="44.6279861" lon="10.193965"><ele>523.0</ele><time>2026-04-26T17:10:03.774Z</time></trkpt><trkpt lat="44.6279704" lon="10.1940688"><ele>523.0</ele><time>2026-04-26T17:10:04.774Z</time></trkpt><trkpt lat="44.6279494" lon="10.1941716"><ele>523.0</ele><time>2026-04-26T17:10:05.774Z</time></trkpt><trkpt lat="44.627933" lon="10.194284"><ele>523.0</ele><time>2026-04-26T17:10:06.773Z</time></trkpt><trkpt lat="44.6279229" lon="10.1944009"><ele>523.1999999999999</ele><time>2026-04-26T17:10:07.773Z</time></trkpt><trkpt lat="44.6279315" lon="10.1945223"><ele>523.4</ele><time>2026-04-26T17:10:08.774Z</time></trkpt><trkpt lat="44.627948" lon="10.1946551"><ele>523.5999999999999</ele><time>2026-04-26T17:10:09.774Z</time></trkpt><trkpt lat="44.6279504" lon="10.1947815"><ele>523.8</ele><time>2026-04-26T17:10:10.773Z</time></trkpt><trkpt lat="44.6279205" lon="10.1949107"><ele>524.0</ele><time>2026-04-26T17:10:11.773Z</time></trkpt><trkpt lat="44.6278768" lon="10.1950504"><ele>524.0</ele><time>2026-04-26T17:10:12.773Z</time></trkpt><trkpt lat="44.6278311" lon="10.1952087"><ele>524.0</ele><time>2026-04-26T17:10:13.773Z</time></trkpt><trkpt lat="44.6277929" lon="10.1953639"><ele>524.0</ele><time>2026-04-26T17:10:14.773Z</time></trkpt><trkpt lat="44.6277624" lon="10.1955285"><ele>524.0</ele><time>2026-04-26T17:10:15.773Z</time></trkpt><trkpt lat="44.6277511" lon="10.1956958"><ele>522.75</ele><time>2026-04-26T17:10:16.773Z</time></trkpt><trkpt lat="44.6277482" lon="10.19587"><ele>521.5</ele><time>2026-04-26T17:10:17.773Z</time></trkpt><trkpt lat="44.6277644" lon="10.1960384"><ele>520.25</ele><time>2026-04-26T17:10:18.773Z</time></trkpt><trkpt lat="44.6278355" lon="10.1961665"><ele>519.0</ele><time>2026-04-26T17:10:19.773Z</time></trkpt><trkpt lat="44.6278936" lon="10.1963148"><ele>519.0</ele><time>2026-04-26T17:10:20.773Z</time></trkpt><trkpt lat="44.6279415" lon="10.1964476"><ele>519.0</ele><time>2026-04-26T17:10:21.773Z</time></trkpt><trkpt lat="44.627982" lon="10.1965765"><ele>519.0</ele><time>2026-04-26T17:10:22.773Z</time></trkpt><trkpt lat="44.6279983" lon="10.1966967"><ele>519.0</ele><time>2026-04-26T17:10:23.773Z</time></trkpt><trkpt lat="44.6280163" lon="10.1968161"><ele>519.0</ele><time>2026-04-26T17:10:24.774Z</time></trkpt><trkpt lat="44.628017" lon="10.1969453"><ele>520.1666666666666</ele><time>2026-04-26T17:10:25.774Z</time></trkpt><trkpt lat="44.6280141" lon="10.1970686"><ele>521.3333333333334</ele><time>2026-04-26T17:10:26.774Z</time></trkpt><trkpt lat="44.6279981" lon="10.1971956"><ele>522.5</ele><time>2026-04-26T17:10:27.774Z</time></trkpt><trkpt lat="44.6279719" lon="10.1973075"><ele>523.6666666666667</ele><time>2026-04-26T17:10:28.773Z</time></trkpt><trkpt lat="44.6279457" lon="10.19742"><ele>524.8333333333334</ele><time>2026-04-26T17:10:29.773Z</time></trkpt><trkpt lat="44.6279118" lon="10.1975361"><ele>526.0</ele><time>2026-04-26T17:10:30.773Z</time></trkpt><trkpt lat="44.6278498" lon="10.1976442"><ele>532.6</ele><time>2026-04-26T17:10:31.774Z</time></trkpt><trkpt lat="44.6277607" lon="10.1977727"><ele>539.2</ele><time>2026-04-26T17:10:32.772Z</time></trkpt><trkpt lat="44.6277149" lon="10.1979002"><ele>545.8</ele><time>2026-04-26T17:10:33.773Z</time></trkpt><trkpt lat="44.6276897" lon="10.1980298"><ele>552.4</ele><time>2026-04-26T17:10:34.773Z</time></trkpt><trkpt lat="44.6276805" lon="10.198186"><ele>559.0</ele><time>2026-04-26T17:10:35.772Z</time></trkpt><trkpt lat="44.6276765" lon="10.1983419"><ele>559.0</ele><time>2026-04-26T17:10:36.772Z</time></trkpt><trkpt lat="44.6276945" lon="10.1984667"><ele>559.0</ele><time>2026-04-26T17:10:37.773Z</time></trkpt><trkpt lat="44.6277284" lon="10.1986169"><ele>559.0</ele><time>2026-04-26T17:10:38.772Z</time></trkpt><trkpt lat="44.6277591" lon="10.1987513"><ele>559.0</ele><time>2026-04-26T17:10:39.772Z</time></trkpt><trkpt lat="44.6277759" lon="10.1988858"><ele>559.0</ele><time>2026-04-26T17:10:40.773Z</time></trkpt><trkpt lat="44.627771" lon="10.1989907"><ele>558.5</ele><time>2026-04-26T17:10:41.774Z</time></trkpt><trkpt lat="44.6277412" lon="10.1990775"><ele>558.0</ele><time>2026-04-26T17:10:42.772Z</time></trkpt><trkpt lat="44.6277105" lon="10.199172"><ele>557.5</ele><time>2026-04-26T17:10:43.772Z</time></trkpt><trkpt lat="44.6276688" lon="10.1992733"><ele>557.0</ele><time>2026-04-26T17:10:44.773Z</time></trkpt><trkpt lat="44.6276319" lon="10.1993731"><ele>556.5</ele><time>2026-04-26T17:10:45.773Z</time></trkpt><trkpt lat="44.6275938" lon="10.1994922"><ele>556.0</ele><time>2026-04-26T17:10:46.774Z</time></trkpt><trkpt lat="44.6275719" lon="10.1996214"><ele>556.0</ele><time>2026-04-26T17:10:47.773Z</time></trkpt><trkpt lat="44.6275505" lon="10.199765"><ele>556.0</ele><time>2026-04-26T17:10:48.772Z</time></trkpt><trkpt lat="44.6275476" lon="10.1999038"><ele>556.0</ele><time>2026-04-26T17:10:49.772Z</time></trkpt><trkpt lat="44.6275318" lon="10.2000523"><ele>556.0</ele><time>2026-04-26T17:10:50.772Z</time></trkpt><trkpt lat="44.6274946" lon="10.2002141"><ele>556.0</ele><time>2026-04-26T17:10:51.773Z</time></trkpt><trkpt lat="44.6274498" lon="10.2003516"><ele>555.4</ele><time>2026-04-26T17:10:52.773Z</time></trkpt><trkpt lat="44.6273929" lon="10.2004962"><ele>554.8</ele><time>2026-04-26T17:10:53.773Z</time></trkpt><trkpt lat="44.6273431" lon="10.2006451"><ele>554.1999999999999</ele><time>2026-04-26T17:10:54.773Z</time></trkpt><trkpt lat="44.6272909" lon="10.2007827"><ele>553.6</ele><time>2026-04-26T17:10:55.772Z</time></trkpt><trkpt lat="44.6272588" lon="10.2009052"><ele>553.0</ele><time>2026-04-26T17:10:56.772Z</time></trkpt><trkpt lat="44.6272469" lon="10.2010301"><ele>552.75</ele><time>2026-04-26T17:10:57.772Z</time></trkpt><trkpt lat="44.6272546" lon="10.2011714"><ele>552.5</ele><time>2026-04-26T17:10:58.772Z</time></trkpt><trkpt lat="44.6272821" lon="10.2013256"><ele>552.25</ele><time>2026-04-26T17:10:59.773Z</time></trkpt><trkpt lat="44.627331" lon="10.2015022"><ele>552.0</ele><time>2026-04-26T17:11:00.772Z</time></trkpt><trkpt lat="44.6273775" lon="10.201683"><ele>553.25</ele><time>2026-04-26T17:11:01.772Z</time></trkpt><trkpt lat="44.6274252" lon="10.2018316"><ele>554.5</ele><time>2026-04-26T17:11:02.772Z</time></trkpt><trkpt lat="44.6274925" lon="10.2019391"><ele>555.75</ele><time>2026-04-26T17:11:03.773Z</time></trkpt><trkpt lat="44.627575" lon="10.2020677"><ele>557.0</ele><time>2026-04-26T17:11:04.772Z</time></trkpt><trkpt lat="44.627717" lon="10.2021445"><ele>556.75</ele><time>2026-04-26T17:11:05.772Z</time></trkpt><trkpt lat="44.6278143" lon="10.2022332"><ele>556.5</ele><time>2026-04-26T17:11:06.773Z</time></trkpt><trkpt lat="44.6279071" lon="10.2023177"><ele>556.25</ele><time>2026-04-26T17:11:07.772Z</time></trkpt><trkpt lat="44.6279919" lon="10.2024349"><ele>556.0</ele><time>2026-04-26T17:11:08.774Z</time></trkpt><trkpt lat="44.6280813" lon="10.2025655"><ele>556.0</ele><time>2026-04-26T17:11:09.772Z</time></trkpt><trkpt lat="44.62816" lon="10.2027031"><ele>556.0</ele><time>2026-04-26T17:11:10.773Z</time></trkpt><trkpt lat="44.6282307" lon="10.202823"><ele>556.0</ele><time>2026-04-26T17:11:11.772Z</time></trkpt><trkpt lat="44.6282945" lon="10.2029336"><ele>556.0</ele><time>2026-04-26T17:11:12.772Z</time></trkpt><trkpt lat="44.6283553" lon="10.2030621"><ele>556.0</ele><time>2026-04-26T17:11:13.772Z</time></trkpt><trkpt lat="44.6284084" lon="10.2031751"><ele>557.1666666666667</ele><time>2026-04-26T17:11:14.772Z</time></trkpt><trkpt lat="44.628474" lon="10.2032566"><ele>558.3333333333334</ele><time>2026-04-26T17:11:15.773Z</time></trkpt><trkpt lat="44.6285544" lon="10.2033169"><ele>559.5</ele><time>2026-04-26T17:11:16.772Z</time></trkpt><trkpt lat="44.6286233" lon="10.2033589"><ele>560.6666666666666</ele><time>2026-04-26T17:11:17.772Z</time></trkpt><trkpt lat="44.6286783" lon="10.2034101"><ele>561.8333333333333</ele><time>2026-04-26T17:11:18.773Z</time></trkpt><trkpt lat="44.6287365" lon="10.2035033"><ele>563.0</ele><time>2026-04-26T17:11:20.772Z</time></trkpt><trkpt lat="44.6287295" lon="10.203609"><ele>563.0</ele><time>2026-04-26T17:11:24.773Z</time></trkpt><trkpt lat="44.6287021" lon="10.2037345"><ele>563.0</ele><time>2026-04-26T17:11:29.772Z</time></trkpt><trkpt lat="44.6286783" lon="10.2038476"><ele>563.0</ele><time>2026-04-26T17:11:30.772Z</time></trkpt><trkpt lat="44.6286568" lon="10.2039922"><ele>563.0</ele><time>2026-04-26T17:11:31.773Z</time></trkpt><trkpt lat="44.6286392" lon="10.2041525"><ele>563.0</ele><time>2026-04-26T17:11:32.772Z</time></trkpt><trkpt lat="44.628637" lon="10.2043129"><ele>564.1999999999999</ele><time>2026-04-26T17:11:33.772Z</time></trkpt><trkpt lat="44.6286373" lon="10.2044615"><ele>565.4</ele><time>2026-04-26T17:11:34.773Z</time></trkpt><trkpt lat="44.628639" lon="10.2046021"><ele>566.5999999999999</ele><time>2026-04-26T17:11:35.773Z</time></trkpt><trkpt lat="44.6286365" lon="10.2047431"><ele>567.8</ele><time>2026-04-26T17:11:36.773Z</time></trkpt><trkpt lat="44.6286302" lon="10.2048721"><ele>569.0</ele><time>2026-04-26T17:11:37.773Z</time></trkpt><trkpt lat="44.6286339" lon="10.2049818"><ele>565.8333333333333</ele><time>2026-04-26T17:11:38.773Z</time></trkpt><trkpt lat="44.6286506" lon="10.205087"><ele>562.6666666666666</ele><time>2026-04-26T17:11:39.772Z</time></trkpt><trkpt lat="44.6286708" lon="10.2051847"><ele>559.5</ele><time>2026-04-26T17:11:40.772Z</time></trkpt><trkpt lat="44.6287715" lon="10.2052756"><ele>556.3333333333334</ele><time>2026-04-26T17:11:41.772Z</time></trkpt><trkpt lat="44.6288244" lon="10.2053694"><ele>553.1666666666667</ele><time>2026-04-26T17:11:42.773Z</time></trkpt><trkpt lat="44.6288642" lon="10.2054765"><ele>550.0</ele><time>2026-04-26T17:11:43.772Z</time></trkpt><trkpt lat="44.6288684" lon="10.2055978"><ele>549.75</ele><time>2026-04-26T17:11:44.773Z</time></trkpt><trkpt lat="44.6288371" lon="10.2057735"><ele>549.5</ele><time>2026-04-26T17:11:45.772Z</time></trkpt><trkpt lat="44.6288323" lon="10.2059393"><ele>549.25</ele><time>2026-04-26T17:11:46.772Z</time></trkpt><trkpt lat="44.6288173" lon="10.2061039"><ele>549.0</ele><time>2026-04-26T17:11:47.772Z</time></trkpt><trkpt lat="44.6288219" lon="10.2062704"><ele>549.0</ele><time>2026-04-26T17:11:48.772Z</time></trkpt><trkpt lat="44.62882" lon="10.2064122"><ele>549.0</ele><time>2026-04-26T17:11:49.772Z</time></trkpt><trkpt lat="44.6288907" lon="10.2065424"><ele>549.0</ele><time>2026-04-26T17:11:50.774Z</time></trkpt><trkpt lat="44.6289625" lon="10.2066938"><ele>549.0</ele><time>2026-04-26T17:11:51.772Z</time></trkpt><trkpt lat="44.6290202" lon="10.2068501"><ele>549.0</ele><time>2026-04-26T17:11:52.772Z</time></trkpt><trkpt lat="44.6290897" lon="10.206984"><ele>549.0</ele><time>2026-04-26T17:11:53.772Z</time></trkpt><trkpt lat="44.6291504" lon="10.2071379"><ele>549.0</ele><time>2026-04-26T17:11:54.772Z</time></trkpt><trkpt lat="44.6291984" lon="10.2072641"><ele>549.0</ele><time>2026-04-26T17:11:55.773Z</time></trkpt><trkpt lat="44.6292166" lon="10.2074253"><ele>549.0</ele><time>2026-04-26T17:11:56.773Z</time></trkpt><trkpt lat="44.6292426" lon="10.2075754"><ele>549.0</ele><time>2026-04-26T17:11:57.772Z</time></trkpt><trkpt lat="44.6292729" lon="10.2076979"><ele>549.0</ele><time>2026-04-26T17:11:58.772Z</time></trkpt><trkpt lat="44.6293163" lon="10.2078166"><ele>549.0</ele><time>2026-04-26T17:11:59.772Z</time></trkpt><trkpt lat="44.6293599" lon="10.2079284"><ele>549.0</ele><time>2026-04-26T17:12:00.773Z</time></trkpt><trkpt lat="44.6294479" lon="10.2079934"><ele>544.0</ele><time>2026-04-26T17:12:01.772Z</time></trkpt><trkpt lat="44.6295319" lon="10.2080682"><ele>539.0</ele><time>2026-04-26T17:12:02.772Z</time></trkpt><trkpt lat="44.6296024" lon="10.2081395"><ele>534.0</ele><time>2026-04-26T17:12:03.772Z</time></trkpt><trkpt lat="44.6295678" lon="10.2082696"><ele>529.0</ele><time>2026-04-26T17:12:04.772Z</time></trkpt><trkpt lat="44.6295213" lon="10.20847"><ele>524.0</ele><time>2026-04-26T17:12:06.772Z</time></trkpt><trkpt lat="44.6294996" lon="10.2085974"><ele>524.0</ele><time>2026-04-26T17:12:07.772Z</time></trkpt><trkpt lat="44.629495" lon="10.2087263"><ele>524.0</ele><time>2026-04-26T17:12:08.772Z</time></trkpt><trkpt lat="44.6295128" lon="10.2088325"><ele>524.0</ele><time>2026-04-26T17:12:09.772Z</time></trkpt><trkpt lat="44.6295704" lon="10.2089674"><ele>524.0</ele><time>2026-04-26T17:12:10.772Z</time></trkpt><trkpt lat="44.6296493" lon="10.2090679"><ele>524.0</ele><time>2026-04-26T17:12:11.773Z</time></trkpt><trkpt lat="44.6297395" lon="10.2091592"><ele>523.5</ele><time>2026-04-26T17:12:12.773Z</time></trkpt><trkpt lat="44.6298398" lon="10.2092353"><ele>523.0</ele><time>2026-04-26T17:12:13.772Z</time></trkpt><trkpt lat="44.6299452" lon="10.2092862"><ele>522.5</ele><time>2026-04-26T17:12:14.772Z</time></trkpt><trkpt lat="44.6300646" lon="10.2093299"><ele>522.0</ele><time>2026-04-26T17:12:15.772Z</time></trkpt><trkpt lat="44.6301739" lon="10.20935"><ele>522.0</ele><time>2026-04-26T17:12:16.772Z</time></trkpt><trkpt lat="44.6302634" lon="10.2093595"><ele>522.0</ele><time>2026-04-26T17:12:17.772Z</time></trkpt><trkpt lat="44.6303344" lon="10.2093769"><ele>522.0</ele><time>2026-04-26T17:12:18.773Z</time></trkpt><trkpt lat="44.6303935" lon="10.2094257"><ele>522.0</ele><time>2026-04-26T17:12:19.773Z</time></trkpt><trkpt lat="44.6304343" lon="10.209578"><ele>522.0</ele><time>2026-04-26T17:12:21.772Z</time></trkpt><trkpt lat="44.6303496" lon="10.2097058"><ele>522.0</ele><time>2026-04-26T17:12:23.773Z</time></trkpt><trkpt lat="44.6302469" lon="10.2097526"><ele>522.0</ele><time>2026-04-26T17:12:24.772Z</time></trkpt><trkpt lat="44.6301618" lon="10.209793"><ele>522.0</ele><time>2026-04-26T17:12:25.773Z</time></trkpt><trkpt lat="44.6300671" lon="10.209844"><ele>522.0</ele><time>2026-04-26T17:12:26.773Z</time></trkpt><trkpt lat="44.6299817" lon="10.2099204"><ele>522.0</ele><time>2026-04-26T17:12:27.772Z</time></trkpt><trkpt lat="44.6298982" lon="10.2100047"><ele>520.8000000000001</ele><time>2026-04-26T17:12:28.772Z</time></trkpt><trkpt lat="44.6298335" lon="10.210117"><ele>519.6</ele><time>2026-04-26T17:12:29.773Z</time></trkpt><trkpt lat="44.6297898" lon="10.2102446"><ele>518.4000000000001</ele><time>2026-04-26T17:12:30.772Z</time></trkpt><trkpt lat="44.6297864" lon="10.2103707"><ele>517.2</ele><time>2026-04-26T17:12:31.772Z</time></trkpt><trkpt lat="44.6298028" lon="10.210532"><ele>516.0</ele><time>2026-04-26T17:12:32.773Z</time></trkpt><trkpt lat="44.6297939" lon="10.2106818"><ele>514.2</ele><time>2026-04-26T17:12:33.772Z</time></trkpt><trkpt lat="44.6297921" lon="10.2108227"><ele>512.4000000000001</ele><time>2026-04-26T17:12:34.772Z</time></trkpt><trkpt lat="44.6297371" lon="10.2109307"><ele>510.6</ele><time>2026-04-26T17:12:35.772Z</time></trkpt><trkpt lat="44.6297225" lon="10.2110642"><ele>508.8</ele><time>2026-04-26T17:12:37.773Z</time></trkpt><trkpt lat="44.6298033" lon="10.2111346"><ele>507.0</ele><time>2026-04-26T17:12:39.772Z</time></trkpt><trkpt lat="44.629894" lon="10.2110964"><ele>507.0</ele><time>2026-04-26T17:12:40.772Z</time></trkpt><trkpt lat="44.6299784" lon="10.2110436"><ele>507.0</ele><time>2026-04-26T17:12:41.772Z</time></trkpt><trkpt lat="44.6300581" lon="10.2110034"><ele>507.0</ele><time>2026-04-26T17:12:42.772Z</time></trkpt><trkpt lat="44.630141" lon="10.2110003"><ele>507.0</ele><time>2026-04-26T17:12:43.773Z</time></trkpt><trkpt lat="44.6302178" lon="10.2110424"><ele>507.0</ele><time>2026-04-26T17:12:44.773Z</time></trkpt><trkpt lat="44.6302884" lon="10.2111321"><ele>507.0</ele><time>2026-04-26T17:12:45.772Z</time></trkpt><trkpt lat="44.6303544" lon="10.211264"><ele>505.40000000000003</ele><time>2026-04-26T17:12:46.772Z</time></trkpt><trkpt lat="44.6304123" lon="10.2114024"><ele>503.80000000000007</ele><time>2026-04-26T17:12:47.772Z</time></trkpt><trkpt lat="44.630473" lon="10.2115178"><ele>502.2</ele><time>2026-04-26T17:12:48.772Z</time></trkpt><trkpt lat="44.6305403" lon="10.2116131"><ele>500.6</ele><time>2026-04-26T17:12:49.773Z</time></trkpt><trkpt lat="44.6306104" lon="10.2116841"><ele>499.0</ele><time>2026-04-26T17:12:50.772Z</time></trkpt><trkpt lat="44.6306907" lon="10.2117219"><ele>497.79999999999995</ele><time>2026-04-26T17:12:51.772Z</time></trkpt><trkpt lat="44.63079" lon="10.2117402"><ele>496.59999999999997</ele><time>2026-04-26T17:12:52.773Z</time></trkpt><trkpt lat="44.6308982" lon="10.2117496"><ele>495.4</ele><time>2026-04-26T17:12:53.772Z</time></trkpt><trkpt lat="44.6309947" lon="10.2117842"><ele>494.2</ele><time>2026-04-26T17:12:54.773Z</time></trkpt><trkpt lat="44.6310789" lon="10.2118434"><ele>493.0</ele><time>2026-04-26T17:12:55.772Z</time></trkpt><trkpt lat="44.6311625" lon="10.2119263"><ele>491.25</ele><time>2026-04-26T17:12:56.772Z</time></trkpt><trkpt lat="44.6312507" lon="10.2120365"><ele>489.5</ele><time>2026-04-26T17:12:57.772Z</time></trkpt><trkpt lat="44.631336" lon="10.2121405"><ele>487.75</ele><time>2026-04-26T17:12:58.772Z</time></trkpt><trkpt lat="44.6314245" lon="10.2122389"><ele>486.0</ele><time>2026-04-26T17:12:59.773Z</time></trkpt><trkpt lat="44.6315103" lon="10.2123294"><ele>485.0</ele><time>2026-04-26T17:13:00.774Z</time></trkpt><trkpt lat="44.6315988" lon="10.2124133"><ele>484.0</ele><time>2026-04-26T17:13:01.772Z</time></trkpt><trkpt lat="44.6316809" lon="10.2125032"><ele>483.0</ele><time>2026-04-26T17:13:02.772Z</time></trkpt><trkpt lat="44.631759" lon="10.2125942"><ele>482.0</ele><time>2026-04-26T17:13:03.772Z</time></trkpt><trkpt lat="44.6318324" lon="10.2126744"><ele>481.0</ele><time>2026-04-26T17:13:04.772Z</time></trkpt><trkpt lat="44.6319017" lon="10.2127395"><ele>481.00000000000006</ele><time>2026-04-26T17:13:05.772Z</time></trkpt><trkpt lat="44.6319702" lon="10.2128028"><ele>481.0</ele><time>2026-04-26T17:13:06.773Z</time></trkpt><trkpt lat="44.6320368" lon="10.2128518"><ele>481.0</ele><time>2026-04-26T17:13:07.772Z</time></trkpt><trkpt lat="44.6321038" lon="10.2128682"><ele>481.0</ele><time>2026-04-26T17:13:08.772Z</time></trkpt><trkpt lat="44.6321885" lon="10.212876"><ele>481.00000000000006</ele><time>2026-04-26T17:13:10.773Z</time></trkpt><trkpt lat="44.6322308" lon="10.2129592"><ele>481.0</ele><time>2026-04-26T17:13:13.772Z</time></trkpt><trkpt lat="44.6321901" lon="10.2130539"><ele>479.6</ele><time>2026-04-26T17:13:15.772Z</time></trkpt><trkpt lat="44.6321363" lon="10.2131083"><ele>478.20000000000005</ele><time>2026-04-26T17:13:16.772Z</time></trkpt><trkpt lat="44.6320544" lon="10.2131745"><ele>476.79999999999995</ele><time>2026-04-26T17:13:17.772Z</time></trkpt><trkpt lat="44.6319447" lon="10.2132537"><ele>475.4</ele><time>2026-04-26T17:13:18.772Z</time></trkpt><trkpt lat="44.6318345" lon="10.2133435"><ele>474.0</ele><time>2026-04-26T17:13:19.772Z</time></trkpt><trkpt lat="44.631716" lon="10.2134513"><ele>473.25</ele><time>2026-04-26T17:13:20.772Z</time></trkpt><trkpt lat="44.6316037" lon="10.2135748"><ele>472.5</ele><time>2026-04-26T17:13:21.774Z</time></trkpt><trkpt lat="44.6315067" lon="10.2137171"><ele>471.75</ele><time>2026-04-26T17:13:22.773Z</time></trkpt><trkpt lat="44.6314263" lon="10.2138863"><ele>471.0</ele><time>2026-04-26T17:13:23.773Z</time></trkpt><trkpt lat="44.6313499" lon="10.2140643"><ele>470.0</ele><time>2026-04-26T17:13:24.773Z</time></trkpt><trkpt lat="44.6312756" lon="10.2142476"><ele>469.0</ele><time>2026-04-26T17:13:25.773Z</time></trkpt><trkpt lat="44.6311974" lon="10.2144255"><ele>468.0</ele><time>2026-04-26T17:13:26.772Z</time></trkpt><trkpt lat="44.6311252" lon="10.2145979"><ele>467.0</ele><time>2026-04-26T17:13:27.774Z</time></trkpt><trkpt lat="44.6310688" lon="10.2147742"><ele>467.25</ele><time>2026-04-26T17:13:28.772Z</time></trkpt><trkpt lat="44.6310398" lon="10.2149491"><ele>467.5</ele><time>2026-04-26T17:13:29.772Z</time></trkpt><trkpt lat="44.6310264" lon="10.2151251"><ele>467.75</ele><time>2026-04-26T17:13:30.773Z</time></trkpt><trkpt lat="44.631026" lon="10.215303"><ele>468.0</ele><time>2026-04-26T17:13:31.772Z</time></trkpt><trkpt lat="44.631049" lon="10.2154691"><ele>468.0</ele><time>2026-04-26T17:13:32.772Z</time></trkpt><trkpt lat="44.6310938" lon="10.2156308"><ele>468.0</ele><time>2026-04-26T17:13:33.773Z</time></trkpt><trkpt lat="44.6311423" lon="10.215801"><ele>468.0</ele><time>2026-04-26T17:13:34.772Z</time></trkpt><trkpt lat="44.6311899" lon="10.2159784"><ele>468.0</ele><time>2026-04-26T17:13:35.773Z</time></trkpt><trkpt lat="44.6312311" lon="10.2161614"><ele>464.75</ele><time>2026-04-26T17:13:36.772Z</time></trkpt><trkpt lat="44.6312631" lon="10.2163561"><ele>461.5</ele><time>2026-04-26T17:13:37.772Z</time></trkpt><trkpt lat="44.6312792" lon="10.216547"><ele>458.25</ele><time>2026-04-26T17:13:38.773Z</time></trkpt><trkpt lat="44.6312768" lon="10.2167304"><ele>455.0</ele><time>2026-04-26T17:13:39.772Z</time></trkpt><trkpt lat="44.6312447" lon="10.2169119"><ele>455.0</ele><time>2026-04-26T17:13:40.772Z</time></trkpt><trkpt lat="44.6311948" lon="10.2170815"><ele>455.0</ele><time>2026-04-26T17:13:41.773Z</time></trkpt><trkpt lat="44.6311397" lon="10.2172481"><ele>455.0</ele><time>2026-04-26T17:13:42.772Z</time></trkpt><trkpt lat="44.6310746" lon="10.2174149"><ele>455.0</ele><time>2026-04-26T17:13:43.773Z</time></trkpt><trkpt lat="44.6310113" lon="10.2175835"><ele>461.0</ele><time>2026-04-26T17:13:44.772Z</time></trkpt><trkpt lat="44.6309788" lon="10.2177658"><ele>467.0</ele><time>2026-04-26T17:13:45.772Z</time></trkpt><trkpt lat="44.6309604" lon="10.2179448"><ele>473.0</ele><time>2026-04-26T17:13:46.772Z</time></trkpt><trkpt lat="44.6309759" lon="10.21813"><ele>479.0</ele><time>2026-04-26T17:13:47.773Z</time></trkpt><trkpt lat="44.6309782" lon="10.2183132"><ele>479.0</ele><time>2026-04-26T17:13:48.772Z</time></trkpt><trkpt lat="44.6309692" lon="10.21851"><ele>479.0</ele><time>2026-04-26T17:13:49.773Z</time></trkpt><trkpt lat="44.6309479" lon="10.2187131"><ele>479.0</ele><time>2026-04-26T17:13:50.772Z</time></trkpt><trkpt lat="44.6309176" lon="10.2189197"><ele>479.0</ele><time>2026-04-26T17:13:51.772Z</time></trkpt><trkpt lat="44.6308783" lon="10.2191382"><ele>477.0</ele><time>2026-04-26T17:13:52.773Z</time></trkpt><trkpt lat="44.6308567" lon="10.2193606"><ele>475.0</ele><time>2026-04-26T17:13:53.772Z</time></trkpt><trkpt lat="44.6308515" lon="10.2195815"><ele>473.0</ele><time>2026-04-26T17:13:54.773Z</time></trkpt><trkpt lat="44.6308709" lon="10.2197993"><ele>472.25</ele><time>2026-04-26T17:13:55.772Z</time></trkpt><trkpt lat="44.630894" lon="10.2200069"><ele>471.5</ele><time>2026-04-26T17:13:56.772Z</time></trkpt><trkpt lat="44.6309025" lon="10.2202086"><ele>470.75</ele><time>2026-04-26T17:13:57.772Z</time></trkpt><trkpt lat="44.630875" lon="10.2204122"><ele>470.0</ele><time>2026-04-26T17:13:58.773Z</time></trkpt><trkpt lat="44.6308335" lon="10.2206139"><ele>468.25</ele><time>2026-04-26T17:13:59.773Z</time></trkpt><trkpt lat="44.6307735" lon="10.2208018"><ele>466.5</ele><time>2026-04-26T17:14:00.772Z</time></trkpt><trkpt lat="44.6306927" lon="10.2209695"><ele>464.75</ele><time>2026-04-26T17:14:01.772Z</time></trkpt><trkpt lat="44.630593" lon="10.2211012"><ele>463.0</ele><time>2026-04-26T17:14:02.772Z</time></trkpt><trkpt lat="44.6304751" lon="10.2211847"><ele>463.0</ele><time>2026-04-26T17:14:03.772Z</time></trkpt><trkpt lat="44.6303526" lon="10.2212298"><ele>463.0</ele><time>2026-04-26T17:14:04.772Z</time></trkpt><trkpt lat="44.6302339" lon="10.2213004"><ele>463.0</ele><time>2026-04-26T17:14:05.773Z</time></trkpt><trkpt lat="44.6301245" lon="10.2214178"><ele>463.0</ele><time>2026-04-26T17:14:06.772Z</time></trkpt><trkpt lat="44.6300282" lon="10.2215676"><ele>462.75</ele><time>2026-04-26T17:14:07.772Z</time></trkpt><trkpt lat="44.6299274" lon="10.2217168"><ele>462.5</ele><time>2026-04-26T17:14:08.772Z</time></trkpt><trkpt lat="44.6298138" lon="10.2218399"><ele>462.25</ele><time>2026-04-26T17:14:09.772Z</time></trkpt><trkpt lat="44.6297053" lon="10.2219655"><ele>462.0</ele><time>2026-04-26T17:14:10.773Z</time></trkpt><trkpt lat="44.6296171" lon="10.2220928"><ele>462.0</ele><time>2026-04-26T17:14:11.773Z</time></trkpt><trkpt lat="44.62955" lon="10.2222335"><ele>462.00000000000006</ele><time>2026-04-26T17:14:12.772Z</time></trkpt><trkpt lat="44.6295115" lon="10.2223798"><ele>462.00000000000006</ele><time>2026-04-26T17:14:13.773Z</time></trkpt><trkpt lat="44.6294995" lon="10.2225282"><ele>462.0</ele><time>2026-04-26T17:14:14.773Z</time></trkpt><trkpt lat="44.6295225" lon="10.2226586"><ele>462.0</ele><time>2026-04-26T17:14:15.772Z</time></trkpt><trkpt lat="44.6295806" lon="10.2227705"><ele>460.5</ele><time>2026-04-26T17:14:16.773Z</time></trkpt><trkpt lat="44.6296656" lon="10.2228501"><ele>459.0</ele><time>2026-04-26T17:14:17.772Z</time></trkpt><trkpt lat="44.62978" lon="10.2229028"><ele>457.5</ele><time>2026-04-26T17:14:18.773Z</time></trkpt><trkpt lat="44.6299128" lon="10.2229507"><ele>456.0</ele><time>2026-04-26T17:14:19.772Z</time></trkpt><trkpt lat="44.6300561" lon="10.2230274"><ele>456.0</ele><time>2026-04-26T17:14:20.772Z</time></trkpt><trkpt lat="44.6301904" lon="10.2231462"><ele>456.0</ele><time>2026-04-26T17:14:21.773Z</time></trkpt><trkpt lat="44.6303169" lon="10.223304"><ele>456.0</ele><time>2026-04-26T17:14:22.773Z</time></trkpt><trkpt lat="44.6304301" lon="10.2234714"><ele>456.0</ele><time>2026-04-26T17:14:23.772Z</time></trkpt><trkpt lat="44.6305451" lon="10.223656"><ele>456.0</ele><time>2026-04-26T17:14:24.772Z</time></trkpt><trkpt lat="44.6306555" lon="10.2238455"><ele>456.0</ele><time>2026-04-26T17:14:25.773Z</time></trkpt><trkpt lat="44.6307639" lon="10.2240359"><ele>456.0</ele><time>2026-04-26T17:14:26.772Z</time></trkpt><trkpt lat="44.630874" lon="10.2242221"><ele>456.0</ele><time>2026-04-26T17:14:27.772Z</time></trkpt><trkpt lat="44.6309813" lon="10.2244012"><ele>456.0</ele><time>2026-04-26T17:14:28.773Z</time></trkpt><trkpt lat="44.6310911" lon="10.2245733"><ele>457.25</ele><time>2026-04-26T17:14:29.772Z</time></trkpt><trkpt lat="44.631199" lon="10.2247339"><ele>458.5</ele><time>2026-04-26T17:14:30.772Z</time></trkpt><trkpt lat="44.6313024" lon="10.2248793"><ele>459.75</ele><time>2026-04-26T17:14:31.773Z</time></trkpt><trkpt lat="44.6314066" lon="10.2250058"><ele>461.0</ele><time>2026-04-26T17:14:32.772Z</time></trkpt><trkpt lat="44.6315175" lon="10.225113"><ele>461.0</ele><time>2026-04-26T17:14:33.773Z</time></trkpt><trkpt lat="44.6316359" lon="10.2251862"><ele>461.0</ele><time>2026-04-26T17:14:34.772Z</time></trkpt><trkpt lat="44.6317623" lon="10.2252222"><ele>461.0</ele><time>2026-04-26T17:14:35.773Z</time></trkpt><trkpt lat="44.6318947" lon="10.2252323"><ele>461.0</ele><time>2026-04-26T17:14:36.773Z</time></trkpt><trkpt lat="44.6320259" lon="10.225251"><ele>461.75</ele><time>2026-04-26T17:14:37.772Z</time></trkpt><trkpt lat="44.6321507" lon="10.2253006"><ele>462.5</ele><time>2026-04-26T17:14:38.772Z</time></trkpt><trkpt lat="44.6322603" lon="10.2253934"><ele>463.25</ele><time>2026-04-26T17:14:39.772Z</time></trkpt><trkpt lat="44.6323545" lon="10.2255233"><ele>464.0</ele><time>2026-04-26T17:14:40.772Z</time></trkpt><trkpt lat="44.6324427" lon="10.2256744"><ele>464.0</ele><time>2026-04-26T17:14:41.772Z</time></trkpt><trkpt lat="44.6325309" lon="10.2258311"><ele>464.0</ele><time>2026-04-26T17:14:42.774Z</time></trkpt><trkpt lat="44.6326206" lon="10.2259907"><ele>464.0</ele><time>2026-04-26T17:14:43.772Z</time></trkpt><trkpt lat="44.6327117" lon="10.2261554"><ele>464.0</ele><time>2026-04-26T17:14:44.772Z</time></trkpt><trkpt lat="44.6328045" lon="10.2263193"><ele>463.25</ele><time>2026-04-26T17:14:45.773Z</time></trkpt><trkpt lat="44.6328996" lon="10.2264764"><ele>462.5</ele><time>2026-04-26T17:14:46.772Z</time></trkpt><trkpt lat="44.63299" lon="10.2266248"><ele>461.75</ele><time>2026-04-26T17:14:47.772Z</time></trkpt><trkpt lat="44.6330735" lon="10.2267676"><ele>461.0</ele><time>2026-04-26T17:14:48.772Z</time></trkpt><trkpt lat="44.6331461" lon="10.2269007"><ele>461.0</ele><time>2026-04-26T17:14:49.773Z</time></trkpt><trkpt lat="44.6332213" lon="10.2270115"><ele>461.0</ele><time>2026-04-26T17:14:50.772Z</time></trkpt><trkpt lat="44.6333163" lon="10.2271086"><ele>461.0</ele><time>2026-04-26T17:14:51.772Z</time></trkpt><trkpt lat="44.633424" lon="10.2271768"><ele>461.0</ele><time>2026-04-26T17:14:52.772Z</time></trkpt><trkpt lat="44.6335356" lon="10.2272336"><ele>460.5</ele><time>2026-04-26T17:14:53.772Z</time></trkpt><trkpt lat="44.6336523" lon="10.2272643"><ele>460.0</ele><time>2026-04-26T17:14:54.773Z</time></trkpt><trkpt lat="44.6337786" lon="10.2272751"><ele>459.5</ele><time>2026-04-26T17:14:55.772Z</time></trkpt><trkpt lat="44.6339092" lon="10.2272576"><ele>459.0</ele><time>2026-04-26T17:14:56.772Z</time></trkpt><trkpt lat="44.6340401" lon="10.2272204"><ele>459.0</ele><time>2026-04-26T17:14:57.773Z</time></trkpt><trkpt lat="44.6341614" lon="10.2271715"><ele>459.0</ele><time>2026-04-26T17:14:58.773Z</time></trkpt><trkpt lat="44.634271" lon="10.2271211"><ele>459.0</ele><time>2026-04-26T17:14:59.773Z</time></trkpt><trkpt lat="44.634368" lon="10.2270748"><ele>459.0</ele><time>2026-04-26T17:15:00.772Z</time></trkpt><trkpt lat="44.6344533" lon="10.2270419"><ele>459.0</ele><time>2026-04-26T17:15:01.772Z</time></trkpt><trkpt lat="44.6345318" lon="10.2270412"><ele>459.0</ele><time>2026-04-26T17:15:02.772Z</time></trkpt><trkpt lat="44.6346079" lon="10.2270894"><ele>459.0</ele><time>2026-04-26T17:15:03.772Z</time></trkpt><trkpt lat="44.6346721" lon="10.2271733"><ele>459.0</ele><time>2026-04-26T17:15:04.773Z</time></trkpt><trkpt lat="44.6347373" lon="10.2272832"><ele>459.0</ele><time>2026-04-26T17:15:05.772Z</time></trkpt><trkpt lat="44.6348096" lon="10.2274102"><ele>459.0</ele><time>2026-04-26T17:15:06.773Z</time></trkpt><trkpt lat="44.6348898" lon="10.2275517"><ele>457.75</ele><time>2026-04-26T17:15:07.773Z</time></trkpt><trkpt lat="44.6349765" lon="10.2277038"><ele>456.5</ele><time>2026-04-26T17:15:08.772Z</time></trkpt><trkpt lat="44.6350536" lon="10.2278671"><ele>455.25</ele><time>2026-04-26T17:15:09.772Z</time></trkpt><trkpt lat="44.6351003" lon="10.2280292"><ele>454.0</ele><time>2026-04-26T17:15:10.773Z</time></trkpt><trkpt lat="44.6351166" lon="10.2281823"><ele>452.0</ele><time>2026-04-26T17:15:11.774Z</time></trkpt><trkpt lat="44.6351067" lon="10.2283234"><ele>450.0</ele><time>2026-04-26T17:15:12.772Z</time></trkpt><trkpt lat="44.63507" lon="10.2284634"><ele>448.0</ele><time>2026-04-26T17:15:13.772Z</time></trkpt><trkpt lat="44.6350171" lon="10.2286152"><ele>446.0</ele><time>2026-04-26T17:15:14.772Z</time></trkpt><trkpt lat="44.6349497" lon="10.2287723"><ele>446.0</ele><time>2026-04-26T17:15:15.773Z</time></trkpt><trkpt lat="44.6348665" lon="10.2289241"><ele>446.0</ele><time>2026-04-26T17:15:16.772Z</time></trkpt><trkpt lat="44.6347694" lon="10.2290645"><ele>446.0</ele><time>2026-04-26T17:15:17.772Z</time></trkpt><trkpt lat="44.6346563" lon="10.2292075"><ele>446.0</ele><time>2026-04-26T17:15:18.772Z</time></trkpt><trkpt lat="44.6345479" lon="10.2293597"><ele>446.3333333333333</ele><time>2026-04-26T17:15:19.772Z</time></trkpt><trkpt lat="44.6344528" lon="10.2295296"><ele>446.66666666666663</ele><time>2026-04-26T17:15:20.772Z</time></trkpt><trkpt lat="44.6343686" lon="10.2297137"><ele>447.0</ele><time>2026-04-26T17:15:21.772Z</time></trkpt><trkpt lat="44.6342961" lon="10.2299065"><ele>447.0</ele><time>2026-04-26T17:15:22.773Z</time></trkpt><trkpt lat="44.634238" lon="10.2301084"><ele>447.0</ele><time>2026-04-26T17:15:23.773Z</time></trkpt><trkpt lat="44.6342053" lon="10.2303144"><ele>447.0</ele><time>2026-04-26T17:15:24.772Z</time></trkpt><trkpt lat="44.6341864" lon="10.2305175"><ele>447.5</ele><time>2026-04-26T17:15:25.772Z</time></trkpt><trkpt lat="44.6341674" lon="10.2307231"><ele>448.0</ele><time>2026-04-26T17:15:26.772Z</time></trkpt><trkpt lat="44.6341434" lon="10.2309278"><ele>448.5</ele><time>2026-04-26T17:15:27.772Z</time></trkpt><trkpt lat="44.6341193" lon="10.2311354"><ele>449.0</ele><time>2026-04-26T17:15:28.773Z</time></trkpt><trkpt lat="44.6340919" lon="10.2313396"><ele>449.0</ele><time>2026-04-26T17:15:29.772Z</time></trkpt><trkpt lat="44.6340638" lon="10.2315321"><ele>449.0</ele><time>2026-04-26T17:15:30.772Z</time></trkpt><trkpt lat="44.6340457" lon="10.2317097"><ele>449.0</ele><time>2026-04-26T17:15:31.772Z</time></trkpt><trkpt lat="44.6340388" lon="10.2318857"><ele>449.0</ele><time>2026-04-26T17:15:32.773Z</time></trkpt><trkpt lat="44.6340632" lon="10.2320603"><ele>449.0</ele><time>2026-04-26T17:15:33.772Z</time></trkpt><trkpt lat="44.6341128" lon="10.2322327"><ele>449.0</ele><time>2026-04-26T17:15:34.774Z</time></trkpt><trkpt lat="44.6341769" lon="10.2324038"><ele>449.0</ele><time>2026-04-26T17:15:35.772Z</time></trkpt><trkpt lat="44.6342501" lon="10.23258"><ele>449.0</ele><time>2026-04-26T17:15:36.773Z</time></trkpt><trkpt lat="44.6343347" lon="10.2327602"><ele>449.3333333333333</ele><time>2026-04-26T17:15:37.772Z</time></trkpt><trkpt lat="44.6344248" lon="10.232941"><ele>449.66666666666663</ele><time>2026-04-26T17:15:38.774Z</time></trkpt><trkpt lat="44.6345204" lon="10.2331145"><ele>450.0</ele><time>2026-04-26T17:15:39.772Z</time></trkpt><trkpt lat="44.6346267" lon="10.2332634"><ele>448.25</ele><time>2026-04-26T17:15:40.772Z</time></trkpt><trkpt lat="44.6347354" lon="10.2333762"><ele>446.5</ele><time>2026-04-26T17:15:41.772Z</time></trkpt><trkpt lat="44.63485" lon="10.2334611"><ele>444.75</ele><time>2026-04-26T17:15:42.772Z</time></trkpt><trkpt lat="44.6349549" lon="10.2335536"><ele>443.0</ele><time>2026-04-26T17:15:43.772Z</time></trkpt><trkpt lat="44.635034" lon="10.2336712"><ele>443.0</ele><time>2026-04-26T17:15:44.772Z</time></trkpt><trkpt lat="44.6350767" lon="10.2338115"><ele>443.0</ele><time>2026-04-26T17:15:45.773Z</time></trkpt><trkpt lat="44.6350837" lon="10.23398"><ele>443.0</ele><time>2026-04-26T17:15:46.772Z</time></trkpt><trkpt lat="44.6350856" lon="10.2341637"><ele>443.0</ele><time>2026-04-26T17:15:47.772Z</time></trkpt><trkpt lat="44.6351102" lon="10.2343618"><ele>444.3333333333333</ele><time>2026-04-26T17:15:48.772Z</time></trkpt><trkpt lat="44.6351679" lon="10.2345527"><ele>445.66666666666663</ele><time>2026-04-26T17:15:49.773Z</time></trkpt><trkpt lat="44.6352501" lon="10.2347296"><ele>447.0</ele><time>2026-04-26T17:15:50.772Z</time></trkpt><trkpt lat="44.6353447" lon="10.2348975"><ele>445.0</ele><time>2026-04-26T17:15:51.772Z</time></trkpt><trkpt lat="44.6354283" lon="10.2350695"><ele>443.0</ele><time>2026-04-26T17:15:52.772Z</time></trkpt><trkpt lat="44.6354935" lon="10.235236"><ele>441.0</ele><time>2026-04-26T17:15:53.772Z</time></trkpt><trkpt lat="44.6355201" lon="10.2353957"><ele>439.0</ele><time>2026-04-26T17:15:54.773Z</time></trkpt><trkpt lat="44.6355132" lon="10.2355577"><ele>439.2</ele><time>2026-04-26T17:15:55.772Z</time></trkpt><trkpt lat="44.6354852" lon="10.2357123"><ele>439.4</ele><time>2026-04-26T17:15:56.772Z</time></trkpt><trkpt lat="44.635446" lon="10.2358545"><ele>439.6</ele><time>2026-04-26T17:15:57.772Z</time></trkpt><trkpt lat="44.6354137" lon="10.2359935"><ele>439.8</ele><time>2026-04-26T17:15:58.772Z</time></trkpt><trkpt lat="44.635393" lon="10.2361196"><ele>440.0</ele><time>2026-04-26T17:15:59.772Z</time></trkpt><trkpt lat="44.6353547" lon="10.2362268"><ele>440.0</ele><time>2026-04-26T17:16:00.772Z</time></trkpt><trkpt lat="44.6353067" lon="10.2363312"><ele>440.0</ele><time>2026-04-26T17:16:01.772Z</time></trkpt><trkpt lat="44.6352474" lon="10.2364294"><ele>440.0</ele><time>2026-04-26T17:16:02.772Z</time></trkpt><trkpt lat="44.6351697" lon="10.2365118"><ele>440.0</ele><time>2026-04-26T17:16:03.773Z</time></trkpt><trkpt lat="44.6350773" lon="10.2365834"><ele>440.0</ele><time>2026-04-26T17:16:04.773Z</time></trkpt><trkpt lat="44.6349764" lon="10.2366544"><ele>440.75</ele><time>2026-04-26T17:16:05.772Z</time></trkpt><trkpt lat="44.6348644" lon="10.2367354"><ele>441.5</ele><time>2026-04-26T17:16:06.772Z</time></trkpt><trkpt lat="44.6347389" lon="10.2368166"><ele>442.25</ele><time>2026-04-26T17:16:07.772Z</time></trkpt><trkpt lat="44.634605" lon="10.2368891"><ele>443.0</ele><time>2026-04-26T17:16:08.773Z</time></trkpt><trkpt lat="44.6344607" lon="10.2369418"><ele>443.0</ele><time>2026-04-26T17:16:09.772Z</time></trkpt><trkpt lat="44.634318" lon="10.2369747"><ele>443.0</ele><time>2026-04-26T17:16:10.772Z</time></trkpt><trkpt lat="44.6341857" lon="10.2369973"><ele>443.0</ele><time>2026-04-26T17:16:11.772Z</time></trkpt><trkpt lat="44.6340626" lon="10.2370308"><ele>443.0</ele><time>2026-04-26T17:16:12.773Z</time></trkpt><trkpt lat="44.6339483" lon="10.2370924"><ele>443.0</ele><time>2026-04-26T17:16:13.772Z</time></trkpt><trkpt lat="44.6338391" lon="10.237193"><ele>443.0</ele><time>2026-04-26T17:16:14.772Z</time></trkpt><trkpt lat="44.6337296" lon="10.2373203"><ele>443.0</ele><time>2026-04-26T17:16:15.772Z</time></trkpt><trkpt lat="44.633613" lon="10.237443"><ele>443.0</ele><time>2026-04-26T17:16:16.772Z</time></trkpt><trkpt lat="44.6334877" lon="10.2375508"><ele>444.0</ele><time>2026-04-26T17:16:17.773Z</time></trkpt><trkpt lat="44.6333493" lon="10.2376388"><ele>445.0</ele><time>2026-04-26T17:16:18.772Z</time></trkpt><trkpt lat="44.6331989" lon="10.2376874"><ele>446.0</ele><time>2026-04-26T17:16:19.773Z</time></trkpt><trkpt lat="44.6330425" lon="10.2377152"><ele>446.0</ele><time>2026-04-26T17:16:20.773Z</time></trkpt><trkpt lat="44.6328817" lon="10.2377399"><ele>446.0</ele><time>2026-04-26T17:16:21.772Z</time></trkpt><trkpt lat="44.6327211" lon="10.2377673"><ele>446.0</ele><time>2026-04-26T17:16:22.772Z</time></trkpt><trkpt lat="44.6325634" lon="10.2377905"><ele>445.0</ele><time>2026-04-26T17:16:23.773Z</time></trkpt><trkpt lat="44.6324155" lon="10.2378128"><ele>444.0</ele><time>2026-04-26T17:16:24.772Z</time></trkpt><trkpt lat="44.6322814" lon="10.2378396"><ele>443.0</ele><time>2026-04-26T17:16:25.772Z</time></trkpt><trkpt lat="44.6321629" lon="10.237893"><ele>442.0</ele><time>2026-04-26T17:16:26.773Z</time></trkpt><trkpt lat="44.6320549" lon="10.2379778"><ele>441.5</ele><time>2026-04-26T17:16:27.772Z</time></trkpt><trkpt lat="44.6319452" lon="10.2380933"><ele>441.0</ele><time>2026-04-26T17:16:28.772Z</time></trkpt><trkpt lat="44.6318378" lon="10.2382335"><ele>440.5</ele><time>2026-04-26T17:16:29.772Z</time></trkpt><trkpt lat="44.6317361" lon="10.238369"><ele>440.0</ele><time>2026-04-26T17:16:30.773Z</time></trkpt><trkpt lat="44.6316425" lon="10.2384951"><ele>440.0</ele><time>2026-04-26T17:16:31.772Z</time></trkpt><trkpt lat="44.6315706" lon="10.238617"><ele>440.0</ele><time>2026-04-26T17:16:32.772Z</time></trkpt><trkpt lat="44.6315437" lon="10.2387391"><ele>440.0</ele><time>2026-04-26T17:16:33.772Z</time></trkpt><trkpt lat="44.6315348" lon="10.2388752"><ele>440.0</ele><time>2026-04-26T17:16:34.773Z</time></trkpt><trkpt lat="44.6315529" lon="10.2390271"><ele>440.0</ele><time>2026-04-26T17:16:35.772Z</time></trkpt><trkpt lat="44.6315588" lon="10.2391639"><ele>440.0</ele><time>2026-04-26T17:16:36.772Z</time></trkpt><trkpt lat="44.6315105" lon="10.2392614"><ele>440.0</ele><time>2026-04-26T17:16:37.773Z</time></trkpt><trkpt lat="44.6314575" lon="10.2393581"><ele>440.0</ele><time>2026-04-26T17:16:38.773Z</time></trkpt><trkpt lat="44.6313665" lon="10.239447"><ele>440.0</ele><time>2026-04-26T17:16:39.772Z</time></trkpt><trkpt lat="44.6312546" lon="10.2395134"><ele>440.0</ele><time>2026-04-26T17:16:40.773Z</time></trkpt><trkpt lat="44.6311323" lon="10.2395649"><ele>440.0</ele><time>2026-04-26T17:16:41.772Z</time></trkpt><trkpt lat="44.6309903" lon="10.2395979"><ele>440.0</ele><time>2026-04-26T17:16:42.773Z</time></trkpt><trkpt lat="44.6308314" lon="10.239614"><ele>440.0</ele><time>2026-04-26T17:16:43.772Z</time></trkpt><trkpt lat="44.6306695" lon="10.2396293"><ele>440.0</ele><time>2026-04-26T17:16:44.772Z</time></trkpt><trkpt lat="44.6305166" lon="10.2396483"><ele>440.0</ele><time>2026-04-26T17:16:45.773Z</time></trkpt><trkpt lat="44.6303661" lon="10.2396711"><ele>440.0</ele><time>2026-04-26T17:16:46.772Z</time></trkpt><trkpt lat="44.6302237" lon="10.2396959"><ele>440.0</ele><time>2026-04-26T17:16:47.773Z</time></trkpt><trkpt lat="44.6300868" lon="10.2397391"><ele>437.25</ele><time>2026-04-26T17:16:48.772Z</time></trkpt><trkpt lat="44.6299581" lon="10.2398204"><ele>434.5</ele><time>2026-04-26T17:16:49.773Z</time></trkpt><trkpt lat="44.6298406" lon="10.2399554"><ele>431.75</ele><time>2026-04-26T17:16:50.772Z</time></trkpt><trkpt lat="44.6297338" lon="10.2401131"><ele>429.0</ele><time>2026-04-26T17:16:51.772Z</time></trkpt><trkpt lat="44.629623" lon="10.2402852"><ele>429.0</ele><time>2026-04-26T17:16:52.772Z</time></trkpt><trkpt lat="44.6295219" lon="10.240438"><ele>429.0</ele><time>2026-04-26T17:16:53.772Z</time></trkpt><trkpt lat="44.6294199" lon="10.2405526"><ele>429.0</ele><time>2026-04-26T17:16:54.773Z</time></trkpt><trkpt lat="44.629306" lon="10.2406364"><ele>429.0</ele><time>2026-04-26T17:16:55.772Z</time></trkpt><trkpt lat="44.6291659" lon="10.2406823"><ele>427.66666666666663</ele><time>2026-04-26T17:16:56.772Z</time></trkpt><trkpt lat="44.6290063" lon="10.2407013"><ele>426.3333333333333</ele><time>2026-04-26T17:16:57.772Z</time></trkpt><trkpt lat="44.6288519" lon="10.2407536"><ele>425.0</ele><time>2026-04-26T17:16:58.772Z</time></trkpt><trkpt lat="44.6286979" lon="10.2407934"><ele>427.0</ele><time>2026-04-26T17:16:59.772Z</time></trkpt><trkpt lat="44.6285436" lon="10.240966"><ele>429.0</ele><time>2026-04-26T17:17:00.772Z</time></trkpt><trkpt lat="44.6283911" lon="10.2410918"><ele>431.0</ele><time>2026-04-26T17:17:01.772Z</time></trkpt><trkpt lat="44.6282436" lon="10.2413132"><ele>429.3333333333333</ele><time>2026-04-26T17:17:02.772Z</time></trkpt><trkpt lat="44.628108" lon="10.2415421"><ele>427.66666666666663</ele><time>2026-04-26T17:17:03.772Z</time></trkpt><trkpt lat="44.6279974" lon="10.2417685"><ele>426.0</ele><time>2026-04-26T17:17:04.772Z</time></trkpt><trkpt lat="44.627901" lon="10.2419908"><ele>426.0</ele><time>2026-04-26T17:17:05.772Z</time></trkpt><trkpt lat="44.6278162" lon="10.2422312"><ele>426.0</ele><time>2026-04-26T17:17:06.772Z</time></trkpt><trkpt lat="44.6277496" lon="10.2424355"><ele>426.0</ele><time>2026-04-26T17:17:07.772Z</time></trkpt><trkpt lat="44.6276874" lon="10.2425984"><ele>427.5</ele><time>2026-04-26T17:17:08.774Z</time></trkpt><trkpt lat="44.6276129" lon="10.242735"><ele>429.0</ele><time>2026-04-26T17:17:09.773Z</time></trkpt><trkpt lat="44.6275289" lon="10.2428354"><ele>430.5</ele><time>2026-04-26T17:17:10.773Z</time></trkpt><trkpt lat="44.6274357" lon="10.2428768"><ele>432.0</ele><time>2026-04-26T17:17:11.773Z</time></trkpt><trkpt lat="44.6273141" lon="10.2428788"><ele>432.0</ele><time>2026-04-26T17:17:12.772Z</time></trkpt><trkpt lat="44.6271672" lon="10.2428542"><ele>432.0</ele><time>2026-04-26T17:17:13.772Z</time></trkpt><trkpt lat="44.6270059" lon="10.2428225"><ele>432.0</ele><time>2026-04-26T17:17:14.773Z</time></trkpt><trkpt lat="44.6268295" lon="10.2427878"><ele>431.33333333333337</ele><time>2026-04-26T17:17:15.772Z</time></trkpt><trkpt lat="44.6266312" lon="10.2427469"><ele>430.6666666666667</ele><time>2026-04-26T17:17:16.773Z</time></trkpt><trkpt lat="44.6264341" lon="10.2427061"><ele>430.0</ele><time>2026-04-26T17:17:17.773Z</time></trkpt><trkpt lat="44.6262327" lon="10.2426607"><ele>428.6666666666667</ele><time>2026-04-26T17:17:18.772Z</time></trkpt><trkpt lat="44.6260339" lon="10.2426172"><ele>427.33333333333337</ele><time>2026-04-26T17:17:19.772Z</time></trkpt><trkpt lat="44.6258408" lon="10.242586"><ele>426.0</ele><time>2026-04-26T17:17:20.772Z</time></trkpt><trkpt lat="44.6256508" lon="10.2425697"><ele>426.0</ele><time>2026-04-26T17:17:21.772Z</time></trkpt><trkpt lat="44.6254637" lon="10.2425573"><ele>426.0</ele><time>2026-04-26T17:17:22.772Z</time></trkpt><trkpt lat="44.6252717" lon="10.2425525"><ele>426.0</ele><time>2026-04-26T17:17:23.772Z</time></trkpt><trkpt lat="44.6250863" lon="10.2425557"><ele>424.33333333333337</ele><time>2026-04-26T17:17:24.773Z</time></trkpt><trkpt lat="44.6249034" lon="10.2425697"><ele>422.6666666666667</ele><time>2026-04-26T17:17:25.772Z</time></trkpt><trkpt lat="44.6247163" lon="10.2425962"><ele>421.0</ele><time>2026-04-26T17:17:26.773Z</time></trkpt><trkpt lat="44.6245309" lon="10.2426276"><ele>421.33333333333337</ele><time>2026-04-26T17:17:27.773Z</time></trkpt><trkpt lat="44.6243507" lon="10.2426564"><ele>421.66666666666663</ele><time>2026-04-26T17:17:28.772Z</time></trkpt><trkpt lat="44.6241662" lon="10.2426937"><ele>422.0</ele><time>2026-04-26T17:17:29.773Z</time></trkpt><trkpt lat="44.6239817" lon="10.2427351"><ele>422.0</ele><time>2026-04-26T17:17:30.772Z</time></trkpt><trkpt lat="44.6238042" lon="10.2427744"><ele>422.0</ele><time>2026-04-26T17:17:31.773Z</time></trkpt><trkpt lat="44.6236361" lon="10.2428167"><ele>422.0</ele><time>2026-04-26T17:17:32.772Z</time></trkpt><trkpt lat="44.6234798" lon="10.2428616"><ele>422.75</ele><time>2026-04-26T17:17:33.772Z</time></trkpt><trkpt lat="44.623341" lon="10.2429064"><ele>423.5</ele><time>2026-04-26T17:17:34.772Z</time></trkpt><trkpt lat="44.6232186" lon="10.2429573"><ele>424.25</ele><time>2026-04-26T17:17:35.772Z</time></trkpt><trkpt lat="44.6231136" lon="10.2430365"><ele>425.0</ele><time>2026-04-26T17:17:36.772Z</time></trkpt><trkpt lat="44.6230292" lon="10.2431293"><ele>422.4</ele><time>2026-04-26T17:17:37.772Z</time></trkpt><trkpt lat="44.622969" lon="10.2432392"><ele>419.8</ele><time>2026-04-26T17:17:38.772Z</time></trkpt><trkpt lat="44.6229462" lon="10.2433696"><ele>417.20000000000005</ele><time>2026-04-26T17:17:39.772Z</time></trkpt><trkpt lat="44.6229456" lon="10.2435221"><ele>414.6</ele><time>2026-04-26T17:17:40.772Z</time></trkpt><trkpt lat="44.6229651" lon="10.2436837"><ele>412.0</ele><time>2026-04-26T17:17:41.772Z</time></trkpt><trkpt lat="44.6230043" lon="10.2438638"><ele>411.33333333333337</ele><time>2026-04-26T17:17:42.772Z</time></trkpt><trkpt lat="44.6230525" lon="10.2440628"><ele>410.66666666666663</ele><time>2026-04-26T17:17:43.772Z</time></trkpt><trkpt lat="44.6231057" lon="10.2442724"><ele>410.0</ele><time>2026-04-26T17:17:44.772Z</time></trkpt><trkpt lat="44.6231609" lon="10.2444958"><ele>410.0</ele><time>2026-04-26T17:17:45.773Z</time></trkpt><trkpt lat="44.6232109" lon="10.2447063"><ele>410.0</ele><time>2026-04-26T17:17:46.772Z</time></trkpt><trkpt lat="44.6232474" lon="10.2449028"><ele>410.0</ele><time>2026-04-26T17:17:47.773Z</time></trkpt><trkpt lat="44.6232603" lon="10.2450947"><ele>410.0</ele><time>2026-04-26T17:17:48.772Z</time></trkpt><trkpt lat="44.6232426" lon="10.2452818"><ele>408.66666666666663</ele><time>2026-04-26T17:17:49.773Z</time></trkpt><trkpt lat="44.6231976" lon="10.2454733"><ele>407.33333333333337</ele><time>2026-04-26T17:17:50.772Z</time></trkpt><trkpt lat="44.6231606" lon="10.2457011"><ele>406.0</ele><time>2026-04-26T17:17:51.772Z</time></trkpt><trkpt lat="44.6231405" lon="10.2459507"><ele>404.6666666666667</ele><time>2026-04-26T17:17:52.773Z</time></trkpt><trkpt lat="44.6231283" lon="10.2462171"><ele>403.33333333333337</ele><time>2026-04-26T17:17:53.773Z</time></trkpt><trkpt lat="44.6231131" lon="10.2464876"><ele>402.0</ele><time>2026-04-26T17:17:54.772Z</time></trkpt><trkpt lat="44.6230927" lon="10.2467664"><ele>400.33333333333337</ele><time>2026-04-26T17:17:55.773Z</time></trkpt><trkpt lat="44.6230708" lon="10.2470441"><ele>398.6666666666667</ele><time>2026-04-26T17:17:56.773Z</time></trkpt><trkpt lat="44.6230436" lon="10.2473151"><ele>397.0</ele><time>2026-04-26T17:17:57.772Z</time></trkpt><trkpt lat="44.6230136" lon="10.2475871"><ele>395.6666666666667</ele><time>2026-04-26T17:17:58.772Z</time></trkpt><trkpt lat="44.6229808" lon="10.2478653"><ele>394.33333333333337</ele><time>2026-04-26T17:17:59.773Z</time></trkpt><trkpt lat="44.6229564" lon="10.2481451"><ele>393.0</ele><time>2026-04-26T17:18:00.773Z</time></trkpt><trkpt lat="44.6229433" lon="10.2484274"><ele>391.0</ele><time>2026-04-26T17:18:01.772Z</time></trkpt><trkpt lat="44.6229473" lon="10.2487165"><ele>389.0</ele><time>2026-04-26T17:18:02.773Z</time></trkpt><trkpt lat="44.6229625" lon="10.2490146"><ele>387.0</ele><time>2026-04-26T17:18:03.772Z</time></trkpt><trkpt lat="44.6229777" lon="10.249318"><ele>386.66666666666663</ele><time>2026-04-26T17:18:04.772Z</time></trkpt><trkpt lat="44.6229922" lon="10.2496251"><ele>386.3333333333333</ele><time>2026-04-26T17:18:05.772Z</time></trkpt><trkpt lat="44.6230021" lon="10.2499239"><ele>386.0</ele><time>2026-04-26T17:18:06.772Z</time></trkpt><trkpt lat="44.6230071" lon="10.250227"><ele>385.0</ele><time>2026-04-26T17:18:07.773Z</time></trkpt><trkpt lat="44.6230072" lon="10.2505263"><ele>384.0</ele><time>2026-04-26T17:18:08.772Z</time></trkpt><trkpt lat="44.6230101" lon="10.2508216"><ele>383.0</ele><time>2026-04-26T17:18:09.773Z</time></trkpt><trkpt lat="44.6230121" lon="10.251111"><ele>383.0</ele><time>2026-04-26T17:18:10.772Z</time></trkpt><trkpt lat="44.6230137" lon="10.2513947"><ele>383.0</ele><time>2026-04-26T17:18:11.773Z</time></trkpt><trkpt lat="44.6230171" lon="10.2516717"><ele>383.0</ele><time>2026-04-26T17:18:12.772Z</time></trkpt><trkpt lat="44.6230165" lon="10.2519413"><ele>383.6666666666667</ele><time>2026-04-26T17:18:13.772Z</time></trkpt><trkpt lat="44.6230186" lon="10.2522036"><ele>384.33333333333337</ele><time>2026-04-26T17:18:14.773Z</time></trkpt><trkpt lat="44.6230196" lon="10.2524601"><ele>385.0</ele><time>2026-04-26T17:18:15.772Z</time></trkpt><trkpt lat="44.6230193" lon="10.2527001"><ele>385.75</ele><time>2026-04-26T17:18:16.773Z</time></trkpt><trkpt lat="44.623017" lon="10.252927"><ele>386.5</ele><time>2026-04-26T17:18:17.772Z</time></trkpt><trkpt lat="44.6230051" lon="10.253135"><ele>387.25</ele><time>2026-04-26T17:18:18.773Z</time></trkpt><trkpt lat="44.6229656" lon="10.2533189"><ele>388.0</ele><time>2026-04-26T17:18:19.772Z</time></trkpt><trkpt lat="44.622903" lon="10.2534809"><ele>386.75</ele><time>2026-04-26T17:18:20.772Z</time></trkpt><trkpt lat="44.6228094" lon="10.2536219"><ele>385.5</ele><time>2026-04-26T17:18:21.772Z</time></trkpt><trkpt lat="44.6227203" lon="10.2537783"><ele>384.25</ele><time>2026-04-26T17:18:22.772Z</time></trkpt><trkpt lat="44.6226526" lon="10.2539689"><ele>383.0</ele><time>2026-04-26T17:18:23.772Z</time></trkpt><trkpt lat="44.6226092" lon="10.2541861"><ele>383.0</ele><time>2026-04-26T17:18:24.773Z</time></trkpt><trkpt lat="44.6225759" lon="10.2544312"><ele>383.0</ele><time>2026-04-26T17:18:25.773Z</time></trkpt><trkpt lat="44.622545" lon="10.2546745"><ele>383.0</ele><time>2026-04-26T17:18:26.772Z</time></trkpt><trkpt lat="44.6225068" lon="10.2548952"><ele>382.25</ele><time>2026-04-26T17:18:27.773Z</time></trkpt><trkpt lat="44.6224565" lon="10.2550946"><ele>381.5</ele><time>2026-04-26T17:18:28.773Z</time></trkpt><trkpt lat="44.6223947" lon="10.2552551"><ele>380.75</ele><time>2026-04-26T17:18:29.772Z</time></trkpt><trkpt lat="44.6223235" lon="10.2553787"><ele>380.0</ele><time>2026-04-26T17:18:30.773Z</time></trkpt><trkpt lat="44.622236" lon="10.2554576"><ele>380.0</ele><time>2026-04-26T17:18:31.772Z</time></trkpt><trkpt lat="44.6221147" lon="10.2554987"><ele>380.0</ele><time>2026-04-26T17:18:32.772Z</time></trkpt><trkpt lat="44.6219719" lon="10.2555077"><ele>380.0</ele><time>2026-04-26T17:18:33.772Z</time></trkpt><trkpt lat="44.6218042" lon="10.2555082"><ele>380.0</ele><time>2026-04-26T17:18:34.773Z</time></trkpt><trkpt lat="44.6216366" lon="10.2555086"><ele>375.0</ele><time>2026-04-26T17:18:35.772Z</time></trkpt><trkpt lat="44.6214643" lon="10.2555092"><ele>370.0</ele><time>2026-04-26T17:18:36.772Z</time></trkpt><trkpt lat="44.6212972" lon="10.2555464"><ele>365.0</ele><time>2026-04-26T17:18:37.773Z</time></trkpt><trkpt lat="44.6211453" lon="10.2555998"><ele>367.0</ele><time>2026-04-26T17:18:38.772Z</time></trkpt><trkpt lat="44.6210173" lon="10.2556818"><ele>369.0</ele><time>2026-04-26T17:18:39.773Z</time></trkpt><trkpt lat="44.6208733" lon="10.2557478"><ele>371.0</ele><time>2026-04-26T17:18:40.772Z</time></trkpt><trkpt lat="44.6207477" lon="10.2559676"><ele>371.0</ele><time>2026-04-26T17:18:41.772Z</time></trkpt><trkpt lat="44.6206239" lon="10.2561042"><ele>371.0</ele><time>2026-04-26T17:18:42.772Z</time></trkpt><trkpt lat="44.6205027" lon="10.2562264"><ele>371.0</ele><time>2026-04-26T17:18:43.773Z</time></trkpt><trkpt lat="44.6203798" lon="10.2563604"><ele>366.75</ele><time>2026-04-26T17:18:44.772Z</time></trkpt><trkpt lat="44.6203046" lon="10.2564934"><ele>362.5</ele><time>2026-04-26T17:18:45.772Z</time></trkpt><trkpt lat="44.6202085" lon="10.2566286"><ele>358.25</ele><time>2026-04-26T17:18:46.773Z</time></trkpt><trkpt lat="44.6201283" lon="10.2567821"><ele>354.0</ele><time>2026-04-26T17:18:47.772Z</time></trkpt><trkpt lat="44.6200725" lon="10.2569675"><ele>354.0</ele><time>2026-04-26T17:18:48.772Z</time></trkpt><trkpt lat="44.6200519" lon="10.2571812"><ele>354.0</ele><time>2026-04-26T17:18:49.773Z</time></trkpt><trkpt lat="44.6200239" lon="10.2573808"><ele>354.0</ele><time>2026-04-26T17:18:50.773Z</time></trkpt><trkpt lat="44.6199985" lon="10.257583"><ele>354.0</ele><time>2026-04-26T17:18:51.772Z</time></trkpt><trkpt lat="44.6199805" lon="10.2577662"><ele>353.6</ele><time>2026-04-26T17:18:52.773Z</time></trkpt><trkpt lat="44.6200133" lon="10.2578788"><ele>353.2</ele><time>2026-04-26T17:18:53.772Z</time></trkpt><trkpt lat="44.6200569" lon="10.2579983"><ele>352.8</ele><time>2026-04-26T17:18:54.772Z</time></trkpt><trkpt lat="44.620144" lon="10.2581148"><ele>352.40000000000003</ele><time>2026-04-26T17:18:55.773Z</time></trkpt><trkpt lat="44.620238" lon="10.2581968"><ele>352.0</ele><time>2026-04-26T17:18:56.773Z</time></trkpt><trkpt lat="44.6203334" lon="10.2582755"><ele>351.0</ele><time>2026-04-26T17:18:57.772Z</time></trkpt><trkpt lat="44.6203971" lon="10.2583656"><ele>350.0</ele><time>2026-04-26T17:18:58.773Z</time></trkpt><trkpt lat="44.6204346" lon="10.2584693"><ele>349.0</ele><time>2026-04-26T17:18:59.772Z</time></trkpt><trkpt lat="44.6204358" lon="10.2585838"><ele>348.0</ele><time>2026-04-26T17:19:00.772Z</time></trkpt><trkpt lat="44.6204019" lon="10.258689"><ele>347.0</ele><time>2026-04-26T17:19:01.772Z</time></trkpt><trkpt lat="44.6203293" lon="10.2587961"><ele>346.0</ele><time>2026-04-26T17:19:02.773Z</time></trkpt><trkpt lat="44.6202327" lon="10.258905"><ele>343.25</ele><time>2026-04-26T17:19:03.772Z</time></trkpt><trkpt lat="44.6201326" lon="10.2590136"><ele>340.5</ele><time>2026-04-26T17:19:04.772Z</time></trkpt><trkpt lat="44.6200273" lon="10.2591289"><ele>337.75</ele><time>2026-04-26T17:19:05.772Z</time></trkpt><trkpt lat="44.619921" lon="10.2592389"><ele>335.0</ele><time>2026-04-26T17:19:06.772Z</time></trkpt><trkpt lat="44.6198283" lon="10.2593362"><ele>335.0</ele><time>2026-04-26T17:19:07.773Z</time></trkpt><trkpt lat="44.6197572" lon="10.259433"><ele>335.0</ele><time>2026-04-26T17:19:08.773Z</time></trkpt><trkpt lat="44.6197119" lon="10.2595601"><ele>335.0</ele><time>2026-04-26T17:19:09.772Z</time></trkpt><trkpt lat="44.6196679" lon="10.2596937"><ele>335.0</ele><time>2026-04-26T17:19:10.772Z</time></trkpt><trkpt lat="44.6196283" lon="10.259818"><ele>335.0</ele><time>2026-04-26T17:19:11.772Z</time></trkpt><trkpt lat="44.6195792" lon="10.2599257"><ele>333.6</ele><time>2026-04-26T17:19:12.772Z</time></trkpt><trkpt lat="44.6195326" lon="10.2600244"><ele>332.2</ele><time>2026-04-26T17:19:13.772Z</time></trkpt><trkpt lat="44.6194307" lon="10.260035"><ele>330.79999999999995</ele><time>2026-04-26T17:19:14.772Z</time></trkpt><trkpt lat="44.6193246" lon="10.2600004"><ele>329.4</ele><time>2026-04-26T17:19:15.773Z</time></trkpt><trkpt lat="44.6192261" lon="10.2600447"><ele>328.0</ele><time>2026-04-26T17:19:16.772Z</time></trkpt><trkpt lat="44.6191178" lon="10.2601163"><ele>327.75</ele><time>2026-04-26T17:19:17.773Z</time></trkpt><trkpt lat="44.6190051" lon="10.2602227"><ele>327.5</ele><time>2026-04-26T17:19:18.773Z</time></trkpt><trkpt lat="44.6188907" lon="10.260355"><ele>327.25</ele><time>2026-04-26T17:19:19.772Z</time></trkpt><trkpt lat="44.6187725" lon="10.260496"><ele>327.0</ele><time>2026-04-26T17:19:20.772Z</time></trkpt><trkpt lat="44.6186535" lon="10.2606475"><ele>323.6666666666667</ele><time>2026-04-26T17:19:21.772Z</time></trkpt><trkpt lat="44.61853" lon="10.2608091"><ele>320.33333333333337</ele><time>2026-04-26T17:19:22.772Z</time></trkpt><trkpt lat="44.6183987" lon="10.2609852"><ele>317.0</ele><time>2026-04-26T17:19:23.772Z</time></trkpt><trkpt lat="44.6182635" lon="10.2611634"><ele>317.0</ele><time>2026-04-26T17:19:24.773Z</time></trkpt><trkpt lat="44.6181205" lon="10.2613509"><ele>317.0</ele><time>2026-04-26T17:19:25.772Z</time></trkpt><trkpt lat="44.6179761" lon="10.261532"><ele>317.0</ele><time>2026-04-26T17:19:26.772Z</time></trkpt><trkpt lat="44.6178361" lon="10.2616976"><ele>314.33333333333337</ele><time>2026-04-26T17:19:27.772Z</time></trkpt><trkpt lat="44.6177061" lon="10.2618523"><ele>311.6666666666667</ele><time>2026-04-26T17:19:28.772Z</time></trkpt><trkpt lat="44.6175922" lon="10.262009"><ele>309.0</ele><time>2026-04-26T17:19:29.772Z</time></trkpt><trkpt lat="44.6174998" lon="10.2621706"><ele>308.5</ele><time>2026-04-26T17:19:30.773Z</time></trkpt><trkpt lat="44.6174339" lon="10.2623326"><ele>308.0</ele><time>2026-04-26T17:19:31.772Z</time></trkpt><trkpt lat="44.6173964" lon="10.2624901"><ele>307.5</ele><time>2026-04-26T17:19:32.773Z</time></trkpt><trkpt lat="44.617394" lon="10.2626552"><ele>307.0</ele><time>2026-04-26T17:19:33.772Z</time></trkpt><trkpt lat="44.6174134" lon="10.2628336"><ele>307.0</ele><time>2026-04-26T17:19:34.772Z</time></trkpt><trkpt lat="44.617486" lon="10.2630236"><ele>307.0</ele><time>2026-04-26T17:19:35.772Z</time></trkpt><trkpt lat="44.6175682" lon="10.2632248"><ele>307.0</ele><time>2026-04-26T17:19:36.772Z</time></trkpt><trkpt lat="44.6176717" lon="10.2634216"><ele>305.66666666666663</ele><time>2026-04-26T17:19:37.772Z</time></trkpt><trkpt lat="44.6177982" lon="10.2636072"><ele>304.3333333333333</ele><time>2026-04-26T17:19:38.773Z</time></trkpt><trkpt lat="44.6179376" lon="10.2637834"><ele>303.0</ele><time>2026-04-26T17:19:39.772Z</time></trkpt><trkpt lat="44.61807" lon="10.2639568"><ele>301.8</ele><time>2026-04-26T17:19:40.773Z</time></trkpt><trkpt lat="44.6181618" lon="10.2641064"><ele>300.6</ele><time>2026-04-26T17:19:41.772Z</time></trkpt><trkpt lat="44.6182255" lon="10.2642369"><ele>299.4</ele><time>2026-04-26T17:19:42.772Z</time></trkpt><trkpt lat="44.6182678" lon="10.2643675"><ele>298.2</ele><time>2026-04-26T17:19:43.772Z</time></trkpt><trkpt lat="44.6182685" lon="10.264496"><ele>297.0</ele><time>2026-04-26T17:19:44.772Z</time></trkpt><trkpt lat="44.6182289" lon="10.2645988"><ele>297.0</ele><time>2026-04-26T17:19:45.773Z</time></trkpt><trkpt lat="44.6181557" lon="10.2646709"><ele>297.0</ele><time>2026-04-26T17:19:46.772Z</time></trkpt><trkpt lat="44.6180413" lon="10.2647316"><ele>297.0</ele><time>2026-04-26T17:19:47.773Z</time></trkpt><trkpt lat="44.6179248" lon="10.2647818"><ele>297.0</ele><time>2026-04-26T17:19:48.773Z</time></trkpt><trkpt lat="44.6178041" lon="10.264824"><ele>294.5</ele><time>2026-04-26T17:19:49.772Z</time></trkpt><trkpt lat="44.6176875" lon="10.2648673"><ele>292.0</ele><time>2026-04-26T17:19:50.772Z</time></trkpt><trkpt lat="44.6175706" lon="10.2649056"><ele>289.5</ele><time>2026-04-26T17:19:51.773Z</time></trkpt><trkpt lat="44.6174538" lon="10.264918"><ele>287.0</ele><time>2026-04-26T17:19:52.772Z</time></trkpt><trkpt lat="44.6173422" lon="10.2648943"><ele>287.0</ele><time>2026-04-26T17:19:53.772Z</time></trkpt><trkpt lat="44.6172384" lon="10.2648328"><ele>287.0</ele><time>2026-04-26T17:19:54.773Z</time></trkpt><trkpt lat="44.6171432" lon="10.2647568"><ele>287.0</ele><time>2026-04-26T17:19:55.772Z</time></trkpt><trkpt lat="44.617055" lon="10.2646642"><ele>287.0</ele><time>2026-04-26T17:19:56.772Z</time></trkpt><trkpt lat="44.6169741" lon="10.2645755"><ele>287.0</ele><time>2026-04-26T17:19:57.772Z</time></trkpt><trkpt lat="44.6168995" lon="10.2644977"><ele>288.4</ele><time>2026-04-26T17:19:58.772Z</time></trkpt><trkpt lat="44.6168274" lon="10.2644252"><ele>289.79999999999995</ele><time>2026-04-26T17:19:59.772Z</time></trkpt><trkpt lat="44.6167533" lon="10.2643507"><ele>291.2</ele><time>2026-04-26T17:20:00.773Z</time></trkpt><trkpt lat="44.6166643" lon="10.2642646"><ele>292.59999999999997</ele><time>2026-04-26T17:20:01.772Z</time></trkpt><trkpt lat="44.616571" lon="10.2641843"><ele>294.0</ele><time>2026-04-26T17:20:02.772Z</time></trkpt><trkpt lat="44.6164895" lon="10.2641176"><ele>294.0</ele><time>2026-04-26T17:20:03.772Z</time></trkpt><trkpt lat="44.6164135" lon="10.2640636"><ele>294.0</ele><time>2026-04-26T17:20:04.773Z</time></trkpt><trkpt lat="44.6163434" lon="10.2640116"><ele>294.0</ele><time>2026-04-26T17:20:05.773Z</time></trkpt><trkpt lat="44.6162731" lon="10.2639633"><ele>294.0</ele><time>2026-04-26T17:20:06.773Z</time></trkpt><trkpt lat="44.616204" lon="10.2639144"><ele>294.0</ele><time>2026-04-26T17:20:07.772Z</time></trkpt><trkpt lat="44.616136" lon="10.2638661"><ele>294.0</ele><time>2026-04-26T17:20:08.772Z</time></trkpt><trkpt lat="44.6160706" lon="10.2638225"><ele>293.0</ele><time>2026-04-26T17:20:09.772Z</time></trkpt><trkpt lat="44.616008" lon="10.2637814"><ele>292.0</ele><time>2026-04-26T17:20:10.773Z</time></trkpt><trkpt lat="44.6159411" lon="10.2637339"><ele>291.0</ele><time>2026-04-26T17:20:11.772Z</time></trkpt><trkpt lat="44.6158603" lon="10.263682"><ele>290.0</ele><time>2026-04-26T17:20:12.773Z</time></trkpt><trkpt lat="44.6157634" lon="10.2636251"><ele>289.0</ele><time>2026-04-26T17:20:13.772Z</time></trkpt><trkpt lat="44.6156551" lon="10.2635518"><ele>289.0</ele><time>2026-04-26T17:20:14.772Z</time></trkpt><trkpt lat="44.6155458" lon="10.2634761"><ele>289.0</ele><time>2026-04-26T17:20:15.772Z</time></trkpt><trkpt lat="44.6154336" lon="10.2634108"><ele>289.0</ele><time>2026-04-26T17:20:16.772Z</time></trkpt><trkpt lat="44.615333" lon="10.263343"><ele>289.0</ele><time>2026-04-26T17:20:17.772Z</time></trkpt><trkpt lat="44.6152355" lon="10.263284"><ele>286.59999999999997</ele><time>2026-04-26T17:20:18.772Z</time></trkpt><trkpt lat="44.6151508" lon="10.2632351"><ele>284.2</ele><time>2026-04-26T17:20:19.772Z</time></trkpt><trkpt lat="44.6150745" lon="10.263203"><ele>281.79999999999995</ele><time>2026-04-26T17:20:20.772Z</time></trkpt><trkpt lat="44.6149664" lon="10.2632432"><ele>279.4</ele><time>2026-04-26T17:20:22.773Z</time></trkpt><trkpt lat="44.6149121" lon="10.2633901"><ele>277.0</ele><time>2026-04-26T17:20:24.772Z</time></trkpt><trkpt lat="44.6148988" lon="10.2634818"><ele>277.0</ele><time>2026-04-26T17:20:25.773Z</time></trkpt><trkpt lat="44.6148823" lon="10.2635777"><ele>277.0</ele><time>2026-04-26T17:20:26.772Z</time></trkpt><trkpt lat="44.6148721" lon="10.2636699"><ele>277.0</ele><time>2026-04-26T17:20:27.772Z</time></trkpt><trkpt lat="44.6148838" lon="10.2637858"><ele>277.0</ele><time>2026-04-26T17:20:30.772Z</time></trkpt><trkpt lat="44.6148993" lon="10.2638718"><ele>277.0</ele><time>2026-04-26T17:20:33.772Z</time></trkpt><trkpt lat="44.6149542" lon="10.2640018"><ele>277.0</ele><time>2026-04-26T17:20:36.772Z</time></trkpt><trkpt lat="44.6149971" lon="10.2640883"><ele>276.5</ele><time>2026-04-26T17:20:37.773Z</time></trkpt><trkpt lat="44.6150376" lon="10.2641898"><ele>276.0</ele><time>2026-04-26T17:20:38.772Z</time></trkpt><trkpt lat="44.6150719" lon="10.2642919"><ele>275.5</ele><time>2026-04-26T17:20:39.773Z</time></trkpt><trkpt lat="44.6150985" lon="10.2643767"><ele>275.0</ele><time>2026-04-26T17:20:40.772Z</time></trkpt><trkpt lat="44.6150892" lon="10.2645291"><ele>274.5</ele><time>2026-04-26T17:20:42.772Z</time></trkpt><trkpt lat="44.6150653" lon="10.2646175"><ele>274.0</ele><time>2026-04-26T17:20:44.773Z</time></trkpt><trkpt lat="44.6150701" lon="10.2647126"><ele>274.0</ele><time>2026-04-26T17:20:46.772Z</time></trkpt><trkpt lat="44.6151465" lon="10.2647509"><ele>274.0</ele><time>2026-04-26T17:20:48.773Z</time></trkpt><trkpt lat="44.6152519" lon="10.2647093"><ele>274.0</ele><time>2026-04-26T17:20:50.772Z</time></trkpt><trkpt lat="44.6153207" lon="10.2646731"><ele>274.0</ele><time>2026-04-26T17:20:51.772Z</time></trkpt><trkpt lat="44.615401" lon="10.2646419"><ele>274.0</ele><time>2026-04-26T17:20:52.772Z</time></trkpt><trkpt lat="44.6154838" lon="10.2646163"><ele>274.0</ele><time>2026-04-26T17:20:53.772Z</time></trkpt><trkpt lat="44.6155726" lon="10.2645913"><ele>275.5</ele><time>2026-04-26T17:20:54.772Z</time></trkpt><trkpt lat="44.6156817" lon="10.2645724"><ele>277.0</ele><time>2026-04-26T17:20:55.773Z</time></trkpt><trkpt lat="44.6158072" lon="10.2645668"><ele>278.5</ele><time>2026-04-26T17:20:56.773Z</time></trkpt><trkpt lat="44.615942" lon="10.2645912"><ele>280.0</ele><time>2026-04-26T17:20:57.772Z</time></trkpt><trkpt lat="44.6160845" lon="10.2646426"><ele>279.5</ele><time>2026-04-26T17:20:58.772Z</time></trkpt><trkpt lat="44.6162359" lon="10.2647029"><ele>279.0</ele><time>2026-04-26T17:20:59.772Z</time></trkpt><trkpt lat="44.6163849" lon="10.2647567"><ele>278.5</ele><time>2026-04-26T17:21:00.773Z</time></trkpt><trkpt lat="44.6165189" lon="10.2648043"><ele>278.0</ele><time>2026-04-26T17:21:01.772Z</time></trkpt><trkpt lat="44.6166362" lon="10.2648409"><ele>278.0</ele><time>2026-04-26T17:21:02.772Z</time></trkpt><trkpt lat="44.6167297" lon="10.2648687"><ele>278.0</ele><time>2026-04-26T17:21:03.772Z</time></trkpt><trkpt lat="44.6168094" lon="10.2649"><ele>278.0</ele><time>2026-04-26T17:21:04.772Z</time></trkpt><trkpt lat="44.6168931" lon="10.2649631"><ele>278.0</ele><time>2026-04-26T17:21:05.773Z</time></trkpt><trkpt lat="44.6169867" lon="10.2650601"><ele>278.0</ele><time>2026-04-26T17:21:06.772Z</time></trkpt><trkpt lat="44.6170887" lon="10.2651927"><ele>278.33333333333337</ele><time>2026-04-26T17:21:07.772Z</time></trkpt><trkpt lat="44.6171911" lon="10.2653415"><ele>278.6666666666667</ele><time>2026-04-26T17:21:08.772Z</time></trkpt><trkpt lat="44.6173034" lon="10.2655106"><ele>279.0</ele><time>2026-04-26T17:21:09.773Z</time></trkpt><trkpt lat="44.6174177" lon="10.265687"><ele>279.0</ele><time>2026-04-26T17:21:10.772Z</time></trkpt><trkpt lat="44.6175373" lon="10.2658749"><ele>279.0</ele><time>2026-04-26T17:21:11.772Z</time></trkpt><trkpt lat="44.6176589" lon="10.2660717"><ele>279.0</ele><time>2026-04-26T17:21:12.772Z</time></trkpt><trkpt lat="44.6177898" lon="10.2662799"><ele>277.6666666666667</ele><time>2026-04-26T17:21:13.773Z</time></trkpt><trkpt lat="44.617923" lon="10.2664926"><ele>276.33333333333337</ele><time>2026-04-26T17:21:14.772Z</time></trkpt><trkpt lat="44.6180585" lon="10.2667124"><ele>275.0</ele><time>2026-04-26T17:21:15.772Z</time></trkpt><trkpt lat="44.6182022" lon="10.2669334"><ele>275.0</ele><time>2026-04-26T17:21:16.772Z</time></trkpt><trkpt lat="44.6183437" lon="10.2671584"><ele>275.0</ele><time>2026-04-26T17:21:17.773Z</time></trkpt><trkpt lat="44.6184796" lon="10.2673803"><ele>275.0</ele><time>2026-04-26T17:21:18.772Z</time></trkpt><trkpt lat="44.6186142" lon="10.2675965"><ele>273.33333333333337</ele><time>2026-04-26T17:21:19.772Z</time></trkpt><trkpt lat="44.6187417" lon="10.2678012"><ele>271.6666666666667</ele><time>2026-04-26T17:21:20.772Z</time></trkpt><trkpt lat="44.6188612" lon="10.2679943"><ele>270.0</ele><time>2026-04-26T17:21:21.772Z</time></trkpt><trkpt lat="44.6189948" lon="10.2681765"><ele>269.3333333333333</ele><time>2026-04-26T17:21:22.773Z</time></trkpt><trkpt lat="44.619148" lon="10.2683674"><ele>268.66666666666663</ele><time>2026-04-26T17:21:23.772Z</time></trkpt><trkpt lat="44.6193166" lon="10.2685551"><ele>268.0</ele><time>2026-04-26T17:21:24.774Z</time></trkpt><trkpt lat="44.6194869" lon="10.2687231"><ele>266.66666666666663</ele><time>2026-04-26T17:21:25.772Z</time></trkpt><trkpt lat="44.6196626" lon="10.268866"><ele>265.3333333333333</ele><time>2026-04-26T17:21:26.772Z</time></trkpt><trkpt lat="44.6198379" lon="10.2689851"><ele>264.0</ele><time>2026-04-26T17:21:27.772Z</time></trkpt><trkpt lat="44.6200145" lon="10.2690876"><ele>262.6666666666667</ele><time>2026-04-26T17:21:28.772Z</time></trkpt><trkpt lat="44.6201877" lon="10.2691691"><ele>261.33333333333337</ele><time>2026-04-26T17:21:29.772Z</time></trkpt><trkpt lat="44.6203544" lon="10.2692464"><ele>260.0</ele><time>2026-04-26T17:21:30.772Z</time></trkpt><trkpt lat="44.6205189" lon="10.2693189"><ele>259.33333333333337</ele><time>2026-04-26T17:21:31.772Z</time></trkpt><trkpt lat="44.6206815" lon="10.2693935"><ele>258.6666666666667</ele><time>2026-04-26T17:21:32.773Z</time></trkpt><trkpt lat="44.6208381" lon="10.2694584"><ele>258.0</ele><time>2026-04-26T17:21:33.773Z</time></trkpt><trkpt lat="44.6209885" lon="10.2695208"><ele>258.0</ele><time>2026-04-26T17:21:34.772Z</time></trkpt><trkpt lat="44.621125" lon="10.2695782"><ele>258.0</ele><time>2026-04-26T17:21:35.772Z</time></trkpt><trkpt lat="44.6212592" lon="10.2696338"><ele>258.0</ele><time>2026-04-26T17:21:36.772Z</time></trkpt><trkpt lat="44.6213823" lon="10.2696888"><ele>258.0</ele><time>2026-04-26T17:21:37.772Z</time></trkpt><trkpt lat="44.6215054" lon="10.2697426"><ele>255.5</ele><time>2026-04-26T17:21:38.772Z</time></trkpt><trkpt lat="44.6216232" lon="10.2697942"><ele>253.0</ele><time>2026-04-26T17:21:39.773Z</time></trkpt><trkpt lat="44.6217385" lon="10.2698464"><ele>250.5</ele><time>2026-04-26T17:21:40.772Z</time></trkpt><trkpt lat="44.6218461" lon="10.2698957"><ele>248.0</ele><time>2026-04-26T17:21:41.772Z</time></trkpt><trkpt lat="44.6219475" lon="10.2699391"><ele>248.0</ele><time>2026-04-26T17:21:42.772Z</time></trkpt><trkpt lat="44.6220473" lon="10.2699846"><ele>248.0</ele><time>2026-04-26T17:21:43.773Z</time></trkpt><trkpt lat="44.6221443" lon="10.2700247"><ele>248.0</ele><time>2026-04-26T17:21:44.772Z</time></trkpt><trkpt lat="44.622237" lon="10.2700609"><ele>248.0</ele><time>2026-04-26T17:21:45.773Z</time></trkpt><trkpt lat="44.6223267" lon="10.2700976"><ele>248.0</ele><time>2026-04-26T17:21:46.772Z</time></trkpt><trkpt lat="44.6224081" lon="10.270134"><ele>248.00000000000003</ele><time>2026-04-26T17:21:47.773Z</time></trkpt><trkpt lat="44.6224876" lon="10.2701635"><ele>248.0</ele><time>2026-04-26T17:21:48.772Z</time></trkpt><trkpt lat="44.6225557" lon="10.2701856"><ele>248.0</ele><time>2026-04-26T17:21:49.772Z</time></trkpt><trkpt lat="44.6226184" lon="10.2701947"><ele>248.0</ele><time>2026-04-26T17:21:50.774Z</time></trkpt><trkpt lat="44.6227234" lon="10.2702156"><ele>248.00000000000003</ele><time>2026-04-26T17:21:52.773Z</time></trkpt><trkpt lat="44.6228064" lon="10.2702428"><ele>248.0</ele><time>2026-04-26T17:21:54.772Z</time></trkpt><trkpt lat="44.6228639" lon="10.2702822"><ele>247.83333333333334</ele><time>2026-04-26T17:21:57.772Z</time></trkpt><trkpt lat="44.6229198" lon="10.2703331"><ele>247.66666666666669</ele><time>2026-04-26T17:22:01.773Z</time></trkpt><trkpt lat="44.6229733" lon="10.2704249"><ele>247.5</ele><time>2026-04-26T17:22:07.772Z</time></trkpt><trkpt lat="44.6230553" lon="10.2705373"><ele>247.33333333333331</ele><time>2026-04-26T17:22:09.772Z</time></trkpt><trkpt lat="44.6231328" lon="10.2705731"><ele>247.16666666666666</ele><time>2026-04-26T17:22:10.773Z</time></trkpt><trkpt lat="44.6232265" lon="10.2706028"><ele>247.0</ele><time>2026-04-26T17:22:11.772Z</time></trkpt><trkpt lat="44.6233274" lon="10.2706314"><ele>246.0</ele><time>2026-04-26T17:22:12.772Z</time></trkpt><trkpt lat="44.6234386" lon="10.2706654"><ele>245.0</ele><time>2026-04-26T17:22:13.773Z</time></trkpt><trkpt lat="44.6235566" lon="10.2706935"><ele>244.0</ele><time>2026-04-26T17:22:14.772Z</time></trkpt><trkpt lat="44.6236861" lon="10.2707289"><ele>243.0</ele><time>2026-04-26T17:22:15.772Z</time></trkpt><trkpt lat="44.6238242" lon="10.2707721"><ele>242.75</ele><time>2026-04-26T17:22:16.772Z</time></trkpt><trkpt lat="44.6239656" lon="10.2708203"><ele>242.5</ele><time>2026-04-26T17:22:17.773Z</time></trkpt><trkpt lat="44.624105" lon="10.2708727"><ele>242.25</ele><time>2026-04-26T17:22:18.772Z</time></trkpt><trkpt lat="44.6242401" lon="10.2709273"><ele>242.0</ele><time>2026-04-26T17:22:19.772Z</time></trkpt><trkpt lat="44.6243767" lon="10.2709866"><ele>242.0</ele><time>2026-04-26T17:22:20.772Z</time></trkpt><trkpt lat="44.6245154" lon="10.2710512"><ele>242.0</ele><time>2026-04-26T17:22:21.773Z</time></trkpt><trkpt lat="44.6246523" lon="10.2711142"><ele>242.0</ele><time>2026-04-26T17:22:22.773Z</time></trkpt><trkpt lat="44.6247881" lon="10.2711683"><ele>242.0</ele><time>2026-04-26T17:22:23.772Z</time></trkpt><trkpt lat="44.6249184" lon="10.2712254"><ele>242.0</ele><time>2026-04-26T17:22:24.772Z</time></trkpt><trkpt lat="44.6250419" lon="10.2712799"><ele>242.0</ele><time>2026-04-26T17:22:25.772Z</time></trkpt><trkpt lat="44.6251439" lon="10.2713266"><ele>242.0</ele><time>2026-04-26T17:22:26.773Z</time></trkpt><trkpt lat="44.6252434" lon="10.2713723"><ele>242.0</ele><time>2026-04-26T17:22:27.772Z</time></trkpt><trkpt lat="44.6253289" lon="10.2714208"><ele>242.0</ele><time>2026-04-26T17:22:28.772Z</time></trkpt><trkpt lat="44.6254052" lon="10.2714626"><ele>242.00000000000003</ele><time>2026-04-26T17:22:29.772Z</time></trkpt><trkpt lat="44.6254847" lon="10.2714991"><ele>242.0</ele><time>2026-04-26T17:22:30.772Z</time></trkpt><trkpt lat="44.6255496" lon="10.2715291"><ele>242.0</ele><time>2026-04-26T17:22:31.772Z</time></trkpt><trkpt lat="44.6256164" lon="10.2715548"><ele>242.0</ele><time>2026-04-26T17:22:32.773Z</time></trkpt><trkpt lat="44.6256775" lon="10.2715763"><ele>242.00000000000003</ele><time>2026-04-26T17:22:33.772Z</time></trkpt><trkpt lat="44.6257884" lon="10.2716288"><ele>242.0</ele><time>2026-04-26T17:22:35.773Z</time></trkpt><trkpt lat="44.6258959" lon="10.2716898"><ele>242.00000000000003</ele><time>2026-04-26T17:22:37.774Z</time></trkpt><trkpt lat="44.6259966" lon="10.2717452"><ele>242.0</ele><time>2026-04-26T17:22:39.772Z</time></trkpt><trkpt lat="44.6260562" lon="10.2717886"><ele>242.0</ele><time>2026-04-26T17:22:40.772Z</time></trkpt><trkpt lat="44.6261183" lon="10.2718413"><ele>242.0</ele><time>2026-04-26T17:22:41.773Z</time></trkpt><trkpt lat="44.6261765" lon="10.271904"><ele>242.00000000000003</ele><time>2026-04-26T17:22:42.772Z</time></trkpt><trkpt lat="44.6262321" lon="10.2719609"><ele>242.0</ele><time>2026-04-26T17:22:43.772Z</time></trkpt><trkpt lat="44.6263333" lon="10.272037"><ele>242.0</ele><time>2026-04-26T17:22:45.774Z</time></trkpt><trkpt lat="44.6264496" lon="10.2720476"><ele>242.0</ele><time>2026-04-26T17:22:47.772Z</time></trkpt><trkpt lat="44.6265368" lon="10.2720457"><ele>242.0</ele><time>2026-04-26T17:22:48.772Z</time></trkpt><trkpt lat="44.6266425" lon="10.2720608"><ele>242.0</ele><time>2026-04-26T17:22:49.773Z</time></trkpt><trkpt lat="44.6267683" lon="10.2720956"><ele>242.0</ele><time>2026-04-26T17:22:50.773Z</time></trkpt><trkpt lat="44.6269035" lon="10.2721472"><ele>242.0</ele><time>2026-04-26T17:22:51.772Z</time></trkpt><trkpt lat="44.6270408" lon="10.2722127"><ele>242.0</ele><time>2026-04-26T17:22:52.774Z</time></trkpt><trkpt lat="44.6271842" lon="10.2722832"><ele>242.0</ele><time>2026-04-26T17:22:53.772Z</time></trkpt><trkpt lat="44.6273337" lon="10.2723494"><ele>241.33333333333334</ele><time>2026-04-26T17:22:54.773Z</time></trkpt><trkpt lat="44.6274856" lon="10.2724124"><ele>240.66666666666669</ele><time>2026-04-26T17:22:55.773Z</time></trkpt><trkpt lat="44.6276319" lon="10.2724702"><ele>240.0</ele><time>2026-04-26T17:22:56.772Z</time></trkpt><trkpt lat="44.6277784" lon="10.2725227"><ele>240.0</ele><time>2026-04-26T17:22:57.773Z</time></trkpt><trkpt lat="44.6279249" lon="10.27257"><ele>240.0</ele><time>2026-04-26T17:22:58.772Z</time></trkpt><trkpt lat="44.6280713" lon="10.2726066"><ele>240.0</ele><time>2026-04-26T17:22:59.772Z</time></trkpt><trkpt lat="44.6282153" lon="10.2726332"><ele>240.0</ele><time>2026-04-26T17:23:00.772Z</time></trkpt><trkpt lat="44.6283606" lon="10.2726526"><ele>240.0</ele><time>2026-04-26T17:23:01.773Z</time></trkpt><trkpt lat="44.6285044" lon="10.2726666"><ele>240.0</ele><time>2026-04-26T17:23:02.772Z</time></trkpt><trkpt lat="44.6286516" lon="10.2726712"><ele>240.0</ele><time>2026-04-26T17:23:03.773Z</time></trkpt><trkpt lat="44.6288011" lon="10.272676"><ele>240.0</ele><time>2026-04-26T17:23:04.772Z</time></trkpt><trkpt lat="44.6289473" lon="10.2726791"><ele>239.75</ele><time>2026-04-26T17:23:05.772Z</time></trkpt><trkpt lat="44.6290983" lon="10.2726807"><ele>239.5</ele><time>2026-04-26T17:23:06.773Z</time></trkpt><trkpt lat="44.6292441" lon="10.2726825"><ele>239.25</ele><time>2026-04-26T17:23:07.772Z</time></trkpt><trkpt lat="44.6293808" lon="10.2726877"><ele>239.0</ele><time>2026-04-26T17:23:08.773Z</time></trkpt><trkpt lat="44.6295152" lon="10.272692"><ele>239.0</ele><time>2026-04-26T17:23:09.772Z</time></trkpt><trkpt lat="44.6296489" lon="10.2726922"><ele>239.0</ele><time>2026-04-26T17:23:10.772Z</time></trkpt><trkpt lat="44.6297854" lon="10.2726849"><ele>239.0</ele><time>2026-04-26T17:23:11.772Z</time></trkpt><trkpt lat="44.6299218" lon="10.2726721"><ele>239.0</ele><time>2026-04-26T17:23:12.772Z</time></trkpt><trkpt lat="44.6300579" lon="10.2726456"><ele>239.0</ele><time>2026-04-26T17:23:13.773Z</time></trkpt><trkpt lat="44.6301931" lon="10.2726108"><ele>239.0</ele><time>2026-04-26T17:23:14.772Z</time></trkpt><trkpt lat="44.6303249" lon="10.2725634"><ele>239.0</ele><time>2026-04-26T17:23:15.772Z</time></trkpt><trkpt lat="44.6304537" lon="10.2725148"><ele>239.0</ele><time>2026-04-26T17:23:16.772Z</time></trkpt><trkpt lat="44.6305799" lon="10.2724739"><ele>238.75</ele><time>2026-04-26T17:23:17.772Z</time></trkpt><trkpt lat="44.6307068" lon="10.272434"><ele>238.5</ele><time>2026-04-26T17:23:18.773Z</time></trkpt><trkpt lat="44.6308354" lon="10.2723925"><ele>238.25</ele><time>2026-04-26T17:23:19.772Z</time></trkpt><trkpt lat="44.6309623" lon="10.2723509"><ele>238.0</ele><time>2026-04-26T17:23:20.772Z</time></trkpt><trkpt lat="44.6310893" lon="10.2723153"><ele>238.0</ele><time>2026-04-26T17:23:21.772Z</time></trkpt><trkpt lat="44.6312151" lon="10.2722796"><ele>238.0</ele><time>2026-04-26T17:23:22.772Z</time></trkpt><trkpt lat="44.6313398" lon="10.2722468"><ele>238.0</ele><time>2026-04-26T17:23:23.772Z</time></trkpt><trkpt lat="44.631465" lon="10.2722213"><ele>238.0</ele><time>2026-04-26T17:23:24.772Z</time></trkpt><trkpt lat="44.6315915" lon="10.2722052"><ele>238.5</ele><time>2026-04-26T17:23:25.773Z</time></trkpt><trkpt lat="44.6317169" lon="10.2721973"><ele>239.0</ele><time>2026-04-26T17:23:26.772Z</time></trkpt><trkpt lat="44.631846" lon="10.2721955"><ele>239.5</ele><time>2026-04-26T17:23:27.772Z</time></trkpt><trkpt lat="44.6319775" lon="10.2722071"><ele>240.0</ele><time>2026-04-26T17:23:28.773Z</time></trkpt><trkpt lat="44.6321106" lon="10.2722248"><ele>240.0</ele><time>2026-04-26T17:23:29.772Z</time></trkpt><trkpt lat="44.6322446" lon="10.2722432"><ele>240.0</ele><time>2026-04-26T17:23:30.774Z</time></trkpt><trkpt lat="44.6323835" lon="10.2722697"><ele>240.0</ele><time>2026-04-26T17:23:31.772Z</time></trkpt><trkpt lat="44.6325238" lon="10.2722977"><ele>240.0</ele><time>2026-04-26T17:23:32.772Z</time></trkpt><trkpt lat="44.6326657" lon="10.2723302"><ele>238.0</ele><time>2026-04-26T17:23:33.772Z</time></trkpt><trkpt lat="44.6328132" lon="10.2723689"><ele>236.0</ele><time>2026-04-26T17:23:34.772Z</time></trkpt><trkpt lat="44.6329626" lon="10.2724096"><ele>234.0</ele><time>2026-04-26T17:23:35.774Z</time></trkpt><trkpt lat="44.6331128" lon="10.2724547"><ele>234.0</ele><time>2026-04-26T17:23:36.772Z</time></trkpt><trkpt lat="44.6332616" lon="10.2724963"><ele>234.0</ele><time>2026-04-26T17:23:37.772Z</time></trkpt><trkpt lat="44.6334083" lon="10.2725429"><ele>234.0</ele><time>2026-04-26T17:23:38.772Z</time></trkpt><trkpt lat="44.6335527" lon="10.2725943"><ele>234.25</ele><time>2026-04-26T17:23:39.772Z</time></trkpt><trkpt lat="44.6336917" lon="10.27265"><ele>234.5</ele><time>2026-04-26T17:23:40.773Z</time></trkpt><trkpt lat="44.633826" lon="10.2727121"><ele>234.75</ele><time>2026-04-26T17:23:41.772Z</time></trkpt><trkpt lat="44.6339567" lon="10.2727819"><ele>235.0</ele><time>2026-04-26T17:23:42.773Z</time></trkpt><trkpt lat="44.6340853" lon="10.2728492"><ele>235.0</ele><time>2026-04-26T17:23:43.772Z</time></trkpt><trkpt lat="44.6342133" lon="10.2729168"><ele>235.0</ele><time>2026-04-26T17:23:44.772Z</time></trkpt><trkpt lat="44.6343375" lon="10.2729806"><ele>235.0</ele><time>2026-04-26T17:23:45.772Z</time></trkpt><trkpt lat="44.6344642" lon="10.2730448"><ele>235.0</ele><time>2026-04-26T17:23:46.772Z</time></trkpt><trkpt lat="44.6345899" lon="10.2731061"><ele>234.5</ele><time>2026-04-26T17:23:47.773Z</time></trkpt><trkpt lat="44.6347161" lon="10.2731675"><ele>234.0</ele><time>2026-04-26T17:23:48.772Z</time></trkpt><trkpt lat="44.6348424" lon="10.2732307"><ele>233.5</ele><time>2026-04-26T17:23:49.772Z</time></trkpt><trkpt lat="44.6349757" lon="10.2732836"><ele>233.0</ele><time>2026-04-26T17:23:50.773Z</time></trkpt><trkpt lat="44.6351207" lon="10.2733301"><ele>233.0</ele><time>2026-04-26T17:23:51.772Z</time></trkpt><trkpt lat="44.6352674" lon="10.2733595"><ele>233.0</ele><time>2026-04-26T17:23:52.772Z</time></trkpt><trkpt lat="44.635426" lon="10.2733617"><ele>233.0</ele><time>2026-04-26T17:23:53.773Z</time></trkpt><trkpt lat="44.6355884" lon="10.2733402"><ele>232.66666666666669</ele><time>2026-04-26T17:23:54.772Z</time></trkpt><trkpt lat="44.6357463" lon="10.2732951"><ele>232.33333333333331</ele><time>2026-04-26T17:23:55.772Z</time></trkpt><trkpt lat="44.6359026" lon="10.2732315"><ele>232.0</ele><time>2026-04-26T17:23:56.772Z</time></trkpt><trkpt lat="44.636056" lon="10.2731568"><ele>233.0</ele><time>2026-04-26T17:23:57.772Z</time></trkpt><trkpt lat="44.6362113" lon="10.2730791"><ele>234.0</ele><time>2026-04-26T17:23:58.773Z</time></trkpt><trkpt lat="44.6363697" lon="10.2729957"><ele>235.0</ele><time>2026-04-26T17:23:59.772Z</time></trkpt><trkpt lat="44.6365253" lon="10.272909"><ele>235.0</ele><time>2026-04-26T17:24:00.772Z</time></trkpt><trkpt lat="44.6366729" lon="10.2728302"><ele>235.0</ele><time>2026-04-26T17:24:01.772Z</time></trkpt><trkpt lat="44.6368194" lon="10.2727519"><ele>235.0</ele><time>2026-04-26T17:24:02.773Z</time></trkpt><trkpt lat="44.6369649" lon="10.2726812"><ele>234.25</ele><time>2026-04-26T17:24:03.772Z</time></trkpt><trkpt lat="44.637107" lon="10.272618"><ele>233.5</ele><time>2026-04-26T17:24:04.774Z</time></trkpt><trkpt lat="44.6372512" lon="10.2725648"><ele>232.75</ele><time>2026-04-26T17:24:05.772Z</time></trkpt><trkpt lat="44.6373982" lon="10.2725291"><ele>232.0</ele><time>2026-04-26T17:24:06.773Z</time></trkpt><trkpt lat="44.6375447" lon="10.2725043"><ele>232.0</ele><time>2026-04-26T17:24:07.772Z</time></trkpt><trkpt lat="44.6376895" lon="10.2724966"><ele>232.0</ele><time>2026-04-26T17:24:08.773Z</time></trkpt><trkpt lat="44.6378332" lon="10.2725044"><ele>232.0</ele><time>2026-04-26T17:24:09.772Z</time></trkpt><trkpt lat="44.6379787" lon="10.2725241"><ele>232.0</ele><time>2026-04-26T17:24:10.772Z</time></trkpt><trkpt lat="44.6381293" lon="10.2725515"><ele>230.33333333333331</ele><time>2026-04-26T17:24:11.773Z</time></trkpt><trkpt lat="44.6382833" lon="10.2725844"><ele>228.66666666666669</ele><time>2026-04-26T17:24:12.772Z</time></trkpt><trkpt lat="44.6384374" lon="10.2726213"><ele>227.0</ele><time>2026-04-26T17:24:13.772Z</time></trkpt><trkpt lat="44.6385918" lon="10.2726581"><ele>226.33333333333334</ele><time>2026-04-26T17:24:14.772Z</time></trkpt><trkpt lat="44.6387458" lon="10.2726984"><ele>225.66666666666669</ele><time>2026-04-26T17:24:15.773Z</time></trkpt><trkpt lat="44.6388994" lon="10.2727417"><ele>225.0</ele><time>2026-04-26T17:24:16.772Z</time></trkpt><trkpt lat="44.6390504" lon="10.2727748"><ele>225.0</ele><time>2026-04-26T17:24:17.772Z</time></trkpt><trkpt lat="44.6392013" lon="10.2728132"><ele>225.0</ele><time>2026-04-26T17:24:18.772Z</time></trkpt><trkpt lat="44.6393503" lon="10.2728489"><ele>225.0</ele><time>2026-04-26T17:24:19.773Z</time></trkpt><trkpt lat="44.6394974" lon="10.2728848"><ele>223.66666666666669</ele><time>2026-04-26T17:24:20.772Z</time></trkpt><trkpt lat="44.6396474" lon="10.2729233"><ele>222.33333333333334</ele><time>2026-04-26T17:24:21.773Z</time></trkpt><trkpt lat="44.6398016" lon="10.2729603"><ele>221.0</ele><time>2026-04-26T17:24:22.772Z</time></trkpt><trkpt lat="44.6399583" lon="10.2729961"><ele>221.0</ele><time>2026-04-26T17:24:23.774Z</time></trkpt><trkpt lat="44.6401151" lon="10.2730349"><ele>221.0</ele><time>2026-04-26T17:24:24.772Z</time></trkpt><trkpt lat="44.6402771" lon="10.273079"><ele>221.0</ele><time>2026-04-26T17:24:25.773Z</time></trkpt><trkpt lat="44.6404428" lon="10.2731258"><ele>221.33333333333334</ele><time>2026-04-26T17:24:26.772Z</time></trkpt><trkpt lat="44.6406106" lon="10.2731655"><ele>221.66666666666669</ele><time>2026-04-26T17:24:27.772Z</time></trkpt><trkpt lat="44.6407816" lon="10.2732061"><ele>222.0</ele><time>2026-04-26T17:24:28.772Z</time></trkpt><trkpt lat="44.6409564" lon="10.2732493"><ele>222.0</ele><time>2026-04-26T17:24:29.773Z</time></trkpt><trkpt lat="44.6411252" lon="10.2732921"><ele>222.0</ele><time>2026-04-26T17:24:30.772Z</time></trkpt><trkpt lat="44.6412947" lon="10.2733317"><ele>222.0</ele><time>2026-04-26T17:24:31.772Z</time></trkpt><trkpt lat="44.6414607" lon="10.2733741"><ele>221.33333333333331</ele><time>2026-04-26T17:24:32.773Z</time></trkpt><trkpt lat="44.6416216" lon="10.2734123"><ele>220.66666666666666</ele><time>2026-04-26T17:24:33.772Z</time></trkpt><trkpt lat="44.6417809" lon="10.273454"><ele>220.0</ele><time>2026-04-26T17:24:34.773Z</time></trkpt><trkpt lat="44.6419336" lon="10.2734938"><ele>220.33333333333331</ele><time>2026-04-26T17:24:35.772Z</time></trkpt><trkpt lat="44.6420823" lon="10.2735314"><ele>220.66666666666669</ele><time>2026-04-26T17:24:36.772Z</time></trkpt><trkpt lat="44.6422311" lon="10.2735739"><ele>221.0</ele><time>2026-04-26T17:24:37.772Z</time></trkpt><trkpt lat="44.6423836" lon="10.2736136"><ele>221.0</ele><time>2026-04-26T17:24:38.772Z</time></trkpt><trkpt lat="44.6425442" lon="10.2736534"><ele>221.0</ele><time>2026-04-26T17:24:39.773Z</time></trkpt><trkpt lat="44.6427052" lon="10.2736951"><ele>221.0</ele><time>2026-04-26T17:24:40.772Z</time></trkpt><trkpt lat="44.6428665" lon="10.2737368"><ele>220.66666666666669</ele><time>2026-04-26T17:24:41.772Z</time></trkpt><trkpt lat="44.6430313" lon="10.2737738"><ele>220.33333333333331</ele><time>2026-04-26T17:24:42.772Z</time></trkpt><trkpt lat="44.643199" lon="10.2738146"><ele>220.0</ele><time>2026-04-26T17:24:43.772Z</time></trkpt><trkpt lat="44.6433778" lon="10.2738523"><ele>220.0</ele><time>2026-04-26T17:24:44.773Z</time></trkpt><trkpt lat="44.6435488" lon="10.2738925"><ele>220.0</ele><time>2026-04-26T17:24:45.773Z</time></trkpt><trkpt lat="44.6437116" lon="10.2739309"><ele>220.0</ele><time>2026-04-26T17:24:46.773Z</time></trkpt><trkpt lat="44.6438595" lon="10.2739663"><ele>219.5</ele><time>2026-04-26T17:24:47.772Z</time></trkpt><trkpt lat="44.6440048" lon="10.2740003"><ele>219.0</ele><time>2026-04-26T17:24:48.772Z</time></trkpt><trkpt lat="44.6441455" lon="10.2740307"><ele>218.5</ele><time>2026-04-26T17:24:49.772Z</time></trkpt><trkpt lat="44.6442822" lon="10.2740642"><ele>218.0</ele><time>2026-04-26T17:24:50.772Z</time></trkpt><trkpt lat="44.6444172" lon="10.2740962"><ele>218.5</ele><time>2026-04-26T17:24:51.772Z</time></trkpt><trkpt lat="44.6445572" lon="10.2741278"><ele>219.0</ele><time>2026-04-26T17:24:52.772Z</time></trkpt><trkpt lat="44.6446962" lon="10.2741561"><ele>219.5</ele><time>2026-04-26T17:24:53.772Z</time></trkpt><trkpt lat="44.6448292" lon="10.2741871"><ele>220.0</ele><time>2026-04-26T17:24:54.772Z</time></trkpt><trkpt lat="44.6449618" lon="10.2742181"><ele>220.0</ele><time>2026-04-26T17:24:55.773Z</time></trkpt><trkpt lat="44.6450988" lon="10.2742506"><ele>220.0</ele><time>2026-04-26T17:24:56.772Z</time></trkpt><trkpt lat="44.6452399" lon="10.2742868"><ele>220.0</ele><time>2026-04-26T17:24:57.772Z</time></trkpt><trkpt lat="44.6453871" lon="10.2743213"><ele>220.0</ele><time>2026-04-26T17:24:58.774Z</time></trkpt><trkpt lat="44.6455345" lon="10.2743573"><ele>220.0</ele><time>2026-04-26T17:24:59.773Z</time></trkpt><trkpt lat="44.6456834" lon="10.2743884"><ele>220.0</ele><time>2026-04-26T17:25:00.772Z</time></trkpt><trkpt lat="44.64584" lon="10.2744254"><ele>220.0</ele><time>2026-04-26T17:25:01.773Z</time></trkpt><trkpt lat="44.6459988" lon="10.2744599"><ele>222.66666666666666</ele><time>2026-04-26T17:25:02.772Z</time></trkpt><trkpt lat="44.6461599" lon="10.2745028"><ele>225.33333333333331</ele><time>2026-04-26T17:25:03.772Z</time></trkpt><trkpt lat="44.6463277" lon="10.2745422"><ele>228.0</ele><time>2026-04-26T17:25:04.772Z</time></trkpt><trkpt lat="44.6465017" lon="10.2745815"><ele>228.0</ele><time>2026-04-26T17:25:05.773Z</time></trkpt><trkpt lat="44.6466708" lon="10.2746179"><ele>228.0</ele><time>2026-04-26T17:25:06.773Z</time></trkpt><trkpt lat="44.6468377" lon="10.2746569"><ele>228.0</ele><time>2026-04-26T17:25:07.772Z</time></trkpt><trkpt lat="44.6469997" lon="10.2746986"><ele>228.0</ele><time>2026-04-26T17:25:08.773Z</time></trkpt><trkpt lat="44.6471576" lon="10.2747456"><ele>228.0</ele><time>2026-04-26T17:25:09.772Z</time></trkpt><trkpt lat="44.6473105" lon="10.2747918"><ele>228.0</ele><time>2026-04-26T17:25:10.772Z</time></trkpt><trkpt lat="44.6474641" lon="10.2748403"><ele>227.66666666666669</ele><time>2026-04-26T17:25:11.772Z</time></trkpt><trkpt lat="44.647617" lon="10.2748978"><ele>227.33333333333334</ele><time>2026-04-26T17:25:12.773Z</time></trkpt><trkpt lat="44.6477684" lon="10.2749592"><ele>227.0</ele><time>2026-04-26T17:25:13.772Z</time></trkpt><trkpt lat="44.6479187" lon="10.2750258"><ele>227.0</ele><time>2026-04-26T17:25:14.772Z</time></trkpt><trkpt lat="44.648063" lon="10.2750831"><ele>227.0</ele><time>2026-04-26T17:25:15.772Z</time></trkpt><trkpt lat="44.6481949" lon="10.2751448"><ele>227.0</ele><time>2026-04-26T17:25:16.772Z</time></trkpt><trkpt lat="44.648322" lon="10.275208"><ele>227.0</ele><time>2026-04-26T17:25:17.773Z</time></trkpt><trkpt lat="44.6484488" lon="10.2752766"><ele>227.0</ele><time>2026-04-26T17:25:18.772Z</time></trkpt><trkpt lat="44.6485735" lon="10.2753427"><ele>227.0</ele><time>2026-04-26T17:25:19.772Z</time></trkpt><trkpt lat="44.6486963" lon="10.2754088"><ele>227.0</ele><time>2026-04-26T17:25:20.773Z</time></trkpt><trkpt lat="44.6488157" lon="10.2754771"><ele>227.0</ele><time>2026-04-26T17:25:21.772Z</time></trkpt><trkpt lat="44.6489345" lon="10.2755429"><ele>226.5</ele><time>2026-04-26T17:25:22.772Z</time></trkpt><trkpt lat="44.6490474" lon="10.2756076"><ele>226.0</ele><time>2026-04-26T17:25:23.773Z</time></trkpt><trkpt lat="44.6491576" lon="10.2756695"><ele>225.5</ele><time>2026-04-26T17:25:24.772Z</time></trkpt><trkpt lat="44.6492717" lon="10.2757287"><ele>225.0</ele><time>2026-04-26T17:25:25.773Z</time></trkpt><trkpt lat="44.6493857" lon="10.2757872"><ele>225.0</ele><time>2026-04-26T17:25:26.772Z</time></trkpt><trkpt lat="44.6495081" lon="10.27585"><ele>225.0</ele><time>2026-04-26T17:25:27.773Z</time></trkpt><trkpt lat="44.6496302" lon="10.2759209"><ele>225.0</ele><time>2026-04-26T17:25:28.772Z</time></trkpt><trkpt lat="44.6497561" lon="10.2759937"><ele>225.0</ele><time>2026-04-26T17:25:29.773Z</time></trkpt><trkpt lat="44.6498839" lon="10.2760676"><ele>225.0</ele><time>2026-04-26T17:25:30.773Z</time></trkpt><trkpt lat="44.6500185" lon="10.2761414"><ele>225.0</ele><time>2026-04-26T17:25:31.773Z</time></trkpt><trkpt lat="44.6501565" lon="10.2762261"><ele>225.0</ele><time>2026-04-26T17:25:32.772Z</time></trkpt><trkpt lat="44.6502977" lon="10.2763175"><ele>224.75</ele><time>2026-04-26T17:25:33.773Z</time></trkpt><trkpt lat="44.6504354" lon="10.2764084"><ele>224.5</ele><time>2026-04-26T17:25:34.773Z</time></trkpt><trkpt lat="44.6505678" lon="10.2765029"><ele>224.25</ele><time>2026-04-26T17:25:35.772Z</time></trkpt><trkpt lat="44.6506927" lon="10.2766009"><ele>224.0</ele><time>2026-04-26T17:25:36.772Z</time></trkpt><trkpt lat="44.6508098" lon="10.2766995"><ele>223.5</ele><time>2026-04-26T17:25:37.772Z</time></trkpt><trkpt lat="44.6509312" lon="10.2768095"><ele>223.0</ele><time>2026-04-26T17:25:38.772Z</time></trkpt><trkpt lat="44.6510563" lon="10.2769236"><ele>222.5</ele><time>2026-04-26T17:25:39.772Z</time></trkpt><trkpt lat="44.6511815" lon="10.2770409"><ele>222.0</ele><time>2026-04-26T17:25:40.772Z</time></trkpt><trkpt lat="44.6513014" lon="10.27716"><ele>221.66666666666669</ele><time>2026-04-26T17:25:41.773Z</time></trkpt><trkpt lat="44.6514234" lon="10.2772782"><ele>221.33333333333334</ele><time>2026-04-26T17:25:42.772Z</time></trkpt><trkpt lat="44.6515497" lon="10.2773984"><ele>221.0</ele><time>2026-04-26T17:25:43.773Z</time></trkpt><trkpt lat="44.6516828" lon="10.2775316"><ele>221.0</ele><time>2026-04-26T17:25:44.772Z</time></trkpt><trkpt lat="44.6518154" lon="10.2776653"><ele>221.0</ele><time>2026-04-26T17:25:45.772Z</time></trkpt><trkpt lat="44.6519536" lon="10.2778053"><ele>221.0</ele><time>2026-04-26T17:25:46.772Z</time></trkpt><trkpt lat="44.6520906" lon="10.2779441"><ele>221.33333333333334</ele><time>2026-04-26T17:25:47.772Z</time></trkpt><trkpt lat="44.6522286" lon="10.2780771"><ele>221.66666666666669</ele><time>2026-04-26T17:25:48.772Z</time></trkpt><trkpt lat="44.6523664" lon="10.2782173"><ele>222.0</ele><time>2026-04-26T17:25:49.772Z</time></trkpt><trkpt lat="44.6525076" lon="10.2783563"><ele>221.33333333333331</ele><time>2026-04-26T17:25:50.772Z</time></trkpt><trkpt lat="44.6526425" lon="10.2784963"><ele>220.66666666666666</ele><time>2026-04-26T17:25:51.772Z</time></trkpt><trkpt lat="44.6527767" lon="10.2786349"><ele>220.0</ele><time>2026-04-26T17:25:52.772Z</time></trkpt><trkpt lat="44.6529078" lon="10.2787724"><ele>220.0</ele><time>2026-04-26T17:25:53.773Z</time></trkpt><trkpt lat="44.6530356" lon="10.2789011"><ele>220.0</ele><time>2026-04-26T17:25:54.772Z</time></trkpt><trkpt lat="44.6531676" lon="10.2790328"><ele>220.0</ele><time>2026-04-26T17:25:55.772Z</time></trkpt><trkpt lat="44.6533058" lon="10.2791656"><ele>219.0</ele><time>2026-04-26T17:25:56.772Z</time></trkpt><trkpt lat="44.6534426" lon="10.2793024"><ele>218.0</ele><time>2026-04-26T17:25:57.772Z</time></trkpt><trkpt lat="44.6535696" lon="10.2794277"><ele>217.0</ele><time>2026-04-26T17:25:58.773Z</time></trkpt><trkpt lat="44.6537151" lon="10.2795712"><ele>217.0</ele><time>2026-04-26T17:25:59.774Z</time></trkpt><trkpt lat="44.6538504" lon="10.2797063"><ele>217.0</ele><time>2026-04-26T17:26:00.773Z</time></trkpt><trkpt lat="44.6539846" lon="10.2798364"><ele>217.0</ele><time>2026-04-26T17:26:01.772Z</time></trkpt><trkpt lat="44.6541246" lon="10.2799605"><ele>216.66666666666666</ele><time>2026-04-26T17:26:02.772Z</time></trkpt><trkpt lat="44.6542649" lon="10.2800758"><ele>216.33333333333331</ele><time>2026-04-26T17:26:03.772Z</time></trkpt><trkpt lat="44.6544095" lon="10.2801815"><ele>216.0</ele><time>2026-04-26T17:26:04.773Z</time></trkpt><trkpt lat="44.6545553" lon="10.2802804"><ele>216.0</ele><time>2026-04-26T17:26:05.772Z</time></trkpt><trkpt lat="44.6547013" lon="10.2803758"><ele>216.0</ele><time>2026-04-26T17:26:06.773Z</time></trkpt><trkpt lat="44.654845" lon="10.2804693"><ele>216.0</ele><time>2026-04-26T17:26:07.773Z</time></trkpt><trkpt lat="44.6549827" lon="10.2805513"><ele>215.75</ele><time>2026-04-26T17:26:08.772Z</time></trkpt><trkpt lat="44.6551157" lon="10.2806294"><ele>215.5</ele><time>2026-04-26T17:26:09.772Z</time></trkpt><trkpt lat="44.6552534" lon="10.2807001"><ele>215.25</ele><time>2026-04-26T17:26:10.772Z</time></trkpt><trkpt lat="44.6553902" lon="10.2807631"><ele>215.0</ele><time>2026-04-26T17:26:11.772Z</time></trkpt><trkpt lat="44.6555299" lon="10.2808293"><ele>215.0</ele><time>2026-04-26T17:26:12.772Z</time></trkpt><trkpt lat="44.6556764" lon="10.2808892"><ele>215.0</ele><time>2026-04-26T17:26:13.772Z</time></trkpt><trkpt lat="44.6558276" lon="10.2809582"><ele>215.0</ele><time>2026-04-26T17:26:14.772Z</time></trkpt><trkpt lat="44.6559792" lon="10.2810213"><ele>215.0</ele><time>2026-04-26T17:26:15.773Z</time></trkpt><trkpt lat="44.6561392" lon="10.281092"><ele>215.0</ele><time>2026-04-26T17:26:16.772Z</time></trkpt><trkpt lat="44.6563021" lon="10.2811612"><ele>215.0</ele><time>2026-04-26T17:26:17.773Z</time></trkpt><trkpt lat="44.6564707" lon="10.2812334"><ele>215.0</ele><time>2026-04-26T17:26:18.772Z</time></trkpt><trkpt lat="44.6566442" lon="10.2813058"><ele>215.0</ele><time>2026-04-26T17:26:19.774Z</time></trkpt><trkpt lat="44.6568163" lon="10.2813791"><ele>215.0</ele><time>2026-04-26T17:26:20.772Z</time></trkpt><trkpt lat="44.6569782" lon="10.2814518"><ele>214.33333333333334</ele><time>2026-04-26T17:26:21.773Z</time></trkpt><trkpt lat="44.6571329" lon="10.2815176"><ele>213.66666666666669</ele><time>2026-04-26T17:26:22.772Z</time></trkpt><trkpt lat="44.6572794" lon="10.2815821"><ele>213.0</ele><time>2026-04-26T17:26:23.773Z</time></trkpt><trkpt lat="44.6574196" lon="10.2816467"><ele>213.0</ele><time>2026-04-26T17:26:24.773Z</time></trkpt><trkpt lat="44.6575524" lon="10.2817074"><ele>213.0</ele><time>2026-04-26T17:26:25.772Z</time></trkpt><trkpt lat="44.6576751" lon="10.2817633"><ele>213.0</ele><time>2026-04-26T17:26:26.772Z</time></trkpt><trkpt lat="44.6577918" lon="10.2818137"><ele>213.0</ele><time>2026-04-26T17:26:27.772Z</time></trkpt><trkpt lat="44.6579087" lon="10.2818634"><ele>213.2</ele><time>2026-04-26T17:26:28.772Z</time></trkpt><trkpt lat="44.6580163" lon="10.2819128"><ele>213.4</ele><time>2026-04-26T17:26:29.773Z</time></trkpt><trkpt lat="44.6581119" lon="10.281961"><ele>213.59999999999997</ele><time>2026-04-26T17:26:30.773Z</time></trkpt><trkpt lat="44.6582025" lon="10.2820034"><ele>213.79999999999998</ele><time>2026-04-26T17:26:31.772Z</time></trkpt><trkpt lat="44.6582857" lon="10.2820513"><ele>214.0</ele><time>2026-04-26T17:26:32.772Z</time></trkpt><trkpt lat="44.6583614" lon="10.282106"><ele>213.99999999999997</ele><time>2026-04-26T17:26:33.772Z</time></trkpt><trkpt lat="44.6584334" lon="10.2821611"><ele>214.0</ele><time>2026-04-26T17:26:34.772Z</time></trkpt><trkpt lat="44.6584947" lon="10.2822223"><ele>214.0</ele><time>2026-04-26T17:26:35.773Z</time></trkpt><trkpt lat="44.6585458" lon="10.2822878"><ele>214.0</ele><time>2026-04-26T17:26:36.772Z</time></trkpt><trkpt lat="44.6585856" lon="10.2823663"><ele>213.99999999999997</ele><time>2026-04-26T17:26:37.773Z</time></trkpt><trkpt lat="44.6586237" lon="10.2824656"><ele>214.0</ele><time>2026-04-26T17:26:38.772Z</time></trkpt><trkpt lat="44.6586545" lon="10.2825844"><ele>213.57142857142858</ele><time>2026-04-26T17:26:39.772Z</time></trkpt><trkpt lat="44.6586944" lon="10.2826801"><ele>213.14285714285714</ele><time>2026-04-26T17:26:40.772Z</time></trkpt><trkpt lat="44.6587502" lon="10.2827359"><ele>212.71428571428572</ele><time>2026-04-26T17:26:41.773Z</time></trkpt><trkpt lat="44.6588121" lon="10.2827598"><ele>212.28571428571428</ele><time>2026-04-26T17:26:42.772Z</time></trkpt><trkpt lat="44.6588825" lon="10.2827521"><ele>211.85714285714286</ele><time>2026-04-26T17:26:43.772Z</time></trkpt><trkpt lat="44.6589498" lon="10.2827102"><ele>211.42857142857144</ele><time>2026-04-26T17:26:44.772Z</time></trkpt><trkpt lat="44.6590151" lon="10.2826518"><ele>211.0</ele><time>2026-04-26T17:26:45.773Z</time></trkpt><trkpt lat="44.6590894" lon="10.2825948"><ele>211.0</ele><time>2026-04-26T17:26:46.773Z</time></trkpt><trkpt lat="44.6591801" lon="10.2825561"><ele>211.0</ele><time>2026-04-26T17:26:47.772Z</time></trkpt><trkpt lat="44.6592833" lon="10.2825492"><ele>211.0</ele><time>2026-04-26T17:26:48.772Z</time></trkpt><trkpt lat="44.6593958" lon="10.2825623"><ele>211.0</ele><time>2026-04-26T17:26:49.772Z</time></trkpt><trkpt lat="44.6595191" lon="10.2825894"><ele>211.0</ele><time>2026-04-26T17:26:50.772Z</time></trkpt><trkpt lat="44.6596332" lon="10.2826279"><ele>210.75</ele><time>2026-04-26T17:26:51.773Z</time></trkpt><trkpt lat="44.6597525" lon="10.282679"><ele>210.5</ele><time>2026-04-26T17:26:52.772Z</time></trkpt><trkpt lat="44.6598736" lon="10.2827337"><ele>210.25</ele><time>2026-04-26T17:26:53.773Z</time></trkpt><trkpt lat="44.6600009" lon="10.282789"><ele>210.0</ele><time>2026-04-26T17:26:54.772Z</time></trkpt><trkpt lat="44.6601388" lon="10.2828509"><ele>210.0</ele><time>2026-04-26T17:26:55.773Z</time></trkpt><trkpt lat="44.6602755" lon="10.2829106"><ele>210.0</ele><time>2026-04-26T17:26:56.772Z</time></trkpt><trkpt lat="44.6604265" lon="10.2829772"><ele>210.0</ele><time>2026-04-26T17:26:57.773Z</time></trkpt><trkpt lat="44.6605658" lon="10.2830435"><ele>210.0</ele><time>2026-04-26T17:26:58.772Z</time></trkpt><trkpt lat="44.6607288" lon="10.2831135"><ele>208.33333333333331</ele><time>2026-04-26T17:26:59.772Z</time></trkpt><trkpt lat="44.6608907" lon="10.2831798"><ele>206.66666666666666</ele><time>2026-04-26T17:27:00.772Z</time></trkpt><trkpt lat="44.6610579" lon="10.2832476"><ele>205.0</ele><time>2026-04-26T17:27:01.772Z</time></trkpt><trkpt lat="44.6612207" lon="10.2833199"><ele>204.66666666666666</ele><time>2026-04-26T17:27:02.773Z</time></trkpt><trkpt lat="44.6613826" lon="10.2833921"><ele>204.33333333333331</ele><time>2026-04-26T17:27:03.772Z</time></trkpt><trkpt lat="44.661538" lon="10.2834645"><ele>204.0</ele><time>2026-04-26T17:27:04.772Z</time></trkpt><trkpt lat="44.6616902" lon="10.2835339"><ele>204.0</ele><time>2026-04-26T17:27:05.774Z</time></trkpt><trkpt lat="44.661839" lon="10.2835999"><ele>204.0</ele><time>2026-04-26T17:27:06.773Z</time></trkpt><trkpt lat="44.661982" lon="10.2836689"><ele>204.0</ele><time>2026-04-26T17:27:07.772Z</time></trkpt><trkpt lat="44.6621312" lon="10.2837383"><ele>204.0</ele><time>2026-04-26T17:27:08.773Z</time></trkpt><trkpt lat="44.6622915" lon="10.2838127"><ele>204.0</ele><time>2026-04-26T17:27:09.772Z</time></trkpt><trkpt lat="44.6624501" lon="10.2838815"><ele>204.0</ele><time>2026-04-26T17:27:10.772Z</time></trkpt><trkpt lat="44.662621" lon="10.2839557"><ele>204.0</ele><time>2026-04-26T17:27:11.773Z</time></trkpt><trkpt lat="44.6627909" lon="10.2840313"><ele>204.0</ele><time>2026-04-26T17:27:12.772Z</time></trkpt><trkpt lat="44.6629618" lon="10.2841034"><ele>204.0</ele><time>2026-04-26T17:27:13.772Z</time></trkpt><trkpt lat="44.6631288" lon="10.2841773"><ele>204.0</ele><time>2026-04-26T17:27:14.773Z</time></trkpt><trkpt lat="44.663292" lon="10.2842507"><ele>204.0</ele><time>2026-04-26T17:27:15.772Z</time></trkpt><trkpt lat="44.6634479" lon="10.2843186"><ele>204.0</ele><time>2026-04-26T17:27:16.772Z</time></trkpt><trkpt lat="44.6635987" lon="10.284386"><ele>202.33333333333331</ele><time>2026-04-26T17:27:17.773Z</time></trkpt><trkpt lat="44.6637494" lon="10.284455"><ele>200.66666666666666</ele><time>2026-04-26T17:27:18.772Z</time></trkpt><trkpt lat="44.6638952" lon="10.2845211"><ele>199.0</ele><time>2026-04-26T17:27:19.772Z</time></trkpt><trkpt lat="44.6640406" lon="10.2845836"><ele>199.0</ele><time>2026-04-26T17:27:20.772Z</time></trkpt><trkpt lat="44.6641838" lon="10.2846424"><ele>199.0</ele><time>2026-04-26T17:27:21.772Z</time></trkpt><trkpt lat="44.6643256" lon="10.2847072"><ele>199.0</ele><time>2026-04-26T17:27:22.773Z</time></trkpt><trkpt lat="44.6644656" lon="10.28477"><ele>199.0</ele><time>2026-04-26T17:27:23.772Z</time></trkpt><trkpt lat="44.6646076" lon="10.2848346"><ele>198.33333333333331</ele><time>2026-04-26T17:27:24.772Z</time></trkpt><trkpt lat="44.6647481" lon="10.2849015"><ele>197.66666666666669</ele><time>2026-04-26T17:27:25.773Z</time></trkpt><trkpt lat="44.6648922" lon="10.284962"><ele>197.0</ele><time>2026-04-26T17:27:26.772Z</time></trkpt><trkpt lat="44.6650392" lon="10.2850245"><ele>197.0</ele><time>2026-04-26T17:27:27.772Z</time></trkpt><trkpt lat="44.6651856" lon="10.2850897"><ele>197.0</ele><time>2026-04-26T17:27:28.773Z</time></trkpt><trkpt lat="44.6653338" lon="10.2851546"><ele>197.0</ele><time>2026-04-26T17:27:29.772Z</time></trkpt><trkpt lat="44.6654839" lon="10.28522"><ele>196.5</ele><time>2026-04-26T17:27:30.772Z</time></trkpt><trkpt lat="44.6656261" lon="10.2852848"><ele>196.0</ele><time>2026-04-26T17:27:31.773Z</time></trkpt><trkpt lat="44.6657604" lon="10.2853428"><ele>195.5</ele><time>2026-04-26T17:27:32.772Z</time></trkpt><trkpt lat="44.6658869" lon="10.2853997"><ele>195.0</ele><time>2026-04-26T17:27:33.772Z</time></trkpt><trkpt lat="44.6660058" lon="10.2854517"><ele>194.6</ele><time>2026-04-26T17:27:34.773Z</time></trkpt><trkpt lat="44.6661168" lon="10.2855011"><ele>194.2</ele><time>2026-04-26T17:27:35.772Z</time></trkpt><trkpt lat="44.6662185" lon="10.2855454"><ele>193.8</ele><time>2026-04-26T17:27:36.773Z</time></trkpt><trkpt lat="44.666314" lon="10.2855898"><ele>193.4</ele><time>2026-04-26T17:27:37.772Z</time></trkpt><trkpt lat="44.6663995" lon="10.2856497"><ele>193.0</ele><time>2026-04-26T17:27:38.772Z</time></trkpt><trkpt lat="44.6664734" lon="10.2857253"><ele>192.75</ele><time>2026-04-26T17:27:39.773Z</time></trkpt><trkpt lat="44.6665474" lon="10.2858192"><ele>192.5</ele><time>2026-04-26T17:27:40.772Z</time></trkpt><trkpt lat="44.6666247" lon="10.2859316"><ele>192.25</ele><time>2026-04-26T17:27:41.772Z</time></trkpt><trkpt lat="44.666696" lon="10.2860766"><ele>192.0</ele><time>2026-04-26T17:27:42.773Z</time></trkpt><trkpt lat="44.6667525" lon="10.2862539"><ele>191.66666666666666</ele><time>2026-04-26T17:27:43.772Z</time></trkpt><trkpt lat="44.6667992" lon="10.2864514"><ele>191.33333333333331</ele><time>2026-04-26T17:27:44.772Z</time></trkpt><trkpt lat="44.6668404" lon="10.2866915"><ele>191.0</ele><time>2026-04-26T17:27:45.773Z</time></trkpt><trkpt lat="44.666887" lon="10.2869684"><ele>191.33333333333331</ele><time>2026-04-26T17:27:46.772Z</time></trkpt><trkpt lat="44.6669449" lon="10.287254"><ele>191.66666666666666</ele><time>2026-04-26T17:27:47.772Z</time></trkpt><trkpt lat="44.6670003" lon="10.2875403"><ele>192.0</ele><time>2026-04-26T17:27:48.773Z</time></trkpt><trkpt lat="44.6670587" lon="10.2878311"><ele>192.33333333333331</ele><time>2026-04-26T17:27:49.772Z</time></trkpt><trkpt lat="44.6671223" lon="10.2881216"><ele>192.66666666666666</ele><time>2026-04-26T17:27:50.773Z</time></trkpt><trkpt lat="44.6671959" lon="10.2884105"><ele>193.0</ele><time>2026-04-26T17:27:51.773Z</time></trkpt><trkpt lat="44.6672789" lon="10.2886938"><ele>191.66666666666666</ele><time>2026-04-26T17:27:52.772Z</time></trkpt><trkpt lat="44.6673735" lon="10.2889677"><ele>190.33333333333331</ele><time>2026-04-26T17:27:53.773Z</time></trkpt><trkpt lat="44.6674833" lon="10.2892423"><ele>189.0</ele><time>2026-04-26T17:27:54.773Z</time></trkpt><trkpt lat="44.6676089" lon="10.2895107"><ele>189.0</ele><time>2026-04-26T17:27:55.772Z</time></trkpt><trkpt lat="44.6677507" lon="10.2897773"><ele>189.0</ele><time>2026-04-26T17:27:56.772Z</time></trkpt><trkpt lat="44.6679129" lon="10.2900445"><ele>189.0</ele><time>2026-04-26T17:27:57.773Z</time></trkpt><trkpt lat="44.6680933" lon="10.2903114"><ele>189.0</ele><time>2026-04-26T17:27:58.772Z</time></trkpt><trkpt lat="44.6682876" lon="10.2905719"><ele>188.5</ele><time>2026-04-26T17:27:59.774Z</time></trkpt><trkpt lat="44.6684966" lon="10.290819"><ele>188.0</ele><time>2026-04-26T17:28:00.772Z</time></trkpt><trkpt lat="44.6687129" lon="10.2910517"><ele>188.0</ele><time>2026-04-26T17:28:01.772Z</time></trkpt><trkpt lat="44.6689412" lon="10.2912573"><ele>188.0</ele><time>2026-04-26T17:28:02.773Z</time></trkpt><trkpt lat="44.66918" lon="10.2914393"><ele>187.0</ele><time>2026-04-26T17:28:03.772Z</time></trkpt><trkpt lat="44.6694234" lon="10.2915987"><ele>186.0</ele><time>2026-04-26T17:28:04.773Z</time></trkpt><trkpt lat="44.6696733" lon="10.2917343"><ele>186.0</ele><time>2026-04-26T17:28:05.773Z</time></trkpt><trkpt lat="44.6699246" lon="10.2918522"><ele>186.0</ele><time>2026-04-26T17:28:06.772Z</time></trkpt><trkpt lat="44.6701819" lon="10.2919578"><ele>185.5</ele><time>2026-04-26T17:28:07.772Z</time></trkpt><trkpt lat="44.670437" lon="10.2920602"><ele>185.0</ele><time>2026-04-26T17:28:08.773Z</time></trkpt><trkpt lat="44.6706892" lon="10.2921579"><ele>184.5</ele><time>2026-04-26T17:28:09.772Z</time></trkpt><trkpt lat="44.6709449" lon="10.2922609"><ele>184.0</ele><time>2026-04-26T17:28:10.772Z</time></trkpt><trkpt lat="44.6711964" lon="10.2923624"><ele>183.5</ele><time>2026-04-26T17:28:11.773Z</time></trkpt><trkpt lat="44.6714481" lon="10.2924592"><ele>183.0</ele><time>2026-04-26T17:28:12.772Z</time></trkpt><trkpt lat="44.6716985" lon="10.2925551"><ele>182.0</ele><time>2026-04-26T17:28:13.772Z</time></trkpt><trkpt lat="44.6719506" lon="10.2926535"><ele>181.0</ele><time>2026-04-26T17:28:14.773Z</time></trkpt><trkpt lat="44.6722025" lon="10.2927524"><ele>181.0</ele><time>2026-04-26T17:28:15.772Z</time></trkpt><trkpt lat="44.6724538" lon="10.2928513"><ele>181.0</ele><time>2026-04-26T17:28:16.772Z</time></trkpt><trkpt lat="44.6727123" lon="10.2929558"><ele>181.0</ele><time>2026-04-26T17:28:17.773Z</time></trkpt><trkpt lat="44.6729692" lon="10.293055"><ele>181.0</ele><time>2026-04-26T17:28:18.772Z</time></trkpt><trkpt lat="44.6732253" lon="10.2931551"><ele>181.5</ele><time>2026-04-26T17:28:19.772Z</time></trkpt><trkpt lat="44.6734821" lon="10.2932547"><ele>182.0</ele><time>2026-04-26T17:28:20.772Z</time></trkpt><trkpt lat="44.6737408" lon="10.2933558"><ele>181.0</ele><time>2026-04-26T17:28:21.772Z</time></trkpt><trkpt lat="44.6739975" lon="10.2934611"><ele>180.0</ele><time>2026-04-26T17:28:22.773Z</time></trkpt><trkpt lat="44.6742563" lon="10.2935698"><ele>179.0</ele><time>2026-04-26T17:28:23.772Z</time></trkpt><trkpt lat="44.6745177" lon="10.2936815"><ele>178.0</ele><time>2026-04-26T17:28:24.773Z</time></trkpt><trkpt lat="44.6747812" lon="10.2937907"><ele>178.0</ele><time>2026-04-26T17:28:25.772Z</time></trkpt><trkpt lat="44.6750434" lon="10.293895"><ele>178.0</ele><time>2026-04-26T17:28:26.773Z</time></trkpt><trkpt lat="44.6753035" lon="10.2939995"><ele>177.5</ele><time>2026-04-26T17:28:27.773Z</time></trkpt><trkpt lat="44.6755635" lon="10.2941063"><ele>177.0</ele><time>2026-04-26T17:28:28.772Z</time></trkpt><trkpt lat="44.6758235" lon="10.2942084"><ele>177.0</ele><time>2026-04-26T17:28:29.773Z</time></trkpt><trkpt lat="44.6760832" lon="10.294302"><ele>177.0</ele><time>2026-04-26T17:28:30.772Z</time></trkpt><trkpt lat="44.6763437" lon="10.2943811"><ele>176.5</ele><time>2026-04-26T17:28:31.772Z</time></trkpt><trkpt lat="44.6765996" lon="10.2944394"><ele>176.0</ele><time>2026-04-26T17:28:32.772Z</time></trkpt><trkpt lat="44.676857" lon="10.2944776"><ele>176.0</ele><time>2026-04-26T17:28:33.772Z</time></trkpt><trkpt lat="44.677112" lon="10.2944911"><ele>176.0</ele><time>2026-04-26T17:28:34.773Z</time></trkpt><trkpt lat="44.677364" lon="10.2944823"><ele>176.0</ele><time>2026-04-26T17:28:35.774Z</time></trkpt><trkpt lat="44.6776186" lon="10.2944618"><ele>176.0</ele><time>2026-04-26T17:28:36.772Z</time></trkpt><trkpt lat="44.6778661" lon="10.2944359"><ele>176.5</ele><time>2026-04-26T17:28:37.772Z</time></trkpt><trkpt lat="44.6781164" lon="10.2944042"><ele>177.0</ele><time>2026-04-26T17:28:38.774Z</time></trkpt><trkpt lat="44.6783612" lon="10.2943713"><ele>177.0</ele><time>2026-04-26T17:28:39.772Z</time></trkpt><trkpt lat="44.678594" lon="10.2943402"><ele>177.0</ele><time>2026-04-26T17:28:40.772Z</time></trkpt><trkpt lat="44.678816" lon="10.2943122"><ele>176.66666666666666</ele><time>2026-04-26T17:28:41.772Z</time></trkpt><trkpt lat="44.6790243" lon="10.2942833"><ele>176.33333333333331</ele><time>2026-04-26T17:28:42.773Z</time></trkpt><trkpt lat="44.6792236" lon="10.2942594"><ele>176.0</ele><time>2026-04-26T17:28:43.773Z</time></trkpt><trkpt lat="44.6794115" lon="10.2942332"><ele>175.66666666666666</ele><time>2026-04-26T17:28:44.772Z</time></trkpt><trkpt lat="44.679586" lon="10.2942095"><ele>175.33333333333334</ele><time>2026-04-26T17:28:45.772Z</time></trkpt><trkpt lat="44.6797453" lon="10.2941882"><ele>175.0</ele><time>2026-04-26T17:28:46.772Z</time></trkpt><trkpt lat="44.6798873" lon="10.2941667"><ele>175.0</ele><time>2026-04-26T17:28:47.772Z</time></trkpt><trkpt lat="44.6800101" lon="10.2941542"><ele>175.0</ele><time>2026-04-26T17:28:48.772Z</time></trkpt><trkpt lat="44.68011" lon="10.2941454"><ele>175.0</ele><time>2026-04-26T17:28:49.773Z</time></trkpt><trkpt lat="44.6801895" lon="10.2941465"><ele>175.0</ele><time>2026-04-26T17:28:50.772Z</time></trkpt><trkpt lat="44.6802565" lon="10.29416"><ele>175.0</ele><time>2026-04-26T17:28:51.772Z</time></trkpt><trkpt lat="44.6803203" lon="10.2941858"><ele>175.0</ele><time>2026-04-26T17:28:52.773Z</time></trkpt><trkpt lat="44.6803945" lon="10.2942248"><ele>174.6</ele><time>2026-04-26T17:28:53.772Z</time></trkpt><trkpt lat="44.6804877" lon="10.2942478"><ele>174.2</ele><time>2026-04-26T17:28:54.773Z</time></trkpt><trkpt lat="44.68059" lon="10.2942334"><ele>173.8</ele><time>2026-04-26T17:28:55.772Z</time></trkpt><trkpt lat="44.6806981" lon="10.2941791"><ele>173.4</ele><time>2026-04-26T17:28:56.773Z</time></trkpt><trkpt lat="44.6808274" lon="10.2941221"><ele>173.0</ele><time>2026-04-26T17:28:57.772Z</time></trkpt><trkpt lat="44.68097" lon="10.2940948"><ele>172.33333333333331</ele><time>2026-04-26T17:28:58.773Z</time></trkpt><trkpt lat="44.6811255" lon="10.2940744"><ele>171.66666666666666</ele><time>2026-04-26T17:28:59.772Z</time></trkpt><trkpt lat="44.6812975" lon="10.2940473"><ele>171.0</ele><time>2026-04-26T17:29:00.774Z</time></trkpt><trkpt lat="44.6814932" lon="10.2940263"><ele>171.0</ele><time>2026-04-26T17:29:01.772Z</time></trkpt><trkpt lat="44.6817059" lon="10.294017"><ele>171.0</ele><time>2026-04-26T17:29:02.772Z</time></trkpt><trkpt lat="44.6819193" lon="10.294021"><ele>171.0</ele><time>2026-04-26T17:29:03.772Z</time></trkpt><trkpt lat="44.6821393" lon="10.294023"><ele>170.0</ele><time>2026-04-26T17:29:04.773Z</time></trkpt><trkpt lat="44.682363" lon="10.2940281"><ele>169.0</ele><time>2026-04-26T17:29:05.772Z</time></trkpt><trkpt lat="44.682588" lon="10.294039"><ele>168.0</ele><time>2026-04-26T17:29:06.773Z</time></trkpt><trkpt lat="44.6828163" lon="10.2940668"><ele>168.0</ele><time>2026-04-26T17:29:07.772Z</time></trkpt><trkpt lat="44.6830401" lon="10.2941114"><ele>168.0</ele><time>2026-04-26T17:29:08.773Z</time></trkpt><trkpt lat="44.6832724" lon="10.2941461"><ele>168.0</ele><time>2026-04-26T17:29:09.773Z</time></trkpt><trkpt lat="44.6834803" lon="10.2942306"><ele>168.0</ele><time>2026-04-26T17:29:10.772Z</time></trkpt><trkpt lat="44.6836917" lon="10.2943248"><ele>168.0</ele><time>2026-04-26T17:29:11.773Z</time></trkpt><trkpt lat="44.6839102" lon="10.294427"><ele>168.0</ele><time>2026-04-26T17:29:12.773Z</time></trkpt><trkpt lat="44.6841315" lon="10.2945323"><ele>168.0</ele><time>2026-04-26T17:29:13.772Z</time></trkpt><trkpt lat="44.6843522" lon="10.2946321"><ele>166.5</ele><time>2026-04-26T17:29:14.772Z</time></trkpt><trkpt lat="44.6845722" lon="10.2947305"><ele>165.0</ele><time>2026-04-26T17:29:15.772Z</time></trkpt><trkpt lat="44.6847926" lon="10.2948336"><ele>165.0</ele><time>2026-04-26T17:29:16.772Z</time></trkpt><trkpt lat="44.6850149" lon="10.2949386"><ele>165.0</ele><time>2026-04-26T17:29:17.773Z</time></trkpt><trkpt lat="44.685234" lon="10.2950411"><ele>164.66666666666666</ele><time>2026-04-26T17:29:18.772Z</time></trkpt><trkpt lat="44.6854487" lon="10.2951402"><ele>164.33333333333331</ele><time>2026-04-26T17:29:19.772Z</time></trkpt><trkpt lat="44.6856589" lon="10.2952351"><ele>164.0</ele><time>2026-04-26T17:29:20.773Z</time></trkpt><trkpt lat="44.6858632" lon="10.2953317"><ele>164.0</ele><time>2026-04-26T17:29:21.772Z</time></trkpt><trkpt lat="44.6860575" lon="10.2954213"><ele>164.0</ele><time>2026-04-26T17:29:22.772Z</time></trkpt><trkpt lat="44.686244" lon="10.2955075"><ele>164.0</ele><time>2026-04-26T17:29:23.773Z</time></trkpt><trkpt lat="44.6864332" lon="10.2955965"><ele>163.66666666666666</ele><time>2026-04-26T17:29:24.773Z</time></trkpt><trkpt lat="44.6866234" lon="10.2956878"><ele>163.33333333333334</ele><time>2026-04-26T17:29:25.773Z</time></trkpt><trkpt lat="44.6868161" lon="10.295777"><ele>163.0</ele><time>2026-04-26T17:29:26.773Z</time></trkpt><trkpt lat="44.6870054" lon="10.2958559"><ele>163.0</ele><time>2026-04-26T17:29:27.772Z</time></trkpt><trkpt lat="44.6871935" lon="10.2959191"><ele>163.0</ele><time>2026-04-26T17:29:28.773Z</time></trkpt><trkpt lat="44.6873852" lon="10.2959575"><ele>163.0</ele><time>2026-04-26T17:29:29.772Z</time></trkpt><trkpt lat="44.6875756" lon="10.2959773"><ele>162.33333333333334</ele><time>2026-04-26T17:29:30.772Z</time></trkpt><trkpt lat="44.6877643" lon="10.2959721"><ele>161.66666666666666</ele><time>2026-04-26T17:29:31.773Z</time></trkpt><trkpt lat="44.6879418" lon="10.2959516"><ele>161.0</ele><time>2026-04-26T17:29:32.772Z</time></trkpt><trkpt lat="44.6881049" lon="10.2959136"><ele>161.0</ele><time>2026-04-26T17:29:33.772Z</time></trkpt><trkpt lat="44.6882586" lon="10.2958626"><ele>161.0</ele><time>2026-04-26T17:29:34.772Z</time></trkpt><trkpt lat="44.6884027" lon="10.2957993"><ele>161.0</ele><time>2026-04-26T17:29:35.772Z</time></trkpt><trkpt lat="44.6885412" lon="10.2957364"><ele>161.0</ele><time>2026-04-26T17:29:36.773Z</time></trkpt><trkpt lat="44.6886773" lon="10.2956563"><ele>161.0</ele><time>2026-04-26T17:29:37.772Z</time></trkpt><trkpt lat="44.6888174" lon="10.2955561"><ele>161.0</ele><time>2026-04-26T17:29:38.772Z</time></trkpt><trkpt lat="44.6889555" lon="10.2954416"><ele>160.66666666666666</ele><time>2026-04-26T17:29:39.773Z</time></trkpt><trkpt lat="44.6890897" lon="10.2953122"><ele>160.33333333333334</ele><time>2026-04-26T17:29:40.772Z</time></trkpt><trkpt lat="44.6892185" lon="10.2951616"><ele>160.0</ele><time>2026-04-26T17:29:41.772Z</time></trkpt><trkpt lat="44.6893404" lon="10.2950004"><ele>160.0</ele><time>2026-04-26T17:29:42.773Z</time></trkpt><trkpt lat="44.6894471" lon="10.2948332"><ele>160.0</ele><time>2026-04-26T17:29:43.772Z</time></trkpt><trkpt lat="44.689546" lon="10.2946634"><ele>160.0</ele><time>2026-04-26T17:29:44.773Z</time></trkpt><trkpt lat="44.6896304" lon="10.294499"><ele>160.0</ele><time>2026-04-26T17:29:45.772Z</time></trkpt><trkpt lat="44.6897059" lon="10.2943323"><ele>160.0</ele><time>2026-04-26T17:29:46.772Z</time></trkpt><trkpt lat="44.6897669" lon="10.2941761"><ele>160.0</ele><time>2026-04-26T17:29:47.773Z</time></trkpt><trkpt lat="44.6898187" lon="10.2940294"><ele>160.0</ele><time>2026-04-26T17:29:48.773Z</time></trkpt><trkpt lat="44.6898623" lon="10.2939051"><ele>160.16666666666669</ele><time>2026-04-26T17:29:49.772Z</time></trkpt><trkpt lat="44.6899002" lon="10.2937904"><ele>160.33333333333334</ele><time>2026-04-26T17:29:50.773Z</time></trkpt><trkpt lat="44.6899377" lon="10.2936833"><ele>160.5</ele><time>2026-04-26T17:29:51.773Z</time></trkpt><trkpt lat="44.6899716" lon="10.2935791"><ele>160.66666666666666</ele><time>2026-04-26T17:29:52.772Z</time></trkpt><trkpt lat="44.6900061" lon="10.2934836"><ele>160.83333333333331</ele><time>2026-04-26T17:29:53.774Z</time></trkpt><trkpt lat="44.690035" lon="10.2934005"><ele>161.0</ele><time>2026-04-26T17:29:54.772Z</time></trkpt><trkpt lat="44.6900724" lon="10.2932818"><ele>161.0</ele><time>2026-04-26T17:29:56.773Z</time></trkpt><trkpt lat="44.6901083" lon="10.293193"><ele>161.0</ele><time>2026-04-26T17:29:58.773Z</time></trkpt><trkpt lat="44.6901382" lon="10.2930967"><ele>161.0</ele><time>2026-04-26T17:30:01.772Z</time></trkpt><trkpt lat="44.6901877" lon="10.292997"><ele>161.0</ele><time>2026-04-26T17:30:03.773Z</time></trkpt><trkpt lat="44.6902966" lon="10.2928968"><ele>161.0</ele><time>2026-04-26T17:30:05.772Z</time></trkpt><trkpt lat="44.6903889" lon="10.2928574"><ele>160.5</ele><time>2026-04-26T17:30:06.773Z</time></trkpt><trkpt lat="44.6904932" lon="10.2928267"><ele>160.0</ele><time>2026-04-26T17:30:07.772Z</time></trkpt><trkpt lat="44.6906123" lon="10.2927979"><ele>159.5</ele><time>2026-04-26T17:30:08.773Z</time></trkpt><trkpt lat="44.6907382" lon="10.2927867"><ele>159.0</ele><time>2026-04-26T17:30:09.772Z</time></trkpt><trkpt lat="44.690872" lon="10.2928142"><ele>159.0</ele><time>2026-04-26T17:30:10.773Z</time></trkpt><trkpt lat="44.6910149" lon="10.2928818"><ele>159.0</ele><time>2026-04-26T17:30:11.772Z</time></trkpt><trkpt lat="44.6911555" lon="10.292957"><ele>159.0</ele><time>2026-04-26T17:30:12.772Z</time></trkpt><trkpt lat="44.6913007" lon="10.2930359"><ele>158.33333333333334</ele><time>2026-04-26T17:30:13.772Z</time></trkpt><trkpt lat="44.6914498" lon="10.2931152"><ele>157.66666666666669</ele><time>2026-04-26T17:30:14.772Z</time></trkpt><trkpt lat="44.6916012" lon="10.2931926"><ele>157.0</ele><time>2026-04-26T17:30:15.773Z</time></trkpt><trkpt lat="44.6917598" lon="10.2932675"><ele>157.0</ele><time>2026-04-26T17:30:16.772Z</time></trkpt><trkpt lat="44.6919214" lon="10.2933434"><ele>157.0</ele><time>2026-04-26T17:30:17.772Z</time></trkpt><trkpt lat="44.6920895" lon="10.2934113"><ele>157.0</ele><time>2026-04-26T17:30:18.773Z</time></trkpt><trkpt lat="44.6922672" lon="10.2934762"><ele>156.33333333333334</ele><time>2026-04-26T17:30:19.772Z</time></trkpt><trkpt lat="44.6924491" lon="10.2935359"><ele>155.66666666666666</ele><time>2026-04-26T17:30:20.772Z</time></trkpt><trkpt lat="44.69264" lon="10.2935858"><ele>155.0</ele><time>2026-04-26T17:30:21.773Z</time></trkpt><trkpt lat="44.6928317" lon="10.2936337"><ele>155.0</ele><time>2026-04-26T17:30:22.773Z</time></trkpt><trkpt lat="44.6930298" lon="10.2936842"><ele>155.0</ele><time>2026-04-26T17:30:23.773Z</time></trkpt><trkpt lat="44.6932282" lon="10.2937303"><ele>155.0</ele><time>2026-04-26T17:30:24.771Z</time></trkpt><trkpt lat="44.6934265" lon="10.2937745"><ele>155.0</ele><time>2026-04-26T17:30:25.771Z</time></trkpt><trkpt lat="44.6936253" lon="10.2938218"><ele>155.0</ele><time>2026-04-26T17:30:26.773Z</time></trkpt><trkpt lat="44.6938236" lon="10.2938806"><ele>155.0</ele><time>2026-04-26T17:30:27.771Z</time></trkpt><trkpt lat="44.6940193" lon="10.2939441"><ele>155.0</ele><time>2026-04-26T17:30:28.771Z</time></trkpt><trkpt lat="44.6942119" lon="10.2940165"><ele>155.0</ele><time>2026-04-26T17:30:29.773Z</time></trkpt><trkpt lat="44.6944018" lon="10.2941006"><ele>155.0</ele><time>2026-04-26T17:30:30.771Z</time></trkpt><trkpt lat="44.694595" lon="10.2941855"><ele>154.33333333333331</ele><time>2026-04-26T17:30:31.771Z</time></trkpt><trkpt lat="44.6947896" lon="10.2942714"><ele>153.66666666666666</ele><time>2026-04-26T17:30:32.772Z</time></trkpt><trkpt lat="44.6949841" lon="10.2943602"><ele>153.0</ele><time>2026-04-26T17:30:33.771Z</time></trkpt><trkpt lat="44.6951815" lon="10.2944497"><ele>152.66666666666666</ele><time>2026-04-26T17:30:34.771Z</time></trkpt><trkpt lat="44.6953835" lon="10.2945413"><ele>152.33333333333331</ele><time>2026-04-26T17:30:35.771Z</time></trkpt><trkpt lat="44.6955866" lon="10.2946289"><ele>152.0</ele><time>2026-04-26T17:30:36.771Z</time></trkpt><trkpt lat="44.695795" lon="10.2947194"><ele>151.66666666666666</ele><time>2026-04-26T17:30:37.772Z</time></trkpt><trkpt lat="44.6960029" lon="10.2948075"><ele>151.33333333333334</ele><time>2026-04-26T17:30:38.771Z</time></trkpt><trkpt lat="44.696218" lon="10.294898"><ele>151.0</ele><time>2026-04-26T17:30:39.771Z</time></trkpt><trkpt lat="44.696438" lon="10.294989"><ele>151.0</ele><time>2026-04-26T17:30:40.772Z</time></trkpt><trkpt lat="44.6966553" lon="10.2950727"><ele>151.0</ele><time>2026-04-26T17:30:41.771Z</time></trkpt><trkpt lat="44.6968813" lon="10.295149"><ele>149.5</ele><time>2026-04-26T17:30:42.771Z</time></trkpt><trkpt lat="44.6971116" lon="10.295215"><ele>148.0</ele><time>2026-04-26T17:30:43.771Z</time></trkpt><trkpt lat="44.6973444" lon="10.2952742"><ele>148.0</ele><time>2026-04-26T17:30:44.771Z</time></trkpt><trkpt lat="44.6975791" lon="10.2953242"><ele>148.0</ele><time>2026-04-26T17:30:45.772Z</time></trkpt><trkpt lat="44.6978154" lon="10.2953693"><ele>148.0</ele><time>2026-04-26T17:30:46.771Z</time></trkpt><trkpt lat="44.6980487" lon="10.2954125"><ele>148.0</ele><time>2026-04-26T17:30:47.771Z</time></trkpt><trkpt lat="44.6982792" lon="10.2954563"><ele>148.0</ele><time>2026-04-26T17:30:48.771Z</time></trkpt><trkpt lat="44.6985098" lon="10.2954999"><ele>148.0</ele><time>2026-04-26T17:30:49.771Z</time></trkpt><trkpt lat="44.6987429" lon="10.2955429"><ele>148.0</ele><time>2026-04-26T17:30:50.772Z</time></trkpt><trkpt lat="44.6989669" lon="10.2956012"><ele>148.0</ele><time>2026-04-26T17:30:51.771Z</time></trkpt><trkpt lat="44.6991908" lon="10.2956605"><ele>148.0</ele><time>2026-04-26T17:30:52.772Z</time></trkpt><trkpt lat="44.6994095" lon="10.2957629"><ele>148.0</ele><time>2026-04-26T17:30:53.771Z</time></trkpt><trkpt lat="44.6996213" lon="10.2958695"><ele>147.5</ele><time>2026-04-26T17:30:54.771Z</time></trkpt><trkpt lat="44.6998379" lon="10.2959867"><ele>147.0</ele><time>2026-04-26T17:30:55.772Z</time></trkpt><trkpt lat="44.700058" lon="10.2961051"><ele>146.0</ele><time>2026-04-26T17:30:56.771Z</time></trkpt><trkpt lat="44.7002796" lon="10.2962173"><ele>145.0</ele><time>2026-04-26T17:30:57.771Z</time></trkpt><trkpt lat="44.7005024" lon="10.2963296"><ele>144.0</ele><time>2026-04-26T17:30:58.772Z</time></trkpt><trkpt lat="44.7007304" lon="10.2964394"><ele>143.0</ele><time>2026-04-26T17:30:59.771Z</time></trkpt><trkpt lat="44.7009576" lon="10.2965441"><ele>143.5</ele><time>2026-04-26T17:31:00.771Z</time></trkpt><trkpt lat="44.7011894" lon="10.2966487"><ele>144.0</ele><time>2026-04-26T17:31:01.771Z</time></trkpt><trkpt lat="44.7014183" lon="10.2967546"><ele>144.0</ele><time>2026-04-26T17:31:02.771Z</time></trkpt><trkpt lat="44.7016521" lon="10.2968596"><ele>144.0</ele><time>2026-04-26T17:31:03.771Z</time></trkpt><trkpt lat="44.7018828" lon="10.2969632"><ele>143.5</ele><time>2026-04-26T17:31:04.771Z</time></trkpt><trkpt lat="44.7021119" lon="10.2970648"><ele>143.0</ele><time>2026-04-26T17:31:05.771Z</time></trkpt><trkpt lat="44.7023364" lon="10.2971665"><ele>143.0</ele><time>2026-04-26T17:31:06.771Z</time></trkpt><trkpt lat="44.7025589" lon="10.2972668"><ele>143.0</ele><time>2026-04-26T17:31:07.771Z</time></trkpt><trkpt lat="44.7027785" lon="10.2973653"><ele>142.0</ele><time>2026-04-26T17:31:08.771Z</time></trkpt><trkpt lat="44.7029969" lon="10.2974657"><ele>141.0</ele><time>2026-04-26T17:31:09.771Z</time></trkpt><trkpt lat="44.7032178" lon="10.2975643"><ele>141.0</ele><time>2026-04-26T17:31:10.772Z</time></trkpt><trkpt lat="44.7034382" lon="10.2976684"><ele>141.0</ele><time>2026-04-26T17:31:11.771Z</time></trkpt><trkpt lat="44.7036593" lon="10.2977652"><ele>142.0</ele><time>2026-04-26T17:31:12.771Z</time></trkpt><trkpt lat="44.7038764" lon="10.2978618"><ele>143.0</ele><time>2026-04-26T17:31:13.771Z</time></trkpt><trkpt lat="44.7040915" lon="10.2979568"><ele>143.0</ele><time>2026-04-26T17:31:14.772Z</time></trkpt><trkpt lat="44.7043086" lon="10.29805"><ele>143.0</ele><time>2026-04-26T17:31:15.771Z</time></trkpt><trkpt lat="44.7045228" lon="10.2981423"><ele>142.66666666666666</ele><time>2026-04-26T17:31:16.772Z</time></trkpt><trkpt lat="44.70474" lon="10.2982289"><ele>142.33333333333334</ele><time>2026-04-26T17:31:17.772Z</time></trkpt><trkpt lat="44.7049543" lon="10.2983103"><ele>142.0</ele><time>2026-04-26T17:31:18.772Z</time></trkpt><trkpt lat="44.7051679" lon="10.2983906"><ele>141.66666666666669</ele><time>2026-04-26T17:31:19.772Z</time></trkpt><trkpt lat="44.705372" lon="10.2984654"><ele>141.33333333333334</ele><time>2026-04-26T17:31:20.771Z</time></trkpt><trkpt lat="44.705565" lon="10.2985389"><ele>141.0</ele><time>2026-04-26T17:31:21.771Z</time></trkpt><trkpt lat="44.7057475" lon="10.2986081"><ele>141.0</ele><time>2026-04-26T17:31:22.771Z</time></trkpt><trkpt lat="44.7059187" lon="10.2986716"><ele>141.0</ele><time>2026-04-26T17:31:23.772Z</time></trkpt><trkpt lat="44.7060904" lon="10.2987346"><ele>141.0</ele><time>2026-04-26T17:31:24.771Z</time></trkpt><trkpt lat="44.7062676" lon="10.298808"><ele>140.66666666666666</ele><time>2026-04-26T17:31:25.771Z</time></trkpt><trkpt lat="44.7064497" lon="10.2988731"><ele>140.33333333333331</ele><time>2026-04-26T17:31:26.772Z</time></trkpt><trkpt lat="44.7066328" lon="10.2989404"><ele>140.0</ele><time>2026-04-26T17:31:27.771Z</time></trkpt><trkpt lat="44.706817" lon="10.2990093"><ele>139.66666666666666</ele><time>2026-04-26T17:31:28.772Z</time></trkpt><trkpt lat="44.7070049" lon="10.2990834"><ele>139.33333333333334</ele><time>2026-04-26T17:31:29.772Z</time></trkpt><trkpt lat="44.7071887" lon="10.2991504"><ele>139.0</ele><time>2026-04-26T17:31:30.771Z</time></trkpt><trkpt lat="44.7073674" lon="10.299218"><ele>139.0</ele><time>2026-04-26T17:31:31.771Z</time></trkpt><trkpt lat="44.7075422" lon="10.2992822"><ele>139.0</ele><time>2026-04-26T17:31:32.771Z</time></trkpt><trkpt lat="44.7077112" lon="10.2993425"><ele>139.0</ele><time>2026-04-26T17:31:33.771Z</time></trkpt><trkpt lat="44.7078846" lon="10.299411"><ele>138.0</ele><time>2026-04-26T17:31:34.772Z</time></trkpt><trkpt lat="44.7080608" lon="10.2994789"><ele>137.0</ele><time>2026-04-26T17:31:35.771Z</time></trkpt><trkpt lat="44.708237" lon="10.2995464"><ele>136.0</ele><time>2026-04-26T17:31:36.771Z</time></trkpt><trkpt lat="44.7084106" lon="10.2996139"><ele>135.66666666666669</ele><time>2026-04-26T17:31:37.772Z</time></trkpt><trkpt lat="44.7085816" lon="10.299677"><ele>135.33333333333334</ele><time>2026-04-26T17:31:38.772Z</time></trkpt><trkpt lat="44.7087509" lon="10.2997344"><ele>135.0</ele><time>2026-04-26T17:31:39.771Z</time></trkpt><trkpt lat="44.7089241" lon="10.299783"><ele>134.66666666666666</ele><time>2026-04-26T17:31:40.771Z</time></trkpt><trkpt lat="44.7091015" lon="10.299824"><ele>134.33333333333331</ele><time>2026-04-26T17:31:41.771Z</time></trkpt><trkpt lat="44.7092809" lon="10.2998507"><ele>134.0</ele><time>2026-04-26T17:31:42.771Z</time></trkpt><trkpt lat="44.7094614" lon="10.2998852"><ele>134.0</ele><time>2026-04-26T17:31:43.771Z</time></trkpt><trkpt lat="44.7096388" lon="10.2999225"><ele>134.0</ele><time>2026-04-26T17:31:44.772Z</time></trkpt><trkpt lat="44.7098141" lon="10.2999596"><ele>134.0</ele><time>2026-04-26T17:31:45.771Z</time></trkpt><trkpt lat="44.7099865" lon="10.3000071"><ele>134.0</ele><time>2026-04-26T17:31:46.771Z</time></trkpt><trkpt lat="44.7101525" lon="10.3000608"><ele>134.0</ele><time>2026-04-26T17:31:47.772Z</time></trkpt><trkpt lat="44.7103151" lon="10.3001247"><ele>134.0</ele><time>2026-04-26T17:31:48.771Z</time></trkpt><trkpt lat="44.7104719" lon="10.3001967"><ele>133.66666666666666</ele><time>2026-04-26T17:31:49.771Z</time></trkpt><trkpt lat="44.7106243" lon="10.3002746"><ele>133.33333333333334</ele><time>2026-04-26T17:31:50.772Z</time></trkpt><trkpt lat="44.7107663" lon="10.3003559"><ele>133.0</ele><time>2026-04-26T17:31:51.771Z</time></trkpt><trkpt lat="44.7109035" lon="10.3004287"><ele>133.0</ele><time>2026-04-26T17:31:52.771Z</time></trkpt><trkpt lat="44.7110313" lon="10.3004977"><ele>133.0</ele><time>2026-04-26T17:31:53.772Z</time></trkpt><trkpt lat="44.7111557" lon="10.3005681"><ele>133.0</ele><time>2026-04-26T17:31:54.772Z</time></trkpt><trkpt lat="44.7112829" lon="10.3006401"><ele>133.0</ele><time>2026-04-26T17:31:55.771Z</time></trkpt><trkpt lat="44.7114172" lon="10.3007082"><ele>133.66666666666669</ele><time>2026-04-26T17:31:56.772Z</time></trkpt><trkpt lat="44.7115585" lon="10.3007802"><ele>134.33333333333334</ele><time>2026-04-26T17:31:57.771Z</time></trkpt><trkpt lat="44.7117073" lon="10.3008528"><ele>135.0</ele><time>2026-04-26T17:31:58.771Z</time></trkpt><trkpt lat="44.7118617" lon="10.3009216"><ele>134.0</ele><time>2026-04-26T17:31:59.772Z</time></trkpt><trkpt lat="44.7120232" lon="10.3009895"><ele>133.0</ele><time>2026-04-26T17:32:00.771Z</time></trkpt><trkpt lat="44.7121899" lon="10.301063"><ele>132.0</ele><time>2026-04-26T17:32:01.771Z</time></trkpt><trkpt lat="44.7123607" lon="10.3011366"><ele>132.0</ele><time>2026-04-26T17:32:02.773Z</time></trkpt><trkpt lat="44.7125371" lon="10.3012119"><ele>132.0</ele><time>2026-04-26T17:32:03.771Z</time></trkpt><trkpt lat="44.7127127" lon="10.3012822"><ele>132.0</ele><time>2026-04-26T17:32:04.771Z</time></trkpt><trkpt lat="44.712898" lon="10.3013587"><ele>131.0</ele><time>2026-04-26T17:32:05.772Z</time></trkpt><trkpt lat="44.7130888" lon="10.3014359"><ele>130.0</ele><time>2026-04-26T17:32:06.771Z</time></trkpt><trkpt lat="44.7132791" lon="10.3015145"><ele>129.0</ele><time>2026-04-26T17:32:07.771Z</time></trkpt><trkpt lat="44.7134752" lon="10.3016012"><ele>129.33333333333334</ele><time>2026-04-26T17:32:08.772Z</time></trkpt><trkpt lat="44.7136736" lon="10.3016882"><ele>129.66666666666669</ele><time>2026-04-26T17:32:09.771Z</time></trkpt><trkpt lat="44.7138722" lon="10.3017766"><ele>130.0</ele><time>2026-04-26T17:32:10.771Z</time></trkpt><trkpt lat="44.7140722" lon="10.3018636"><ele>130.0</ele><time>2026-04-26T17:32:11.771Z</time></trkpt><trkpt lat="44.7142736" lon="10.3019519"><ele>130.0</ele><time>2026-04-26T17:32:12.771Z</time></trkpt><trkpt lat="44.7144759" lon="10.3020425"><ele>130.0</ele><time>2026-04-26T17:32:13.771Z</time></trkpt><trkpt lat="44.7146772" lon="10.3021342"><ele>130.0</ele><time>2026-04-26T17:32:14.772Z</time></trkpt><trkpt lat="44.7148759" lon="10.302226"><ele>130.0</ele><time>2026-04-26T17:32:15.771Z</time></trkpt><trkpt lat="44.7150711" lon="10.3023174"><ele>130.0</ele><time>2026-04-26T17:32:16.771Z</time></trkpt><trkpt lat="44.7152656" lon="10.3024071"><ele>129.33333333333334</ele><time>2026-04-26T17:32:17.773Z</time></trkpt><trkpt lat="44.7154586" lon="10.3024945"><ele>128.66666666666666</ele><time>2026-04-26T17:32:18.771Z</time></trkpt><trkpt lat="44.7156505" lon="10.3025708"><ele>128.0</ele><time>2026-04-26T17:32:19.771Z</time></trkpt><trkpt lat="44.715841" lon="10.3026369"><ele>128.0</ele><time>2026-04-26T17:32:20.772Z</time></trkpt><trkpt lat="44.7160306" lon="10.3027037"><ele>128.0</ele><time>2026-04-26T17:32:21.771Z</time></trkpt><trkpt lat="44.7162183" lon="10.3027658"><ele>128.0</ele><time>2026-04-26T17:32:22.771Z</time></trkpt><trkpt lat="44.7164004" lon="10.3028247"><ele>128.0</ele><time>2026-04-26T17:32:23.771Z</time></trkpt><trkpt lat="44.7165818" lon="10.3028804"><ele>128.0</ele><time>2026-04-26T17:32:24.771Z</time></trkpt><trkpt lat="44.7167632" lon="10.3029366"><ele>128.0</ele><time>2026-04-26T17:32:25.772Z</time></trkpt><trkpt lat="44.7169412" lon="10.3029899"><ele>128.0</ele><time>2026-04-26T17:32:26.771Z</time></trkpt><trkpt lat="44.7171106" lon="10.3030425"><ele>128.0</ele><time>2026-04-26T17:32:27.772Z</time></trkpt><trkpt lat="44.7172758" lon="10.3030982"><ele>128.0</ele><time>2026-04-26T17:32:28.771Z</time></trkpt><trkpt lat="44.7174319" lon="10.3031575"><ele>127.75</ele><time>2026-04-26T17:32:29.771Z</time></trkpt><trkpt lat="44.71758" lon="10.3032177"><ele>127.5</ele><time>2026-04-26T17:32:30.772Z</time></trkpt><trkpt lat="44.7177171" lon="10.3032773"><ele>127.25</ele><time>2026-04-26T17:32:31.772Z</time></trkpt><trkpt lat="44.7178471" lon="10.3033416"><ele>127.0</ele><time>2026-04-26T17:32:32.771Z</time></trkpt><trkpt lat="44.7179788" lon="10.3034094"><ele>127.0</ele><time>2026-04-26T17:32:33.772Z</time></trkpt><trkpt lat="44.7181073" lon="10.3034747"><ele>127.0</ele><time>2026-04-26T17:32:34.771Z</time></trkpt><trkpt lat="44.7182246" lon="10.3035392"><ele>127.0</ele><time>2026-04-26T17:32:35.772Z</time></trkpt><trkpt lat="44.7183391" lon="10.3035935"><ele>127.0</ele><time>2026-04-26T17:32:36.771Z</time></trkpt><trkpt lat="44.7184472" lon="10.3036423"><ele>127.0</ele><time>2026-04-26T17:32:37.771Z</time></trkpt><trkpt lat="44.7185482" lon="10.3036918"><ele>126.99999999999999</ele><time>2026-04-26T17:32:38.772Z</time></trkpt><trkpt lat="44.7186479" lon="10.3037337"><ele>126.99999999999999</ele><time>2026-04-26T17:32:39.771Z</time></trkpt><trkpt lat="44.7187408" lon="10.3037761"><ele>127.0</ele><time>2026-04-26T17:32:40.772Z</time></trkpt><trkpt lat="44.7188418" lon="10.3038209"><ele>127.0</ele><time>2026-04-26T17:32:41.772Z</time></trkpt><trkpt lat="44.7189507" lon="10.3038622"><ele>127.0</ele><time>2026-04-26T17:32:42.771Z</time></trkpt><trkpt lat="44.7190701" lon="10.3039143"><ele>127.0</ele><time>2026-04-26T17:32:43.771Z</time></trkpt><trkpt lat="44.7192014" lon="10.3039689"><ele>127.0</ele><time>2026-04-26T17:32:44.771Z</time></trkpt><trkpt lat="44.7193527" lon="10.3040374"><ele>127.0</ele><time>2026-04-26T17:32:45.772Z</time></trkpt><trkpt lat="44.7195225" lon="10.3041208"><ele>126.66666666666667</ele><time>2026-04-26T17:32:46.771Z</time></trkpt><trkpt lat="44.7197137" lon="10.3042071"><ele>126.33333333333334</ele><time>2026-04-26T17:32:47.771Z</time></trkpt><trkpt lat="44.7198781" lon="10.304293"><ele>126.0</ele><time>2026-04-26T17:32:48.771Z</time></trkpt><trkpt lat="44.7200108" lon="10.3043579"><ele>126.0</ele><time>2026-04-26T17:32:49.772Z</time></trkpt><trkpt lat="44.7201055" lon="10.3044116"><ele>126.0</ele><time>2026-04-26T17:32:50.772Z</time></trkpt><trkpt lat="44.7201822" lon="10.3044168"><ele>126.0</ele><time>2026-04-26T17:33:34.771Z</time></trkpt><trkpt lat="44.7202509" lon="10.3044533"><ele>126.0</ele><time>2026-04-26T17:33:36.771Z</time></trkpt><trkpt lat="44.7203886" lon="10.3045115"><ele>126.0</ele><time>2026-04-26T17:33:38.771Z</time></trkpt><trkpt lat="44.7204795" lon="10.3045413"><ele>125.66666666666667</ele><time>2026-04-26T17:33:39.771Z</time></trkpt><trkpt lat="44.720566" lon="10.3045706"><ele>125.33333333333334</ele><time>2026-04-26T17:33:40.771Z</time></trkpt><trkpt lat="44.7206468" lon="10.3045998"><ele>125.0</ele><time>2026-04-26T17:33:41.771Z</time></trkpt><trkpt lat="44.720732" lon="10.3046317"><ele>124.66666666666667</ele><time>2026-04-26T17:33:42.772Z</time></trkpt><trkpt lat="44.7208229" lon="10.3046595"><ele>124.33333333333334</ele><time>2026-04-26T17:33:43.772Z</time></trkpt><trkpt lat="44.7209166" lon="10.3046873"><ele>124.0</ele><time>2026-04-26T17:33:44.772Z</time></trkpt><trkpt lat="44.7210145" lon="10.304716"><ele>124.0</ele><time>2026-04-26T17:33:45.771Z</time></trkpt><trkpt lat="44.7211126" lon="10.3047451"><ele>124.0</ele><time>2026-04-26T17:33:46.772Z</time></trkpt><trkpt lat="44.7212143" lon="10.3047849"><ele>124.0</ele><time>2026-04-26T17:33:47.771Z</time></trkpt><trkpt lat="44.7213198" lon="10.304821"><ele>124.0</ele><time>2026-04-26T17:33:48.771Z</time></trkpt><trkpt lat="44.7214276" lon="10.3048613"><ele>124.0</ele><time>2026-04-26T17:33:49.772Z</time></trkpt><trkpt lat="44.7215395" lon="10.3049019"><ele>124.25</ele><time>2026-04-26T17:33:50.771Z</time></trkpt><trkpt lat="44.7216565" lon="10.3049419"><ele>124.5</ele><time>2026-04-26T17:33:51.771Z</time></trkpt><trkpt lat="44.7217786" lon="10.3049913"><ele>124.75</ele><time>2026-04-26T17:33:52.772Z</time></trkpt><trkpt lat="44.7218973" lon="10.3050425"><ele>125.0</ele><time>2026-04-26T17:33:53.771Z</time></trkpt><trkpt lat="44.7220217" lon="10.3050897"><ele>124.5</ele><time>2026-04-26T17:33:54.771Z</time></trkpt><trkpt lat="44.7221498" lon="10.3051394"><ele>124.0</ele><time>2026-04-26T17:33:55.771Z</time></trkpt><trkpt lat="44.7222857" lon="10.3051953"><ele>123.5</ele><time>2026-04-26T17:33:56.771Z</time></trkpt><trkpt lat="44.7224247" lon="10.305253"><ele>123.0</ele><time>2026-04-26T17:33:57.771Z</time></trkpt><trkpt lat="44.7225695" lon="10.3053129"><ele>123.0</ele><time>2026-04-26T17:33:58.771Z</time></trkpt><trkpt lat="44.7227173" lon="10.3053799"><ele>123.0</ele><time>2026-04-26T17:33:59.772Z</time></trkpt><trkpt lat="44.72287" lon="10.3054396"><ele>123.0</ele><time>2026-04-26T17:34:00.771Z</time></trkpt><trkpt lat="44.7230269" lon="10.3055073"><ele>123.0</ele><time>2026-04-26T17:34:01.772Z</time></trkpt><trkpt lat="44.7231848" lon="10.3055708"><ele>123.0</ele><time>2026-04-26T17:34:02.771Z</time></trkpt><trkpt lat="44.7233464" lon="10.305639"><ele>123.0</ele><time>2026-04-26T17:34:03.771Z</time></trkpt><trkpt lat="44.7235095" lon="10.3057063"><ele>122.0</ele><time>2026-04-26T17:34:04.771Z</time></trkpt><trkpt lat="44.7236846" lon="10.3057802"><ele>121.0</ele><time>2026-04-26T17:34:05.771Z</time></trkpt><trkpt lat="44.723894" lon="10.3058527"><ele>120.0</ele><time>2026-04-26T17:34:06.771Z</time></trkpt><trkpt lat="44.7241402" lon="10.3059569"><ele>119.0</ele><time>2026-04-26T17:34:07.772Z</time></trkpt><trkpt lat="44.7244115" lon="10.3060775"><ele>118.0</ele><time>2026-04-26T17:34:08.772Z</time></trkpt><trkpt lat="44.7247058" lon="10.3062069"><ele>118.0</ele><time>2026-04-26T17:34:09.771Z</time></trkpt><trkpt lat="44.7250151" lon="10.3063413"><ele>118.0</ele><time>2026-04-26T17:34:10.771Z</time></trkpt><trkpt lat="44.7253316" lon="10.3064766"><ele>118.0</ele><time>2026-04-26T17:34:11.771Z</time></trkpt><trkpt lat="44.7256504" lon="10.3066041"><ele>118.0</ele><time>2026-04-26T17:34:12.772Z</time></trkpt><trkpt lat="44.7259631" lon="10.3067277"><ele>117.5</ele><time>2026-04-26T17:34:13.772Z</time></trkpt><trkpt lat="44.7262646" lon="10.3068457"><ele>117.0</ele><time>2026-04-26T17:34:14.771Z</time></trkpt><trkpt lat="44.7265496" lon="10.3069557"><ele>117.0</ele><time>2026-04-26T17:34:15.771Z</time></trkpt><trkpt lat="44.7268277" lon="10.3070618"><ele>117.0</ele><time>2026-04-26T17:34:16.771Z</time></trkpt><trkpt lat="44.7271001" lon="10.3071683"><ele>116.5</ele><time>2026-04-26T17:34:17.771Z</time></trkpt><trkpt lat="44.7273631" lon="10.307274"><ele>116.0</ele><time>2026-04-26T17:34:18.772Z</time></trkpt><trkpt lat="44.727613" lon="10.3073791"><ele>115.0</ele><time>2026-04-26T17:34:19.771Z</time></trkpt><trkpt lat="44.72786" lon="10.3074859"><ele>114.0</ele><time>2026-04-26T17:34:20.771Z</time></trkpt><trkpt lat="44.7281019" lon="10.3075877"><ele>114.0</ele><time>2026-04-26T17:34:21.773Z</time></trkpt><trkpt lat="44.7283439" lon="10.3076857"><ele>114.0</ele><time>2026-04-26T17:34:22.771Z</time></trkpt><trkpt lat="44.7285829" lon="10.3077805"><ele>113.0</ele><time>2026-04-26T17:34:23.771Z</time></trkpt><trkpt lat="44.7288178" lon="10.3078782"><ele>112.0</ele><time>2026-04-26T17:34:24.771Z</time></trkpt><trkpt lat="44.7290525" lon="10.3079746"><ele>112.0</ele><time>2026-04-26T17:34:25.771Z</time></trkpt><trkpt lat="44.7292887" lon="10.3080715"><ele>112.0</ele><time>2026-04-26T17:34:26.771Z</time></trkpt><trkpt lat="44.729525" lon="10.3081667"><ele>112.0</ele><time>2026-04-26T17:34:27.771Z</time></trkpt><trkpt lat="44.7297604" lon="10.3082648"><ele>112.0</ele><time>2026-04-26T17:34:28.772Z</time></trkpt><trkpt lat="44.7299993" lon="10.3083631"><ele>112.0</ele><time>2026-04-26T17:34:29.771Z</time></trkpt><trkpt lat="44.7302356" lon="10.3084626"><ele>112.0</ele><time>2026-04-26T17:34:30.771Z</time></trkpt><trkpt lat="44.7304724" lon="10.3085648"><ele>112.0</ele><time>2026-04-26T17:34:31.771Z</time></trkpt><trkpt lat="44.7307088" lon="10.3086679"><ele>112.0</ele><time>2026-04-26T17:34:32.771Z</time></trkpt><trkpt lat="44.7309468" lon="10.3087655"><ele>111.5</ele><time>2026-04-26T17:34:33.771Z</time></trkpt><trkpt lat="44.7311853" lon="10.308862"><ele>111.0</ele><time>2026-04-26T17:34:34.772Z</time></trkpt><trkpt lat="44.7314241" lon="10.3089626"><ele>110.5</ele><time>2026-04-26T17:34:35.771Z</time></trkpt><trkpt lat="44.7316621" lon="10.3090634"><ele>110.0</ele><time>2026-04-26T17:34:36.771Z</time></trkpt><trkpt lat="44.7319041" lon="10.3091654"><ele>110.0</ele><time>2026-04-26T17:34:37.771Z</time></trkpt><trkpt lat="44.7321436" lon="10.3092661"><ele>110.0</ele><time>2026-04-26T17:34:38.771Z</time></trkpt><trkpt lat="44.7323855" lon="10.3093643"><ele>110.0</ele><time>2026-04-26T17:34:39.771Z</time></trkpt><trkpt lat="44.7326264" lon="10.3094592"><ele>110.0</ele><time>2026-04-26T17:34:40.771Z</time></trkpt><trkpt lat="44.7328734" lon="10.3095547"><ele>110.0</ele><time>2026-04-26T17:34:41.772Z</time></trkpt><trkpt lat="44.7331147" lon="10.3096457"><ele>110.0</ele><time>2026-04-26T17:34:42.771Z</time></trkpt><trkpt lat="44.7333583" lon="10.3097358"><ele>110.0</ele><time>2026-04-26T17:34:43.771Z</time></trkpt><trkpt lat="44.7336023" lon="10.3098272"><ele>110.0</ele><time>2026-04-26T17:34:44.771Z</time></trkpt><trkpt lat="44.7338469" lon="10.3099194"><ele>110.0</ele><time>2026-04-26T17:34:45.771Z</time></trkpt><trkpt lat="44.7340909" lon="10.3100091"><ele>110.0</ele><time>2026-04-26T17:34:46.772Z</time></trkpt><trkpt lat="44.7343352" lon="10.3100997"><ele>109.0</ele><time>2026-04-26T17:34:47.771Z</time></trkpt><trkpt lat="44.73458" lon="10.3101916"><ele>108.0</ele><time>2026-04-26T17:34:48.771Z</time></trkpt><trkpt lat="44.7348318" lon="10.31029"><ele>108.0</ele><time>2026-04-26T17:34:49.771Z</time></trkpt><trkpt lat="44.7350756" lon="10.3103897"><ele>108.0</ele><time>2026-04-26T17:34:50.771Z</time></trkpt><trkpt lat="44.7353184" lon="10.3104942"><ele>107.0</ele><time>2026-04-26T17:34:51.771Z</time></trkpt><trkpt lat="44.73556" lon="10.3106"><ele>106.0</ele><time>2026-04-26T17:34:52.772Z</time></trkpt><trkpt lat="44.7358025" lon="10.3107085"><ele>106.0</ele><time>2026-04-26T17:34:53.771Z</time></trkpt><trkpt lat="44.7360511" lon="10.3108212"><ele>106.0</ele><time>2026-04-26T17:34:54.772Z</time></trkpt><trkpt lat="44.7362936" lon="10.3109271"><ele>106.5</ele><time>2026-04-26T17:34:55.771Z</time></trkpt><trkpt lat="44.7365375" lon="10.311034"><ele>107.0</ele><time>2026-04-26T17:34:56.771Z</time></trkpt><trkpt lat="44.7367869" lon="10.3111382"><ele>106.5</ele><time>2026-04-26T17:34:57.771Z</time></trkpt><trkpt lat="44.737035" lon="10.3112513"><ele>106.0</ele><time>2026-04-26T17:34:58.771Z</time></trkpt><trkpt lat="44.7372795" lon="10.311361"><ele>105.5</ele><time>2026-04-26T17:34:59.772Z</time></trkpt><trkpt lat="44.7375244" lon="10.31147"><ele>105.0</ele><time>2026-04-26T17:35:00.771Z</time></trkpt><trkpt lat="44.7377685" lon="10.3115746"><ele>104.5</ele><time>2026-04-26T17:35:01.772Z</time></trkpt><trkpt lat="44.7380092" lon="10.3116853"><ele>104.0</ele><time>2026-04-26T17:35:02.771Z</time></trkpt><trkpt lat="44.7382432" lon="10.3117878"><ele>104.0</ele><time>2026-04-26T17:35:03.771Z</time></trkpt><trkpt lat="44.7384627" lon="10.3118835"><ele>104.0</ele><time>2026-04-26T17:35:04.772Z</time></trkpt><trkpt lat="44.7386756" lon="10.3119699"><ele>104.0</ele><time>2026-04-26T17:35:05.771Z</time></trkpt><trkpt lat="44.7388738" lon="10.3120546"><ele>104.0</ele><time>2026-04-26T17:35:06.771Z</time></trkpt><trkpt lat="44.7390595" lon="10.3121322"><ele>104.0</ele><time>2026-04-26T17:35:07.771Z</time></trkpt><trkpt lat="44.739241" lon="10.3122069"><ele>103.66666666666666</ele><time>2026-04-26T17:35:08.771Z</time></trkpt><trkpt lat="44.7394152" lon="10.3122816"><ele>103.33333333333334</ele><time>2026-04-26T17:35:09.772Z</time></trkpt><trkpt lat="44.7395976" lon="10.3123588"><ele>103.0</ele><time>2026-04-26T17:35:10.771Z</time></trkpt><trkpt lat="44.7397845" lon="10.3124428"><ele>103.0</ele><time>2026-04-26T17:35:11.771Z</time></trkpt><trkpt lat="44.7399756" lon="10.312525"><ele>103.0</ele><time>2026-04-26T17:35:12.771Z</time></trkpt><trkpt lat="44.7401715" lon="10.3126123"><ele>103.0</ele><time>2026-04-26T17:35:13.771Z</time></trkpt><trkpt lat="44.7403632" lon="10.3127018"><ele>102.33333333333334</ele><time>2026-04-26T17:35:14.771Z</time></trkpt><trkpt lat="44.7405578" lon="10.3127902"><ele>101.66666666666666</ele><time>2026-04-26T17:35:15.772Z</time></trkpt><trkpt lat="44.7407509" lon="10.3128769"><ele>101.0</ele><time>2026-04-26T17:35:16.771Z</time></trkpt><trkpt lat="44.7409367" lon="10.3129609"><ele>101.0</ele><time>2026-04-26T17:35:17.771Z</time></trkpt><trkpt lat="44.7411228" lon="10.3130381"><ele>101.0</ele><time>2026-04-26T17:35:18.772Z</time></trkpt><trkpt lat="44.7413111" lon="10.3131143"><ele>101.0</ele><time>2026-04-26T17:35:19.772Z</time></trkpt><trkpt lat="44.7415" lon="10.3131919"><ele>101.0</ele><time>2026-04-26T17:35:20.772Z</time></trkpt><trkpt lat="44.7416878" lon="10.3132704"><ele>101.0</ele><time>2026-04-26T17:35:21.771Z</time></trkpt><trkpt lat="44.7418701" lon="10.3133502"><ele>101.0</ele><time>2026-04-26T17:35:22.772Z</time></trkpt><trkpt lat="44.7420458" lon="10.3134237"><ele>100.66666666666666</ele><time>2026-04-26T17:35:23.771Z</time></trkpt><trkpt lat="44.7422117" lon="10.3134965"><ele>100.33333333333334</ele><time>2026-04-26T17:35:24.772Z</time></trkpt><trkpt lat="44.7423789" lon="10.3135698"><ele>100.0</ele><time>2026-04-26T17:35:25.771Z</time></trkpt><trkpt lat="44.7425381" lon="10.3136429"><ele>100.0</ele><time>2026-04-26T17:35:26.771Z</time></trkpt><trkpt lat="44.7426925" lon="10.3137069"><ele>100.0</ele><time>2026-04-26T17:35:27.771Z</time></trkpt><trkpt lat="44.7428464" lon="10.3137716"><ele>100.0</ele><time>2026-04-26T17:35:28.771Z</time></trkpt><trkpt lat="44.7429957" lon="10.3138333"><ele>100.25</ele><time>2026-04-26T17:35:29.771Z</time></trkpt><trkpt lat="44.7431439" lon="10.313901"><ele>100.5</ele><time>2026-04-26T17:35:30.771Z</time></trkpt><trkpt lat="44.7432848" lon="10.3139605"><ele>100.75</ele><time>2026-04-26T17:35:31.771Z</time></trkpt><trkpt lat="44.7434226" lon="10.3140148"><ele>101.0</ele><time>2026-04-26T17:35:32.771Z</time></trkpt><trkpt lat="44.743554" lon="10.3140732"><ele>100.25</ele><time>2026-04-26T17:35:33.773Z</time></trkpt><trkpt lat="44.7436879" lon="10.3141285"><ele>99.5</ele><time>2026-04-26T17:35:34.771Z</time></trkpt><trkpt lat="44.7438138" lon="10.3141827"><ele>98.75</ele><time>2026-04-26T17:35:35.771Z</time></trkpt><trkpt lat="44.7439312" lon="10.3142327"><ele>98.0</ele><time>2026-04-26T17:35:36.771Z</time></trkpt><trkpt lat="44.7440389" lon="10.3142795"><ele>98.0</ele><time>2026-04-26T17:35:37.772Z</time></trkpt><trkpt lat="44.7441458" lon="10.3143193"><ele>98.0</ele><time>2026-04-26T17:35:38.771Z</time></trkpt><trkpt lat="44.7442584" lon="10.3143647"><ele>98.0</ele><time>2026-04-26T17:35:39.771Z</time></trkpt><trkpt lat="44.7443773" lon="10.3144253"><ele>98.0</ele><time>2026-04-26T17:35:40.771Z</time></trkpt><trkpt lat="44.7444899" lon="10.3144779"><ele>97.5</ele><time>2026-04-26T17:35:41.771Z</time></trkpt><trkpt lat="44.7446069" lon="10.3145213"><ele>97.0</ele><time>2026-04-26T17:35:42.771Z</time></trkpt><trkpt lat="44.744726" lon="10.3145778"><ele>96.5</ele><time>2026-04-26T17:35:43.772Z</time></trkpt><trkpt lat="44.7448483" lon="10.3146277"><ele>96.0</ele><time>2026-04-26T17:35:44.771Z</time></trkpt><trkpt lat="44.7449642" lon="10.3146727"><ele>96.0</ele><time>2026-04-26T17:35:45.771Z</time></trkpt><trkpt lat="44.7450837" lon="10.3147246"><ele>96.0</ele><time>2026-04-26T17:35:46.771Z</time></trkpt><trkpt lat="44.7451988" lon="10.3147654"><ele>96.0</ele><time>2026-04-26T17:35:47.771Z</time></trkpt><trkpt lat="44.7453251" lon="10.314813"><ele>96.0</ele><time>2026-04-26T17:35:48.771Z</time></trkpt><trkpt lat="44.7454414" lon="10.314861"><ele>96.25</ele><time>2026-04-26T17:35:49.772Z</time></trkpt><trkpt lat="44.7455601" lon="10.3149052"><ele>96.5</ele><time>2026-04-26T17:35:50.771Z</time></trkpt><trkpt lat="44.7456825" lon="10.3149548"><ele>96.75</ele><time>2026-04-26T17:35:51.771Z</time></trkpt><trkpt lat="44.7458087" lon="10.3150081"><ele>97.0</ele><time>2026-04-26T17:35:52.772Z</time></trkpt><trkpt lat="44.74594" lon="10.3150637"><ele>96.5</ele><time>2026-04-26T17:35:53.771Z</time></trkpt><trkpt lat="44.746075" lon="10.3151206"><ele>96.0</ele><time>2026-04-26T17:35:54.771Z</time></trkpt><trkpt lat="44.7462048" lon="10.3151761"><ele>95.5</ele><time>2026-04-26T17:35:55.771Z</time></trkpt><trkpt lat="44.7463447" lon="10.3152317"><ele>95.0</ele><time>2026-04-26T17:35:56.771Z</time></trkpt><trkpt lat="44.7464685" lon="10.3152922"><ele>95.0</ele><time>2026-04-26T17:35:57.772Z</time></trkpt><trkpt lat="44.7465905" lon="10.3153409"><ele>95.0</ele><time>2026-04-26T17:35:58.771Z</time></trkpt><trkpt lat="44.7467201" lon="10.3153883"><ele>95.0</ele><time>2026-04-26T17:35:59.771Z</time></trkpt><trkpt lat="44.7468478" lon="10.3154416"><ele>95.0</ele><time>2026-04-26T17:36:00.772Z</time></trkpt><trkpt lat="44.7469824" lon="10.315498"><ele>94.75</ele><time>2026-04-26T17:36:01.771Z</time></trkpt><trkpt lat="44.7471193" lon="10.3155538"><ele>94.5</ele><time>2026-04-26T17:36:02.771Z</time></trkpt><trkpt lat="44.7472584" lon="10.3156137"><ele>94.25</ele><time>2026-04-26T17:36:03.773Z</time></trkpt><trkpt lat="44.7474005" lon="10.3156803"><ele>94.0</ele><time>2026-04-26T17:36:04.771Z</time></trkpt><trkpt lat="44.7475391" lon="10.315744"><ele>94.0</ele><time>2026-04-26T17:36:05.771Z</time></trkpt><trkpt lat="44.7476832" lon="10.3158013"><ele>94.0</ele><time>2026-04-26T17:36:06.772Z</time></trkpt><trkpt lat="44.7478256" lon="10.3158613"><ele>94.0</ele><time>2026-04-26T17:36:07.771Z</time></trkpt><trkpt lat="44.7479653" lon="10.3159174"><ele>94.0</ele><time>2026-04-26T17:36:08.773Z</time></trkpt><trkpt lat="44.7481028" lon="10.3159792"><ele>94.0</ele><time>2026-04-26T17:36:09.772Z</time></trkpt><trkpt lat="44.7482332" lon="10.3160332"><ele>94.0</ele><time>2026-04-26T17:36:10.771Z</time></trkpt><trkpt lat="44.7483559" lon="10.3160869"><ele>94.0</ele><time>2026-04-26T17:36:11.772Z</time></trkpt><trkpt lat="44.7484839" lon="10.3161436"><ele>94.0</ele><time>2026-04-26T17:36:12.771Z</time></trkpt><trkpt lat="44.7486179" lon="10.3161951"><ele>93.5</ele><time>2026-04-26T17:36:13.771Z</time></trkpt><trkpt lat="44.7487434" lon="10.3162461"><ele>93.0</ele><time>2026-04-26T17:36:14.772Z</time></trkpt><trkpt lat="44.7488641" lon="10.3162961"><ele>92.5</ele><time>2026-04-26T17:36:15.772Z</time></trkpt><trkpt lat="44.7489835" lon="10.3163457"><ele>92.0</ele><time>2026-04-26T17:36:16.771Z</time></trkpt><trkpt lat="44.7491118" lon="10.3163963"><ele>91.75</ele><time>2026-04-26T17:36:17.771Z</time></trkpt><trkpt lat="44.7492419" lon="10.3164494"><ele>91.5</ele><time>2026-04-26T17:36:18.771Z</time></trkpt><trkpt lat="44.7493719" lon="10.3165018"><ele>91.25</ele><time>2026-04-26T17:36:19.772Z</time></trkpt><trkpt lat="44.7494979" lon="10.3165463"><ele>91.0</ele><time>2026-04-26T17:36:20.771Z</time></trkpt><trkpt lat="44.7496191" lon="10.3165902"><ele>91.0</ele><time>2026-04-26T17:36:21.771Z</time></trkpt><trkpt lat="44.7497362" lon="10.3166265"><ele>91.0</ele><time>2026-04-26T17:36:22.771Z</time></trkpt><trkpt lat="44.7498506" lon="10.3166661"><ele>91.0</ele><time>2026-04-26T17:36:23.771Z</time></trkpt><trkpt lat="44.7499688" lon="10.3167058"><ele>91.0</ele><time>2026-04-26T17:36:24.771Z</time></trkpt><trkpt lat="44.7500772" lon="10.3167437"><ele>91.0</ele><time>2026-04-26T17:36:25.771Z</time></trkpt><trkpt lat="44.7501848" lon="10.3167828"><ele>91.0</ele><time>2026-04-26T17:36:26.771Z</time></trkpt><trkpt lat="44.7502943" lon="10.3168192"><ele>91.0</ele><time>2026-04-26T17:36:27.772Z</time></trkpt><trkpt lat="44.7504019" lon="10.3168503"><ele>91.0</ele><time>2026-04-26T17:36:28.771Z</time></trkpt><trkpt lat="44.7505024" lon="10.3168863"><ele>91.0</ele><time>2026-04-26T17:36:29.772Z</time></trkpt><trkpt lat="44.7505964" lon="10.3169161"><ele>91.0</ele><time>2026-04-26T17:36:30.771Z</time></trkpt><trkpt lat="44.7506715" lon="10.3169361"><ele>91.0</ele><time>2026-04-26T17:36:31.771Z</time></trkpt><trkpt lat="44.7507469" lon="10.3169614"><ele>91.0</ele><time>2026-04-26T17:36:32.771Z</time></trkpt><trkpt lat="44.7508215" lon="10.3169898"><ele>91.0</ele><time>2026-04-26T17:36:33.771Z</time></trkpt><trkpt lat="44.7508934" lon="10.3170117"><ele>91.0</ele><time>2026-04-26T17:36:34.772Z</time></trkpt><trkpt lat="44.7509624" lon="10.3170314"><ele>91.0</ele><time>2026-04-26T17:36:35.771Z</time></trkpt><trkpt lat="44.7510307" lon="10.3170544"><ele>91.0</ele><time>2026-04-26T17:36:36.771Z</time></trkpt><trkpt lat="44.7511026" lon="10.3170776"><ele>90.8</ele><time>2026-04-26T17:36:37.771Z</time></trkpt><trkpt lat="44.7511835" lon="10.3171088"><ele>90.6</ele><time>2026-04-26T17:36:38.771Z</time></trkpt><trkpt lat="44.7512799" lon="10.317152"><ele>90.4</ele><time>2026-04-26T17:36:39.772Z</time></trkpt><trkpt lat="44.7513748" lon="10.3171905"><ele>90.2</ele><time>2026-04-26T17:36:40.772Z</time></trkpt><trkpt lat="44.7514808" lon="10.3172266"><ele>90.0</ele><time>2026-04-26T17:36:41.771Z</time></trkpt><trkpt lat="44.7515894" lon="10.3172663"><ele>89.8</ele><time>2026-04-26T17:36:42.772Z</time></trkpt><trkpt lat="44.7516972" lon="10.3173086"><ele>89.6</ele><time>2026-04-26T17:36:43.771Z</time></trkpt><trkpt lat="44.7517961" lon="10.317353"><ele>89.4</ele><time>2026-04-26T17:36:44.772Z</time></trkpt><trkpt lat="44.7518978" lon="10.3173928"><ele>89.2</ele><time>2026-04-26T17:36:45.772Z</time></trkpt><trkpt lat="44.7520036" lon="10.3174301"><ele>89.0</ele><time>2026-04-26T17:36:46.771Z</time></trkpt><trkpt lat="44.7521205" lon="10.3174693"><ele>89.0</ele><time>2026-04-26T17:36:47.772Z</time></trkpt><trkpt lat="44.7522444" lon="10.3175103"><ele>89.0</ele><time>2026-04-26T17:36:48.771Z</time></trkpt><trkpt lat="44.7523745" lon="10.3175606"><ele>89.0</ele><time>2026-04-26T17:36:49.771Z</time></trkpt><trkpt lat="44.7525067" lon="10.3176097"><ele>89.0</ele><time>2026-04-26T17:36:50.771Z</time></trkpt><trkpt lat="44.7526398" lon="10.3176579"><ele>88.25</ele><time>2026-04-26T17:36:51.771Z</time></trkpt><trkpt lat="44.7527706" lon="10.3177126"><ele>87.5</ele><time>2026-04-26T17:36:52.772Z</time></trkpt><trkpt lat="44.7528951" lon="10.3177606"><ele>86.75</ele><time>2026-04-26T17:36:53.771Z</time></trkpt><trkpt lat="44.7530197" lon="10.3178093"><ele>86.0</ele><time>2026-04-26T17:36:54.772Z</time></trkpt><trkpt lat="44.7531462" lon="10.3178518"><ele>86.0</ele><time>2026-04-26T17:36:55.771Z</time></trkpt><trkpt lat="44.7532934" lon="10.3179028"><ele>86.0</ele><time>2026-04-26T17:36:56.771Z</time></trkpt><trkpt lat="44.7534455" lon="10.3179559"><ele>86.0</ele><time>2026-04-26T17:36:57.771Z</time></trkpt><trkpt lat="44.7536017" lon="10.3180155"><ele>86.0</ele><time>2026-04-26T17:36:58.771Z</time></trkpt><trkpt lat="44.753747" lon="10.318076"><ele>86.0</ele><time>2026-04-26T17:36:59.771Z</time></trkpt><trkpt lat="44.7538939" lon="10.3181334"><ele>86.0</ele><time>2026-04-26T17:37:00.772Z</time></trkpt><trkpt lat="44.7540341" lon="10.318192"><ele>86.0</ele><time>2026-04-26T17:37:01.771Z</time></trkpt><trkpt lat="44.7541706" lon="10.3182438"><ele>86.0</ele><time>2026-04-26T17:37:02.771Z</time></trkpt><trkpt lat="44.7543151" lon="10.3183078"><ele>86.0</ele><time>2026-04-26T17:37:03.772Z</time></trkpt><trkpt lat="44.7544626" lon="10.3183678"><ele>86.0</ele><time>2026-04-26T17:37:04.771Z</time></trkpt><trkpt lat="44.7546244" lon="10.3184368"><ele>86.33333333333334</ele><time>2026-04-26T17:37:05.772Z</time></trkpt><trkpt lat="44.7547861" lon="10.3185072"><ele>86.66666666666667</ele><time>2026-04-26T17:37:06.771Z</time></trkpt><trkpt lat="44.7549564" lon="10.3185756"><ele>87.0</ele><time>2026-04-26T17:37:07.771Z</time></trkpt><trkpt lat="44.7551324" lon="10.3186477"><ele>86.66666666666667</ele><time>2026-04-26T17:37:08.772Z</time></trkpt><trkpt lat="44.7553179" lon="10.3187166"><ele>86.33333333333334</ele><time>2026-04-26T17:37:09.772Z</time></trkpt><trkpt lat="44.7555028" lon="10.3187983"><ele>86.0</ele><time>2026-04-26T17:37:10.771Z</time></trkpt><trkpt lat="44.7556715" lon="10.3188722"><ele>85.66666666666667</ele><time>2026-04-26T17:37:11.772Z</time></trkpt><trkpt lat="44.7558297" lon="10.3189449"><ele>85.33333333333333</ele><time>2026-04-26T17:37:12.771Z</time></trkpt><trkpt lat="44.7559824" lon="10.3190148"><ele>85.0</ele><time>2026-04-26T17:37:13.773Z</time></trkpt><trkpt lat="44.7561272" lon="10.3190852"><ele>85.0</ele><time>2026-04-26T17:37:14.772Z</time></trkpt><trkpt lat="44.7562735" lon="10.3191458"><ele>85.0</ele><time>2026-04-26T17:37:15.771Z</time></trkpt><trkpt lat="44.7564244" lon="10.3192112"><ele>85.0</ele><time>2026-04-26T17:37:16.772Z</time></trkpt><trkpt lat="44.7565787" lon="10.3192808"><ele>85.0</ele><time>2026-04-26T17:37:17.771Z</time></trkpt><trkpt lat="44.7567313" lon="10.3193529"><ele>85.0</ele><time>2026-04-26T17:37:18.771Z</time></trkpt><trkpt lat="44.756876" lon="10.3194214"><ele>85.0</ele><time>2026-04-26T17:37:19.772Z</time></trkpt><trkpt lat="44.7570188" lon="10.3194868"><ele>85.0</ele><time>2026-04-26T17:37:20.771Z</time></trkpt><trkpt lat="44.7571434" lon="10.3195435"><ele>85.0</ele><time>2026-04-26T17:37:21.771Z</time></trkpt><trkpt lat="44.7572636" lon="10.3195963"><ele>85.0</ele><time>2026-04-26T17:37:22.772Z</time></trkpt><trkpt lat="44.7573899" lon="10.3196499"><ele>85.0</ele><time>2026-04-26T17:37:23.772Z</time></trkpt><trkpt lat="44.7575168" lon="10.3197046"><ele>84.75</ele><time>2026-04-26T17:37:24.771Z</time></trkpt><trkpt lat="44.7576436" lon="10.3197571"><ele>84.5</ele><time>2026-04-26T17:37:25.772Z</time></trkpt><trkpt lat="44.7577651" lon="10.3198045"><ele>84.25</ele><time>2026-04-26T17:37:26.771Z</time></trkpt><trkpt lat="44.7578796" lon="10.3198476"><ele>84.0</ele><time>2026-04-26T17:37:27.772Z</time></trkpt><trkpt lat="44.7579925" lon="10.3198927"><ele>83.75</ele><time>2026-04-26T17:37:28.771Z</time></trkpt><trkpt lat="44.7581088" lon="10.3199355"><ele>83.5</ele><time>2026-04-26T17:37:29.771Z</time></trkpt><trkpt lat="44.7582226" lon="10.3199761"><ele>83.25</ele><time>2026-04-26T17:37:30.771Z</time></trkpt><trkpt lat="44.7583362" lon="10.3200232"><ele>83.0</ele><time>2026-04-26T17:37:31.771Z</time></trkpt><trkpt lat="44.7584533" lon="10.3200714"><ele>82.66666666666667</ele><time>2026-04-26T17:37:32.772Z</time></trkpt><trkpt lat="44.7585804" lon="10.3201182"><ele>82.33333333333333</ele><time>2026-04-26T17:37:33.771Z</time></trkpt><trkpt lat="44.7587281" lon="10.3201701"><ele>82.0</ele><time>2026-04-26T17:37:34.771Z</time></trkpt><trkpt lat="44.7588928" lon="10.3202252"><ele>82.0</ele><time>2026-04-26T17:37:35.771Z</time></trkpt><trkpt lat="44.7590516" lon="10.3202886"><ele>82.0</ele><time>2026-04-26T17:37:36.771Z</time></trkpt><trkpt lat="44.7591979" lon="10.3203492"><ele>82.0</ele><time>2026-04-26T17:37:37.772Z</time></trkpt><trkpt lat="44.7593485" lon="10.3204128"><ele>81.66666666666666</ele><time>2026-04-26T17:37:38.771Z</time></trkpt><trkpt lat="44.7595174" lon="10.320475"><ele>81.33333333333333</ele><time>2026-04-26T17:37:39.772Z</time></trkpt><trkpt lat="44.7597018" lon="10.3205388"><ele>81.0</ele><time>2026-04-26T17:37:40.771Z</time></trkpt><trkpt lat="44.7598982" lon="10.3206089"><ele>80.33333333333333</ele><time>2026-04-26T17:37:41.771Z</time></trkpt><trkpt lat="44.7600803" lon="10.3206852"><ele>79.66666666666666</ele><time>2026-04-26T17:37:42.772Z</time></trkpt><trkpt lat="44.7602496" lon="10.3207583"><ele>79.0</ele><time>2026-04-26T17:37:43.772Z</time></trkpt><trkpt lat="44.7604167" lon="10.3208285"><ele>78.66666666666666</ele><time>2026-04-26T17:37:44.772Z</time></trkpt><trkpt lat="44.7605787" lon="10.3208919"><ele>78.33333333333333</ele><time>2026-04-26T17:37:45.771Z</time></trkpt><trkpt lat="44.7607331" lon="10.3209508"><ele>78.0</ele><time>2026-04-26T17:37:46.771Z</time></trkpt><trkpt lat="44.7608739" lon="10.3210079"><ele>78.0</ele><time>2026-04-26T17:37:47.772Z</time></trkpt><trkpt lat="44.7610073" lon="10.3210579"><ele>78.0</ele><time>2026-04-26T17:37:48.772Z</time></trkpt><trkpt lat="44.7611328" lon="10.3211116"><ele>78.0</ele><time>2026-04-26T17:37:49.771Z</time></trkpt><trkpt lat="44.7612573" lon="10.3211597"><ele>78.0</ele><time>2026-04-26T17:37:50.771Z</time></trkpt><trkpt lat="44.7613492" lon="10.3211901"><ele>78.66666666666667</ele><time>2026-04-26T17:37:51.772Z</time></trkpt><trkpt lat="44.7614414" lon="10.3212249"><ele>79.33333333333333</ele><time>2026-04-26T17:37:52.771Z</time></trkpt><trkpt lat="44.7615239" lon="10.3212583"><ele>80.0</ele><time>2026-04-26T17:37:53.771Z</time></trkpt><trkpt lat="44.7616057" lon="10.3212865"><ele>80.66666666666666</ele><time>2026-04-26T17:37:54.772Z</time></trkpt><trkpt lat="44.7616772" lon="10.3213155"><ele>81.33333333333333</ele><time>2026-04-26T17:37:55.771Z</time></trkpt><trkpt lat="44.761742" lon="10.3213404"><ele>82.0</ele><time>2026-04-26T17:37:56.771Z</time></trkpt><trkpt lat="44.7618022" lon="10.3213668"><ele>81.5</ele><time>2026-04-26T17:37:57.772Z</time></trkpt><trkpt lat="44.7619061" lon="10.3214384"><ele>81.0</ele><time>2026-04-26T17:37:59.771Z</time></trkpt><trkpt lat="44.7619845" lon="10.321546"><ele>80.5</ele><time>2026-04-26T17:38:01.771Z</time></trkpt><trkpt lat="44.7620336" lon="10.3216103"><ele>80.0</ele><time>2026-04-26T17:38:02.771Z</time></trkpt><trkpt lat="44.762096" lon="10.3216515"><ele>79.5</ele><time>2026-04-26T17:38:03.773Z</time></trkpt><trkpt lat="44.7621651" lon="10.321656"><ele>79.0</ele><time>2026-04-26T17:38:04.771Z</time></trkpt><trkpt lat="44.762235" lon="10.3216384"><ele>79.0</ele><time>2026-04-26T17:38:05.772Z</time></trkpt><trkpt lat="44.7623067" lon="10.3216217"><ele>79.0</ele><time>2026-04-26T17:38:06.771Z</time></trkpt><trkpt lat="44.7623818" lon="10.3216166"><ele>79.0</ele><time>2026-04-26T17:38:07.771Z</time></trkpt><trkpt lat="44.7624562" lon="10.3216328"><ele>79.0</ele><time>2026-04-26T17:38:08.771Z</time></trkpt><trkpt lat="44.7625291" lon="10.3216578"><ele>79.0</ele><time>2026-04-26T17:38:09.772Z</time></trkpt><trkpt lat="44.7626066" lon="10.3216834"><ele>79.0</ele><time>2026-04-26T17:38:10.771Z</time></trkpt><trkpt lat="44.7626904" lon="10.3217204"><ele>78.4</ele><time>2026-04-26T17:38:11.771Z</time></trkpt><trkpt lat="44.7627768" lon="10.3217635"><ele>77.80000000000001</ele><time>2026-04-26T17:38:12.773Z</time></trkpt><trkpt lat="44.7628667" lon="10.3218019"><ele>77.19999999999999</ele><time>2026-04-26T17:38:13.771Z</time></trkpt><trkpt lat="44.7629626" lon="10.3218402"><ele>76.6</ele><time>2026-04-26T17:38:14.772Z</time></trkpt><trkpt lat="44.7630513" lon="10.3218752"><ele>76.0</ele><time>2026-04-26T17:38:15.771Z</time></trkpt><trkpt lat="44.7631318" lon="10.3219068"><ele>76.0</ele><time>2026-04-26T17:38:16.772Z</time></trkpt><trkpt lat="44.7632076" lon="10.3219401"><ele>76.0</ele><time>2026-04-26T17:38:17.772Z</time></trkpt><trkpt lat="44.7632869" lon="10.3219709"><ele>76.0</ele><time>2026-04-26T17:38:18.772Z</time></trkpt><trkpt lat="44.7633774" lon="10.3220024"><ele>76.0</ele><time>2026-04-26T17:38:19.771Z</time></trkpt><trkpt lat="44.7634702" lon="10.3220353"><ele>76.0</ele><time>2026-04-26T17:38:20.772Z</time></trkpt><trkpt lat="44.7635693" lon="10.3220714"><ele>76.0</ele><time>2026-04-26T17:38:21.771Z</time></trkpt><trkpt lat="44.7636707" lon="10.3221059"><ele>76.0</ele><time>2026-04-26T17:38:22.771Z</time></trkpt><trkpt lat="44.7637667" lon="10.3221405"><ele>76.0</ele><time>2026-04-26T17:38:23.772Z</time></trkpt><trkpt lat="44.7638628" lon="10.3221708"><ele>76.0</ele><time>2026-04-26T17:38:24.771Z</time></trkpt><trkpt lat="44.7639546" lon="10.3222078"><ele>76.0</ele><time>2026-04-26T17:38:25.771Z</time></trkpt><trkpt lat="44.7640357" lon="10.32224"><ele>76.0</ele><time>2026-04-26T17:38:26.772Z</time></trkpt><trkpt lat="44.7641066" lon="10.3222708"><ele>76.0</ele><time>2026-04-26T17:38:27.771Z</time></trkpt><trkpt lat="44.7641904" lon="10.3223184"><ele>76.0</ele><time>2026-04-26T17:38:29.771Z</time></trkpt><trkpt lat="44.7642384" lon="10.3223765"><ele>76.0</ele><time>2026-04-26T17:38:31.771Z</time></trkpt><trkpt lat="44.7642848" lon="10.3224708"><ele>76.0</ele><time>2026-04-26T17:38:33.771Z</time></trkpt><trkpt lat="44.7643126" lon="10.3226216"><ele>76.0</ele><time>2026-04-26T17:38:35.771Z</time></trkpt><trkpt lat="44.7643853" lon="10.3227162"><ele>76.2</ele><time>2026-04-26T17:38:37.772Z</time></trkpt><trkpt lat="44.7644914" lon="10.3226896"><ele>76.39999999999999</ele><time>2026-04-26T17:38:39.772Z</time></trkpt><trkpt lat="44.7645582" lon="10.3226505"><ele>76.6</ele><time>2026-04-26T17:38:40.771Z</time></trkpt><trkpt lat="44.7646392" lon="10.3226157"><ele>76.8</ele><time>2026-04-26T17:38:41.772Z</time></trkpt><trkpt lat="44.7647468" lon="10.322608"><ele>77.0</ele><time>2026-04-26T17:38:42.771Z</time></trkpt><trkpt lat="44.7648469" lon="10.3226022"><ele>77.0</ele><time>2026-04-26T17:38:43.771Z</time></trkpt><trkpt lat="44.7649641" lon="10.3225976"><ele>77.0</ele><time>2026-04-26T17:38:44.771Z</time></trkpt><trkpt lat="44.7650944" lon="10.322587"><ele>77.0</ele><time>2026-04-26T17:38:45.772Z</time></trkpt><trkpt lat="44.765242" lon="10.3226131"><ele>77.0</ele><time>2026-04-26T17:38:46.771Z</time></trkpt><trkpt lat="44.7653784" lon="10.3226614"><ele>76.5</ele><time>2026-04-26T17:38:47.771Z</time></trkpt><trkpt lat="44.7655031" lon="10.3226946"><ele>76.0</ele><time>2026-04-26T17:38:48.772Z</time></trkpt><trkpt lat="44.765631" lon="10.3227273"><ele>75.5</ele><time>2026-04-26T17:38:49.771Z</time></trkpt><trkpt lat="44.7657675" lon="10.3227564"><ele>75.0</ele><time>2026-04-26T17:38:50.772Z</time></trkpt><trkpt lat="44.7659027" lon="10.3227871"><ele>75.0</ele><time>2026-04-26T17:38:51.771Z</time></trkpt><trkpt lat="44.7660208" lon="10.3228271"><ele>75.0</ele><time>2026-04-26T17:38:52.772Z</time></trkpt><trkpt lat="44.7661252" lon="10.3228868"><ele>75.0</ele><time>2026-04-26T17:38:53.772Z</time></trkpt><trkpt lat="44.7662155" lon="10.3229571"><ele>75.0</ele><time>2026-04-26T17:38:54.772Z</time></trkpt><trkpt lat="44.7662999" lon="10.3230295"><ele>75.0</ele><time>2026-04-26T17:38:55.771Z</time></trkpt><trkpt lat="44.7663743" lon="10.3231209"><ele>74.0</ele><time>2026-04-26T17:38:56.772Z</time></trkpt><trkpt lat="44.7664359" lon="10.3232144"><ele>73.0</ele><time>2026-04-26T17:38:57.771Z</time></trkpt><trkpt lat="44.7664831" lon="10.3233164"><ele>72.0</ele><time>2026-04-26T17:38:58.771Z</time></trkpt><trkpt lat="44.7665203" lon="10.3234326"><ele>71.0</ele><time>2026-04-26T17:38:59.771Z</time></trkpt><trkpt lat="44.7665554" lon="10.3235748"><ele>70.0</ele><time>2026-04-26T17:39:00.771Z</time></trkpt><trkpt lat="44.7665975" lon="10.3237216"><ele>70.0</ele><time>2026-04-26T17:39:01.773Z</time></trkpt><trkpt lat="44.7666473" lon="10.3238597"><ele>70.0</ele><time>2026-04-26T17:39:02.771Z</time></trkpt><trkpt lat="44.7667174" lon="10.323981"><ele>70.0</ele><time>2026-04-26T17:39:03.771Z</time></trkpt><trkpt lat="44.766799" lon="10.3240769"><ele>70.0</ele><time>2026-04-26T17:39:04.772Z</time></trkpt><trkpt lat="44.7668886" lon="10.3241673"><ele>70.0</ele><time>2026-04-26T17:39:05.771Z</time></trkpt><trkpt lat="44.7669745" lon="10.3242505"><ele>70.2</ele><time>2026-04-26T17:39:06.771Z</time></trkpt><trkpt lat="44.7670523" lon="10.324328"><ele>70.4</ele><time>2026-04-26T17:39:07.772Z</time></trkpt><trkpt lat="44.7671149" lon="10.3244183"><ele>70.6</ele><time>2026-04-26T17:39:08.771Z</time></trkpt><trkpt lat="44.767159" lon="10.3245152"><ele>70.8</ele><time>2026-04-26T17:39:09.771Z</time></trkpt><trkpt lat="44.7671933" lon="10.3246294"><ele>71.0</ele><time>2026-04-26T17:39:10.771Z</time></trkpt><trkpt lat="44.7672194" lon="10.3247605"><ele>70.6</ele><time>2026-04-26T17:39:11.771Z</time></trkpt><trkpt lat="44.7672484" lon="10.3248882"><ele>70.19999999999999</ele><time>2026-04-26T17:39:12.771Z</time></trkpt><trkpt lat="44.7672727" lon="10.3250088"><ele>69.80000000000001</ele><time>2026-04-26T17:39:13.771Z</time></trkpt><trkpt lat="44.7672962" lon="10.325125"><ele>69.4</ele><time>2026-04-26T17:39:14.772Z</time></trkpt><trkpt lat="44.7673263" lon="10.3252468"><ele>69.0</ele><time>2026-04-26T17:39:15.771Z</time></trkpt><trkpt lat="44.7673602" lon="10.3253727"><ele>69.0</ele><time>2026-04-26T17:39:16.771Z</time></trkpt><trkpt lat="44.7673991" lon="10.3254985"><ele>69.0</ele><time>2026-04-26T17:39:17.772Z</time></trkpt><trkpt lat="44.7674426" lon="10.3256334"><ele>69.0</ele><time>2026-04-26T17:39:18.771Z</time></trkpt><trkpt lat="44.7674966" lon="10.3257725"><ele>69.0</ele><time>2026-04-26T17:39:19.771Z</time></trkpt><trkpt lat="44.7675608" lon="10.3259113"><ele>69.0</ele><time>2026-04-26T17:39:20.771Z</time></trkpt><trkpt lat="44.7676269" lon="10.3260555"><ele>69.25</ele><time>2026-04-26T17:39:21.771Z</time></trkpt><trkpt lat="44.7677013" lon="10.3262052"><ele>69.5</ele><time>2026-04-26T17:39:22.772Z</time></trkpt><trkpt lat="44.7677811" lon="10.3263521"><ele>69.75</ele><time>2026-04-26T17:39:23.772Z</time></trkpt><trkpt lat="44.7678707" lon="10.3265122"><ele>70.0</ele><time>2026-04-26T17:39:24.771Z</time></trkpt><trkpt lat="44.767986" lon="10.3266779"><ele>70.66666666666666</ele><time>2026-04-26T17:39:25.771Z</time></trkpt><trkpt lat="44.7681024" lon="10.3268398"><ele>71.33333333333333</ele><time>2026-04-26T17:39:26.772Z</time></trkpt><trkpt lat="44.7682241" lon="10.3269883"><ele>72.0</ele><time>2026-04-26T17:39:27.771Z</time></trkpt><trkpt lat="44.76837" lon="10.3271409"><ele>70.66666666666667</ele><time>2026-04-26T17:39:28.771Z</time></trkpt><trkpt lat="44.7685477" lon="10.3273115"><ele>69.33333333333334</ele><time>2026-04-26T17:39:29.771Z</time></trkpt><trkpt lat="44.7687381" lon="10.3274865"><ele>68.0</ele><time>2026-04-26T17:39:30.772Z</time></trkpt><trkpt lat="44.7689339" lon="10.3276566"><ele>68.0</ele><time>2026-04-26T17:39:31.771Z</time></trkpt><trkpt lat="44.7691448" lon="10.3278145"><ele>68.0</ele><time>2026-04-26T17:39:32.772Z</time></trkpt><trkpt lat="44.7693627" lon="10.3279527"><ele>70.0</ele><time>2026-04-26T17:39:33.772Z</time></trkpt><trkpt lat="44.7696" lon="10.3280622"><ele>72.0</ele><time>2026-04-26T17:39:34.771Z</time></trkpt><trkpt lat="44.7698434" lon="10.3281505"><ele>72.0</ele><time>2026-04-26T17:39:35.771Z</time></trkpt><trkpt lat="44.7700995" lon="10.3281985"><ele>72.0</ele><time>2026-04-26T17:39:36.772Z</time></trkpt><trkpt lat="44.7703597" lon="10.328224"><ele>72.5</ele><time>2026-04-26T17:39:37.771Z</time></trkpt><trkpt lat="44.7706236" lon="10.3282391"><ele>73.0</ele><time>2026-04-26T17:39:38.772Z</time></trkpt><trkpt lat="44.7708896" lon="10.3282483"><ele>72.5</ele><time>2026-04-26T17:39:39.771Z</time></trkpt><trkpt lat="44.7711543" lon="10.3282497"><ele>72.0</ele><time>2026-04-26T17:39:40.771Z</time></trkpt><trkpt lat="44.7714186" lon="10.3282498"><ele>72.0</ele><time>2026-04-26T17:39:41.772Z</time></trkpt><trkpt lat="44.7716753" lon="10.3282539"><ele>72.0</ele><time>2026-04-26T17:39:42.771Z</time></trkpt><trkpt lat="44.7719335" lon="10.3282578"><ele>70.0</ele><time>2026-04-26T17:39:43.772Z</time></trkpt><trkpt lat="44.7721853" lon="10.328258"><ele>68.0</ele><time>2026-04-26T17:39:44.771Z</time></trkpt><trkpt lat="44.7724289" lon="10.328261"><ele>68.0</ele><time>2026-04-26T17:39:45.771Z</time></trkpt><trkpt lat="44.7726654" lon="10.3282642"><ele>68.0</ele><time>2026-04-26T17:39:46.77Z</time></trkpt><trkpt lat="44.7728912" lon="10.3282796"><ele>68.66666666666667</ele><time>2026-04-26T17:39:47.77Z</time></trkpt><trkpt lat="44.7731042" lon="10.3283043"><ele>69.33333333333333</ele><time>2026-04-26T17:39:48.771Z</time></trkpt><trkpt lat="44.7733071" lon="10.3283421"><ele>70.0</ele><time>2026-04-26T17:39:49.77Z</time></trkpt><trkpt lat="44.773506" lon="10.3284005"><ele>70.33333333333333</ele><time>2026-04-26T17:39:50.77Z</time></trkpt><trkpt lat="44.773705" lon="10.3284707"><ele>70.66666666666667</ele><time>2026-04-26T17:39:51.77Z</time></trkpt><trkpt lat="44.773903" lon="10.3285599"><ele>71.0</ele><time>2026-04-26T17:39:52.771Z</time></trkpt><trkpt lat="44.7740938" lon="10.328671"><ele>71.0</ele><time>2026-04-26T17:39:53.77Z</time></trkpt><trkpt lat="44.7742813" lon="10.328796"><ele>71.0</ele><time>2026-04-26T17:39:54.77Z</time></trkpt><trkpt lat="44.7744638" lon="10.3289587"><ele>71.0</ele><time>2026-04-26T17:39:55.771Z</time></trkpt><trkpt lat="44.7746351" lon="10.3291339"><ele>70.66666666666667</ele><time>2026-04-26T17:39:56.77Z</time></trkpt><trkpt lat="44.7747963" lon="10.3293115"><ele>70.33333333333333</ele><time>2026-04-26T17:39:57.77Z</time></trkpt><trkpt lat="44.7749468" lon="10.3294749"><ele>70.0</ele><time>2026-04-26T17:39:58.771Z</time></trkpt><trkpt lat="44.7750838" lon="10.3296204"><ele>71.0</ele><time>2026-04-26T17:39:59.77Z</time></trkpt><trkpt lat="44.7751961" lon="10.3297331"><ele>72.0</ele><time>2026-04-26T17:40:00.77Z</time></trkpt><trkpt lat="44.7752885" lon="10.3298477"><ele>73.0</ele><time>2026-04-26T17:40:01.77Z</time></trkpt><trkpt lat="44.77535" lon="10.3299784"><ele>74.0</ele><time>2026-04-26T17:40:02.772Z</time></trkpt><trkpt lat="44.7753832" lon="10.3301252"><ele>74.0</ele><time>2026-04-26T17:40:03.771Z</time></trkpt><trkpt lat="44.7754013" lon="10.3302988"><ele>74.0</ele><time>2026-04-26T17:40:04.77Z</time></trkpt><trkpt lat="44.7754136" lon="10.3304596"><ele>74.0</ele><time>2026-04-26T17:40:05.77Z</time></trkpt><trkpt lat="44.7754461" lon="10.3305952"><ele>74.0</ele><time>2026-04-26T17:40:06.77Z</time></trkpt><trkpt lat="44.7754945" lon="10.330716"><ele>74.0</ele><time>2026-04-26T17:40:07.77Z</time></trkpt><trkpt lat="44.7755679" lon="10.3308163"><ele>73.60000000000001</ele><time>2026-04-26T17:40:08.77Z</time></trkpt><trkpt lat="44.7756507" lon="10.3308571"><ele>73.2</ele><time>2026-04-26T17:40:09.77Z</time></trkpt><trkpt lat="44.775738" lon="10.3308438"><ele>72.80000000000001</ele><time>2026-04-26T17:40:10.77Z</time></trkpt><trkpt lat="44.7758357" lon="10.3307813"><ele>72.4</ele><time>2026-04-26T17:40:11.771Z</time></trkpt><trkpt lat="44.7759385" lon="10.3307167"><ele>72.0</ele><time>2026-04-26T17:40:12.77Z</time></trkpt><trkpt lat="44.7760364" lon="10.330684"><ele>72.0</ele><time>2026-04-26T17:40:13.771Z</time></trkpt><trkpt lat="44.776142" lon="10.3306664"><ele>72.0</ele><time>2026-04-26T17:40:14.77Z</time></trkpt><trkpt lat="44.7762657" lon="10.3306657"><ele>72.0</ele><time>2026-04-26T17:40:15.771Z</time></trkpt><trkpt lat="44.7764007" lon="10.330682"><ele>72.0</ele><time>2026-04-26T17:40:16.771Z</time></trkpt><trkpt lat="44.7765349" lon="10.3307025"><ele>72.0</ele><time>2026-04-26T17:40:17.77Z</time></trkpt><trkpt lat="44.7766635" lon="10.330747"><ele>72.0</ele><time>2026-04-26T17:40:18.771Z</time></trkpt><trkpt lat="44.7767872" lon="10.3308021"><ele>72.0</ele><time>2026-04-26T17:40:19.77Z</time></trkpt><trkpt lat="44.7768973" lon="10.3308727"><ele>72.0</ele><time>2026-04-26T17:40:20.77Z</time></trkpt><trkpt lat="44.7770042" lon="10.330949"><ele>71.75</ele><time>2026-04-26T17:40:21.772Z</time></trkpt><trkpt lat="44.7771174" lon="10.3310384"><ele>71.5</ele><time>2026-04-26T17:40:22.77Z</time></trkpt><trkpt lat="44.7772232" lon="10.3311288"><ele>71.25</ele><time>2026-04-26T17:40:23.771Z</time></trkpt><trkpt lat="44.7773326" lon="10.3312165"><ele>71.0</ele><time>2026-04-26T17:40:24.77Z</time></trkpt><trkpt lat="44.7774481" lon="10.3313026"><ele>71.0</ele><time>2026-04-26T17:40:25.77Z</time></trkpt><trkpt lat="44.7775824" lon="10.33138"><ele>71.0</ele><time>2026-04-26T17:40:26.771Z</time></trkpt><trkpt lat="44.7777245" lon="10.3314548"><ele>71.0</ele><time>2026-04-26T17:40:27.77Z</time></trkpt><trkpt lat="44.777866" lon="10.3315217"><ele>71.0</ele><time>2026-04-26T17:40:28.77Z</time></trkpt><trkpt lat="44.7780052" lon="10.331572"><ele>70.5</ele><time>2026-04-26T17:40:29.771Z</time></trkpt><trkpt lat="44.7781438" lon="10.3316111"><ele>70.0</ele><time>2026-04-26T17:40:30.77Z</time></trkpt><trkpt lat="44.7782781" lon="10.331639"><ele>69.5</ele><time>2026-04-26T17:40:31.771Z</time></trkpt><trkpt lat="44.7784111" lon="10.3316617"><ele>69.0</ele><time>2026-04-26T17:40:32.77Z</time></trkpt><trkpt lat="44.7785385" lon="10.3316768"><ele>68.75</ele><time>2026-04-26T17:40:33.771Z</time></trkpt><trkpt lat="44.7786552" lon="10.3316822"><ele>68.5</ele><time>2026-04-26T17:40:34.771Z</time></trkpt><trkpt lat="44.7787725" lon="10.3316836"><ele>68.25</ele><time>2026-04-26T17:40:35.772Z</time></trkpt><trkpt lat="44.7788943" lon="10.3316837"><ele>68.0</ele><time>2026-04-26T17:40:36.77Z</time></trkpt><trkpt lat="44.7790221" lon="10.3316831"><ele>68.0</ele><time>2026-04-26T17:40:37.771Z</time></trkpt><trkpt lat="44.7791557" lon="10.3316852"><ele>68.0</ele><time>2026-04-26T17:40:38.77Z</time></trkpt><trkpt lat="44.7792905" lon="10.3316878"><ele>68.0</ele><time>2026-04-26T17:40:39.77Z</time></trkpt><trkpt lat="44.7794219" lon="10.3316903"><ele>68.0</ele><time>2026-04-26T17:40:40.77Z</time></trkpt><trkpt lat="44.7795517" lon="10.3316914"><ele>68.0</ele><time>2026-04-26T17:40:41.77Z</time></trkpt><trkpt lat="44.7796798" lon="10.3316909"><ele>68.0</ele><time>2026-04-26T17:40:42.771Z</time></trkpt><trkpt lat="44.7798051" lon="10.331695"><ele>68.0</ele><time>2026-04-26T17:40:43.77Z</time></trkpt><trkpt lat="44.7799263" lon="10.3316955"><ele>68.0</ele><time>2026-04-26T17:40:44.77Z</time></trkpt><trkpt lat="44.7800352" lon="10.3316951"><ele>68.0</ele><time>2026-04-26T17:40:45.771Z</time></trkpt><trkpt lat="44.7801221" lon="10.3316976"><ele>68.0</ele><time>2026-04-26T17:40:46.77Z</time></trkpt><trkpt lat="44.7802012" lon="10.3316886"><ele>68.0</ele><time>2026-04-26T17:40:47.77Z</time></trkpt><trkpt lat="44.7802796" lon="10.33168"><ele>68.0</ele><time>2026-04-26T17:40:48.77Z</time></trkpt><trkpt lat="44.7803825" lon="10.3316723"><ele>68.0</ele><time>2026-04-26T17:40:49.772Z</time></trkpt><trkpt lat="44.7805034" lon="10.3316692"><ele>68.25</ele><time>2026-04-26T17:40:50.77Z</time></trkpt><trkpt lat="44.7806423" lon="10.3316802"><ele>68.5</ele><time>2026-04-26T17:40:51.77Z</time></trkpt><trkpt lat="44.7807923" lon="10.331687"><ele>68.75</ele><time>2026-04-26T17:40:52.77Z</time></trkpt><trkpt lat="44.7809506" lon="10.331693"><ele>69.0</ele><time>2026-04-26T17:40:53.771Z</time></trkpt><trkpt lat="44.7811042" lon="10.3316874"><ele>68.33333333333333</ele><time>2026-04-26T17:40:54.77Z</time></trkpt><trkpt lat="44.7812648" lon="10.3316354"><ele>67.66666666666666</ele><time>2026-04-26T17:40:55.772Z</time></trkpt><trkpt lat="44.7814123" lon="10.3315735"><ele>67.0</ele><time>2026-04-26T17:40:56.77Z</time></trkpt><trkpt lat="44.7815454" lon="10.3314993"><ele>67.0</ele><time>2026-04-26T17:40:57.771Z</time></trkpt><trkpt lat="44.7816771" lon="10.3314318"><ele>67.0</ele><time>2026-04-26T17:40:58.77Z</time></trkpt><trkpt lat="44.7817947" lon="10.3313735"><ele>67.0</ele><time>2026-04-26T17:40:59.771Z</time></trkpt><trkpt lat="44.7819094" lon="10.3313456"><ele>67.0</ele><time>2026-04-26T17:41:00.77Z</time></trkpt><trkpt lat="44.7820147" lon="10.3313525"><ele>66.6</ele><time>2026-04-26T17:41:01.77Z</time></trkpt><trkpt lat="44.7821062" lon="10.3314032"><ele>66.2</ele><time>2026-04-26T17:41:02.771Z</time></trkpt><trkpt lat="44.7821735" lon="10.3314837"><ele>65.8</ele><time>2026-04-26T17:41:03.77Z</time></trkpt><trkpt lat="44.7822205" lon="10.3315939"><ele>65.4</ele><time>2026-04-26T17:41:04.77Z</time></trkpt><trkpt lat="44.7822439" lon="10.3317425"><ele>65.0</ele><time>2026-04-26T17:41:05.77Z</time></trkpt><trkpt lat="44.7822462" lon="10.3318881"><ele>65.0</ele><time>2026-04-26T17:41:06.771Z</time></trkpt><trkpt lat="44.7822512" lon="10.3320192"><ele>65.0</ele><time>2026-04-26T17:41:07.77Z</time></trkpt><trkpt lat="44.7822763" lon="10.3321223"><ele>65.0</ele><time>2026-04-26T17:41:08.77Z</time></trkpt><trkpt lat="44.7823245" lon="10.3321847"><ele>65.0</ele><time>2026-04-26T17:41:09.771Z</time></trkpt><trkpt lat="44.7823952" lon="10.3322141"><ele>65.0</ele><time>2026-04-26T17:41:10.77Z</time></trkpt><trkpt lat="44.7824989" lon="10.3322167"><ele>65.0</ele><time>2026-04-26T17:41:11.771Z</time></trkpt><trkpt lat="44.7826086" lon="10.3322228"><ele>65.25</ele><time>2026-04-26T17:41:12.77Z</time></trkpt><trkpt lat="44.7827381" lon="10.3322252"><ele>65.5</ele><time>2026-04-26T17:41:13.771Z</time></trkpt><trkpt lat="44.7828795" lon="10.3322271"><ele>65.75</ele><time>2026-04-26T17:41:14.77Z</time></trkpt><trkpt lat="44.7830216" lon="10.3322289"><ele>66.0</ele><time>2026-04-26T17:41:15.771Z</time></trkpt><trkpt lat="44.7831674" lon="10.3322353"><ele>66.0</ele><time>2026-04-26T17:41:16.77Z</time></trkpt><trkpt lat="44.783302" lon="10.3322397"><ele>66.0</ele><time>2026-04-26T17:41:17.77Z</time></trkpt><trkpt lat="44.7834308" lon="10.3322415"><ele>66.0</ele><time>2026-04-26T17:41:18.772Z</time></trkpt><trkpt lat="44.7835661" lon="10.3322384"><ele>66.0</ele><time>2026-04-26T17:41:19.77Z</time></trkpt><trkpt lat="44.7837107" lon="10.3322216"><ele>66.66666666666667</ele><time>2026-04-26T17:41:20.771Z</time></trkpt><trkpt lat="44.7838596" lon="10.3321807"><ele>67.33333333333334</ele><time>2026-04-26T17:41:21.77Z</time></trkpt><trkpt lat="44.7840093" lon="10.3321223"><ele>68.0</ele><time>2026-04-26T17:41:22.771Z</time></trkpt><trkpt lat="44.7841487" lon="10.3320456"><ele>68.0</ele><time>2026-04-26T17:41:23.77Z</time></trkpt><trkpt lat="44.7842771" lon="10.3319741"><ele>68.0</ele><time>2026-04-26T17:41:24.771Z</time></trkpt><trkpt lat="44.7843978" lon="10.3319059"><ele>68.0</ele><time>2026-04-26T17:41:25.77Z</time></trkpt><trkpt lat="44.7845064" lon="10.3318413"><ele>68.0</ele><time>2026-04-26T17:41:26.77Z</time></trkpt><trkpt lat="44.7846101" lon="10.3317791"><ele>68.0</ele><time>2026-04-26T17:41:27.77Z</time></trkpt><trkpt lat="44.7847161" lon="10.3317204"><ele>68.0</ele><time>2026-04-26T17:41:28.77Z</time></trkpt><trkpt lat="44.784824" lon="10.3316595"><ele>68.0</ele><time>2026-04-26T17:41:29.77Z</time></trkpt><trkpt lat="44.7849325" lon="10.3315968"><ele>68.0</ele><time>2026-04-26T17:41:30.77Z</time></trkpt><trkpt lat="44.7850347" lon="10.3315336"><ele>68.0</ele><time>2026-04-26T17:41:31.77Z</time></trkpt><trkpt lat="44.7851426" lon="10.3314718"><ele>68.0</ele><time>2026-04-26T17:41:32.771Z</time></trkpt><trkpt lat="44.7852473" lon="10.3314103"><ele>68.0</ele><time>2026-04-26T17:41:33.771Z</time></trkpt><trkpt lat="44.7853507" lon="10.331346"><ele>68.0</ele><time>2026-04-26T17:41:34.77Z</time></trkpt><trkpt lat="44.7854541" lon="10.3312834"><ele>67.8</ele><time>2026-04-26T17:41:35.771Z</time></trkpt><trkpt lat="44.7855584" lon="10.3312281"><ele>67.6</ele><time>2026-04-26T17:41:36.77Z</time></trkpt><trkpt lat="44.7856629" lon="10.3311667"><ele>67.4</ele><time>2026-04-26T17:41:37.77Z</time></trkpt><trkpt lat="44.7857321" lon="10.3311234"><ele>67.2</ele><time>2026-04-26T17:41:38.77Z</time></trkpt><trkpt lat="44.7858147" lon="10.3310744"><ele>67.0</ele><time>2026-04-26T17:41:39.77Z</time></trkpt><trkpt lat="44.7858818" lon="10.33104"><ele>67.0</ele><time>2026-04-26T17:41:40.77Z</time></trkpt><trkpt lat="44.7859797" lon="10.3309899"><ele>67.0</ele><time>2026-04-26T17:41:42.77Z</time></trkpt><trkpt lat="44.7860395" lon="10.3309506"><ele>66.0</ele><time>2026-04-26T17:41:44.771Z</time></trkpt><trkpt lat="44.7861103" lon="10.3309305"><ele>66.0</ele><time>2026-04-26T17:41:47.77Z</time></trkpt></trkseg></trk></gpx>